<?xml version="1.0" encoding="UTF-8" standalone="no" ?>
<gpx xmlns="http://www.topografix.com/GPX/1/1" xmlns:xsi="http://www.w3.org/2001/XMLSchema-instance" xsi:schemaLocation="http://www.topografix.com/GPX/1/1 http://www.topografix.com/GPX/1/1/gpx.xsd" version="1.1" creator="VisuGPX - https://www.visugpx.com">
  <metadata>
    <name>Eddimo Norvège à vélo Belgique Hollande Allemagne aller</name>
    <desc><![CDATA[

]]></desc>
  </metadata>
  <wpt lat="50.34378" lon="4.02759">
    <ele>107.9</ele>
    <name><![CDATA[Villers Sire Nicole Mai 2019]]></name>
    <desc><![CDATA[11 Mai 2019 de Anor Etang de Milourd à Villers Sire Nicole 72,41 Km D+ 508 m<br />Un morceau de l\'Eurovelo 3 bien humides et boueux + routes]]></desc>
    <cmt><![CDATA[{\"rate\":3.0}]]></cmt>
    <type><![CDATA[bivouacls3]]></type>
  </wpt>
  <wpt lat="50.93409" lon="4.38238">
    <ele>28.6</ele>
    <name><![CDATA[Grimbergen Mai 2019]]></name>
    <type><![CDATA[bivouacls3]]></type>
  </wpt>
  <wpt lat="51.45411" lon="4.46355">
    <ele>17</ele>
    <name><![CDATA[Essen Mai 2019]]></name>
    <type><![CDATA[bivouacls3]]></type>
  </wpt>
  <wpt lat="51.99801" lon="4.7576">
    <name><![CDATA[Gouda Mai 2019]]></name>
    <type><![CDATA[bivouacls3]]></type>
  </wpt>
  <wpt lat="52.39086" lon="4.93237">
    <name><![CDATA[Amsterdam Mai 2019]]></name>
    <type><![CDATA[bivouacls3]]></type>
  </wpt>
  <wpt lat="52.87768" lon="5.36797">
    <name><![CDATA[Staveren Mai 2019]]></name>
    <type><![CDATA[bivouacls3]]></type>
  </wpt>
  <wpt lat="52.93468" lon="6.28597">
    <ele>8</ele>
    <name><![CDATA[Esloo Mai 2019]]></name>
    <type><![CDATA[bivouacls3]]></type>
  </wpt>
  <wpt lat="53.18433" lon="7.13326">
    <name><![CDATA[Beerta Mai 2019]]></name>
    <type><![CDATA[bivouacls3]]></type>
  </wpt>
  <wpt lat="53.38489" lon="8.00867">
    <ele>10</ele>
    <name><![CDATA[Bockhorn Mai 2019]]></name>
    <type><![CDATA[bivouacls3]]></type>
  </wpt>
  <wpt lat="54.13472" lon="9.65402">
    <ele>27</ele>
    <name><![CDATA[Remmels Mai 2019]]></name>
    <type><![CDATA[bivouacls0]]></type>
  </wpt>
  <wpt lat="53.75927" lon="9.37901">
    <ele>1</ele>
    <name><![CDATA[Krautsand Mai et Aout 2019]]></name>
    <type><![CDATA[bivouacls3]]></type>
  </wpt>
  <wpt lat="53.57578" lon="8.64989">
    <ele>1</ele>
    <name><![CDATA[Spaden Mai 2019]]></name>
    <type><![CDATA[bivouacls3]]></type>
  </wpt>
  <wpt lat="54.85226" lon="9.3983">
    <ele>34.9</ele>
    <name><![CDATA[Krusa Mai 2019]]></name>
    <desc><![CDATA[Location d\'une hytte pour se secher]]></desc>
    <type><![CDATA[bivouacls3]]></type>
  </wpt>
  <wpt lat="54.50154" lon="9.57091">
    <ele>1</ele>
    <name><![CDATA[Haithabu Mai 2019]]></name>
    <type><![CDATA[bivouacls3]]></type>
  </wpt>
  <wpt lat="53.75927" lon="9.37901">
    <ele>1</ele>
    <name><![CDATA[Krautsand Mai et Aout 2019]]></name>
    <cmt><![CDATA[{\"rate\":3.0}]]></cmt>
    <type><![CDATA[bivouacls3]]></type>
  </wpt>
  <trk>
    <name><![CDATA[Eddimo Norvège à vélo Belgique Hollande Allemagne aller]]></name>
    <extensions>
      <line xmlns="http://www.topografix.com/GPX/gpx_style/0/2">
        <color>00FF00</color>
        <width>4</width>
      </line>
    </extensions>
    <trkseg>
      <trkpt lat="50.34517" lon="4.02571">
        <ele>91.800003051758</ele>
        <time>2019-05-13T08:13:52Z</time>
      </trkpt>
      <trkpt lat="50.34475" lon="4.02508">
        <ele>93.800003051758</ele>
        <time>2019-05-13T08:14:07Z</time>
      </trkpt>
      <trkpt lat="50.34416" lon="4.02406">
        <ele>102.19999694824</ele>
        <time>2019-05-13T08:14:21Z</time>
      </trkpt>
      <trkpt lat="50.34406" lon="4.02336">
        <ele>104.80000305176</ele>
        <time>2019-05-13T08:14:36Z</time>
      </trkpt>
      <trkpt lat="50.34391" lon="4.02246">
        <ele>105</ele>
        <time>2019-05-13T08:14:45Z</time>
      </trkpt>
      <trkpt lat="50.34383" lon="4.02179">
        <ele>104.59999847412</ele>
        <time>2019-05-13T08:14:53Z</time>
      </trkpt>
      <trkpt lat="50.34394" lon="4.02115">
        <ele>103.40000152588</ele>
        <time>2019-05-13T08:15:06Z</time>
      </trkpt>
      <trkpt lat="50.34395" lon="4.02112">
        <ele>104</ele>
        <time>2019-05-13T08:15:16Z</time>
      </trkpt>
      <trkpt lat="50.34342" lon="4.02093">
        <ele>103.19999694824</ele>
        <time>2019-05-13T08:15:26Z</time>
      </trkpt>
      <trkpt lat="50.34286" lon="4.02037">
        <ele>103.19999694824</ele>
        <time>2019-05-13T08:15:41Z</time>
      </trkpt>
      <trkpt lat="50.34252" lon="4.01955">
        <ele>106.80000305176</ele>
        <time>2019-05-13T08:16:04Z</time>
      </trkpt>
      <trkpt lat="50.34198" lon="4.01854">
        <ele>109</ele>
        <time>2019-05-13T08:16:18Z</time>
      </trkpt>
      <trkpt lat="50.34135" lon="4.01764">
        <ele>110.40000152588</ele>
        <time>2019-05-13T08:16:33Z</time>
      </trkpt>
      <trkpt lat="50.3413" lon="4.01754">
        <ele>111</ele>
        <time>2019-05-13T08:18:03Z</time>
      </trkpt>
      <trkpt lat="50.34097" lon="4.01869">
        <ele>113.59999847412</ele>
        <time>2019-05-13T08:18:19Z</time>
      </trkpt>
      <trkpt lat="50.34081" lon="4.01942">
        <ele>114.19999694824</ele>
        <time>2019-05-13T08:18:39Z</time>
      </trkpt>
      <trkpt lat="50.34033" lon="4.0209">
        <ele>112.59999847412</ele>
        <time>2019-05-13T08:18:52Z</time>
      </trkpt>
      <trkpt lat="50.34046" lon="4.02166">
        <ele>110.40000152588</ele>
        <time>2019-05-13T08:19:02Z</time>
      </trkpt>
      <trkpt lat="50.34083" lon="4.02214">
        <ele>106.19999694824</ele>
        <time>2019-05-13T08:19:17Z</time>
      </trkpt>
      <trkpt lat="50.34176" lon="4.02273">
        <ele>100.40000152588</ele>
        <time>2019-05-13T08:19:32Z</time>
      </trkpt>
      <trkpt lat="50.34194" lon="4.02305">
        <ele>99.199996948242</ele>
        <time>2019-05-13T08:19:44Z</time>
      </trkpt>
      <trkpt lat="50.34184" lon="4.02372">
        <ele>98.599998474121</ele>
        <time>2019-05-13T08:20:04Z</time>
      </trkpt>
      <trkpt lat="50.34168" lon="4.02431">
        <ele>98.800003051758</ele>
        <time>2019-05-13T08:20:36Z</time>
      </trkpt>
      <trkpt lat="50.34155" lon="4.02473">
        <ele>100.40000152588</ele>
        <time>2019-05-13T08:20:42Z</time>
      </trkpt>
      <trkpt lat="50.34126" lon="4.0262">
        <ele>108.80000305176</ele>
        <time>2019-05-13T08:20:54Z</time>
      </trkpt>
      <trkpt lat="50.34132" lon="4.02751">
        <ele>116.40000152588</ele>
        <time>2019-05-13T08:21:04Z</time>
      </trkpt>
      <trkpt lat="50.3416" lon="4.02779">
        <ele>117</ele>
        <time>2019-05-13T08:21:21Z</time>
      </trkpt>
      <trkpt lat="50.34221" lon="4.02865">
        <ele>116.59999847412</ele>
        <time>2019-05-13T08:21:40Z</time>
      </trkpt>
      <trkpt lat="50.34262" lon="4.02934">
        <ele>116.80000305176</ele>
        <time>2019-05-13T08:21:46Z</time>
      </trkpt>
      <trkpt lat="50.34302" lon="4.03025">
        <ele>117.80000305176</ele>
        <time>2019-05-13T08:21:53Z</time>
      </trkpt>
      <trkpt lat="50.34329" lon="4.03146">
        <ele>119.40000152588</ele>
        <time>2019-05-13T08:21:59Z</time>
      </trkpt>
      <trkpt lat="50.34338" lon="4.03229">
        <ele>120</ele>
        <time>2019-05-13T08:22:07Z</time>
      </trkpt>
      <trkpt lat="50.34341" lon="4.03331">
        <ele>124</ele>
        <time>2019-05-13T08:22:13Z</time>
      </trkpt>
      <trkpt lat="50.34343" lon="4.03406">
        <ele>125.80000305176</ele>
        <time>2019-05-13T08:22:18Z</time>
      </trkpt>
      <trkpt lat="50.34345" lon="4.03526">
        <ele>127.40000152588</ele>
        <time>2019-05-13T08:22:28Z</time>
      </trkpt>
      <trkpt lat="50.34369" lon="4.03631">
        <ele>130</ele>
        <time>2019-05-13T08:22:46Z</time>
      </trkpt>
      <trkpt lat="50.34387" lon="4.03656">
        <ele>131.19999694824</ele>
        <time>2019-05-13T08:23:00Z</time>
      </trkpt>
      <trkpt lat="50.34412" lon="4.03695">
        <ele>131.19999694824</ele>
        <time>2019-05-13T08:23:12Z</time>
      </trkpt>
      <trkpt lat="50.34487" lon="4.03824">
        <ele>132.80000305176</ele>
        <time>2019-05-13T08:23:28Z</time>
      </trkpt>
      <trkpt lat="50.34595" lon="4.04027">
        <ele>134.60000610352</ele>
        <time>2019-05-13T08:23:39Z</time>
      </trkpt>
      <trkpt lat="50.34602" lon="4.0404">
        <ele>134.39999389648</ele>
        <time>2019-05-13T08:23:53Z</time>
      </trkpt>
      <trkpt lat="50.34633" lon="4.041">
        <ele>134.80000305176</ele>
        <time>2019-05-13T08:24:03Z</time>
      </trkpt>
      <trkpt lat="50.34713" lon="4.04258">
        <ele>137</ele>
        <time>2019-05-13T08:24:19Z</time>
      </trkpt>
      <trkpt lat="50.34778" lon="4.04386">
        <ele>137.19999694824</ele>
        <time>2019-05-13T08:24:30Z</time>
      </trkpt>
      <trkpt lat="50.34855" lon="4.04554">
        <ele>135.80000305176</ele>
        <time>2019-05-13T08:24:43Z</time>
      </trkpt>
      <trkpt lat="50.34902" lon="4.04666">
        <ele>136.39999389648</ele>
        <time>2019-05-13T08:24:47Z</time>
      </trkpt>
      <trkpt lat="50.3498" lon="4.04838">
        <ele>138.19999694824</ele>
        <time>2019-05-13T08:25:00Z</time>
      </trkpt>
      <trkpt lat="50.35028" lon="4.04947">
        <ele>140.19999694824</ele>
        <time>2019-05-13T08:25:23Z</time>
      </trkpt>
      <trkpt lat="50.35035" lon="4.04956">
        <ele>140.80000305176</ele>
        <time>2019-05-13T08:25:43Z</time>
      </trkpt>
      <trkpt lat="50.35153" lon="4.05299">
        <ele>144.60000610352</ele>
        <time>2019-05-13T08:26:07Z</time>
      </trkpt>
      <trkpt lat="50.35209" lon="4.05462">
        <ele>145.19999694824</ele>
        <time>2019-05-13T08:26:31Z</time>
      </trkpt>
      <trkpt lat="50.35261" lon="4.0561">
        <ele>144.60000610352</ele>
        <time>2019-05-13T08:26:44Z</time>
      </trkpt>
      <trkpt lat="50.35321" lon="4.05792">
        <ele>144</ele>
        <time>2019-05-13T08:27:01Z</time>
      </trkpt>
      <trkpt lat="50.35342" lon="4.05858">
        <ele>144</ele>
        <time>2019-05-13T08:27:23Z</time>
      </trkpt>
      <trkpt lat="50.35355" lon="4.05901">
        <ele>144.19999694824</ele>
        <time>2019-05-13T08:27:40Z</time>
      </trkpt>
      <trkpt lat="50.35401" lon="4.05993">
        <ele>145</ele>
        <time>2019-05-13T08:27:46Z</time>
      </trkpt>
      <trkpt lat="50.35448" lon="4.06064">
        <ele>145.19999694824</ele>
        <time>2019-05-13T08:27:55Z</time>
      </trkpt>
      <trkpt lat="50.35467" lon="4.06104">
        <ele>145.39999389648</ele>
        <time>2019-05-13T08:28:04Z</time>
      </trkpt>
      <trkpt lat="50.35479" lon="4.06127">
        <ele>145.39999389648</ele>
        <time>2019-05-13T08:28:17Z</time>
      </trkpt>
      <trkpt lat="50.35532" lon="4.062">
        <ele>145</ele>
        <time>2019-05-13T08:28:33Z</time>
      </trkpt>
      <trkpt lat="50.35538" lon="4.06206">
        <ele>145.39999389648</ele>
        <time>2019-05-13T08:28:46Z</time>
      </trkpt>
      <trkpt lat="50.35555" lon="4.06197">
        <ele>145.39999389648</ele>
        <time>2019-05-13T08:29:01Z</time>
      </trkpt>
      <trkpt lat="50.35588" lon="4.06192">
        <ele>145</ele>
        <time>2019-05-13T08:29:14Z</time>
      </trkpt>
      <trkpt lat="50.35636" lon="4.06293">
        <ele>144.39999389648</ele>
        <time>2019-05-13T08:29:22Z</time>
      </trkpt>
      <trkpt lat="50.35704" lon="4.0639">
        <ele>142.60000610352</ele>
        <time>2019-05-13T08:30:37Z</time>
      </trkpt>
      <trkpt lat="50.35757" lon="4.06371">
        <ele>141</ele>
        <time>2019-05-13T08:30:50Z</time>
      </trkpt>
      <trkpt lat="50.35806" lon="4.06326">
        <ele>139.80000305176</ele>
        <time>2019-05-13T08:31:12Z</time>
      </trkpt>
      <trkpt lat="50.35851" lon="4.06285">
        <ele>139.39999389648</ele>
        <time>2019-05-13T08:31:24Z</time>
      </trkpt>
      <trkpt lat="50.35914" lon="4.06174">
        <ele>139.80000305176</ele>
        <time>2019-05-13T08:31:43Z</time>
      </trkpt>
      <trkpt lat="50.35971" lon="4.06147">
        <ele>141</ele>
        <time>2019-05-13T08:32:03Z</time>
      </trkpt>
      <trkpt lat="50.36079" lon="4.06121">
        <ele>140.39999389648</ele>
        <time>2019-05-13T08:32:20Z</time>
      </trkpt>
      <trkpt lat="50.36149" lon="4.0611">
        <ele>139.19999694824</ele>
        <time>2019-05-13T08:33:31Z</time>
      </trkpt>
      <trkpt lat="50.36175" lon="4.06107">
        <ele>136.39999389648</ele>
        <time>2019-05-13T08:33:52Z</time>
      </trkpt>
      <trkpt lat="50.36258" lon="4.06106">
        <ele>136.39999389648</ele>
        <time>2019-05-13T08:34:10Z</time>
      </trkpt>
      <trkpt lat="50.36387" lon="4.06217">
        <ele>133.80000305176</ele>
        <time>2019-05-13T08:34:29Z</time>
      </trkpt>
      <trkpt lat="50.36471" lon="4.06302">
        <ele>132.80000305176</ele>
        <time>2019-05-13T08:34:57Z</time>
      </trkpt>
      <trkpt lat="50.36577" lon="4.06405">
        <ele>134</ele>
        <time>2019-05-13T08:35:23Z</time>
      </trkpt>
      <trkpt lat="50.36804" lon="4.0654">
        <ele>135.39999389648</ele>
        <time>2019-05-13T08:35:38Z</time>
      </trkpt>
      <trkpt lat="50.36864" lon="4.0659">
        <ele>134.80000305176</ele>
        <time>2019-05-13T08:36:02Z</time>
      </trkpt>
      <trkpt lat="50.36894" lon="4.0662">
        <ele>133.39999389648</ele>
        <time>2019-05-13T08:36:24Z</time>
      </trkpt>
      <trkpt lat="50.37118" lon="4.0684">
        <ele>126.59999847412</ele>
        <time>2019-05-13T08:36:43Z</time>
      </trkpt>
      <trkpt lat="50.37209" lon="4.06897">
        <ele>123.19999694824</ele>
        <time>2019-05-13T08:37:00Z</time>
      </trkpt>
      <trkpt lat="50.37294" lon="4.06938">
        <ele>122.59999847412</ele>
        <time>2019-05-13T08:37:15Z</time>
      </trkpt>
      <trkpt lat="50.37361" lon="4.06972">
        <ele>121.80000305176</ele>
        <time>2019-05-13T08:38:23Z</time>
      </trkpt>
      <trkpt lat="50.37446" lon="4.07015">
        <ele>120.59999847412</ele>
        <time>2019-05-13T08:38:44Z</time>
      </trkpt>
      <trkpt lat="50.37511" lon="4.07047">
        <ele>120</ele>
        <time>2019-05-13T08:39:02Z</time>
      </trkpt>
      <trkpt lat="50.37557" lon="4.07082">
        <ele>119</ele>
        <time>2019-05-13T08:39:25Z</time>
      </trkpt>
      <trkpt lat="50.37646" lon="4.07163">
        <ele>118</ele>
        <time>2019-05-13T08:39:40Z</time>
      </trkpt>
      <trkpt lat="50.37737" lon="4.07258">
        <ele>117.19999694824</ele>
        <time>2019-05-13T08:39:59Z</time>
      </trkpt>
      <trkpt lat="50.37792" lon="4.07343">
        <ele>116.80000305176</ele>
        <time>2019-05-13T08:40:19Z</time>
      </trkpt>
      <trkpt lat="50.37859" lon="4.07452">
        <ele>116</ele>
        <time>2019-05-13T08:40:46Z</time>
      </trkpt>
      <trkpt lat="50.3793" lon="4.07575">
        <ele>115.40000152588</ele>
        <time>2019-05-13T08:41:07Z</time>
      </trkpt>
      <trkpt lat="50.3798" lon="4.07714">
        <ele>116</ele>
        <time>2019-05-13T08:41:16Z</time>
      </trkpt>
      <trkpt lat="50.38021" lon="4.07822">
        <ele>115.19999694824</ele>
        <time>2019-05-13T08:41:33Z</time>
      </trkpt>
      <trkpt lat="50.3806" lon="4.07839">
        <ele>114.80000305176</ele>
        <time>2019-05-13T08:41:43Z</time>
      </trkpt>
      <trkpt lat="50.38154" lon="4.0783">
        <ele>112.80000305176</ele>
        <time>2019-05-13T08:42:17Z</time>
      </trkpt>
      <trkpt lat="50.38176" lon="4.07884">
        <ele>112.19999694824</ele>
        <time>2019-05-13T08:42:37Z</time>
      </trkpt>
      <trkpt lat="50.38217" lon="4.07997">
        <ele>112.59999847412</ele>
        <time>2019-05-13T08:42:56Z</time>
      </trkpt>
      <trkpt lat="50.38253" lon="4.0814">
        <ele>113</ele>
        <time>2019-05-13T08:43:04Z</time>
      </trkpt>
      <trkpt lat="50.38269" lon="4.08251">
        <ele>113.59999847412</ele>
        <time>2019-05-13T08:43:09Z</time>
      </trkpt>
      <trkpt lat="50.38292" lon="4.08263">
        <ele>114</ele>
        <time>2019-05-13T08:43:29Z</time>
      </trkpt>
      <trkpt lat="50.38338" lon="4.08237">
        <ele>112.59999847412</ele>
        <time>2019-05-13T08:44:09Z</time>
      </trkpt>
      <trkpt lat="50.3835" lon="4.08223">
        <ele>111.19999694824</ele>
        <time>2019-05-13T08:44:16Z</time>
      </trkpt>
      <trkpt lat="50.38395" lon="4.0821">
        <ele>110.19999694824</ele>
        <time>2019-05-13T08:44:27Z</time>
      </trkpt>
      <trkpt lat="50.38432" lon="4.08203">
        <ele>108.19999694824</ele>
        <time>2019-05-13T08:44:49Z</time>
      </trkpt>
      <trkpt lat="50.38466" lon="4.08257">
        <ele>107</ele>
        <time>2019-05-13T08:45:10Z</time>
      </trkpt>
      <trkpt lat="50.3849" lon="4.08314">
        <ele>107</ele>
        <time>2019-05-13T08:45:14Z</time>
      </trkpt>
      <trkpt lat="50.38513" lon="4.08409">
        <ele>107.40000152588</ele>
        <time>2019-05-13T08:45:22Z</time>
      </trkpt>
      <trkpt lat="50.38534" lon="4.08474">
        <ele>108.19999694824</ele>
        <time>2019-05-13T08:45:34Z</time>
      </trkpt>
      <trkpt lat="50.38579" lon="4.08562">
        <ele>108.59999847412</ele>
        <time>2019-05-13T08:45:45Z</time>
      </trkpt>
      <trkpt lat="50.38619" lon="4.08598">
        <ele>108.40000152588</ele>
        <time>2019-05-13T08:46:09Z</time>
      </trkpt>
      <trkpt lat="50.38627" lon="4.08591">
        <ele>108.59999847412</ele>
        <time>2019-05-13T08:46:27Z</time>
      </trkpt>
      <trkpt lat="50.38624" lon="4.08594">
        <ele>108</ele>
        <time>2019-05-13T08:46:51Z</time>
      </trkpt>
      <trkpt lat="50.38625" lon="4.08613">
        <ele>108</ele>
        <time>2019-05-13T08:47:04Z</time>
      </trkpt>
      <trkpt lat="50.38671" lon="4.08655">
        <ele>108.80000305176</ele>
        <time>2019-05-13T08:47:12Z</time>
      </trkpt>
      <trkpt lat="50.38712" lon="4.08678">
        <ele>109</ele>
        <time>2019-05-13T08:48:09Z</time>
      </trkpt>
      <trkpt lat="50.3877" lon="4.08697">
        <ele>109.80000305176</ele>
        <time>2019-05-13T08:48:28Z</time>
      </trkpt>
      <trkpt lat="50.3881" lon="4.08727">
        <ele>110.19999694824</ele>
        <time>2019-05-13T08:48:42Z</time>
      </trkpt>
      <trkpt lat="50.38853" lon="4.08766">
        <ele>110.40000152588</ele>
        <time>2019-05-13T08:48:55Z</time>
      </trkpt>
      <trkpt lat="50.38907" lon="4.0881">
        <ele>111.19999694824</ele>
        <time>2019-05-13T08:49:17Z</time>
      </trkpt>
      <trkpt lat="50.38968" lon="4.08852">
        <ele>111.59999847412</ele>
        <time>2019-05-13T08:49:50Z</time>
      </trkpt>
      <trkpt lat="50.39107" lon="4.08943">
        <ele>110.40000152588</ele>
        <time>2019-05-13T08:50:09Z</time>
      </trkpt>
      <trkpt lat="50.39172" lon="4.09065">
        <ele>105.59999847412</ele>
        <time>2019-05-13T08:50:42Z</time>
      </trkpt>
      <trkpt lat="50.39202" lon="4.09127">
        <ele>104</ele>
        <time>2019-05-13T08:51:07Z</time>
      </trkpt>
      <trkpt lat="50.39333" lon="4.09253">
        <ele>101.59999847412</ele>
        <time>2019-05-13T08:51:23Z</time>
      </trkpt>
      <trkpt lat="50.39343" lon="4.09286">
        <ele>101.40000152588</ele>
        <time>2019-05-13T08:51:31Z</time>
      </trkpt>
      <trkpt lat="50.39348" lon="4.09343">
        <ele>100.19999694824</ele>
        <time>2019-05-13T08:51:42Z</time>
      </trkpt>
      <trkpt lat="50.39416" lon="4.09373">
        <ele>98.199996948242</ele>
        <time>2019-05-13T08:51:56Z</time>
      </trkpt>
      <trkpt lat="50.39438" lon="4.094">
        <ele>96.800003051758</ele>
        <time>2019-05-13T08:52:05Z</time>
      </trkpt>
      <trkpt lat="50.39429" lon="4.09451">
        <ele>94.800003051758</ele>
        <time>2019-05-13T08:52:19Z</time>
      </trkpt>
      <trkpt lat="50.39427" lon="4.09527">
        <ele>93.800003051758</ele>
        <time>2019-05-13T08:52:28Z</time>
      </trkpt>
      <trkpt lat="50.39434" lon="4.09595">
        <ele>92.199996948242</ele>
        <time>2019-05-13T08:52:37Z</time>
      </trkpt>
      <trkpt lat="50.39444" lon="4.09613">
        <ele>91</ele>
        <time>2019-05-13T08:52:58Z</time>
      </trkpt>
      <trkpt lat="50.39573" lon="4.09623">
        <ele>89.400001525879</ele>
        <time>2019-05-13T08:53:15Z</time>
      </trkpt>
      <trkpt lat="50.39629" lon="4.09626">
        <ele>86.800003051758</ele>
        <time>2019-05-13T08:53:35Z</time>
      </trkpt>
      <trkpt lat="50.39647" lon="4.09634">
        <ele>82.400001525879</ele>
        <time>2019-05-13T08:53:50Z</time>
      </trkpt>
      <trkpt lat="50.39665" lon="4.09634">
        <ele>82.400001525879</ele>
        <time>2019-05-13T08:54:01Z</time>
      </trkpt>
      <trkpt lat="50.39711" lon="4.09625">
        <ele>81</ele>
        <time>2019-05-13T08:54:09Z</time>
      </trkpt>
      <trkpt lat="50.39782" lon="4.09672">
        <ele>77</ele>
        <time>2019-05-13T08:54:23Z</time>
      </trkpt>
      <trkpt lat="50.39825" lon="4.09714">
        <ele>76.800003051758</ele>
        <time>2019-05-13T08:54:46Z</time>
      </trkpt>
      <trkpt lat="50.39878" lon="4.09776">
        <ele>76.199996948242</ele>
        <time>2019-05-13T08:55:04Z</time>
      </trkpt>
      <trkpt lat="50.39887" lon="4.09784">
        <ele>75.199996948242</ele>
        <time>2019-05-13T08:55:26Z</time>
      </trkpt>
      <trkpt lat="50.39897" lon="4.09817">
        <ele>74.800003051758</ele>
        <time>2019-05-13T08:55:52Z</time>
      </trkpt>
      <trkpt lat="50.39924" lon="4.09886">
        <ele>74.400001525879</ele>
        <time>2019-05-13T08:56:17Z</time>
      </trkpt>
      <trkpt lat="50.39964" lon="4.10018">
        <ele>75.400001525879</ele>
        <time>2019-05-13T08:56:35Z</time>
      </trkpt>
      <trkpt lat="50.40021" lon="4.10087">
        <ele>74.800003051758</ele>
        <time>2019-05-13T08:56:44Z</time>
      </trkpt>
      <trkpt lat="50.40098" lon="4.10159">
        <ele>71.400001525879</ele>
        <time>2019-05-13T08:56:58Z</time>
      </trkpt>
      <trkpt lat="50.40166" lon="4.10237">
        <ele>71</ele>
        <time>2019-05-13T08:57:05Z</time>
      </trkpt>
      <trkpt lat="50.40237" lon="4.10328">
        <ele>68.800003051758</ele>
        <time>2019-05-13T08:57:17Z</time>
      </trkpt>
      <trkpt lat="50.40289" lon="4.10368">
        <ele>67.800003051758</ele>
        <time>2019-05-13T08:57:40Z</time>
      </trkpt>
      <trkpt lat="50.40366" lon="4.10414">
        <ele>67</ele>
        <time>2019-05-13T08:58:05Z</time>
      </trkpt>
      <trkpt lat="50.40381" lon="4.10414">
        <ele>65.800003051758</ele>
        <time>2019-05-13T08:58:25Z</time>
      </trkpt>
      <trkpt lat="50.40493" lon="4.10381">
        <ele>64.400001525879</ele>
        <time>2019-05-13T08:58:36Z</time>
      </trkpt>
      <trkpt lat="50.40515" lon="4.10396">
        <ele>63.200000762939</ele>
        <time>2019-05-13T08:58:58Z</time>
      </trkpt>
      <trkpt lat="50.40575" lon="4.10459">
        <ele>61.799999237061</ele>
        <time>2019-05-13T08:59:37Z</time>
      </trkpt>
      <trkpt lat="50.4064" lon="4.105">
        <ele>61</ele>
        <time>2019-05-13T08:59:52Z</time>
      </trkpt>
      <trkpt lat="50.40738" lon="4.10527">
        <ele>60.400001525879</ele>
        <time>2019-05-13T09:00:07Z</time>
      </trkpt>
      <trkpt lat="50.40818" lon="4.10511">
        <ele>60.200000762939</ele>
        <time>2019-05-13T09:00:21Z</time>
      </trkpt>
      <trkpt lat="50.40858" lon="4.10438">
        <ele>60.200000762939</ele>
        <time>2019-05-13T09:00:34Z</time>
      </trkpt>
      <trkpt lat="50.409" lon="4.10382">
        <ele>60.599998474121</ele>
        <time>2019-05-13T09:00:55Z</time>
      </trkpt>
      <trkpt lat="50.40931" lon="4.10384">
        <ele>61.200000762939</ele>
        <time>2019-05-13T09:01:10Z</time>
      </trkpt>
      <trkpt lat="50.41004" lon="4.10401">
        <ele>60.799999237061</ele>
        <time>2019-05-13T09:01:32Z</time>
      </trkpt>
      <trkpt lat="50.41097" lon="4.10404">
        <ele>60.799999237061</ele>
        <time>2019-05-13T09:01:50Z</time>
      </trkpt>
      <trkpt lat="50.41125" lon="4.10415">
        <ele>61.599998474121</ele>
        <time>2019-05-13T09:01:57Z</time>
      </trkpt>
      <trkpt lat="50.41166" lon="4.104">
        <ele>61.799999237061</ele>
        <time>2019-05-13T09:07:24Z</time>
      </trkpt>
      <trkpt lat="50.41223" lon="4.10436">
        <ele>62</ele>
        <time>2019-05-13T09:07:30Z</time>
      </trkpt>
      <trkpt lat="50.41257" lon="4.10492">
        <ele>59.400001525879</ele>
        <time>2019-05-13T09:07:50Z</time>
      </trkpt>
      <trkpt lat="50.41354" lon="4.10559">
        <ele>57.400001525879</ele>
        <time>2019-05-13T09:08:03Z</time>
      </trkpt>
      <trkpt lat="50.415" lon="4.106">
        <ele>57.400001525879</ele>
        <time>2019-05-13T09:08:21Z</time>
      </trkpt>
      <trkpt lat="50.416" lon="4.10617">
        <ele>57.200000762939</ele>
        <time>2019-05-13T09:08:33Z</time>
      </trkpt>
      <trkpt lat="50.41688" lon="4.1063">
        <ele>56.799999237061</ele>
        <time>2019-05-13T09:08:50Z</time>
      </trkpt>
      <trkpt lat="50.41788" lon="4.10644">
        <ele>57</ele>
        <time>2019-05-13T09:09:06Z</time>
      </trkpt>
      <trkpt lat="50.41858" lon="4.10653">
        <ele>57.200000762939</ele>
        <time>2019-05-13T09:09:23Z</time>
      </trkpt>
      <trkpt lat="50.41962" lon="4.10649">
        <ele>57.799999237061</ele>
        <time>2019-05-13T09:09:44Z</time>
      </trkpt>
      <trkpt lat="50.42093" lon="4.10644">
        <ele>58.799999237061</ele>
        <time>2019-05-13T09:10:04Z</time>
      </trkpt>
      <trkpt lat="50.42181" lon="4.10636">
        <ele>59</ele>
        <time>2019-05-13T09:10:13Z</time>
      </trkpt>
      <trkpt lat="50.42243" lon="4.10631">
        <ele>59</ele>
        <time>2019-05-13T09:10:21Z</time>
      </trkpt>
      <trkpt lat="50.4236" lon="4.10617">
        <ele>58.599998474121</ele>
        <time>2019-05-13T09:10:30Z</time>
      </trkpt>
      <trkpt lat="50.4242" lon="4.10613">
        <ele>58.200000762939</ele>
        <time>2019-05-13T09:10:45Z</time>
      </trkpt>
      <trkpt lat="50.42669" lon="4.10603">
        <ele>55.599998474121</ele>
        <time>2019-05-13T09:11:01Z</time>
      </trkpt>
      <trkpt lat="50.42787" lon="4.10524">
        <ele>55.200000762939</ele>
        <time>2019-05-13T09:11:06Z</time>
      </trkpt>
      <trkpt lat="50.42878" lon="4.10456">
        <ele>55.599998474121</ele>
        <time>2019-05-13T09:11:14Z</time>
      </trkpt>
      <trkpt lat="50.42942" lon="4.10451">
        <ele>55.799999237061</ele>
        <time>2019-05-13T09:11:21Z</time>
      </trkpt>
      <trkpt lat="50.43027" lon="4.10494">
        <ele>56.200000762939</ele>
        <time>2019-05-13T09:11:28Z</time>
      </trkpt>
      <trkpt lat="50.43098" lon="4.10531">
        <ele>57.400001525879</ele>
        <time>2019-05-13T09:11:35Z</time>
      </trkpt>
      <trkpt lat="50.43149" lon="4.10549">
        <ele>57.200000762939</ele>
        <time>2019-05-13T09:11:43Z</time>
      </trkpt>
      <trkpt lat="50.43193" lon="4.10527">
        <ele>56.599998474121</ele>
        <time>2019-05-13T09:11:52Z</time>
      </trkpt>
      <trkpt lat="50.43262" lon="4.1045">
        <ele>58.400001525879</ele>
        <time>2019-05-13T09:12:02Z</time>
      </trkpt>
      <trkpt lat="50.43256" lon="4.10345">
        <ele>59.799999237061</ele>
        <time>2019-05-13T09:12:35Z</time>
      </trkpt>
      <trkpt lat="50.43252" lon="4.103">
        <ele>61</ele>
        <time>2019-05-13T09:12:50Z</time>
      </trkpt>
      <trkpt lat="50.43237" lon="4.10159">
        <ele>62.400001525879</ele>
        <time>2019-05-13T09:13:09Z</time>
      </trkpt>
      <trkpt lat="50.43246" lon="4.10096">
        <ele>62.599998474121</ele>
        <time>2019-05-13T09:13:22Z</time>
      </trkpt>
      <trkpt lat="50.43331" lon="4.10059">
        <ele>61.200000762939</ele>
        <time>2019-05-13T09:13:30Z</time>
      </trkpt>
      <trkpt lat="50.43461" lon="4.10009">
        <ele>57.599998474121</ele>
        <time>2019-05-13T09:14:06Z</time>
      </trkpt>
      <trkpt lat="50.43536" lon="4.09966">
        <ele>57.400001525879</ele>
        <time>2019-05-13T09:14:17Z</time>
      </trkpt>
      <trkpt lat="50.43616" lon="4.09942">
        <ele>57.599998474121</ele>
        <time>2019-05-13T09:14:33Z</time>
      </trkpt>
      <trkpt lat="50.43683" lon="4.09952">
        <ele>58.599998474121</ele>
        <time>2019-05-13T09:14:50Z</time>
      </trkpt>
      <trkpt lat="50.43789" lon="4.09963">
        <ele>61</ele>
        <time>2019-05-13T09:15:07Z</time>
      </trkpt>
      <trkpt lat="50.43876" lon="4.09935">
        <ele>64.199996948242</ele>
        <time>2019-05-13T09:15:23Z</time>
      </trkpt>
      <trkpt lat="50.44055" lon="4.09863">
        <ele>73.599998474121</ele>
        <time>2019-05-13T09:15:42Z</time>
      </trkpt>
      <trkpt lat="50.44111" lon="4.09864">
        <ele>75</ele>
        <time>2019-05-13T09:15:53Z</time>
      </trkpt>
      <trkpt lat="50.44165" lon="4.09885">
        <ele>75.800003051758</ele>
        <time>2019-05-13T09:16:03Z</time>
      </trkpt>
      <trkpt lat="50.44317" lon="4.09947">
        <ele>74.400001525879</ele>
        <time>2019-05-13T09:16:21Z</time>
      </trkpt>
      <trkpt lat="50.44372" lon="4.09953">
        <ele>73.199996948242</ele>
        <time>2019-05-13T09:16:45Z</time>
      </trkpt>
      <trkpt lat="50.44591" lon="4.09966">
        <ele>67</ele>
        <time>2019-05-13T09:17:02Z</time>
      </trkpt>
      <trkpt lat="50.44854" lon="4.09947">
        <ele>58.599998474121</ele>
        <time>2019-05-13T09:17:15Z</time>
      </trkpt>
      <trkpt lat="50.44924" lon="4.0995">
        <ele>57.599998474121</ele>
        <time>2019-05-13T09:17:23Z</time>
      </trkpt>
      <trkpt lat="50.45043" lon="4.09961">
        <ele>58.200000762939</ele>
        <time>2019-05-13T09:17:44Z</time>
      </trkpt>
      <trkpt lat="50.45119" lon="4.09964">
        <ele>60</ele>
        <time>2019-05-13T09:17:55Z</time>
      </trkpt>
      <trkpt lat="50.45274" lon="4.09973">
        <ele>61.799999237061</ele>
        <time>2019-05-13T09:18:05Z</time>
      </trkpt>
      <trkpt lat="50.45343" lon="4.09975">
        <ele>61</ele>
        <time>2019-05-13T09:18:19Z</time>
      </trkpt>
      <trkpt lat="50.45416" lon="4.09995">
        <ele>59.200000762939</ele>
        <time>2019-05-13T09:18:41Z</time>
      </trkpt>
      <trkpt lat="50.45509" lon="4.10022">
        <ele>55.400001525879</ele>
        <time>2019-05-13T09:19:53Z</time>
      </trkpt>
      <trkpt lat="50.45607" lon="4.09996">
        <ele>49.400001525879</ele>
        <time>2019-05-13T09:20:03Z</time>
      </trkpt>
      <trkpt lat="50.4569" lon="4.09909">
        <ele>46.400001525879</ele>
        <time>2019-05-13T09:20:20Z</time>
      </trkpt>
      <trkpt lat="50.45718" lon="4.0991">
        <ele>45.799999237061</ele>
        <time>2019-05-13T09:20:25Z</time>
      </trkpt>
      <trkpt lat="50.45739" lon="4.09942">
        <ele>45.400001525879</ele>
        <time>2019-05-13T09:20:41Z</time>
      </trkpt>
      <trkpt lat="50.45757" lon="4.09922">
        <ele>45.400001525879</ele>
        <time>2019-05-13T09:20:58Z</time>
      </trkpt>
      <trkpt lat="50.45815" lon="4.09875">
        <ele>45.200000762939</ele>
        <time>2019-05-13T09:21:23Z</time>
      </trkpt>
      <trkpt lat="50.45884" lon="4.09829">
        <ele>46.599998474121</ele>
        <time>2019-05-13T09:21:48Z</time>
      </trkpt>
      <trkpt lat="50.45889" lon="4.09828">
        <ele>46.400001525879</ele>
        <time>2019-05-13T09:22:07Z</time>
      </trkpt>
      <trkpt lat="50.45905" lon="4.09793">
        <ele>47</ele>
        <time>2019-05-13T09:22:23Z</time>
      </trkpt>
      <trkpt lat="50.45899" lon="4.09804">
        <ele>48</ele>
        <time>2019-05-13T09:22:34Z</time>
      </trkpt>
      <trkpt lat="50.4589" lon="4.09811">
        <ele>47.400001525879</ele>
        <time>2019-05-13T09:22:54Z</time>
      </trkpt>
      <trkpt lat="50.45893" lon="4.09816">
        <ele>48</ele>
        <time>2019-05-13T09:23:21Z</time>
      </trkpt>
      <trkpt lat="50.4593" lon="4.0982">
        <ele>47.799999237061</ele>
        <time>2019-05-13T09:23:35Z</time>
      </trkpt>
      <trkpt lat="50.45897" lon="4.09829">
        <ele>47</ele>
        <time>2019-05-13T09:23:54Z</time>
      </trkpt>
      <trkpt lat="50.45896" lon="4.09895">
        <ele>46.599998474121</ele>
        <time>2019-05-13T09:24:12Z</time>
      </trkpt>
      <trkpt lat="50.45909" lon="4.10036">
        <ele>46.200000762939</ele>
        <time>2019-05-13T09:24:25Z</time>
      </trkpt>
      <trkpt lat="50.45938" lon="4.10146">
        <ele>46</ele>
        <time>2019-05-13T09:24:38Z</time>
      </trkpt>
      <trkpt lat="50.45983" lon="4.10234">
        <ele>46.200000762939</ele>
        <time>2019-05-13T09:24:54Z</time>
      </trkpt>
      <trkpt lat="50.46021" lon="4.10304">
        <ele>46.599998474121</ele>
        <time>2019-05-13T09:25:16Z</time>
      </trkpt>
      <trkpt lat="50.46045" lon="4.10377">
        <ele>47.200000762939</ele>
        <time>2019-05-13T09:25:37Z</time>
      </trkpt>
      <trkpt lat="50.4606" lon="4.10455">
        <ele>48.200000762939</ele>
        <time>2019-05-13T09:26:02Z</time>
      </trkpt>
      <trkpt lat="50.46073" lon="4.10545">
        <ele>49</ele>
        <time>2019-05-13T09:26:25Z</time>
      </trkpt>
      <trkpt lat="50.46063" lon="4.10723">
        <ele>53.400001525879</ele>
        <time>2019-05-13T09:26:49Z</time>
      </trkpt>
      <trkpt lat="50.46068" lon="4.10866">
        <ele>55.799999237061</ele>
        <time>2019-05-13T09:27:10Z</time>
      </trkpt>
      <trkpt lat="50.46074" lon="4.11028">
        <ele>59.599998474121</ele>
        <time>2019-05-13T09:27:36Z</time>
      </trkpt>
      <trkpt lat="50.46068" lon="4.11257">
        <ele>62</ele>
        <time>2019-05-13T09:27:56Z</time>
      </trkpt>
      <trkpt lat="50.46065" lon="4.11339">
        <ele>63.200000762939</ele>
        <time>2019-05-13T09:28:12Z</time>
      </trkpt>
      <trkpt lat="50.46111" lon="4.11355">
        <ele>63.799999237061</ele>
        <time>2019-05-13T09:28:36Z</time>
      </trkpt>
      <trkpt lat="50.46284" lon="4.1141">
        <ele>67.400001525879</ele>
        <time>2019-05-13T09:28:51Z</time>
      </trkpt>
      <trkpt lat="50.46357" lon="4.11447">
        <ele>69.599998474121</ele>
        <time>2019-05-13T09:29:19Z</time>
      </trkpt>
      <trkpt lat="50.46449" lon="4.11512">
        <ele>74.199996948242</ele>
        <time>2019-05-13T09:29:33Z</time>
      </trkpt>
      <trkpt lat="50.46664" lon="4.11681">
        <ele>82</ele>
        <time>2019-05-13T09:29:50Z</time>
      </trkpt>
      <trkpt lat="50.46806" lon="4.1181">
        <ele>85.400001525879</ele>
        <time>2019-05-13T09:30:08Z</time>
      </trkpt>
      <trkpt lat="50.46832" lon="4.11836">
        <ele>86.400001525879</ele>
        <time>2019-05-13T09:30:22Z</time>
      </trkpt>
      <trkpt lat="50.46947" lon="4.11891">
        <ele>88.199996948242</ele>
        <time>2019-05-13T09:30:33Z</time>
      </trkpt>
      <trkpt lat="50.47036" lon="4.11909">
        <ele>87.599998474121</ele>
        <time>2019-05-13T09:30:47Z</time>
      </trkpt>
      <trkpt lat="50.47064" lon="4.11898">
        <ele>86.199996948242</ele>
        <time>2019-05-13T09:31:04Z</time>
      </trkpt>
      <trkpt lat="50.47096" lon="4.11691">
        <ele>83</ele>
        <time>2019-05-13T09:31:16Z</time>
      </trkpt>
      <trkpt lat="50.47143" lon="4.11549">
        <ele>79.800003051758</ele>
        <time>2019-05-13T09:31:41Z</time>
      </trkpt>
      <trkpt lat="50.47197" lon="4.11451">
        <ele>77.199996948242</ele>
        <time>2019-05-13T09:32:02Z</time>
      </trkpt>
      <trkpt lat="50.47279" lon="4.11425">
        <ele>74.400001525879</ele>
        <time>2019-05-13T09:32:25Z</time>
      </trkpt>
      <trkpt lat="50.47306" lon="4.11457">
        <ele>73.400001525879</ele>
        <time>2019-05-13T09:32:45Z</time>
      </trkpt>
      <trkpt lat="50.47324" lon="4.1153">
        <ele>73.199996948242</ele>
        <time>2019-05-13T09:33:02Z</time>
      </trkpt>
      <trkpt lat="50.47323" lon="4.11635">
        <ele>74.599998474121</ele>
        <time>2019-05-13T09:33:20Z</time>
      </trkpt>
      <trkpt lat="50.47317" lon="4.11799">
        <ele>79.599998474121</ele>
        <time>2019-05-13T09:33:33Z</time>
      </trkpt>
      <trkpt lat="50.47322" lon="4.11847">
        <ele>80.199996948242</ele>
        <time>2019-05-13T09:33:45Z</time>
      </trkpt>
      <trkpt lat="50.47333" lon="4.11946">
        <ele>82.599998474121</ele>
        <time>2019-05-13T09:34:06Z</time>
      </trkpt>
      <trkpt lat="50.47337" lon="4.12014">
        <ele>82.599998474121</ele>
        <time>2019-05-13T09:34:16Z</time>
      </trkpt>
      <trkpt lat="50.47337" lon="4.11959">
        <ele>82.400001525879</ele>
        <time>2019-05-13T09:34:31Z</time>
      </trkpt>
      <trkpt lat="50.47358" lon="4.11956">
        <ele>82.199996948242</ele>
        <time>2019-05-13T09:34:46Z</time>
      </trkpt>
      <trkpt lat="50.47387" lon="4.11964">
        <ele>77.400001525879</ele>
        <time>2019-05-13T09:34:59Z</time>
      </trkpt>
      <trkpt lat="50.47394" lon="4.11952">
        <ele>78.599998474121</ele>
        <time>2019-05-13T09:35:15Z</time>
      </trkpt>
      <trkpt lat="50.47429" lon="4.12009">
        <ele>78</ele>
        <time>2019-05-13T09:35:25Z</time>
      </trkpt>
      <trkpt lat="50.4746" lon="4.12088">
        <ele>78.800003051758</ele>
        <time>2019-05-13T09:35:40Z</time>
      </trkpt>
      <trkpt lat="50.47471" lon="4.121">
        <ele>79.400001525879</ele>
        <time>2019-05-13T09:36:01Z</time>
      </trkpt>
      <trkpt lat="50.47504" lon="4.1216">
        <ele>79.400001525879</ele>
        <time>2019-05-13T09:36:23Z</time>
      </trkpt>
      <trkpt lat="50.47521" lon="4.12175">
        <ele>79.199996948242</ele>
        <time>2019-05-13T09:36:43Z</time>
      </trkpt>
      <trkpt lat="50.47555" lon="4.12136">
        <ele>78.599998474121</ele>
        <time>2019-05-13T09:37:00Z</time>
      </trkpt>
      <trkpt lat="50.47564" lon="4.12131">
        <ele>75.599998474121</ele>
        <time>2019-05-13T09:37:18Z</time>
      </trkpt>
      <trkpt lat="50.47581" lon="4.12187">
        <ele>74.400001525879</ele>
        <time>2019-05-13T09:37:37Z</time>
      </trkpt>
      <trkpt lat="50.47594" lon="4.1224">
        <ele>73.800003051758</ele>
        <time>2019-05-13T09:37:54Z</time>
      </trkpt>
      <trkpt lat="50.47627" lon="4.12237">
        <ele>73.800003051758</ele>
        <time>2019-05-13T09:38:05Z</time>
      </trkpt>
      <trkpt lat="50.47635" lon="4.1227">
        <ele>74</ele>
        <time>2019-05-13T09:38:17Z</time>
      </trkpt>
      <trkpt lat="50.47665" lon="4.12164">
        <ele>71.800003051758</ele>
        <time>2019-05-13T09:38:32Z</time>
      </trkpt>
      <trkpt lat="50.47699" lon="4.12123">
        <ele>69.599998474121</ele>
        <time>2019-05-13T09:38:51Z</time>
      </trkpt>
      <trkpt lat="50.47728" lon="4.12112">
        <ele>69.599998474121</ele>
        <time>2019-05-13T09:39:04Z</time>
      </trkpt>
      <trkpt lat="50.47873" lon="4.12111">
        <ele>75.599998474121</ele>
        <time>2019-05-13T09:39:21Z</time>
      </trkpt>
      <trkpt lat="50.48124" lon="4.12188">
        <ele>94</ele>
        <time>2019-05-13T09:39:45Z</time>
      </trkpt>
      <trkpt lat="50.48159" lon="4.12188">
        <ele>97.400001525879</ele>
        <time>2019-05-13T09:39:51Z</time>
      </trkpt>
      <trkpt lat="50.48311" lon="4.12102">
        <ele>107</ele>
        <time>2019-05-13T09:40:11Z</time>
      </trkpt>
      <trkpt lat="50.48465" lon="4.12006">
        <ele>114.19999694824</ele>
        <time>2019-05-13T09:40:28Z</time>
      </trkpt>
      <trkpt lat="50.48512" lon="4.11974">
        <ele>115.19999694824</ele>
        <time>2019-05-13T09:40:54Z</time>
      </trkpt>
      <trkpt lat="50.48525" lon="4.11996">
        <ele>115.59999847412</ele>
        <time>2019-05-13T09:41:06Z</time>
      </trkpt>
      <trkpt lat="50.48562" lon="4.11958">
        <ele>115.80000305176</ele>
        <time>2019-05-13T09:41:20Z</time>
      </trkpt>
      <trkpt lat="50.4864" lon="4.11917">
        <ele>115.19999694824</ele>
        <time>2019-05-13T09:41:33Z</time>
      </trkpt>
      <trkpt lat="50.48769" lon="4.11851">
        <ele>113.19999694824</ele>
        <time>2019-05-13T09:41:45Z</time>
      </trkpt>
      <trkpt lat="50.49026" lon="4.11719">
        <ele>128.80000305176</ele>
        <time>2019-05-13T09:41:52Z</time>
      </trkpt>
      <trkpt lat="50.49139" lon="4.11712">
        <ele>130</ele>
        <time>2019-05-13T09:42:03Z</time>
      </trkpt>
      <trkpt lat="50.49141" lon="4.11681">
        <ele>129.60000610352</ele>
        <time>2019-05-13T09:42:13Z</time>
      </trkpt>
      <trkpt lat="50.49175" lon="4.11651">
        <ele>130</ele>
        <time>2019-05-13T09:42:25Z</time>
      </trkpt>
      <trkpt lat="50.49263" lon="4.11614">
        <ele>128.80000305176</ele>
        <time>2019-05-13T09:42:41Z</time>
      </trkpt>
      <trkpt lat="50.49296" lon="4.11578">
        <ele>128.60000610352</ele>
        <time>2019-05-13T09:43:08Z</time>
      </trkpt>
      <trkpt lat="50.49302" lon="4.11548">
        <ele>128.60000610352</ele>
        <time>2019-05-13T09:43:29Z</time>
      </trkpt>
      <trkpt lat="50.49288" lon="4.11436">
        <ele>127.59999847412</ele>
        <time>2019-05-13T09:43:44Z</time>
      </trkpt>
      <trkpt lat="50.49277" lon="4.11355">
        <ele>125.40000152588</ele>
        <time>2019-05-13T09:44:08Z</time>
      </trkpt>
      <trkpt lat="50.49248" lon="4.11218">
        <ele>122.80000305176</ele>
        <time>2019-05-13T09:44:23Z</time>
      </trkpt>
      <trkpt lat="50.49225" lon="4.11126">
        <ele>119.80000305176</ele>
        <time>2019-05-13T09:44:45Z</time>
      </trkpt>
      <trkpt lat="50.49225" lon="4.1105">
        <ele>116.40000152588</ele>
        <time>2019-05-13T09:44:56Z</time>
      </trkpt>
      <trkpt lat="50.49233" lon="4.11038">
        <ele>114.80000305176</ele>
        <time>2019-05-13T09:45:02Z</time>
      </trkpt>
      <trkpt lat="50.493" lon="4.11056">
        <ele>114.40000152588</ele>
        <time>2019-05-13T09:45:09Z</time>
      </trkpt>
      <trkpt lat="50.49362" lon="4.11075">
        <ele>113.40000152588</ele>
        <time>2019-05-13T09:45:17Z</time>
      </trkpt>
      <trkpt lat="50.49417" lon="4.11088">
        <ele>113.80000305176</ele>
        <time>2019-05-13T09:45:21Z</time>
      </trkpt>
      <trkpt lat="50.49464" lon="4.11094">
        <ele>115.40000152588</ele>
        <time>2019-05-13T09:45:29Z</time>
      </trkpt>
      <trkpt lat="50.4953" lon="4.11102">
        <ele>115.59999847412</ele>
        <time>2019-05-13T09:45:34Z</time>
      </trkpt>
      <trkpt lat="50.49618" lon="4.11112">
        <ele>115.40000152588</ele>
        <time>2019-05-13T09:45:42Z</time>
      </trkpt>
      <trkpt lat="50.49665" lon="4.11119">
        <ele>116</ele>
        <time>2019-05-13T09:45:55Z</time>
      </trkpt>
      <trkpt lat="50.49725" lon="4.11126">
        <ele>117.80000305176</ele>
        <time>2019-05-13T09:46:06Z</time>
      </trkpt>
      <trkpt lat="50.49807" lon="4.11134">
        <ele>123</ele>
        <time>2019-05-13T09:46:17Z</time>
      </trkpt>
      <trkpt lat="50.50022" lon="4.11089">
        <ele>137.19999694824</ele>
        <time>2019-05-13T09:46:27Z</time>
      </trkpt>
      <trkpt lat="50.50063" lon="4.11081">
        <ele>138.39999389648</ele>
        <time>2019-05-13T09:46:46Z</time>
      </trkpt>
      <trkpt lat="50.50111" lon="4.11074">
        <ele>138.19999694824</ele>
        <time>2019-05-13T09:47:06Z</time>
      </trkpt>
      <trkpt lat="50.50173" lon="4.1106">
        <ele>136.80000305176</ele>
        <time>2019-05-13T09:47:27Z</time>
      </trkpt>
      <trkpt lat="50.50197" lon="4.1107">
        <ele>134</ele>
        <time>2019-05-13T09:47:36Z</time>
      </trkpt>
      <trkpt lat="50.50201" lon="4.11138">
        <ele>134.39999389648</ele>
        <time>2019-05-13T09:47:41Z</time>
      </trkpt>
      <trkpt lat="50.50205" lon="4.11194">
        <ele>135.19999694824</ele>
        <time>2019-05-13T10:13:43Z</time>
      </trkpt>
      <trkpt lat="50.50214" lon="4.11197">
        <ele>136</ele>
        <time>2019-05-13T10:15:27Z</time>
      </trkpt>
      <trkpt lat="50.50229" lon="4.11157">
        <ele>136.19999694824</ele>
        <time>2019-05-13T10:17:55Z</time>
      </trkpt>
      <trkpt lat="50.50242" lon="4.11092">
        <ele>135.60000610352</ele>
        <time>2019-05-13T10:18:06Z</time>
      </trkpt>
      <trkpt lat="50.50254" lon="4.11064">
        <ele>132.60000610352</ele>
        <time>2019-05-13T10:18:15Z</time>
      </trkpt>
      <trkpt lat="50.50321" lon="4.11049">
        <ele>132.39999389648</ele>
        <time>2019-05-13T10:18:25Z</time>
      </trkpt>
      <trkpt lat="50.50385" lon="4.11029">
        <ele>133.39999389648</ele>
        <time>2019-05-13T10:18:44Z</time>
      </trkpt>
      <trkpt lat="50.50419" lon="4.11012">
        <ele>135.60000610352</ele>
        <time>2019-05-13T10:18:58Z</time>
      </trkpt>
      <trkpt lat="50.50435" lon="4.11015">
        <ele>136.60000610352</ele>
        <time>2019-05-13T10:19:20Z</time>
      </trkpt>
      <trkpt lat="50.50473" lon="4.11065">
        <ele>137.60000610352</ele>
        <time>2019-05-13T10:19:42Z</time>
      </trkpt>
      <trkpt lat="50.50524" lon="4.11125">
        <ele>137.39999389648</ele>
        <time>2019-05-13T10:20:01Z</time>
      </trkpt>
      <trkpt lat="50.50561" lon="4.11208">
        <ele>137.39999389648</ele>
        <time>2019-05-13T10:20:16Z</time>
      </trkpt>
      <trkpt lat="50.50568" lon="4.11238">
        <ele>137.60000610352</ele>
        <time>2019-05-13T10:20:31Z</time>
      </trkpt>
      <trkpt lat="50.50571" lon="4.11244">
        <ele>137</ele>
        <time>2019-05-13T10:20:48Z</time>
      </trkpt>
      <trkpt lat="50.50586" lon="4.11362">
        <ele>137.80000305176</ele>
        <time>2019-05-13T10:21:10Z</time>
      </trkpt>
      <trkpt lat="50.50594" lon="4.11381">
        <ele>138.39999389648</ele>
        <time>2019-05-13T10:21:23Z</time>
      </trkpt>
      <trkpt lat="50.50594" lon="4.11402">
        <ele>138.19999694824</ele>
        <time>2019-05-13T10:21:38Z</time>
      </trkpt>
      <trkpt lat="50.5066" lon="4.11637">
        <ele>139</ele>
        <time>2019-05-13T10:21:52Z</time>
      </trkpt>
      <trkpt lat="50.50728" lon="4.11718">
        <ele>139</ele>
        <time>2019-05-13T10:22:11Z</time>
      </trkpt>
      <trkpt lat="50.50786" lon="4.11799">
        <ele>138.60000610352</ele>
        <time>2019-05-13T10:22:27Z</time>
      </trkpt>
      <trkpt lat="50.50813" lon="4.11904">
        <ele>138</ele>
        <time>2019-05-13T10:22:38Z</time>
      </trkpt>
      <trkpt lat="50.50876" lon="4.12004">
        <ele>138</ele>
        <time>2019-05-13T10:22:52Z</time>
      </trkpt>
      <trkpt lat="50.50886" lon="4.12028">
        <ele>137.60000610352</ele>
        <time>2019-05-13T10:23:08Z</time>
      </trkpt>
      <trkpt lat="50.50905" lon="4.12053">
        <ele>137.60000610352</ele>
        <time>2019-05-13T10:23:21Z</time>
      </trkpt>
      <trkpt lat="50.50949" lon="4.12065">
        <ele>138</ele>
        <time>2019-05-13T10:23:40Z</time>
      </trkpt>
      <trkpt lat="50.51066" lon="4.12165">
        <ele>136.39999389648</ele>
        <time>2019-05-13T10:24:01Z</time>
      </trkpt>
      <trkpt lat="50.51174" lon="4.12289">
        <ele>134.39999389648</ele>
        <time>2019-05-13T10:24:15Z</time>
      </trkpt>
      <trkpt lat="50.512" lon="4.12322">
        <ele>134.19999694824</ele>
        <time>2019-05-13T10:24:25Z</time>
      </trkpt>
      <trkpt lat="50.51224" lon="4.12364">
        <ele>134.19999694824</ele>
        <time>2019-05-13T10:24:43Z</time>
      </trkpt>
      <trkpt lat="50.51266" lon="4.12413">
        <ele>133.19999694824</ele>
        <time>2019-05-13T10:25:06Z</time>
      </trkpt>
      <trkpt lat="50.51311" lon="4.12469">
        <ele>133</ele>
        <time>2019-05-13T10:25:21Z</time>
      </trkpt>
      <trkpt lat="50.51365" lon="4.12537">
        <ele>132.39999389648</ele>
        <time>2019-05-13T10:25:36Z</time>
      </trkpt>
      <trkpt lat="50.51451" lon="4.12658">
        <ele>130.60000610352</ele>
        <time>2019-05-13T10:25:54Z</time>
      </trkpt>
      <trkpt lat="50.51502" lon="4.12724">
        <ele>130</ele>
        <time>2019-05-13T10:26:08Z</time>
      </trkpt>
      <trkpt lat="50.51544" lon="4.12772">
        <ele>129</ele>
        <time>2019-05-13T10:26:25Z</time>
      </trkpt>
      <trkpt lat="50.51638" lon="4.1289">
        <ele>123.40000152588</ele>
        <time>2019-05-13T10:26:34Z</time>
      </trkpt>
      <trkpt lat="50.51731" lon="4.12959">
        <ele>122.80000305176</ele>
        <time>2019-05-13T10:26:50Z</time>
      </trkpt>
      <trkpt lat="50.51818" lon="4.1314">
        <ele>120.80000305176</ele>
        <time>2019-05-13T10:27:06Z</time>
      </trkpt>
      <trkpt lat="50.5188" lon="4.13298">
        <ele>119.80000305176</ele>
        <time>2019-05-13T10:27:22Z</time>
      </trkpt>
      <trkpt lat="50.51924" lon="4.13502">
        <ele>119.80000305176</ele>
        <time>2019-05-13T10:27:37Z</time>
      </trkpt>
      <trkpt lat="50.51967" lon="4.13687">
        <ele>120</ele>
        <time>2019-05-13T10:27:52Z</time>
      </trkpt>
      <trkpt lat="50.51998" lon="4.13787">
        <ele>119</ele>
        <time>2019-05-13T10:28:06Z</time>
      </trkpt>
      <trkpt lat="50.52027" lon="4.13828">
        <ele>118.80000305176</ele>
        <time>2019-05-13T10:28:21Z</time>
      </trkpt>
      <trkpt lat="50.52168" lon="4.13974">
        <ele>120.59999847412</ele>
        <time>2019-05-13T10:28:43Z</time>
      </trkpt>
      <trkpt lat="50.52213" lon="4.14037">
        <ele>121</ele>
        <time>2019-05-13T10:28:56Z</time>
      </trkpt>
      <trkpt lat="50.52259" lon="4.14148">
        <ele>121.19999694824</ele>
        <time>2019-05-13T10:29:08Z</time>
      </trkpt>
      <trkpt lat="50.52279" lon="4.14202">
        <ele>121.80000305176</ele>
        <time>2019-05-13T10:29:25Z</time>
      </trkpt>
      <trkpt lat="50.52281" lon="4.14218">
        <ele>121.19999694824</ele>
        <time>2019-05-13T10:29:47Z</time>
      </trkpt>
      <trkpt lat="50.5231" lon="4.14285">
        <ele>121.19999694824</ele>
        <time>2019-05-13T10:29:59Z</time>
      </trkpt>
      <trkpt lat="50.52375" lon="4.1442">
        <ele>120.80000305176</ele>
        <time>2019-05-13T10:30:20Z</time>
      </trkpt>
      <trkpt lat="50.52418" lon="4.14494">
        <ele>120.80000305176</ele>
        <time>2019-05-13T10:30:36Z</time>
      </trkpt>
      <trkpt lat="50.52462" lon="4.14595">
        <ele>119.59999847412</ele>
        <time>2019-05-13T10:30:50Z</time>
      </trkpt>
      <trkpt lat="50.52541" lon="4.14741">
        <ele>116.80000305176</ele>
        <time>2019-05-13T10:31:08Z</time>
      </trkpt>
      <trkpt lat="50.52604" lon="4.14851">
        <ele>115.80000305176</ele>
        <time>2019-05-13T10:31:24Z</time>
      </trkpt>
      <trkpt lat="50.5264" lon="4.14954">
        <ele>115.80000305176</ele>
        <time>2019-05-13T10:31:34Z</time>
      </trkpt>
      <trkpt lat="50.52673" lon="4.15044">
        <ele>116.19999694824</ele>
        <time>2019-05-13T10:31:44Z</time>
      </trkpt>
      <trkpt lat="50.52711" lon="4.15109">
        <ele>117</ele>
        <time>2019-05-13T10:31:52Z</time>
      </trkpt>
      <trkpt lat="50.52753" lon="4.15183">
        <ele>116.59999847412</ele>
        <time>2019-05-13T10:32:03Z</time>
      </trkpt>
      <trkpt lat="50.52779" lon="4.15265">
        <ele>117</ele>
        <time>2019-05-13T10:32:08Z</time>
      </trkpt>
      <trkpt lat="50.52808" lon="4.15318">
        <ele>118.19999694824</ele>
        <time>2019-05-13T10:32:18Z</time>
      </trkpt>
      <trkpt lat="50.52887" lon="4.15232">
        <ele>116</ele>
        <time>2019-05-13T10:32:29Z</time>
      </trkpt>
      <trkpt lat="50.52929" lon="4.15166">
        <ele>113.59999847412</ele>
        <time>2019-05-13T10:32:35Z</time>
      </trkpt>
      <trkpt lat="50.52972" lon="4.1509">
        <ele>112.80000305176</ele>
        <time>2019-05-13T10:32:44Z</time>
      </trkpt>
      <trkpt lat="50.53002" lon="4.15046">
        <ele>113</ele>
        <time>2019-05-13T10:32:52Z</time>
      </trkpt>
      <trkpt lat="50.53044" lon="4.14987">
        <ele>115.19999694824</ele>
        <time>2019-05-13T10:33:11Z</time>
      </trkpt>
      <trkpt lat="50.53149" lon="4.14827">
        <ele>119.40000152588</ele>
        <time>2019-05-13T10:33:33Z</time>
      </trkpt>
      <trkpt lat="50.53205" lon="4.14771">
        <ele>122.59999847412</ele>
        <time>2019-05-13T10:33:44Z</time>
      </trkpt>
      <trkpt lat="50.53251" lon="4.14735">
        <ele>123.80000305176</ele>
        <time>2019-05-13T10:34:02Z</time>
      </trkpt>
      <trkpt lat="50.53299" lon="4.14701">
        <ele>123.59999847412</ele>
        <time>2019-05-13T10:34:17Z</time>
      </trkpt>
      <trkpt lat="50.53453" lon="4.14702">
        <ele>121.59999847412</ele>
        <time>2019-05-13T10:34:34Z</time>
      </trkpt>
      <trkpt lat="50.53586" lon="4.14725">
        <ele>118</ele>
        <time>2019-05-13T10:34:54Z</time>
      </trkpt>
      <trkpt lat="50.53717" lon="4.14748">
        <ele>118.80000305176</ele>
        <time>2019-05-13T10:35:08Z</time>
      </trkpt>
      <trkpt lat="50.53797" lon="4.14762">
        <ele>119.80000305176</ele>
        <time>2019-05-13T10:35:18Z</time>
      </trkpt>
      <trkpt lat="50.53848" lon="4.14771">
        <ele>120.80000305176</ele>
        <time>2019-05-13T10:35:32Z</time>
      </trkpt>
      <trkpt lat="50.53937" lon="4.14787">
        <ele>124</ele>
        <time>2019-05-13T10:35:46Z</time>
      </trkpt>
      <trkpt lat="50.53982" lon="4.14798">
        <ele>124</ele>
        <time>2019-05-13T10:36:55Z</time>
      </trkpt>
      <trkpt lat="50.5403" lon="4.14822">
        <ele>123.40000152588</ele>
        <time>2019-05-13T10:36:59Z</time>
      </trkpt>
      <trkpt lat="50.54049" lon="4.14833">
        <ele>122.19999694824</ele>
        <time>2019-05-13T10:37:13Z</time>
      </trkpt>
      <trkpt lat="50.5411" lon="4.1487">
        <ele>121.19999694824</ele>
        <time>2019-05-13T10:37:22Z</time>
      </trkpt>
      <trkpt lat="50.54216" lon="4.14935">
        <ele>118.40000152588</ele>
        <time>2019-05-13T10:37:30Z</time>
      </trkpt>
      <trkpt lat="50.54291" lon="4.14946">
        <ele>117.59999847412</ele>
        <time>2019-05-13T10:37:39Z</time>
      </trkpt>
      <trkpt lat="50.5439" lon="4.14921">
        <ele>117.59999847412</ele>
        <time>2019-05-13T10:37:48Z</time>
      </trkpt>
      <trkpt lat="50.54566" lon="4.14881">
        <ele>123.59999847412</ele>
        <time>2019-05-13T11:01:50Z</time>
      </trkpt>
      <trkpt lat="50.54622" lon="4.14863">
        <ele>124.59999847412</ele>
        <time>2019-05-13T11:02:09Z</time>
      </trkpt>
      <trkpt lat="50.54679" lon="4.14826">
        <ele>124.19999694824</ele>
        <time>2019-05-13T11:02:36Z</time>
      </trkpt>
      <trkpt lat="50.54689" lon="4.14832">
        <ele>124</ele>
        <time>2019-05-13T11:03:05Z</time>
      </trkpt>
      <trkpt lat="50.54715" lon="4.14864">
        <ele>124.40000152588</ele>
        <time>2019-05-13T11:03:27Z</time>
      </trkpt>
      <trkpt lat="50.54766" lon="4.14835">
        <ele>124.80000305176</ele>
        <time>2019-05-13T11:03:57Z</time>
      </trkpt>
      <trkpt lat="50.54779" lon="4.14823">
        <ele>124.19999694824</ele>
        <time>2019-05-13T11:04:18Z</time>
      </trkpt>
      <trkpt lat="50.54795" lon="4.14799">
        <ele>124.19999694824</ele>
        <time>2019-05-13T11:04:26Z</time>
      </trkpt>
      <trkpt lat="50.54879" lon="4.14747">
        <ele>123.59999847412</ele>
        <time>2019-05-13T11:04:39Z</time>
      </trkpt>
      <trkpt lat="50.54941" lon="4.147">
        <ele>121.80000305176</ele>
        <time>2019-05-13T11:05:13Z</time>
      </trkpt>
      <trkpt lat="50.54981" lon="4.14696">
        <ele>120.80000305176</ele>
        <time>2019-05-13T11:05:22Z</time>
      </trkpt>
      <trkpt lat="50.55166" lon="4.1477">
        <ele>117.80000305176</ele>
        <time>2019-05-13T11:05:34Z</time>
      </trkpt>
      <trkpt lat="50.55301" lon="4.1478">
        <ele>117.40000152588</ele>
        <time>2019-05-13T11:05:47Z</time>
      </trkpt>
      <trkpt lat="50.5538" lon="4.1477">
        <ele>116.59999847412</ele>
        <time>2019-05-13T11:06:01Z</time>
      </trkpt>
      <trkpt lat="50.55455" lon="4.14761">
        <ele>116.19999694824</ele>
        <time>2019-05-13T11:06:11Z</time>
      </trkpt>
      <trkpt lat="50.55515" lon="4.1482">
        <ele>117</ele>
        <time>2019-05-13T11:06:46Z</time>
      </trkpt>
      <trkpt lat="50.55621" lon="4.14873">
        <ele>118.80000305176</ele>
        <time>2019-05-13T11:07:01Z</time>
      </trkpt>
      <trkpt lat="50.55666" lon="4.14881">
        <ele>119.80000305176</ele>
        <time>2019-05-13T11:07:08Z</time>
      </trkpt>
      <trkpt lat="50.55788" lon="4.14898">
        <ele>117.59999847412</ele>
        <time>2019-05-13T11:07:14Z</time>
      </trkpt>
      <trkpt lat="50.55858" lon="4.14912">
        <ele>115.80000305176</ele>
        <time>2019-05-13T11:07:21Z</time>
      </trkpt>
      <trkpt lat="50.55902" lon="4.14926">
        <ele>113.59999847412</ele>
        <time>2019-05-13T11:07:36Z</time>
      </trkpt>
      <trkpt lat="50.55976" lon="4.14943">
        <ele>113</ele>
        <time>2019-05-13T11:07:50Z</time>
      </trkpt>
      <trkpt lat="50.56053" lon="4.14952">
        <ele>112.59999847412</ele>
        <time>2019-05-13T11:08:06Z</time>
      </trkpt>
      <trkpt lat="50.56093" lon="4.14955">
        <ele>113.59999847412</ele>
        <time>2019-05-13T11:08:16Z</time>
      </trkpt>
      <trkpt lat="50.56215" lon="4.14981">
        <ele>119.59999847412</ele>
        <time>2019-05-13T11:08:23Z</time>
      </trkpt>
      <trkpt lat="50.56293" lon="4.15025">
        <ele>121.59999847412</ele>
        <time>2019-05-13T11:08:34Z</time>
      </trkpt>
      <trkpt lat="50.56473" lon="4.15115">
        <ele>124</ele>
        <time>2019-05-13T11:08:48Z</time>
      </trkpt>
      <trkpt lat="50.56503" lon="4.15138">
        <ele>124.80000305176</ele>
        <time>2019-05-13T11:09:04Z</time>
      </trkpt>
      <trkpt lat="50.56506" lon="4.1518">
        <ele>125</ele>
        <time>2019-05-13T11:09:18Z</time>
      </trkpt>
      <trkpt lat="50.56504" lon="4.15287">
        <ele>124.19999694824</ele>
        <time>2019-05-13T11:09:35Z</time>
      </trkpt>
      <trkpt lat="50.56498" lon="4.15409">
        <ele>123.80000305176</ele>
        <time>2019-05-13T11:09:49Z</time>
      </trkpt>
      <trkpt lat="50.56498" lon="4.15503">
        <ele>123.19999694824</ele>
        <time>2019-05-13T11:10:01Z</time>
      </trkpt>
      <trkpt lat="50.5645" lon="4.15921">
        <ele>119.59999847412</ele>
        <time>2019-05-13T11:10:14Z</time>
      </trkpt>
      <trkpt lat="50.56423" lon="4.16104">
        <ele>115.80000305176</ele>
        <time>2019-05-13T11:10:29Z</time>
      </trkpt>
      <trkpt lat="50.56472" lon="4.16154">
        <ele>114.59999847412</ele>
        <time>2019-05-13T11:10:39Z</time>
      </trkpt>
      <trkpt lat="50.56614" lon="4.16447">
        <ele>109.80000305176</ele>
        <time>2019-05-13T11:10:54Z</time>
      </trkpt>
      <trkpt lat="50.56703" lon="4.16649">
        <ele>109</ele>
        <time>2019-05-13T11:11:05Z</time>
      </trkpt>
      <trkpt lat="50.56745" lon="4.16743">
        <ele>110</ele>
        <time>2019-05-13T11:11:20Z</time>
      </trkpt>
      <trkpt lat="50.56777" lon="4.16825">
        <ele>110</ele>
        <time>2019-05-13T11:11:30Z</time>
      </trkpt>
      <trkpt lat="50.56809" lon="4.16903">
        <ele>110.80000305176</ele>
        <time>2019-05-13T11:11:43Z</time>
      </trkpt>
      <trkpt lat="50.56816" lon="4.16922">
        <ele>111</ele>
        <time>2019-05-13T11:11:53Z</time>
      </trkpt>
      <trkpt lat="50.56839" lon="4.16918">
        <ele>111.80000305176</ele>
        <time>2019-05-13T11:12:04Z</time>
      </trkpt>
      <trkpt lat="50.56882" lon="4.16972">
        <ele>112</ele>
        <time>2019-05-13T11:12:47Z</time>
      </trkpt>
      <trkpt lat="50.56911" lon="4.16996">
        <ele>112.40000152588</ele>
        <time>2019-05-13T11:13:02Z</time>
      </trkpt>
      <trkpt lat="50.56974" lon="4.17053">
        <ele>112.59999847412</ele>
        <time>2019-05-13T11:13:17Z</time>
      </trkpt>
      <trkpt lat="50.57011" lon="4.17094">
        <ele>112.19999694824</ele>
        <time>2019-05-13T11:13:27Z</time>
      </trkpt>
      <trkpt lat="50.57045" lon="4.17172">
        <ele>110.59999847412</ele>
        <time>2019-05-13T11:13:44Z</time>
      </trkpt>
      <trkpt lat="50.57081" lon="4.17248">
        <ele>105.80000305176</ele>
        <time>2019-05-13T11:13:54Z</time>
      </trkpt>
      <trkpt lat="50.57124" lon="4.17318">
        <ele>106</ele>
        <time>2019-05-13T11:14:09Z</time>
      </trkpt>
      <trkpt lat="50.57136" lon="4.17336">
        <ele>106.80000305176</ele>
        <time>2019-05-13T11:14:25Z</time>
      </trkpt>
      <trkpt lat="50.57163" lon="4.1736">
        <ele>106.40000152588</ele>
        <time>2019-05-13T11:14:39Z</time>
      </trkpt>
      <trkpt lat="50.57206" lon="4.17424">
        <ele>106.40000152588</ele>
        <time>2019-05-13T11:14:53Z</time>
      </trkpt>
      <trkpt lat="50.57258" lon="4.17472">
        <ele>106.80000305176</ele>
        <time>2019-05-13T11:15:09Z</time>
      </trkpt>
      <trkpt lat="50.57351" lon="4.1755">
        <ele>105.80000305176</ele>
        <time>2019-05-13T11:15:22Z</time>
      </trkpt>
      <trkpt lat="50.57431" lon="4.17559">
        <ele>102.59999847412</ele>
        <time>2019-05-13T11:15:37Z</time>
      </trkpt>
      <trkpt lat="50.5752" lon="4.17528">
        <ele>98.400001525879</ele>
        <time>2019-05-13T11:15:54Z</time>
      </trkpt>
      <trkpt lat="50.57534" lon="4.17507">
        <ele>98.199996948242</ele>
        <time>2019-05-13T11:16:03Z</time>
      </trkpt>
      <trkpt lat="50.57564" lon="4.17506">
        <ele>98.199996948242</ele>
        <time>2019-05-13T11:16:16Z</time>
      </trkpt>
      <trkpt lat="50.57687" lon="4.17577">
        <ele>103.19999694824</ele>
        <time>2019-05-13T11:16:23Z</time>
      </trkpt>
      <trkpt lat="50.5769" lon="4.17659">
        <ele>105.40000152588</ele>
        <time>2019-05-13T11:16:41Z</time>
      </trkpt>
      <trkpt lat="50.57626" lon="4.17828">
        <ele>103</ele>
        <time>2019-05-13T11:17:01Z</time>
      </trkpt>
      <trkpt lat="50.57617" lon="4.17865">
        <ele>101.80000305176</ele>
        <time>2019-05-13T11:17:31Z</time>
      </trkpt>
      <trkpt lat="50.57622" lon="4.17869">
        <ele>99.400001525879</ele>
        <time>2019-05-13T11:17:44Z</time>
      </trkpt>
      <trkpt lat="50.57653" lon="4.17805">
        <ele>102.19999694824</ele>
        <time>2019-05-13T11:17:55Z</time>
      </trkpt>
      <trkpt lat="50.57668" lon="4.17846">
        <ele>103.19999694824</ele>
        <time>2019-05-13T11:18:12Z</time>
      </trkpt>
      <trkpt lat="50.57702" lon="4.17932">
        <ele>103.59999847412</ele>
        <time>2019-05-13T11:18:29Z</time>
      </trkpt>
      <trkpt lat="50.57739" lon="4.17999">
        <ele>103.19999694824</ele>
        <time>2019-05-13T11:18:45Z</time>
      </trkpt>
      <trkpt lat="50.57791" lon="4.1808">
        <ele>102.40000152588</ele>
        <time>2019-05-13T11:18:53Z</time>
      </trkpt>
      <trkpt lat="50.57861" lon="4.18201">
        <ele>96.800003051758</ele>
        <time>2019-05-13T11:19:05Z</time>
      </trkpt>
      <trkpt lat="50.57889" lon="4.18265">
        <ele>95.800003051758</ele>
        <time>2019-05-13T11:19:15Z</time>
      </trkpt>
      <trkpt lat="50.5795" lon="4.18397">
        <ele>97.800003051758</ele>
        <time>2019-05-13T11:20:07Z</time>
      </trkpt>
      <trkpt lat="50.58011" lon="4.18489">
        <ele>98.599998474121</ele>
        <time>2019-05-13T11:20:22Z</time>
      </trkpt>
      <trkpt lat="50.58075" lon="4.18556">
        <ele>101.59999847412</ele>
        <time>2019-05-13T11:20:33Z</time>
      </trkpt>
      <trkpt lat="50.58087" lon="4.18574">
        <ele>101</ele>
        <time>2019-05-13T11:20:50Z</time>
      </trkpt>
      <trkpt lat="50.58121" lon="4.1861">
        <ele>100.80000305176</ele>
        <time>2019-05-13T11:20:59Z</time>
      </trkpt>
      <trkpt lat="50.58188" lon="4.18671">
        <ele>98.599998474121</ele>
        <time>2019-05-13T11:21:19Z</time>
      </trkpt>
      <trkpt lat="50.58251" lon="4.1872">
        <ele>95.800003051758</ele>
        <time>2019-05-13T11:21:45Z</time>
      </trkpt>
      <trkpt lat="50.58298" lon="4.18766">
        <ele>91.400001525879</ele>
        <time>2019-05-13T11:21:55Z</time>
      </trkpt>
      <trkpt lat="50.58326" lon="4.18781">
        <ele>83.400001525879</ele>
        <time>2019-05-13T11:22:00Z</time>
      </trkpt>
      <trkpt lat="50.58348" lon="4.18793">
        <ele>83.599998474121</ele>
        <time>2019-05-13T11:22:13Z</time>
      </trkpt>
      <trkpt lat="50.58401" lon="4.18872">
        <ele>83.400001525879</ele>
        <time>2019-05-13T11:22:20Z</time>
      </trkpt>
      <trkpt lat="50.58446" lon="4.18919">
        <ele>84.800003051758</ele>
        <time>2019-05-13T11:22:31Z</time>
      </trkpt>
      <trkpt lat="50.58486" lon="4.18986">
        <ele>88</ele>
        <time>2019-05-13T11:22:38Z</time>
      </trkpt>
      <trkpt lat="50.58482" lon="4.19024">
        <ele>88.599998474121</ele>
        <time>2019-05-13T11:22:48Z</time>
      </trkpt>
      <trkpt lat="50.58536" lon="4.19113">
        <ele>87.400001525879</ele>
        <time>2019-05-13T11:22:56Z</time>
      </trkpt>
      <trkpt lat="50.58543" lon="4.19164">
        <ele>87</ele>
        <time>2019-05-13T11:23:07Z</time>
      </trkpt>
      <trkpt lat="50.58568" lon="4.19199">
        <ele>86.199996948242</ele>
        <time>2019-05-13T11:23:21Z</time>
      </trkpt>
      <trkpt lat="50.58665" lon="4.19262">
        <ele>82.199996948242</ele>
        <time>2019-05-13T11:23:38Z</time>
      </trkpt>
      <trkpt lat="50.58729" lon="4.19326">
        <ele>80.199996948242</ele>
        <time>2019-05-13T11:23:53Z</time>
      </trkpt>
      <trkpt lat="50.58766" lon="4.19377">
        <ele>79.199996948242</ele>
        <time>2019-05-13T11:24:14Z</time>
      </trkpt>
      <trkpt lat="50.58801" lon="4.19422">
        <ele>78.800003051758</ele>
        <time>2019-05-13T11:24:41Z</time>
      </trkpt>
      <trkpt lat="50.58798" lon="4.19418">
        <ele>77.599998474121</ele>
        <time>2019-05-13T11:24:59Z</time>
      </trkpt>
      <trkpt lat="50.58753" lon="4.19361">
        <ele>78.800003051758</ele>
        <time>2019-05-13T11:25:26Z</time>
      </trkpt>
      <trkpt lat="50.58675" lon="4.19284">
        <ele>79.400001525879</ele>
        <time>2019-05-13T11:25:39Z</time>
      </trkpt>
      <trkpt lat="50.58639" lon="4.19257">
        <ele>80.800003051758</ele>
        <time>2019-05-13T11:25:58Z</time>
      </trkpt>
      <trkpt lat="50.58678" lon="4.19274">
        <ele>80.599998474121</ele>
        <time>2019-05-13T11:26:13Z</time>
      </trkpt>
      <trkpt lat="50.58728" lon="4.19329">
        <ele>79.400001525879</ele>
        <time>2019-05-13T11:26:26Z</time>
      </trkpt>
      <trkpt lat="50.58803" lon="4.1942">
        <ele>79</ele>
        <time>2019-05-13T11:26:39Z</time>
      </trkpt>
      <trkpt lat="50.5882" lon="4.19409">
        <ele>78.199996948242</ele>
        <time>2019-05-13T11:26:53Z</time>
      </trkpt>
      <trkpt lat="50.58879" lon="4.19484">
        <ele>79.199996948242</ele>
        <time>2019-05-13T11:27:07Z</time>
      </trkpt>
      <trkpt lat="50.58932" lon="4.19557">
        <ele>79.800003051758</ele>
        <time>2019-05-13T11:27:22Z</time>
      </trkpt>
      <trkpt lat="50.58937" lon="4.19575">
        <ele>80.800003051758</ele>
        <time>2019-05-13T11:27:39Z</time>
      </trkpt>
      <trkpt lat="50.58951" lon="4.19599">
        <ele>80.800003051758</ele>
        <time>2019-05-13T11:27:54Z</time>
      </trkpt>
      <trkpt lat="50.58987" lon="4.19644">
        <ele>81.400001525879</ele>
        <time>2019-05-13T11:28:01Z</time>
      </trkpt>
      <trkpt lat="50.59087" lon="4.19746">
        <ele>80.599998474121</ele>
        <time>2019-05-13T11:28:42Z</time>
      </trkpt>
      <trkpt lat="50.59127" lon="4.19781">
        <ele>80.599998474121</ele>
        <time>2019-05-13T11:28:59Z</time>
      </trkpt>
      <trkpt lat="50.59178" lon="4.19833">
        <ele>80.400001525879</ele>
        <time>2019-05-13T11:29:16Z</time>
      </trkpt>
      <trkpt lat="50.59303" lon="4.19953">
        <ele>79</ele>
        <time>2019-05-13T11:29:26Z</time>
      </trkpt>
      <trkpt lat="50.59363" lon="4.20011">
        <ele>78.599998474121</ele>
        <time>2019-05-13T11:29:34Z</time>
      </trkpt>
      <trkpt lat="50.5937" lon="4.20018">
        <ele>78.800003051758</ele>
        <time>2019-05-13T11:29:42Z</time>
      </trkpt>
      <trkpt lat="50.59435" lon="4.20093">
        <ele>78.800003051758</ele>
        <time>2019-05-13T11:30:18Z</time>
      </trkpt>
      <trkpt lat="50.5947" lon="4.20136">
        <ele>78.199996948242</ele>
        <time>2019-05-13T11:30:32Z</time>
      </trkpt>
      <trkpt lat="50.59543" lon="4.20221">
        <ele>78.199996948242</ele>
        <time>2019-05-13T11:30:45Z</time>
      </trkpt>
      <trkpt lat="50.59605" lon="4.20292">
        <ele>77.800003051758</ele>
        <time>2019-05-13T11:30:54Z</time>
      </trkpt>
      <trkpt lat="50.59629" lon="4.20316">
        <ele>77.599998474121</ele>
        <time>2019-05-13T11:31:06Z</time>
      </trkpt>
      <trkpt lat="50.59646" lon="4.20317">
        <ele>76.800003051758</ele>
        <time>2019-05-13T11:31:17Z</time>
      </trkpt>
      <trkpt lat="50.59705" lon="4.20395">
        <ele>76.800003051758</ele>
        <time>2019-05-13T11:31:26Z</time>
      </trkpt>
      <trkpt lat="50.5978" lon="4.2049">
        <ele>75.800003051758</ele>
        <time>2019-05-13T11:31:52Z</time>
      </trkpt>
      <trkpt lat="50.59841" lon="4.20563">
        <ele>75.400001525879</ele>
        <time>2019-05-13T11:32:16Z</time>
      </trkpt>
      <trkpt lat="50.59935" lon="4.20671">
        <ele>75</ele>
        <time>2019-05-13T11:32:39Z</time>
      </trkpt>
      <trkpt lat="50.6" lon="4.20739">
        <ele>75.199996948242</ele>
        <time>2019-05-13T11:32:51Z</time>
      </trkpt>
      <trkpt lat="50.60054" lon="4.20804">
        <ele>75.199996948242</ele>
        <time>2019-05-13T11:32:55Z</time>
      </trkpt>
      <trkpt lat="50.60209" lon="4.20985">
        <ele>74</ele>
        <time>2019-05-13T11:33:35Z</time>
      </trkpt>
      <trkpt lat="50.60356" lon="4.21152">
        <ele>72.599998474121</ele>
        <time>2019-05-13T11:33:50Z</time>
      </trkpt>
      <trkpt lat="50.60418" lon="4.21219">
        <ele>72.400001525879</ele>
        <time>2019-05-13T11:34:11Z</time>
      </trkpt>
      <trkpt lat="50.60486" lon="4.21307">
        <ele>71.800003051758</ele>
        <time>2019-05-13T11:34:34Z</time>
      </trkpt>
      <trkpt lat="50.60551" lon="4.21439">
        <ele>71.800003051758</ele>
        <time>2019-05-13T11:34:44Z</time>
      </trkpt>
      <trkpt lat="50.60607" lon="4.21644">
        <ele>70.800003051758</ele>
        <time>2019-05-13T11:38:59Z</time>
      </trkpt>
      <trkpt lat="50.60624" lon="4.21736">
        <ele>70.599998474121</ele>
        <time>2019-05-13T11:39:15Z</time>
      </trkpt>
      <trkpt lat="50.60636" lon="4.21795">
        <ele>70.400001525879</ele>
        <time>2019-05-13T11:39:29Z</time>
      </trkpt>
      <trkpt lat="50.60689" lon="4.22046">
        <ele>69</ele>
        <time>2019-05-13T11:39:42Z</time>
      </trkpt>
      <trkpt lat="50.60722" lon="4.22118">
        <ele>68.800003051758</ele>
        <time>2019-05-13T11:40:14Z</time>
      </trkpt>
      <trkpt lat="50.60752" lon="4.22181">
        <ele>68.400001525879</ele>
        <time>2019-05-13T11:40:41Z</time>
      </trkpt>
      <trkpt lat="50.60752" lon="4.22186">
        <ele>68</ele>
        <time>2019-05-13T11:41:04Z</time>
      </trkpt>
      <trkpt lat="50.6073" lon="4.22254">
        <ele>68</ele>
        <time>2019-05-13T11:41:27Z</time>
      </trkpt>
      <trkpt lat="50.60709" lon="4.22257">
        <ele>68.199996948242</ele>
        <time>2019-05-13T11:41:46Z</time>
      </trkpt>
      <trkpt lat="50.60725" lon="4.22321">
        <ele>68.800003051758</ele>
        <time>2019-05-13T11:42:04Z</time>
      </trkpt>
      <trkpt lat="50.60727" lon="4.22327">
        <ele>69.400001525879</ele>
        <time>2019-05-13T11:42:28Z</time>
      </trkpt>
      <trkpt lat="50.6073" lon="4.223">
        <ele>69.599998474121</ele>
        <time>2019-05-13T11:43:04Z</time>
      </trkpt>
      <trkpt lat="50.60708" lon="4.22264">
        <ele>69.199996948242</ele>
        <time>2019-05-13T11:43:15Z</time>
      </trkpt>
      <trkpt lat="50.60622" lon="4.2225">
        <ele>68.400001525879</ele>
        <time>2019-05-13T11:43:26Z</time>
      </trkpt>
      <trkpt lat="50.60568" lon="4.22264">
        <ele>68.400001525879</ele>
        <time>2019-05-13T11:43:53Z</time>
      </trkpt>
      <trkpt lat="50.60516" lon="4.2227">
        <ele>67.599998474121</ele>
        <time>2019-05-13T11:44:09Z</time>
      </trkpt>
      <trkpt lat="50.60502" lon="4.22279">
        <ele>64.199996948242</ele>
        <time>2019-05-13T11:44:21Z</time>
      </trkpt>
      <trkpt lat="50.60456" lon="4.22268">
        <ele>64.400001525879</ele>
        <time>2019-05-13T11:44:31Z</time>
      </trkpt>
      <trkpt lat="50.60399" lon="4.22262">
        <ele>64.199996948242</ele>
        <time>2019-05-13T11:44:41Z</time>
      </trkpt>
      <trkpt lat="50.60368" lon="4.22266">
        <ele>62.400001525879</ele>
        <time>2019-05-13T11:44:53Z</time>
      </trkpt>
      <trkpt lat="50.60382" lon="4.22267">
        <ele>63.200000762939</ele>
        <time>2019-05-13T11:45:06Z</time>
      </trkpt>
      <trkpt lat="50.60432" lon="4.22276">
        <ele>63.400001525879</ele>
        <time>2019-05-13T11:45:21Z</time>
      </trkpt>
      <trkpt lat="50.60521" lon="4.22301">
        <ele>63</ele>
        <time>2019-05-13T11:45:33Z</time>
      </trkpt>
      <trkpt lat="50.60559" lon="4.2231">
        <ele>63</ele>
        <time>2019-05-13T11:45:47Z</time>
      </trkpt>
      <trkpt lat="50.60588" lon="4.22311">
        <ele>62.799999237061</ele>
        <time>2019-05-13T11:46:01Z</time>
      </trkpt>
      <trkpt lat="50.60673" lon="4.22339">
        <ele>63.200000762939</ele>
        <time>2019-05-13T11:46:10Z</time>
      </trkpt>
      <trkpt lat="50.60826" lon="4.22377">
        <ele>62.799999237061</ele>
        <time>2019-05-13T11:46:16Z</time>
      </trkpt>
      <trkpt lat="50.60973" lon="4.22412">
        <ele>62.799999237061</ele>
        <time>2019-05-13T11:46:23Z</time>
      </trkpt>
      <trkpt lat="50.61166" lon="4.22461">
        <ele>63.200000762939</ele>
        <time>2019-05-13T11:49:44Z</time>
      </trkpt>
      <trkpt lat="50.61344" lon="4.22505">
        <ele>63.200000762939</ele>
        <time>2019-05-13T11:50:06Z</time>
      </trkpt>
      <trkpt lat="50.61444" lon="4.2253">
        <ele>63.400001525879</ele>
        <time>2019-05-13T11:50:15Z</time>
      </trkpt>
      <trkpt lat="50.6153" lon="4.22551">
        <ele>63.400001525879</ele>
        <time>2019-05-13T11:50:23Z</time>
      </trkpt>
      <trkpt lat="50.61699" lon="4.22587">
        <ele>63.799999237061</ele>
        <time>2019-05-13T11:50:40Z</time>
      </trkpt>
      <trkpt lat="50.61758" lon="4.22602">
        <ele>63.799999237061</ele>
        <time>2019-05-13T11:50:56Z</time>
      </trkpt>
      <trkpt lat="50.61851" lon="4.22628">
        <ele>64</ele>
        <time>2019-05-13T11:51:07Z</time>
      </trkpt>
      <trkpt lat="50.61909" lon="4.22643">
        <ele>64</ele>
        <time>2019-05-13T11:51:39Z</time>
      </trkpt>
      <trkpt lat="50.61945" lon="4.22659">
        <ele>63</ele>
        <time>2019-05-13T11:52:08Z</time>
      </trkpt>
      <trkpt lat="50.62039" lon="4.227">
        <ele>63.599998474121</ele>
        <time>2019-05-13T11:52:25Z</time>
      </trkpt>
      <trkpt lat="50.62128" lon="4.22752">
        <ele>63.200000762939</ele>
        <time>2019-05-13T11:52:36Z</time>
      </trkpt>
      <trkpt lat="50.62213" lon="4.22811">
        <ele>63.799999237061</ele>
        <time>2019-05-13T11:52:53Z</time>
      </trkpt>
      <trkpt lat="50.62321" lon="4.22896">
        <ele>64.199996948242</ele>
        <time>2019-05-13T11:53:20Z</time>
      </trkpt>
      <trkpt lat="50.62409" lon="4.22948">
        <ele>64</ele>
        <time>2019-05-13T11:53:35Z</time>
      </trkpt>
      <trkpt lat="50.62512" lon="4.22994">
        <ele>64.199996948242</ele>
        <time>2019-05-13T11:54:01Z</time>
      </trkpt>
      <trkpt lat="50.62595" lon="4.23015">
        <ele>63.799999237061</ele>
        <time>2019-05-13T11:54:22Z</time>
      </trkpt>
      <trkpt lat="50.6262" lon="4.2301">
        <ele>64</ele>
        <time>2019-05-13T11:54:33Z</time>
      </trkpt>
      <trkpt lat="50.62589" lon="4.23001">
        <ele>64</ele>
        <time>2019-05-13T11:54:46Z</time>
      </trkpt>
      <trkpt lat="50.62552" lon="4.22982">
        <ele>66</ele>
        <time>2019-05-13T11:55:10Z</time>
      </trkpt>
      <trkpt lat="50.62524" lon="4.22948">
        <ele>67</ele>
        <time>2019-05-13T11:55:29Z</time>
      </trkpt>
      <trkpt lat="50.62511" lon="4.22956">
        <ele>68.400001525879</ele>
        <time>2019-05-13T11:55:44Z</time>
      </trkpt>
      <trkpt lat="50.62506" lon="4.2299">
        <ele>69.599998474121</ele>
        <time>2019-05-13T11:55:54Z</time>
      </trkpt>
      <trkpt lat="50.62494" lon="4.23086">
        <ele>71.199996948242</ele>
        <time>2019-05-13T11:56:09Z</time>
      </trkpt>
      <trkpt lat="50.6251" lon="4.23117">
        <ele>71.199996948242</ele>
        <time>2019-05-13T11:56:31Z</time>
      </trkpt>
      <trkpt lat="50.62632" lon="4.23124">
        <ele>68.400001525879</ele>
        <time>2019-05-13T11:56:52Z</time>
      </trkpt>
      <trkpt lat="50.62726" lon="4.2313">
        <ele>68</ele>
        <time>2019-05-13T11:57:11Z</time>
      </trkpt>
      <trkpt lat="50.62815" lon="4.23129">
        <ele>67.199996948242</ele>
        <time>2019-05-13T11:58:08Z</time>
      </trkpt>
      <trkpt lat="50.62898" lon="4.23134">
        <ele>67.400001525879</ele>
        <time>2019-05-13T11:58:26Z</time>
      </trkpt>
      <trkpt lat="50.6298" lon="4.23138">
        <ele>67.199996948242</ele>
        <time>2019-05-13T11:58:42Z</time>
      </trkpt>
      <trkpt lat="50.63094" lon="4.23142">
        <ele>67</ele>
        <time>2019-05-13T11:58:58Z</time>
      </trkpt>
      <trkpt lat="50.63174" lon="4.23147">
        <ele>65.599998474121</ele>
        <time>2019-05-13T11:59:11Z</time>
      </trkpt>
      <trkpt lat="50.63225" lon="4.23174">
        <ele>65</ele>
        <time>2019-05-13T12:00:30Z</time>
      </trkpt>
      <trkpt lat="50.63218" lon="4.23155">
        <ele>65.199996948242</ele>
        <time>2019-05-13T12:00:43Z</time>
      </trkpt>
      <trkpt lat="50.63227" lon="4.23138">
        <ele>63.599998474121</ele>
        <time>2019-05-13T12:00:53Z</time>
      </trkpt>
      <trkpt lat="50.63266" lon="4.23149">
        <ele>63.599998474121</ele>
        <time>2019-05-13T12:01:00Z</time>
      </trkpt>
      <trkpt lat="50.63348" lon="4.23181">
        <ele>64.199996948242</ele>
        <time>2019-05-13T12:01:16Z</time>
      </trkpt>
      <trkpt lat="50.63431" lon="4.23242">
        <ele>64</ele>
        <time>2019-05-13T12:01:33Z</time>
      </trkpt>
      <trkpt lat="50.63517" lon="4.23327">
        <ele>64.400001525879</ele>
        <time>2019-05-13T12:01:49Z</time>
      </trkpt>
      <trkpt lat="50.63558" lon="4.23377">
        <ele>64.199996948242</ele>
        <time>2019-05-13T12:02:07Z</time>
      </trkpt>
      <trkpt lat="50.63661" lon="4.23539">
        <ele>64.599998474121</ele>
        <time>2019-05-13T12:02:19Z</time>
      </trkpt>
      <trkpt lat="50.6371" lon="4.23616">
        <ele>64.199996948242</ele>
        <time>2019-05-13T12:02:33Z</time>
      </trkpt>
      <trkpt lat="50.63769" lon="4.23694">
        <ele>64</ele>
        <time>2019-05-13T12:02:50Z</time>
      </trkpt>
      <trkpt lat="50.63819" lon="4.23764">
        <ele>64.400001525879</ele>
        <time>2019-05-13T12:03:03Z</time>
      </trkpt>
      <trkpt lat="50.63894" lon="4.23843">
        <ele>64.199996948242</ele>
        <time>2019-05-13T12:03:20Z</time>
      </trkpt>
      <trkpt lat="50.6392" lon="4.23863">
        <ele>64.400001525879</ele>
        <time>2019-05-13T12:03:31Z</time>
      </trkpt>
      <trkpt lat="50.63992" lon="4.2391">
        <ele>64.599998474121</ele>
        <time>2019-05-13T12:03:49Z</time>
      </trkpt>
      <trkpt lat="50.64072" lon="4.23947">
        <ele>64.400001525879</ele>
        <time>2019-05-13T12:04:06Z</time>
      </trkpt>
      <trkpt lat="50.64167" lon="4.23975">
        <ele>64.400001525879</ele>
        <time>2019-05-13T12:04:27Z</time>
      </trkpt>
      <trkpt lat="50.64299" lon="4.23983">
        <ele>64</ele>
        <time>2019-05-13T12:04:43Z</time>
      </trkpt>
      <trkpt lat="50.64351" lon="4.23971">
        <ele>64</ele>
        <time>2019-05-13T12:05:01Z</time>
      </trkpt>
      <trkpt lat="50.64433" lon="4.2395">
        <ele>64.199996948242</ele>
        <time>2019-05-13T12:05:10Z</time>
      </trkpt>
      <trkpt lat="50.64537" lon="4.239">
        <ele>64.599998474121</ele>
        <time>2019-05-13T12:05:42Z</time>
      </trkpt>
      <trkpt lat="50.646" lon="4.23851">
        <ele>64.599998474121</ele>
        <time>2019-05-13T12:06:04Z</time>
      </trkpt>
      <trkpt lat="50.64706" lon="4.23757">
        <ele>64.199996948242</ele>
        <time>2019-05-13T12:06:20Z</time>
      </trkpt>
      <trkpt lat="50.64751" lon="4.23724">
        <ele>64.199996948242</ele>
        <time>2019-05-13T12:06:31Z</time>
      </trkpt>
      <trkpt lat="50.64851" lon="4.23651">
        <ele>64.400001525879</ele>
        <time>2019-05-13T12:06:48Z</time>
      </trkpt>
      <trkpt lat="50.64881" lon="4.23646">
        <ele>64.199996948242</ele>
        <time>2019-05-13T12:07:04Z</time>
      </trkpt>
      <trkpt lat="50.64932" lon="4.23667">
        <ele>64.400001525879</ele>
        <time>2019-05-13T12:07:27Z</time>
      </trkpt>
      <trkpt lat="50.64982" lon="4.23706">
        <ele>64</ele>
        <time>2019-05-13T12:07:53Z</time>
      </trkpt>
      <trkpt lat="50.65011" lon="4.23707">
        <ele>64.199996948242</ele>
        <time>2019-05-13T12:08:10Z</time>
      </trkpt>
      <trkpt lat="50.65063" lon="4.23685">
        <ele>64</ele>
        <time>2019-05-13T12:08:21Z</time>
      </trkpt>
      <trkpt lat="50.65103" lon="4.2362">
        <ele>64.400001525879</ele>
        <time>2019-05-13T12:08:39Z</time>
      </trkpt>
      <trkpt lat="50.65128" lon="4.23518">
        <ele>64.400001525879</ele>
        <time>2019-05-13T12:08:59Z</time>
      </trkpt>
      <trkpt lat="50.65159" lon="4.23425">
        <ele>64</ele>
        <time>2019-05-13T12:09:28Z</time>
      </trkpt>
      <trkpt lat="50.65202" lon="4.23355">
        <ele>64</ele>
        <time>2019-05-13T12:09:44Z</time>
      </trkpt>
      <trkpt lat="50.65205" lon="4.23353">
        <ele>63.599998474121</ele>
        <time>2019-05-13T12:10:01Z</time>
      </trkpt>
      <trkpt lat="50.65244" lon="4.23317">
        <ele>64.199996948242</ele>
        <time>2019-05-13T12:10:12Z</time>
      </trkpt>
      <trkpt lat="50.65308" lon="4.23263">
        <ele>62.799999237061</ele>
        <time>2019-05-13T12:10:28Z</time>
      </trkpt>
      <trkpt lat="50.65351" lon="4.23239">
        <ele>61</ele>
        <time>2019-05-13T12:10:47Z</time>
      </trkpt>
      <trkpt lat="50.65504" lon="4.23179">
        <ele>52.599998474121</ele>
        <time>2019-05-13T12:11:09Z</time>
      </trkpt>
      <trkpt lat="50.6556" lon="4.23118">
        <ele>51.400001525879</ele>
        <time>2019-05-13T12:11:45Z</time>
      </trkpt>
      <trkpt lat="50.65629" lon="4.22892">
        <ele>51.400001525879</ele>
        <time>2019-05-13T12:11:56Z</time>
      </trkpt>
      <trkpt lat="50.65627" lon="4.22762">
        <ele>51.200000762939</ele>
        <time>2019-05-13T12:12:11Z</time>
      </trkpt>
      <trkpt lat="50.65636" lon="4.22707">
        <ele>51.200000762939</ele>
        <time>2019-05-13T12:12:47Z</time>
      </trkpt>
      <trkpt lat="50.65683" lon="4.22585">
        <ele>51.200000762939</ele>
        <time>2019-05-13T12:12:54Z</time>
      </trkpt>
      <trkpt lat="50.65732" lon="4.22492">
        <ele>51.400001525879</ele>
        <time>2019-05-13T12:13:12Z</time>
      </trkpt>
      <trkpt lat="50.65819" lon="4.22365">
        <ele>51.400001525879</ele>
        <time>2019-05-13T12:13:23Z</time>
      </trkpt>
      <trkpt lat="50.65917" lon="4.22266">
        <ele>51.599998474121</ele>
        <time>2019-05-13T12:13:29Z</time>
      </trkpt>
      <trkpt lat="50.65947" lon="4.2224">
        <ele>51.799999237061</ele>
        <time>2019-05-13T12:13:40Z</time>
      </trkpt>
      <trkpt lat="50.66041" lon="4.22187">
        <ele>52</ele>
        <time>2019-05-13T12:13:59Z</time>
      </trkpt>
      <trkpt lat="50.66134" lon="4.22154">
        <ele>51.799999237061</ele>
        <time>2019-05-13T12:14:26Z</time>
      </trkpt>
      <trkpt lat="50.66233" lon="4.22141">
        <ele>52</ele>
        <time>2019-05-13T12:14:44Z</time>
      </trkpt>
      <trkpt lat="50.66337" lon="4.22156">
        <ele>51.799999237061</ele>
        <time>2019-05-13T12:15:04Z</time>
      </trkpt>
      <trkpt lat="50.66379" lon="4.22165">
        <ele>51.599998474121</ele>
        <time>2019-05-13T12:15:27Z</time>
      </trkpt>
      <trkpt lat="50.66662" lon="4.22239">
        <ele>51.599998474121</ele>
        <time>2019-05-13T12:15:47Z</time>
      </trkpt>
      <trkpt lat="50.66755" lon="4.22263">
        <ele>51.799999237061</ele>
        <time>2019-05-13T12:16:05Z</time>
      </trkpt>
      <trkpt lat="50.6679" lon="4.22273">
        <ele>52</ele>
        <time>2019-05-13T12:16:19Z</time>
      </trkpt>
      <trkpt lat="50.66795" lon="4.22274">
        <ele>51.400001525879</ele>
        <time>2019-05-13T12:16:41Z</time>
      </trkpt>
      <trkpt lat="50.66972" lon="4.22288">
        <ele>51.799999237061</ele>
        <time>2019-05-13T12:16:55Z</time>
      </trkpt>
      <trkpt lat="50.67017" lon="4.22354">
        <ele>51.599998474121</ele>
        <time>2019-05-13T12:17:09Z</time>
      </trkpt>
      <trkpt lat="50.67064" lon="4.2241">
        <ele>51.200000762939</ele>
        <time>2019-05-13T12:17:19Z</time>
      </trkpt>
      <trkpt lat="50.67127" lon="4.22366">
        <ele>51</ele>
        <time>2019-05-13T12:17:37Z</time>
      </trkpt>
      <trkpt lat="50.67202" lon="4.2233">
        <ele>51</ele>
        <time>2019-05-13T12:18:02Z</time>
      </trkpt>
      <trkpt lat="50.67266" lon="4.22335">
        <ele>51</ele>
        <time>2019-05-13T12:18:17Z</time>
      </trkpt>
      <trkpt lat="50.67332" lon="4.22344">
        <ele>50.599998474121</ele>
        <time>2019-05-13T12:18:31Z</time>
      </trkpt>
      <trkpt lat="50.67409" lon="4.22358">
        <ele>51.200000762939</ele>
        <time>2019-05-13T12:18:44Z</time>
      </trkpt>
      <trkpt lat="50.67498" lon="4.22371">
        <ele>51</ele>
        <time>2019-05-13T12:18:54Z</time>
      </trkpt>
      <trkpt lat="50.67574" lon="4.22384">
        <ele>51</ele>
        <time>2019-05-13T12:19:11Z</time>
      </trkpt>
      <trkpt lat="50.67646" lon="4.22393">
        <ele>51.400001525879</ele>
        <time>2019-05-13T12:19:16Z</time>
      </trkpt>
      <trkpt lat="50.677" lon="4.22398">
        <ele>51.400001525879</ele>
        <time>2019-05-13T12:19:28Z</time>
      </trkpt>
      <trkpt lat="50.67759" lon="4.22406">
        <ele>51.799999237061</ele>
        <time>2019-05-13T12:19:43Z</time>
      </trkpt>
      <trkpt lat="50.67907" lon="4.22419">
        <ele>51.200000762939</ele>
        <time>2019-05-13T12:21:02Z</time>
      </trkpt>
      <trkpt lat="50.67996" lon="4.22414">
        <ele>51.200000762939</ele>
        <time>2019-05-13T12:21:17Z</time>
      </trkpt>
      <trkpt lat="50.68045" lon="4.22409">
        <ele>51</ele>
        <time>2019-05-13T12:21:42Z</time>
      </trkpt>
      <trkpt lat="50.68127" lon="4.22391">
        <ele>51.200000762939</ele>
        <time>2019-05-13T12:21:56Z</time>
      </trkpt>
      <trkpt lat="50.68131" lon="4.22403">
        <ele>50.799999237061</ele>
        <time>2019-05-13T12:22:08Z</time>
      </trkpt>
      <trkpt lat="50.68095" lon="4.22433">
        <ele>54</ele>
        <time>2019-05-13T12:22:20Z</time>
      </trkpt>
      <trkpt lat="50.68065" lon="4.22451">
        <ele>55</ele>
        <time>2019-05-13T12:22:42Z</time>
      </trkpt>
      <trkpt lat="50.68072" lon="4.22493">
        <ele>56</ele>
        <time>2019-05-13T12:23:02Z</time>
      </trkpt>
      <trkpt lat="50.68076" lon="4.22513">
        <ele>56</ele>
        <time>2019-05-13T12:23:15Z</time>
      </trkpt>
      <trkpt lat="50.68105" lon="4.22489">
        <ele>56</ele>
        <time>2019-05-13T12:23:29Z</time>
      </trkpt>
      <trkpt lat="50.68145" lon="4.2246">
        <ele>55</ele>
        <time>2019-05-13T12:23:35Z</time>
      </trkpt>
      <trkpt lat="50.68192" lon="4.22448">
        <ele>52.799999237061</ele>
        <time>2019-05-13T12:23:41Z</time>
      </trkpt>
      <trkpt lat="50.68262" lon="4.22427">
        <ele>53</ele>
        <time>2019-05-13T12:23:51Z</time>
      </trkpt>
      <trkpt lat="50.6829" lon="4.22349">
        <ele>53.200000762939</ele>
        <time>2019-05-13T12:24:09Z</time>
      </trkpt>
      <trkpt lat="50.68321" lon="4.2231">
        <ele>52.799999237061</ele>
        <time>2019-05-13T12:24:24Z</time>
      </trkpt>
      <trkpt lat="50.68352" lon="4.22294">
        <ele>51.400001525879</ele>
        <time>2019-05-13T12:24:37Z</time>
      </trkpt>
      <trkpt lat="50.68447" lon="4.22241">
        <ele>51.599998474121</ele>
        <time>2019-05-13T12:24:44Z</time>
      </trkpt>
      <trkpt lat="50.68566" lon="4.22173">
        <ele>51</ele>
        <time>2019-05-13T12:24:59Z</time>
      </trkpt>
      <trkpt lat="50.68664" lon="4.22121">
        <ele>51</ele>
        <time>2019-05-13T12:25:09Z</time>
      </trkpt>
      <trkpt lat="50.6875" lon="4.22072">
        <ele>51.200000762939</ele>
        <time>2019-05-13T12:25:20Z</time>
      </trkpt>
      <trkpt lat="50.6882" lon="4.22035">
        <ele>51</ele>
        <time>2019-05-13T12:25:31Z</time>
      </trkpt>
      <trkpt lat="50.68878" lon="4.22003">
        <ele>51</ele>
        <time>2019-05-13T12:25:48Z</time>
      </trkpt>
      <trkpt lat="50.68932" lon="4.21956">
        <ele>51.400001525879</ele>
        <time>2019-05-13T12:26:03Z</time>
      </trkpt>
      <trkpt lat="50.69024" lon="4.21886">
        <ele>51.799999237061</ele>
        <time>2019-05-13T12:26:24Z</time>
      </trkpt>
      <trkpt lat="50.69103" lon="4.21914">
        <ele>51.400001525879</ele>
        <time>2019-05-13T12:26:44Z</time>
      </trkpt>
      <trkpt lat="50.69163" lon="4.21888">
        <ele>51.400001525879</ele>
        <time>2019-05-13T12:27:00Z</time>
      </trkpt>
      <trkpt lat="50.69209" lon="4.21731">
        <ele>50.400001525879</ele>
        <time>2019-05-13T12:27:16Z</time>
      </trkpt>
      <trkpt lat="50.69252" lon="4.21692">
        <ele>50.599998474121</ele>
        <time>2019-05-13T12:27:51Z</time>
      </trkpt>
      <trkpt lat="50.69324" lon="4.21633">
        <ele>50.599998474121</ele>
        <time>2019-05-13T12:28:00Z</time>
      </trkpt>
      <trkpt lat="50.69426" lon="4.21551">
        <ele>51</ele>
        <time>2019-05-13T12:30:29Z</time>
      </trkpt>
      <trkpt lat="50.69531" lon="4.21465">
        <ele>51.200000762939</ele>
        <time>2019-05-13T12:30:50Z</time>
      </trkpt>
      <trkpt lat="50.69632" lon="4.21381">
        <ele>51.799999237061</ele>
        <time>2019-05-13T12:31:03Z</time>
      </trkpt>
      <trkpt lat="50.69732" lon="4.21293">
        <ele>51.599998474121</ele>
        <time>2019-05-13T12:31:21Z</time>
      </trkpt>
      <trkpt lat="50.69837" lon="4.21217">
        <ele>51.599998474121</ele>
        <time>2019-05-13T12:31:31Z</time>
      </trkpt>
      <trkpt lat="50.69935" lon="4.21184">
        <ele>51.400001525879</ele>
        <time>2019-05-13T12:31:41Z</time>
      </trkpt>
      <trkpt lat="50.70021" lon="4.21182">
        <ele>51.400001525879</ele>
        <time>2019-05-13T12:31:47Z</time>
      </trkpt>
      <trkpt lat="50.70104" lon="4.21213">
        <ele>51.200000762939</ele>
        <time>2019-05-13T12:31:53Z</time>
      </trkpt>
      <trkpt lat="50.70199" lon="4.21282">
        <ele>51.599998474121</ele>
        <time>2019-05-13T12:32:14Z</time>
      </trkpt>
      <trkpt lat="50.70256" lon="4.21348">
        <ele>51.599998474121</ele>
        <time>2019-05-13T12:33:14Z</time>
      </trkpt>
      <trkpt lat="50.70327" lon="4.2145">
        <ele>52.400001525879</ele>
        <time>2019-05-13T12:33:23Z</time>
      </trkpt>
      <trkpt lat="50.70403" lon="4.21553">
        <ele>52.200000762939</ele>
        <time>2019-05-13T12:33:37Z</time>
      </trkpt>
      <trkpt lat="50.70457" lon="4.21624">
        <ele>51.799999237061</ele>
        <time>2019-05-13T12:33:56Z</time>
      </trkpt>
      <trkpt lat="50.70592" lon="4.21807">
        <ele>52.599998474121</ele>
        <time>2019-05-13T12:34:14Z</time>
      </trkpt>
      <trkpt lat="50.70636" lon="4.2187">
        <ele>52.599998474121</ele>
        <time>2019-05-13T12:34:19Z</time>
      </trkpt>
      <trkpt lat="50.70697" lon="4.21952">
        <ele>52.200000762939</ele>
        <time>2019-05-13T12:34:25Z</time>
      </trkpt>
      <trkpt lat="50.70796" lon="4.2209">
        <ele>52.200000762939</ele>
        <time>2019-05-13T12:34:36Z</time>
      </trkpt>
      <trkpt lat="50.70821" lon="4.22128">
        <ele>52.400001525879</ele>
        <time>2019-05-13T12:34:40Z</time>
      </trkpt>
      <trkpt lat="50.70882" lon="4.22205">
        <ele>52.599998474121</ele>
        <time>2019-05-13T12:34:44Z</time>
      </trkpt>
      <trkpt lat="50.70945" lon="4.22286">
        <ele>52.400001525879</ele>
        <time>2019-05-13T12:34:57Z</time>
      </trkpt>
      <trkpt lat="50.70969" lon="4.22324">
        <ele>51.400001525879</ele>
        <time>2019-05-13T12:35:14Z</time>
      </trkpt>
      <trkpt lat="50.71008" lon="4.22439">
        <ele>49.799999237061</ele>
        <time>2019-05-13T12:35:32Z</time>
      </trkpt>
      <trkpt lat="50.71012" lon="4.22546">
        <ele>47.400001525879</ele>
        <time>2019-05-13T12:35:46Z</time>
      </trkpt>
      <trkpt lat="50.7101" lon="4.22623">
        <ele>46.400001525879</ele>
        <time>2019-05-13T12:35:55Z</time>
      </trkpt>
      <trkpt lat="50.71021" lon="4.2274">
        <ele>46.400001525879</ele>
        <time>2019-05-13T12:36:05Z</time>
      </trkpt>
      <trkpt lat="50.71045" lon="4.22826">
        <ele>46.599998474121</ele>
        <time>2019-05-13T12:36:16Z</time>
      </trkpt>
      <trkpt lat="50.71077" lon="4.22903">
        <ele>46.200000762939</ele>
        <time>2019-05-13T12:36:34Z</time>
      </trkpt>
      <trkpt lat="50.71149" lon="4.22996">
        <ele>46.400001525879</ele>
        <time>2019-05-13T12:36:49Z</time>
      </trkpt>
      <trkpt lat="50.71214" lon="4.23038">
        <ele>46.599998474121</ele>
        <time>2019-05-13T12:36:59Z</time>
      </trkpt>
      <trkpt lat="50.71301" lon="4.23074">
        <ele>47</ele>
        <time>2019-05-13T12:37:41Z</time>
      </trkpt>
      <trkpt lat="50.71365" lon="4.23107">
        <ele>46.799999237061</ele>
        <time>2019-05-13T12:37:56Z</time>
      </trkpt>
      <trkpt lat="50.71589" lon="4.23212">
        <ele>46.799999237061</ele>
        <time>2019-05-13T12:38:08Z</time>
      </trkpt>
      <trkpt lat="50.71651" lon="4.23232">
        <ele>46.799999237061</ele>
        <time>2019-05-13T12:38:19Z</time>
      </trkpt>
      <trkpt lat="50.71741" lon="4.2326">
        <ele>47</ele>
        <time>2019-05-13T12:38:38Z</time>
      </trkpt>
      <trkpt lat="50.71838" lon="4.23283">
        <ele>47</ele>
        <time>2019-05-13T12:38:56Z</time>
      </trkpt>
      <trkpt lat="50.71922" lon="4.23274">
        <ele>46.799999237061</ele>
        <time>2019-05-13T12:39:08Z</time>
      </trkpt>
      <trkpt lat="50.72021" lon="4.23257">
        <ele>46.799999237061</ele>
        <time>2019-05-13T12:39:15Z</time>
      </trkpt>
      <trkpt lat="50.72097" lon="4.23252">
        <ele>46.599998474121</ele>
        <time>2019-05-13T12:39:24Z</time>
      </trkpt>
      <trkpt lat="50.72176" lon="4.23244">
        <ele>46.799999237061</ele>
        <time>2019-05-13T12:39:34Z</time>
      </trkpt>
      <trkpt lat="50.72305" lon="4.23239">
        <ele>46</ele>
        <time>2019-05-13T12:39:51Z</time>
      </trkpt>
      <trkpt lat="50.72393" lon="4.23252">
        <ele>46.400001525879</ele>
        <time>2019-05-13T12:40:00Z</time>
      </trkpt>
      <trkpt lat="50.72479" lon="4.23266">
        <ele>46.400001525879</ele>
        <time>2019-05-13T12:40:23Z</time>
      </trkpt>
      <trkpt lat="50.72541" lon="4.23277">
        <ele>47</ele>
        <time>2019-05-13T12:40:38Z</time>
      </trkpt>
      <trkpt lat="50.72611" lon="4.2329">
        <ele>46.799999237061</ele>
        <time>2019-05-13T12:40:51Z</time>
      </trkpt>
      <trkpt lat="50.72741" lon="4.23312">
        <ele>46</ele>
        <time>2019-05-13T12:41:20Z</time>
      </trkpt>
      <trkpt lat="50.728" lon="4.23339">
        <ele>46</ele>
        <time>2019-05-13T12:41:31Z</time>
      </trkpt>
      <trkpt lat="50.72864" lon="4.23368">
        <ele>46.200000762939</ele>
        <time>2019-05-13T12:41:43Z</time>
      </trkpt>
      <trkpt lat="50.72924" lon="4.23476">
        <ele>50.799999237061</ele>
        <time>2019-05-13T12:41:50Z</time>
      </trkpt>
      <trkpt lat="50.72995" lon="4.23566">
        <ele>50.400001525879</ele>
        <time>2019-05-13T12:41:56Z</time>
      </trkpt>
      <trkpt lat="50.73075" lon="4.23664">
        <ele>49.799999237061</ele>
        <time>2019-05-13T12:42:02Z</time>
      </trkpt>
      <trkpt lat="50.7315" lon="4.23757">
        <ele>48.200000762939</ele>
        <time>2019-05-13T12:42:15Z</time>
      </trkpt>
      <trkpt lat="50.73201" lon="4.23815">
        <ele>49</ele>
        <time>2019-05-13T12:42:24Z</time>
      </trkpt>
      <trkpt lat="50.73213" lon="4.23824">
        <ele>51.799999237061</ele>
        <time>2019-05-13T12:42:44Z</time>
      </trkpt>
      <trkpt lat="50.73325" lon="4.23944">
        <ele>51.400001525879</ele>
        <time>2019-05-13T12:42:59Z</time>
      </trkpt>
      <trkpt lat="50.73409" lon="4.24038">
        <ele>49.599998474121</ele>
        <time>2019-05-13T12:43:10Z</time>
      </trkpt>
      <trkpt lat="50.73476" lon="4.24122">
        <ele>49</ele>
        <time>2019-05-13T12:43:21Z</time>
      </trkpt>
      <trkpt lat="50.7352" lon="4.2417">
        <ele>48.799999237061</ele>
        <time>2019-05-13T12:43:31Z</time>
      </trkpt>
      <trkpt lat="50.73543" lon="4.24191">
        <ele>48.799999237061</ele>
        <time>2019-05-13T12:43:45Z</time>
      </trkpt>
      <trkpt lat="50.73605" lon="4.24257">
        <ele>49</ele>
        <time>2019-05-13T12:43:57Z</time>
      </trkpt>
      <trkpt lat="50.73665" lon="4.2422">
        <ele>49.200000762939</ele>
        <time>2019-05-13T12:44:04Z</time>
      </trkpt>
      <trkpt lat="50.73744" lon="4.24212">
        <ele>48.799999237061</ele>
        <time>2019-05-13T12:44:09Z</time>
      </trkpt>
      <trkpt lat="50.73815" lon="4.24196">
        <ele>48.599998474121</ele>
        <time>2019-05-13T12:44:15Z</time>
      </trkpt>
      <trkpt lat="50.73862" lon="4.2421">
        <ele>49.200000762939</ele>
        <time>2019-05-13T12:44:26Z</time>
      </trkpt>
      <trkpt lat="50.73881" lon="4.24188">
        <ele>49</ele>
        <time>2019-05-13T12:44:41Z</time>
      </trkpt>
      <trkpt lat="50.73926" lon="4.2418">
        <ele>48.799999237061</ele>
        <time>2019-05-13T12:44:55Z</time>
      </trkpt>
      <trkpt lat="50.73999" lon="4.24183">
        <ele>47.200000762939</ele>
        <time>2019-05-13T12:45:08Z</time>
      </trkpt>
      <trkpt lat="50.74085" lon="4.24214">
        <ele>45.799999237061</ele>
        <time>2019-05-13T12:45:12Z</time>
      </trkpt>
      <trkpt lat="50.74151" lon="4.24272">
        <ele>45.200000762939</ele>
        <time>2019-05-13T12:45:18Z</time>
      </trkpt>
      <trkpt lat="50.74205" lon="4.24341">
        <ele>45.400001525879</ele>
        <time>2019-05-13T12:45:38Z</time>
      </trkpt>
      <trkpt lat="50.74275" lon="4.24435">
        <ele>45.200000762939</ele>
        <time>2019-05-13T12:45:57Z</time>
      </trkpt>
      <trkpt lat="50.74345" lon="4.24532">
        <ele>46.799999237061</ele>
        <time>2019-05-13T12:46:07Z</time>
      </trkpt>
      <trkpt lat="50.7436" lon="4.24557">
        <ele>47</ele>
        <time>2019-05-13T12:46:25Z</time>
      </trkpt>
      <trkpt lat="50.74369" lon="4.24567">
        <ele>46.799999237061</ele>
        <time>2019-05-13T12:46:37Z</time>
      </trkpt>
      <trkpt lat="50.7443" lon="4.24641">
        <ele>47.599998474121</ele>
        <time>2019-05-13T12:46:51Z</time>
      </trkpt>
      <trkpt lat="50.74589" lon="4.24843">
        <ele>45.799999237061</ele>
        <time>2019-05-13T12:47:05Z</time>
      </trkpt>
      <trkpt lat="50.74719" lon="4.25014">
        <ele>45.200000762939</ele>
        <time>2019-05-13T12:47:18Z</time>
      </trkpt>
      <trkpt lat="50.74933" lon="4.25248">
        <ele>46.200000762939</ele>
        <time>2019-05-13T12:47:26Z</time>
      </trkpt>
      <trkpt lat="50.74987" lon="4.25301">
        <ele>46</ele>
        <time>2019-05-13T12:47:35Z</time>
      </trkpt>
      <trkpt lat="50.7508" lon="4.25378">
        <ele>46</ele>
        <time>2019-05-13T12:47:54Z</time>
      </trkpt>
      <trkpt lat="50.75084" lon="4.25378">
        <ele>45.799999237061</ele>
        <time>2019-05-13T12:48:15Z</time>
      </trkpt>
      <trkpt lat="50.75144" lon="4.25432">
        <ele>45.599998474121</ele>
        <time>2019-05-13T12:48:43Z</time>
      </trkpt>
      <trkpt lat="50.75237" lon="4.25523">
        <ele>46.200000762939</ele>
        <time>2019-05-13T12:48:55Z</time>
      </trkpt>
      <trkpt lat="50.75312" lon="4.25599">
        <ele>46.400001525879</ele>
        <time>2019-05-13T12:49:13Z</time>
      </trkpt>
      <trkpt lat="50.75364" lon="4.25655">
        <ele>46.400001525879</ele>
        <time>2019-05-13T12:49:30Z</time>
      </trkpt>
      <trkpt lat="50.75573" lon="4.25856">
        <ele>47.200000762939</ele>
        <time>2019-05-13T12:49:47Z</time>
      </trkpt>
      <trkpt lat="50.7563" lon="4.25899">
        <ele>46.799999237061</ele>
        <time>2019-05-13T12:49:59Z</time>
      </trkpt>
      <trkpt lat="50.75707" lon="4.25964">
        <ele>47.200000762939</ele>
        <time>2019-05-13T12:50:14Z</time>
      </trkpt>
      <trkpt lat="50.75789" lon="4.26035">
        <ele>47</ele>
        <time>2019-05-13T12:50:31Z</time>
      </trkpt>
      <trkpt lat="50.7588" lon="4.2612">
        <ele>46.400001525879</ele>
        <time>2019-05-13T12:50:50Z</time>
      </trkpt>
      <trkpt lat="50.75966" lon="4.26198">
        <ele>46.799999237061</ele>
        <time>2019-05-13T12:51:09Z</time>
      </trkpt>
      <trkpt lat="50.76072" lon="4.263">
        <ele>46.799999237061</ele>
        <time>2019-05-13T12:51:23Z</time>
      </trkpt>
      <trkpt lat="50.76159" lon="4.26382">
        <ele>46.400001525879</ele>
        <time>2019-05-13T12:51:46Z</time>
      </trkpt>
      <trkpt lat="50.76234" lon="4.26454">
        <ele>46.400001525879</ele>
        <time>2019-05-13T12:51:59Z</time>
      </trkpt>
      <trkpt lat="50.76287" lon="4.26506">
        <ele>46.200000762939</ele>
        <time>2019-05-13T12:52:19Z</time>
      </trkpt>
      <trkpt lat="50.76374" lon="4.26591">
        <ele>46.200000762939</ele>
        <time>2019-05-13T12:52:36Z</time>
      </trkpt>
      <trkpt lat="50.76445" lon="4.26663">
        <ele>46.400001525879</ele>
        <time>2019-05-13T12:52:46Z</time>
      </trkpt>
      <trkpt lat="50.76556" lon="4.2686">
        <ele>46.400001525879</ele>
        <time>2019-05-13T12:54:07Z</time>
      </trkpt>
      <trkpt lat="50.76554" lon="4.26858">
        <ele>46.200000762939</ele>
        <time>2019-05-13T12:54:27Z</time>
      </trkpt>
      <trkpt lat="50.76577" lon="4.26907">
        <ele>46.599998474121</ele>
        <time>2019-05-13T12:54:47Z</time>
      </trkpt>
      <trkpt lat="50.76636" lon="4.27028">
        <ele>46.799999237061</ele>
        <time>2019-05-13T12:55:03Z</time>
      </trkpt>
      <trkpt lat="50.76649" lon="4.27056">
        <ele>46.400001525879</ele>
        <time>2019-05-13T12:55:14Z</time>
      </trkpt>
      <trkpt lat="50.76683" lon="4.2703">
        <ele>46.599998474121</ele>
        <time>2019-05-13T12:55:29Z</time>
      </trkpt>
      <trkpt lat="50.76698" lon="4.27021">
        <ele>46.599998474121</ele>
        <time>2019-05-13T12:55:47Z</time>
      </trkpt>
      <trkpt lat="50.76676" lon="4.27043">
        <ele>45.400001525879</ele>
        <time>2019-05-13T12:56:05Z</time>
      </trkpt>
      <trkpt lat="50.76654" lon="4.27082">
        <ele>46.200000762939</ele>
        <time>2019-05-13T12:56:24Z</time>
      </trkpt>
      <trkpt lat="50.76659" lon="4.27108">
        <ele>45.400001525879</ele>
        <time>2019-05-13T12:56:42Z</time>
      </trkpt>
      <trkpt lat="50.76701" lon="4.27177">
        <ele>45</ele>
        <time>2019-05-13T12:57:01Z</time>
      </trkpt>
      <trkpt lat="50.76739" lon="4.27248">
        <ele>43.599998474121</ele>
        <time>2019-05-13T12:57:19Z</time>
      </trkpt>
      <trkpt lat="50.76787" lon="4.27338">
        <ele>42.799999237061</ele>
        <time>2019-05-13T12:57:33Z</time>
      </trkpt>
      <trkpt lat="50.76836" lon="4.27435">
        <ele>42.200000762939</ele>
        <time>2019-05-13T12:57:50Z</time>
      </trkpt>
      <trkpt lat="50.76872" lon="4.27497">
        <ele>42</ele>
        <time>2019-05-13T12:58:10Z</time>
      </trkpt>
      <trkpt lat="50.76903" lon="4.2754">
        <ele>42.200000762939</ele>
        <time>2019-05-13T12:58:31Z</time>
      </trkpt>
      <trkpt lat="50.76975" lon="4.27614">
        <ele>42.200000762939</ele>
        <time>2019-05-13T12:58:49Z</time>
      </trkpt>
      <trkpt lat="50.77074" lon="4.27696">
        <ele>42.599998474121</ele>
        <time>2019-05-13T12:59:06Z</time>
      </trkpt>
      <trkpt lat="50.77217" lon="4.27815">
        <ele>42.599998474121</ele>
        <time>2019-05-13T12:59:19Z</time>
      </trkpt>
      <trkpt lat="50.77311" lon="4.27891">
        <ele>42.400001525879</ele>
        <time>2019-05-13T12:59:27Z</time>
      </trkpt>
      <trkpt lat="50.77375" lon="4.27967">
        <ele>42.400001525879</ele>
        <time>2019-05-13T12:59:38Z</time>
      </trkpt>
      <trkpt lat="50.77423" lon="4.28057">
        <ele>42</ele>
        <time>2019-05-13T01:00:00Z</time>
      </trkpt>
      <trkpt lat="50.77495" lon="4.28063">
        <ele>42</ele>
        <time>2019-05-13T01:00:12Z</time>
      </trkpt>
      <trkpt lat="50.77571" lon="4.2811">
        <ele>42</ele>
        <time>2019-05-13T01:00:29Z</time>
      </trkpt>
      <trkpt lat="50.77661" lon="4.28186">
        <ele>42.400001525879</ele>
        <time>2019-05-13T01:00:38Z</time>
      </trkpt>
      <trkpt lat="50.77723" lon="4.28237">
        <ele>42.200000762939</ele>
        <time>2019-05-13T01:00:53Z</time>
      </trkpt>
      <trkpt lat="50.77792" lon="4.28296">
        <ele>42.599998474121</ele>
        <time>2019-05-13T01:01:01Z</time>
      </trkpt>
      <trkpt lat="50.77885" lon="4.28372">
        <ele>42.599998474121</ele>
        <time>2019-05-13T01:01:08Z</time>
      </trkpt>
      <trkpt lat="50.77969" lon="4.2845">
        <ele>42.400001525879</ele>
        <time>2019-05-13T01:02:30Z</time>
      </trkpt>
      <trkpt lat="50.78041" lon="4.28526">
        <ele>42.599998474121</ele>
        <time>2019-05-13T01:02:47Z</time>
      </trkpt>
      <trkpt lat="50.78196" lon="4.28685">
        <ele>43.200000762939</ele>
        <time>2019-05-13T01:03:13Z</time>
      </trkpt>
      <trkpt lat="50.78353" lon="4.28825">
        <ele>43.200000762939</ele>
        <time>2019-05-13T01:03:19Z</time>
      </trkpt>
      <trkpt lat="50.7841" lon="4.28876">
        <ele>43</ele>
        <time>2019-05-13T01:03:27Z</time>
      </trkpt>
      <trkpt lat="50.78468" lon="4.2893">
        <ele>43.400001525879</ele>
        <time>2019-05-13T01:03:48Z</time>
      </trkpt>
      <trkpt lat="50.78541" lon="4.28993">
        <ele>43.599998474121</ele>
        <time>2019-05-13T01:04:03Z</time>
      </trkpt>
      <trkpt lat="50.78605" lon="4.29052">
        <ele>43</ele>
        <time>2019-05-13T01:04:14Z</time>
      </trkpt>
      <trkpt lat="50.78794" lon="4.29198">
        <ele>42.599998474121</ele>
        <time>2019-05-13T01:04:18Z</time>
      </trkpt>
      <trkpt lat="50.78885" lon="4.2926">
        <ele>42.799999237061</ele>
        <time>2019-05-13T01:04:34Z</time>
      </trkpt>
      <trkpt lat="50.78957" lon="4.29307">
        <ele>42.799999237061</ele>
        <time>2019-05-13T01:04:47Z</time>
      </trkpt>
      <trkpt lat="50.79002" lon="4.29339">
        <ele>43.200000762939</ele>
        <time>2019-05-13T01:05:00Z</time>
      </trkpt>
      <trkpt lat="50.79109" lon="4.29411">
        <ele>41.599998474121</ele>
        <time>2019-05-13T01:05:10Z</time>
      </trkpt>
      <trkpt lat="50.79171" lon="4.29437">
        <ele>39.400001525879</ele>
        <time>2019-05-13T01:06:55Z</time>
      </trkpt>
      <trkpt lat="50.79249" lon="4.29457">
        <ele>38.799999237061</ele>
        <time>2019-05-13T01:07:10Z</time>
      </trkpt>
      <trkpt lat="50.7933" lon="4.29474">
        <ele>39</ele>
        <time>2019-05-13T01:07:32Z</time>
      </trkpt>
      <trkpt lat="50.79508" lon="4.29516">
        <ele>39</ele>
        <time>2019-05-13T01:07:46Z</time>
      </trkpt>
      <trkpt lat="50.79696" lon="4.29558">
        <ele>38.400001525879</ele>
        <time>2019-05-13T01:08:50Z</time>
      </trkpt>
      <trkpt lat="50.79845" lon="4.29592">
        <ele>38.400001525879</ele>
        <time>2019-05-13T01:09:12Z</time>
      </trkpt>
      <trkpt lat="50.79931" lon="4.29611">
        <ele>38.599998474121</ele>
        <time>2019-05-13T01:09:28Z</time>
      </trkpt>
      <trkpt lat="50.8004" lon="4.29633">
        <ele>39.200000762939</ele>
        <time>2019-05-13T01:09:49Z</time>
      </trkpt>
      <trkpt lat="50.80157" lon="4.29659">
        <ele>38.799999237061</ele>
        <time>2019-05-13T01:10:10Z</time>
      </trkpt>
      <trkpt lat="50.80175" lon="4.29668">
        <ele>39.200000762939</ele>
        <time>2019-05-13T01:10:31Z</time>
      </trkpt>
      <trkpt lat="50.80229" lon="4.29682">
        <ele>39.400001525879</ele>
        <time>2019-05-13T01:10:52Z</time>
      </trkpt>
      <trkpt lat="50.80278" lon="4.29696">
        <ele>39.400001525879</ele>
        <time>2019-05-13T01:11:18Z</time>
      </trkpt>
      <trkpt lat="50.80348" lon="4.29712">
        <ele>39.799999237061</ele>
        <time>2019-05-13T01:11:44Z</time>
      </trkpt>
      <trkpt lat="50.80441" lon="4.29726">
        <ele>40</ele>
        <time>2019-05-13T01:12:03Z</time>
      </trkpt>
      <trkpt lat="50.80523" lon="4.29746">
        <ele>39.400001525879</ele>
        <time>2019-05-13T01:12:27Z</time>
      </trkpt>
      <trkpt lat="50.80633" lon="4.29771">
        <ele>39</ele>
        <time>2019-05-13T01:12:50Z</time>
      </trkpt>
      <trkpt lat="50.80731" lon="4.29795">
        <ele>39.200000762939</ele>
        <time>2019-05-13T01:13:13Z</time>
      </trkpt>
      <trkpt lat="50.80862" lon="4.29826">
        <ele>40</ele>
        <time>2019-05-13T01:13:37Z</time>
      </trkpt>
      <trkpt lat="50.81035" lon="4.29866">
        <ele>40</ele>
        <time>2019-05-13T01:13:52Z</time>
      </trkpt>
      <trkpt lat="50.81125" lon="4.29887">
        <ele>39.799999237061</ele>
        <time>2019-05-13T01:14:15Z</time>
      </trkpt>
      <trkpt lat="50.81208" lon="4.29907">
        <ele>39.200000762939</ele>
        <time>2019-05-13T01:14:34Z</time>
      </trkpt>
      <trkpt lat="50.81364" lon="4.29939">
        <ele>39.599998474121</ele>
        <time>2019-05-13T01:15:24Z</time>
      </trkpt>
      <trkpt lat="50.81443" lon="4.29956">
        <ele>39.200000762939</ele>
        <time>2019-05-13T01:15:49Z</time>
      </trkpt>
      <trkpt lat="50.81512" lon="4.29975">
        <ele>39.400001525879</ele>
        <time>2019-05-13T01:16:15Z</time>
      </trkpt>
      <trkpt lat="50.81603" lon="4.30023">
        <ele>39.799999237061</ele>
        <time>2019-05-13T01:16:41Z</time>
      </trkpt>
      <trkpt lat="50.81702" lon="4.30076">
        <ele>40</ele>
        <time>2019-05-13T01:17:10Z</time>
      </trkpt>
      <trkpt lat="50.81778" lon="4.30127">
        <ele>39.799999237061</ele>
        <time>2019-05-13T01:17:33Z</time>
      </trkpt>
      <trkpt lat="50.81835" lon="4.30163">
        <ele>39.799999237061</ele>
        <time>2019-05-13T01:17:58Z</time>
      </trkpt>
      <trkpt lat="50.81912" lon="4.30201">
        <ele>40.200000762939</ele>
        <time>2019-05-13T01:18:20Z</time>
      </trkpt>
      <trkpt lat="50.81939" lon="4.30208">
        <ele>40</ele>
        <time>2019-05-13T01:18:31Z</time>
      </trkpt>
      <trkpt lat="50.81989" lon="4.30232">
        <ele>40</ele>
        <time>2019-05-13T01:18:42Z</time>
      </trkpt>
      <trkpt lat="50.81999" lon="4.30208">
        <ele>39.200000762939</ele>
        <time>2019-05-13T01:18:57Z</time>
      </trkpt>
      <trkpt lat="50.82032" lon="4.30194">
        <ele>40.599998474121</ele>
        <time>2019-05-13T01:19:13Z</time>
      </trkpt>
      <trkpt lat="50.82175" lon="4.30311">
        <ele>40.599998474121</ele>
        <time>2019-05-13T01:19:22Z</time>
      </trkpt>
      <trkpt lat="50.82234" lon="4.30379">
        <ele>40.200000762939</ele>
        <time>2019-05-13T01:19:31Z</time>
      </trkpt>
      <trkpt lat="50.82299" lon="4.30452">
        <ele>39.200000762939</ele>
        <time>2019-05-13T01:19:52Z</time>
      </trkpt>
      <trkpt lat="50.82353" lon="4.30513">
        <ele>37.400001525879</ele>
        <time>2019-05-13T01:20:00Z</time>
      </trkpt>
      <trkpt lat="50.8243" lon="4.30605">
        <ele>37.200000762939</ele>
        <time>2019-05-13T01:20:17Z</time>
      </trkpt>
      <trkpt lat="50.82484" lon="4.30663">
        <ele>36.599998474121</ele>
        <time>2019-05-13T01:20:27Z</time>
      </trkpt>
      <trkpt lat="50.82545" lon="4.30697">
        <ele>36.400001525879</ele>
        <time>2019-05-13T01:20:49Z</time>
      </trkpt>
      <trkpt lat="50.82598" lon="4.30756">
        <ele>36</ele>
        <time>2019-05-13T01:21:09Z</time>
      </trkpt>
      <trkpt lat="50.82658" lon="4.30824">
        <ele>36.400001525879</ele>
        <time>2019-05-13T01:21:29Z</time>
      </trkpt>
      <trkpt lat="50.82716" lon="4.30894">
        <ele>36.599998474121</ele>
        <time>2019-05-13T01:21:49Z</time>
      </trkpt>
      <trkpt lat="50.82803" lon="4.30993">
        <ele>36.400001525879</ele>
        <time>2019-05-13T01:22:13Z</time>
      </trkpt>
      <trkpt lat="50.82866" lon="4.31065">
        <ele>36.599998474121</ele>
        <time>2019-05-13T01:22:25Z</time>
      </trkpt>
      <trkpt lat="50.82948" lon="4.31157">
        <ele>36.599998474121</ele>
        <time>2019-05-13T01:22:31Z</time>
      </trkpt>
      <trkpt lat="50.83099" lon="4.31325">
        <ele>37</ele>
        <time>2019-05-13T01:22:42Z</time>
      </trkpt>
      <trkpt lat="50.83137" lon="4.31372">
        <ele>37.400001525879</ele>
        <time>2019-05-13T01:22:52Z</time>
      </trkpt>
      <trkpt lat="50.83184" lon="4.31479">
        <ele>37.400001525879</ele>
        <time>2019-05-13T01:23:03Z</time>
      </trkpt>
      <trkpt lat="50.8323" lon="4.31508">
        <ele>37</ele>
        <time>2019-05-13T01:23:12Z</time>
      </trkpt>
      <trkpt lat="50.83308" lon="4.31518">
        <ele>38.599998474121</ele>
        <time>2019-05-13T01:23:22Z</time>
      </trkpt>
      <trkpt lat="50.83416" lon="4.31637">
        <ele>38.599998474121</ele>
        <time>2019-05-13T01:23:40Z</time>
      </trkpt>
      <trkpt lat="50.83469" lon="4.31662">
        <ele>38.599998474121</ele>
        <time>2019-05-13T01:23:56Z</time>
      </trkpt>
      <trkpt lat="50.83524" lon="4.3171">
        <ele>39.200000762939</ele>
        <time>2019-05-13T01:24:19Z</time>
      </trkpt>
      <trkpt lat="50.8353" lon="4.3175">
        <ele>39.200000762939</ele>
        <time>2019-05-13T01:24:42Z</time>
      </trkpt>
      <trkpt lat="50.83505" lon="4.31759">
        <ele>39.200000762939</ele>
        <time>2019-05-13T01:25:06Z</time>
      </trkpt>
      <trkpt lat="50.83481" lon="4.31757">
        <ele>38.599998474121</ele>
        <time>2019-05-13T01:25:23Z</time>
      </trkpt>
      <trkpt lat="50.83579" lon="4.31771">
        <ele>37.400001525879</ele>
        <time>2019-05-13T01:25:43Z</time>
      </trkpt>
      <trkpt lat="50.83652" lon="4.31784">
        <ele>36.799999237061</ele>
        <time>2019-05-13T01:26:04Z</time>
      </trkpt>
      <trkpt lat="50.83715" lon="4.31777">
        <ele>37.200000762939</ele>
        <time>2019-05-13T01:26:23Z</time>
      </trkpt>
      <trkpt lat="50.83792" lon="4.31792">
        <ele>38.400001525879</ele>
        <time>2019-05-13T01:26:41Z</time>
      </trkpt>
      <trkpt lat="50.83838" lon="4.31824">
        <ele>39</ele>
        <time>2019-05-13T01:26:57Z</time>
      </trkpt>
      <trkpt lat="50.83915" lon="4.31879">
        <ele>39</ele>
        <time>2019-05-13T01:27:19Z</time>
      </trkpt>
      <trkpt lat="50.83958" lon="4.31914">
        <ele>39.200000762939</ele>
        <time>2019-05-13T01:27:31Z</time>
      </trkpt>
      <trkpt lat="50.84015" lon="4.31963">
        <ele>39.200000762939</ele>
        <time>2019-05-13T01:27:53Z</time>
      </trkpt>
      <trkpt lat="50.84062" lon="4.32001">
        <ele>39.400001525879</ele>
        <time>2019-05-13T01:28:14Z</time>
      </trkpt>
      <trkpt lat="50.84098" lon="4.32033">
        <ele>40.400001525879</ele>
        <time>2019-05-13T01:28:38Z</time>
      </trkpt>
      <trkpt lat="50.84145" lon="4.32072">
        <ele>40.400001525879</ele>
        <time>2019-05-13T01:28:58Z</time>
      </trkpt>
      <trkpt lat="50.8419" lon="4.32125">
        <ele>40.799999237061</ele>
        <time>2019-05-13T01:29:16Z</time>
      </trkpt>
      <trkpt lat="50.84279" lon="4.32231">
        <ele>40</ele>
        <time>2019-05-13T01:29:30Z</time>
      </trkpt>
      <trkpt lat="50.84347" lon="4.32315">
        <ele>40</ele>
        <time>2019-05-13T01:29:37Z</time>
      </trkpt>
      <trkpt lat="50.84384" lon="4.32367">
        <ele>39.799999237061</ele>
        <time>2019-05-13T01:30:00Z</time>
      </trkpt>
      <trkpt lat="50.84435" lon="4.32438">
        <ele>40</ele>
        <time>2019-05-13T01:30:25Z</time>
      </trkpt>
      <trkpt lat="50.84481" lon="4.3251">
        <ele>40</ele>
        <time>2019-05-13T01:30:41Z</time>
      </trkpt>
      <trkpt lat="50.8453" lon="4.32596">
        <ele>39.599998474121</ele>
        <time>2019-05-13T01:31:10Z</time>
      </trkpt>
      <trkpt lat="50.84567" lon="4.32658">
        <ele>40.599998474121</ele>
        <time>2019-05-13T01:31:23Z</time>
      </trkpt>
      <trkpt lat="50.84586" lon="4.32636">
        <ele>40.599998474121</ele>
        <time>2019-05-13T01:31:50Z</time>
      </trkpt>
      <trkpt lat="50.84647" lon="4.32537">
        <ele>45.200000762939</ele>
        <time>2019-05-13T01:34:18Z</time>
      </trkpt>
      <trkpt lat="50.84688" lon="4.32487">
        <ele>49.799999237061</ele>
        <time>2019-05-13T01:34:34Z</time>
      </trkpt>
      <trkpt lat="50.8471" lon="4.32469">
        <ele>49.799999237061</ele>
        <time>2019-05-13T01:34:47Z</time>
      </trkpt>
      <trkpt lat="50.84747" lon="4.32409">
        <ele>50.799999237061</ele>
        <time>2019-05-13T01:34:54Z</time>
      </trkpt>
      <trkpt lat="50.84801" lon="4.32325">
        <ele>52.799999237061</ele>
        <time>2019-05-13T01:35:07Z</time>
      </trkpt>
      <trkpt lat="50.84871" lon="4.32244">
        <ele>56.200000762939</ele>
        <time>2019-05-13T01:35:21Z</time>
      </trkpt>
      <trkpt lat="50.84895" lon="4.32236">
        <ele>56.799999237061</ele>
        <time>2019-05-13T01:35:37Z</time>
      </trkpt>
      <trkpt lat="50.84911" lon="4.32239">
        <ele>56.799999237061</ele>
        <time>2019-05-13T01:35:52Z</time>
      </trkpt>
      <trkpt lat="50.84943" lon="4.32258">
        <ele>57.599998474121</ele>
        <time>2019-05-13T01:36:13Z</time>
      </trkpt>
      <trkpt lat="50.85068" lon="4.3233">
        <ele>54.799999237061</ele>
        <time>2019-05-13T01:36:39Z</time>
      </trkpt>
      <trkpt lat="50.85161" lon="4.3239">
        <ele>54</ele>
        <time>2019-05-13T01:36:50Z</time>
      </trkpt>
      <trkpt lat="50.85301" lon="4.32472">
        <ele>54</ele>
        <time>2019-05-13T01:40:33Z</time>
      </trkpt>
      <trkpt lat="50.85351" lon="4.32496">
        <ele>54.200000762939</ele>
        <time>2019-05-13T01:40:50Z</time>
      </trkpt>
      <trkpt lat="50.85435" lon="4.32549">
        <ele>53.799999237061</ele>
        <time>2019-05-13T01:40:56Z</time>
      </trkpt>
      <trkpt lat="50.85527" lon="4.32589">
        <ele>53.799999237061</ele>
        <time>2019-05-13T01:41:05Z</time>
      </trkpt>
      <trkpt lat="50.85576" lon="4.32621">
        <ele>53.200000762939</ele>
        <time>2019-05-13T01:41:11Z</time>
      </trkpt>
      <trkpt lat="50.85633" lon="4.32649">
        <ele>50.799999237061</ele>
        <time>2019-05-13T01:41:15Z</time>
      </trkpt>
      <trkpt lat="50.85685" lon="4.32676">
        <ele>49.799999237061</ele>
        <time>2019-05-13T01:41:28Z</time>
      </trkpt>
      <trkpt lat="50.85748" lon="4.32757">
        <ele>48.400001525879</ele>
        <time>2019-05-13T01:41:44Z</time>
      </trkpt>
      <trkpt lat="50.85764" lon="4.32789">
        <ele>47.200000762939</ele>
        <time>2019-05-13T01:42:10Z</time>
      </trkpt>
      <trkpt lat="50.85839" lon="4.32935">
        <ele>44.599998474121</ele>
        <time>2019-05-13T01:42:32Z</time>
      </trkpt>
      <trkpt lat="50.8588" lon="4.3301">
        <ele>42.599998474121</ele>
        <time>2019-05-13T01:43:05Z</time>
      </trkpt>
      <trkpt lat="50.85931" lon="4.33057">
        <ele>42.400001525879</ele>
        <time>2019-05-13T01:43:21Z</time>
      </trkpt>
      <trkpt lat="50.85979" lon="4.33085">
        <ele>45.599998474121</ele>
        <time>2019-05-13T01:43:45Z</time>
      </trkpt>
      <trkpt lat="50.86065" lon="4.33206">
        <ele>50</ele>
        <time>2019-05-13T01:44:02Z</time>
      </trkpt>
      <trkpt lat="50.86128" lon="4.33267">
        <ele>50.799999237061</ele>
        <time>2019-05-13T01:44:29Z</time>
      </trkpt>
      <trkpt lat="50.86141" lon="4.33281">
        <ele>50.400001525879</ele>
        <time>2019-05-13T01:44:56Z</time>
      </trkpt>
      <trkpt lat="50.86189" lon="4.3335">
        <ele>51.200000762939</ele>
        <time>2019-05-13T01:45:11Z</time>
      </trkpt>
      <trkpt lat="50.86204" lon="4.33371">
        <ele>50.799999237061</ele>
        <time>2019-05-13T01:45:36Z</time>
      </trkpt>
      <trkpt lat="50.86234" lon="4.33412">
        <ele>50.400001525879</ele>
        <time>2019-05-13T01:46:00Z</time>
      </trkpt>
      <trkpt lat="50.8625" lon="4.3341">
        <ele>50.400001525879</ele>
        <time>2019-05-13T01:46:24Z</time>
      </trkpt>
      <trkpt lat="50.86422" lon="4.33254">
        <ele>54.799999237061</ele>
        <time>2019-05-13T01:46:50Z</time>
      </trkpt>
      <trkpt lat="50.86458" lon="4.33232">
        <ele>55</ele>
        <time>2019-05-13T01:47:04Z</time>
      </trkpt>
      <trkpt lat="50.8648" lon="4.33241">
        <ele>55.799999237061</ele>
        <time>2019-05-13T01:47:29Z</time>
      </trkpt>
      <trkpt lat="50.86537" lon="4.33303">
        <ele>56.200000762939</ele>
        <time>2019-05-13T01:47:57Z</time>
      </trkpt>
      <trkpt lat="50.86605" lon="4.33379">
        <ele>57.599998474121</ele>
        <time>2019-05-13T01:48:23Z</time>
      </trkpt>
      <trkpt lat="50.86641" lon="4.3342">
        <ele>57.799999237061</ele>
        <time>2019-05-13T01:48:47Z</time>
      </trkpt>
      <trkpt lat="50.86662" lon="4.33454">
        <ele>58.599998474121</ele>
        <time>2019-05-13T01:48:58Z</time>
      </trkpt>
      <trkpt lat="50.8669" lon="4.3348">
        <ele>58.400001525879</ele>
        <time>2019-05-13T01:51:49Z</time>
      </trkpt>
      <trkpt lat="50.86758" lon="4.33559">
        <ele>57</ele>
        <time>2019-05-13T01:52:10Z</time>
      </trkpt>
      <trkpt lat="50.86767" lon="4.33554">
        <ele>56</ele>
        <time>2019-05-13T01:52:34Z</time>
      </trkpt>
      <trkpt lat="50.86782" lon="4.3356">
        <ele>56.200000762939</ele>
        <time>2019-05-13T01:52:48Z</time>
      </trkpt>
      <trkpt lat="50.86796" lon="4.33552">
        <ele>56</ele>
        <time>2019-05-13T01:53:03Z</time>
      </trkpt>
      <trkpt lat="50.86855" lon="4.33538">
        <ele>55.799999237061</ele>
        <time>2019-05-13T01:53:22Z</time>
      </trkpt>
      <trkpt lat="50.86884" lon="4.33521">
        <ele>55.200000762939</ele>
        <time>2019-05-13T01:53:42Z</time>
      </trkpt>
      <trkpt lat="50.87002" lon="4.33477">
        <ele>54.200000762939</ele>
        <time>2019-05-13T01:54:02Z</time>
      </trkpt>
      <trkpt lat="50.87059" lon="4.33481">
        <ele>53.200000762939</ele>
        <time>2019-05-13T01:54:21Z</time>
      </trkpt>
      <trkpt lat="50.87103" lon="4.33464">
        <ele>53.200000762939</ele>
        <time>2019-05-13T01:54:41Z</time>
      </trkpt>
      <trkpt lat="50.87177" lon="4.33445">
        <ele>53.799999237061</ele>
        <time>2019-05-13T01:55:03Z</time>
      </trkpt>
      <trkpt lat="50.8741" lon="4.33383">
        <ele>60</ele>
        <time>2019-05-13T01:55:23Z</time>
      </trkpt>
      <trkpt lat="50.87483" lon="4.33366">
        <ele>61.200000762939</ele>
        <time>2019-05-13T01:55:42Z</time>
      </trkpt>
      <trkpt lat="50.87533" lon="4.33356">
        <ele>61.400001525879</ele>
        <time>2019-05-13T01:56:01Z</time>
      </trkpt>
      <trkpt lat="50.87624" lon="4.33323">
        <ele>58.799999237061</ele>
        <time>2019-05-13T01:56:17Z</time>
      </trkpt>
      <trkpt lat="50.87669" lon="4.33322">
        <ele>56.599998474121</ele>
        <time>2019-05-13T01:56:43Z</time>
      </trkpt>
      <trkpt lat="50.87774" lon="4.33287">
        <ele>53</ele>
        <time>2019-05-13T01:57:02Z</time>
      </trkpt>
      <trkpt lat="50.87815" lon="4.3329">
        <ele>51.599998474121</ele>
        <time>2019-05-13T01:57:25Z</time>
      </trkpt>
      <trkpt lat="50.87847" lon="4.33324">
        <ele>50.400001525879</ele>
        <time>2019-05-13T01:57:37Z</time>
      </trkpt>
      <trkpt lat="50.87924" lon="4.33414">
        <ele>50.200000762939</ele>
        <time>2019-05-13T01:58:00Z</time>
      </trkpt>
      <trkpt lat="50.87984" lon="4.33476">
        <ele>50</ele>
        <time>2019-05-13T01:58:12Z</time>
      </trkpt>
      <trkpt lat="50.88063" lon="4.33568">
        <ele>50</ele>
        <time>2019-05-13T01:58:27Z</time>
      </trkpt>
      <trkpt lat="50.88136" lon="4.33582">
        <ele>51.200000762939</ele>
        <time>2019-05-13T01:58:37Z</time>
      </trkpt>
      <trkpt lat="50.8821" lon="4.33564">
        <ele>51.400001525879</ele>
        <time>2019-05-13T01:58:53Z</time>
      </trkpt>
      <trkpt lat="50.88273" lon="4.33576">
        <ele>46.400001525879</ele>
        <time>2019-05-13T01:59:02Z</time>
      </trkpt>
      <trkpt lat="50.88295" lon="4.33676">
        <ele>45.200000762939</ele>
        <time>2019-05-13T01:59:28Z</time>
      </trkpt>
      <trkpt lat="50.88335" lon="4.33895">
        <ele>43.599998474121</ele>
        <time>2019-05-13T01:59:35Z</time>
      </trkpt>
      <trkpt lat="50.88343" lon="4.33953">
        <ele>42.799999237061</ele>
        <time>2019-05-13T01:59:46Z</time>
      </trkpt>
      <trkpt lat="50.88318" lon="4.33992">
        <ele>42.400001525879</ele>
        <time>2019-05-13T01:59:54Z</time>
      </trkpt>
      <trkpt lat="50.88305" lon="4.34035">
        <ele>42.400001525879</ele>
        <time>2019-05-13T02:00:04Z</time>
      </trkpt>
      <trkpt lat="50.88305" lon="4.34112">
        <ele>42.200000762939</ele>
        <time>2019-05-13T02:00:25Z</time>
      </trkpt>
      <trkpt lat="50.88332" lon="4.34223">
        <ele>42.599998474121</ele>
        <time>2019-05-13T02:00:43Z</time>
      </trkpt>
      <trkpt lat="50.88352" lon="4.34249">
        <ele>42.599998474121</ele>
        <time>2019-05-13T02:00:53Z</time>
      </trkpt>
      <trkpt lat="50.88389" lon="4.34269">
        <ele>43</ele>
        <time>2019-05-13T02:01:02Z</time>
      </trkpt>
      <trkpt lat="50.88408" lon="4.34394">
        <ele>41.400001525879</ele>
        <time>2019-05-13T02:01:27Z</time>
      </trkpt>
      <trkpt lat="50.88445" lon="4.34452">
        <ele>40.799999237061</ele>
        <time>2019-05-13T02:01:54Z</time>
      </trkpt>
      <trkpt lat="50.8854" lon="4.34422">
        <ele>41.799999237061</ele>
        <time>2019-05-13T02:02:19Z</time>
      </trkpt>
      <trkpt lat="50.88599" lon="4.34418">
        <ele>43</ele>
        <time>2019-05-13T02:02:41Z</time>
      </trkpt>
      <trkpt lat="50.88673" lon="4.34428">
        <ele>43.599998474121</ele>
        <time>2019-05-13T02:03:00Z</time>
      </trkpt>
      <trkpt lat="50.88741" lon="4.34431">
        <ele>46.400001525879</ele>
        <time>2019-05-13T02:03:21Z</time>
      </trkpt>
      <trkpt lat="50.88854" lon="4.34456">
        <ele>48.599998474121</ele>
        <time>2019-05-13T02:03:37Z</time>
      </trkpt>
      <trkpt lat="50.8894" lon="4.34472">
        <ele>49.599998474121</ele>
        <time>2019-05-13T02:04:01Z</time>
      </trkpt>
      <trkpt lat="50.88986" lon="4.34491">
        <ele>49.799999237061</ele>
        <time>2019-05-13T02:04:24Z</time>
      </trkpt>
      <trkpt lat="50.89059" lon="4.34522">
        <ele>50.400001525879</ele>
        <time>2019-05-13T02:04:42Z</time>
      </trkpt>
      <trkpt lat="50.89117" lon="4.34509">
        <ele>51</ele>
        <time>2019-05-13T02:04:54Z</time>
      </trkpt>
      <trkpt lat="50.89155" lon="4.3448">
        <ele>52.400001525879</ele>
        <time>2019-05-13T02:05:14Z</time>
      </trkpt>
      <trkpt lat="50.89182" lon="4.34453">
        <ele>55.200000762939</ele>
        <time>2019-05-13T02:05:34Z</time>
      </trkpt>
      <trkpt lat="50.89257" lon="4.3439">
        <ele>57.799999237061</ele>
        <time>2019-05-13T02:05:56Z</time>
      </trkpt>
      <trkpt lat="50.89316" lon="4.34364">
        <ele>60.400001525879</ele>
        <time>2019-05-13T02:06:23Z</time>
      </trkpt>
      <trkpt lat="50.89344" lon="4.34309">
        <ele>61.599998474121</ele>
        <time>2019-05-13T02:06:51Z</time>
      </trkpt>
      <trkpt lat="50.89419" lon="4.34247">
        <ele>64.599998474121</ele>
        <time>2019-05-13T02:07:18Z</time>
      </trkpt>
      <trkpt lat="50.89497" lon="4.34202">
        <ele>69</ele>
        <time>2019-05-13T02:07:46Z</time>
      </trkpt>
      <trkpt lat="50.89575" lon="4.34097">
        <ele>73.199996948242</ele>
        <time>2019-05-13T02:08:13Z</time>
      </trkpt>
      <trkpt lat="50.89593" lon="4.34084">
        <ele>75</ele>
        <time>2019-05-13T02:08:38Z</time>
      </trkpt>
      <trkpt lat="50.89636" lon="4.34044">
        <ele>76</ele>
        <time>2019-05-13T02:08:59Z</time>
      </trkpt>
      <trkpt lat="50.89751" lon="4.33947">
        <ele>82.199996948242</ele>
        <time>2019-05-13T02:09:20Z</time>
      </trkpt>
      <trkpt lat="50.8984" lon="4.34011">
        <ele>85.199996948242</ele>
        <time>2019-05-13T02:09:44Z</time>
      </trkpt>
      <trkpt lat="50.89938" lon="4.34126">
        <ele>87.199996948242</ele>
        <time>2019-05-13T02:10:05Z</time>
      </trkpt>
      <trkpt lat="50.8996" lon="4.34149">
        <ele>88.199996948242</ele>
        <time>2019-05-13T02:10:29Z</time>
      </trkpt>
      <trkpt lat="50.90004" lon="4.34266">
        <ele>89.199996948242</ele>
        <time>2019-05-13T02:10:54Z</time>
      </trkpt>
      <trkpt lat="50.90058" lon="4.3441">
        <ele>88.400001525879</ele>
        <time>2019-05-13T02:11:14Z</time>
      </trkpt>
      <trkpt lat="50.90095" lon="4.34512">
        <ele>86.400001525879</ele>
        <time>2019-05-13T02:11:38Z</time>
      </trkpt>
      <trkpt lat="50.90122" lon="4.34584">
        <ele>84.199996948242</ele>
        <time>2019-05-13T02:12:00Z</time>
      </trkpt>
      <trkpt lat="50.90177" lon="4.34628">
        <ele>84.199996948242</ele>
        <time>2019-05-13T02:12:16Z</time>
      </trkpt>
      <trkpt lat="50.90234" lon="4.34597">
        <ele>83.199996948242</ele>
        <time>2019-05-13T02:12:39Z</time>
      </trkpt>
      <trkpt lat="50.90243" lon="4.34549">
        <ele>82.400001525879</ele>
        <time>2019-05-13T02:12:55Z</time>
      </trkpt>
      <trkpt lat="50.90233" lon="4.34553">
        <ele>81.400001525879</ele>
        <time>2019-05-13T02:13:18Z</time>
      </trkpt>
      <trkpt lat="50.90196" lon="4.34671">
        <ele>79.199996948242</ele>
        <time>2019-05-13T02:13:30Z</time>
      </trkpt>
      <trkpt lat="50.90179" lon="4.34729">
        <ele>78.599998474121</ele>
        <time>2019-05-13T02:13:53Z</time>
      </trkpt>
      <trkpt lat="50.90164" lon="4.34788">
        <ele>78.599998474121</ele>
        <time>2019-05-13T02:14:16Z</time>
      </trkpt>
      <trkpt lat="50.90171" lon="4.3479">
        <ele>79.400001525879</ele>
        <time>2019-05-13T02:14:28Z</time>
      </trkpt>
      <trkpt lat="50.9024" lon="4.34754">
        <ele>79.400001525879</ele>
        <time>2019-05-13T02:14:37Z</time>
      </trkpt>
      <trkpt lat="50.90313" lon="4.34788">
        <ele>78.599998474121</ele>
        <time>2019-05-13T02:14:47Z</time>
      </trkpt>
      <trkpt lat="50.90367" lon="4.3485">
        <ele>77.400001525879</ele>
        <time>2019-05-13T02:14:54Z</time>
      </trkpt>
      <trkpt lat="50.90577" lon="4.35089">
        <ele>70.599998474121</ele>
        <time>2019-05-13T02:15:00Z</time>
      </trkpt>
      <trkpt lat="50.9069" lon="4.35209">
        <ele>68.199996948242</ele>
        <time>2019-05-13T02:15:12Z</time>
      </trkpt>
      <trkpt lat="50.90751" lon="4.35267">
        <ele>67.800003051758</ele>
        <time>2019-05-13T02:15:32Z</time>
      </trkpt>
      <trkpt lat="50.908" lon="4.35322">
        <ele>67.199996948242</ele>
        <time>2019-05-13T02:15:47Z</time>
      </trkpt>
      <trkpt lat="50.909" lon="4.35397">
        <ele>69.400001525879</ele>
        <time>2019-05-13T02:16:01Z</time>
      </trkpt>
      <trkpt lat="50.9097" lon="4.35484">
        <ele>69.400001525879</ele>
        <time>2019-05-13T02:16:24Z</time>
      </trkpt>
      <trkpt lat="50.9101" lon="4.35531">
        <ele>68.800003051758</ele>
        <time>2019-05-13T02:16:42Z</time>
      </trkpt>
      <trkpt lat="50.91037" lon="4.35566">
        <ele>67.199996948242</ele>
        <time>2019-05-13T02:17:05Z</time>
      </trkpt>
      <trkpt lat="50.91093" lon="4.35579">
        <ele>66.400001525879</ele>
        <time>2019-05-13T02:17:26Z</time>
      </trkpt>
      <trkpt lat="50.91156" lon="4.35591">
        <ele>66.800003051758</ele>
        <time>2019-05-13T02:17:44Z</time>
      </trkpt>
      <trkpt lat="50.91218" lon="4.35652">
        <ele>68.199996948242</ele>
        <time>2019-05-13T02:18:07Z</time>
      </trkpt>
      <trkpt lat="50.91264" lon="4.35697">
        <ele>68.400001525879</ele>
        <time>2019-05-13T02:18:29Z</time>
      </trkpt>
      <trkpt lat="50.91327" lon="4.35752">
        <ele>68.199996948242</ele>
        <time>2019-05-13T02:18:46Z</time>
      </trkpt>
      <trkpt lat="50.91435" lon="4.3585">
        <ele>67.400001525879</ele>
        <time>2019-05-13T02:19:08Z</time>
      </trkpt>
      <trkpt lat="50.91527" lon="4.35928">
        <ele>67.400001525879</ele>
        <time>2019-05-13T02:19:32Z</time>
      </trkpt>
      <trkpt lat="50.91712" lon="4.36075">
        <ele>70.199996948242</ele>
        <time>2019-05-13T02:19:54Z</time>
      </trkpt>
      <trkpt lat="50.91866" lon="4.36203">
        <ele>72.199996948242</ele>
        <time>2019-05-13T02:20:19Z</time>
      </trkpt>
      <trkpt lat="50.91868" lon="4.36205">
        <ele>72.800003051758</ele>
        <time>2019-05-13T02:20:41Z</time>
      </trkpt>
      <trkpt lat="50.91907" lon="4.36234">
        <ele>73.400001525879</ele>
        <time>2019-05-13T02:21:03Z</time>
      </trkpt>
      <trkpt lat="50.91985" lon="4.36325">
        <ele>76.599998474121</ele>
        <time>2019-05-13T02:21:17Z</time>
      </trkpt>
      <trkpt lat="50.92016" lon="4.36378">
        <ele>77.599998474121</ele>
        <time>2019-05-13T02:21:37Z</time>
      </trkpt>
      <trkpt lat="50.92092" lon="4.36501">
        <ele>81</ele>
        <time>2019-05-13T02:22:00Z</time>
      </trkpt>
      <trkpt lat="50.92089" lon="4.36515">
        <ele>81.199996948242</ele>
        <time>2019-05-13T02:22:23Z</time>
      </trkpt>
      <trkpt lat="50.92072" lon="4.36524">
        <ele>81.199996948242</ele>
        <time>2019-05-13T02:22:39Z</time>
      </trkpt>
      <trkpt lat="50.92066" lon="4.3654">
        <ele>80.400001525879</ele>
        <time>2019-05-13T02:22:58Z</time>
      </trkpt>
      <trkpt lat="50.92081" lon="4.36574">
        <ele>81</ele>
        <time>2019-05-13T02:23:18Z</time>
      </trkpt>
      <trkpt lat="50.92105" lon="4.36649">
        <ele>81.599998474121</ele>
        <time>2019-05-13T02:23:33Z</time>
      </trkpt>
      <trkpt lat="50.9213" lon="4.36749">
        <ele>82.800003051758</ele>
        <time>2019-05-13T02:23:47Z</time>
      </trkpt>
      <trkpt lat="50.92144" lon="4.36808">
        <ele>84.199996948242</ele>
        <time>2019-05-13T02:24:05Z</time>
      </trkpt>
      <trkpt lat="50.92155" lon="4.3686">
        <ele>84.800003051758</ele>
        <time>2019-05-13T02:24:11Z</time>
      </trkpt>
      <trkpt lat="50.92171" lon="4.36932">
        <ele>84</ele>
        <time>2019-05-13T02:24:23Z</time>
      </trkpt>
      <trkpt lat="50.9223" lon="4.37068">
        <ele>81</ele>
        <time>2019-05-13T02:24:32Z</time>
      </trkpt>
      <trkpt lat="50.92299" lon="4.37154">
        <ele>77.199996948242</ele>
        <time>2019-05-13T02:24:44Z</time>
      </trkpt>
      <trkpt lat="50.9238" lon="4.37289">
        <ele>73.199996948242</ele>
        <time>2019-05-13T02:25:07Z</time>
      </trkpt>
      <trkpt lat="50.92457" lon="4.37413">
        <ele>71.599998474121</ele>
        <time>2019-05-13T02:25:33Z</time>
      </trkpt>
      <trkpt lat="50.92536" lon="4.3748">
        <ele>69.599998474121</ele>
        <time>2019-05-13T02:25:48Z</time>
      </trkpt>
      <trkpt lat="50.92582" lon="4.37512">
        <ele>68</ele>
        <time>2019-05-13T02:25:58Z</time>
      </trkpt>
      <trkpt lat="50.92582" lon="4.3752">
        <ele>67.199996948242</ele>
        <time>2019-05-13T02:26:24Z</time>
      </trkpt>
      <trkpt lat="50.92608" lon="4.37538">
        <ele>67.599998474121</ele>
        <time>2019-05-13T02:35:06Z</time>
      </trkpt>
      <trkpt lat="50.92713" lon="4.37766">
        <ele>63.400001525879</ele>
        <time>2019-05-13T02:35:27Z</time>
      </trkpt>
      <trkpt lat="50.92787" lon="4.37927">
        <ele>61.799999237061</ele>
        <time>2019-05-13T02:35:48Z</time>
      </trkpt>
      <trkpt lat="50.92831" lon="4.38015">
        <ele>61.400001525879</ele>
        <time>2019-05-13T02:36:02Z</time>
      </trkpt>
      <trkpt lat="50.92912" lon="4.38126">
        <ele>60</ele>
        <time>2019-05-13T02:36:14Z</time>
      </trkpt>
      <trkpt lat="50.93017" lon="4.38269">
        <ele>57.599998474121</ele>
        <time>2019-05-13T02:36:35Z</time>
      </trkpt>
      <trkpt lat="50.93042" lon="4.38268">
        <ele>55.599998474121</ele>
        <time>2019-05-13T02:36:51Z</time>
      </trkpt>
      <trkpt lat="50.93103" lon="4.38128">
        <ele>54.599998474121</ele>
        <time>2019-05-13T02:37:01Z</time>
      </trkpt>
      <trkpt lat="50.93195" lon="4.3801">
        <ele>52.200000762939</ele>
        <time>2019-05-13T02:37:23Z</time>
      </trkpt>
      <trkpt lat="50.93329" lon="4.3793">
        <ele>48.799999237061</ele>
        <time>2019-05-13T02:37:42Z</time>
      </trkpt>
      <trkpt lat="50.9342" lon="4.379">
        <ele>46.200000762939</ele>
        <time>2019-05-13T02:38:04Z</time>
      </trkpt>
      <trkpt lat="50.93425" lon="4.37907">
        <ele>45.200000762939</ele>
        <time>2019-05-13T02:38:25Z</time>
      </trkpt>
      <trkpt lat="50.93455" lon="4.38013">
        <ele>46</ele>
        <time>2019-05-13T02:38:43Z</time>
      </trkpt>
      <trkpt lat="50.9351" lon="4.3811">
        <ele>45.400001525879</ele>
        <time>2019-05-13T02:39:05Z</time>
      </trkpt>
      <trkpt lat="50.93541" lon="4.38192">
        <ele>44.400001525879</ele>
        <time>2019-05-13T02:39:17Z</time>
      </trkpt>
      <trkpt lat="50.93537" lon="4.38228">
        <ele>43.799999237061</ele>
        <time>2019-05-13T02:39:23Z</time>
      </trkpt>
      <trkpt lat="50.93505" lon="4.38263">
        <ele>43.599998474121</ele>
        <time>2019-05-13T02:39:30Z</time>
      </trkpt>
      <trkpt lat="50.93474" lon="4.3822">
        <ele>46</ele>
        <time>2019-05-13T02:39:48Z</time>
      </trkpt>
      <trkpt lat="50.93462" lon="4.38231">
        <ele>46.599998474121</ele>
        <time>2019-05-13T02:40:06Z</time>
      </trkpt>
      <trkpt lat="50.9344" lon="4.38237">
        <ele>46.599998474121</ele>
        <time>2019-05-13T02:40:22Z</time>
      </trkpt>
      <trkpt lat="50.93422" lon="4.38239">
        <ele>46.799999237061</ele>
        <time>2019-05-13T02:40:44Z</time>
      </trkpt>
      <trkpt lat="50.93409" lon="4.3824">
        <ele>47.200000762939</ele>
        <time>2019-05-13T02:41:10Z</time>
      </trkpt>
      <trkpt lat="50.93411" lon="4.38192">
        <ele>49</ele>
        <time>2019-05-13T02:41:23Z</time>
      </trkpt>
      <trkpt lat="50.93423" lon="4.38241">
        <ele>47.799999237061</ele>
        <time>2019-05-13T02:41:38Z</time>
      </trkpt>
      <trkpt lat="50.93452" lon="4.38199">
        <ele>47.200000762939</ele>
        <time>2019-05-13T02:42:00Z</time>
      </trkpt>
      <trkpt lat="50.93449" lon="4.38204">
        <ele>47.400001525879</ele>
        <time>2019-05-13T02:42:23Z</time>
      </trkpt>
      <trkpt lat="50.93454" lon="4.38209">
        <ele>47.200000762939</ele>
        <time>2019-05-13T02:42:37Z</time>
      </trkpt>
      <trkpt lat="50.93474" lon="4.38249">
        <ele>47</ele>
        <time>2019-05-13T02:42:53Z</time>
      </trkpt>
      <trkpt lat="50.93498" lon="4.38244">
        <ele>45.400001525879</ele>
        <time>2019-05-13T02:43:09Z</time>
      </trkpt>
      <trkpt lat="50.93527" lon="4.38209">
        <ele>44</ele>
        <time>2019-05-13T02:43:38Z</time>
      </trkpt>
      <trkpt lat="50.93503" lon="4.38144">
        <ele>44</ele>
        <time>2019-05-13T02:44:05Z</time>
      </trkpt>
      <trkpt lat="50.93489" lon="4.3811">
        <ele>44.799999237061</ele>
        <time>2019-05-13T02:44:34Z</time>
      </trkpt>
      <trkpt lat="50.93467" lon="4.38068">
        <ele>45</ele>
        <time>2019-05-13T02:44:48Z</time>
      </trkpt>
      <trkpt lat="50.93437" lon="4.38005">
        <ele>46</ele>
        <time>2019-05-13T02:45:04Z</time>
      </trkpt>
      <trkpt lat="50.93408" lon="4.37894">
        <ele>46</ele>
        <time>2019-05-13T02:45:28Z</time>
      </trkpt>
      <trkpt lat="50.93369" lon="4.37912">
        <ele>46.400001525879</ele>
        <time>2019-05-13T02:45:39Z</time>
      </trkpt>
      <trkpt lat="50.93364" lon="4.37904">
        <ele>47</ele>
        <time>2019-05-13T02:45:52Z</time>
      </trkpt>
      <trkpt lat="50.93363" lon="4.37827">
        <ele>47.599998474121</ele>
        <time>2019-05-13T02:46:14Z</time>
      </trkpt>
      <trkpt lat="50.93348" lon="4.37695">
        <ele>52.200000762939</ele>
        <time>2019-05-13T02:46:41Z</time>
      </trkpt>
      <trkpt lat="50.93345" lon="4.37678">
        <ele>52.400001525879</ele>
        <time>2019-05-13T02:47:03Z</time>
      </trkpt>
      <trkpt lat="50.9333" lon="4.37583">
        <ele>52.799999237061</ele>
        <time>2019-05-13T02:47:22Z</time>
      </trkpt>
      <trkpt lat="50.93318" lon="4.37494">
        <ele>53.599998474121</ele>
        <time>2019-05-13T02:47:54Z</time>
      </trkpt>
      <trkpt lat="50.93308" lon="4.3739">
        <ele>55.400001525879</ele>
        <time>2019-05-13T02:48:23Z</time>
      </trkpt>
      <trkpt lat="50.93316" lon="4.3738">
        <ele>55</ele>
        <time>2019-05-13T02:48:43Z</time>
      </trkpt>
      <trkpt lat="50.93341" lon="4.37358">
        <ele>55</ele>
        <time>2019-05-13T02:49:07Z</time>
      </trkpt>
      <trkpt lat="50.93383" lon="4.37299">
        <ele>54.200000762939</ele>
        <time>2019-05-13T02:49:32Z</time>
      </trkpt>
      <trkpt lat="50.93413" lon="4.37227">
        <ele>53</ele>
        <time>2019-05-13T02:49:58Z</time>
      </trkpt>
      <trkpt lat="50.93451" lon="4.37118">
        <ele>50.400001525879</ele>
        <time>2019-05-13T02:50:24Z</time>
      </trkpt>
      <trkpt lat="50.93514" lon="4.36862">
        <ele>45.799999237061</ele>
        <time>2019-05-13T02:50:37Z</time>
      </trkpt>
      <trkpt lat="50.93556" lon="4.36693">
        <ele>44.599998474121</ele>
        <time>2019-05-13T02:50:59Z</time>
      </trkpt>
      <trkpt lat="50.93582" lon="4.36569">
        <ele>44.799999237061</ele>
        <time>2019-05-13T02:51:25Z</time>
      </trkpt>
      <trkpt lat="50.93607" lon="4.36451">
        <ele>45.599998474121</ele>
        <time>2019-05-13T02:51:49Z</time>
      </trkpt>
      <trkpt lat="50.93632" lon="4.36369">
        <ele>47</ele>
        <time>2019-05-13T02:52:05Z</time>
      </trkpt>
      <trkpt lat="50.9367" lon="4.36335">
        <ele>48</ele>
        <time>2019-05-13T02:52:30Z</time>
      </trkpt>
      <trkpt lat="50.93802" lon="4.3625">
        <ele>49.400001525879</ele>
        <time>2019-05-13T02:52:52Z</time>
      </trkpt>
      <trkpt lat="50.93914" lon="4.36189">
        <ele>51</ele>
        <time>2019-05-13T02:53:21Z</time>
      </trkpt>
      <trkpt lat="50.93956" lon="4.3617">
        <ele>52</ele>
        <time>2019-05-13T02:53:41Z</time>
      </trkpt>
      <trkpt lat="50.94015" lon="4.36169">
        <ele>52.799999237061</ele>
        <time>2019-05-13T02:54:24Z</time>
      </trkpt>
      <trkpt lat="50.94165" lon="4.36254">
        <ele>53.799999237061</ele>
        <time>2019-05-13T02:59:35Z</time>
      </trkpt>
      <trkpt lat="50.94285" lon="4.36384">
        <ele>56.400001525879</ele>
        <time>2019-05-13T03:00:01Z</time>
      </trkpt>
      <trkpt lat="50.94404" lon="4.36444">
        <ele>58</ele>
        <time>2019-05-13T03:00:19Z</time>
      </trkpt>
      <trkpt lat="50.94508" lon="4.365">
        <ele>59.799999237061</ele>
        <time>2019-05-13T03:00:33Z</time>
      </trkpt>
      <trkpt lat="50.94615" lon="4.36559">
        <ele>60.799999237061</ele>
        <time>2019-05-13T03:00:42Z</time>
      </trkpt>
      <trkpt lat="50.94675" lon="4.36589">
        <ele>60.599998474121</ele>
        <time>2019-05-13T03:01:25Z</time>
      </trkpt>
      <trkpt lat="50.94709" lon="4.366">
        <ele>60.599998474121</ele>
        <time>2019-05-13T03:01:37Z</time>
      </trkpt>
      <trkpt lat="50.94715" lon="4.36578">
        <ele>60</ele>
        <time>2019-05-13T03:01:48Z</time>
      </trkpt>
      <trkpt lat="50.94751" lon="4.36555">
        <ele>60.400001525879</ele>
        <time>2019-05-13T03:02:02Z</time>
      </trkpt>
      <trkpt lat="50.94859" lon="4.36494">
        <ele>60.200000762939</ele>
        <time>2019-05-13T03:02:15Z</time>
      </trkpt>
      <trkpt lat="50.94951" lon="4.36442">
        <ele>59</ele>
        <time>2019-05-13T03:02:33Z</time>
      </trkpt>
      <trkpt lat="50.95067" lon="4.36383">
        <ele>58</ele>
        <time>2019-05-13T03:02:51Z</time>
      </trkpt>
      <trkpt lat="50.95259" lon="4.36292">
        <ele>57</ele>
        <time>2019-05-13T03:03:09Z</time>
      </trkpt>
      <trkpt lat="50.95415" lon="4.36158">
        <ele>55.200000762939</ele>
        <time>2019-05-13T03:03:22Z</time>
      </trkpt>
      <trkpt lat="50.95476" lon="4.36124">
        <ele>55.200000762939</ele>
        <time>2019-05-13T03:03:44Z</time>
      </trkpt>
      <trkpt lat="50.95566" lon="4.36103">
        <ele>56.400001525879</ele>
        <time>2019-05-13T03:04:12Z</time>
      </trkpt>
      <trkpt lat="50.95612" lon="4.36087">
        <ele>57.400001525879</ele>
        <time>2019-05-13T03:04:25Z</time>
      </trkpt>
      <trkpt lat="50.95701" lon="4.36055">
        <ele>57.799999237061</ele>
        <time>2019-05-13T03:04:55Z</time>
      </trkpt>
      <trkpt lat="50.95956" lon="4.35988">
        <ele>52.799999237061</ele>
        <time>2019-05-13T03:05:21Z</time>
      </trkpt>
      <trkpt lat="50.95979" lon="4.36008">
        <ele>52.200000762939</ele>
        <time>2019-05-13T03:05:43Z</time>
      </trkpt>
      <trkpt lat="50.96073" lon="4.36193">
        <ele>50.599998474121</ele>
        <time>2019-05-13T03:06:05Z</time>
      </trkpt>
      <trkpt lat="50.96098" lon="4.36197">
        <ele>50</ele>
        <time>2019-05-13T03:06:28Z</time>
      </trkpt>
      <trkpt lat="50.96188" lon="4.36146">
        <ele>49.400001525879</ele>
        <time>2019-05-13T03:06:51Z</time>
      </trkpt>
      <trkpt lat="50.96331" lon="4.36119">
        <ele>49.599998474121</ele>
        <time>2019-05-13T03:07:18Z</time>
      </trkpt>
      <trkpt lat="50.96462" lon="4.36126">
        <ele>50</ele>
        <time>2019-05-13T03:07:41Z</time>
      </trkpt>
      <trkpt lat="50.96687" lon="4.36096">
        <ele>45.799999237061</ele>
        <time>2019-05-13T03:08:03Z</time>
      </trkpt>
      <trkpt lat="50.96899" lon="4.36066">
        <ele>43.599998474121</ele>
        <time>2019-05-13T03:08:31Z</time>
      </trkpt>
      <trkpt lat="50.97072" lon="4.36074">
        <ele>42</ele>
        <time>2019-05-13T03:08:57Z</time>
      </trkpt>
      <trkpt lat="50.97253" lon="4.36002">
        <ele>40.599998474121</ele>
        <time>2019-05-13T03:09:20Z</time>
      </trkpt>
      <trkpt lat="50.97324" lon="4.35973">
        <ele>39.599998474121</ele>
        <time>2019-05-13T03:09:49Z</time>
      </trkpt>
      <trkpt lat="50.97332" lon="4.3597">
        <ele>39.200000762939</ele>
        <time>2019-05-13T03:10:11Z</time>
      </trkpt>
      <trkpt lat="50.97407" lon="4.35928">
        <ele>39.400001525879</ele>
        <time>2019-05-13T03:10:32Z</time>
      </trkpt>
      <trkpt lat="50.97507" lon="4.35795">
        <ele>39</ele>
        <time>2019-05-13T03:11:00Z</time>
      </trkpt>
      <trkpt lat="50.97636" lon="4.35586">
        <ele>37.799999237061</ele>
        <time>2019-05-13T03:11:22Z</time>
      </trkpt>
      <trkpt lat="50.97714" lon="4.35455">
        <ele>38.200000762939</ele>
        <time>2019-05-13T03:11:42Z</time>
      </trkpt>
      <trkpt lat="50.97767" lon="4.35372">
        <ele>37.599998474121</ele>
        <time>2019-05-13T03:12:06Z</time>
      </trkpt>
      <trkpt lat="50.97849" lon="4.35237">
        <ele>37.200000762939</ele>
        <time>2019-05-13T03:12:19Z</time>
      </trkpt>
      <trkpt lat="50.97883" lon="4.35202">
        <ele>36.799999237061</ele>
        <time>2019-05-13T03:12:50Z</time>
      </trkpt>
      <trkpt lat="50.97923" lon="4.35156">
        <ele>36.599998474121</ele>
        <time>2019-05-13T03:13:17Z</time>
      </trkpt>
      <trkpt lat="50.98043" lon="4.35036">
        <ele>37.799999237061</ele>
        <time>2019-05-13T03:13:38Z</time>
      </trkpt>
      <trkpt lat="50.98124" lon="4.34983">
        <ele>38.599998474121</ele>
        <time>2019-05-13T03:14:00Z</time>
      </trkpt>
      <trkpt lat="50.98205" lon="4.34933">
        <ele>38</ele>
        <time>2019-05-13T03:14:21Z</time>
      </trkpt>
      <trkpt lat="50.98317" lon="4.34829">
        <ele>37.599998474121</ele>
        <time>2019-05-13T03:14:36Z</time>
      </trkpt>
      <trkpt lat="50.98424" lon="4.34696">
        <ele>37.799999237061</ele>
        <time>2019-05-13T03:14:55Z</time>
      </trkpt>
      <trkpt lat="50.98491" lon="4.34596">
        <ele>38</ele>
        <time>2019-05-13T03:15:13Z</time>
      </trkpt>
      <trkpt lat="50.98584" lon="4.34509">
        <ele>37.599998474121</ele>
        <time>2019-05-13T03:15:27Z</time>
      </trkpt>
      <trkpt lat="50.9873" lon="4.34451">
        <ele>36.599998474121</ele>
        <time>2019-05-13T03:15:46Z</time>
      </trkpt>
      <trkpt lat="50.98803" lon="4.34422">
        <ele>36.400001525879</ele>
        <time>2019-05-13T03:16:11Z</time>
      </trkpt>
      <trkpt lat="50.98917" lon="4.34339">
        <ele>35.799999237061</ele>
        <time>2019-05-13T03:16:37Z</time>
      </trkpt>
      <trkpt lat="50.99021" lon="4.34245">
        <ele>36.200000762939</ele>
        <time>2019-05-13T03:16:56Z</time>
      </trkpt>
      <trkpt lat="50.99111" lon="4.34158">
        <ele>36.200000762939</ele>
        <time>2019-05-13T03:17:28Z</time>
      </trkpt>
      <trkpt lat="50.99236" lon="4.34072">
        <ele>35.200000762939</ele>
        <time>2019-05-13T03:17:45Z</time>
      </trkpt>
      <trkpt lat="50.9933" lon="4.34002">
        <ele>34.799999237061</ele>
        <time>2019-05-13T03:18:01Z</time>
      </trkpt>
      <trkpt lat="50.99429" lon="4.33933">
        <ele>34.799999237061</ele>
        <time>2019-05-13T03:18:25Z</time>
      </trkpt>
      <trkpt lat="50.99534" lon="4.3387">
        <ele>34.400001525879</ele>
        <time>2019-05-13T03:18:49Z</time>
      </trkpt>
      <trkpt lat="50.99567" lon="4.33827">
        <ele>34</ele>
        <time>2019-05-13T03:19:18Z</time>
      </trkpt>
      <trkpt lat="50.99569" lon="4.33824">
        <ele>33.400001525879</ele>
        <time>2019-05-13T03:19:33Z</time>
      </trkpt>
      <trkpt lat="50.99559" lon="4.33841">
        <ele>33.200000762939</ele>
        <time>2019-05-13T03:19:53Z</time>
      </trkpt>
      <trkpt lat="50.99568" lon="4.3386">
        <ele>33.400001525879</ele>
        <time>2019-05-13T03:20:00Z</time>
      </trkpt>
      <trkpt lat="50.99672" lon="4.33962">
        <ele>33.599998474121</ele>
        <time>2019-05-13T03:20:16Z</time>
      </trkpt>
      <trkpt lat="50.99792" lon="4.34084">
        <ele>33.599998474121</ele>
        <time>2019-05-13T03:20:29Z</time>
      </trkpt>
      <trkpt lat="50.99892" lon="4.34187">
        <ele>33.400001525879</ele>
        <time>2019-05-13T03:20:48Z</time>
      </trkpt>
      <trkpt lat="50.99982" lon="4.34307">
        <ele>33.400001525879</ele>
        <time>2019-05-13T03:21:11Z</time>
      </trkpt>
      <trkpt lat="51.00068" lon="4.3442">
        <ele>33.599998474121</ele>
        <time>2019-05-13T03:21:33Z</time>
      </trkpt>
      <trkpt lat="51.00182" lon="4.34568">
        <ele>33.400001525879</ele>
        <time>2019-05-13T03:22:02Z</time>
      </trkpt>
      <trkpt lat="51.00257" lon="4.34675">
        <ele>32.799999237061</ele>
        <time>2019-05-13T03:22:28Z</time>
      </trkpt>
      <trkpt lat="51.00354" lon="4.34807">
        <ele>32.799999237061</ele>
        <time>2019-05-13T03:22:53Z</time>
      </trkpt>
      <trkpt lat="51.00419" lon="4.34899">
        <ele>32.599998474121</ele>
        <time>2019-05-13T03:23:04Z</time>
      </trkpt>
      <trkpt lat="51.00497" lon="4.35017">
        <ele>32.200000762939</ele>
        <time>2019-05-13T03:23:31Z</time>
      </trkpt>
      <trkpt lat="51.00588" lon="4.35139">
        <ele>32.200000762939</ele>
        <time>2019-05-13T03:23:54Z</time>
      </trkpt>
      <trkpt lat="51.00683" lon="4.35242">
        <ele>31.799999237061</ele>
        <time>2019-05-13T03:24:17Z</time>
      </trkpt>
      <trkpt lat="51.00801" lon="4.35381">
        <ele>31.799999237061</ele>
        <time>2019-05-13T03:24:42Z</time>
      </trkpt>
      <trkpt lat="51.00851" lon="4.35325">
        <ele>31.799999237061</ele>
        <time>2019-05-13T03:25:07Z</time>
      </trkpt>
      <trkpt lat="51.00913" lon="4.35332">
        <ele>32.400001525879</ele>
        <time>2019-05-13T03:25:26Z</time>
      </trkpt>
      <trkpt lat="51.00984" lon="4.35377">
        <ele>32.400001525879</ele>
        <time>2019-05-13T03:25:47Z</time>
      </trkpt>
      <trkpt lat="51.01047" lon="4.35396">
        <ele>31.60000038147</ele>
        <time>2019-05-13T03:26:07Z</time>
      </trkpt>
      <trkpt lat="51.01113" lon="4.35437">
        <ele>31.60000038147</ele>
        <time>2019-05-13T03:26:30Z</time>
      </trkpt>
      <trkpt lat="51.01173" lon="4.35458">
        <ele>31.39999961853</ele>
        <time>2019-05-13T03:26:56Z</time>
      </trkpt>
      <trkpt lat="51.01272" lon="4.35518">
        <ele>31.799999237061</ele>
        <time>2019-05-13T03:27:17Z</time>
      </trkpt>
      <trkpt lat="51.01289" lon="4.35553">
        <ele>31.799999237061</ele>
        <time>2019-05-13T03:27:36Z</time>
      </trkpt>
      <trkpt lat="51.01304" lon="4.35574">
        <ele>31.39999961853</ele>
        <time>2019-05-13T03:27:56Z</time>
      </trkpt>
      <trkpt lat="51.01378" lon="4.35615">
        <ele>31.39999961853</ele>
        <time>2019-05-13T03:28:03Z</time>
      </trkpt>
      <trkpt lat="51.01457" lon="4.35666">
        <ele>31</ele>
        <time>2019-05-13T03:28:22Z</time>
      </trkpt>
      <trkpt lat="51.01574" lon="4.35734">
        <ele>31</ele>
        <time>2019-05-13T03:28:58Z</time>
      </trkpt>
      <trkpt lat="51.01609" lon="4.35727">
        <ele>30.200000762939</ele>
        <time>2019-05-13T03:29:06Z</time>
      </trkpt>
      <trkpt lat="51.017" lon="4.35702">
        <ele>31.200000762939</ele>
        <time>2019-05-13T03:29:20Z</time>
      </trkpt>
      <trkpt lat="51.01711" lon="4.35724">
        <ele>31.60000038147</ele>
        <time>2019-05-13T03:29:29Z</time>
      </trkpt>
      <trkpt lat="51.01789" lon="4.3587">
        <ele>32.599998474121</ele>
        <time>2019-05-13T03:29:55Z</time>
      </trkpt>
      <trkpt lat="51.01874" lon="4.35984">
        <ele>32.400001525879</ele>
        <time>2019-05-13T03:30:12Z</time>
      </trkpt>
      <trkpt lat="51.01931" lon="4.36063">
        <ele>32.599998474121</ele>
        <time>2019-05-13T03:30:32Z</time>
      </trkpt>
      <trkpt lat="51.01984" lon="4.36049">
        <ele>32.799999237061</ele>
        <time>2019-05-13T03:30:49Z</time>
      </trkpt>
      <trkpt lat="51.02013" lon="4.36075">
        <ele>32.400001525879</ele>
        <time>2019-05-13T03:31:03Z</time>
      </trkpt>
      <trkpt lat="51.02096" lon="4.36069">
        <ele>32.400001525879</ele>
        <time>2019-05-13T03:31:28Z</time>
      </trkpt>
      <trkpt lat="51.02188" lon="4.35977">
        <ele>32.799999237061</ele>
        <time>2019-05-13T03:31:45Z</time>
      </trkpt>
      <trkpt lat="51.02261" lon="4.35923">
        <ele>32.400001525879</ele>
        <time>2019-05-13T03:32:04Z</time>
      </trkpt>
      <trkpt lat="51.0235" lon="4.35884">
        <ele>32.599998474121</ele>
        <time>2019-05-13T03:32:23Z</time>
      </trkpt>
      <trkpt lat="51.0253" lon="4.35819">
        <ele>32.599998474121</ele>
        <time>2019-05-13T03:32:43Z</time>
      </trkpt>
      <trkpt lat="51.02612" lon="4.35791">
        <ele>31.799999237061</ele>
        <time>2019-05-13T03:33:00Z</time>
      </trkpt>
      <trkpt lat="51.02675" lon="4.35769">
        <ele>31.60000038147</ele>
        <time>2019-05-13T03:33:25Z</time>
      </trkpt>
      <trkpt lat="51.02794" lon="4.35719">
        <ele>32.599998474121</ele>
        <time>2019-05-13T03:33:45Z</time>
      </trkpt>
      <trkpt lat="51.02909" lon="4.35675">
        <ele>32.400001525879</ele>
        <time>2019-05-13T03:34:08Z</time>
      </trkpt>
      <trkpt lat="51.02969" lon="4.35644">
        <ele>32.599998474121</ele>
        <time>2019-05-13T03:34:28Z</time>
      </trkpt>
      <trkpt lat="51.03075" lon="4.35644">
        <ele>32.400001525879</ele>
        <time>2019-05-13T03:34:50Z</time>
      </trkpt>
      <trkpt lat="51.0314" lon="4.35645">
        <ele>32</ele>
        <time>2019-05-13T03:35:01Z</time>
      </trkpt>
      <trkpt lat="51.03216" lon="4.35649">
        <ele>31</ele>
        <time>2019-05-13T03:35:09Z</time>
      </trkpt>
      <trkpt lat="51.03286" lon="4.35666">
        <ele>30.799999237061</ele>
        <time>2019-05-13T03:35:21Z</time>
      </trkpt>
      <trkpt lat="51.03409" lon="4.35698">
        <ele>31.799999237061</ele>
        <time>2019-05-13T03:35:36Z</time>
      </trkpt>
      <trkpt lat="51.03443" lon="4.357">
        <ele>31.60000038147</ele>
        <time>2019-05-13T03:35:56Z</time>
      </trkpt>
      <trkpt lat="51.03459" lon="4.35709">
        <ele>30.799999237061</ele>
        <time>2019-05-13T03:36:07Z</time>
      </trkpt>
      <trkpt lat="51.03541" lon="4.35751">
        <ele>31.799999237061</ele>
        <time>2019-05-13T03:36:24Z</time>
      </trkpt>
      <trkpt lat="51.03615" lon="4.35785">
        <ele>31.39999961853</ele>
        <time>2019-05-13T03:36:39Z</time>
      </trkpt>
      <trkpt lat="51.03685" lon="4.35815">
        <ele>30.39999961853</ele>
        <time>2019-05-13T03:36:56Z</time>
      </trkpt>
      <trkpt lat="51.03761" lon="4.35842">
        <ele>30.39999961853</ele>
        <time>2019-05-13T03:37:12Z</time>
      </trkpt>
      <trkpt lat="51.03844" lon="4.35878">
        <ele>30.200000762939</ele>
        <time>2019-05-13T03:37:21Z</time>
      </trkpt>
      <trkpt lat="51.03938" lon="4.35911">
        <ele>29.799999237061</ele>
        <time>2019-05-13T03:37:29Z</time>
      </trkpt>
      <trkpt lat="51.04024" lon="4.35944">
        <ele>29</ele>
        <time>2019-05-13T03:37:37Z</time>
      </trkpt>
      <trkpt lat="51.04064" lon="4.35962">
        <ele>29.200000762939</ele>
        <time>2019-05-13T03:37:46Z</time>
      </trkpt>
      <trkpt lat="51.04134" lon="4.3598">
        <ele>29.39999961853</ele>
        <time>2019-05-13T03:38:04Z</time>
      </trkpt>
      <trkpt lat="51.04183" lon="4.35999">
        <ele>28.799999237061</ele>
        <time>2019-05-13T03:38:28Z</time>
      </trkpt>
      <trkpt lat="51.04328" lon="4.36018">
        <ele>29.39999961853</ele>
        <time>2019-05-13T03:38:49Z</time>
      </trkpt>
      <trkpt lat="51.04378" lon="4.36033">
        <ele>29.799999237061</ele>
        <time>2019-05-13T03:39:07Z</time>
      </trkpt>
      <trkpt lat="51.04565" lon="4.36071">
        <ele>29.799999237061</ele>
        <time>2019-05-13T03:39:22Z</time>
      </trkpt>
      <trkpt lat="51.0464" lon="4.36084">
        <ele>30</ele>
        <time>2019-05-13T03:39:46Z</time>
      </trkpt>
      <trkpt lat="51.047" lon="4.36093">
        <ele>29.799999237061</ele>
        <time>2019-05-13T03:40:01Z</time>
      </trkpt>
      <trkpt lat="51.04814" lon="4.36109">
        <ele>30.200000762939</ele>
        <time>2019-05-13T03:40:21Z</time>
      </trkpt>
      <trkpt lat="51.04898" lon="4.36113">
        <ele>30.200000762939</ele>
        <time>2019-05-13T03:40:40Z</time>
      </trkpt>
      <trkpt lat="51.04992" lon="4.36091">
        <ele>30.799999237061</ele>
        <time>2019-05-13T03:57:05Z</time>
      </trkpt>
      <trkpt lat="51.05083" lon="4.36064">
        <ele>31</ele>
        <time>2019-05-13T03:57:20Z</time>
      </trkpt>
      <trkpt lat="51.05187" lon="4.36056">
        <ele>31</ele>
        <time>2019-05-13T03:57:33Z</time>
      </trkpt>
      <trkpt lat="51.05257" lon="4.36072">
        <ele>30.799999237061</ele>
        <time>2019-05-13T03:58:02Z</time>
      </trkpt>
      <trkpt lat="51.05328" lon="4.361">
        <ele>30</ele>
        <time>2019-05-13T03:58:25Z</time>
      </trkpt>
      <trkpt lat="51.05391" lon="4.36134">
        <ele>29.799999237061</ele>
        <time>2019-05-13T03:58:43Z</time>
      </trkpt>
      <trkpt lat="51.05438" lon="4.3617">
        <ele>29.799999237061</ele>
        <time>2019-05-13T03:59:04Z</time>
      </trkpt>
      <trkpt lat="51.05524" lon="4.36221">
        <ele>30.39999961853</ele>
        <time>2019-05-13T03:59:25Z</time>
      </trkpt>
      <trkpt lat="51.05576" lon="4.3623">
        <ele>30.200000762939</ele>
        <time>2019-05-13T03:59:44Z</time>
      </trkpt>
      <trkpt lat="51.0571" lon="4.36259">
        <ele>30.200000762939</ele>
        <time>2019-05-13T03:59:57Z</time>
      </trkpt>
      <trkpt lat="51.05809" lon="4.36278">
        <ele>29.39999961853</ele>
        <time>2019-05-13T04:00:05Z</time>
      </trkpt>
      <trkpt lat="51.05874" lon="4.36291">
        <ele>30</ele>
        <time>2019-05-13T04:00:17Z</time>
      </trkpt>
      <trkpt lat="51.0596" lon="4.3631">
        <ele>29.799999237061</ele>
        <time>2019-05-13T04:00:32Z</time>
      </trkpt>
      <trkpt lat="51.05965" lon="4.36327">
        <ele>29.799999237061</ele>
        <time>2019-05-13T04:00:42Z</time>
      </trkpt>
      <trkpt lat="51.06025" lon="4.36345">
        <ele>29</ele>
        <time>2019-05-13T04:00:54Z</time>
      </trkpt>
      <trkpt lat="51.06103" lon="4.36345">
        <ele>28.799999237061</ele>
        <time>2019-05-13T04:01:05Z</time>
      </trkpt>
      <trkpt lat="51.06278" lon="4.36366">
        <ele>28.200000762939</ele>
        <time>2019-05-13T04:01:15Z</time>
      </trkpt>
      <trkpt lat="51.06365" lon="4.36381">
        <ele>28.39999961853</ele>
        <time>2019-05-13T04:01:37Z</time>
      </trkpt>
      <trkpt lat="51.06514" lon="4.36403">
        <ele>28</ele>
        <time>2019-05-13T04:01:47Z</time>
      </trkpt>
      <trkpt lat="51.06536" lon="4.36408">
        <ele>27.799999237061</ele>
        <time>2019-05-13T04:02:07Z</time>
      </trkpt>
      <trkpt lat="51.06588" lon="4.36419">
        <ele>28</ele>
        <time>2019-05-13T04:02:21Z</time>
      </trkpt>
      <trkpt lat="51.06656" lon="4.36426">
        <ele>28</ele>
        <time>2019-05-13T04:02:39Z</time>
      </trkpt>
      <trkpt lat="51.06757" lon="4.36445">
        <ele>27.60000038147</ele>
        <time>2019-05-13T04:02:50Z</time>
      </trkpt>
      <trkpt lat="51.06861" lon="4.36457">
        <ele>28</ele>
        <time>2019-05-13T04:03:03Z</time>
      </trkpt>
      <trkpt lat="51.06888" lon="4.3639">
        <ele>27.799999237061</ele>
        <time>2019-05-13T04:03:17Z</time>
      </trkpt>
      <trkpt lat="51.06922" lon="4.36298">
        <ele>26.60000038147</ele>
        <time>2019-05-13T04:03:30Z</time>
      </trkpt>
      <trkpt lat="51.06967" lon="4.36175">
        <ele>26.799999237061</ele>
        <time>2019-05-13T04:03:38Z</time>
      </trkpt>
      <trkpt lat="51.06997" lon="4.36085">
        <ele>26.60000038147</ele>
        <time>2019-05-13T04:04:17Z</time>
      </trkpt>
      <trkpt lat="51.07028" lon="4.36077">
        <ele>26.200000762939</ele>
        <time>2019-05-13T04:04:22Z</time>
      </trkpt>
      <trkpt lat="51.0711" lon="4.36071">
        <ele>26</ele>
        <time>2019-05-13T04:04:33Z</time>
      </trkpt>
      <trkpt lat="51.07201" lon="4.3608">
        <ele>25.60000038147</ele>
        <time>2019-05-13T04:04:48Z</time>
      </trkpt>
      <trkpt lat="51.07541" lon="4.36122">
        <ele>26.200000762939</ele>
        <time>2019-05-13T04:05:03Z</time>
      </trkpt>
      <trkpt lat="51.07633" lon="4.3613">
        <ele>26.799999237061</ele>
        <time>2019-05-13T04:05:27Z</time>
      </trkpt>
      <trkpt lat="51.07706" lon="4.36072">
        <ele>28.39999961853</ele>
        <time>2019-05-13T04:05:46Z</time>
      </trkpt>
      <trkpt lat="51.07874" lon="4.35868">
        <ele>30.39999961853</ele>
        <time>2019-05-13T04:06:06Z</time>
      </trkpt>
      <trkpt lat="51.0793" lon="4.3579">
        <ele>31.799999237061</ele>
        <time>2019-05-13T04:06:23Z</time>
      </trkpt>
      <trkpt lat="51.07983" lon="4.35721">
        <ele>33.599998474121</ele>
        <time>2019-05-13T04:06:45Z</time>
      </trkpt>
      <trkpt lat="51.07991" lon="4.35676">
        <ele>34.200000762939</ele>
        <time>2019-05-13T04:07:10Z</time>
      </trkpt>
      <trkpt lat="51.08036" lon="4.35593">
        <ele>37.400001525879</ele>
        <time>2019-05-13T04:07:21Z</time>
      </trkpt>
      <trkpt lat="51.08067" lon="4.35645">
        <ele>39.599998474121</ele>
        <time>2019-05-13T04:07:31Z</time>
      </trkpt>
      <trkpt lat="51.08107" lon="4.35716">
        <ele>40</ele>
        <time>2019-05-13T04:07:38Z</time>
      </trkpt>
      <trkpt lat="51.08118" lon="4.35737">
        <ele>39.200000762939</ele>
        <time>2019-05-13T04:07:51Z</time>
      </trkpt>
      <trkpt lat="51.08135" lon="4.35765">
        <ele>39.200000762939</ele>
        <time>2019-05-13T04:08:06Z</time>
      </trkpt>
      <trkpt lat="51.08185" lon="4.35849">
        <ele>38.400001525879</ele>
        <time>2019-05-13T04:08:10Z</time>
      </trkpt>
      <trkpt lat="51.08206" lon="4.35905">
        <ele>37</ele>
        <time>2019-05-13T04:08:19Z</time>
      </trkpt>
      <trkpt lat="51.08241" lon="4.3595">
        <ele>37.200000762939</ele>
        <time>2019-05-13T04:08:31Z</time>
      </trkpt>
      <trkpt lat="51.08287" lon="4.36001">
        <ele>38</ele>
        <time>2019-05-13T04:08:45Z</time>
      </trkpt>
      <trkpt lat="51.0836" lon="4.3597">
        <ele>38.200000762939</ele>
        <time>2019-05-13T04:09:00Z</time>
      </trkpt>
      <trkpt lat="51.08451" lon="4.36049">
        <ele>38.799999237061</ele>
        <time>2019-05-13T04:09:19Z</time>
      </trkpt>
      <trkpt lat="51.08578" lon="4.36166">
        <ele>38.799999237061</ele>
        <time>2019-05-13T04:09:35Z</time>
      </trkpt>
      <trkpt lat="51.0865" lon="4.36229">
        <ele>38.400001525879</ele>
        <time>2019-05-13T04:09:46Z</time>
      </trkpt>
      <trkpt lat="51.08706" lon="4.36278">
        <ele>37.799999237061</ele>
        <time>2019-05-13T04:09:57Z</time>
      </trkpt>
      <trkpt lat="51.08765" lon="4.36329">
        <ele>36.599998474121</ele>
        <time>2019-05-13T04:10:09Z</time>
      </trkpt>
      <trkpt lat="51.0882" lon="4.36375">
        <ele>36</ele>
        <time>2019-05-13T04:10:21Z</time>
      </trkpt>
      <trkpt lat="51.08964" lon="4.36488">
        <ele>37</ele>
        <time>2019-05-13T04:10:41Z</time>
      </trkpt>
      <trkpt lat="51.09103" lon="4.36533">
        <ele>37</ele>
        <time>2019-05-13T04:10:53Z</time>
      </trkpt>
      <trkpt lat="51.09212" lon="4.36577">
        <ele>37.200000762939</ele>
        <time>2019-05-13T04:11:08Z</time>
      </trkpt>
      <trkpt lat="51.09422" lon="4.36634">
        <ele>36.200000762939</ele>
        <time>2019-05-13T04:11:26Z</time>
      </trkpt>
      <trkpt lat="51.09476" lon="4.36646">
        <ele>36.200000762939</ele>
        <time>2019-05-13T04:12:42Z</time>
      </trkpt>
      <trkpt lat="51.0956" lon="4.36669">
        <ele>36</ele>
        <time>2019-05-13T04:12:53Z</time>
      </trkpt>
      <trkpt lat="51.09746" lon="4.3674">
        <ele>37.799999237061</ele>
        <time>2019-05-13T04:14:26Z</time>
      </trkpt>
      <trkpt lat="51.09886" lon="4.36793">
        <ele>38.599998474121</ele>
        <time>2019-05-13T04:14:40Z</time>
      </trkpt>
      <trkpt lat="51.09972" lon="4.36811">
        <ele>39.599998474121</ele>
        <time>2019-05-13T04:14:51Z</time>
      </trkpt>
      <trkpt lat="51.10023" lon="4.36827">
        <ele>39.599998474121</ele>
        <time>2019-05-13T04:15:09Z</time>
      </trkpt>
      <trkpt lat="51.10093" lon="4.36853">
        <ele>40.200000762939</ele>
        <time>2019-05-13T04:15:19Z</time>
      </trkpt>
      <trkpt lat="51.10137" lon="4.36861">
        <ele>41</ele>
        <time>2019-05-13T04:15:33Z</time>
      </trkpt>
      <trkpt lat="51.10216" lon="4.36881">
        <ele>41.599998474121</ele>
        <time>2019-05-13T04:15:43Z</time>
      </trkpt>
      <trkpt lat="51.10294" lon="4.36908">
        <ele>42</ele>
        <time>2019-05-13T04:15:54Z</time>
      </trkpt>
      <trkpt lat="51.10375" lon="4.36923">
        <ele>42.200000762939</ele>
        <time>2019-05-13T04:16:06Z</time>
      </trkpt>
      <trkpt lat="51.10474" lon="4.36952">
        <ele>42.400001525879</ele>
        <time>2019-05-13T04:16:18Z</time>
      </trkpt>
      <trkpt lat="51.10561" lon="4.36976">
        <ele>42.400001525879</ele>
        <time>2019-05-13T04:16:25Z</time>
      </trkpt>
      <trkpt lat="51.10569" lon="4.36975">
        <ele>42.799999237061</ele>
        <time>2019-05-13T04:16:44Z</time>
      </trkpt>
      <trkpt lat="51.10589" lon="4.36913">
        <ele>42</ele>
        <time>2019-05-13T04:17:08Z</time>
      </trkpt>
      <trkpt lat="51.10655" lon="4.36873">
        <ele>42</ele>
        <time>2019-05-13T04:17:22Z</time>
      </trkpt>
      <trkpt lat="51.10648" lon="4.36894">
        <ele>43.200000762939</ele>
        <time>2019-05-13T04:17:36Z</time>
      </trkpt>
      <trkpt lat="51.10612" lon="4.36894">
        <ele>43.200000762939</ele>
        <time>2019-05-13T04:17:43Z</time>
      </trkpt>
      <trkpt lat="51.10583" lon="4.36898">
        <ele>43.799999237061</ele>
        <time>2019-05-13T04:17:52Z</time>
      </trkpt>
      <trkpt lat="51.10575" lon="4.36957">
        <ele>43.799999237061</ele>
        <time>2019-05-13T04:18:15Z</time>
      </trkpt>
      <trkpt lat="51.10573" lon="4.36965">
        <ele>43.400001525879</ele>
        <time>2019-05-13T04:18:23Z</time>
      </trkpt>
      <trkpt lat="51.10596" lon="4.36971">
        <ele>43.599998474121</ele>
        <time>2019-05-13T04:18:48Z</time>
      </trkpt>
      <trkpt lat="51.10706" lon="4.37001">
        <ele>43.799999237061</ele>
        <time>2019-05-13T04:18:53Z</time>
      </trkpt>
      <trkpt lat="51.10749" lon="4.37036">
        <ele>43.799999237061</ele>
        <time>2019-05-13T04:19:11Z</time>
      </trkpt>
      <trkpt lat="51.10796" lon="4.37031">
        <ele>41.200000762939</ele>
        <time>2019-05-13T04:19:22Z</time>
      </trkpt>
      <trkpt lat="51.10823" lon="4.37039">
        <ele>41</ele>
        <time>2019-05-13T04:19:42Z</time>
      </trkpt>
      <trkpt lat="51.10885" lon="4.37054">
        <ele>43</ele>
        <time>2019-05-13T04:19:56Z</time>
      </trkpt>
      <trkpt lat="51.10976" lon="4.37081">
        <ele>44</ele>
        <time>2019-05-13T04:20:13Z</time>
      </trkpt>
      <trkpt lat="51.11017" lon="4.37093">
        <ele>43.799999237061</ele>
        <time>2019-05-13T04:20:28Z</time>
      </trkpt>
      <trkpt lat="51.11145" lon="4.37124">
        <ele>44.599998474121</ele>
        <time>2019-05-13T04:20:49Z</time>
      </trkpt>
      <trkpt lat="51.11039" lon="4.37094">
        <ele>44.599998474121</ele>
        <time>2019-05-13T04:21:00Z</time>
      </trkpt>
      <trkpt lat="51.11032" lon="4.37072">
        <ele>43.799999237061</ele>
        <time>2019-05-13T04:21:13Z</time>
      </trkpt>
      <trkpt lat="51.11028" lon="4.37003">
        <ele>44.200000762939</ele>
        <time>2019-05-13T04:21:28Z</time>
      </trkpt>
      <trkpt lat="51.1104" lon="4.37009">
        <ele>44.400001525879</ele>
        <time>2019-05-13T04:21:40Z</time>
      </trkpt>
      <trkpt lat="51.11153" lon="4.37043">
        <ele>44.400001525879</ele>
        <time>2019-05-13T04:21:56Z</time>
      </trkpt>
      <trkpt lat="51.11254" lon="4.37073">
        <ele>44.200000762939</ele>
        <time>2019-05-13T04:22:07Z</time>
      </trkpt>
      <trkpt lat="51.11381" lon="4.37106">
        <ele>45</ele>
        <time>2019-05-13T04:22:21Z</time>
      </trkpt>
      <trkpt lat="51.1147" lon="4.37128">
        <ele>44.799999237061</ele>
        <time>2019-05-13T04:22:52Z</time>
      </trkpt>
      <trkpt lat="51.11573" lon="4.37155">
        <ele>45.799999237061</ele>
        <time>2019-05-13T04:23:07Z</time>
      </trkpt>
      <trkpt lat="51.11708" lon="4.37194">
        <ele>46.799999237061</ele>
        <time>2019-05-13T04:23:25Z</time>
      </trkpt>
      <trkpt lat="51.11781" lon="4.37212">
        <ele>48.400001525879</ele>
        <time>2019-05-13T04:23:34Z</time>
      </trkpt>
      <trkpt lat="51.11903" lon="4.37246">
        <ele>49.799999237061</ele>
        <time>2019-05-13T04:23:42Z</time>
      </trkpt>
      <trkpt lat="51.12007" lon="4.37274">
        <ele>50</ele>
        <time>2019-05-13T04:23:46Z</time>
      </trkpt>
      <trkpt lat="51.12087" lon="4.37295">
        <ele>50.599998474121</ele>
        <time>2019-05-13T04:23:55Z</time>
      </trkpt>
      <trkpt lat="51.12152" lon="4.37315">
        <ele>51.599998474121</ele>
        <time>2019-05-13T04:24:04Z</time>
      </trkpt>
      <trkpt lat="51.12271" lon="4.37348">
        <ele>51.400001525879</ele>
        <time>2019-05-13T04:24:16Z</time>
      </trkpt>
      <trkpt lat="51.12365" lon="4.37371">
        <ele>50.799999237061</ele>
        <time>2019-05-13T04:24:36Z</time>
      </trkpt>
      <trkpt lat="51.12425" lon="4.37388">
        <ele>49.599998474121</ele>
        <time>2019-05-13T04:24:54Z</time>
      </trkpt>
      <trkpt lat="51.12643" lon="4.37447">
        <ele>46.799999237061</ele>
        <time>2019-05-13T04:25:17Z</time>
      </trkpt>
      <trkpt lat="51.12723" lon="4.37468">
        <ele>46.599998474121</ele>
        <time>2019-05-13T04:25:37Z</time>
      </trkpt>
      <trkpt lat="51.12831" lon="4.37497">
        <ele>46.599998474121</ele>
        <time>2019-05-13T04:25:57Z</time>
      </trkpt>
      <trkpt lat="51.12943" lon="4.37527">
        <ele>46.200000762939</ele>
        <time>2019-05-13T04:26:08Z</time>
      </trkpt>
      <trkpt lat="51.13177" lon="4.37592">
        <ele>44</ele>
        <time>2019-05-13T04:26:19Z</time>
      </trkpt>
      <trkpt lat="51.13263" lon="4.37617">
        <ele>42.799999237061</ele>
        <time>2019-05-13T04:26:34Z</time>
      </trkpt>
      <trkpt lat="51.13355" lon="4.37638">
        <ele>42.200000762939</ele>
        <time>2019-05-13T04:26:48Z</time>
      </trkpt>
      <trkpt lat="51.13443" lon="4.37665">
        <ele>40.799999237061</ele>
        <time>2019-05-13T04:27:07Z</time>
      </trkpt>
      <trkpt lat="51.13633" lon="4.37717">
        <ele>40.200000762939</ele>
        <time>2019-05-13T04:27:18Z</time>
      </trkpt>
      <trkpt lat="51.13728" lon="4.37742">
        <ele>40</ele>
        <time>2019-05-13T04:27:30Z</time>
      </trkpt>
      <trkpt lat="51.13791" lon="4.37757">
        <ele>39.599998474121</ele>
        <time>2019-05-13T04:27:37Z</time>
      </trkpt>
      <trkpt lat="51.13868" lon="4.37779">
        <ele>39.599998474121</ele>
        <time>2019-05-13T04:27:48Z</time>
      </trkpt>
      <trkpt lat="51.13886" lon="4.37783">
        <ele>39.400001525879</ele>
        <time>2019-05-13T04:28:05Z</time>
      </trkpt>
      <trkpt lat="51.1394" lon="4.37801">
        <ele>39.799999237061</ele>
        <time>2019-05-13T04:28:11Z</time>
      </trkpt>
      <trkpt lat="51.14044" lon="4.3783">
        <ele>39.599998474121</ele>
        <time>2019-05-13T04:28:22Z</time>
      </trkpt>
      <trkpt lat="51.14134" lon="4.37854">
        <ele>38.799999237061</ele>
        <time>2019-05-13T04:28:43Z</time>
      </trkpt>
      <trkpt lat="51.14229" lon="4.37878">
        <ele>38.400001525879</ele>
        <time>2019-05-13T04:28:58Z</time>
      </trkpt>
      <trkpt lat="51.14325" lon="4.37907">
        <ele>38.400001525879</ele>
        <time>2019-05-13T04:29:24Z</time>
      </trkpt>
      <trkpt lat="51.14438" lon="4.37938">
        <ele>38.599998474121</ele>
        <time>2019-05-13T04:29:41Z</time>
      </trkpt>
      <trkpt lat="51.14543" lon="4.37965">
        <ele>38.400001525879</ele>
        <time>2019-05-13T04:30:03Z</time>
      </trkpt>
      <trkpt lat="51.14664" lon="4.37998">
        <ele>38</ele>
        <time>2019-05-13T04:30:17Z</time>
      </trkpt>
      <trkpt lat="51.14753" lon="4.38026">
        <ele>37.400001525879</ele>
        <time>2019-05-13T04:30:27Z</time>
      </trkpt>
      <trkpt lat="51.1485" lon="4.38049">
        <ele>37.599998474121</ele>
        <time>2019-05-13T04:30:42Z</time>
      </trkpt>
      <trkpt lat="51.14936" lon="4.38075">
        <ele>38.599998474121</ele>
        <time>2019-05-13T04:31:03Z</time>
      </trkpt>
      <trkpt lat="51.15032" lon="4.38104">
        <ele>39.200000762939</ele>
        <time>2019-05-13T04:31:16Z</time>
      </trkpt>
      <trkpt lat="51.15111" lon="4.38124">
        <ele>40</ele>
        <time>2019-05-13T04:31:29Z</time>
      </trkpt>
      <trkpt lat="51.15201" lon="4.38152">
        <ele>39.599998474121</ele>
        <time>2019-05-13T04:31:43Z</time>
      </trkpt>
      <trkpt lat="51.15297" lon="4.38176">
        <ele>40</ele>
        <time>2019-05-13T04:32:02Z</time>
      </trkpt>
      <trkpt lat="51.1537" lon="4.38193">
        <ele>40.799999237061</ele>
        <time>2019-05-13T04:32:17Z</time>
      </trkpt>
      <trkpt lat="51.15505" lon="4.3822">
        <ele>41.599998474121</ele>
        <time>2019-05-13T04:32:34Z</time>
      </trkpt>
      <trkpt lat="51.15513" lon="4.38208">
        <ele>42.599998474121</ele>
        <time>2019-05-13T04:32:49Z</time>
      </trkpt>
      <trkpt lat="51.15474" lon="4.38225">
        <ele>41.599998474121</ele>
        <time>2019-05-13T04:33:35Z</time>
      </trkpt>
      <trkpt lat="51.1556" lon="4.38245">
        <ele>42.400001525879</ele>
        <time>2019-05-13T04:33:45Z</time>
      </trkpt>
      <trkpt lat="51.15685" lon="4.3828">
        <ele>43.200000762939</ele>
        <time>2019-05-13T04:41:24Z</time>
      </trkpt>
      <trkpt lat="51.1571" lon="4.38279">
        <ele>44.400001525879</ele>
        <time>2019-05-13T04:41:32Z</time>
      </trkpt>
      <trkpt lat="51.15828" lon="4.38313">
        <ele>45.400001525879</ele>
        <time>2019-05-13T04:41:42Z</time>
      </trkpt>
      <trkpt lat="51.15912" lon="4.38334">
        <ele>45.400001525879</ele>
        <time>2019-05-13T04:41:56Z</time>
      </trkpt>
      <trkpt lat="51.16086" lon="4.38388">
        <ele>47.599998474121</ele>
        <time>2019-05-13T04:42:09Z</time>
      </trkpt>
      <trkpt lat="51.16184" lon="4.38412">
        <ele>48.400001525879</ele>
        <time>2019-05-13T04:42:22Z</time>
      </trkpt>
      <trkpt lat="51.16259" lon="4.38436">
        <ele>48.599998474121</ele>
        <time>2019-05-13T04:42:39Z</time>
      </trkpt>
      <trkpt lat="51.16306" lon="4.38436">
        <ele>49.200000762939</ele>
        <time>2019-05-13T04:42:53Z</time>
      </trkpt>
      <trkpt lat="51.16351" lon="4.38267">
        <ele>50.400001525879</ele>
        <time>2019-05-13T04:43:13Z</time>
      </trkpt>
      <trkpt lat="51.16395" lon="4.38265">
        <ele>50.400001525879</ele>
        <time>2019-05-13T04:43:23Z</time>
      </trkpt>
      <trkpt lat="51.164" lon="4.38265">
        <ele>50.200000762939</ele>
        <time>2019-05-13T04:43:37Z</time>
      </trkpt>
      <trkpt lat="51.16396" lon="4.38256">
        <ele>50.599998474121</ele>
        <time>2019-05-13T04:43:49Z</time>
      </trkpt>
      <trkpt lat="51.16386" lon="4.3828">
        <ele>50.599998474121</ele>
        <time>2019-05-13T04:44:01Z</time>
      </trkpt>
      <trkpt lat="51.16376" lon="4.38311">
        <ele>51</ele>
        <time>2019-05-13T04:44:14Z</time>
      </trkpt>
      <trkpt lat="51.16352" lon="4.384">
        <ele>50.799999237061</ele>
        <time>2019-05-13T04:44:24Z</time>
      </trkpt>
      <trkpt lat="51.16351" lon="4.38406">
        <ele>55.400001525879</ele>
        <time>2019-05-13T04:44:58Z</time>
      </trkpt>
      <trkpt lat="51.16344" lon="4.38445">
        <ele>55.200000762939</ele>
        <time>2019-05-13T04:45:11Z</time>
      </trkpt>
      <trkpt lat="51.16381" lon="4.38469">
        <ele>55</ele>
        <time>2019-05-13T04:45:49Z</time>
      </trkpt>
      <trkpt lat="51.16465" lon="4.38495">
        <ele>55</ele>
        <time>2019-05-13T04:46:48Z</time>
      </trkpt>
      <trkpt lat="51.16531" lon="4.38529">
        <ele>55.200000762939</ele>
        <time>2019-05-13T04:47:14Z</time>
      </trkpt>
      <trkpt lat="51.16636" lon="4.38558">
        <ele>55</ele>
        <time>2019-05-13T04:47:29Z</time>
      </trkpt>
      <trkpt lat="51.16718" lon="4.38576">
        <ele>54.599998474121</ele>
        <time>2019-05-13T04:47:44Z</time>
      </trkpt>
      <trkpt lat="51.16842" lon="4.38606">
        <ele>55</ele>
        <time>2019-05-13T04:47:54Z</time>
      </trkpt>
      <trkpt lat="51.17101" lon="4.38672">
        <ele>52.400001525879</ele>
        <time>2019-05-13T04:48:09Z</time>
      </trkpt>
      <trkpt lat="51.17176" lon="4.38686">
        <ele>51.799999237061</ele>
        <time>2019-05-13T04:48:20Z</time>
      </trkpt>
      <trkpt lat="51.1723" lon="4.38704">
        <ele>51.599998474121</ele>
        <time>2019-05-13T04:48:39Z</time>
      </trkpt>
      <trkpt lat="51.17287" lon="4.38718">
        <ele>50.799999237061</ele>
        <time>2019-05-13T04:48:55Z</time>
      </trkpt>
      <trkpt lat="51.17322" lon="4.38729">
        <ele>50.799999237061</ele>
        <time>2019-05-13T04:49:17Z</time>
      </trkpt>
      <trkpt lat="51.17334" lon="4.38736">
        <ele>51</ele>
        <time>2019-05-13T04:49:35Z</time>
      </trkpt>
      <trkpt lat="51.17409" lon="4.38757">
        <ele>51.200000762939</ele>
        <time>2019-05-13T04:49:56Z</time>
      </trkpt>
      <trkpt lat="51.17442" lon="4.38766">
        <ele>51</ele>
        <time>2019-05-13T04:50:04Z</time>
      </trkpt>
      <trkpt lat="51.1757" lon="4.38798">
        <ele>51</ele>
        <time>2019-05-13T04:50:28Z</time>
      </trkpt>
      <trkpt lat="51.17649" lon="4.38819">
        <ele>50.799999237061</ele>
        <time>2019-05-13T04:50:56Z</time>
      </trkpt>
      <trkpt lat="51.17718" lon="4.38844">
        <ele>50.799999237061</ele>
        <time>2019-05-13T04:51:15Z</time>
      </trkpt>
      <trkpt lat="51.1777" lon="4.38859">
        <ele>50.400001525879</ele>
        <time>2019-05-13T04:51:29Z</time>
      </trkpt>
      <trkpt lat="51.17858" lon="4.38885">
        <ele>50.799999237061</ele>
        <time>2019-05-13T04:51:36Z</time>
      </trkpt>
      <trkpt lat="51.17969" lon="4.38912">
        <ele>49.799999237061</ele>
        <time>2019-05-13T04:52:09Z</time>
      </trkpt>
      <trkpt lat="51.18035" lon="4.38927">
        <ele>48.799999237061</ele>
        <time>2019-05-13T04:52:17Z</time>
      </trkpt>
      <trkpt lat="51.18144" lon="4.38957">
        <ele>48.599998474121</ele>
        <time>2019-05-13T04:52:33Z</time>
      </trkpt>
      <trkpt lat="51.18202" lon="4.38975">
        <ele>48</ele>
        <time>2019-05-13T04:52:44Z</time>
      </trkpt>
      <trkpt lat="51.1828" lon="4.39009">
        <ele>47.799999237061</ele>
        <time>2019-05-13T04:52:49Z</time>
      </trkpt>
      <trkpt lat="51.18368" lon="4.39034">
        <ele>47.200000762939</ele>
        <time>2019-05-13T04:52:57Z</time>
      </trkpt>
      <trkpt lat="51.18385" lon="4.39035">
        <ele>47.400001525879</ele>
        <time>2019-05-13T04:53:07Z</time>
      </trkpt>
      <trkpt lat="51.18412" lon="4.39036">
        <ele>47.400001525879</ele>
        <time>2019-05-13T04:53:19Z</time>
      </trkpt>
      <trkpt lat="51.18438" lon="4.39026">
        <ele>47.799999237061</ele>
        <time>2019-05-13T04:53:35Z</time>
      </trkpt>
      <trkpt lat="51.18526" lon="4.39014">
        <ele>48.200000762939</ele>
        <time>2019-05-13T04:53:54Z</time>
      </trkpt>
      <trkpt lat="51.18599" lon="4.39005">
        <ele>47.599998474121</ele>
        <time>2019-05-13T04:54:14Z</time>
      </trkpt>
      <trkpt lat="51.1868" lon="4.38967">
        <ele>47.799999237061</ele>
        <time>2019-05-13T04:54:24Z</time>
      </trkpt>
      <trkpt lat="51.18749" lon="4.38934">
        <ele>47.599998474121</ele>
        <time>2019-05-13T04:54:40Z</time>
      </trkpt>
      <trkpt lat="51.18827" lon="4.38911">
        <ele>47.799999237061</ele>
        <time>2019-05-13T04:54:50Z</time>
      </trkpt>
      <trkpt lat="51.18924" lon="4.38873">
        <ele>47.599998474121</ele>
        <time>2019-05-13T04:55:02Z</time>
      </trkpt>
      <trkpt lat="51.18979" lon="4.38857">
        <ele>47.200000762939</ele>
        <time>2019-05-13T04:55:14Z</time>
      </trkpt>
      <trkpt lat="51.19026" lon="4.38836">
        <ele>47</ele>
        <time>2019-05-13T04:55:28Z</time>
      </trkpt>
      <trkpt lat="51.19035" lon="4.38855">
        <ele>47.200000762939</ele>
        <time>2019-05-13T04:55:38Z</time>
      </trkpt>
      <trkpt lat="51.19043" lon="4.38899">
        <ele>47.200000762939</ele>
        <time>2019-05-13T04:55:52Z</time>
      </trkpt>
      <trkpt lat="51.19079" lon="4.3888">
        <ele>47</ele>
        <time>2019-05-13T04:56:08Z</time>
      </trkpt>
      <trkpt lat="51.19197" lon="4.38835">
        <ele>45.799999237061</ele>
        <time>2019-05-13T04:56:27Z</time>
      </trkpt>
      <trkpt lat="51.19291" lon="4.38827">
        <ele>45.200000762939</ele>
        <time>2019-05-13T04:56:45Z</time>
      </trkpt>
      <trkpt lat="51.19344" lon="4.38881">
        <ele>45.200000762939</ele>
        <time>2019-05-13T04:57:06Z</time>
      </trkpt>
      <trkpt lat="51.19443" lon="4.389">
        <ele>45.599998474121</ele>
        <time>2019-05-13T04:57:27Z</time>
      </trkpt>
      <trkpt lat="51.19513" lon="4.3881">
        <ele>46</ele>
        <time>2019-05-13T04:57:44Z</time>
      </trkpt>
      <trkpt lat="51.19528" lon="4.38801">
        <ele>45</ele>
        <time>2019-05-13T04:57:57Z</time>
      </trkpt>
      <trkpt lat="51.19547" lon="4.38778">
        <ele>44.799999237061</ele>
        <time>2019-05-13T04:58:06Z</time>
      </trkpt>
      <trkpt lat="51.19569" lon="4.38787">
        <ele>44.599998474121</ele>
        <time>2019-05-13T04:58:14Z</time>
      </trkpt>
      <trkpt lat="51.1964" lon="4.38853">
        <ele>44.799999237061</ele>
        <time>2019-05-13T04:58:31Z</time>
      </trkpt>
      <trkpt lat="51.19762" lon="4.38934">
        <ele>45</ele>
        <time>2019-05-13T04:58:49Z</time>
      </trkpt>
      <trkpt lat="51.19847" lon="4.38974">
        <ele>44.400001525879</ele>
        <time>2019-05-13T04:59:08Z</time>
      </trkpt>
      <trkpt lat="51.19863" lon="4.38981">
        <ele>43.200000762939</ele>
        <time>2019-05-13T04:59:23Z</time>
      </trkpt>
      <trkpt lat="51.1988" lon="4.38992">
        <ele>43.200000762939</ele>
        <time>2019-05-13T04:59:41Z</time>
      </trkpt>
      <trkpt lat="51.1997" lon="4.39027">
        <ele>43.799999237061</ele>
        <time>2019-05-13T04:59:58Z</time>
      </trkpt>
      <trkpt lat="51.20022" lon="4.39059">
        <ele>43.799999237061</ele>
        <time>2019-05-13T05:00:21Z</time>
      </trkpt>
      <trkpt lat="51.20035" lon="4.3904">
        <ele>43.799999237061</ele>
        <time>2019-05-13T05:00:48Z</time>
      </trkpt>
      <trkpt lat="51.20152" lon="4.39039">
        <ele>44.799999237061</ele>
        <time>2019-05-13T05:01:12Z</time>
      </trkpt>
      <trkpt lat="51.20231" lon="4.39004">
        <ele>44</ele>
        <time>2019-05-13T05:01:33Z</time>
      </trkpt>
      <trkpt lat="51.20254" lon="4.38994">
        <ele>44</ele>
        <time>2019-05-13T05:01:50Z</time>
      </trkpt>
      <trkpt lat="51.20328" lon="4.3892">
        <ele>43.799999237061</ele>
        <time>2019-05-13T05:02:04Z</time>
      </trkpt>
      <trkpt lat="51.20376" lon="4.38914">
        <ele>44</ele>
        <time>2019-05-13T05:02:26Z</time>
      </trkpt>
      <trkpt lat="51.20409" lon="4.38918">
        <ele>44.400001525879</ele>
        <time>2019-05-13T05:02:44Z</time>
      </trkpt>
      <trkpt lat="51.20448" lon="4.38892">
        <ele>44.400001525879</ele>
        <time>2019-05-13T05:03:19Z</time>
      </trkpt>
      <trkpt lat="51.20491" lon="4.38854">
        <ele>44.200000762939</ele>
        <time>2019-05-13T05:03:35Z</time>
      </trkpt>
      <trkpt lat="51.20586" lon="4.38727">
        <ele>44.200000762939</ele>
        <time>2019-05-13T05:03:52Z</time>
      </trkpt>
      <trkpt lat="51.20622" lon="4.38693">
        <ele>44</ele>
        <time>2019-05-13T05:04:09Z</time>
      </trkpt>
      <trkpt lat="51.20662" lon="4.38671">
        <ele>44.400001525879</ele>
        <time>2019-05-13T05:04:24Z</time>
      </trkpt>
      <trkpt lat="51.20728" lon="4.38646">
        <ele>44.400001525879</ele>
        <time>2019-05-13T05:04:34Z</time>
      </trkpt>
      <trkpt lat="51.20752" lon="4.38628">
        <ele>44.599998474121</ele>
        <time>2019-05-13T05:04:46Z</time>
      </trkpt>
      <trkpt lat="51.2077" lon="4.3865">
        <ele>44.599998474121</ele>
        <time>2019-05-13T05:04:59Z</time>
      </trkpt>
      <trkpt lat="51.20826" lon="4.38717">
        <ele>45.200000762939</ele>
        <time>2019-05-13T05:07:02Z</time>
      </trkpt>
      <trkpt lat="51.20859" lon="4.38732">
        <ele>45.200000762939</ele>
        <time>2019-05-13T05:07:12Z</time>
      </trkpt>
      <trkpt lat="51.20908" lon="4.38801">
        <ele>44.599998474121</ele>
        <time>2019-05-13T05:07:59Z</time>
      </trkpt>
      <trkpt lat="51.20947" lon="4.38756">
        <ele>44.599998474121</ele>
        <time>2019-05-13T05:08:09Z</time>
      </trkpt>
      <trkpt lat="51.20966" lon="4.38717">
        <ele>44.400001525879</ele>
        <time>2019-05-13T05:08:16Z</time>
      </trkpt>
      <trkpt lat="51.20981" lon="4.38702">
        <ele>44.599998474121</ele>
        <time>2019-05-13T05:08:27Z</time>
      </trkpt>
      <trkpt lat="51.21034" lon="4.38764">
        <ele>44.599998474121</ele>
        <time>2019-05-13T05:08:36Z</time>
      </trkpt>
      <trkpt lat="51.21113" lon="4.38854">
        <ele>45</ele>
        <time>2019-05-13T05:09:52Z</time>
      </trkpt>
      <trkpt lat="51.21199" lon="4.38956">
        <ele>44.400001525879</ele>
        <time>2019-05-13T05:10:10Z</time>
      </trkpt>
      <trkpt lat="51.2126" lon="4.39029">
        <ele>44.599998474121</ele>
        <time>2019-05-13T05:10:32Z</time>
      </trkpt>
      <trkpt lat="51.21339" lon="4.39098">
        <ele>45</ele>
        <time>2019-05-13T05:10:45Z</time>
      </trkpt>
      <trkpt lat="51.21388" lon="4.39139">
        <ele>44.799999237061</ele>
        <time>2019-05-13T05:11:01Z</time>
      </trkpt>
      <trkpt lat="51.21419" lon="4.39168">
        <ele>45.799999237061</ele>
        <time>2019-05-13T05:11:22Z</time>
      </trkpt>
      <trkpt lat="51.21585" lon="4.39305">
        <ele>45.799999237061</ele>
        <time>2019-05-13T05:11:34Z</time>
      </trkpt>
      <trkpt lat="51.21628" lon="4.3934">
        <ele>46</ele>
        <time>2019-05-13T05:11:44Z</time>
      </trkpt>
      <trkpt lat="51.21738" lon="4.39413">
        <ele>46.200000762939</ele>
        <time>2019-05-13T05:11:50Z</time>
      </trkpt>
      <trkpt lat="51.21806" lon="4.39464">
        <ele>46.599998474121</ele>
        <time>2019-05-13T05:11:58Z</time>
      </trkpt>
      <trkpt lat="51.21891" lon="4.39528">
        <ele>46.200000762939</ele>
        <time>2019-05-13T05:12:09Z</time>
      </trkpt>
      <trkpt lat="51.21903" lon="4.39534">
        <ele>45.400001525879</ele>
        <time>2019-05-13T05:12:23Z</time>
      </trkpt>
      <trkpt lat="51.21962" lon="4.39569">
        <ele>46.200000762939</ele>
        <time>2019-05-13T05:12:35Z</time>
      </trkpt>
      <trkpt lat="51.22061" lon="4.3964">
        <ele>46.400001525879</ele>
        <time>2019-05-13T05:12:51Z</time>
      </trkpt>
      <trkpt lat="51.22114" lon="4.39677">
        <ele>46.599998474121</ele>
        <time>2019-05-13T05:13:14Z</time>
      </trkpt>
      <trkpt lat="51.22156" lon="4.39674">
        <ele>46.599998474121</ele>
        <time>2019-05-13T05:13:30Z</time>
      </trkpt>
      <trkpt lat="51.22156" lon="4.39635">
        <ele>46.599998474121</ele>
        <time>2019-05-13T05:15:11Z</time>
      </trkpt>
      <trkpt lat="51.22154" lon="4.3963">
        <ele>46</ele>
        <time>2019-05-13T05:15:23Z</time>
      </trkpt>
      <trkpt lat="51.22146" lon="4.39675">
        <ele>46.400001525879</ele>
        <time>2019-05-13T05:15:28Z</time>
      </trkpt>
      <trkpt lat="51.2216" lon="4.39685">
        <ele>46.599998474121</ele>
        <time>2019-05-13T05:15:42Z</time>
      </trkpt>
      <trkpt lat="51.22158" lon="4.3969">
        <ele>48</ele>
        <time>2019-05-13T05:15:55Z</time>
      </trkpt>
      <trkpt lat="51.22141" lon="4.39712">
        <ele>47.799999237061</ele>
        <time>2019-05-13T05:16:05Z</time>
      </trkpt>
      <trkpt lat="51.2211" lon="4.39776">
        <ele>48.400001525879</ele>
        <time>2019-05-13T05:16:20Z</time>
      </trkpt>
      <trkpt lat="51.22094" lon="4.39793">
        <ele>48.200000762939</ele>
        <time>2019-05-13T05:16:35Z</time>
      </trkpt>
      <trkpt lat="51.22092" lon="4.39833">
        <ele>48.200000762939</ele>
        <time>2019-05-13T05:16:52Z</time>
      </trkpt>
      <trkpt lat="51.22076" lon="4.39894">
        <ele>48.599998474121</ele>
        <time>2019-05-13T05:17:15Z</time>
      </trkpt>
      <trkpt lat="51.22093" lon="4.39907">
        <ele>48.200000762939</ele>
        <time>2019-05-13T05:17:38Z</time>
      </trkpt>
      <trkpt lat="51.22101" lon="4.39935">
        <ele>49.200000762939</ele>
        <time>2019-05-13T05:17:48Z</time>
      </trkpt>
      <trkpt lat="51.22105" lon="4.39952">
        <ele>48.400001525879</ele>
        <time>2019-05-13T05:18:06Z</time>
      </trkpt>
      <trkpt lat="51.22127" lon="4.40006">
        <ele>49</ele>
        <time>2019-05-13T05:18:13Z</time>
      </trkpt>
      <trkpt lat="51.22112" lon="4.4002">
        <ele>49</ele>
        <time>2019-05-13T05:18:20Z</time>
      </trkpt>
      <trkpt lat="51.22093" lon="4.4003">
        <ele>47.799999237061</ele>
        <time>2019-05-13T05:18:37Z</time>
      </trkpt>
      <trkpt lat="51.22082" lon="4.40012">
        <ele>47.599998474121</ele>
        <time>2019-05-13T05:18:47Z</time>
      </trkpt>
      <trkpt lat="51.22085" lon="4.40002">
        <ele>48.200000762939</ele>
        <time>2019-05-13T05:18:59Z</time>
      </trkpt>
      <trkpt lat="51.22062" lon="4.40004">
        <ele>48</ele>
        <time>2019-05-13T05:19:12Z</time>
      </trkpt>
      <trkpt lat="51.22051" lon="4.40039">
        <ele>48</ele>
        <time>2019-05-13T05:19:26Z</time>
      </trkpt>
      <trkpt lat="51.22045" lon="4.40056">
        <ele>47.799999237061</ele>
        <time>2019-05-13T05:19:40Z</time>
      </trkpt>
      <trkpt lat="51.22022" lon="4.40101">
        <ele>48.200000762939</ele>
        <time>2019-05-13T05:19:51Z</time>
      </trkpt>
      <trkpt lat="51.21997" lon="4.40125">
        <ele>48.200000762939</ele>
        <time>2019-05-13T05:20:02Z</time>
      </trkpt>
      <trkpt lat="51.22001" lon="4.40143">
        <ele>47.599998474121</ele>
        <time>2019-05-13T05:21:21Z</time>
      </trkpt>
      <trkpt lat="51.21976" lon="4.40153">
        <ele>47.799999237061</ele>
        <time>2019-05-13T05:21:42Z</time>
      </trkpt>
      <trkpt lat="51.21958" lon="4.40197">
        <ele>47.799999237061</ele>
        <time>2019-05-13T05:22:00Z</time>
      </trkpt>
      <trkpt lat="51.21961" lon="4.40237">
        <ele>48</ele>
        <time>2019-05-13T05:22:14Z</time>
      </trkpt>
      <trkpt lat="51.2195" lon="4.40261">
        <ele>47.400001525879</ele>
        <time>2019-05-13T05:22:24Z</time>
      </trkpt>
      <trkpt lat="51.21947" lon="4.40264">
        <ele>47.799999237061</ele>
        <time>2019-05-13T05:22:37Z</time>
      </trkpt>
      <trkpt lat="51.21967" lon="4.40261">
        <ele>47.599998474121</ele>
        <time>2019-05-13T05:22:43Z</time>
      </trkpt>
      <trkpt lat="51.22007" lon="4.40261">
        <ele>47.599998474121</ele>
        <time>2019-05-13T05:22:59Z</time>
      </trkpt>
      <trkpt lat="51.22053" lon="4.40269">
        <ele>47.799999237061</ele>
        <time>2019-05-13T05:23:06Z</time>
      </trkpt>
      <trkpt lat="51.22085" lon="4.40258">
        <ele>47.799999237061</ele>
        <time>2019-05-13T05:27:19Z</time>
      </trkpt>
      <trkpt lat="51.22089" lon="4.40266">
        <ele>48.400001525879</ele>
        <time>2019-05-13T05:27:32Z</time>
      </trkpt>
      <trkpt lat="51.2211" lon="4.40306">
        <ele>48.400001525879</ele>
        <time>2019-05-13T05:27:40Z</time>
      </trkpt>
      <trkpt lat="51.22094" lon="4.40361">
        <ele>48.799999237061</ele>
        <time>2019-05-13T05:27:57Z</time>
      </trkpt>
      <trkpt lat="51.22096" lon="4.40398">
        <ele>48.799999237061</ele>
        <time>2019-05-13T05:28:11Z</time>
      </trkpt>
      <trkpt lat="51.221" lon="4.40417">
        <ele>49.599998474121</ele>
        <time>2019-05-14T07:43:53Z</time>
      </trkpt>
      <trkpt lat="51.22112" lon="4.40439">
        <ele>49.599998474121</ele>
        <time>2019-05-14T07:44:09Z</time>
      </trkpt>
      <trkpt lat="51.22122" lon="4.40481">
        <ele>48.599998474121</ele>
        <time>2019-05-14T07:44:18Z</time>
      </trkpt>
      <trkpt lat="51.22166" lon="4.40475">
        <ele>49.200000762939</ele>
        <time>2019-05-14T07:44:29Z</time>
      </trkpt>
      <trkpt lat="51.2221" lon="4.4042">
        <ele>49.799999237061</ele>
        <time>2019-05-14T07:44:40Z</time>
      </trkpt>
      <trkpt lat="51.22225" lon="4.40381">
        <ele>49.799999237061</ele>
        <time>2019-05-14T07:44:45Z</time>
      </trkpt>
      <trkpt lat="51.22222" lon="4.40346">
        <ele>50</ele>
        <time>2019-05-14T07:45:04Z</time>
      </trkpt>
      <trkpt lat="51.22224" lon="4.40266">
        <ele>50.200000762939</ele>
        <time>2019-05-14T07:58:21Z</time>
      </trkpt>
      <trkpt lat="51.22213" lon="4.40241">
        <ele>50.400001525879</ele>
        <time>2019-05-14T07:58:32Z</time>
      </trkpt>
      <trkpt lat="51.22164" lon="4.40251">
        <ele>50.400001525879</ele>
        <time>2019-05-14T07:58:41Z</time>
      </trkpt>
      <trkpt lat="51.22154" lon="4.40239">
        <ele>50.799999237061</ele>
        <time>2019-05-14T07:58:55Z</time>
      </trkpt>
      <trkpt lat="51.22152" lon="4.40191">
        <ele>51</ele>
        <time>2019-05-14T07:59:15Z</time>
      </trkpt>
      <trkpt lat="51.22141" lon="4.40097">
        <ele>52.400001525879</ele>
        <time>2019-05-14T07:59:53Z</time>
      </trkpt>
      <trkpt lat="51.22176" lon="4.40073">
        <ele>52.799999237061</ele>
        <time>2019-05-14T08:00:05Z</time>
      </trkpt>
      <trkpt lat="51.222" lon="4.40023">
        <ele>53</ele>
        <time>2019-05-14T08:00:19Z</time>
      </trkpt>
      <trkpt lat="51.22211" lon="4.39988">
        <ele>53</ele>
        <time>2019-05-14T08:00:40Z</time>
      </trkpt>
      <trkpt lat="51.22212" lon="4.39984">
        <ele>53.200000762939</ele>
        <time>2019-05-14T08:00:47Z</time>
      </trkpt>
      <trkpt lat="51.22231" lon="4.39954">
        <ele>53</ele>
        <time>2019-05-14T08:01:01Z</time>
      </trkpt>
      <trkpt lat="51.22294" lon="4.39971">
        <ele>50.799999237061</ele>
        <time>2019-05-14T08:01:09Z</time>
      </trkpt>
      <trkpt lat="51.22299" lon="4.39937">
        <ele>50</ele>
        <time>2019-05-14T08:01:26Z</time>
      </trkpt>
      <trkpt lat="51.22316" lon="4.39916">
        <ele>50</ele>
        <time>2019-05-14T08:01:42Z</time>
      </trkpt>
      <trkpt lat="51.22294" lon="4.39887">
        <ele>50</ele>
        <time>2019-05-14T08:01:54Z</time>
      </trkpt>
      <trkpt lat="51.22285" lon="4.39875">
        <ele>49.799999237061</ele>
        <time>2019-05-14T08:02:06Z</time>
      </trkpt>
      <trkpt lat="51.22268" lon="4.39817">
        <ele>50.599998474121</ele>
        <time>2019-05-14T08:02:12Z</time>
      </trkpt>
      <trkpt lat="51.22237" lon="4.39799">
        <ele>50</ele>
        <time>2019-05-14T08:02:36Z</time>
      </trkpt>
      <trkpt lat="51.22179" lon="4.39757">
        <ele>50</ele>
        <time>2019-05-14T08:02:55Z</time>
      </trkpt>
      <trkpt lat="51.2213" lon="4.39746">
        <ele>49.799999237061</ele>
        <time>2019-05-14T08:03:10Z</time>
      </trkpt>
      <trkpt lat="51.22104" lon="4.39806">
        <ele>50.400001525879</ele>
        <time>2019-05-14T08:03:25Z</time>
      </trkpt>
      <trkpt lat="51.221" lon="4.39818">
        <ele>50.200000762939</ele>
        <time>2019-05-14T08:03:47Z</time>
      </trkpt>
      <trkpt lat="51.22095" lon="4.39815">
        <ele>52.200000762939</ele>
        <time>2019-05-14T08:04:00Z</time>
      </trkpt>
      <trkpt lat="51.22101" lon="4.39792">
        <ele>52.200000762939</ele>
        <time>2019-05-14T08:04:54Z</time>
      </trkpt>
      <trkpt lat="51.22119" lon="4.39726">
        <ele>52.799999237061</ele>
        <time>2019-05-14T08:05:07Z</time>
      </trkpt>
      <trkpt lat="51.22126" lon="4.39716">
        <ele>52.200000762939</ele>
        <time>2019-05-14T08:05:17Z</time>
      </trkpt>
      <trkpt lat="51.22158" lon="4.39726">
        <ele>52.400001525879</ele>
        <time>2019-05-14T08:05:29Z</time>
      </trkpt>
      <trkpt lat="51.22233" lon="4.39776">
        <ele>52.200000762939</ele>
        <time>2019-05-14T08:05:41Z</time>
      </trkpt>
      <trkpt lat="51.22272" lon="4.39808">
        <ele>52.400001525879</ele>
        <time>2019-05-14T08:05:54Z</time>
      </trkpt>
      <trkpt lat="51.22309" lon="4.39819">
        <ele>52.400001525879</ele>
        <time>2019-05-14T08:06:13Z</time>
      </trkpt>
      <trkpt lat="51.22367" lon="4.39855">
        <ele>52.599998474121</ele>
        <time>2019-05-14T08:06:49Z</time>
      </trkpt>
      <trkpt lat="51.22441" lon="4.39904">
        <ele>52.599998474121</ele>
        <time>2019-05-14T08:07:12Z</time>
      </trkpt>
      <trkpt lat="51.22543" lon="4.39967">
        <ele>52.400001525879</ele>
        <time>2019-05-14T08:07:36Z</time>
      </trkpt>
      <trkpt lat="51.22596" lon="4.40003">
        <ele>52.599998474121</ele>
        <time>2019-05-14T08:07:48Z</time>
      </trkpt>
      <trkpt lat="51.2267" lon="4.40063">
        <ele>52.599998474121</ele>
        <time>2019-05-14T08:07:57Z</time>
      </trkpt>
      <trkpt lat="51.2274" lon="4.40125">
        <ele>52</ele>
        <time>2019-05-14T08:08:13Z</time>
      </trkpt>
      <trkpt lat="51.22808" lon="4.40182">
        <ele>52</ele>
        <time>2019-05-14T08:08:38Z</time>
      </trkpt>
      <trkpt lat="51.22898" lon="4.4019">
        <ele>52.400001525879</ele>
        <time>2019-05-14T08:08:55Z</time>
      </trkpt>
      <trkpt lat="51.22968" lon="4.40187">
        <ele>52</ele>
        <time>2019-05-14T08:09:13Z</time>
      </trkpt>
      <trkpt lat="51.22988" lon="4.402">
        <ele>51.400001525879</ele>
        <time>2019-05-14T08:09:28Z</time>
      </trkpt>
      <trkpt lat="51.23053" lon="4.40235">
        <ele>52.200000762939</ele>
        <time>2019-05-14T08:09:40Z</time>
      </trkpt>
      <trkpt lat="51.23135" lon="4.40278">
        <ele>52.400001525879</ele>
        <time>2019-05-14T08:09:59Z</time>
      </trkpt>
      <trkpt lat="51.23202" lon="4.40288">
        <ele>52.200000762939</ele>
        <time>2019-05-14T08:10:18Z</time>
      </trkpt>
      <trkpt lat="51.2329" lon="4.40289">
        <ele>52.599998474121</ele>
        <time>2019-05-14T08:10:38Z</time>
      </trkpt>
      <trkpt lat="51.23361" lon="4.4029">
        <ele>52.400001525879</ele>
        <time>2019-05-14T08:11:00Z</time>
      </trkpt>
      <trkpt lat="51.23461" lon="4.40329">
        <ele>51.799999237061</ele>
        <time>2019-05-14T08:11:18Z</time>
      </trkpt>
      <trkpt lat="51.23532" lon="4.40328">
        <ele>51.599998474121</ele>
        <time>2019-05-14T08:11:35Z</time>
      </trkpt>
      <trkpt lat="51.23602" lon="4.40311">
        <ele>51.799999237061</ele>
        <time>2019-05-14T08:11:52Z</time>
      </trkpt>
      <trkpt lat="51.23673" lon="4.40336">
        <ele>51.400001525879</ele>
        <time>2019-05-14T08:12:03Z</time>
      </trkpt>
      <trkpt lat="51.2372" lon="4.40285">
        <ele>51.400001525879</ele>
        <time>2019-05-14T08:12:18Z</time>
      </trkpt>
      <trkpt lat="51.2375" lon="4.40208">
        <ele>52.200000762939</ele>
        <time>2019-05-14T08:12:32Z</time>
      </trkpt>
      <trkpt lat="51.23837" lon="4.40222">
        <ele>52</ele>
        <time>2019-05-14T08:12:50Z</time>
      </trkpt>
      <trkpt lat="51.23943" lon="4.40233">
        <ele>52.599998474121</ele>
        <time>2019-05-14T08:13:06Z</time>
      </trkpt>
      <trkpt lat="51.24014" lon="4.40224">
        <ele>53.200000762939</ele>
        <time>2019-05-14T08:13:23Z</time>
      </trkpt>
      <trkpt lat="51.24043" lon="4.4022">
        <ele>52.799999237061</ele>
        <time>2019-05-14T08:13:45Z</time>
      </trkpt>
      <trkpt lat="51.24063" lon="4.40261">
        <ele>52.799999237061</ele>
        <time>2019-05-14T08:14:03Z</time>
      </trkpt>
      <trkpt lat="51.24121" lon="4.40396">
        <ele>53.400001525879</ele>
        <time>2019-05-14T08:14:18Z</time>
      </trkpt>
      <trkpt lat="51.24166" lon="4.4039">
        <ele>53.799999237061</ele>
        <time>2019-05-14T08:14:26Z</time>
      </trkpt>
      <trkpt lat="51.24148" lon="4.40393">
        <ele>53.400001525879</ele>
        <time>2019-05-14T08:14:38Z</time>
      </trkpt>
      <trkpt lat="51.24109" lon="4.40458">
        <ele>53.200000762939</ele>
        <time>2019-05-14T08:15:02Z</time>
      </trkpt>
      <trkpt lat="51.24145" lon="4.40536">
        <ele>53.400001525879</ele>
        <time>2019-05-14T08:15:23Z</time>
      </trkpt>
      <trkpt lat="51.24149" lon="4.4066">
        <ele>54</ele>
        <time>2019-05-14T08:15:48Z</time>
      </trkpt>
      <trkpt lat="51.24148" lon="4.40777">
        <ele>54.200000762939</ele>
        <time>2019-05-14T08:16:13Z</time>
      </trkpt>
      <trkpt lat="51.24119" lon="4.40814">
        <ele>53.599998474121</ele>
        <time>2019-05-14T08:16:28Z</time>
      </trkpt>
      <trkpt lat="51.24095" lon="4.40815">
        <ele>53.799999237061</ele>
        <time>2019-05-14T08:16:48Z</time>
      </trkpt>
      <trkpt lat="51.2408" lon="4.4085">
        <ele>54</ele>
        <time>2019-05-14T08:17:02Z</time>
      </trkpt>
      <trkpt lat="51.24032" lon="4.40925">
        <ele>55.799999237061</ele>
        <time>2019-05-14T08:17:18Z</time>
      </trkpt>
      <trkpt lat="51.2401" lon="4.41005">
        <ele>58.799999237061</ele>
        <time>2019-05-14T08:17:42Z</time>
      </trkpt>
      <trkpt lat="51.24011" lon="4.41068">
        <ele>59.799999237061</ele>
        <time>2019-05-14T08:17:53Z</time>
      </trkpt>
      <trkpt lat="51.24062" lon="4.41178">
        <ele>63.400001525879</ele>
        <time>2019-05-14T08:18:16Z</time>
      </trkpt>
      <trkpt lat="51.2412" lon="4.41214">
        <ele>63.799999237061</ele>
        <time>2019-05-14T08:18:35Z</time>
      </trkpt>
      <trkpt lat="51.24142" lon="4.4122">
        <ele>64.199996948242</ele>
        <time>2019-05-14T08:18:55Z</time>
      </trkpt>
      <trkpt lat="51.24272" lon="4.41287">
        <ele>63.599998474121</ele>
        <time>2019-05-14T08:19:07Z</time>
      </trkpt>
      <trkpt lat="51.24329" lon="4.413">
        <ele>62.599998474121</ele>
        <time>2019-05-14T08:19:12Z</time>
      </trkpt>
      <trkpt lat="51.24448" lon="4.41329">
        <ele>58.400001525879</ele>
        <time>2019-05-14T08:19:30Z</time>
      </trkpt>
      <trkpt lat="51.24478" lon="4.4138">
        <ele>55.799999237061</ele>
        <time>2019-05-14T08:19:43Z</time>
      </trkpt>
      <trkpt lat="51.24478" lon="4.41386">
        <ele>54.400001525879</ele>
        <time>2019-05-14T08:19:50Z</time>
      </trkpt>
      <trkpt lat="51.24478" lon="4.41422">
        <ele>54</ele>
        <time>2019-05-14T08:20:11Z</time>
      </trkpt>
      <trkpt lat="51.24383" lon="4.41495">
        <ele>54</ele>
        <time>2019-05-14T08:20:46Z</time>
      </trkpt>
      <trkpt lat="51.24369" lon="4.41527">
        <ele>53.400001525879</ele>
        <time>2019-05-14T08:21:19Z</time>
      </trkpt>
      <trkpt lat="51.24392" lon="4.41495">
        <ele>53.200000762939</ele>
        <time>2019-05-14T08:21:39Z</time>
      </trkpt>
      <trkpt lat="51.24459" lon="4.41433">
        <ele>53.200000762939</ele>
        <time>2019-05-14T08:21:53Z</time>
      </trkpt>
      <trkpt lat="51.24484" lon="4.41446">
        <ele>53.200000762939</ele>
        <time>2019-05-14T08:22:06Z</time>
      </trkpt>
      <trkpt lat="51.24472" lon="4.4153">
        <ele>53</ele>
        <time>2019-05-14T08:22:29Z</time>
      </trkpt>
      <trkpt lat="51.24464" lon="4.41686">
        <ele>53.200000762939</ele>
        <time>2019-05-14T08:22:50Z</time>
      </trkpt>
      <trkpt lat="51.24456" lon="4.41796">
        <ele>53.599998474121</ele>
        <time>2019-05-14T08:23:11Z</time>
      </trkpt>
      <trkpt lat="51.2446" lon="4.41823">
        <ele>53.200000762939</ele>
        <time>2019-05-14T08:23:27Z</time>
      </trkpt>
      <trkpt lat="51.24461" lon="4.41948">
        <ele>53.599998474121</ele>
        <time>2019-05-14T08:23:43Z</time>
      </trkpt>
      <trkpt lat="51.24452" lon="4.41964">
        <ele>53.400001525879</ele>
        <time>2019-05-14T08:24:05Z</time>
      </trkpt>
      <trkpt lat="51.24451" lon="4.42012">
        <ele>53.599998474121</ele>
        <time>2019-05-14T08:24:24Z</time>
      </trkpt>
      <trkpt lat="51.24464" lon="4.42148">
        <ele>53.799999237061</ele>
        <time>2019-05-14T08:25:30Z</time>
      </trkpt>
      <trkpt lat="51.2446" lon="4.42378">
        <ele>52</ele>
        <time>2019-05-14T08:25:53Z</time>
      </trkpt>
      <trkpt lat="51.24467" lon="4.42377">
        <ele>51.799999237061</ele>
        <time>2019-05-14T08:26:20Z</time>
      </trkpt>
      <trkpt lat="51.24622" lon="4.42368">
        <ele>52.799999237061</ele>
        <time>2019-05-14T08:26:44Z</time>
      </trkpt>
      <trkpt lat="51.24697" lon="4.42376">
        <ele>54</ele>
        <time>2019-05-14T08:27:03Z</time>
      </trkpt>
      <trkpt lat="51.24741" lon="4.42338">
        <ele>54.200000762939</ele>
        <time>2019-05-14T08:27:30Z</time>
      </trkpt>
      <trkpt lat="51.24815" lon="4.42304">
        <ele>54</ele>
        <time>2019-05-14T08:27:52Z</time>
      </trkpt>
      <trkpt lat="51.24871" lon="4.42307">
        <ele>53.599998474121</ele>
        <time>2019-05-14T08:28:20Z</time>
      </trkpt>
      <trkpt lat="51.24935" lon="4.4231">
        <ele>53.400001525879</ele>
        <time>2019-05-14T08:28:38Z</time>
      </trkpt>
      <trkpt lat="51.25059" lon="4.42308">
        <ele>53.400001525879</ele>
        <time>2019-05-14T08:29:19Z</time>
      </trkpt>
      <trkpt lat="51.25145" lon="4.42297">
        <ele>52.799999237061</ele>
        <time>2019-05-14T08:29:42Z</time>
      </trkpt>
      <trkpt lat="51.25257" lon="4.423">
        <ele>53.400001525879</ele>
        <time>2019-05-14T08:29:59Z</time>
      </trkpt>
      <trkpt lat="51.25342" lon="4.42301">
        <ele>53.599998474121</ele>
        <time>2019-05-14T08:30:20Z</time>
      </trkpt>
      <trkpt lat="51.25436" lon="4.42304">
        <ele>53</ele>
        <time>2019-05-14T08:30:43Z</time>
      </trkpt>
      <trkpt lat="51.25465" lon="4.42318">
        <ele>52.400001525879</ele>
        <time>2019-05-14T08:31:11Z</time>
      </trkpt>
      <trkpt lat="51.25465" lon="4.42475">
        <ele>51.799999237061</ele>
        <time>2019-05-14T08:31:43Z</time>
      </trkpt>
      <trkpt lat="51.25508" lon="4.42521">
        <ele>52</ele>
        <time>2019-05-14T08:32:04Z</time>
      </trkpt>
      <trkpt lat="51.25564" lon="4.42529">
        <ele>52.400001525879</ele>
        <time>2019-05-14T08:32:31Z</time>
      </trkpt>
      <trkpt lat="51.25631" lon="4.42549">
        <ele>52.599998474121</ele>
        <time>2019-05-14T08:33:04Z</time>
      </trkpt>
      <trkpt lat="51.25709" lon="4.42581">
        <ele>53</ele>
        <time>2019-05-14T08:33:23Z</time>
      </trkpt>
      <trkpt lat="51.258" lon="4.4261">
        <ele>53.599998474121</ele>
        <time>2019-05-14T08:33:54Z</time>
      </trkpt>
      <trkpt lat="51.25905" lon="4.42652">
        <ele>53</ele>
        <time>2019-05-14T08:34:21Z</time>
      </trkpt>
      <trkpt lat="51.25965" lon="4.4269">
        <ele>52.799999237061</ele>
        <time>2019-05-14T08:34:45Z</time>
      </trkpt>
      <trkpt lat="51.26052" lon="4.42718">
        <ele>53</ele>
        <time>2019-05-14T08:35:21Z</time>
      </trkpt>
      <trkpt lat="51.26136" lon="4.42691">
        <ele>52.799999237061</ele>
        <time>2019-05-14T08:35:45Z</time>
      </trkpt>
      <trkpt lat="51.26229" lon="4.42737">
        <ele>52.799999237061</ele>
        <time>2019-05-14T08:36:09Z</time>
      </trkpt>
      <trkpt lat="51.26321" lon="4.42808">
        <ele>53.200000762939</ele>
        <time>2019-05-14T08:36:36Z</time>
      </trkpt>
      <trkpt lat="51.26381" lon="4.42826">
        <ele>53.200000762939</ele>
        <time>2019-05-14T08:36:51Z</time>
      </trkpt>
      <trkpt lat="51.26434" lon="4.42842">
        <ele>53</ele>
        <time>2019-05-14T08:37:13Z</time>
      </trkpt>
      <trkpt lat="51.26567" lon="4.42886">
        <ele>53.200000762939</ele>
        <time>2019-05-14T08:38:01Z</time>
      </trkpt>
      <trkpt lat="51.26685" lon="4.42923">
        <ele>53</ele>
        <time>2019-05-14T08:38:06Z</time>
      </trkpt>
      <trkpt lat="51.26767" lon="4.42952">
        <ele>52.799999237061</ele>
        <time>2019-05-14T08:38:35Z</time>
      </trkpt>
      <trkpt lat="51.26885" lon="4.42987">
        <ele>53.400001525879</ele>
        <time>2019-05-14T08:39:08Z</time>
      </trkpt>
      <trkpt lat="51.27023" lon="4.43033">
        <ele>53.400001525879</ele>
        <time>2019-05-14T08:39:38Z</time>
      </trkpt>
      <trkpt lat="51.27096" lon="4.43058">
        <ele>53.799999237061</ele>
        <time>2019-05-14T08:40:07Z</time>
      </trkpt>
      <trkpt lat="51.27171" lon="4.43085">
        <ele>53.400001525879</ele>
        <time>2019-05-14T08:40:34Z</time>
      </trkpt>
      <trkpt lat="51.27281" lon="4.43121">
        <ele>53.400001525879</ele>
        <time>2019-05-14T08:41:13Z</time>
      </trkpt>
      <trkpt lat="51.27362" lon="4.43144">
        <ele>53.599998474121</ele>
        <time>2019-05-14T08:41:38Z</time>
      </trkpt>
      <trkpt lat="51.2747" lon="4.43182">
        <ele>54</ele>
        <time>2019-05-14T08:42:11Z</time>
      </trkpt>
      <trkpt lat="51.27582" lon="4.43219">
        <ele>53.400001525879</ele>
        <time>2019-05-14T08:42:34Z</time>
      </trkpt>
      <trkpt lat="51.27695" lon="4.43259">
        <ele>54</ele>
        <time>2019-05-14T08:43:02Z</time>
      </trkpt>
      <trkpt lat="51.27872" lon="4.43319">
        <ele>54</ele>
        <time>2019-05-14T08:43:32Z</time>
      </trkpt>
      <trkpt lat="51.27971" lon="4.43353">
        <ele>54.400001525879</ele>
        <time>2019-05-14T08:44:00Z</time>
      </trkpt>
      <trkpt lat="51.28106" lon="4.4339">
        <ele>54.400001525879</ele>
        <time>2019-05-14T08:44:27Z</time>
      </trkpt>
      <trkpt lat="51.28171" lon="4.43065">
        <ele>54.400001525879</ele>
        <time>2019-05-14T08:44:45Z</time>
      </trkpt>
      <trkpt lat="51.28213" lon="4.42914">
        <ele>55</ele>
        <time>2019-05-14T08:45:04Z</time>
      </trkpt>
      <trkpt lat="51.28246" lon="4.42805">
        <ele>55.200000762939</ele>
        <time>2019-05-14T08:45:26Z</time>
      </trkpt>
      <trkpt lat="51.28301" lon="4.42769">
        <ele>55.599998474121</ele>
        <time>2019-05-14T08:45:48Z</time>
      </trkpt>
      <trkpt lat="51.28381" lon="4.42726">
        <ele>55.799999237061</ele>
        <time>2019-05-14T08:46:11Z</time>
      </trkpt>
      <trkpt lat="51.28464" lon="4.42677">
        <ele>56.200000762939</ele>
        <time>2019-05-14T08:46:21Z</time>
      </trkpt>
      <trkpt lat="51.28517" lon="4.42691">
        <ele>56.200000762939</ele>
        <time>2019-05-14T08:46:34Z</time>
      </trkpt>
      <trkpt lat="51.28591" lon="4.42654">
        <ele>55.599998474121</ele>
        <time>2019-05-14T08:46:54Z</time>
      </trkpt>
      <trkpt lat="51.28617" lon="4.4256">
        <ele>55.599998474121</ele>
        <time>2019-05-14T08:47:11Z</time>
      </trkpt>
      <trkpt lat="51.28628" lon="4.42492">
        <ele>55.200000762939</ele>
        <time>2019-05-14T08:47:27Z</time>
      </trkpt>
      <trkpt lat="51.28643" lon="4.42504">
        <ele>54.799999237061</ele>
        <time>2019-05-14T08:49:42Z</time>
      </trkpt>
      <trkpt lat="51.28713" lon="4.42622">
        <ele>55.599998474121</ele>
        <time>2019-05-14T08:49:55Z</time>
      </trkpt>
      <trkpt lat="51.28731" lon="4.42745">
        <ele>56</ele>
        <time>2019-05-14T08:50:18Z</time>
      </trkpt>
      <trkpt lat="51.28744" lon="4.42779">
        <ele>55.799999237061</ele>
        <time>2019-05-14T08:50:26Z</time>
      </trkpt>
      <trkpt lat="51.28766" lon="4.42774">
        <ele>55.599998474121</ele>
        <time>2019-05-14T08:50:40Z</time>
      </trkpt>
      <trkpt lat="51.28843" lon="4.42714">
        <ele>55</ele>
        <time>2019-05-14T08:51:01Z</time>
      </trkpt>
      <trkpt lat="51.28878" lon="4.4257">
        <ele>54.599998474121</ele>
        <time>2019-05-14T08:51:23Z</time>
      </trkpt>
      <trkpt lat="51.289" lon="4.42492">
        <ele>54.599998474121</ele>
        <time>2019-05-14T08:51:39Z</time>
      </trkpt>
      <trkpt lat="51.2893" lon="4.42484">
        <ele>54.400001525879</ele>
        <time>2019-05-14T08:52:22Z</time>
      </trkpt>
      <trkpt lat="51.29023" lon="4.42473">
        <ele>54.400001525879</ele>
        <time>2019-05-14T08:52:47Z</time>
      </trkpt>
      <trkpt lat="51.29123" lon="4.4246">
        <ele>54.200000762939</ele>
        <time>2019-05-14T08:52:52Z</time>
      </trkpt>
      <trkpt lat="51.29232" lon="4.42457">
        <ele>54.799999237061</ele>
        <time>2019-05-14T08:53:22Z</time>
      </trkpt>
      <trkpt lat="51.29273" lon="4.42456">
        <ele>54.799999237061</ele>
        <time>2019-05-14T08:53:48Z</time>
      </trkpt>
      <trkpt lat="51.29325" lon="4.42601">
        <ele>55</ele>
        <time>2019-05-14T08:54:09Z</time>
      </trkpt>
      <trkpt lat="51.29407" lon="4.42751">
        <ele>55.200000762939</ele>
        <time>2019-05-14T08:54:31Z</time>
      </trkpt>
      <trkpt lat="51.29483" lon="4.42839">
        <ele>55.400001525879</ele>
        <time>2019-05-14T08:54:49Z</time>
      </trkpt>
      <trkpt lat="51.29655" lon="4.42983">
        <ele>55.799999237061</ele>
        <time>2019-05-14T08:55:13Z</time>
      </trkpt>
      <trkpt lat="51.29748" lon="4.43075">
        <ele>56.200000762939</ele>
        <time>2019-05-14T08:55:34Z</time>
      </trkpt>
      <trkpt lat="51.29838" lon="4.43139">
        <ele>56.400001525879</ele>
        <time>2019-05-14T08:55:52Z</time>
      </trkpt>
      <trkpt lat="51.29915" lon="4.43212">
        <ele>56.200000762939</ele>
        <time>2019-05-14T08:56:15Z</time>
      </trkpt>
      <trkpt lat="51.29966" lon="4.43243">
        <ele>56.200000762939</ele>
        <time>2019-05-14T08:56:42Z</time>
      </trkpt>
      <trkpt lat="51.30014" lon="4.43233">
        <ele>56.799999237061</ele>
        <time>2019-05-14T08:57:03Z</time>
      </trkpt>
      <trkpt lat="51.30102" lon="4.43208">
        <ele>57.400001525879</ele>
        <time>2019-05-14T08:57:26Z</time>
      </trkpt>
      <trkpt lat="51.30183" lon="4.43137">
        <ele>58</ele>
        <time>2019-05-14T08:57:43Z</time>
      </trkpt>
      <trkpt lat="51.3026" lon="4.43025">
        <ele>58.200000762939</ele>
        <time>2019-05-14T08:58:14Z</time>
      </trkpt>
      <trkpt lat="51.30281" lon="4.42998">
        <ele>58.400001525879</ele>
        <time>2019-05-14T08:58:45Z</time>
      </trkpt>
      <trkpt lat="51.30322" lon="4.43056">
        <ele>58.400001525879</ele>
        <time>2019-05-14T08:59:03Z</time>
      </trkpt>
      <trkpt lat="51.30421" lon="4.4321">
        <ele>59.200000762939</ele>
        <time>2019-05-14T08:59:33Z</time>
      </trkpt>
      <trkpt lat="51.30494" lon="4.43295">
        <ele>59.200000762939</ele>
        <time>2019-05-14T08:59:51Z</time>
      </trkpt>
      <trkpt lat="51.30582" lon="4.43352">
        <ele>59.400001525879</ele>
        <time>2019-05-14T09:00:16Z</time>
      </trkpt>
      <trkpt lat="51.30625" lon="4.43387">
        <ele>59.799999237061</ele>
        <time>2019-05-14T09:00:36Z</time>
      </trkpt>
      <trkpt lat="51.30671" lon="4.43357">
        <ele>60.599998474121</ele>
        <time>2019-05-14T09:00:53Z</time>
      </trkpt>
      <trkpt lat="51.3072" lon="4.43322">
        <ele>60.400001525879</ele>
        <time>2019-05-14T09:04:35Z</time>
      </trkpt>
      <trkpt lat="51.30731" lon="4.43317">
        <ele>60.799999237061</ele>
        <time>2019-05-14T09:04:50Z</time>
      </trkpt>
      <trkpt lat="51.30872" lon="4.43206">
        <ele>61.200000762939</ele>
        <time>2019-05-14T09:05:44Z</time>
      </trkpt>
      <trkpt lat="51.30934" lon="4.43159">
        <ele>60.799999237061</ele>
        <time>2019-05-14T09:05:51Z</time>
      </trkpt>
      <trkpt lat="51.31008" lon="4.43118">
        <ele>60.799999237061</ele>
        <time>2019-05-14T09:06:12Z</time>
      </trkpt>
      <trkpt lat="51.31075" lon="4.43138">
        <ele>60.200000762939</ele>
        <time>2019-05-14T09:06:35Z</time>
      </trkpt>
      <trkpt lat="51.31131" lon="4.43142">
        <ele>60.799999237061</ele>
        <time>2019-05-14T09:06:53Z</time>
      </trkpt>
      <trkpt lat="51.31178" lon="4.43168">
        <ele>61</ele>
        <time>2019-05-14T09:07:11Z</time>
      </trkpt>
      <trkpt lat="51.31257" lon="4.43218">
        <ele>61.200000762939</ele>
        <time>2019-05-14T09:07:33Z</time>
      </trkpt>
      <trkpt lat="51.31332" lon="4.43265">
        <ele>61.200000762939</ele>
        <time>2019-05-14T09:07:57Z</time>
      </trkpt>
      <trkpt lat="51.31367" lon="4.4334">
        <ele>61.200000762939</ele>
        <time>2019-05-14T09:08:21Z</time>
      </trkpt>
      <trkpt lat="51.31403" lon="4.43366">
        <ele>61.400001525879</ele>
        <time>2019-05-14T09:08:37Z</time>
      </trkpt>
      <trkpt lat="51.31528" lon="4.43464">
        <ele>61.799999237061</ele>
        <time>2019-05-14T09:09:00Z</time>
      </trkpt>
      <trkpt lat="51.31596" lon="4.43504">
        <ele>61.599998474121</ele>
        <time>2019-05-14T09:09:20Z</time>
      </trkpt>
      <trkpt lat="51.31728" lon="4.43575">
        <ele>62.200000762939</ele>
        <time>2019-05-14T09:09:51Z</time>
      </trkpt>
      <trkpt lat="51.3182" lon="4.43619">
        <ele>63</ele>
        <time>2019-05-14T09:10:11Z</time>
      </trkpt>
      <trkpt lat="51.319" lon="4.43624">
        <ele>63.400001525879</ele>
        <time>2019-05-14T09:10:38Z</time>
      </trkpt>
      <trkpt lat="51.32024" lon="4.43649">
        <ele>63.400001525879</ele>
        <time>2019-05-14T09:11:06Z</time>
      </trkpt>
      <trkpt lat="51.32084" lon="4.43685">
        <ele>63.799999237061</ele>
        <time>2019-05-14T09:11:26Z</time>
      </trkpt>
      <trkpt lat="51.32143" lon="4.43714">
        <ele>64</ele>
        <time>2019-05-14T09:11:45Z</time>
      </trkpt>
      <trkpt lat="51.32212" lon="4.43753">
        <ele>63.799999237061</ele>
        <time>2019-05-14T09:12:15Z</time>
      </trkpt>
      <trkpt lat="51.32283" lon="4.43784">
        <ele>63.799999237061</ele>
        <time>2019-05-14T09:12:35Z</time>
      </trkpt>
      <trkpt lat="51.3239" lon="4.43848">
        <ele>64.199996948242</ele>
        <time>2019-05-14T09:13:02Z</time>
      </trkpt>
      <trkpt lat="51.32468" lon="4.43887">
        <ele>64.800003051758</ele>
        <time>2019-05-14T09:13:27Z</time>
      </trkpt>
      <trkpt lat="51.32547" lon="4.43921">
        <ele>64.800003051758</ele>
        <time>2019-05-14T09:13:52Z</time>
      </trkpt>
      <trkpt lat="51.32646" lon="4.4399">
        <ele>65.199996948242</ele>
        <time>2019-05-14T09:14:12Z</time>
      </trkpt>
      <trkpt lat="51.3273" lon="4.44037">
        <ele>65.800003051758</ele>
        <time>2019-05-14T09:14:31Z</time>
      </trkpt>
      <trkpt lat="51.32802" lon="4.44077">
        <ele>66</ele>
        <time>2019-05-14T09:14:49Z</time>
      </trkpt>
      <trkpt lat="51.32873" lon="4.441">
        <ele>66.400001525879</ele>
        <time>2019-05-14T09:15:05Z</time>
      </trkpt>
      <trkpt lat="51.3297" lon="4.44166">
        <ele>66.199996948242</ele>
        <time>2019-05-14T09:15:30Z</time>
      </trkpt>
      <trkpt lat="51.33078" lon="4.44217">
        <ele>67.199996948242</ele>
        <time>2019-05-14T09:15:51Z</time>
      </trkpt>
      <trkpt lat="51.33137" lon="4.44256">
        <ele>67.400001525879</ele>
        <time>2019-05-14T09:16:12Z</time>
      </trkpt>
      <trkpt lat="51.33269" lon="4.44292">
        <ele>68.199996948242</ele>
        <time>2019-05-14T09:16:34Z</time>
      </trkpt>
      <trkpt lat="51.33348" lon="4.44347">
        <ele>68.400001525879</ele>
        <time>2019-05-14T09:16:58Z</time>
      </trkpt>
      <trkpt lat="51.33394" lon="4.44386">
        <ele>69</ele>
        <time>2019-05-14T09:17:06Z</time>
      </trkpt>
      <trkpt lat="51.3345" lon="4.44426">
        <ele>69</ele>
        <time>2019-05-14T09:17:26Z</time>
      </trkpt>
      <trkpt lat="51.33644" lon="4.44519">
        <ele>69.400001525879</ele>
        <time>2019-05-14T09:17:53Z</time>
      </trkpt>
      <trkpt lat="51.33715" lon="4.44554">
        <ele>69.599998474121</ele>
        <time>2019-05-14T09:18:03Z</time>
      </trkpt>
      <trkpt lat="51.33761" lon="4.4458">
        <ele>70</ele>
        <time>2019-05-14T09:20:10Z</time>
      </trkpt>
      <trkpt lat="51.33891" lon="4.44651">
        <ele>70.599998474121</ele>
        <time>2019-05-14T09:20:31Z</time>
      </trkpt>
      <trkpt lat="51.33975" lon="4.4469">
        <ele>70.599998474121</ele>
        <time>2019-05-14T09:20:50Z</time>
      </trkpt>
      <trkpt lat="51.34046" lon="4.44727">
        <ele>71.400001525879</ele>
        <time>2019-05-14T09:21:10Z</time>
      </trkpt>
      <trkpt lat="51.34134" lon="4.44788">
        <ele>71.599998474121</ele>
        <time>2019-05-14T09:21:38Z</time>
      </trkpt>
      <trkpt lat="51.34228" lon="4.44841">
        <ele>71.599998474121</ele>
        <time>2019-05-14T09:21:56Z</time>
      </trkpt>
      <trkpt lat="51.34285" lon="4.44861">
        <ele>72.199996948242</ele>
        <time>2019-05-14T09:22:22Z</time>
      </trkpt>
      <trkpt lat="51.34387" lon="4.44917">
        <ele>72.599998474121</ele>
        <time>2019-05-14T09:22:41Z</time>
      </trkpt>
      <trkpt lat="51.34459" lon="4.44966">
        <ele>72.800003051758</ele>
        <time>2019-05-14T09:23:06Z</time>
      </trkpt>
      <trkpt lat="51.34589" lon="4.45035">
        <ele>74.599998474121</ele>
        <time>2019-05-14T09:23:41Z</time>
      </trkpt>
      <trkpt lat="51.34658" lon="4.45082">
        <ele>75</ele>
        <time>2019-05-14T09:23:57Z</time>
      </trkpt>
      <trkpt lat="51.34742" lon="4.45119">
        <ele>75.599998474121</ele>
        <time>2019-05-14T09:24:17Z</time>
      </trkpt>
      <trkpt lat="51.348" lon="4.45169">
        <ele>75.199996948242</ele>
        <time>2019-05-14T09:24:44Z</time>
      </trkpt>
      <trkpt lat="51.34822" lon="4.45184">
        <ele>75.599998474121</ele>
        <time>2019-05-14T09:25:12Z</time>
      </trkpt>
      <trkpt lat="51.34903" lon="4.45262">
        <ele>76.400001525879</ele>
        <time>2019-05-14T09:25:23Z</time>
      </trkpt>
      <trkpt lat="51.35016" lon="4.45395">
        <ele>77.199996948242</ele>
        <time>2019-05-14T09:25:38Z</time>
      </trkpt>
      <trkpt lat="51.35052" lon="4.45434">
        <ele>77.199996948242</ele>
        <time>2019-05-14T09:25:59Z</time>
      </trkpt>
      <trkpt lat="51.35064" lon="4.45416">
        <ele>77.599998474121</ele>
        <time>2019-05-14T09:26:19Z</time>
      </trkpt>
      <trkpt lat="51.35117" lon="4.4534">
        <ele>77.199996948242</ele>
        <time>2019-05-14T09:26:32Z</time>
      </trkpt>
      <trkpt lat="51.35235" lon="4.45397">
        <ele>77.599998474121</ele>
        <time>2019-05-14T09:26:56Z</time>
      </trkpt>
      <trkpt lat="51.35419" lon="4.45495">
        <ele>77.599998474121</ele>
        <time>2019-05-14T09:27:18Z</time>
      </trkpt>
      <trkpt lat="51.35475" lon="4.45527">
        <ele>78.199996948242</ele>
        <time>2019-05-14T09:27:49Z</time>
      </trkpt>
      <trkpt lat="51.35564" lon="4.45569">
        <ele>78.599998474121</ele>
        <time>2019-05-14T09:28:23Z</time>
      </trkpt>
      <trkpt lat="51.35642" lon="4.45615">
        <ele>79.199996948242</ele>
        <time>2019-05-14T09:28:53Z</time>
      </trkpt>
      <trkpt lat="51.35703" lon="4.45649">
        <ele>79.199996948242</ele>
        <time>2019-05-14T09:29:19Z</time>
      </trkpt>
      <trkpt lat="51.3581" lon="4.45703">
        <ele>79.599998474121</ele>
        <time>2019-05-14T09:29:44Z</time>
      </trkpt>
      <trkpt lat="51.35919" lon="4.45773">
        <ele>79.800003051758</ele>
        <time>2019-05-14T09:30:10Z</time>
      </trkpt>
      <trkpt lat="51.36036" lon="4.4584">
        <ele>80.199996948242</ele>
        <time>2019-05-14T09:30:42Z</time>
      </trkpt>
      <trkpt lat="51.36307" lon="4.45988">
        <ele>80.800003051758</ele>
        <time>2019-05-14T09:31:04Z</time>
      </trkpt>
      <trkpt lat="51.36393" lon="4.46044">
        <ele>81.199996948242</ele>
        <time>2019-05-14T09:31:20Z</time>
      </trkpt>
      <trkpt lat="51.36431" lon="4.46078">
        <ele>81.599998474121</ele>
        <time>2019-05-14T09:31:36Z</time>
      </trkpt>
      <trkpt lat="51.36445" lon="4.46078">
        <ele>81.400001525879</ele>
        <time>2019-05-14T09:31:45Z</time>
      </trkpt>
      <trkpt lat="51.36461" lon="4.46067">
        <ele>81.599998474121</ele>
        <time>2019-05-14T09:31:58Z</time>
      </trkpt>
      <trkpt lat="51.36483" lon="4.46011">
        <ele>81.800003051758</ele>
        <time>2019-05-14T09:32:10Z</time>
      </trkpt>
      <trkpt lat="51.36526" lon="4.46032">
        <ele>82</ele>
        <time>2019-05-14T09:32:23Z</time>
      </trkpt>
      <trkpt lat="51.36615" lon="4.4609">
        <ele>82</ele>
        <time>2019-05-14T09:32:46Z</time>
      </trkpt>
      <trkpt lat="51.36791" lon="4.46187">
        <ele>81.400001525879</ele>
        <time>2019-05-14T09:32:59Z</time>
      </trkpt>
      <trkpt lat="51.36861" lon="4.46252">
        <ele>81</ele>
        <time>2019-05-14T09:33:22Z</time>
      </trkpt>
      <trkpt lat="51.36941" lon="4.463">
        <ele>80.800003051758</ele>
        <time>2019-05-14T09:35:59Z</time>
      </trkpt>
      <trkpt lat="51.37007" lon="4.46334">
        <ele>80.800003051758</ele>
        <time>2019-05-14T09:36:07Z</time>
      </trkpt>
      <trkpt lat="51.37107" lon="4.46385">
        <ele>80.400001525879</ele>
        <time>2019-05-14T09:36:26Z</time>
      </trkpt>
      <trkpt lat="51.37222" lon="4.46446">
        <ele>80.599998474121</ele>
        <time>2019-05-14T09:36:31Z</time>
      </trkpt>
      <trkpt lat="51.37298" lon="4.46487">
        <ele>80.199996948242</ele>
        <time>2019-05-14T09:36:40Z</time>
      </trkpt>
      <trkpt lat="51.374" lon="4.46544">
        <ele>80.199996948242</ele>
        <time>2019-05-14T09:37:17Z</time>
      </trkpt>
      <trkpt lat="51.37503" lon="4.46597">
        <ele>79.199996948242</ele>
        <time>2019-05-14T09:37:33Z</time>
      </trkpt>
      <trkpt lat="51.37692" lon="4.4668">
        <ele>78.800003051758</ele>
        <time>2019-05-14T09:37:50Z</time>
      </trkpt>
      <trkpt lat="51.37799" lon="4.46705">
        <ele>79</ele>
        <time>2019-05-14T09:38:11Z</time>
      </trkpt>
      <trkpt lat="51.3796" lon="4.4672">
        <ele>78.199996948242</ele>
        <time>2019-05-14T09:38:40Z</time>
      </trkpt>
      <trkpt lat="51.38255" lon="4.46709">
        <ele>77.199996948242</ele>
        <time>2019-05-14T09:38:51Z</time>
      </trkpt>
      <trkpt lat="51.38351" lon="4.46703">
        <ele>77</ele>
        <time>2019-05-14T09:39:30Z</time>
      </trkpt>
      <trkpt lat="51.38425" lon="4.46699">
        <ele>77</ele>
        <time>2019-05-14T09:39:59Z</time>
      </trkpt>
      <trkpt lat="51.38547" lon="4.4669">
        <ele>77.199996948242</ele>
        <time>2019-05-14T09:40:21Z</time>
      </trkpt>
      <trkpt lat="51.38707" lon="4.46683">
        <ele>77.400001525879</ele>
        <time>2019-05-14T09:40:37Z</time>
      </trkpt>
      <trkpt lat="51.38834" lon="4.4667">
        <ele>77.400001525879</ele>
        <time>2019-05-14T09:40:53Z</time>
      </trkpt>
      <trkpt lat="51.38935" lon="4.46659">
        <ele>77.800003051758</ele>
        <time>2019-05-14T09:41:08Z</time>
      </trkpt>
      <trkpt lat="51.39044" lon="4.46663">
        <ele>77.199996948242</ele>
        <time>2019-05-14T09:41:29Z</time>
      </trkpt>
      <trkpt lat="51.3913" lon="4.4665">
        <ele>77</ele>
        <time>2019-05-14T09:41:49Z</time>
      </trkpt>
      <trkpt lat="51.39278" lon="4.46649">
        <ele>77</ele>
        <time>2019-05-14T09:42:07Z</time>
      </trkpt>
      <trkpt lat="51.39342" lon="4.46643">
        <ele>76.800003051758</ele>
        <time>2019-05-14T09:42:29Z</time>
      </trkpt>
      <trkpt lat="51.39413" lon="4.46636">
        <ele>76.800003051758</ele>
        <time>2019-05-14T09:42:56Z</time>
      </trkpt>
      <trkpt lat="51.39493" lon="4.46624">
        <ele>76.199996948242</ele>
        <time>2019-05-14T09:43:28Z</time>
      </trkpt>
      <trkpt lat="51.39687" lon="4.46622">
        <ele>76.199996948242</ele>
        <time>2019-05-14T09:43:50Z</time>
      </trkpt>
      <trkpt lat="51.39788" lon="4.46611">
        <ele>76</ele>
        <time>2019-05-14T09:44:04Z</time>
      </trkpt>
      <trkpt lat="51.39844" lon="4.46604">
        <ele>75.599998474121</ele>
        <time>2019-05-14T09:44:27Z</time>
      </trkpt>
      <trkpt lat="51.39944" lon="4.46501">
        <ele>75.199996948242</ele>
        <time>2019-05-14T09:44:51Z</time>
      </trkpt>
      <trkpt lat="51.40017" lon="4.46438">
        <ele>75.599998474121</ele>
        <time>2019-05-14T09:45:20Z</time>
      </trkpt>
      <trkpt lat="51.4002" lon="4.46483">
        <ele>75.599998474121</ele>
        <time>2019-05-14T09:45:39Z</time>
      </trkpt>
      <trkpt lat="51.40016" lon="4.46635">
        <ele>76.400001525879</ele>
        <time>2019-05-14T09:45:57Z</time>
      </trkpt>
      <trkpt lat="51.4006" lon="4.46629">
        <ele>76.199996948242</ele>
        <time>2019-05-14T09:46:24Z</time>
      </trkpt>
      <trkpt lat="51.4015" lon="4.46622">
        <ele>75</ele>
        <time>2019-05-14T09:46:46Z</time>
      </trkpt>
      <trkpt lat="51.4018" lon="4.46623">
        <ele>75</ele>
        <time>2019-05-14T09:47:06Z</time>
      </trkpt>
      <trkpt lat="51.40184" lon="4.46621">
        <ele>74.800003051758</ele>
        <time>2019-05-14T09:47:24Z</time>
      </trkpt>
      <trkpt lat="51.40262" lon="4.46613">
        <ele>74.800003051758</ele>
        <time>2019-05-14T09:47:47Z</time>
      </trkpt>
      <trkpt lat="51.4047" lon="4.46598">
        <ele>75.199996948242</ele>
        <time>2019-05-14T09:48:06Z</time>
      </trkpt>
      <trkpt lat="51.40522" lon="4.46633">
        <ele>75.400001525879</ele>
        <time>2019-05-14T09:48:31Z</time>
      </trkpt>
      <trkpt lat="51.40542" lon="4.46676">
        <ele>75.400001525879</ele>
        <time>2019-05-14T09:48:56Z</time>
      </trkpt>
      <trkpt lat="51.40616" lon="4.46641">
        <ele>76</ele>
        <time>2019-05-14T09:49:24Z</time>
      </trkpt>
      <trkpt lat="51.40691" lon="4.46648">
        <ele>76.199996948242</ele>
        <time>2019-05-14T09:50:12Z</time>
      </trkpt>
      <trkpt lat="51.40812" lon="4.46572">
        <ele>75.800003051758</ele>
        <time>2019-05-14T09:50:39Z</time>
      </trkpt>
      <trkpt lat="51.40936" lon="4.46576">
        <ele>75.599998474121</ele>
        <time>2019-05-14T09:51:20Z</time>
      </trkpt>
      <trkpt lat="51.40993" lon="4.46583">
        <ele>75.599998474121</ele>
        <time>2019-05-14T09:51:31Z</time>
      </trkpt>
      <trkpt lat="51.41065" lon="4.46577">
        <ele>74.800003051758</ele>
        <time>2019-05-14T09:51:51Z</time>
      </trkpt>
      <trkpt lat="51.41142" lon="4.46575">
        <ele>74.400001525879</ele>
        <time>2019-05-14T10:10:27Z</time>
      </trkpt>
      <trkpt lat="51.41198" lon="4.46554">
        <ele>74.599998474121</ele>
        <time>2019-05-14T10:10:39Z</time>
      </trkpt>
      <trkpt lat="51.41289" lon="4.46554">
        <ele>74.800003051758</ele>
        <time>2019-05-14T10:11:26Z</time>
      </trkpt>
      <trkpt lat="51.41437" lon="4.46526">
        <ele>74.800003051758</ele>
        <time>2019-05-14T10:11:52Z</time>
      </trkpt>
      <trkpt lat="51.41502" lon="4.46525">
        <ele>74.199996948242</ele>
        <time>2019-05-14T10:12:09Z</time>
      </trkpt>
      <trkpt lat="51.41587" lon="4.46529">
        <ele>74</ele>
        <time>2019-05-14T10:12:36Z</time>
      </trkpt>
      <trkpt lat="51.41697" lon="4.46533">
        <ele>73.599998474121</ele>
        <time>2019-05-14T10:12:46Z</time>
      </trkpt>
      <trkpt lat="51.41821" lon="4.46527">
        <ele>74</ele>
        <time>2019-05-14T10:13:14Z</time>
      </trkpt>
      <trkpt lat="51.4195" lon="4.46515">
        <ele>73.800003051758</ele>
        <time>2019-05-14T10:13:24Z</time>
      </trkpt>
      <trkpt lat="51.42146" lon="4.46509">
        <ele>75.800003051758</ele>
        <time>2019-05-14T10:13:33Z</time>
      </trkpt>
      <trkpt lat="51.42232" lon="4.46511">
        <ele>76</ele>
        <time>2019-05-14T10:13:41Z</time>
      </trkpt>
      <trkpt lat="51.42258" lon="4.46506">
        <ele>75.599998474121</ele>
        <time>2019-05-14T10:14:01Z</time>
      </trkpt>
      <trkpt lat="51.42283" lon="4.46542">
        <ele>75.800003051758</ele>
        <time>2019-05-14T10:14:27Z</time>
      </trkpt>
      <trkpt lat="51.42326" lon="4.46646">
        <ele>75.599998474121</ele>
        <time>2019-05-14T10:14:46Z</time>
      </trkpt>
      <trkpt lat="51.42375" lon="4.46598">
        <ele>75.400001525879</ele>
        <time>2019-05-14T10:15:17Z</time>
      </trkpt>
      <trkpt lat="51.42452" lon="4.46562">
        <ele>75.800003051758</ele>
        <time>2019-05-14T10:15:54Z</time>
      </trkpt>
      <trkpt lat="51.42654" lon="4.46513">
        <ele>75.400001525879</ele>
        <time>2019-05-14T10:16:01Z</time>
      </trkpt>
      <trkpt lat="51.42707" lon="4.46497">
        <ele>75.199996948242</ele>
        <time>2019-05-14T10:16:25Z</time>
      </trkpt>
      <trkpt lat="51.42711" lon="4.46417">
        <ele>75.400001525879</ele>
        <time>2019-05-14T10:16:38Z</time>
      </trkpt>
      <trkpt lat="51.42738" lon="4.46402">
        <ele>75.400001525879</ele>
        <time>2019-05-14T10:16:53Z</time>
      </trkpt>
      <trkpt lat="51.42823" lon="4.46349">
        <ele>76.199996948242</ele>
        <time>2019-05-14T10:16:59Z</time>
      </trkpt>
      <trkpt lat="51.42899" lon="4.46322">
        <ele>76</ele>
        <time>2019-05-14T10:17:30Z</time>
      </trkpt>
      <trkpt lat="51.43032" lon="4.46274">
        <ele>75.199996948242</ele>
        <time>2019-05-14T10:17:57Z</time>
      </trkpt>
      <trkpt lat="51.43087" lon="4.46253">
        <ele>74.400001525879</ele>
        <time>2019-05-14T10:18:32Z</time>
      </trkpt>
      <trkpt lat="51.43183" lon="4.46219">
        <ele>74.800003051758</ele>
        <time>2019-05-14T10:19:01Z</time>
      </trkpt>
      <trkpt lat="51.43226" lon="4.462">
        <ele>74.800003051758</ele>
        <time>2019-05-14T10:19:33Z</time>
      </trkpt>
      <trkpt lat="51.43316" lon="4.46183">
        <ele>75.199996948242</ele>
        <time>2019-05-14T10:19:57Z</time>
      </trkpt>
      <trkpt lat="51.43359" lon="4.46197">
        <ele>75.800003051758</ele>
        <time>2019-05-14T10:20:13Z</time>
      </trkpt>
      <trkpt lat="51.43414" lon="4.46202">
        <ele>75.599998474121</ele>
        <time>2019-05-14T10:20:36Z</time>
      </trkpt>
      <trkpt lat="51.43437" lon="4.46175">
        <ele>75.400001525879</ele>
        <time>2019-05-14T10:20:56Z</time>
      </trkpt>
      <trkpt lat="51.43516" lon="4.462">
        <ele>76</ele>
        <time>2019-05-14T10:21:18Z</time>
      </trkpt>
      <trkpt lat="51.43668" lon="4.46236">
        <ele>76.599998474121</ele>
        <time>2019-05-14T10:21:51Z</time>
      </trkpt>
      <trkpt lat="51.43756" lon="4.46268">
        <ele>76.400001525879</ele>
        <time>2019-05-14T10:22:19Z</time>
      </trkpt>
      <trkpt lat="51.43818" lon="4.46283">
        <ele>76.199996948242</ele>
        <time>2019-05-14T10:22:40Z</time>
      </trkpt>
      <trkpt lat="51.44044" lon="4.4634">
        <ele>76.199996948242</ele>
        <time>2019-05-14T10:23:15Z</time>
      </trkpt>
      <trkpt lat="51.44103" lon="4.46382">
        <ele>76.400001525879</ele>
        <time>2019-05-14T10:23:40Z</time>
      </trkpt>
      <trkpt lat="51.44182" lon="4.46409">
        <ele>76.199996948242</ele>
        <time>2019-05-14T10:23:59Z</time>
      </trkpt>
      <trkpt lat="51.44261" lon="4.46401">
        <ele>75.800003051758</ele>
        <time>2019-05-14T10:24:13Z</time>
      </trkpt>
      <trkpt lat="51.4433" lon="4.46405">
        <ele>75.599998474121</ele>
        <time>2019-05-14T10:24:32Z</time>
      </trkpt>
      <trkpt lat="51.44344" lon="4.46362">
        <ele>75.599998474121</ele>
        <time>2019-05-14T10:24:59Z</time>
      </trkpt>
      <trkpt lat="51.44361" lon="4.46296">
        <ele>76</ele>
        <time>2019-05-14T10:25:21Z</time>
      </trkpt>
      <trkpt lat="51.44421" lon="4.46139">
        <ele>76</ele>
        <time>2019-05-14T10:25:52Z</time>
      </trkpt>
      <trkpt lat="51.44509" lon="4.46102">
        <ele>76</ele>
        <time>2019-05-14T10:26:22Z</time>
      </trkpt>
      <trkpt lat="51.446" lon="4.46025">
        <ele>75.599998474121</ele>
        <time>2019-05-14T10:26:44Z</time>
      </trkpt>
      <trkpt lat="51.44688" lon="4.45902">
        <ele>75.800003051758</ele>
        <time>2019-05-14T10:27:07Z</time>
      </trkpt>
      <trkpt lat="51.44758" lon="4.45807">
        <ele>76</ele>
        <time>2019-05-14T10:27:27Z</time>
      </trkpt>
      <trkpt lat="51.44855" lon="4.45698">
        <ele>76.800003051758</ele>
        <time>2019-05-14T10:27:50Z</time>
      </trkpt>
      <trkpt lat="51.44937" lon="4.45626">
        <ele>76.800003051758</ele>
        <time>2019-05-14T10:28:15Z</time>
      </trkpt>
      <trkpt lat="51.44957" lon="4.45708">
        <ele>76.800003051758</ele>
        <time>2019-05-14T10:28:42Z</time>
      </trkpt>
      <trkpt lat="51.45028" lon="4.45688">
        <ele>77</ele>
        <time>2019-05-14T10:29:03Z</time>
      </trkpt>
      <trkpt lat="51.4511" lon="4.45661">
        <ele>76.400001525879</ele>
        <time>2019-05-14T10:29:36Z</time>
      </trkpt>
      <trkpt lat="51.45285" lon="4.45579">
        <ele>76.800003051758</ele>
        <time>2019-05-14T10:30:05Z</time>
      </trkpt>
      <trkpt lat="51.45292" lon="4.45511">
        <ele>76.599998474121</ele>
        <time>2019-05-14T10:30:26Z</time>
      </trkpt>
      <trkpt lat="51.45295" lon="4.45479">
        <ele>76.800003051758</ele>
        <time>2019-05-14T10:31:24Z</time>
      </trkpt>
      <trkpt lat="51.4542" lon="4.45434">
        <ele>76.599998474121</ele>
        <time>2019-05-14T10:31:44Z</time>
      </trkpt>
      <trkpt lat="51.45508" lon="4.45406">
        <ele>75.800003051758</ele>
        <time>2019-05-14T10:32:07Z</time>
      </trkpt>
      <trkpt lat="51.45531" lon="4.45396">
        <ele>75.800003051758</ele>
        <time>2019-05-14T10:32:25Z</time>
      </trkpt>
      <trkpt lat="51.45554" lon="4.45391">
        <ele>76</ele>
        <time>2019-05-14T10:32:56Z</time>
      </trkpt>
      <trkpt lat="51.45604" lon="4.45373">
        <ele>75</ele>
        <time>2019-05-14T10:33:23Z</time>
      </trkpt>
      <trkpt lat="51.45697" lon="4.45345">
        <ele>74.400001525879</ele>
        <time>2019-05-14T10:33:53Z</time>
      </trkpt>
      <trkpt lat="51.45816" lon="4.45302">
        <ele>74.800003051758</ele>
        <time>2019-05-14T10:34:23Z</time>
      </trkpt>
      <trkpt lat="51.45934" lon="4.45261">
        <ele>74.599998474121</ele>
        <time>2019-05-14T10:34:56Z</time>
      </trkpt>
      <trkpt lat="51.46007" lon="4.45236">
        <ele>74.599998474121</ele>
        <time>2019-05-14T10:35:27Z</time>
      </trkpt>
      <trkpt lat="51.46069" lon="4.45215">
        <ele>75</ele>
        <time>2019-05-14T10:35:59Z</time>
      </trkpt>
      <trkpt lat="51.46091" lon="4.45236">
        <ele>75.199996948242</ele>
        <time>2019-05-14T10:36:22Z</time>
      </trkpt>
      <trkpt lat="51.46222" lon="4.45195">
        <ele>75.199996948242</ele>
        <time>2019-05-14T10:36:49Z</time>
      </trkpt>
      <trkpt lat="51.46229" lon="4.45193">
        <ele>76.199996948242</ele>
        <time>2019-05-14T10:37:16Z</time>
      </trkpt>
      <trkpt lat="51.46264" lon="4.45178">
        <ele>76.599998474121</ele>
        <time>2019-05-14T10:37:47Z</time>
      </trkpt>
      <trkpt lat="51.46276" lon="4.45204">
        <ele>76.599998474121</ele>
        <time>2019-05-14T10:38:13Z</time>
      </trkpt>
      <trkpt lat="51.46297" lon="4.45314">
        <ele>76.800003051758</ele>
        <time>2019-05-14T10:38:44Z</time>
      </trkpt>
      <trkpt lat="51.46314" lon="4.45416">
        <ele>77.400001525879</ele>
        <time>2019-05-14T10:39:14Z</time>
      </trkpt>
      <trkpt lat="51.46339" lon="4.45538">
        <ele>77.199996948242</ele>
        <time>2019-05-14T10:39:35Z</time>
      </trkpt>
      <trkpt lat="51.46391" lon="4.45718">
        <ele>77.199996948242</ele>
        <time>2019-05-14T10:40:10Z</time>
      </trkpt>
      <trkpt lat="51.46439" lon="4.45809">
        <ele>76.599998474121</ele>
        <time>2019-05-14T10:40:55Z</time>
      </trkpt>
      <trkpt lat="51.4649" lon="4.45902">
        <ele>76.400001525879</ele>
        <time>2019-05-14T10:41:09Z</time>
      </trkpt>
      <trkpt lat="51.46522" lon="4.45969">
        <ele>76.599998474121</ele>
        <time>2019-05-14T10:41:16Z</time>
      </trkpt>
      <trkpt lat="51.46536" lon="4.46104">
        <ele>76.400001525879</ele>
        <time>2019-05-14T10:41:38Z</time>
      </trkpt>
      <trkpt lat="51.4654" lon="4.4621">
        <ele>75.599998474121</ele>
        <time>2019-05-14T10:42:14Z</time>
      </trkpt>
      <trkpt lat="51.46535" lon="4.46192">
        <ele>74.400001525879</ele>
        <time>2019-05-14T10:42:39Z</time>
      </trkpt>
      <trkpt lat="51.46545" lon="4.46224">
        <ele>74.599998474121</ele>
        <time>2019-05-14T10:43:01Z</time>
      </trkpt>
      <trkpt lat="51.46593" lon="4.46361">
        <ele>74.599998474121</ele>
        <time>2019-05-14T10:43:21Z</time>
      </trkpt>
      <trkpt lat="51.46645" lon="4.46513">
        <ele>74</ele>
        <time>2019-05-14T10:51:35Z</time>
      </trkpt>
      <trkpt lat="51.46692" lon="4.46626">
        <ele>74</ele>
        <time>2019-05-14T10:51:53Z</time>
      </trkpt>
      <trkpt lat="51.46749" lon="4.46778">
        <ele>73.599998474121</ele>
        <time>2019-05-14T10:52:13Z</time>
      </trkpt>
      <trkpt lat="51.46778" lon="4.4685">
        <ele>73.599998474121</ele>
        <time>2019-05-14T10:52:40Z</time>
      </trkpt>
      <trkpt lat="51.46799" lon="4.46836">
        <ele>73.599998474121</ele>
        <time>2019-05-14T10:53:05Z</time>
      </trkpt>
      <trkpt lat="51.46864" lon="4.46746">
        <ele>74</ele>
        <time>2019-05-14T10:53:32Z</time>
      </trkpt>
      <trkpt lat="51.46869" lon="4.46693">
        <ele>74</ele>
        <time>2019-05-14T10:54:04Z</time>
      </trkpt>
      <trkpt lat="51.46927" lon="4.4667">
        <ele>74.199996948242</ele>
        <time>2019-05-14T10:54:28Z</time>
      </trkpt>
      <trkpt lat="51.47103" lon="4.46473">
        <ele>73.199996948242</ele>
        <time>2019-05-14T10:54:50Z</time>
      </trkpt>
      <trkpt lat="51.4711" lon="4.46392">
        <ele>72.800003051758</ele>
        <time>2019-05-14T10:55:10Z</time>
      </trkpt>
      <trkpt lat="51.47093" lon="4.46321">
        <ele>72.599998474121</ele>
        <time>2019-05-14T10:55:40Z</time>
      </trkpt>
      <trkpt lat="51.47088" lon="4.46297">
        <ele>73</ele>
        <time>2019-05-14T10:55:53Z</time>
      </trkpt>
      <trkpt lat="51.47055" lon="4.46122">
        <ele>73.400001525879</ele>
        <time>2019-05-14T10:56:04Z</time>
      </trkpt>
      <trkpt lat="51.4702" lon="4.46065">
        <ele>73.599998474121</ele>
        <time>2019-05-14T10:56:13Z</time>
      </trkpt>
      <trkpt lat="51.46907" lon="4.46094">
        <ele>74.599998474121</ele>
        <time>2019-05-14T10:56:21Z</time>
      </trkpt>
      <trkpt lat="51.46782" lon="4.46121">
        <ele>74.599998474121</ele>
        <time>2019-05-14T10:56:46Z</time>
      </trkpt>
      <trkpt lat="51.46663" lon="4.46148">
        <ele>74.800003051758</ele>
        <time>2019-05-14T10:57:07Z</time>
      </trkpt>
      <trkpt lat="51.46541" lon="4.46179">
        <ele>75.199996948242</ele>
        <time>2019-05-14T10:57:21Z</time>
      </trkpt>
      <trkpt lat="51.46467" lon="4.46197">
        <ele>75.800003051758</ele>
        <time>2019-05-14T10:57:37Z</time>
      </trkpt>
      <trkpt lat="51.46395" lon="4.46199">
        <ele>76.599998474121</ele>
        <time>2019-05-14T10:58:01Z</time>
      </trkpt>
      <trkpt lat="51.46279" lon="4.46176">
        <ele>76</ele>
        <time>2019-05-14T11:26:18Z</time>
      </trkpt>
      <trkpt lat="51.46179" lon="4.46192">
        <ele>75.599998474121</ele>
        <time>2019-05-14T11:26:29Z</time>
      </trkpt>
      <trkpt lat="51.4605" lon="4.46258">
        <ele>75.199996948242</ele>
        <time>2019-05-14T11:26:44Z</time>
      </trkpt>
      <trkpt lat="51.45948" lon="4.4634">
        <ele>74.599998474121</ele>
        <time>2019-05-14T11:27:07Z</time>
      </trkpt>
      <trkpt lat="51.45893" lon="4.46386">
        <ele>74.599998474121</ele>
        <time>2019-05-14T11:27:27Z</time>
      </trkpt>
      <trkpt lat="51.45803" lon="4.46416">
        <ele>75.199996948242</ele>
        <time>2019-05-14T11:27:53Z</time>
      </trkpt>
      <trkpt lat="51.45689" lon="4.46435">
        <ele>75.400001525879</ele>
        <time>2019-05-14T11:28:14Z</time>
      </trkpt>
      <trkpt lat="51.45597" lon="4.4646">
        <ele>75</ele>
        <time>2019-05-14T11:28:43Z</time>
      </trkpt>
      <trkpt lat="51.4549" lon="4.46483">
        <ele>75.599998474121</ele>
        <time>2019-05-14T11:29:08Z</time>
      </trkpt>
      <trkpt lat="51.45414" lon="4.46462">
        <ele>76.400001525879</ele>
        <time>2019-05-14T11:29:27Z</time>
      </trkpt>
      <trkpt lat="51.45407" lon="4.4639">
        <ele>77.199996948242</ele>
        <time>2019-05-14T11:29:49Z</time>
      </trkpt>
      <trkpt lat="51.45411" lon="4.46337">
        <ele>77</ele>
        <time>2019-05-14T11:30:09Z</time>
      </trkpt>
      <trkpt lat="51.45414" lon="4.46329">
        <ele>77.800003051758</ele>
        <time>2019-05-14T11:30:28Z</time>
      </trkpt>
      <trkpt lat="51.45439" lon="4.46343">
        <ele>77.800003051758</ele>
        <time>2019-05-14T11:30:49Z</time>
      </trkpt>
      <trkpt lat="51.45405" lon="4.4633">
        <ele>11.39999961853</ele>
        <time>2019-05-14T11:31:13Z</time>
      </trkpt>
      <trkpt lat="51.454" lon="4.46386">
        <ele>12</ele>
        <time>2019-05-14T11:32:37Z</time>
      </trkpt>
      <trkpt lat="51.4541" lon="4.46463">
        <ele>12</ele>
        <time>2019-05-14T11:32:57Z</time>
      </trkpt>
      <trkpt lat="51.45438" lon="4.46478">
        <ele>11.60000038147</ele>
        <time>2019-05-14T11:33:06Z</time>
      </trkpt>
      <trkpt lat="51.45511" lon="4.46488">
        <ele>11.199999809265</ele>
        <time>2019-05-14T11:33:36Z</time>
      </trkpt>
      <trkpt lat="51.45608" lon="4.46462">
        <ele>10.199999809265</ele>
        <time>2019-05-14T11:33:59Z</time>
      </trkpt>
      <trkpt lat="51.45671" lon="4.46445">
        <ele>10</ele>
        <time>2019-05-14T11:34:21Z</time>
      </trkpt>
      <trkpt lat="51.45786" lon="4.46427">
        <ele>9.8000001907349</ele>
        <time>2019-05-14T11:34:36Z</time>
      </trkpt>
      <trkpt lat="51.45846" lon="4.46418">
        <ele>10</ele>
        <time>2019-05-14T11:34:58Z</time>
      </trkpt>
      <trkpt lat="51.45923" lon="4.46365">
        <ele>9.8000001907349</ele>
        <time>2019-05-14T11:35:23Z</time>
      </trkpt>
      <trkpt lat="51.45999" lon="4.46301">
        <ele>10</ele>
        <time>2019-05-14T11:35:37Z</time>
      </trkpt>
      <trkpt lat="51.46101" lon="4.46219">
        <ele>10.199999809265</ele>
        <time>2019-05-14T11:36:04Z</time>
      </trkpt>
      <trkpt lat="51.46159" lon="4.46198">
        <ele>10.60000038147</ele>
        <time>2019-05-14T11:36:19Z</time>
      </trkpt>
      <trkpt lat="51.46257" lon="4.46185">
        <ele>10.39999961853</ele>
        <time>2019-05-14T11:36:41Z</time>
      </trkpt>
      <trkpt lat="51.46341" lon="4.46188">
        <ele>11.199999809265</ele>
        <time>2019-05-14T11:37:10Z</time>
      </trkpt>
      <trkpt lat="51.46403" lon="4.46198">
        <ele>12.39999961853</ele>
        <time>2019-05-14T11:38:57Z</time>
      </trkpt>
      <trkpt lat="51.46502" lon="4.46186">
        <ele>11.60000038147</ele>
        <time>2019-05-14T11:39:10Z</time>
      </trkpt>
      <trkpt lat="51.4651" lon="4.46184">
        <ele>11.199999809265</ele>
        <time>2019-05-14T11:40:02Z</time>
      </trkpt>
      <trkpt lat="51.46586" lon="4.4617">
        <ele>11.199999809265</ele>
        <time>2019-05-14T11:40:25Z</time>
      </trkpt>
      <trkpt lat="51.46636" lon="4.46156">
        <ele>10.800000190735</ele>
        <time>2019-05-14T11:40:46Z</time>
      </trkpt>
      <trkpt lat="51.46805" lon="4.46119">
        <ele>10.199999809265</ele>
        <time>2019-05-14T11:41:06Z</time>
      </trkpt>
      <trkpt lat="51.46881" lon="4.461">
        <ele>10.39999961853</ele>
        <time>2019-05-14T11:41:25Z</time>
      </trkpt>
      <trkpt lat="51.4701" lon="4.46071">
        <ele>10.199999809265</ele>
        <time>2019-05-14T11:41:46Z</time>
      </trkpt>
      <trkpt lat="51.47055" lon="4.4606">
        <ele>9.3999996185303</ele>
        <time>2019-05-14T11:42:10Z</time>
      </trkpt>
      <trkpt lat="51.4714" lon="4.46028">
        <ele>9.8000001907349</ele>
        <time>2019-05-14T11:42:26Z</time>
      </trkpt>
      <trkpt lat="51.47208" lon="4.46011">
        <ele>10</ele>
        <time>2019-05-14T11:42:48Z</time>
      </trkpt>
      <trkpt lat="51.47283" lon="4.46072">
        <ele>10.39999961853</ele>
        <time>2019-05-14T11:42:55Z</time>
      </trkpt>
      <trkpt lat="51.4729" lon="4.46079">
        <ele>10.60000038147</ele>
        <time>2019-05-14T11:43:08Z</time>
      </trkpt>
      <trkpt lat="51.47364" lon="4.46036">
        <ele>10.60000038147</ele>
        <time>2019-05-14T11:43:35Z</time>
      </trkpt>
      <trkpt lat="51.47598" lon="4.46029">
        <ele>11</ele>
        <time>2019-05-14T11:43:50Z</time>
      </trkpt>
      <trkpt lat="51.4772" lon="4.46024">
        <ele>11</ele>
        <time>2019-05-14T11:44:05Z</time>
      </trkpt>
      <trkpt lat="51.47825" lon="4.46034">
        <ele>10.800000190735</ele>
        <time>2019-05-14T11:44:27Z</time>
      </trkpt>
      <trkpt lat="51.48023" lon="4.46079">
        <ele>10.800000190735</ele>
        <time>2019-05-14T11:44:40Z</time>
      </trkpt>
      <trkpt lat="51.48103" lon="4.46109">
        <ele>11</ele>
        <time>2019-05-14T11:45:03Z</time>
      </trkpt>
      <trkpt lat="51.48147" lon="4.46124">
        <ele>11.39999961853</ele>
        <time>2019-05-14T11:45:28Z</time>
      </trkpt>
      <trkpt lat="51.48199" lon="4.46137">
        <ele>11</ele>
        <time>2019-05-14T11:45:35Z</time>
      </trkpt>
      <trkpt lat="51.48262" lon="4.46142">
        <ele>10.800000190735</ele>
        <time>2019-05-14T11:45:42Z</time>
      </trkpt>
      <trkpt lat="51.48351" lon="4.46121">
        <ele>10.39999961853</ele>
        <time>2019-05-14T11:47:04Z</time>
      </trkpt>
      <trkpt lat="51.4843" lon="4.46103">
        <ele>10.199999809265</ele>
        <time>2019-05-14T11:47:12Z</time>
      </trkpt>
      <trkpt lat="51.48526" lon="4.46073">
        <ele>9.8000001907349</ele>
        <time>2019-05-14T11:47:34Z</time>
      </trkpt>
      <trkpt lat="51.48558" lon="4.46068">
        <ele>9.6000003814697</ele>
        <time>2019-05-14T11:48:04Z</time>
      </trkpt>
      <trkpt lat="51.4857" lon="4.46069">
        <ele>9</ele>
        <time>2019-05-14T11:48:32Z</time>
      </trkpt>
      <trkpt lat="51.48625" lon="4.46034">
        <ele>9</ele>
        <time>2019-05-14T11:48:42Z</time>
      </trkpt>
      <trkpt lat="51.48771" lon="4.45936">
        <ele>7.8000001907349</ele>
        <time>2019-05-14T11:49:05Z</time>
      </trkpt>
      <trkpt lat="51.48805" lon="4.45957">
        <ele>7.5999999046326</ele>
        <time>2019-05-14T11:49:25Z</time>
      </trkpt>
      <trkpt lat="51.48869" lon="4.45999">
        <ele>6.5999999046326</ele>
        <time>2019-05-14T11:49:49Z</time>
      </trkpt>
      <trkpt lat="51.49071" lon="4.4607">
        <ele>5.4000000953674</ele>
        <time>2019-05-14T11:50:08Z</time>
      </trkpt>
      <trkpt lat="51.49136" lon="4.46107">
        <ele>5.1999998092651</ele>
        <time>2019-05-14T11:50:15Z</time>
      </trkpt>
      <trkpt lat="51.49247" lon="4.46209">
        <ele>5.1999998092651</ele>
        <time>2019-05-14T11:50:33Z</time>
      </trkpt>
      <trkpt lat="51.49344" lon="4.46305">
        <ele>4.5999999046326</ele>
        <time>2019-05-14T11:50:51Z</time>
      </trkpt>
      <trkpt lat="51.49395" lon="4.46348">
        <ele>5.1999998092651</ele>
        <time>2019-05-14T11:51:17Z</time>
      </trkpt>
      <trkpt lat="51.49389" lon="4.4634">
        <ele>5</ele>
        <time>2019-05-14T11:51:29Z</time>
      </trkpt>
      <trkpt lat="51.49397" lon="4.46312">
        <ele>5</ele>
        <time>2019-05-14T11:51:55Z</time>
      </trkpt>
      <trkpt lat="51.49433" lon="4.46264">
        <ele>4.4000000953674</ele>
        <time>2019-05-14T11:52:16Z</time>
      </trkpt>
      <trkpt lat="51.49505" lon="4.46249">
        <ele>4.1999998092651</ele>
        <time>2019-05-14T11:52:29Z</time>
      </trkpt>
      <trkpt lat="51.49601" lon="4.46186">
        <ele>3.7999999523163</ele>
        <time>2019-05-14T11:52:48Z</time>
      </trkpt>
      <trkpt lat="51.49651" lon="4.46113">
        <ele>3.7999999523163</ele>
        <time>2019-05-14T11:53:10Z</time>
      </trkpt>
      <trkpt lat="51.49683" lon="4.4603">
        <ele>3.5999999046326</ele>
        <time>2019-05-14T11:53:27Z</time>
      </trkpt>
      <trkpt lat="51.49673" lon="4.45923">
        <ele>3.4000000953674</ele>
        <time>2019-05-14T11:53:48Z</time>
      </trkpt>
      <trkpt lat="51.49657" lon="4.45775">
        <ele>3.2000000476837</ele>
        <time>2019-05-14T11:54:02Z</time>
      </trkpt>
      <trkpt lat="51.49701" lon="4.45627">
        <ele>3.4000000953674</ele>
        <time>2019-05-14T11:54:16Z</time>
      </trkpt>
      <trkpt lat="51.49735" lon="4.45573">
        <ele>3.4000000953674</ele>
        <time>2019-05-14T11:54:31Z</time>
      </trkpt>
      <trkpt lat="51.49816" lon="4.45547">
        <ele>3.4000000953674</ele>
        <time>2019-05-14T11:55:02Z</time>
      </trkpt>
      <trkpt lat="51.49889" lon="4.45493">
        <ele>3</ele>
        <time>2019-05-14T11:55:16Z</time>
      </trkpt>
      <trkpt lat="51.49886" lon="4.4547">
        <ele>3.2000000476837</ele>
        <time>2019-05-14T11:55:32Z</time>
      </trkpt>
      <trkpt lat="51.49987" lon="4.45372">
        <ele>3.2000000476837</ele>
        <time>2019-05-14T11:55:43Z</time>
      </trkpt>
      <trkpt lat="51.49996" lon="4.45347">
        <ele>2.7999999523163</ele>
        <time>2019-05-14T11:55:54Z</time>
      </trkpt>
      <trkpt lat="51.50027" lon="4.45259">
        <ele>2.7999999523163</ele>
        <time>2019-05-14T11:56:10Z</time>
      </trkpt>
      <trkpt lat="51.50034" lon="4.45208">
        <ele>3.2000000476837</ele>
        <time>2019-05-14T11:56:22Z</time>
      </trkpt>
      <trkpt lat="51.50108" lon="4.45169">
        <ele>3.4000000953674</ele>
        <time>2019-05-14T11:56:35Z</time>
      </trkpt>
      <trkpt lat="51.50178" lon="4.45158">
        <ele>4.1999998092651</ele>
        <time>2019-05-14T11:57:02Z</time>
      </trkpt>
      <trkpt lat="51.5028" lon="4.4518">
        <ele>3.4000000953674</ele>
        <time>2019-05-14T11:57:18Z</time>
      </trkpt>
      <trkpt lat="51.5033" lon="4.45236">
        <ele>3.2000000476837</ele>
        <time>2019-05-14T11:57:25Z</time>
      </trkpt>
      <trkpt lat="51.50371" lon="4.45257">
        <ele>2.7999999523163</ele>
        <time>2019-05-14T11:57:33Z</time>
      </trkpt>
      <trkpt lat="51.50422" lon="4.45266">
        <ele>2.5999999046326</ele>
        <time>2019-05-14T11:57:45Z</time>
      </trkpt>
      <trkpt lat="51.50429" lon="4.45264">
        <ele>2.2000000476837</ele>
        <time>2019-05-14T11:58:01Z</time>
      </trkpt>
      <trkpt lat="51.50459" lon="4.45246">
        <ele>2.4000000953674</ele>
        <time>2019-05-14T11:58:12Z</time>
      </trkpt>
      <trkpt lat="51.50531" lon="4.45175">
        <ele>2.2000000476837</ele>
        <time>2019-05-14T11:58:33Z</time>
      </trkpt>
      <trkpt lat="51.5059" lon="4.45174">
        <ele>2</ele>
        <time>2019-05-14T11:59:00Z</time>
      </trkpt>
      <trkpt lat="51.50679" lon="4.45209">
        <ele>2.5999999046326</ele>
        <time>2019-05-14T11:59:30Z</time>
      </trkpt>
      <trkpt lat="51.50726" lon="4.45247">
        <ele>2.4000000953674</ele>
        <time>2019-05-14T11:59:52Z</time>
      </trkpt>
      <trkpt lat="51.50783" lon="4.45251">
        <ele>2.7999999523163</ele>
        <time>2019-05-14T12:00:18Z</time>
      </trkpt>
      <trkpt lat="51.50852" lon="4.45308">
        <ele>3</ele>
        <time>2019-05-14T12:00:40Z</time>
      </trkpt>
      <trkpt lat="51.50922" lon="4.45372">
        <ele>2.5999999046326</ele>
        <time>2019-05-14T12:00:53Z</time>
      </trkpt>
      <trkpt lat="51.5103" lon="4.4549">
        <ele>2.5999999046326</ele>
        <time>2019-05-14T12:01:18Z</time>
      </trkpt>
      <trkpt lat="51.51089" lon="4.45491">
        <ele>2.7999999523163</ele>
        <time>2019-05-14T12:01:46Z</time>
      </trkpt>
      <trkpt lat="51.51117" lon="4.45457">
        <ele>2.7999999523163</ele>
        <time>2019-05-14T12:02:03Z</time>
      </trkpt>
      <trkpt lat="51.51161" lon="4.4544">
        <ele>3.2000000476837</ele>
        <time>2019-05-14T12:02:37Z</time>
      </trkpt>
      <trkpt lat="51.51214" lon="4.45467">
        <ele>3.2000000476837</ele>
        <time>2019-05-14T12:02:58Z</time>
      </trkpt>
      <trkpt lat="51.51271" lon="4.45478">
        <ele>2.5999999046326</ele>
        <time>2019-05-14T12:03:28Z</time>
      </trkpt>
      <trkpt lat="51.51313" lon="4.45497">
        <ele>2.4000000953674</ele>
        <time>2019-05-14T12:04:11Z</time>
      </trkpt>
      <trkpt lat="51.51378" lon="4.4548">
        <ele>1.6000000238419</ele>
        <time>2019-05-14T12:04:32Z</time>
      </trkpt>
      <trkpt lat="51.5138" lon="4.4548">
        <ele>1.7999999523163</ele>
        <time>2019-05-14T12:05:04Z</time>
      </trkpt>
      <trkpt lat="51.5144" lon="4.45513">
        <ele>1.7999999523163</ele>
        <time>2019-05-14T12:05:27Z</time>
      </trkpt>
      <trkpt lat="51.51451" lon="4.45476">
        <ele>2</ele>
        <time>2019-05-14T12:05:47Z</time>
      </trkpt>
      <trkpt lat="51.51473" lon="4.45421">
        <ele>2</ele>
        <time>2019-05-14T12:06:00Z</time>
      </trkpt>
      <trkpt lat="51.51518" lon="4.45448">
        <ele>2.2000000476837</ele>
        <time>2019-05-14T12:06:31Z</time>
      </trkpt>
      <trkpt lat="51.51573" lon="4.45443">
        <ele>2.2000000476837</ele>
        <time>2019-05-14T12:07:00Z</time>
      </trkpt>
      <trkpt lat="51.51621" lon="4.45413">
        <ele>2.5999999046326</ele>
        <time>2019-05-14T12:07:18Z</time>
      </trkpt>
      <trkpt lat="51.51683" lon="4.45366">
        <ele>2.5999999046326</ele>
        <time>2019-05-14T12:13:18Z</time>
      </trkpt>
      <trkpt lat="51.51747" lon="4.45349">
        <ele>2.7999999523163</ele>
        <time>2019-05-14T12:13:32Z</time>
      </trkpt>
      <trkpt lat="51.51826" lon="4.4533">
        <ele>2.5999999046326</ele>
        <time>2019-05-14T12:13:51Z</time>
      </trkpt>
      <trkpt lat="51.51907" lon="4.45314">
        <ele>2</ele>
        <time>2019-05-14T12:14:21Z</time>
      </trkpt>
      <trkpt lat="51.51952" lon="4.45263">
        <ele>1.6000000238419</ele>
        <time>2019-05-14T12:15:08Z</time>
      </trkpt>
      <trkpt lat="51.51972" lon="4.45236">
        <ele>1.6000000238419</ele>
        <time>2019-05-14T12:15:29Z</time>
      </trkpt>
      <trkpt lat="51.52005" lon="4.45266">
        <ele>1.7999999523163</ele>
        <time>2019-05-14T12:15:53Z</time>
      </trkpt>
      <trkpt lat="51.52036" lon="4.45261">
        <ele>1.7999999523163</ele>
        <time>2019-05-14T12:16:13Z</time>
      </trkpt>
      <trkpt lat="51.52065" lon="4.45252">
        <ele>1.3999999761581</ele>
        <time>2019-05-14T12:16:22Z</time>
      </trkpt>
      <trkpt lat="51.52129" lon="4.45248">
        <ele>1.2000000476837</ele>
        <time>2019-05-14T12:16:33Z</time>
      </trkpt>
      <trkpt lat="51.52182" lon="4.4523">
        <ele>1.2000000476837</ele>
        <time>2019-05-14T12:18:03Z</time>
      </trkpt>
      <trkpt lat="51.52205" lon="4.45208">
        <ele>1</ele>
        <time>2019-05-14T12:18:19Z</time>
      </trkpt>
      <trkpt lat="51.52206" lon="4.45118">
        <ele>1.2000000476837</ele>
        <time>2019-05-14T12:19:33Z</time>
      </trkpt>
      <trkpt lat="51.5223" lon="4.45098">
        <ele>1.2000000476837</ele>
        <time>2019-05-14T12:19:48Z</time>
      </trkpt>
      <trkpt lat="51.52315" lon="4.45105">
        <ele>1.3999999761581</ele>
        <time>2019-05-14T12:20:01Z</time>
      </trkpt>
      <trkpt lat="51.52404" lon="4.451">
        <ele>1.7999999523163</ele>
        <time>2019-05-14T12:20:19Z</time>
      </trkpt>
      <trkpt lat="51.52465" lon="4.45101">
        <ele>1.7999999523163</ele>
        <time>2019-05-14T12:20:27Z</time>
      </trkpt>
      <trkpt lat="51.52482" lon="4.4514">
        <ele>1.7999999523163</ele>
        <time>2019-05-14T12:21:07Z</time>
      </trkpt>
      <trkpt lat="51.52664" lon="4.45307">
        <ele>1.7999999523163</ele>
        <time>2019-05-14T12:24:29Z</time>
      </trkpt>
      <trkpt lat="51.52691" lon="4.45316">
        <ele>1.6000000238419</ele>
        <time>2019-05-14T12:24:44Z</time>
      </trkpt>
      <trkpt lat="51.52807" lon="4.45367">
        <ele>1.6000000238419</ele>
        <time>2019-05-14T12:24:56Z</time>
      </trkpt>
      <trkpt lat="51.52846" lon="4.45373">
        <ele>1.2000000476837</ele>
        <time>2019-05-14T12:25:03Z</time>
      </trkpt>
      <trkpt lat="51.52977" lon="4.45345">
        <ele>0.80000001192093</ele>
        <time>2019-05-14T12:25:10Z</time>
      </trkpt>
      <trkpt lat="51.53032" lon="4.45339">
        <ele>1.3999999761581</ele>
        <time>2019-05-14T12:25:21Z</time>
      </trkpt>
      <trkpt lat="51.5315" lon="4.45307">
        <ele>1.3999999761581</ele>
        <time>2019-05-14T12:25:28Z</time>
      </trkpt>
      <trkpt lat="51.53204" lon="4.45285">
        <ele>1.2000000476837</ele>
        <time>2019-05-14T12:25:35Z</time>
      </trkpt>
      <trkpt lat="51.53246" lon="4.45283">
        <ele>1.6000000238419</ele>
        <time>2019-05-14T12:26:37Z</time>
      </trkpt>
      <trkpt lat="51.53294" lon="4.45276">
        <ele>1.2000000476837</ele>
        <time>2019-05-14T12:26:45Z</time>
      </trkpt>
      <trkpt lat="51.53348" lon="4.45275">
        <ele>1</ele>
        <time>2019-05-14T12:26:51Z</time>
      </trkpt>
      <trkpt lat="51.53424" lon="4.45294">
        <ele>1.2000000476837</ele>
        <time>2019-05-14T12:27:02Z</time>
      </trkpt>
      <trkpt lat="51.53518" lon="4.45332">
        <ele>1.6000000238419</ele>
        <time>2019-05-14T12:27:18Z</time>
      </trkpt>
      <trkpt lat="51.53618" lon="4.45389">
        <ele>1.3999999761581</ele>
        <time>2019-05-14T12:27:29Z</time>
      </trkpt>
      <trkpt lat="51.53696" lon="4.45427">
        <ele>1.7999999523163</ele>
        <time>2019-05-14T12:27:44Z</time>
      </trkpt>
      <trkpt lat="51.53737" lon="4.45487">
        <ele>1.7999999523163</ele>
        <time>2019-05-14T12:27:51Z</time>
      </trkpt>
      <trkpt lat="51.538" lon="4.45584">
        <ele>1.6000000238419</ele>
        <time>2019-05-14T12:27:58Z</time>
      </trkpt>
      <trkpt lat="51.53901" lon="4.45743">
        <ele>2.2000000476837</ele>
        <time>2019-05-14T12:28:07Z</time>
      </trkpt>
      <trkpt lat="51.53943" lon="4.45818">
        <ele>2.5999999046326</ele>
        <time>2019-05-14T12:28:23Z</time>
      </trkpt>
      <trkpt lat="51.53957" lon="4.4593">
        <ele>3</ele>
        <time>2019-05-14T12:29:14Z</time>
      </trkpt>
      <trkpt lat="51.53932" lon="4.45978">
        <ele>2.4000000953674</ele>
        <time>2019-05-14T12:29:31Z</time>
      </trkpt>
      <trkpt lat="51.53944" lon="4.45978">
        <ele>2.5999999046326</ele>
        <time>2019-05-14T12:29:40Z</time>
      </trkpt>
      <trkpt lat="51.53958" lon="4.45991">
        <ele>2.4000000953674</ele>
        <time>2019-05-14T12:29:59Z</time>
      </trkpt>
      <trkpt lat="51.53968" lon="4.46036">
        <ele>2.5999999046326</ele>
        <time>2019-05-14T12:30:13Z</time>
      </trkpt>
      <trkpt lat="51.54064" lon="4.46177">
        <ele>2.5999999046326</ele>
        <time>2019-05-14T12:30:25Z</time>
      </trkpt>
      <trkpt lat="51.54121" lon="4.46271">
        <ele>3</ele>
        <time>2019-05-14T12:31:09Z</time>
      </trkpt>
      <trkpt lat="51.54255" lon="4.46414">
        <ele>3.5999999046326</ele>
        <time>2019-05-14T12:33:28Z</time>
      </trkpt>
      <trkpt lat="51.54385" lon="4.46539">
        <ele>3.5999999046326</ele>
        <time>2019-05-14T12:33:39Z</time>
      </trkpt>
      <trkpt lat="51.54429" lon="4.4658">
        <ele>4</ele>
        <time>2019-05-14T12:33:56Z</time>
      </trkpt>
      <trkpt lat="51.54444" lon="4.46689">
        <ele>4</ele>
        <time>2019-05-14T12:34:09Z</time>
      </trkpt>
      <trkpt lat="51.54499" lon="4.46983">
        <ele>5</ele>
        <time>2019-05-14T12:34:28Z</time>
      </trkpt>
      <trkpt lat="51.54577" lon="4.47455">
        <ele>5.8000001907349</ele>
        <time>2019-05-14T12:34:53Z</time>
      </trkpt>
      <trkpt lat="51.54575" lon="4.47479">
        <ele>5.8000001907349</ele>
        <time>2019-05-14T12:35:06Z</time>
      </trkpt>
      <trkpt lat="51.54591" lon="4.47493">
        <ele>5.1999998092651</ele>
        <time>2019-05-14T12:35:47Z</time>
      </trkpt>
      <trkpt lat="51.54617" lon="4.47474">
        <ele>5.5999999046326</ele>
        <time>2019-05-14T12:35:54Z</time>
      </trkpt>
      <trkpt lat="51.54691" lon="4.47423">
        <ele>5.8000001907349</ele>
        <time>2019-05-14T12:36:10Z</time>
      </trkpt>
      <trkpt lat="51.54761" lon="4.47386">
        <ele>6.4000000953674</ele>
        <time>2019-05-14T12:36:30Z</time>
      </trkpt>
      <trkpt lat="51.54823" lon="4.47362">
        <ele>6.4000000953674</ele>
        <time>2019-05-14T12:36:51Z</time>
      </trkpt>
      <trkpt lat="51.54898" lon="4.47314">
        <ele>5.8000001907349</ele>
        <time>2019-05-14T12:37:13Z</time>
      </trkpt>
      <trkpt lat="51.5495" lon="4.47299">
        <ele>5.1999998092651</ele>
        <time>2019-05-14T12:37:26Z</time>
      </trkpt>
      <trkpt lat="51.55042" lon="4.47321">
        <ele>5.4000000953674</ele>
        <time>2019-05-14T12:37:39Z</time>
      </trkpt>
      <trkpt lat="51.55251" lon="4.4737">
        <ele>5.4000000953674</ele>
        <time>2019-05-14T12:37:59Z</time>
      </trkpt>
      <trkpt lat="51.55262" lon="4.47371">
        <ele>6.1999998092651</ele>
        <time>2019-05-14T12:38:13Z</time>
      </trkpt>
      <trkpt lat="51.55464" lon="4.47395">
        <ele>5.4000000953674</ele>
        <time>2019-05-14T12:38:30Z</time>
      </trkpt>
      <trkpt lat="51.55589" lon="4.47405">
        <ele>4.5999999046326</ele>
        <time>2019-05-14T12:38:44Z</time>
      </trkpt>
      <trkpt lat="51.55592" lon="4.47436">
        <ele>4.5999999046326</ele>
        <time>2019-05-14T12:38:56Z</time>
      </trkpt>
      <trkpt lat="51.55623" lon="4.47511">
        <ele>5</ele>
        <time>2019-05-14T12:39:05Z</time>
      </trkpt>
      <trkpt lat="51.55697" lon="4.47578">
        <ele>5.1999998092651</ele>
        <time>2019-05-14T12:39:18Z</time>
      </trkpt>
      <trkpt lat="51.55768" lon="4.47635">
        <ele>5.1999998092651</ele>
        <time>2019-05-14T12:40:01Z</time>
      </trkpt>
      <trkpt lat="51.55836" lon="4.47701">
        <ele>4.5999999046326</ele>
        <time>2019-05-14T12:40:16Z</time>
      </trkpt>
      <trkpt lat="51.5589" lon="4.47751">
        <ele>4.4000000953674</ele>
        <time>2019-05-14T12:40:26Z</time>
      </trkpt>
      <trkpt lat="51.55948" lon="4.47813">
        <ele>4</ele>
        <time>2019-05-14T12:40:39Z</time>
      </trkpt>
      <trkpt lat="51.55981" lon="4.47851">
        <ele>4</ele>
        <time>2019-05-14T12:40:50Z</time>
      </trkpt>
      <trkpt lat="51.56018" lon="4.47842">
        <ele>3.4000000953674</ele>
        <time>2019-05-14T12:42:14Z</time>
      </trkpt>
      <trkpt lat="51.56081" lon="4.47872">
        <ele>3.7999999523163</ele>
        <time>2019-05-14T12:42:27Z</time>
      </trkpt>
      <trkpt lat="51.56134" lon="4.4787">
        <ele>4</ele>
        <time>2019-05-14T12:42:34Z</time>
      </trkpt>
      <trkpt lat="51.56135" lon="4.47924">
        <ele>3.7999999523163</ele>
        <time>2019-05-14T12:44:34Z</time>
      </trkpt>
      <trkpt lat="51.56142" lon="4.47951">
        <ele>3.7999999523163</ele>
        <time>2019-05-14T12:44:49Z</time>
      </trkpt>
      <trkpt lat="51.56161" lon="4.48077">
        <ele>4.4000000953674</ele>
        <time>2019-05-14T12:45:04Z</time>
      </trkpt>
      <trkpt lat="51.56162" lon="4.48242">
        <ele>4.5999999046326</ele>
        <time>2019-05-14T12:45:19Z</time>
      </trkpt>
      <trkpt lat="51.56171" lon="4.48305">
        <ele>4.8000001907349</ele>
        <time>2019-05-14T12:45:40Z</time>
      </trkpt>
      <trkpt lat="51.56217" lon="4.48313">
        <ele>4.4000000953674</ele>
        <time>2019-05-14T12:46:00Z</time>
      </trkpt>
      <trkpt lat="51.56396" lon="4.48327">
        <ele>4.4000000953674</ele>
        <time>2019-05-14T12:46:26Z</time>
      </trkpt>
      <trkpt lat="51.56495" lon="4.48329">
        <ele>4</ele>
        <time>2019-05-14T12:46:53Z</time>
      </trkpt>
      <trkpt lat="51.56534" lon="4.48354">
        <ele>4</ele>
        <time>2019-05-14T12:47:02Z</time>
      </trkpt>
      <trkpt lat="51.56531" lon="4.48464">
        <ele>4</ele>
        <time>2019-05-14T12:47:17Z</time>
      </trkpt>
      <trkpt lat="51.56527" lon="4.48644">
        <ele>4.1999998092651</ele>
        <time>2019-05-14T01:02:11Z</time>
      </trkpt>
      <trkpt lat="51.56543" lon="4.4868">
        <ele>4.1999998092651</ele>
        <time>2019-05-14T01:02:19Z</time>
      </trkpt>
      <trkpt lat="51.56613" lon="4.48695">
        <ele>4.4000000953674</ele>
        <time>2019-05-14T01:02:42Z</time>
      </trkpt>
      <trkpt lat="51.56733" lon="4.4872">
        <ele>3.2000000476837</ele>
        <time>2019-05-14T01:03:26Z</time>
      </trkpt>
      <trkpt lat="51.56821" lon="4.48738">
        <ele>3</ele>
        <time>2019-05-14T01:03:40Z</time>
      </trkpt>
      <trkpt lat="51.56923" lon="4.48748">
        <ele>3.2000000476837</ele>
        <time>2019-05-14T01:04:07Z</time>
      </trkpt>
      <trkpt lat="51.5701" lon="4.48757">
        <ele>3.2000000476837</ele>
        <time>2019-05-14T01:04:22Z</time>
      </trkpt>
      <trkpt lat="51.57081" lon="4.48912">
        <ele>2.5999999046326</ele>
        <time>2019-05-14T01:04:35Z</time>
      </trkpt>
      <trkpt lat="51.57131" lon="4.49013">
        <ele>2.7999999523163</ele>
        <time>2019-05-14T01:04:54Z</time>
      </trkpt>
      <trkpt lat="51.57165" lon="4.49128">
        <ele>3.5999999046326</ele>
        <time>2019-05-14T01:05:16Z</time>
      </trkpt>
      <trkpt lat="51.5719" lon="4.49292">
        <ele>3.5999999046326</ele>
        <time>2019-05-14T01:05:43Z</time>
      </trkpt>
      <trkpt lat="51.57214" lon="4.49402">
        <ele>4</ele>
        <time>2019-05-14T01:05:59Z</time>
      </trkpt>
      <trkpt lat="51.57338" lon="4.49429">
        <ele>5.1999998092651</ele>
        <time>2019-05-14T01:06:21Z</time>
      </trkpt>
      <trkpt lat="51.57419" lon="4.49453">
        <ele>5.1999998092651</ele>
        <time>2019-05-14T01:06:44Z</time>
      </trkpt>
      <trkpt lat="51.57531" lon="4.49483">
        <ele>4.4000000953674</ele>
        <time>2019-05-14T01:07:07Z</time>
      </trkpt>
      <trkpt lat="51.57546" lon="4.49511">
        <ele>4.4000000953674</ele>
        <time>2019-05-14T01:07:31Z</time>
      </trkpt>
      <trkpt lat="51.57572" lon="4.49649">
        <ele>4.5999999046326</ele>
        <time>2019-05-14T01:07:50Z</time>
      </trkpt>
      <trkpt lat="51.57583" lon="4.49656">
        <ele>4.4000000953674</ele>
        <time>2019-05-14T01:09:08Z</time>
      </trkpt>
      <trkpt lat="51.57626" lon="4.49662">
        <ele>4.4000000953674</ele>
        <time>2019-05-14T01:09:27Z</time>
      </trkpt>
      <trkpt lat="51.57662" lon="4.49663">
        <ele>4</ele>
        <time>2019-05-14T01:09:53Z</time>
      </trkpt>
      <trkpt lat="51.57844" lon="4.49655">
        <ele>3.5999999046326</ele>
        <time>2019-05-14T01:10:09Z</time>
      </trkpt>
      <trkpt lat="51.57918" lon="4.49664">
        <ele>3.2000000476837</ele>
        <time>2019-05-14T01:10:34Z</time>
      </trkpt>
      <trkpt lat="51.58012" lon="4.49658">
        <ele>3</ele>
        <time>2019-05-14T01:10:56Z</time>
      </trkpt>
      <trkpt lat="51.58101" lon="4.49648">
        <ele>3.4000000953674</ele>
        <time>2019-05-14T01:11:22Z</time>
      </trkpt>
      <trkpt lat="51.58289" lon="4.49575">
        <ele>4</ele>
        <time>2019-05-14T01:11:43Z</time>
      </trkpt>
      <trkpt lat="51.58347" lon="4.49556">
        <ele>4</ele>
        <time>2019-05-14T01:12:07Z</time>
      </trkpt>
      <trkpt lat="51.58371" lon="4.49575">
        <ele>4.1999998092651</ele>
        <time>2019-05-14T01:12:28Z</time>
      </trkpt>
      <trkpt lat="51.58439" lon="4.49644">
        <ele>2.4000000953674</ele>
        <time>2019-05-14T01:12:47Z</time>
      </trkpt>
      <trkpt lat="51.58454" lon="4.49658">
        <ele>0.80000001192093</ele>
        <time>2019-05-14T01:13:07Z</time>
      </trkpt>
      <trkpt lat="51.58478" lon="4.49685">
        <ele>0.80000001192093</ele>
        <time>2019-05-14T01:13:31Z</time>
      </trkpt>
      <trkpt lat="51.58508" lon="4.49733">
        <ele>3</ele>
        <time>2019-05-14T01:13:59Z</time>
      </trkpt>
      <trkpt lat="51.58531" lon="4.49765">
        <ele>3.2000000476837</ele>
        <time>2019-05-14T01:14:21Z</time>
      </trkpt>
      <trkpt lat="51.58556" lon="4.49752">
        <ele>3.2000000476837</ele>
        <time>2019-05-14T01:14:38Z</time>
      </trkpt>
      <trkpt lat="51.58621" lon="4.49814">
        <ele>3.4000000953674</ele>
        <time>2019-05-14T01:16:31Z</time>
      </trkpt>
      <trkpt lat="51.58675" lon="4.49893">
        <ele>3.2000000476837</ele>
        <time>2019-05-14T01:17:04Z</time>
      </trkpt>
      <trkpt lat="51.58731" lon="4.50027">
        <ele>2.7999999523163</ele>
        <time>2019-05-14T01:17:30Z</time>
      </trkpt>
      <trkpt lat="51.58796" lon="4.50181">
        <ele>2.7999999523163</ele>
        <time>2019-05-14T01:17:42Z</time>
      </trkpt>
      <trkpt lat="51.58819" lon="4.50265">
        <ele>3</ele>
        <time>2019-05-14T01:17:49Z</time>
      </trkpt>
      <trkpt lat="51.58846" lon="4.50371">
        <ele>2.7999999523163</ele>
        <time>2019-05-14T01:22:10Z</time>
      </trkpt>
      <trkpt lat="51.58887" lon="4.50514">
        <ele>2.4000000953674</ele>
        <time>2019-05-14T01:22:28Z</time>
      </trkpt>
      <trkpt lat="51.58924" lon="4.50691">
        <ele>2</ele>
        <time>2019-05-14T01:22:45Z</time>
      </trkpt>
      <trkpt lat="51.58956" lon="4.50795">
        <ele>1.7999999523163</ele>
        <time>2019-05-14T01:23:09Z</time>
      </trkpt>
      <trkpt lat="51.59089" lon="4.50735">
        <ele>2.4000000953674</ele>
        <time>2019-05-14T01:23:29Z</time>
      </trkpt>
      <trkpt lat="51.59195" lon="4.50685">
        <ele>2.4000000953674</ele>
        <time>2019-05-14T01:23:42Z</time>
      </trkpt>
      <trkpt lat="51.59294" lon="4.50687">
        <ele>2.2000000476837</ele>
        <time>2019-05-14T01:24:03Z</time>
      </trkpt>
      <trkpt lat="51.59364" lon="4.50706">
        <ele>2.5999999046326</ele>
        <time>2019-05-14T01:25:22Z</time>
      </trkpt>
      <trkpt lat="51.59397" lon="4.50696">
        <ele>2.4000000953674</ele>
        <time>2019-05-14T01:25:52Z</time>
      </trkpt>
      <trkpt lat="51.59478" lon="4.50712">
        <ele>2.5999999046326</ele>
        <time>2019-05-14T01:27:34Z</time>
      </trkpt>
      <trkpt lat="51.59527" lon="4.50772">
        <ele>2</ele>
        <time>2019-05-14T01:27:51Z</time>
      </trkpt>
      <trkpt lat="51.59603" lon="4.50878">
        <ele>1.7999999523163</ele>
        <time>2019-05-14T01:28:04Z</time>
      </trkpt>
      <trkpt lat="51.59699" lon="4.50965">
        <ele>1.7999999523163</ele>
        <time>2019-05-14T01:28:15Z</time>
      </trkpt>
      <trkpt lat="51.59799" lon="4.51028">
        <ele>1.6000000238419</ele>
        <time>2019-05-14T01:28:32Z</time>
      </trkpt>
      <trkpt lat="51.59966" lon="4.51147">
        <ele>1.6000000238419</ele>
        <time>2019-05-14T01:28:46Z</time>
      </trkpt>
      <trkpt lat="51.60029" lon="4.51195">
        <ele>1.7999999523163</ele>
        <time>2019-05-14T01:29:01Z</time>
      </trkpt>
      <trkpt lat="51.60114" lon="4.51257">
        <ele>1.3999999761581</ele>
        <time>2019-05-14T01:29:27Z</time>
      </trkpt>
      <trkpt lat="51.60181" lon="4.51444">
        <ele>1.3999999761581</ele>
        <time>2019-05-14T01:30:17Z</time>
      </trkpt>
      <trkpt lat="51.60223" lon="4.51615">
        <ele>1.6000000238419</ele>
        <time>2019-05-14T01:30:49Z</time>
      </trkpt>
      <trkpt lat="51.60265" lon="4.51676">
        <ele>1.7999999523163</ele>
        <time>2019-05-14T01:31:01Z</time>
      </trkpt>
      <trkpt lat="51.60298" lon="4.51685">
        <ele>4</ele>
        <time>2019-05-14T01:31:10Z</time>
      </trkpt>
      <trkpt lat="51.60384" lon="4.51682">
        <ele>3.7999999523163</ele>
        <time>2019-05-14T01:31:21Z</time>
      </trkpt>
      <trkpt lat="51.60493" lon="4.51669">
        <ele>4.1999998092651</ele>
        <time>2019-05-14T01:31:25Z</time>
      </trkpt>
      <trkpt lat="51.6059" lon="4.51661">
        <ele>3.7999999523163</ele>
        <time>2019-05-14T01:31:31Z</time>
      </trkpt>
      <trkpt lat="51.60604" lon="4.51723">
        <ele>3.7999999523163</ele>
        <time>2019-05-14T01:31:37Z</time>
      </trkpt>
      <trkpt lat="51.60609" lon="4.51777">
        <ele>5.5999999046326</ele>
        <time>2019-05-14T01:32:33Z</time>
      </trkpt>
      <trkpt lat="51.60617" lon="4.51818">
        <ele>5</ele>
        <time>2019-05-14T01:32:39Z</time>
      </trkpt>
      <trkpt lat="51.60675" lon="4.51869">
        <ele>4.1999998092651</ele>
        <time>2019-05-14T01:32:51Z</time>
      </trkpt>
      <trkpt lat="51.60773" lon="4.52072">
        <ele>4.1999998092651</ele>
        <time>2019-05-14T01:32:59Z</time>
      </trkpt>
      <trkpt lat="51.6078" lon="4.52124">
        <ele>4</ele>
        <time>2019-05-14T01:33:09Z</time>
      </trkpt>
      <trkpt lat="51.60787" lon="4.52133">
        <ele>3.7999999523163</ele>
        <time>2019-05-14T01:33:22Z</time>
      </trkpt>
      <trkpt lat="51.6082" lon="4.52138">
        <ele>3.7999999523163</ele>
        <time>2019-05-14T01:33:45Z</time>
      </trkpt>
      <trkpt lat="51.60921" lon="4.52352">
        <ele>4.1999998092651</ele>
        <time>2019-05-14T01:33:56Z</time>
      </trkpt>
      <trkpt lat="51.61036" lon="4.52619">
        <ele>4.1999998092651</ele>
        <time>2019-05-14T01:34:11Z</time>
      </trkpt>
      <trkpt lat="51.61087" lon="4.52769">
        <ele>4.4000000953674</ele>
        <time>2019-05-14T01:34:34Z</time>
      </trkpt>
      <trkpt lat="51.61242" lon="4.53182">
        <ele>3.7999999523163</ele>
        <time>2019-05-14T01:34:54Z</time>
      </trkpt>
      <trkpt lat="51.61305" lon="4.53403">
        <ele>3.7999999523163</ele>
        <time>2019-05-14T01:36:16Z</time>
      </trkpt>
      <trkpt lat="51.61323" lon="4.53554">
        <ele>4</ele>
        <time>2019-05-14T01:36:30Z</time>
      </trkpt>
      <trkpt lat="51.61334" lon="4.53634">
        <ele>4.1999998092651</ele>
        <time>2019-05-14T01:36:40Z</time>
      </trkpt>
      <trkpt lat="51.6135" lon="4.53674">
        <ele>4.1999998092651</ele>
        <time>2019-05-14T01:36:50Z</time>
      </trkpt>
      <trkpt lat="51.61394" lon="4.53697">
        <ele>3.5999999046326</ele>
        <time>2019-05-14T01:38:32Z</time>
      </trkpt>
      <trkpt lat="51.61452" lon="4.53742">
        <ele>5</ele>
        <time>2019-05-14T01:38:53Z</time>
      </trkpt>
      <trkpt lat="51.61536" lon="4.53806">
        <ele>4.8000001907349</ele>
        <time>2019-05-14T01:39:07Z</time>
      </trkpt>
      <trkpt lat="51.61597" lon="4.53885">
        <ele>4.8000001907349</ele>
        <time>2019-05-14T01:39:23Z</time>
      </trkpt>
      <trkpt lat="51.61639" lon="4.54048">
        <ele>4.8000001907349</ele>
        <time>2019-05-14T01:39:32Z</time>
      </trkpt>
      <trkpt lat="51.61682" lon="4.54214">
        <ele>5</ele>
        <time>2019-05-14T01:39:53Z</time>
      </trkpt>
      <trkpt lat="51.61715" lon="4.54356">
        <ele>5.4000000953674</ele>
        <time>2019-05-14T01:40:09Z</time>
      </trkpt>
      <trkpt lat="51.61823" lon="4.54776">
        <ele>4.8000001907349</ele>
        <time>2019-05-14T01:40:33Z</time>
      </trkpt>
      <trkpt lat="51.61893" lon="4.54956">
        <ele>4.8000001907349</ele>
        <time>2019-05-14T01:40:53Z</time>
      </trkpt>
      <trkpt lat="51.61903" lon="4.54973">
        <ele>4.5999999046326</ele>
        <time>2019-05-14T01:41:09Z</time>
      </trkpt>
      <trkpt lat="51.61906" lon="4.54977">
        <ele>4.8000001907349</ele>
        <time>2019-05-14T01:41:29Z</time>
      </trkpt>
      <trkpt lat="51.61999" lon="4.55131">
        <ele>5.4000000953674</ele>
        <time>2019-05-14T01:41:43Z</time>
      </trkpt>
      <trkpt lat="51.62042" lon="4.55203">
        <ele>6</ele>
        <time>2019-05-14T01:42:03Z</time>
      </trkpt>
      <trkpt lat="51.62114" lon="4.55322">
        <ele>5.8000001907349</ele>
        <time>2019-05-14T01:42:22Z</time>
      </trkpt>
      <trkpt lat="51.62184" lon="4.55446">
        <ele>6</ele>
        <time>2019-05-14T01:42:40Z</time>
      </trkpt>
      <trkpt lat="51.62249" lon="4.55559">
        <ele>5.5999999046326</ele>
        <time>2019-05-14T01:43:06Z</time>
      </trkpt>
      <trkpt lat="51.62332" lon="4.55702">
        <ele>5.8000001907349</ele>
        <time>2019-05-14T01:43:33Z</time>
      </trkpt>
      <trkpt lat="51.62397" lon="4.55814">
        <ele>5.5999999046326</ele>
        <time>2019-05-14T01:43:54Z</time>
      </trkpt>
      <trkpt lat="51.62449" lon="4.55907">
        <ele>6</ele>
        <time>2019-05-14T01:44:17Z</time>
      </trkpt>
      <trkpt lat="51.62503" lon="4.56021">
        <ele>5.5999999046326</ele>
        <time>2019-05-14T01:44:28Z</time>
      </trkpt>
      <trkpt lat="51.6255" lon="4.56116">
        <ele>6</ele>
        <time>2019-05-14T01:44:53Z</time>
      </trkpt>
      <trkpt lat="51.62594" lon="4.56211">
        <ele>5.5999999046326</ele>
        <time>2019-05-14T01:45:08Z</time>
      </trkpt>
      <trkpt lat="51.62623" lon="4.56349">
        <ele>5.5999999046326</ele>
        <time>2019-05-14T01:45:21Z</time>
      </trkpt>
      <trkpt lat="51.62615" lon="4.5658">
        <ele>6.5999999046326</ele>
        <time>2019-05-14T01:45:38Z</time>
      </trkpt>
      <trkpt lat="51.62616" lon="4.56622">
        <ele>6.4000000953674</ele>
        <time>2019-05-14T01:45:56Z</time>
      </trkpt>
      <trkpt lat="51.62609" lon="4.56767">
        <ele>6.8000001907349</ele>
        <time>2019-05-14T01:46:18Z</time>
      </trkpt>
      <trkpt lat="51.62604" lon="4.56885">
        <ele>6.5999999046326</ele>
        <time>2019-05-14T01:46:46Z</time>
      </trkpt>
      <trkpt lat="51.62621" lon="4.57147">
        <ele>7</ele>
        <time>2019-05-14T01:47:03Z</time>
      </trkpt>
      <trkpt lat="51.62626" lon="4.57243">
        <ele>7.1999998092651</ele>
        <time>2019-05-14T01:47:27Z</time>
      </trkpt>
      <trkpt lat="51.62631" lon="4.57376">
        <ele>7.1999998092651</ele>
        <time>2019-05-14T01:47:50Z</time>
      </trkpt>
      <trkpt lat="51.62638" lon="4.57475">
        <ele>7.4000000953674</ele>
        <time>2019-05-14T01:48:14Z</time>
      </trkpt>
      <trkpt lat="51.6265" lon="4.5761">
        <ele>7.1999998092651</ele>
        <time>2019-05-14T01:48:39Z</time>
      </trkpt>
      <trkpt lat="51.62661" lon="4.57772">
        <ele>6.8000001907349</ele>
        <time>2019-05-14T01:48:56Z</time>
      </trkpt>
      <trkpt lat="51.62672" lon="4.57918">
        <ele>7</ele>
        <time>2019-05-14T01:49:11Z</time>
      </trkpt>
      <trkpt lat="51.62679" lon="4.58046">
        <ele>6.8000001907349</ele>
        <time>2019-05-14T01:49:44Z</time>
      </trkpt>
      <trkpt lat="51.62641" lon="4.58184">
        <ele>6.8000001907349</ele>
        <time>2019-05-14T01:50:16Z</time>
      </trkpt>
      <trkpt lat="51.62595" lon="4.58324">
        <ele>6.5999999046326</ele>
        <time>2019-05-14T01:50:41Z</time>
      </trkpt>
      <trkpt lat="51.62562" lon="4.58428">
        <ele>6.8000001907349</ele>
        <time>2019-05-14T01:51:10Z</time>
      </trkpt>
      <trkpt lat="51.62523" lon="4.58545">
        <ele>7.8000001907349</ele>
        <time>2019-05-14T01:51:42Z</time>
      </trkpt>
      <trkpt lat="51.62511" lon="4.58579">
        <ele>8.3999996185303</ele>
        <time>2019-05-14T01:51:59Z</time>
      </trkpt>
      <trkpt lat="51.62505" lon="4.58614">
        <ele>9.1999998092651</ele>
        <time>2019-05-14T01:52:19Z</time>
      </trkpt>
      <trkpt lat="51.62514" lon="4.58611">
        <ele>10</ele>
        <time>2019-05-14T01:52:48Z</time>
      </trkpt>
      <trkpt lat="51.6256" lon="4.58632">
        <ele>10.39999961853</ele>
        <time>2019-05-14T01:53:09Z</time>
      </trkpt>
      <trkpt lat="51.62598" lon="4.58647">
        <ele>11.39999961853</ele>
        <time>2019-05-14T01:53:38Z</time>
      </trkpt>
      <trkpt lat="51.62612" lon="4.58652">
        <ele>12.60000038147</ele>
        <time>2019-05-14T01:54:06Z</time>
      </trkpt>
      <trkpt lat="51.62649" lon="4.58668">
        <ele>12.800000190735</ele>
        <time>2019-05-14T01:54:37Z</time>
      </trkpt>
      <trkpt lat="51.62713" lon="4.58694">
        <ele>12.199999809265</ele>
        <time>2019-05-14T01:55:04Z</time>
      </trkpt>
      <trkpt lat="51.6286" lon="4.58753">
        <ele>8.8000001907349</ele>
        <time>2019-05-14T01:55:25Z</time>
      </trkpt>
      <trkpt lat="51.62918" lon="4.58777">
        <ele>8</ele>
        <time>2019-05-14T01:55:53Z</time>
      </trkpt>
      <trkpt lat="51.6299" lon="4.58835">
        <ele>8</ele>
        <time>2019-05-14T01:56:24Z</time>
      </trkpt>
      <trkpt lat="51.63083" lon="4.58924">
        <ele>8.1999998092651</ele>
        <time>2019-05-14T01:57:18Z</time>
      </trkpt>
      <trkpt lat="51.63147" lon="4.58986">
        <ele>7.5999999046326</ele>
        <time>2019-05-14T01:57:25Z</time>
      </trkpt>
      <trkpt lat="51.63226" lon="4.59063">
        <ele>7.8000001907349</ele>
        <time>2019-05-14T01:57:42Z</time>
      </trkpt>
      <trkpt lat="51.63474" lon="4.59314">
        <ele>7.8000001907349</ele>
        <time>2019-05-14T01:58:04Z</time>
      </trkpt>
      <trkpt lat="51.63528" lon="4.59365">
        <ele>7.5999999046326</ele>
        <time>2019-05-14T01:58:31Z</time>
      </trkpt>
      <trkpt lat="51.63596" lon="4.59432">
        <ele>7.5999999046326</ele>
        <time>2019-05-14T01:58:58Z</time>
      </trkpt>
      <trkpt lat="51.63677" lon="4.59513">
        <ele>7.4000000953674</ele>
        <time>2019-05-14T01:59:16Z</time>
      </trkpt>
      <trkpt lat="51.63744" lon="4.5958">
        <ele>8.3999996185303</ele>
        <time>2019-05-14T01:59:29Z</time>
      </trkpt>
      <trkpt lat="51.63792" lon="4.59625">
        <ele>7.4000000953674</ele>
        <time>2019-05-14T01:59:54Z</time>
      </trkpt>
      <trkpt lat="51.63862" lon="4.59693">
        <ele>7.5999999046326</ele>
        <time>2019-05-14T02:00:19Z</time>
      </trkpt>
      <trkpt lat="51.63991" lon="4.598">
        <ele>7.1999998092651</ele>
        <time>2019-05-14T02:00:38Z</time>
      </trkpt>
      <trkpt lat="51.64072" lon="4.59872">
        <ele>7.4000000953674</ele>
        <time>2019-05-14T02:01:04Z</time>
      </trkpt>
      <trkpt lat="51.64142" lon="4.59935">
        <ele>7.4000000953674</ele>
        <time>2019-05-14T02:01:24Z</time>
      </trkpt>
      <trkpt lat="51.64214" lon="4.60001">
        <ele>7.5999999046326</ele>
        <time>2019-05-14T02:01:43Z</time>
      </trkpt>
      <trkpt lat="51.64262" lon="4.60073">
        <ele>7.4000000953674</ele>
        <time>2019-05-14T02:01:51Z</time>
      </trkpt>
      <trkpt lat="51.64303" lon="4.60152">
        <ele>7.8000001907349</ele>
        <time>2019-05-14T02:02:01Z</time>
      </trkpt>
      <trkpt lat="51.6432" lon="4.60169">
        <ele>7.4000000953674</ele>
        <time>2019-05-14T02:02:25Z</time>
      </trkpt>
      <trkpt lat="51.6435" lon="4.60163">
        <ele>7.8000001907349</ele>
        <time>2019-05-14T02:02:48Z</time>
      </trkpt>
      <trkpt lat="51.6438" lon="4.60227">
        <ele>8.1999998092651</ele>
        <time>2019-05-14T02:03:00Z</time>
      </trkpt>
      <trkpt lat="51.64377" lon="4.60237">
        <ele>8</ele>
        <time>2019-05-14T02:03:15Z</time>
      </trkpt>
      <trkpt lat="51.64418" lon="4.60324">
        <ele>8.3999996185303</ele>
        <time>2019-05-14T02:03:39Z</time>
      </trkpt>
      <trkpt lat="51.64425" lon="4.60335">
        <ele>8.1999998092651</ele>
        <time>2019-05-14T02:04:05Z</time>
      </trkpt>
      <trkpt lat="51.64448" lon="4.60391">
        <ele>8.3999996185303</ele>
        <time>2019-05-14T02:04:19Z</time>
      </trkpt>
      <trkpt lat="51.64476" lon="4.6045">
        <ele>8</ele>
        <time>2019-05-14T02:04:26Z</time>
      </trkpt>
      <trkpt lat="51.64483" lon="4.60469">
        <ele>8</ele>
        <time>2019-05-14T02:04:47Z</time>
      </trkpt>
      <trkpt lat="51.64469" lon="4.6043">
        <ele>8</ele>
        <time>2019-05-14T02:05:11Z</time>
      </trkpt>
      <trkpt lat="51.64464" lon="4.60426">
        <ele>8.1999998092651</ele>
        <time>2019-05-14T02:05:38Z</time>
      </trkpt>
      <trkpt lat="51.64459" lon="4.60439">
        <ele>8.8000001907349</ele>
        <time>2019-05-14T02:05:50Z</time>
      </trkpt>
      <trkpt lat="51.64424" lon="4.60477">
        <ele>9.3999996185303</ele>
        <time>2019-05-14T02:06:16Z</time>
      </trkpt>
      <trkpt lat="51.64426" lon="4.60488">
        <ele>12.199999809265</ele>
        <time>2019-05-14T02:06:47Z</time>
      </trkpt>
      <trkpt lat="51.64431" lon="4.60503">
        <ele>11.39999961853</ele>
        <time>2019-05-14T02:07:12Z</time>
      </trkpt>
      <trkpt lat="51.64454" lon="4.60564">
        <ele>11.39999961853</ele>
        <time>2019-05-14T02:07:37Z</time>
      </trkpt>
      <trkpt lat="51.64461" lon="4.60597">
        <ele>10.60000038147</ele>
        <time>2019-05-14T02:08:02Z</time>
      </trkpt>
      <trkpt lat="51.64477" lon="4.60632">
        <ele>11</ele>
        <time>2019-05-14T02:08:31Z</time>
      </trkpt>
      <trkpt lat="51.64491" lon="4.60634">
        <ele>10.800000190735</ele>
        <time>2019-05-14T02:08:57Z</time>
      </trkpt>
      <trkpt lat="51.64487" lon="4.60641">
        <ele>11.199999809265</ele>
        <time>2019-05-14T02:09:20Z</time>
      </trkpt>
      <trkpt lat="51.64464" lon="4.60706">
        <ele>11.39999961853</ele>
        <time>2019-05-14T02:09:38Z</time>
      </trkpt>
      <trkpt lat="51.64459" lon="4.60736">
        <ele>11.39999961853</ele>
        <time>2019-05-14T02:09:51Z</time>
      </trkpt>
      <trkpt lat="51.64452" lon="4.60763">
        <ele>12</ele>
        <time>2019-05-14T02:10:14Z</time>
      </trkpt>
      <trkpt lat="51.64407" lon="4.60825">
        <ele>12.39999961853</ele>
        <time>2019-05-14T02:10:43Z</time>
      </trkpt>
      <trkpt lat="51.64312" lon="4.60974">
        <ele>10</ele>
        <time>2019-05-14T02:11:12Z</time>
      </trkpt>
      <trkpt lat="51.64297" lon="4.60993">
        <ele>9.1999998092651</ele>
        <time>2019-05-14T02:11:21Z</time>
      </trkpt>
      <trkpt lat="51.64256" lon="4.61004">
        <ele>9</ele>
        <time>2019-05-14T02:11:38Z</time>
      </trkpt>
      <trkpt lat="51.64209" lon="4.60977">
        <ele>8.8000001907349</ele>
        <time>2019-05-14T02:12:12Z</time>
      </trkpt>
      <trkpt lat="51.64151" lon="4.6093">
        <ele>8.8000001907349</ele>
        <time>2019-05-14T02:12:35Z</time>
      </trkpt>
      <trkpt lat="51.64153" lon="4.60913">
        <ele>8.8000001907349</ele>
        <time>2019-05-14T02:13:00Z</time>
      </trkpt>
      <trkpt lat="51.64166" lon="4.60873">
        <ele>9</ele>
        <time>2019-05-14T02:13:19Z</time>
      </trkpt>
      <trkpt lat="51.64186" lon="4.60801">
        <ele>9</ele>
        <time>2019-05-14T02:13:40Z</time>
      </trkpt>
      <trkpt lat="51.64202" lon="4.60747">
        <ele>9.1999998092651</ele>
        <time>2019-05-14T02:15:08Z</time>
      </trkpt>
      <trkpt lat="51.64231" lon="4.60546">
        <ele>9.6000003814697</ele>
        <time>2019-05-14T02:15:21Z</time>
      </trkpt>
      <trkpt lat="51.64248" lon="4.60444">
        <ele>10.39999961853</ele>
        <time>2019-05-14T02:15:45Z</time>
      </trkpt>
      <trkpt lat="51.64275" lon="4.60426">
        <ele>10.60000038147</ele>
        <time>2019-05-14T02:20:44Z</time>
      </trkpt>
      <trkpt lat="51.6433" lon="4.6047">
        <ele>11.199999809265</ele>
        <time>2019-05-14T02:21:07Z</time>
      </trkpt>
      <trkpt lat="51.64402" lon="4.60616">
        <ele>10.800000190735</ele>
        <time>2019-05-14T02:21:32Z</time>
      </trkpt>
      <trkpt lat="51.64457" lon="4.60709">
        <ele>12.199999809265</ele>
        <time>2019-05-14T02:21:49Z</time>
      </trkpt>
      <trkpt lat="51.64482" lon="4.60787">
        <ele>12.199999809265</ele>
        <time>2019-05-14T02:22:12Z</time>
      </trkpt>
      <trkpt lat="51.64509" lon="4.60863">
        <ele>10.39999961853</ele>
        <time>2019-05-14T02:22:32Z</time>
      </trkpt>
      <trkpt lat="51.64539" lon="4.60944">
        <ele>10</ele>
        <time>2019-05-14T02:22:50Z</time>
      </trkpt>
      <trkpt lat="51.64559" lon="4.61013">
        <ele>10</ele>
        <time>2019-05-14T02:23:04Z</time>
      </trkpt>
      <trkpt lat="51.64642" lon="4.61052">
        <ele>10.39999961853</ele>
        <time>2019-05-14T02:23:25Z</time>
      </trkpt>
      <trkpt lat="51.64666" lon="4.61082">
        <ele>11.199999809265</ele>
        <time>2019-05-14T02:23:47Z</time>
      </trkpt>
      <trkpt lat="51.64678" lon="4.61086">
        <ele>10.60000038147</ele>
        <time>2019-05-14T02:24:00Z</time>
      </trkpt>
      <trkpt lat="51.64735" lon="4.61097">
        <ele>11.60000038147</ele>
        <time>2019-05-14T02:24:09Z</time>
      </trkpt>
      <trkpt lat="51.64818" lon="4.61108">
        <ele>12</ele>
        <time>2019-05-14T02:24:22Z</time>
      </trkpt>
      <trkpt lat="51.64865" lon="4.61105">
        <ele>12.39999961853</ele>
        <time>2019-05-14T02:24:43Z</time>
      </trkpt>
      <trkpt lat="51.64946" lon="4.61077">
        <ele>12.199999809265</ele>
        <time>2019-05-14T02:25:03Z</time>
      </trkpt>
      <trkpt lat="51.65016" lon="4.61057">
        <ele>11.60000038147</ele>
        <time>2019-05-14T02:25:25Z</time>
      </trkpt>
      <trkpt lat="51.65015" lon="4.6102">
        <ele>11.60000038147</ele>
        <time>2019-05-14T02:25:40Z</time>
      </trkpt>
      <trkpt lat="51.65009" lon="4.60958">
        <ele>11.800000190735</ele>
        <time>2019-05-14T02:26:03Z</time>
      </trkpt>
      <trkpt lat="51.6503" lon="4.60952">
        <ele>11.800000190735</ele>
        <time>2019-05-14T02:26:29Z</time>
      </trkpt>
      <trkpt lat="51.65118" lon="4.60939">
        <ele>12</ele>
        <time>2019-05-14T02:26:54Z</time>
      </trkpt>
      <trkpt lat="51.65252" lon="4.60912">
        <ele>12.60000038147</ele>
        <time>2019-05-14T02:27:10Z</time>
      </trkpt>
      <trkpt lat="51.65423" lon="4.6089">
        <ele>13</ele>
        <time>2019-05-14T02:27:30Z</time>
      </trkpt>
      <trkpt lat="51.65638" lon="4.60895">
        <ele>13</ele>
        <time>2019-05-14T02:27:52Z</time>
      </trkpt>
      <trkpt lat="51.65731" lon="4.60911">
        <ele>12.39999961853</ele>
        <time>2019-05-14T02:28:10Z</time>
      </trkpt>
      <trkpt lat="51.6595" lon="4.60921">
        <ele>12.39999961853</ele>
        <time>2019-05-14T02:28:30Z</time>
      </trkpt>
      <trkpt lat="51.66019" lon="4.60925">
        <ele>12.800000190735</ele>
        <time>2019-05-14T02:28:50Z</time>
      </trkpt>
      <trkpt lat="51.66103" lon="4.60926">
        <ele>12.39999961853</ele>
        <time>2019-05-14T02:29:15Z</time>
      </trkpt>
      <trkpt lat="51.66198" lon="4.60929">
        <ele>12.39999961853</ele>
        <time>2019-05-14T02:29:37Z</time>
      </trkpt>
      <trkpt lat="51.66278" lon="4.60936">
        <ele>12.800000190735</ele>
        <time>2019-05-14T02:29:59Z</time>
      </trkpt>
      <trkpt lat="51.66387" lon="4.60948">
        <ele>12.800000190735</ele>
        <time>2019-05-14T02:30:09Z</time>
      </trkpt>
      <trkpt lat="51.66488" lon="4.60955">
        <ele>12.60000038147</ele>
        <time>2019-05-14T02:30:23Z</time>
      </trkpt>
      <trkpt lat="51.66588" lon="4.60965">
        <ele>13</ele>
        <time>2019-05-14T02:30:44Z</time>
      </trkpt>
      <trkpt lat="51.66643" lon="4.60981">
        <ele>13.39999961853</ele>
        <time>2019-05-14T02:31:05Z</time>
      </trkpt>
      <trkpt lat="51.66681" lon="4.61017">
        <ele>13.39999961853</ele>
        <time>2019-05-14T02:31:29Z</time>
      </trkpt>
      <trkpt lat="51.66751" lon="4.61082">
        <ele>13.60000038147</ele>
        <time>2019-05-14T02:31:51Z</time>
      </trkpt>
      <trkpt lat="51.668" lon="4.61155">
        <ele>13.60000038147</ele>
        <time>2019-05-14T02:32:18Z</time>
      </trkpt>
      <trkpt lat="51.66855" lon="4.6129">
        <ele>14</ele>
        <time>2019-05-14T02:32:34Z</time>
      </trkpt>
      <trkpt lat="51.66895" lon="4.61389">
        <ele>14.199999809265</ele>
        <time>2019-05-14T02:32:49Z</time>
      </trkpt>
      <trkpt lat="51.66953" lon="4.615">
        <ele>13.800000190735</ele>
        <time>2019-05-14T02:33:08Z</time>
      </trkpt>
      <trkpt lat="51.67023" lon="4.61593">
        <ele>13.60000038147</ele>
        <time>2019-05-14T02:33:29Z</time>
      </trkpt>
      <trkpt lat="51.67087" lon="4.61667">
        <ele>14</ele>
        <time>2019-05-14T02:33:43Z</time>
      </trkpt>
      <trkpt lat="51.67159" lon="4.61733">
        <ele>13.60000038147</ele>
        <time>2019-05-14T02:34:01Z</time>
      </trkpt>
      <trkpt lat="51.67225" lon="4.61775">
        <ele>13.800000190735</ele>
        <time>2019-05-14T02:34:26Z</time>
      </trkpt>
      <trkpt lat="51.67288" lon="4.61815">
        <ele>13.199999809265</ele>
        <time>2019-05-14T02:34:50Z</time>
      </trkpt>
      <trkpt lat="51.6735" lon="4.61854">
        <ele>13</ele>
        <time>2019-05-14T02:35:11Z</time>
      </trkpt>
      <trkpt lat="51.67414" lon="4.61897">
        <ele>13.199999809265</ele>
        <time>2019-05-14T02:35:26Z</time>
      </trkpt>
      <trkpt lat="51.67483" lon="4.6194">
        <ele>13.199999809265</ele>
        <time>2019-05-14T02:35:50Z</time>
      </trkpt>
      <trkpt lat="51.67562" lon="4.61969">
        <ele>12.800000190735</ele>
        <time>2019-05-14T02:36:02Z</time>
      </trkpt>
      <trkpt lat="51.67634" lon="4.6197">
        <ele>12.60000038147</ele>
        <time>2019-05-14T02:36:26Z</time>
      </trkpt>
      <trkpt lat="51.67711" lon="4.61971">
        <ele>12.60000038147</ele>
        <time>2019-05-14T02:36:45Z</time>
      </trkpt>
      <trkpt lat="51.67829" lon="4.61963">
        <ele>13.199999809265</ele>
        <time>2019-05-14T02:37:07Z</time>
      </trkpt>
      <trkpt lat="51.67998" lon="4.61949">
        <ele>13.199999809265</ele>
        <time>2019-05-14T02:37:32Z</time>
      </trkpt>
      <trkpt lat="51.68112" lon="4.61922">
        <ele>12.60000038147</ele>
        <time>2019-05-14T02:37:48Z</time>
      </trkpt>
      <trkpt lat="51.682" lon="4.61906">
        <ele>12.39999961853</ele>
        <time>2019-05-14T02:38:16Z</time>
      </trkpt>
      <trkpt lat="51.68287" lon="4.61909">
        <ele>12.39999961853</ele>
        <time>2019-05-14T02:38:34Z</time>
      </trkpt>
      <trkpt lat="51.6835" lon="4.6196">
        <ele>11.800000190735</ele>
        <time>2019-05-14T02:38:54Z</time>
      </trkpt>
      <trkpt lat="51.68394" lon="4.61958">
        <ele>11.800000190735</ele>
        <time>2019-05-14T02:39:08Z</time>
      </trkpt>
      <trkpt lat="51.68451" lon="4.61895">
        <ele>11.60000038147</ele>
        <time>2019-05-14T02:39:30Z</time>
      </trkpt>
      <trkpt lat="51.68538" lon="4.61796">
        <ele>12.199999809265</ele>
        <time>2019-05-14T02:39:56Z</time>
      </trkpt>
      <trkpt lat="51.68632" lon="4.61687">
        <ele>12.39999961853</ele>
        <time>2019-05-14T02:40:21Z</time>
      </trkpt>
      <trkpt lat="51.68721" lon="4.61615">
        <ele>12.39999961853</ele>
        <time>2019-05-14T02:42:01Z</time>
      </trkpt>
      <trkpt lat="51.68781" lon="4.61596">
        <ele>12.39999961853</ele>
        <time>2019-05-14T02:42:15Z</time>
      </trkpt>
      <trkpt lat="51.68839" lon="4.61743">
        <ele>10.39999961853</ele>
        <time>2019-05-14T02:42:31Z</time>
      </trkpt>
      <trkpt lat="51.68947" lon="4.61912">
        <ele>10.39999961853</ele>
        <time>2019-05-14T02:42:48Z</time>
      </trkpt>
      <trkpt lat="51.69029" lon="4.62002">
        <ele>10.60000038147</ele>
        <time>2019-05-14T02:43:02Z</time>
      </trkpt>
      <trkpt lat="51.69102" lon="4.62064">
        <ele>10.60000038147</ele>
        <time>2019-05-14T02:43:20Z</time>
      </trkpt>
      <trkpt lat="51.69188" lon="4.62127">
        <ele>10.199999809265</ele>
        <time>2019-05-14T02:43:35Z</time>
      </trkpt>
      <trkpt lat="51.693" lon="4.62221">
        <ele>10.199999809265</ele>
        <time>2019-05-14T02:43:56Z</time>
      </trkpt>
      <trkpt lat="51.69369" lon="4.62272">
        <ele>10</ele>
        <time>2019-05-14T02:44:28Z</time>
      </trkpt>
      <trkpt lat="51.69443" lon="4.62324">
        <ele>10.199999809265</ele>
        <time>2019-05-14T02:44:57Z</time>
      </trkpt>
      <trkpt lat="51.69515" lon="4.62389">
        <ele>9.6000003814697</ele>
        <time>2019-05-14T02:45:20Z</time>
      </trkpt>
      <trkpt lat="51.69588" lon="4.6245">
        <ele>9.3999996185303</ele>
        <time>2019-05-14T02:45:37Z</time>
      </trkpt>
      <trkpt lat="51.6966" lon="4.62512">
        <ele>9.6000003814697</ele>
        <time>2019-05-14T02:46:01Z</time>
      </trkpt>
      <trkpt lat="51.69723" lon="4.62576">
        <ele>9.6000003814697</ele>
        <time>2019-05-14T02:46:24Z</time>
      </trkpt>
      <trkpt lat="51.69789" lon="4.62652">
        <ele>9.8000001907349</ele>
        <time>2019-05-14T02:46:41Z</time>
      </trkpt>
      <trkpt lat="51.69824" lon="4.62699">
        <ele>9.6000003814697</ele>
        <time>2019-05-14T02:47:09Z</time>
      </trkpt>
      <trkpt lat="51.69852" lon="4.62686">
        <ele>9.8000001907349</ele>
        <time>2019-05-14T02:47:37Z</time>
      </trkpt>
      <trkpt lat="51.69907" lon="4.62637">
        <ele>9.6000003814697</ele>
        <time>2019-05-14T02:48:09Z</time>
      </trkpt>
      <trkpt lat="51.69969" lon="4.62679">
        <ele>9.8000001907349</ele>
        <time>2019-05-14T02:48:39Z</time>
      </trkpt>
      <trkpt lat="51.70035" lon="4.6271">
        <ele>9.8000001907349</ele>
        <time>2019-05-14T02:49:04Z</time>
      </trkpt>
      <trkpt lat="51.7009" lon="4.62691">
        <ele>9.6000003814697</ele>
        <time>2019-05-14T02:49:32Z</time>
      </trkpt>
      <trkpt lat="51.70143" lon="4.62637">
        <ele>9.6000003814697</ele>
        <time>2019-05-14T02:49:59Z</time>
      </trkpt>
      <trkpt lat="51.70184" lon="4.62552">
        <ele>9.8000001907349</ele>
        <time>2019-05-14T02:50:17Z</time>
      </trkpt>
      <trkpt lat="51.70214" lon="4.62466">
        <ele>9.6000003814697</ele>
        <time>2019-05-14T03:12:15Z</time>
      </trkpt>
      <trkpt lat="51.70249" lon="4.62354">
        <ele>9.8000001907349</ele>
        <time>2019-05-14T03:12:27Z</time>
      </trkpt>
      <trkpt lat="51.70263" lon="4.62325">
        <ele>10</ele>
        <time>2019-05-14T03:13:45Z</time>
      </trkpt>
      <trkpt lat="51.70285" lon="4.62325">
        <ele>10.39999961853</ele>
        <time>2019-05-14T03:13:59Z</time>
      </trkpt>
      <trkpt lat="51.70321" lon="4.62343">
        <ele>10.39999961853</ele>
        <time>2019-05-14T03:14:13Z</time>
      </trkpt>
      <trkpt lat="51.704" lon="4.62406">
        <ele>13</ele>
        <time>2019-05-14T03:14:37Z</time>
      </trkpt>
      <trkpt lat="51.7044" lon="4.62453">
        <ele>13</ele>
        <time>2019-05-14T03:15:03Z</time>
      </trkpt>
      <trkpt lat="51.70481" lon="4.62417">
        <ele>13.39999961853</ele>
        <time>2019-05-14T03:15:22Z</time>
      </trkpt>
      <trkpt lat="51.70557" lon="4.62413">
        <ele>13.60000038147</ele>
        <time>2019-05-14T03:15:42Z</time>
      </trkpt>
      <trkpt lat="51.70625" lon="4.6242">
        <ele>14.199999809265</ele>
        <time>2019-05-14T03:16:02Z</time>
      </trkpt>
      <trkpt lat="51.70664" lon="4.62373">
        <ele>16</ele>
        <time>2019-05-14T03:16:19Z</time>
      </trkpt>
      <trkpt lat="51.70724" lon="4.62414">
        <ele>15.800000190735</ele>
        <time>2019-05-14T03:16:41Z</time>
      </trkpt>
      <trkpt lat="51.70815" lon="4.62613">
        <ele>10.800000190735</ele>
        <time>2019-05-14T03:17:06Z</time>
      </trkpt>
      <trkpt lat="51.7086" lon="4.62724">
        <ele>9.8000001907349</ele>
        <time>2019-05-14T03:17:25Z</time>
      </trkpt>
      <trkpt lat="51.70894" lon="4.62818">
        <ele>9.8000001907349</ele>
        <time>2019-05-14T03:17:48Z</time>
      </trkpt>
      <trkpt lat="51.70929" lon="4.62926">
        <ele>10</ele>
        <time>2019-05-14T03:18:13Z</time>
      </trkpt>
      <trkpt lat="51.70979" lon="4.63097">
        <ele>9.8000001907349</ele>
        <time>2019-05-14T03:18:35Z</time>
      </trkpt>
      <trkpt lat="51.7102" lon="4.63233">
        <ele>9.8000001907349</ele>
        <time>2019-05-14T03:18:56Z</time>
      </trkpt>
      <trkpt lat="51.71066" lon="4.63386">
        <ele>10.199999809265</ele>
        <time>2019-05-14T03:19:23Z</time>
      </trkpt>
      <trkpt lat="51.71102" lon="4.63508">
        <ele>10</ele>
        <time>2019-05-14T03:19:39Z</time>
      </trkpt>
      <trkpt lat="51.71131" lon="4.63643">
        <ele>10</ele>
        <time>2019-05-14T03:20:02Z</time>
      </trkpt>
      <trkpt lat="51.71159" lon="4.63774">
        <ele>9.8000001907349</ele>
        <time>2019-05-14T03:20:18Z</time>
      </trkpt>
      <trkpt lat="51.7121" lon="4.63916">
        <ele>12.60000038147</ele>
        <time>2019-05-14T03:20:41Z</time>
      </trkpt>
      <trkpt lat="51.71224" lon="4.63976">
        <ele>13.39999961853</ele>
        <time>2019-05-14T03:21:05Z</time>
      </trkpt>
      <trkpt lat="51.71239" lon="4.64025">
        <ele>13.60000038147</ele>
        <time>2019-05-14T03:21:26Z</time>
      </trkpt>
      <trkpt lat="51.71242" lon="4.6405">
        <ele>13.199999809265</ele>
        <time>2019-05-14T03:21:42Z</time>
      </trkpt>
      <trkpt lat="51.71225" lon="4.64052">
        <ele>13.199999809265</ele>
        <time>2019-05-14T03:22:10Z</time>
      </trkpt>
      <trkpt lat="51.71186" lon="4.6406">
        <ele>13.60000038147</ele>
        <time>2019-05-14T03:22:44Z</time>
      </trkpt>
      <trkpt lat="51.71142" lon="4.64083">
        <ele>16.39999961853</ele>
        <time>2019-05-14T03:23:13Z</time>
      </trkpt>
      <trkpt lat="51.71141" lon="4.64074">
        <ele>17.39999961853</ele>
        <time>2019-05-14T03:23:36Z</time>
      </trkpt>
      <trkpt lat="51.71275" lon="4.63979">
        <ele>21.200000762939</ele>
        <time>2019-05-14T03:24:04Z</time>
      </trkpt>
      <trkpt lat="51.71314" lon="4.63955">
        <ele>22</ele>
        <time>2019-05-14T03:24:29Z</time>
      </trkpt>
      <trkpt lat="51.7139" lon="4.63908">
        <ele>22.200000762939</ele>
        <time>2019-05-14T03:24:52Z</time>
      </trkpt>
      <trkpt lat="51.71425" lon="4.63889">
        <ele>23.60000038147</ele>
        <time>2019-05-14T03:25:05Z</time>
      </trkpt>
      <trkpt lat="51.71485" lon="4.63852">
        <ele>23.799999237061</ele>
        <time>2019-05-14T03:25:18Z</time>
      </trkpt>
      <trkpt lat="51.71626" lon="4.63764">
        <ele>25</ele>
        <time>2019-05-14T03:25:33Z</time>
      </trkpt>
      <trkpt lat="51.7171" lon="4.63714">
        <ele>25</ele>
        <time>2019-05-14T03:25:50Z</time>
      </trkpt>
      <trkpt lat="51.71776" lon="4.63674">
        <ele>25.60000038147</ele>
        <time>2019-05-14T03:26:05Z</time>
      </trkpt>
      <trkpt lat="51.71857" lon="4.63625">
        <ele>25.60000038147</ele>
        <time>2019-05-14T03:26:31Z</time>
      </trkpt>
      <trkpt lat="51.71939" lon="4.63575">
        <ele>25.39999961853</ele>
        <time>2019-05-14T03:26:51Z</time>
      </trkpt>
      <trkpt lat="51.72033" lon="4.63518">
        <ele>24.799999237061</ele>
        <time>2019-05-14T03:27:02Z</time>
      </trkpt>
      <trkpt lat="51.72087" lon="4.63486">
        <ele>23.60000038147</ele>
        <time>2019-05-14T03:27:28Z</time>
      </trkpt>
      <trkpt lat="51.72145" lon="4.6345">
        <ele>23</ele>
        <time>2019-05-14T03:27:50Z</time>
      </trkpt>
      <trkpt lat="51.72208" lon="4.63418">
        <ele>22.60000038147</ele>
        <time>2019-05-14T03:28:00Z</time>
      </trkpt>
      <trkpt lat="51.72258" lon="4.63394">
        <ele>21.60000038147</ele>
        <time>2019-05-14T03:28:23Z</time>
      </trkpt>
      <trkpt lat="51.72293" lon="4.63374">
        <ele>21.39999961853</ele>
        <time>2019-05-14T03:28:35Z</time>
      </trkpt>
      <trkpt lat="51.72323" lon="4.63357">
        <ele>20.200000762939</ele>
        <time>2019-05-14T03:28:57Z</time>
      </trkpt>
      <trkpt lat="51.72393" lon="4.63322">
        <ele>19.39999961853</ele>
        <time>2019-05-14T03:29:09Z</time>
      </trkpt>
      <trkpt lat="51.72583" lon="4.63257">
        <ele>16.39999961853</ele>
        <time>2019-05-14T03:30:31Z</time>
      </trkpt>
      <trkpt lat="51.72818" lon="4.6323">
        <ele>14.60000038147</ele>
        <time>2019-05-14T03:30:53Z</time>
      </trkpt>
      <trkpt lat="51.7308" lon="4.63276">
        <ele>14.60000038147</ele>
        <time>2019-05-14T03:31:14Z</time>
      </trkpt>
      <trkpt lat="51.73155" lon="4.63314">
        <ele>14.60000038147</ele>
        <time>2019-05-14T03:31:41Z</time>
      </trkpt>
      <trkpt lat="51.73193" lon="4.63397">
        <ele>14.60000038147</ele>
        <time>2019-05-14T03:32:00Z</time>
      </trkpt>
      <trkpt lat="51.73238" lon="4.63496">
        <ele>15.60000038147</ele>
        <time>2019-05-14T03:32:11Z</time>
      </trkpt>
      <trkpt lat="51.73263" lon="4.63548">
        <ele>16.60000038147</ele>
        <time>2019-05-14T03:32:33Z</time>
      </trkpt>
      <trkpt lat="51.73332" lon="4.63568">
        <ele>16.60000038147</ele>
        <time>2019-05-14T03:32:53Z</time>
      </trkpt>
      <trkpt lat="51.73413" lon="4.6355">
        <ele>16.200000762939</ele>
        <time>2019-05-14T03:33:00Z</time>
      </trkpt>
      <trkpt lat="51.73496" lon="4.63538">
        <ele>16</ele>
        <time>2019-05-14T03:33:16Z</time>
      </trkpt>
      <trkpt lat="51.73573" lon="4.6352">
        <ele>17</ele>
        <time>2019-05-14T03:33:33Z</time>
      </trkpt>
      <trkpt lat="51.73669" lon="4.63398">
        <ele>20.39999961853</ele>
        <time>2019-05-14T03:34:03Z</time>
      </trkpt>
      <trkpt lat="51.73711" lon="4.63337">
        <ele>19.799999237061</ele>
        <time>2019-05-14T03:34:19Z</time>
      </trkpt>
      <trkpt lat="51.73725" lon="4.63301">
        <ele>19</ele>
        <time>2019-05-14T03:34:37Z</time>
      </trkpt>
      <trkpt lat="51.73744" lon="4.63291">
        <ele>17.799999237061</ele>
        <time>2019-05-14T03:34:55Z</time>
      </trkpt>
      <trkpt lat="51.73822" lon="4.63326">
        <ele>16.60000038147</ele>
        <time>2019-05-14T03:35:12Z</time>
      </trkpt>
      <trkpt lat="51.73886" lon="4.63347">
        <ele>16.60000038147</ele>
        <time>2019-05-14T03:35:33Z</time>
      </trkpt>
      <trkpt lat="51.73983" lon="4.63385">
        <ele>16.799999237061</ele>
        <time>2019-05-14T03:35:56Z</time>
      </trkpt>
      <trkpt lat="51.74082" lon="4.6343">
        <ele>16.60000038147</ele>
        <time>2019-05-14T03:36:06Z</time>
      </trkpt>
      <trkpt lat="51.74183" lon="4.63471">
        <ele>17</ele>
        <time>2019-05-14T03:36:22Z</time>
      </trkpt>
      <trkpt lat="51.74266" lon="4.63505">
        <ele>17.200000762939</ele>
        <time>2019-05-14T03:36:41Z</time>
      </trkpt>
      <trkpt lat="51.74352" lon="4.63541">
        <ele>16.799999237061</ele>
        <time>2019-05-14T03:37:05Z</time>
      </trkpt>
      <trkpt lat="51.74422" lon="4.63568">
        <ele>17.39999961853</ele>
        <time>2019-05-14T03:37:35Z</time>
      </trkpt>
      <trkpt lat="51.74502" lon="4.63601">
        <ele>17.39999961853</ele>
        <time>2019-05-14T03:38:04Z</time>
      </trkpt>
      <trkpt lat="51.74557" lon="4.63622">
        <ele>17.799999237061</ele>
        <time>2019-05-14T03:38:29Z</time>
      </trkpt>
      <trkpt lat="51.74656" lon="4.63662">
        <ele>16.799999237061</ele>
        <time>2019-05-14T03:38:54Z</time>
      </trkpt>
      <trkpt lat="51.74737" lon="4.63694">
        <ele>16.799999237061</ele>
        <time>2019-05-14T03:39:15Z</time>
      </trkpt>
      <trkpt lat="51.74804" lon="4.63715">
        <ele>17.60000038147</ele>
        <time>2019-05-14T03:39:29Z</time>
      </trkpt>
      <trkpt lat="51.74876" lon="4.63751">
        <ele>17.200000762939</ele>
        <time>2019-05-14T03:39:44Z</time>
      </trkpt>
      <trkpt lat="51.74959" lon="4.63786">
        <ele>17</ele>
        <time>2019-05-14T03:39:58Z</time>
      </trkpt>
      <trkpt lat="51.7503" lon="4.63815">
        <ele>16</ele>
        <time>2019-05-14T03:40:17Z</time>
      </trkpt>
      <trkpt lat="51.75113" lon="4.63847">
        <ele>14.199999809265</ele>
        <time>2019-05-14T03:40:32Z</time>
      </trkpt>
      <trkpt lat="51.75181" lon="4.63876">
        <ele>14</ele>
        <time>2019-05-14T03:40:54Z</time>
      </trkpt>
      <trkpt lat="51.75295" lon="4.63921">
        <ele>14.199999809265</ele>
        <time>2019-05-14T03:41:21Z</time>
      </trkpt>
      <trkpt lat="51.75341" lon="4.6394">
        <ele>13.800000190735</ele>
        <time>2019-05-14T03:41:44Z</time>
      </trkpt>
      <trkpt lat="51.75482" lon="4.63998">
        <ele>13.800000190735</ele>
        <time>2019-05-14T03:41:59Z</time>
      </trkpt>
      <trkpt lat="51.75564" lon="4.64031">
        <ele>13.60000038147</ele>
        <time>2019-05-14T03:42:16Z</time>
      </trkpt>
      <trkpt lat="51.75641" lon="4.64061">
        <ele>13.800000190735</ele>
        <time>2019-05-14T03:42:26Z</time>
      </trkpt>
      <trkpt lat="51.75712" lon="4.64091">
        <ele>13.800000190735</ele>
        <time>2019-05-14T03:42:43Z</time>
      </trkpt>
      <trkpt lat="51.75773" lon="4.64117">
        <ele>14.199999809265</ele>
        <time>2019-05-14T03:42:56Z</time>
      </trkpt>
      <trkpt lat="51.75843" lon="4.64142">
        <ele>14.199999809265</ele>
        <time>2019-05-14T03:43:03Z</time>
      </trkpt>
      <trkpt lat="51.7592" lon="4.64174">
        <ele>13.800000190735</ele>
        <time>2019-05-14T03:43:11Z</time>
      </trkpt>
      <trkpt lat="51.75995" lon="4.64206">
        <ele>13.800000190735</ele>
        <time>2019-05-14T03:43:30Z</time>
      </trkpt>
      <trkpt lat="51.76048" lon="4.64227">
        <ele>14.199999809265</ele>
        <time>2019-05-14T03:43:57Z</time>
      </trkpt>
      <trkpt lat="51.76143" lon="4.64265">
        <ele>14.199999809265</ele>
        <time>2019-05-14T03:44:08Z</time>
      </trkpt>
      <trkpt lat="51.76223" lon="4.64297">
        <ele>15.39999961853</ele>
        <time>2019-05-14T03:44:32Z</time>
      </trkpt>
      <trkpt lat="51.76278" lon="4.64327">
        <ele>17.200000762939</ele>
        <time>2019-05-14T03:44:49Z</time>
      </trkpt>
      <trkpt lat="51.76315" lon="4.6444">
        <ele>17.39999961853</ele>
        <time>2019-05-14T03:45:13Z</time>
      </trkpt>
      <trkpt lat="51.76346" lon="4.64527">
        <ele>17.200000762939</ele>
        <time>2019-05-14T03:45:28Z</time>
      </trkpt>
      <trkpt lat="51.76413" lon="4.64734">
        <ele>13.800000190735</ele>
        <time>2019-05-14T03:45:43Z</time>
      </trkpt>
      <trkpt lat="51.76427" lon="4.64798">
        <ele>13.60000038147</ele>
        <time>2019-05-14T03:45:50Z</time>
      </trkpt>
      <trkpt lat="51.76447" lon="4.64957">
        <ele>16.799999237061</ele>
        <time>2019-05-14T03:46:09Z</time>
      </trkpt>
      <trkpt lat="51.76466" lon="4.65013">
        <ele>17.39999961853</ele>
        <time>2019-05-14T03:46:22Z</time>
      </trkpt>
      <trkpt lat="51.76485" lon="4.65074">
        <ele>17</ele>
        <time>2019-05-14T03:46:48Z</time>
      </trkpt>
      <trkpt lat="51.76519" lon="4.65197">
        <ele>17</ele>
        <time>2019-05-14T03:47:08Z</time>
      </trkpt>
      <trkpt lat="51.76551" lon="4.65321">
        <ele>17.200000762939</ele>
        <time>2019-05-14T03:47:21Z</time>
      </trkpt>
      <trkpt lat="51.76585" lon="4.65457">
        <ele>17.200000762939</ele>
        <time>2019-05-14T03:47:47Z</time>
      </trkpt>
      <trkpt lat="51.76613" lon="4.65561">
        <ele>17.39999961853</ele>
        <time>2019-05-14T03:48:10Z</time>
      </trkpt>
      <trkpt lat="51.7665" lon="4.65699">
        <ele>17.39999961853</ele>
        <time>2019-05-14T03:48:23Z</time>
      </trkpt>
      <trkpt lat="51.76678" lon="4.65813">
        <ele>17.60000038147</ele>
        <time>2019-05-14T03:48:43Z</time>
      </trkpt>
      <trkpt lat="51.76716" lon="4.65959">
        <ele>18</ele>
        <time>2019-05-14T03:49:02Z</time>
      </trkpt>
      <trkpt lat="51.76765" lon="4.6614">
        <ele>17.799999237061</ele>
        <time>2019-05-14T03:49:24Z</time>
      </trkpt>
      <trkpt lat="51.76782" lon="4.66181">
        <ele>17.60000038147</ele>
        <time>2019-05-14T03:49:35Z</time>
      </trkpt>
      <trkpt lat="51.76793" lon="4.66219">
        <ele>15.60000038147</ele>
        <time>2019-05-14T03:49:51Z</time>
      </trkpt>
      <trkpt lat="51.7683" lon="4.66245">
        <ele>14.39999961853</ele>
        <time>2019-05-14T03:50:02Z</time>
      </trkpt>
      <trkpt lat="51.76878" lon="4.66243">
        <ele>14.199999809265</ele>
        <time>2019-05-14T03:50:11Z</time>
      </trkpt>
      <trkpt lat="51.76985" lon="4.66241">
        <ele>14.199999809265</ele>
        <time>2019-05-14T03:51:24Z</time>
      </trkpt>
      <trkpt lat="51.7707" lon="4.66249">
        <ele>14</ele>
        <time>2019-05-14T03:51:38Z</time>
      </trkpt>
      <trkpt lat="51.77188" lon="4.66262">
        <ele>13.800000190735</ele>
        <time>2019-05-14T03:51:55Z</time>
      </trkpt>
      <trkpt lat="51.7729" lon="4.6627">
        <ele>14.39999961853</ele>
        <time>2019-05-14T03:52:13Z</time>
      </trkpt>
      <trkpt lat="51.77401" lon="4.66277">
        <ele>14.39999961853</ele>
        <time>2019-05-14T03:52:35Z</time>
      </trkpt>
      <trkpt lat="51.77482" lon="4.6628">
        <ele>14.60000038147</ele>
        <time>2019-05-14T03:52:59Z</time>
      </trkpt>
      <trkpt lat="51.77665" lon="4.66288">
        <ele>14.199999809265</ele>
        <time>2019-05-14T03:53:25Z</time>
      </trkpt>
      <trkpt lat="51.7767" lon="4.66287">
        <ele>14.39999961853</ele>
        <time>2019-05-14T03:53:52Z</time>
      </trkpt>
      <trkpt lat="51.77655" lon="4.66257">
        <ele>14.199999809265</ele>
        <time>2019-05-14T03:54:16Z</time>
      </trkpt>
      <trkpt lat="51.77699" lon="4.66294">
        <ele>14.800000190735</ele>
        <time>2019-05-14T03:54:34Z</time>
      </trkpt>
      <trkpt lat="51.77764" lon="4.66301">
        <ele>14.39999961853</ele>
        <time>2019-05-14T03:54:52Z</time>
      </trkpt>
      <trkpt lat="51.77824" lon="4.66303">
        <ele>14.60000038147</ele>
        <time>2019-05-14T03:55:11Z</time>
      </trkpt>
      <trkpt lat="51.77904" lon="4.66338">
        <ele>14.60000038147</ele>
        <time>2019-05-14T03:55:33Z</time>
      </trkpt>
      <trkpt lat="51.77982" lon="4.66399">
        <ele>15</ele>
        <time>2019-05-14T03:55:53Z</time>
      </trkpt>
      <trkpt lat="51.78117" lon="4.66507">
        <ele>15</ele>
        <time>2019-05-14T03:56:12Z</time>
      </trkpt>
      <trkpt lat="51.78203" lon="4.66589">
        <ele>14.800000190735</ele>
        <time>2019-05-14T03:56:20Z</time>
      </trkpt>
      <trkpt lat="51.78276" lon="4.66693">
        <ele>15</ele>
        <time>2019-05-14T03:56:50Z</time>
      </trkpt>
      <trkpt lat="51.78331" lon="4.66781">
        <ele>14.39999961853</ele>
        <time>2019-05-14T03:57:11Z</time>
      </trkpt>
      <trkpt lat="51.78363" lon="4.66812">
        <ele>14.800000190735</ele>
        <time>2019-05-14T03:57:25Z</time>
      </trkpt>
      <trkpt lat="51.78417" lon="4.66829">
        <ele>15.60000038147</ele>
        <time>2019-05-14T03:57:51Z</time>
      </trkpt>
      <trkpt lat="51.78442" lon="4.6687">
        <ele>15.800000190735</ele>
        <time>2019-05-14T03:58:04Z</time>
      </trkpt>
      <trkpt lat="51.78503" lon="4.6691">
        <ele>16.799999237061</ele>
        <time>2019-05-14T03:58:26Z</time>
      </trkpt>
      <trkpt lat="51.78606" lon="4.66972">
        <ele>15.800000190735</ele>
        <time>2019-05-14T03:58:53Z</time>
      </trkpt>
      <trkpt lat="51.78634" lon="4.66988">
        <ele>14.800000190735</ele>
        <time>2019-05-14T03:59:23Z</time>
      </trkpt>
      <trkpt lat="51.78709" lon="4.67031">
        <ele>15.199999809265</ele>
        <time>2019-05-14T03:59:43Z</time>
      </trkpt>
      <trkpt lat="51.7878" lon="4.67081">
        <ele>15.39999961853</ele>
        <time>2019-05-14T04:00:00Z</time>
      </trkpt>
      <trkpt lat="51.78862" lon="4.67154">
        <ele>15.199999809265</ele>
        <time>2019-05-14T04:00:07Z</time>
      </trkpt>
      <trkpt lat="51.7896" lon="4.67238">
        <ele>15.60000038147</ele>
        <time>2019-05-14T04:00:24Z</time>
      </trkpt>
      <trkpt lat="51.79009" lon="4.67267">
        <ele>16.200000762939</ele>
        <time>2019-05-14T04:00:49Z</time>
      </trkpt>
      <trkpt lat="51.79038" lon="4.67291">
        <ele>18</ele>
        <time>2019-05-14T04:04:08Z</time>
      </trkpt>
      <trkpt lat="51.7911" lon="4.67365">
        <ele>16.60000038147</ele>
        <time>2019-05-14T04:04:22Z</time>
      </trkpt>
      <trkpt lat="51.79164" lon="4.6742">
        <ele>16</ele>
        <time>2019-05-14T04:04:28Z</time>
      </trkpt>
      <trkpt lat="51.79216" lon="4.67487">
        <ele>15.60000038147</ele>
        <time>2019-05-14T04:04:45Z</time>
      </trkpt>
      <trkpt lat="51.7924" lon="4.67522">
        <ele>15.199999809265</ele>
        <time>2019-05-14T04:05:02Z</time>
      </trkpt>
      <trkpt lat="51.79333" lon="4.67668">
        <ele>15</ele>
        <time>2019-05-14T04:05:25Z</time>
      </trkpt>
      <trkpt lat="51.79457" lon="4.67925">
        <ele>15</ele>
        <time>2019-05-14T04:05:45Z</time>
      </trkpt>
      <trkpt lat="51.7949" lon="4.67994">
        <ele>14.199999809265</ele>
        <time>2019-05-14T04:06:04Z</time>
      </trkpt>
      <trkpt lat="51.79511" lon="4.68077">
        <ele>14.39999961853</ele>
        <time>2019-05-14T04:06:23Z</time>
      </trkpt>
      <trkpt lat="51.79534" lon="4.68166">
        <ele>14.199999809265</ele>
        <time>2019-05-14T04:06:44Z</time>
      </trkpt>
      <trkpt lat="51.79605" lon="4.68276">
        <ele>14.199999809265</ele>
        <time>2019-05-14T04:06:59Z</time>
      </trkpt>
      <trkpt lat="51.79641" lon="4.68367">
        <ele>14.39999961853</ele>
        <time>2019-05-14T04:07:20Z</time>
      </trkpt>
      <trkpt lat="51.79665" lon="4.68432">
        <ele>14.39999961853</ele>
        <time>2019-05-14T04:07:32Z</time>
      </trkpt>
      <trkpt lat="51.79712" lon="4.68587">
        <ele>14.199999809265</ele>
        <time>2019-05-14T04:07:45Z</time>
      </trkpt>
      <trkpt lat="51.79768" lon="4.68799">
        <ele>14.199999809265</ele>
        <time>2019-05-14T04:09:44Z</time>
      </trkpt>
      <trkpt lat="51.79771" lon="4.68864">
        <ele>14.60000038147</ele>
        <time>2019-05-14T04:09:51Z</time>
      </trkpt>
      <trkpt lat="51.79827" lon="4.69138">
        <ele>14.60000038147</ele>
        <time>2019-05-14T04:11:11Z</time>
      </trkpt>
      <trkpt lat="51.79869" lon="4.69262">
        <ele>14.60000038147</ele>
        <time>2019-05-14T04:11:37Z</time>
      </trkpt>
      <trkpt lat="51.79996" lon="4.69484">
        <ele>14.199999809265</ele>
        <time>2019-05-14T04:12:04Z</time>
      </trkpt>
      <trkpt lat="51.80007" lon="4.69521">
        <ele>14.199999809265</ele>
        <time>2019-05-14T04:12:24Z</time>
      </trkpt>
      <trkpt lat="51.80022" lon="4.69551">
        <ele>14.60000038147</ele>
        <time>2019-05-14T04:12:53Z</time>
      </trkpt>
      <trkpt lat="51.80109" lon="4.69769">
        <ele>14.60000038147</ele>
        <time>2019-05-14T04:13:17Z</time>
      </trkpt>
      <trkpt lat="51.80176" lon="4.69849">
        <ele>15.199999809265</ele>
        <time>2019-05-14T04:13:24Z</time>
      </trkpt>
      <trkpt lat="51.80211" lon="4.69861">
        <ele>15.199999809265</ele>
        <time>2019-05-14T04:13:45Z</time>
      </trkpt>
      <trkpt lat="51.80227" lon="4.69804">
        <ele>15</ele>
        <time>2019-05-14T04:14:07Z</time>
      </trkpt>
      <trkpt lat="51.80205" lon="4.69782">
        <ele>14.60000038147</ele>
        <time>2019-05-14T04:14:20Z</time>
      </trkpt>
      <trkpt lat="51.80164" lon="4.69722">
        <ele>15.199999809265</ele>
        <time>2019-05-14T04:14:36Z</time>
      </trkpt>
      <trkpt lat="51.80173" lon="4.69667">
        <ele>16.60000038147</ele>
        <time>2019-05-14T04:15:05Z</time>
      </trkpt>
      <trkpt lat="51.80204" lon="4.69656">
        <ele>18</ele>
        <time>2019-05-14T04:15:26Z</time>
      </trkpt>
      <trkpt lat="51.80317" lon="4.69766">
        <ele>22.60000038147</ele>
        <time>2019-05-14T04:15:47Z</time>
      </trkpt>
      <trkpt lat="51.80388" lon="4.6984">
        <ele>24</ele>
        <time>2019-05-14T04:16:11Z</time>
      </trkpt>
      <trkpt lat="51.80444" lon="4.69897">
        <ele>24</ele>
        <time>2019-05-14T04:18:19Z</time>
      </trkpt>
      <trkpt lat="51.80506" lon="4.69964">
        <ele>23.200000762939</ele>
        <time>2019-05-14T04:18:49Z</time>
      </trkpt>
      <trkpt lat="51.80553" lon="4.70016">
        <ele>22.200000762939</ele>
        <time>2019-05-14T04:19:10Z</time>
      </trkpt>
      <trkpt lat="51.80742" lon="4.70218">
        <ele>16.799999237061</ele>
        <time>2019-05-14T04:19:40Z</time>
      </trkpt>
      <trkpt lat="51.80791" lon="4.7027">
        <ele>15.800000190735</ele>
        <time>2019-05-14T04:20:12Z</time>
      </trkpt>
      <trkpt lat="51.80873" lon="4.70356">
        <ele>15.39999961853</ele>
        <time>2019-05-14T04:20:42Z</time>
      </trkpt>
      <trkpt lat="51.80932" lon="4.70422">
        <ele>15.39999961853</ele>
        <time>2019-05-14T04:21:09Z</time>
      </trkpt>
      <trkpt lat="51.8098" lon="4.70476">
        <ele>15.199999809265</ele>
        <time>2019-05-14T04:21:54Z</time>
      </trkpt>
      <trkpt lat="51.81038" lon="4.70534">
        <ele>16.39999961853</ele>
        <time>2019-05-14T04:22:14Z</time>
      </trkpt>
      <trkpt lat="51.81116" lon="4.70612">
        <ele>19</ele>
        <time>2019-05-14T04:22:30Z</time>
      </trkpt>
      <trkpt lat="51.81171" lon="4.70659">
        <ele>19.799999237061</ele>
        <time>2019-05-14T04:22:58Z</time>
      </trkpt>
      <trkpt lat="51.81253" lon="4.70706">
        <ele>22.60000038147</ele>
        <time>2019-05-14T04:23:24Z</time>
      </trkpt>
      <trkpt lat="51.81318" lon="4.7073">
        <ele>23</ele>
        <time>2019-05-14T04:23:54Z</time>
      </trkpt>
      <trkpt lat="51.81324" lon="4.70733">
        <ele>22.60000038147</ele>
        <time>2019-05-14T04:24:17Z</time>
      </trkpt>
      <trkpt lat="51.81393" lon="4.70761">
        <ele>22.60000038147</ele>
        <time>2019-05-14T04:24:31Z</time>
      </trkpt>
      <trkpt lat="51.81474" lon="4.70814">
        <ele>22</ele>
        <time>2019-05-14T04:24:58Z</time>
      </trkpt>
      <trkpt lat="51.81529" lon="4.70838">
        <ele>20.39999961853</ele>
        <time>2019-05-14T04:25:27Z</time>
      </trkpt>
      <trkpt lat="51.81556" lon="4.70885">
        <ele>18.200000762939</ele>
        <time>2019-05-14T04:25:48Z</time>
      </trkpt>
      <trkpt lat="51.81576" lon="4.70915">
        <ele>18.200000762939</ele>
        <time>2019-05-14T04:26:16Z</time>
      </trkpt>
      <trkpt lat="51.81629" lon="4.70886">
        <ele>18.799999237061</ele>
        <time>2019-05-14T04:26:40Z</time>
      </trkpt>
      <trkpt lat="51.81664" lon="4.7092">
        <ele>19</ele>
        <time>2019-05-14T04:26:54Z</time>
      </trkpt>
      <trkpt lat="51.81673" lon="4.70947">
        <ele>19</ele>
        <time>2019-05-14T04:27:09Z</time>
      </trkpt>
      <trkpt lat="51.81673" lon="4.70996">
        <ele>19.200000762939</ele>
        <time>2019-05-14T04:27:23Z</time>
      </trkpt>
      <trkpt lat="51.81675" lon="4.71023">
        <ele>19.200000762939</ele>
        <time>2019-05-14T04:27:54Z</time>
      </trkpt>
      <trkpt lat="51.81677" lon="4.71058">
        <ele>19.39999961853</ele>
        <time>2019-05-14T04:34:26Z</time>
      </trkpt>
      <trkpt lat="51.81698" lon="4.71094">
        <ele>19.39999961853</ele>
        <time>2019-05-14T04:34:43Z</time>
      </trkpt>
      <trkpt lat="51.81711" lon="4.71078">
        <ele>19.200000762939</ele>
        <time>2019-05-14T04:34:51Z</time>
      </trkpt>
      <trkpt lat="51.81716" lon="4.70993">
        <ele>18.60000038147</ele>
        <time>2019-05-15T07:21:06Z</time>
      </trkpt>
      <trkpt lat="51.81719" lon="4.7091">
        <ele>18.39999961853</ele>
        <time>2019-05-15T07:21:15Z</time>
      </trkpt>
      <trkpt lat="51.81712" lon="4.70814">
        <ele>18</ele>
        <time>2019-05-15T07:21:59Z</time>
      </trkpt>
      <trkpt lat="51.8172" lon="4.70783">
        <ele>18.200000762939</ele>
        <time>2019-05-15T07:22:04Z</time>
      </trkpt>
      <trkpt lat="51.8178" lon="4.70735">
        <ele>19.60000038147</ele>
        <time>2019-05-15T07:22:20Z</time>
      </trkpt>
      <trkpt lat="51.81828" lon="4.70695">
        <ele>20</ele>
        <time>2019-05-15T07:22:31Z</time>
      </trkpt>
      <trkpt lat="51.81858" lon="4.7068">
        <ele>21.39999961853</ele>
        <time>2019-05-15T07:22:50Z</time>
      </trkpt>
      <trkpt lat="51.82027" lon="4.70638">
        <ele>26</ele>
        <time>2019-05-15T07:23:07Z</time>
      </trkpt>
      <trkpt lat="51.82243" lon="4.70609">
        <ele>29.799999237061</ele>
        <time>2019-05-15T07:23:14Z</time>
      </trkpt>
      <trkpt lat="51.82318" lon="4.70601">
        <ele>30.60000038147</ele>
        <time>2019-05-15T07:23:29Z</time>
      </trkpt>
      <trkpt lat="51.82344" lon="4.70596">
        <ele>30</ele>
        <time>2019-05-15T07:23:58Z</time>
      </trkpt>
      <trkpt lat="51.82404" lon="4.70588">
        <ele>30</ele>
        <time>2019-05-15T07:24:15Z</time>
      </trkpt>
      <trkpt lat="51.825" lon="4.70572">
        <ele>29.200000762939</ele>
        <time>2019-05-15T07:24:37Z</time>
      </trkpt>
      <trkpt lat="51.82673" lon="4.70546">
        <ele>25</ele>
        <time>2019-05-15T07:24:58Z</time>
      </trkpt>
      <trkpt lat="51.82723" lon="4.70539">
        <ele>23</ele>
        <time>2019-05-15T07:25:25Z</time>
      </trkpt>
      <trkpt lat="51.82802" lon="4.70534">
        <ele>21.200000762939</ele>
        <time>2019-05-15T07:25:39Z</time>
      </trkpt>
      <trkpt lat="51.82881" lon="4.70539">
        <ele>18.60000038147</ele>
        <time>2019-05-15T07:26:03Z</time>
      </trkpt>
      <trkpt lat="51.82945" lon="4.70576">
        <ele>17.200000762939</ele>
        <time>2019-05-15T07:26:27Z</time>
      </trkpt>
      <trkpt lat="51.83036" lon="4.70721">
        <ele>15</ele>
        <time>2019-05-15T07:26:44Z</time>
      </trkpt>
      <trkpt lat="51.83043" lon="4.7077">
        <ele>14.800000190735</ele>
        <time>2019-05-15T07:26:59Z</time>
      </trkpt>
      <trkpt lat="51.83089" lon="4.70783">
        <ele>15</ele>
        <time>2019-05-15T07:27:10Z</time>
      </trkpt>
      <trkpt lat="51.83099" lon="4.70765">
        <ele>15</ele>
        <time>2019-05-15T07:27:16Z</time>
      </trkpt>
      <trkpt lat="51.83106" lon="4.70718">
        <ele>14.800000190735</ele>
        <time>2019-05-15T07:27:34Z</time>
      </trkpt>
      <trkpt lat="51.83112" lon="4.70651">
        <ele>15.199999809265</ele>
        <time>2019-05-15T07:27:46Z</time>
      </trkpt>
      <trkpt lat="51.83141" lon="4.70615">
        <ele>15.199999809265</ele>
        <time>2019-05-15T07:28:10Z</time>
      </trkpt>
      <trkpt lat="51.83177" lon="4.70494">
        <ele>15</ele>
        <time>2019-05-15T07:28:28Z</time>
      </trkpt>
      <trkpt lat="51.83197" lon="4.70439">
        <ele>14.800000190735</ele>
        <time>2019-05-15T07:28:45Z</time>
      </trkpt>
      <trkpt lat="51.83217" lon="4.70376">
        <ele>14.39999961853</ele>
        <time>2019-05-15T07:29:15Z</time>
      </trkpt>
      <trkpt lat="51.83258" lon="4.70241">
        <ele>14.800000190735</ele>
        <time>2019-05-15T07:29:32Z</time>
      </trkpt>
      <trkpt lat="51.83298" lon="4.70115">
        <ele>15</ele>
        <time>2019-05-15T07:29:57Z</time>
      </trkpt>
      <trkpt lat="51.83325" lon="4.70023">
        <ele>15.199999809265</ele>
        <time>2019-05-15T07:30:14Z</time>
      </trkpt>
      <trkpt lat="51.8335" lon="4.6995">
        <ele>15.60000038147</ele>
        <time>2019-05-15T07:30:36Z</time>
      </trkpt>
      <trkpt lat="51.83382" lon="4.69862">
        <ele>15.39999961853</ele>
        <time>2019-05-15T07:30:45Z</time>
      </trkpt>
      <trkpt lat="51.83432" lon="4.69715">
        <ele>15.60000038147</ele>
        <time>2019-05-15T07:30:52Z</time>
      </trkpt>
      <trkpt lat="51.83471" lon="4.69597">
        <ele>15.39999961853</ele>
        <time>2019-05-15T07:31:06Z</time>
      </trkpt>
      <trkpt lat="51.83499" lon="4.69514">
        <ele>15.60000038147</ele>
        <time>2019-05-15T07:31:34Z</time>
      </trkpt>
      <trkpt lat="51.83515" lon="4.69449">
        <ele>15.60000038147</ele>
        <time>2019-05-15T07:32:01Z</time>
      </trkpt>
      <trkpt lat="51.83545" lon="4.69347">
        <ele>16</ele>
        <time>2019-05-15T07:32:29Z</time>
      </trkpt>
      <trkpt lat="51.83566" lon="4.69271">
        <ele>15.60000038147</ele>
        <time>2019-05-15T07:32:54Z</time>
      </trkpt>
      <trkpt lat="51.83549" lon="4.69251">
        <ele>15.39999961853</ele>
        <time>2019-05-15T07:33:20Z</time>
      </trkpt>
      <trkpt lat="51.83558" lon="4.69183">
        <ele>15.800000190735</ele>
        <time>2019-05-15T07:33:44Z</time>
      </trkpt>
      <trkpt lat="51.83598" lon="4.69097">
        <ele>15.199999809265</ele>
        <time>2019-05-15T07:34:04Z</time>
      </trkpt>
      <trkpt lat="51.83626" lon="4.68999">
        <ele>15.199999809265</ele>
        <time>2019-05-15T07:34:16Z</time>
      </trkpt>
      <trkpt lat="51.8365" lon="4.68938">
        <ele>15.39999961853</ele>
        <time>2019-05-15T07:34:31Z</time>
      </trkpt>
      <trkpt lat="51.8369" lon="4.68843">
        <ele>15.199999809265</ele>
        <time>2019-05-15T07:34:49Z</time>
      </trkpt>
      <trkpt lat="51.83726" lon="4.6874">
        <ele>15.39999961853</ele>
        <time>2019-05-15T07:35:13Z</time>
      </trkpt>
      <trkpt lat="51.83769" lon="4.6862">
        <ele>15.39999961853</ele>
        <time>2019-05-15T07:35:34Z</time>
      </trkpt>
      <trkpt lat="51.83788" lon="4.68557">
        <ele>15.199999809265</ele>
        <time>2019-05-15T07:35:56Z</time>
      </trkpt>
      <trkpt lat="51.83847" lon="4.6842">
        <ele>15.60000038147</ele>
        <time>2019-05-15T07:36:04Z</time>
      </trkpt>
      <trkpt lat="51.83943" lon="4.68311">
        <ele>15.199999809265</ele>
        <time>2019-05-15T07:37:06Z</time>
      </trkpt>
      <trkpt lat="51.83995" lon="4.6825">
        <ele>16.39999961853</ele>
        <time>2019-05-15T07:37:24Z</time>
      </trkpt>
      <trkpt lat="51.84052" lon="4.68204">
        <ele>16.39999961853</ele>
        <time>2019-05-15T07:37:44Z</time>
      </trkpt>
      <trkpt lat="51.84066" lon="4.68198">
        <ele>16.60000038147</ele>
        <time>2019-05-15T07:38:01Z</time>
      </trkpt>
      <trkpt lat="51.84241" lon="4.68226">
        <ele>23.200000762939</ele>
        <time>2019-05-15T07:38:09Z</time>
      </trkpt>
      <trkpt lat="51.84312" lon="4.68195">
        <ele>23</ele>
        <time>2019-05-15T07:38:24Z</time>
      </trkpt>
      <trkpt lat="51.84477" lon="4.68144">
        <ele>20.799999237061</ele>
        <time>2019-05-15T07:38:41Z</time>
      </trkpt>
      <trkpt lat="51.84597" lon="4.68093">
        <ele>17.799999237061</ele>
        <time>2019-05-15T07:39:10Z</time>
      </trkpt>
      <trkpt lat="51.84681" lon="4.67994">
        <ele>15.800000190735</ele>
        <time>2019-05-15T07:39:26Z</time>
      </trkpt>
      <trkpt lat="51.84699" lon="4.67965">
        <ele>15.60000038147</ele>
        <time>2019-05-15T07:39:55Z</time>
      </trkpt>
      <trkpt lat="51.84734" lon="4.67924">
        <ele>15.800000190735</ele>
        <time>2019-05-15T07:40:21Z</time>
      </trkpt>
      <trkpt lat="51.84818" lon="4.67837">
        <ele>16.60000038147</ele>
        <time>2019-05-15T07:40:40Z</time>
      </trkpt>
      <trkpt lat="51.84869" lon="4.67819">
        <ele>17.799999237061</ele>
        <time>2019-05-15T07:40:53Z</time>
      </trkpt>
      <trkpt lat="51.84913" lon="4.67811">
        <ele>20.799999237061</ele>
        <time>2019-05-15T07:41:00Z</time>
      </trkpt>
      <trkpt lat="51.84974" lon="4.6777">
        <ele>22</ele>
        <time>2019-05-15T07:41:12Z</time>
      </trkpt>
      <trkpt lat="51.85103" lon="4.67734">
        <ele>23.39999961853</ele>
        <time>2019-05-15T07:41:30Z</time>
      </trkpt>
      <trkpt lat="51.85185" lon="4.67702">
        <ele>22.799999237061</ele>
        <time>2019-05-15T07:41:54Z</time>
      </trkpt>
      <trkpt lat="51.85315" lon="4.67657">
        <ele>20.39999961853</ele>
        <time>2019-05-15T07:42:10Z</time>
      </trkpt>
      <trkpt lat="51.85454" lon="4.67615">
        <ele>17</ele>
        <time>2019-05-15T07:42:27Z</time>
      </trkpt>
      <trkpt lat="51.85532" lon="4.67585">
        <ele>16.39999961853</ele>
        <time>2019-05-15T07:42:42Z</time>
      </trkpt>
      <trkpt lat="51.85554" lon="4.67568">
        <ele>16.39999961853</ele>
        <time>2019-05-15T07:43:04Z</time>
      </trkpt>
      <trkpt lat="51.85604" lon="4.67563">
        <ele>16.200000762939</ele>
        <time>2019-05-15T07:43:28Z</time>
      </trkpt>
      <trkpt lat="51.85668" lon="4.67548">
        <ele>16.39999961853</ele>
        <time>2019-05-15T07:43:40Z</time>
      </trkpt>
      <trkpt lat="51.85781" lon="4.67531">
        <ele>16.39999961853</ele>
        <time>2019-05-15T07:43:59Z</time>
      </trkpt>
      <trkpt lat="51.85858" lon="4.67522">
        <ele>16.200000762939</ele>
        <time>2019-05-15T07:44:20Z</time>
      </trkpt>
      <trkpt lat="51.85912" lon="4.67488">
        <ele>16.39999961853</ele>
        <time>2019-05-15T07:45:11Z</time>
      </trkpt>
      <trkpt lat="51.85969" lon="4.675">
        <ele>16.60000038147</ele>
        <time>2019-05-15T07:45:24Z</time>
      </trkpt>
      <trkpt lat="51.86114" lon="4.67499">
        <ele>16.60000038147</ele>
        <time>2019-05-15T07:46:34Z</time>
      </trkpt>
      <trkpt lat="51.86189" lon="4.67459">
        <ele>17</ele>
        <time>2019-05-15T07:46:40Z</time>
      </trkpt>
      <trkpt lat="51.86199" lon="4.6735">
        <ele>16.799999237061</ele>
        <time>2019-05-15T07:47:02Z</time>
      </trkpt>
      <trkpt lat="51.86195" lon="4.67223">
        <ele>17</ele>
        <time>2019-05-15T07:47:30Z</time>
      </trkpt>
      <trkpt lat="51.8621" lon="4.67143">
        <ele>18.60000038147</ele>
        <time>2019-05-15T07:47:54Z</time>
      </trkpt>
      <trkpt lat="51.86229" lon="4.67099">
        <ele>20.60000038147</ele>
        <time>2019-05-15T07:48:09Z</time>
      </trkpt>
      <trkpt lat="51.86281" lon="4.66991">
        <ele>19.799999237061</ele>
        <time>2019-05-15T07:48:22Z</time>
      </trkpt>
      <trkpt lat="51.86329" lon="4.66918">
        <ele>18</ele>
        <time>2019-05-15T07:48:44Z</time>
      </trkpt>
      <trkpt lat="51.86381" lon="4.66846">
        <ele>17</ele>
        <time>2019-05-15T07:49:03Z</time>
      </trkpt>
      <trkpt lat="51.86463" lon="4.66909">
        <ele>16.60000038147</ele>
        <time>2019-05-15T07:49:27Z</time>
      </trkpt>
      <trkpt lat="51.8657" lon="4.66978">
        <ele>16.39999961853</ele>
        <time>2019-05-15T07:49:41Z</time>
      </trkpt>
      <trkpt lat="51.86668" lon="4.67">
        <ele>16.60000038147</ele>
        <time>2019-05-15T07:49:53Z</time>
      </trkpt>
      <trkpt lat="51.86733" lon="4.66996">
        <ele>16.39999961853</ele>
        <time>2019-05-15T07:50:13Z</time>
      </trkpt>
      <trkpt lat="51.86959" lon="4.66951">
        <ele>16.39999961853</ele>
        <time>2019-05-15T07:51:44Z</time>
      </trkpt>
      <trkpt lat="51.87041" lon="4.66931">
        <ele>16.799999237061</ele>
        <time>2019-05-15T07:51:58Z</time>
      </trkpt>
      <trkpt lat="51.87066" lon="4.66904">
        <ele>16.799999237061</ele>
        <time>2019-05-15T07:52:21Z</time>
      </trkpt>
      <trkpt lat="51.87095" lon="4.66844">
        <ele>16.60000038147</ele>
        <time>2019-05-15T07:52:35Z</time>
      </trkpt>
      <trkpt lat="51.87126" lon="4.66867">
        <ele>16.60000038147</ele>
        <time>2019-05-15T07:52:56Z</time>
      </trkpt>
      <trkpt lat="51.87125" lon="4.66862">
        <ele>17</ele>
        <time>2019-05-15T07:53:10Z</time>
      </trkpt>
      <trkpt lat="51.87113" lon="4.66891">
        <ele>17</ele>
        <time>2019-05-15T07:53:27Z</time>
      </trkpt>
      <trkpt lat="51.87118" lon="4.67007">
        <ele>17.39999961853</ele>
        <time>2019-05-15T07:53:46Z</time>
      </trkpt>
      <trkpt lat="51.87145" lon="4.67203">
        <ele>17.39999961853</ele>
        <time>2019-05-15T07:54:05Z</time>
      </trkpt>
      <trkpt lat="51.87159" lon="4.67171">
        <ele>17</ele>
        <time>2019-05-15T07:54:19Z</time>
      </trkpt>
      <trkpt lat="51.87176" lon="4.67108">
        <ele>17.39999961853</ele>
        <time>2019-05-15T07:54:35Z</time>
      </trkpt>
      <trkpt lat="51.87199" lon="4.67106">
        <ele>17.200000762939</ele>
        <time>2019-05-15T07:54:53Z</time>
      </trkpt>
      <trkpt lat="51.87225" lon="4.67052">
        <ele>17</ele>
        <time>2019-05-15T07:54:58Z</time>
      </trkpt>
      <trkpt lat="51.87241" lon="4.66975">
        <ele>17</ele>
        <time>2019-05-15T07:55:06Z</time>
      </trkpt>
      <trkpt lat="51.87302" lon="4.66836">
        <ele>17.39999961853</ele>
        <time>2019-05-15T07:55:19Z</time>
      </trkpt>
      <trkpt lat="51.87352" lon="4.66684">
        <ele>17.60000038147</ele>
        <time>2019-05-15T07:55:29Z</time>
      </trkpt>
      <trkpt lat="51.87385" lon="4.66651">
        <ele>17.60000038147</ele>
        <time>2019-05-15T07:55:34Z</time>
      </trkpt>
      <trkpt lat="51.87427" lon="4.66542">
        <ele>17.39999961853</ele>
        <time>2019-05-15T07:55:47Z</time>
      </trkpt>
      <trkpt lat="51.87441" lon="4.66517">
        <ele>17.60000038147</ele>
        <time>2019-05-15T07:55:57Z</time>
      </trkpt>
      <trkpt lat="51.87441" lon="4.6645">
        <ele>19.200000762939</ele>
        <time>2019-05-15T07:56:04Z</time>
      </trkpt>
      <trkpt lat="51.87447" lon="4.66367">
        <ele>18.799999237061</ele>
        <time>2019-05-15T07:56:22Z</time>
      </trkpt>
      <trkpt lat="51.87467" lon="4.66267">
        <ele>19</ele>
        <time>2019-05-15T07:56:36Z</time>
      </trkpt>
      <trkpt lat="51.87496" lon="4.66154">
        <ele>19</ele>
        <time>2019-05-15T07:59:23Z</time>
      </trkpt>
      <trkpt lat="51.87528" lon="4.66053">
        <ele>18.799999237061</ele>
        <time>2019-05-15T07:59:53Z</time>
      </trkpt>
      <trkpt lat="51.87587" lon="4.66078">
        <ele>20.799999237061</ele>
        <time>2019-05-15T08:00:03Z</time>
      </trkpt>
      <trkpt lat="51.87599" lon="4.66034">
        <ele>19.60000038147</ele>
        <time>2019-05-15T08:00:32Z</time>
      </trkpt>
      <trkpt lat="51.87629" lon="4.65916">
        <ele>19.39999961853</ele>
        <time>2019-05-15T08:00:48Z</time>
      </trkpt>
      <trkpt lat="51.87638" lon="4.65876">
        <ele>20</ele>
        <time>2019-05-15T08:01:03Z</time>
      </trkpt>
      <trkpt lat="51.87665" lon="4.65742">
        <ele>19.39999961853</ele>
        <time>2019-05-15T08:01:20Z</time>
      </trkpt>
      <trkpt lat="51.87729" lon="4.65438">
        <ele>19.39999961853</ele>
        <time>2019-05-15T08:01:37Z</time>
      </trkpt>
      <trkpt lat="51.87731" lon="4.65435">
        <ele>20.200000762939</ele>
        <time>2019-05-15T08:01:56Z</time>
      </trkpt>
      <trkpt lat="51.87737" lon="4.65411">
        <ele>20.39999961853</ele>
        <time>2019-05-15T08:02:10Z</time>
      </trkpt>
      <trkpt lat="51.87761" lon="4.65304">
        <ele>20.39999961853</ele>
        <time>2019-05-15T08:02:27Z</time>
      </trkpt>
      <trkpt lat="51.87795" lon="4.65143">
        <ele>20.60000038147</ele>
        <time>2019-05-15T08:02:43Z</time>
      </trkpt>
      <trkpt lat="51.87835" lon="4.64946">
        <ele>20.799999237061</ele>
        <time>2019-05-15T08:03:02Z</time>
      </trkpt>
      <trkpt lat="51.87876" lon="4.64755">
        <ele>20.799999237061</ele>
        <time>2019-05-15T08:03:22Z</time>
      </trkpt>
      <trkpt lat="51.87903" lon="4.64621">
        <ele>21</ele>
        <time>2019-05-15T08:03:35Z</time>
      </trkpt>
      <trkpt lat="51.87946" lon="4.64511">
        <ele>21.39999961853</ele>
        <time>2019-05-15T08:03:41Z</time>
      </trkpt>
      <trkpt lat="51.87993" lon="4.64475">
        <ele>21.60000038147</ele>
        <time>2019-05-15T08:03:52Z</time>
      </trkpt>
      <trkpt lat="51.88068" lon="4.6441">
        <ele>21.799999237061</ele>
        <time>2019-05-15T08:03:59Z</time>
      </trkpt>
      <trkpt lat="51.88166" lon="4.64322">
        <ele>21.60000038147</ele>
        <time>2019-05-15T08:04:06Z</time>
      </trkpt>
      <trkpt lat="51.88385" lon="4.64123">
        <ele>21.60000038147</ele>
        <time>2019-05-15T08:04:23Z</time>
      </trkpt>
      <trkpt lat="51.88395" lon="4.64113">
        <ele>21.200000762939</ele>
        <time>2019-05-15T08:04:39Z</time>
      </trkpt>
      <trkpt lat="51.88464" lon="4.64053">
        <ele>21.60000038147</ele>
        <time>2019-05-15T08:04:48Z</time>
      </trkpt>
      <trkpt lat="51.8863" lon="4.63908">
        <ele>21.60000038147</ele>
        <time>2019-05-15T08:05:04Z</time>
      </trkpt>
      <trkpt lat="51.887" lon="4.63846">
        <ele>22</ele>
        <time>2019-05-15T08:05:12Z</time>
      </trkpt>
      <trkpt lat="51.8874" lon="4.6381">
        <ele>21.799999237061</ele>
        <time>2019-05-15T08:05:34Z</time>
      </trkpt>
      <trkpt lat="51.88751" lon="4.63778">
        <ele>21</ele>
        <time>2019-05-15T08:06:00Z</time>
      </trkpt>
      <trkpt lat="51.88769" lon="4.63766">
        <ele>21</ele>
        <time>2019-05-15T08:06:17Z</time>
      </trkpt>
      <trkpt lat="51.88782" lon="4.63765">
        <ele>21.39999961853</ele>
        <time>2019-05-15T08:06:25Z</time>
      </trkpt>
      <trkpt lat="51.88839" lon="4.63712">
        <ele>21.799999237061</ele>
        <time>2019-05-15T08:06:44Z</time>
      </trkpt>
      <trkpt lat="51.88844" lon="4.63714">
        <ele>22.200000762939</ele>
        <time>2019-05-15T08:06:51Z</time>
      </trkpt>
      <trkpt lat="51.88942" lon="4.63598">
        <ele>25.39999961853</ele>
        <time>2019-05-15T08:07:15Z</time>
      </trkpt>
      <trkpt lat="51.88947" lon="4.63588">
        <ele>25.799999237061</ele>
        <time>2019-05-15T08:07:23Z</time>
      </trkpt>
      <trkpt lat="51.8892" lon="4.63536">
        <ele>26.200000762939</ele>
        <time>2019-05-15T08:07:43Z</time>
      </trkpt>
      <trkpt lat="51.88893" lon="4.63492">
        <ele>26.200000762939</ele>
        <time>2019-05-15T08:08:01Z</time>
      </trkpt>
      <trkpt lat="51.88887" lon="4.63485">
        <ele>27.39999961853</ele>
        <time>2019-05-15T08:08:11Z</time>
      </trkpt>
      <trkpt lat="51.88876" lon="4.63463">
        <ele>27.200000762939</ele>
        <time>2019-05-15T08:08:19Z</time>
      </trkpt>
      <trkpt lat="51.88887" lon="4.6349">
        <ele>27.200000762939</ele>
        <time>2019-05-15T08:08:41Z</time>
      </trkpt>
      <trkpt lat="51.88909" lon="4.63525">
        <ele>27.39999961853</ele>
        <time>2019-05-15T08:08:56Z</time>
      </trkpt>
      <trkpt lat="51.88935" lon="4.63561">
        <ele>27.39999961853</ele>
        <time>2019-05-15T08:09:09Z</time>
      </trkpt>
      <trkpt lat="51.88922" lon="4.63544">
        <ele>27</ele>
        <time>2019-05-15T08:09:22Z</time>
      </trkpt>
      <trkpt lat="51.88875" lon="4.63468">
        <ele>27</ele>
        <time>2019-05-15T08:09:41Z</time>
      </trkpt>
      <trkpt lat="51.88875" lon="4.63412">
        <ele>27</ele>
        <time>2019-05-15T08:09:57Z</time>
      </trkpt>
      <trkpt lat="51.8884" lon="4.63325">
        <ele>27.200000762939</ele>
        <time>2019-05-15T08:10:07Z</time>
      </trkpt>
      <trkpt lat="51.88856" lon="4.63276">
        <ele>26.799999237061</ele>
        <time>2019-05-15T08:10:18Z</time>
      </trkpt>
      <trkpt lat="51.88862" lon="4.63228">
        <ele>25.799999237061</ele>
        <time>2019-05-15T08:10:31Z</time>
      </trkpt>
      <trkpt lat="51.88857" lon="4.63202">
        <ele>24.39999961853</ele>
        <time>2019-05-15T08:10:49Z</time>
      </trkpt>
      <trkpt lat="51.8884" lon="4.63111">
        <ele>23.799999237061</ele>
        <time>2019-05-15T08:11:12Z</time>
      </trkpt>
      <trkpt lat="51.88815" lon="4.63012">
        <ele>23.39999961853</ele>
        <time>2019-05-15T08:11:35Z</time>
      </trkpt>
      <trkpt lat="51.88792" lon="4.62931">
        <ele>24.60000038147</ele>
        <time>2019-05-15T08:11:55Z</time>
      </trkpt>
      <trkpt lat="51.88806" lon="4.62873">
        <ele>25.799999237061</ele>
        <time>2019-05-15T08:12:08Z</time>
      </trkpt>
      <trkpt lat="51.88828" lon="4.62834">
        <ele>25.799999237061</ele>
        <time>2019-05-15T08:12:29Z</time>
      </trkpt>
      <trkpt lat="51.88838" lon="4.6282">
        <ele>23.799999237061</ele>
        <time>2019-05-15T08:12:44Z</time>
      </trkpt>
      <trkpt lat="51.88866" lon="4.62808">
        <ele>24.200000762939</ele>
        <time>2019-05-15T08:13:05Z</time>
      </trkpt>
      <trkpt lat="51.89028" lon="4.6278">
        <ele>24.60000038147</ele>
        <time>2019-05-15T08:13:22Z</time>
      </trkpt>
      <trkpt lat="51.89088" lon="4.62779">
        <ele>24</ele>
        <time>2019-05-15T08:13:40Z</time>
      </trkpt>
      <trkpt lat="51.89123" lon="4.62791">
        <ele>26.60000038147</ele>
        <time>2019-05-15T08:13:54Z</time>
      </trkpt>
      <trkpt lat="51.89166" lon="4.62788">
        <ele>26.200000762939</ele>
        <time>2019-05-15T08:14:06Z</time>
      </trkpt>
      <trkpt lat="51.89216" lon="4.62806">
        <ele>23.799999237061</ele>
        <time>2019-05-15T08:14:57Z</time>
      </trkpt>
      <trkpt lat="51.89283" lon="4.6282">
        <ele>22</ele>
        <time>2019-05-15T08:15:07Z</time>
      </trkpt>
      <trkpt lat="51.89361" lon="4.62863">
        <ele>21.799999237061</ele>
        <time>2019-05-15T08:15:20Z</time>
      </trkpt>
      <trkpt lat="51.89426" lon="4.6296">
        <ele>22.200000762939</ele>
        <time>2019-05-15T08:16:06Z</time>
      </trkpt>
      <trkpt lat="51.89449" lon="4.62987">
        <ele>22.60000038147</ele>
        <time>2019-05-15T08:16:12Z</time>
      </trkpt>
      <trkpt lat="51.89453" lon="4.62981">
        <ele>22.200000762939</ele>
        <time>2019-05-15T08:16:32Z</time>
      </trkpt>
      <trkpt lat="51.89503" lon="4.62893">
        <ele>22.200000762939</ele>
        <time>2019-05-15T08:16:46Z</time>
      </trkpt>
      <trkpt lat="51.89525" lon="4.62892">
        <ele>22.200000762939</ele>
        <time>2019-05-15T08:17:05Z</time>
      </trkpt>
      <trkpt lat="51.89781" lon="4.62995">
        <ele>22.799999237061</ele>
        <time>2019-05-15T08:17:29Z</time>
      </trkpt>
      <trkpt lat="51.89827" lon="4.63015">
        <ele>22.799999237061</ele>
        <time>2019-05-15T08:17:43Z</time>
      </trkpt>
      <trkpt lat="51.89827" lon="4.63025">
        <ele>22.60000038147</ele>
        <time>2019-05-15T08:17:59Z</time>
      </trkpt>
      <trkpt lat="51.8982" lon="4.63097">
        <ele>22.60000038147</ele>
        <time>2019-05-15T08:18:21Z</time>
      </trkpt>
      <trkpt lat="51.89843" lon="4.63118">
        <ele>22.60000038147</ele>
        <time>2019-05-15T08:18:34Z</time>
      </trkpt>
      <trkpt lat="51.90056" lon="4.63213">
        <ele>22.60000038147</ele>
        <time>2019-05-15T08:18:42Z</time>
      </trkpt>
      <trkpt lat="51.90115" lon="4.63218">
        <ele>22.799999237061</ele>
        <time>2019-05-15T08:18:58Z</time>
      </trkpt>
      <trkpt lat="51.90189" lon="4.63246">
        <ele>22.39999961853</ele>
        <time>2019-05-15T08:19:18Z</time>
      </trkpt>
      <trkpt lat="51.9027" lon="4.63279">
        <ele>22.200000762939</ele>
        <time>2019-05-15T08:19:39Z</time>
      </trkpt>
      <trkpt lat="51.9035" lon="4.63312">
        <ele>22.39999961853</ele>
        <time>2019-05-15T08:19:52Z</time>
      </trkpt>
      <trkpt lat="51.90414" lon="4.63343">
        <ele>22.39999961853</ele>
        <time>2019-05-15T08:20:13Z</time>
      </trkpt>
      <trkpt lat="51.90508" lon="4.63384">
        <ele>23</ele>
        <time>2019-05-15T08:20:33Z</time>
      </trkpt>
      <trkpt lat="51.9059" lon="4.63428">
        <ele>23.39999961853</ele>
        <time>2019-05-15T08:20:54Z</time>
      </trkpt>
      <trkpt lat="51.90674" lon="4.6346">
        <ele>23</ele>
        <time>2019-05-15T08:21:16Z</time>
      </trkpt>
      <trkpt lat="51.90765" lon="4.63493">
        <ele>22.799999237061</ele>
        <time>2019-05-15T08:21:25Z</time>
      </trkpt>
      <trkpt lat="51.90875" lon="4.63532">
        <ele>23.200000762939</ele>
        <time>2019-05-15T08:21:37Z</time>
      </trkpt>
      <trkpt lat="51.90959" lon="4.63562">
        <ele>23</ele>
        <time>2019-05-15T08:21:48Z</time>
      </trkpt>
      <trkpt lat="51.90978" lon="4.63599">
        <ele>24</ele>
        <time>2019-05-15T08:21:56Z</time>
      </trkpt>
      <trkpt lat="51.91016" lon="4.63723">
        <ele>23.799999237061</ele>
        <time>2019-05-15T08:22:18Z</time>
      </trkpt>
      <trkpt lat="51.91053" lon="4.63842">
        <ele>24.60000038147</ele>
        <time>2019-05-15T08:22:36Z</time>
      </trkpt>
      <trkpt lat="51.91117" lon="4.64049">
        <ele>24.200000762939</ele>
        <time>2019-05-15T08:22:53Z</time>
      </trkpt>
      <trkpt lat="51.91149" lon="4.64161">
        <ele>24.60000038147</ele>
        <time>2019-05-15T08:23:10Z</time>
      </trkpt>
      <trkpt lat="51.91163" lon="4.64244">
        <ele>24.60000038147</ele>
        <time>2019-05-15T08:23:22Z</time>
      </trkpt>
      <trkpt lat="51.91173" lon="4.64246">
        <ele>24.200000762939</ele>
        <time>2019-05-15T08:23:44Z</time>
      </trkpt>
      <trkpt lat="51.91208" lon="4.64236">
        <ele>24.60000038147</ele>
        <time>2019-05-15T08:24:06Z</time>
      </trkpt>
      <trkpt lat="51.91235" lon="4.64257">
        <ele>25.200000762939</ele>
        <time>2019-05-15T08:24:35Z</time>
      </trkpt>
      <trkpt lat="51.9133" lon="4.64193">
        <ele>23.799999237061</ele>
        <time>2019-05-15T08:24:53Z</time>
      </trkpt>
      <trkpt lat="51.91468" lon="4.63999">
        <ele>23.799999237061</ele>
        <time>2019-05-15T08:25:20Z</time>
      </trkpt>
      <trkpt lat="51.9154" lon="4.63899">
        <ele>24</ele>
        <time>2019-05-15T08:25:43Z</time>
      </trkpt>
      <trkpt lat="51.91578" lon="4.63845">
        <ele>24</ele>
        <time>2019-05-15T08:25:59Z</time>
      </trkpt>
      <trkpt lat="51.91632" lon="4.63771">
        <ele>23.799999237061</ele>
        <time>2019-05-15T08:26:13Z</time>
      </trkpt>
      <trkpt lat="51.91681" lon="4.63703">
        <ele>23.799999237061</ele>
        <time>2019-05-15T08:26:36Z</time>
      </trkpt>
      <trkpt lat="51.9173" lon="4.63634">
        <ele>23.60000038147</ele>
        <time>2019-05-15T08:26:43Z</time>
      </trkpt>
      <trkpt lat="51.91784" lon="4.63553">
        <ele>23.60000038147</ele>
        <time>2019-05-15T08:26:58Z</time>
      </trkpt>
      <trkpt lat="51.91926" lon="4.63353">
        <ele>24.200000762939</ele>
        <time>2019-05-15T08:27:19Z</time>
      </trkpt>
      <trkpt lat="51.92002" lon="4.63245">
        <ele>24.200000762939</ele>
        <time>2019-05-15T08:27:38Z</time>
      </trkpt>
      <trkpt lat="51.92069" lon="4.63153">
        <ele>23.799999237061</ele>
        <time>2019-05-15T08:27:59Z</time>
      </trkpt>
      <trkpt lat="51.92107" lon="4.63094">
        <ele>24.39999961853</ele>
        <time>2019-05-15T08:28:15Z</time>
      </trkpt>
      <trkpt lat="51.92131" lon="4.63071">
        <ele>24.39999961853</ele>
        <time>2019-05-15T08:28:32Z</time>
      </trkpt>
      <trkpt lat="51.92144" lon="4.63099">
        <ele>24.799999237061</ele>
        <time>2019-05-15T08:28:43Z</time>
      </trkpt>
      <trkpt lat="51.92182" lon="4.63176">
        <ele>24.200000762939</ele>
        <time>2019-05-15T08:28:53Z</time>
      </trkpt>
      <trkpt lat="51.92198" lon="4.63213">
        <ele>24.200000762939</ele>
        <time>2019-05-15T08:29:05Z</time>
      </trkpt>
      <trkpt lat="51.92217" lon="4.63248">
        <ele>24</ele>
        <time>2019-05-15T08:29:24Z</time>
      </trkpt>
      <trkpt lat="51.92305" lon="4.63404">
        <ele>24</ele>
        <time>2019-05-15T08:29:38Z</time>
      </trkpt>
      <trkpt lat="51.92347" lon="4.6349">
        <ele>24.39999961853</ele>
        <time>2019-05-15T08:29:49Z</time>
      </trkpt>
      <trkpt lat="51.92399" lon="4.63613">
        <ele>24</ele>
        <time>2019-05-15T08:29:56Z</time>
      </trkpt>
      <trkpt lat="51.92424" lon="4.63668">
        <ele>24.200000762939</ele>
        <time>2019-05-15T08:30:17Z</time>
      </trkpt>
      <trkpt lat="51.92447" lon="4.63719">
        <ele>24</ele>
        <time>2019-05-15T08:30:46Z</time>
      </trkpt>
      <trkpt lat="51.92484" lon="4.63803">
        <ele>23.799999237061</ele>
        <time>2019-05-15T08:30:59Z</time>
      </trkpt>
      <trkpt lat="51.92545" lon="4.63934">
        <ele>23.60000038147</ele>
        <time>2019-05-15T08:31:15Z</time>
      </trkpt>
      <trkpt lat="51.92591" lon="4.64039">
        <ele>24</ele>
        <time>2019-05-15T08:31:43Z</time>
      </trkpt>
      <trkpt lat="51.9271" lon="4.64315">
        <ele>24</ele>
        <time>2019-05-15T08:32:00Z</time>
      </trkpt>
      <trkpt lat="51.92745" lon="4.64386">
        <ele>24.200000762939</ele>
        <time>2019-05-15T08:32:24Z</time>
      </trkpt>
      <trkpt lat="51.92799" lon="4.64468">
        <ele>24.200000762939</ele>
        <time>2019-05-15T08:32:36Z</time>
      </trkpt>
      <trkpt lat="51.92817" lon="4.64453">
        <ele>23.799999237061</ele>
        <time>2019-05-15T08:32:53Z</time>
      </trkpt>
      <trkpt lat="51.92829" lon="4.64422">
        <ele>24</ele>
        <time>2019-05-15T08:33:22Z</time>
      </trkpt>
      <trkpt lat="51.9289" lon="4.6433">
        <ele>24.200000762939</ele>
        <time>2019-05-15T08:33:32Z</time>
      </trkpt>
      <trkpt lat="51.92961" lon="4.64227">
        <ele>24.60000038147</ele>
        <time>2019-05-15T08:33:50Z</time>
      </trkpt>
      <trkpt lat="51.93079" lon="4.64072">
        <ele>24.60000038147</ele>
        <time>2019-05-15T08:34:05Z</time>
      </trkpt>
      <trkpt lat="51.93144" lon="4.63981">
        <ele>24.799999237061</ele>
        <time>2019-05-15T08:34:19Z</time>
      </trkpt>
      <trkpt lat="51.93208" lon="4.63895">
        <ele>25.200000762939</ele>
        <time>2019-05-15T08:34:42Z</time>
      </trkpt>
      <trkpt lat="51.93279" lon="4.63801">
        <ele>24.799999237061</ele>
        <time>2019-05-15T08:35:06Z</time>
      </trkpt>
      <trkpt lat="51.93319" lon="4.63742">
        <ele>24.39999961853</ele>
        <time>2019-05-15T08:35:28Z</time>
      </trkpt>
      <trkpt lat="51.93376" lon="4.63658">
        <ele>24.39999961853</ele>
        <time>2019-05-15T08:35:40Z</time>
      </trkpt>
      <trkpt lat="51.9343" lon="4.63585">
        <ele>24.60000038147</ele>
        <time>2019-05-15T08:36:01Z</time>
      </trkpt>
      <trkpt lat="51.93448" lon="4.63568">
        <ele>24.39999961853</ele>
        <time>2019-05-15T08:36:21Z</time>
      </trkpt>
      <trkpt lat="51.93478" lon="4.63614">
        <ele>24.60000038147</ele>
        <time>2019-05-15T08:36:43Z</time>
      </trkpt>
      <trkpt lat="51.93581" lon="4.63778">
        <ele>25</ele>
        <time>2019-05-15T08:37:08Z</time>
      </trkpt>
      <trkpt lat="51.93618" lon="4.6376">
        <ele>24.799999237061</ele>
        <time>2019-05-15T08:37:28Z</time>
      </trkpt>
      <trkpt lat="51.93652" lon="4.63721">
        <ele>25.60000038147</ele>
        <time>2019-05-15T08:37:43Z</time>
      </trkpt>
      <trkpt lat="51.93714" lon="4.63641">
        <ele>28.799999237061</ele>
        <time>2019-05-15T08:38:02Z</time>
      </trkpt>
      <trkpt lat="51.93744" lon="4.63654">
        <ele>30.39999961853</ele>
        <time>2019-05-15T08:38:19Z</time>
      </trkpt>
      <trkpt lat="51.93811" lon="4.63647">
        <ele>31</ele>
        <time>2019-05-15T08:38:43Z</time>
      </trkpt>
      <trkpt lat="51.93926" lon="4.6364">
        <ele>31</ele>
        <time>2019-05-15T08:38:49Z</time>
      </trkpt>
      <trkpt lat="51.93968" lon="4.63665">
        <ele>30.799999237061</ele>
        <time>2019-05-15T08:39:13Z</time>
      </trkpt>
      <trkpt lat="51.94002" lon="4.63737">
        <ele>31</ele>
        <time>2019-05-15T08:39:56Z</time>
      </trkpt>
      <trkpt lat="51.94067" lon="4.63789">
        <ele>31</ele>
        <time>2019-05-15T08:40:08Z</time>
      </trkpt>
      <trkpt lat="51.94144" lon="4.63812">
        <ele>31.60000038147</ele>
        <time>2019-05-15T08:40:16Z</time>
      </trkpt>
      <trkpt lat="51.94233" lon="4.63852">
        <ele>31.60000038147</ele>
        <time>2019-05-15T08:40:37Z</time>
      </trkpt>
      <trkpt lat="51.94343" lon="4.63841">
        <ele>31.200000762939</ele>
        <time>2019-05-15T08:40:59Z</time>
      </trkpt>
      <trkpt lat="51.94404" lon="4.6385">
        <ele>31.39999961853</ele>
        <time>2019-05-15T08:41:16Z</time>
      </trkpt>
      <trkpt lat="51.94512" lon="4.63921">
        <ele>31.60000038147</ele>
        <time>2019-05-15T08:41:38Z</time>
      </trkpt>
      <trkpt lat="51.94686" lon="4.64029">
        <ele>32.599998474121</ele>
        <time>2019-05-15T08:41:58Z</time>
      </trkpt>
      <trkpt lat="51.94764" lon="4.64044">
        <ele>31.799999237061</ele>
        <time>2019-05-15T08:42:15Z</time>
      </trkpt>
      <trkpt lat="51.94862" lon="4.64049">
        <ele>31.39999961853</ele>
        <time>2019-05-15T08:42:41Z</time>
      </trkpt>
      <trkpt lat="51.94878" lon="4.64047">
        <ele>31</ele>
        <time>2019-05-15T08:42:55Z</time>
      </trkpt>
      <trkpt lat="51.94926" lon="4.64053">
        <ele>31</ele>
        <time>2019-05-15T08:43:03Z</time>
      </trkpt>
      <trkpt lat="51.95002" lon="4.64066">
        <ele>31.60000038147</ele>
        <time>2019-05-15T08:43:21Z</time>
      </trkpt>
      <trkpt lat="51.95073" lon="4.64087">
        <ele>31</ele>
        <time>2019-05-15T08:43:54Z</time>
      </trkpt>
      <trkpt lat="51.95156" lon="4.64169">
        <ele>30.799999237061</ele>
        <time>2019-05-15T08:44:04Z</time>
      </trkpt>
      <trkpt lat="51.95194" lon="4.64308">
        <ele>31.200000762939</ele>
        <time>2019-05-15T08:44:17Z</time>
      </trkpt>
      <trkpt lat="51.95202" lon="4.64401">
        <ele>31.60000038147</ele>
        <time>2019-05-15T08:44:28Z</time>
      </trkpt>
      <trkpt lat="51.95203" lon="4.64521">
        <ele>31.60000038147</ele>
        <time>2019-05-15T08:44:38Z</time>
      </trkpt>
      <trkpt lat="51.95204" lon="4.64626">
        <ele>31.799999237061</ele>
        <time>2019-05-15T08:45:00Z</time>
      </trkpt>
      <trkpt lat="51.95221" lon="4.6475">
        <ele>31.60000038147</ele>
        <time>2019-05-15T08:45:21Z</time>
      </trkpt>
      <trkpt lat="51.95257" lon="4.64829">
        <ele>32.200000762939</ele>
        <time>2019-05-15T08:45:45Z</time>
      </trkpt>
      <trkpt lat="51.95315" lon="4.64941">
        <ele>32</ele>
        <time>2019-05-15T08:45:59Z</time>
      </trkpt>
      <trkpt lat="51.95359" lon="4.64975">
        <ele>32</ele>
        <time>2019-05-15T08:46:13Z</time>
      </trkpt>
      <trkpt lat="51.953" lon="4.65116">
        <ele>28.200000762939</ele>
        <time>2019-05-15T08:46:27Z</time>
      </trkpt>
      <trkpt lat="51.95238" lon="4.65253">
        <ele>27.799999237061</ele>
        <time>2019-05-15T08:46:44Z</time>
      </trkpt>
      <trkpt lat="51.9521" lon="4.65321">
        <ele>27.799999237061</ele>
        <time>2019-05-15T08:47:08Z</time>
      </trkpt>
      <trkpt lat="51.95252" lon="4.65361">
        <ele>27.200000762939</ele>
        <time>2019-05-15T08:47:33Z</time>
      </trkpt>
      <trkpt lat="51.95352" lon="4.65436">
        <ele>26.799999237061</ele>
        <time>2019-05-15T08:47:51Z</time>
      </trkpt>
      <trkpt lat="51.95449" lon="4.65505">
        <ele>27.39999961853</ele>
        <time>2019-05-15T08:48:05Z</time>
      </trkpt>
      <trkpt lat="51.95551" lon="4.65575">
        <ele>27.200000762939</ele>
        <time>2019-05-15T08:48:28Z</time>
      </trkpt>
      <trkpt lat="51.95648" lon="4.65644">
        <ele>27.200000762939</ele>
        <time>2019-05-15T08:48:53Z</time>
      </trkpt>
      <trkpt lat="51.95746" lon="4.65714">
        <ele>27</ele>
        <time>2019-05-15T08:49:17Z</time>
      </trkpt>
      <trkpt lat="51.95819" lon="4.65765">
        <ele>27</ele>
        <time>2019-05-15T08:49:34Z</time>
      </trkpt>
      <trkpt lat="51.9588" lon="4.6581">
        <ele>26.799999237061</ele>
        <time>2019-05-15T08:49:43Z</time>
      </trkpt>
      <trkpt lat="51.95966" lon="4.65874">
        <ele>27.60000038147</ele>
        <time>2019-05-15T08:50:05Z</time>
      </trkpt>
      <trkpt lat="51.96045" lon="4.65952">
        <ele>28</ele>
        <time>2019-05-15T08:50:20Z</time>
      </trkpt>
      <trkpt lat="51.96159" lon="4.66089">
        <ele>26.39999961853</ele>
        <time>2019-05-15T08:50:42Z</time>
      </trkpt>
      <trkpt lat="51.96223" lon="4.66167">
        <ele>26.39999961853</ele>
        <time>2019-05-15T08:51:07Z</time>
      </trkpt>
      <trkpt lat="51.96365" lon="4.66341">
        <ele>26.799999237061</ele>
        <time>2019-05-15T08:51:32Z</time>
      </trkpt>
      <trkpt lat="51.9651" lon="4.66519">
        <ele>26.799999237061</ele>
        <time>2019-05-15T08:51:57Z</time>
      </trkpt>
      <trkpt lat="51.96522" lon="4.66554">
        <ele>27</ele>
        <time>2019-05-15T08:52:20Z</time>
      </trkpt>
      <trkpt lat="51.96472" lon="4.66649">
        <ele>27.200000762939</ele>
        <time>2019-05-15T08:52:38Z</time>
      </trkpt>
      <trkpt lat="51.96433" lon="4.6672">
        <ele>27.200000762939</ele>
        <time>2019-05-15T08:53:01Z</time>
      </trkpt>
      <trkpt lat="51.96404" lon="4.66778">
        <ele>27</ele>
        <time>2019-05-15T08:53:14Z</time>
      </trkpt>
      <trkpt lat="51.96346" lon="4.66877">
        <ele>27.39999961853</ele>
        <time>2019-05-15T08:53:34Z</time>
      </trkpt>
      <trkpt lat="51.9622" lon="4.67106">
        <ele>27</ele>
        <time>2019-05-15T08:54:02Z</time>
      </trkpt>
      <trkpt lat="51.96154" lon="4.67232">
        <ele>27</ele>
        <time>2019-05-15T08:54:22Z</time>
      </trkpt>
      <trkpt lat="51.96088" lon="4.67356">
        <ele>27.200000762939</ele>
        <time>2019-05-15T08:54:42Z</time>
      </trkpt>
      <trkpt lat="51.9595" lon="4.67627">
        <ele>27.200000762939</ele>
        <time>2019-05-15T08:54:49Z</time>
      </trkpt>
      <trkpt lat="51.9589" lon="4.67735">
        <ele>27.39999961853</ele>
        <time>2019-05-15T08:55:13Z</time>
      </trkpt>
      <trkpt lat="51.95852" lon="4.67808">
        <ele>27.60000038147</ele>
        <time>2019-05-15T08:55:40Z</time>
      </trkpt>
      <trkpt lat="51.95798" lon="4.6792">
        <ele>27.200000762939</ele>
        <time>2019-05-15T08:56:03Z</time>
      </trkpt>
      <trkpt lat="51.95809" lon="4.67938">
        <ele>27</ele>
        <time>2019-05-15T08:56:14Z</time>
      </trkpt>
      <trkpt lat="51.95861" lon="4.67969">
        <ele>27</ele>
        <time>2019-05-15T08:56:26Z</time>
      </trkpt>
      <trkpt lat="51.95931" lon="4.68017">
        <ele>27.200000762939</ele>
        <time>2019-05-15T08:56:38Z</time>
      </trkpt>
      <trkpt lat="51.95995" lon="4.68065">
        <ele>27</ele>
        <time>2019-05-15T08:56:59Z</time>
      </trkpt>
      <trkpt lat="51.96043" lon="4.68105">
        <ele>27</ele>
        <time>2019-05-15T08:57:21Z</time>
      </trkpt>
      <trkpt lat="51.96088" lon="4.68139">
        <ele>27.200000762939</ele>
        <time>2019-05-15T08:57:42Z</time>
      </trkpt>
      <trkpt lat="51.96148" lon="4.68187">
        <ele>27.200000762939</ele>
        <time>2019-05-15T08:57:53Z</time>
      </trkpt>
      <trkpt lat="51.96071" lon="4.68369">
        <ele>27.200000762939</ele>
        <time>2019-05-15T08:57:57Z</time>
      </trkpt>
      <trkpt lat="51.96017" lon="4.68469">
        <ele>27.39999961853</ele>
        <time>2019-05-15T08:58:08Z</time>
      </trkpt>
      <trkpt lat="51.95954" lon="4.68584">
        <ele>27.39999961853</ele>
        <time>2019-05-15T08:58:29Z</time>
      </trkpt>
      <trkpt lat="51.95926" lon="4.68636">
        <ele>27.200000762939</ele>
        <time>2019-05-15T08:58:52Z</time>
      </trkpt>
      <trkpt lat="51.95843" lon="4.68787">
        <ele>27.200000762939</ele>
        <time>2019-05-15T08:59:17Z</time>
      </trkpt>
      <trkpt lat="51.9579" lon="4.68882">
        <ele>26.799999237061</ele>
        <time>2019-05-15T08:59:42Z</time>
      </trkpt>
      <trkpt lat="51.95764" lon="4.6894">
        <ele>27</ele>
        <time>2019-05-15T09:00:08Z</time>
      </trkpt>
      <trkpt lat="51.95781" lon="4.68965">
        <ele>27.200000762939</ele>
        <time>2019-05-15T09:00:34Z</time>
      </trkpt>
      <trkpt lat="51.95828" lon="4.69017">
        <ele>27.200000762939</ele>
        <time>2019-05-15T09:00:58Z</time>
      </trkpt>
      <trkpt lat="51.9591" lon="4.69109">
        <ele>27</ele>
        <time>2019-05-15T09:01:20Z</time>
      </trkpt>
      <trkpt lat="51.95997" lon="4.692">
        <ele>27.200000762939</ele>
        <time>2019-05-15T09:01:37Z</time>
      </trkpt>
      <trkpt lat="51.96078" lon="4.69282">
        <ele>27</ele>
        <time>2019-05-15T09:01:57Z</time>
      </trkpt>
      <trkpt lat="51.96136" lon="4.69341">
        <ele>26.799999237061</ele>
        <time>2019-05-15T09:02:20Z</time>
      </trkpt>
      <trkpt lat="51.96195" lon="4.69401">
        <ele>26.799999237061</ele>
        <time>2019-05-15T09:02:33Z</time>
      </trkpt>
      <trkpt lat="51.96286" lon="4.69486">
        <ele>27</ele>
        <time>2019-05-15T09:02:41Z</time>
      </trkpt>
      <trkpt lat="51.96535" lon="4.69663">
        <ele>27</ele>
        <time>2019-05-15T09:02:54Z</time>
      </trkpt>
      <trkpt lat="51.96611" lon="4.69725">
        <ele>26.799999237061</ele>
        <time>2019-05-15T09:03:13Z</time>
      </trkpt>
      <trkpt lat="51.96659" lon="4.69771">
        <ele>26.799999237061</ele>
        <time>2019-05-15T09:03:37Z</time>
      </trkpt>
      <trkpt lat="51.96711" lon="4.69824">
        <ele>26.60000038147</ele>
        <time>2019-05-15T09:03:58Z</time>
      </trkpt>
      <trkpt lat="51.96749" lon="4.6986">
        <ele>27.200000762939</ele>
        <time>2019-05-15T09:04:24Z</time>
      </trkpt>
      <trkpt lat="51.9676" lon="4.69869">
        <ele>26.799999237061</ele>
        <time>2019-05-15T09:04:51Z</time>
      </trkpt>
      <trkpt lat="51.96802" lon="4.69911">
        <ele>27</ele>
        <time>2019-05-15T09:05:15Z</time>
      </trkpt>
      <trkpt lat="51.9681" lon="4.69935">
        <ele>27.799999237061</ele>
        <time>2019-05-15T09:05:40Z</time>
      </trkpt>
      <trkpt lat="51.96762" lon="4.69876">
        <ele>28</ele>
        <time>2019-05-15T09:06:02Z</time>
      </trkpt>
      <trkpt lat="51.96683" lon="4.69799">
        <ele>27.799999237061</ele>
        <time>2019-05-15T09:06:29Z</time>
      </trkpt>
      <trkpt lat="51.96629" lon="4.69743">
        <ele>27.39999961853</ele>
        <time>2019-05-15T09:06:50Z</time>
      </trkpt>
      <trkpt lat="51.96572" lon="4.69696">
        <ele>27.60000038147</ele>
        <time>2019-05-15T09:07:11Z</time>
      </trkpt>
      <trkpt lat="51.9649" lon="4.69632">
        <ele>27.39999961853</ele>
        <time>2019-05-15T09:07:21Z</time>
      </trkpt>
      <trkpt lat="51.96436" lon="4.6959">
        <ele>27.60000038147</ele>
        <time>2019-05-15T09:19:05Z</time>
      </trkpt>
      <trkpt lat="51.96388" lon="4.69557">
        <ele>27.39999961853</ele>
        <time>2019-05-15T09:19:10Z</time>
      </trkpt>
      <trkpt lat="51.96318" lon="4.69509">
        <ele>27.799999237061</ele>
        <time>2019-05-15T09:19:24Z</time>
      </trkpt>
      <trkpt lat="51.96296" lon="4.69488">
        <ele>27.60000038147</ele>
        <time>2019-05-15T09:19:49Z</time>
      </trkpt>
      <trkpt lat="51.96299" lon="4.69487">
        <ele>28.39999961853</ele>
        <time>2019-05-15T09:20:05Z</time>
      </trkpt>
      <trkpt lat="51.96309" lon="4.69503">
        <ele>28.39999961853</ele>
        <time>2019-05-15T09:20:31Z</time>
      </trkpt>
      <trkpt lat="51.96354" lon="4.69535">
        <ele>28.799999237061</ele>
        <time>2019-05-15T09:20:58Z</time>
      </trkpt>
      <trkpt lat="51.96424" lon="4.69584">
        <ele>29.200000762939</ele>
        <time>2019-05-15T09:21:23Z</time>
      </trkpt>
      <trkpt lat="51.96489" lon="4.69631">
        <ele>29</ele>
        <time>2019-05-15T09:21:55Z</time>
      </trkpt>
      <trkpt lat="51.96579" lon="4.69701">
        <ele>29.200000762939</ele>
        <time>2019-05-15T09:22:21Z</time>
      </trkpt>
      <trkpt lat="51.96671" lon="4.69785">
        <ele>29</ele>
        <time>2019-05-15T09:22:44Z</time>
      </trkpt>
      <trkpt lat="51.96843" lon="4.69963">
        <ele>29</ele>
        <time>2019-05-15T09:23:07Z</time>
      </trkpt>
      <trkpt lat="51.96897" lon="4.70028">
        <ele>28.799999237061</ele>
        <time>2019-05-15T09:23:27Z</time>
      </trkpt>
      <trkpt lat="51.97058" lon="4.70231">
        <ele>29.200000762939</ele>
        <time>2019-05-15T09:23:46Z</time>
      </trkpt>
      <trkpt lat="51.97135" lon="4.70331">
        <ele>29</ele>
        <time>2019-05-15T09:24:10Z</time>
      </trkpt>
      <trkpt lat="51.97196" lon="4.70417">
        <ele>29.200000762939</ele>
        <time>2019-05-15T09:24:35Z</time>
      </trkpt>
      <trkpt lat="51.97201" lon="4.70421">
        <ele>28.60000038147</ele>
        <time>2019-05-15T09:24:53Z</time>
      </trkpt>
      <trkpt lat="51.97222" lon="4.7045">
        <ele>28.39999961853</ele>
        <time>2019-05-15T09:26:14Z</time>
      </trkpt>
      <trkpt lat="51.97278" lon="4.70526">
        <ele>28.200000762939</ele>
        <time>2019-05-15T09:26:39Z</time>
      </trkpt>
      <trkpt lat="51.97357" lon="4.70625">
        <ele>28.39999961853</ele>
        <time>2019-05-15T09:26:59Z</time>
      </trkpt>
      <trkpt lat="51.97449" lon="4.70741">
        <ele>28.200000762939</ele>
        <time>2019-05-15T09:27:21Z</time>
      </trkpt>
      <trkpt lat="51.97539" lon="4.70859">
        <ele>28.60000038147</ele>
        <time>2019-05-15T09:27:42Z</time>
      </trkpt>
      <trkpt lat="51.97609" lon="4.70952">
        <ele>28</ele>
        <time>2019-05-15T09:27:58Z</time>
      </trkpt>
      <trkpt lat="51.97735" lon="4.71119">
        <ele>-0.60000002384186</ele>
        <time>2019-05-15T09:28:21Z</time>
      </trkpt>
      <trkpt lat="51.97799" lon="4.71199">
        <ele>0.40000000596046</ele>
        <time>2019-05-15T09:28:39Z</time>
      </trkpt>
      <trkpt lat="51.9785" lon="4.71266">
        <ele>0.40000000596046</ele>
        <time>2019-05-15T09:28:59Z</time>
      </trkpt>
      <trkpt lat="51.97984" lon="4.71444">
        <ele>0.80000001192093</ele>
        <time>2019-05-15T09:29:24Z</time>
      </trkpt>
      <trkpt lat="51.9801" lon="4.71477">
        <ele>0.40000000596046</ele>
        <time>2019-05-15T09:29:49Z</time>
      </trkpt>
      <trkpt lat="51.98071" lon="4.71571">
        <ele>0.80000001192093</ele>
        <time>2019-05-15T09:30:11Z</time>
      </trkpt>
      <trkpt lat="51.98054" lon="4.71625">
        <ele>0.60000002384186</ele>
        <time>2019-05-15T09:30:36Z</time>
      </trkpt>
      <trkpt lat="51.97947" lon="4.71843">
        <ele>0.20000000298023</ele>
        <time>2019-05-15T09:31:02Z</time>
      </trkpt>
      <trkpt lat="51.97829" lon="4.72088">
        <ele>0.20000000298023</ele>
        <time>2019-05-15T09:31:25Z</time>
      </trkpt>
      <trkpt lat="51.97823" lon="4.72129">
        <ele>0.40000000596046</ele>
        <time>2019-05-15T09:31:52Z</time>
      </trkpt>
      <trkpt lat="51.97876" lon="4.72218">
        <ele>0.20000000298023</ele>
        <time>2019-05-15T09:32:00Z</time>
      </trkpt>
      <trkpt lat="51.97952" lon="4.72348">
        <ele>0.40000000596046</ele>
        <time>2019-05-15T09:32:11Z</time>
      </trkpt>
      <trkpt lat="51.98015" lon="4.72465">
        <ele>0.20000000298023</ele>
        <time>2019-05-15T09:35:55Z</time>
      </trkpt>
      <trkpt lat="51.98063" lon="4.72546">
        <time>2019-05-15T09:36:05Z</time>
      </trkpt>
      <trkpt lat="51.98129" lon="4.72666">
        <ele>0.20000000298023</ele>
        <time>2019-05-15T09:36:11Z</time>
      </trkpt>
      <trkpt lat="51.98197" lon="4.72785">
        <ele>0.20000000298023</ele>
        <time>2019-05-15T09:36:22Z</time>
      </trkpt>
      <trkpt lat="51.98251" lon="4.72882">
        <ele>0.60000002384186</ele>
        <time>2019-05-15T09:36:38Z</time>
      </trkpt>
      <trkpt lat="51.9831" lon="4.72987">
        <time>2019-05-15T09:37:32Z</time>
      </trkpt>
      <trkpt lat="51.98343" lon="4.73041">
        <ele>0.20000000298023</ele>
        <time>2019-05-15T09:37:58Z</time>
      </trkpt>
      <trkpt lat="51.98404" lon="4.73152">
        <time>2019-05-15T09:38:17Z</time>
      </trkpt>
      <trkpt lat="51.98538" lon="4.73387">
        <time>2019-05-15T09:38:32Z</time>
      </trkpt>
      <trkpt lat="51.98595" lon="4.73493">
        <ele>-0.20000000298023</ele>
        <time>2019-05-15T09:38:51Z</time>
      </trkpt>
      <trkpt lat="51.98636" lon="4.73564">
        <ele>-0.20000000298023</ele>
        <time>2019-05-15T09:39:06Z</time>
      </trkpt>
      <trkpt lat="51.98733" lon="4.73779">
        <ele>1</ele>
        <time>2019-05-15T09:39:22Z</time>
      </trkpt>
      <trkpt lat="51.98776" lon="4.73942">
        <ele>1</ele>
        <time>2019-05-15T09:39:44Z</time>
      </trkpt>
      <trkpt lat="51.98819" lon="4.74088">
        <ele>0.20000000298023</ele>
        <time>2019-05-15T09:40:12Z</time>
      </trkpt>
      <trkpt lat="51.98852" lon="4.74205">
        <ele>-0.20000000298023</ele>
        <time>2019-05-15T09:40:31Z</time>
      </trkpt>
      <trkpt lat="51.9889" lon="4.74347">
        <ele>0.20000000298023</ele>
        <time>2019-05-15T09:40:56Z</time>
      </trkpt>
      <trkpt lat="51.98932" lon="4.74501">
        <ele>0.40000000596046</ele>
        <time>2019-05-15T09:41:19Z</time>
      </trkpt>
      <trkpt lat="51.98974" lon="4.74648">
        <ele>0.20000000298023</ele>
        <time>2019-05-15T09:41:50Z</time>
      </trkpt>
      <trkpt lat="51.9901" lon="4.74774">
        <ele>0.40000000596046</ele>
        <time>2019-05-15T09:42:17Z</time>
      </trkpt>
      <trkpt lat="51.9905" lon="4.74894">
        <ele>0.80000001192093</ele>
        <time>2019-05-15T09:42:38Z</time>
      </trkpt>
      <trkpt lat="51.99105" lon="4.74995">
        <ele>1.6000000238419</ele>
        <time>2019-05-15T09:43:01Z</time>
      </trkpt>
      <trkpt lat="51.9912" lon="4.74982">
        <ele>1.7999999523163</ele>
        <time>2019-05-15T09:43:27Z</time>
      </trkpt>
      <trkpt lat="51.99189" lon="4.7493">
        <ele>1.3999999761581</ele>
        <time>2019-05-15T09:43:46Z</time>
      </trkpt>
      <trkpt lat="51.9921" lon="4.74901">
        <ele>1.3999999761581</ele>
        <time>2019-05-15T09:44:06Z</time>
      </trkpt>
      <trkpt lat="51.99261" lon="4.74793">
        <ele>0.80000001192093</ele>
        <time>2019-05-15T09:44:20Z</time>
      </trkpt>
      <trkpt lat="51.99311" lon="4.74683">
        <ele>0.80000001192093</ele>
        <time>2019-05-15T09:44:43Z</time>
      </trkpt>
      <trkpt lat="51.99362" lon="4.74567">
        <ele>1.3999999761581</ele>
        <time>2019-05-15T09:45:04Z</time>
      </trkpt>
      <trkpt lat="51.99465" lon="4.74339">
        <ele>1.7999999523163</ele>
        <time>2019-05-15T09:45:24Z</time>
      </trkpt>
      <trkpt lat="51.99538" lon="4.74175">
        <ele>1.6000000238419</ele>
        <time>2019-05-15T09:45:47Z</time>
      </trkpt>
      <trkpt lat="51.99584" lon="4.7407">
        <ele>1</ele>
        <time>2019-05-15T09:46:08Z</time>
      </trkpt>
      <trkpt lat="51.99646" lon="4.73931">
        <ele>1.3999999761581</ele>
        <time>2019-05-15T09:46:31Z</time>
      </trkpt>
      <trkpt lat="51.99713" lon="4.7378">
        <ele>1.3999999761581</ele>
        <time>2019-05-15T09:46:52Z</time>
      </trkpt>
      <trkpt lat="51.9979" lon="4.73593">
        <ele>1.2000000476837</ele>
        <time>2019-05-15T09:47:14Z</time>
      </trkpt>
      <trkpt lat="51.99833" lon="4.73472">
        <ele>1</ele>
        <time>2019-05-15T09:47:25Z</time>
      </trkpt>
      <trkpt lat="51.99905" lon="4.73304">
        <ele>1.2000000476837</ele>
        <time>2019-05-15T09:47:36Z</time>
      </trkpt>
      <trkpt lat="51.99973" lon="4.73147">
        <ele>1.6000000238419</ele>
        <time>2019-05-15T09:47:53Z</time>
      </trkpt>
      <trkpt lat="52.00006" lon="4.73077">
        <ele>1.3999999761581</ele>
        <time>2019-05-15T09:48:01Z</time>
      </trkpt>
      <trkpt lat="52.00079" lon="4.72919">
        <ele>1.3999999761581</ele>
        <time>2019-05-15T09:48:39Z</time>
      </trkpt>
      <trkpt lat="52.0013" lon="4.72809">
        <ele>1.2000000476837</ele>
        <time>2019-05-15T09:48:54Z</time>
      </trkpt>
      <trkpt lat="52.00189" lon="4.72666">
        <ele>1</ele>
        <time>2019-05-15T09:49:09Z</time>
      </trkpt>
      <trkpt lat="52.00258" lon="4.72528">
        <ele>1</ele>
        <time>2019-05-15T09:49:26Z</time>
      </trkpt>
      <trkpt lat="52.00302" lon="4.72453">
        <ele>1.3999999761581</ele>
        <time>2019-05-15T09:49:46Z</time>
      </trkpt>
      <trkpt lat="52.0037" lon="4.7237">
        <ele>2.2000000476837</ele>
        <time>2019-05-15T09:49:53Z</time>
      </trkpt>
      <trkpt lat="52.00455" lon="4.72278">
        <ele>4.5999999046326</ele>
        <time>2019-05-15T09:50:09Z</time>
      </trkpt>
      <trkpt lat="52.00509" lon="4.72254">
        <ele>5.5999999046326</ele>
        <time>2019-05-15T09:50:20Z</time>
      </trkpt>
      <trkpt lat="52.0053" lon="4.72309">
        <ele>5.5999999046326</ele>
        <time>2019-05-15T09:50:34Z</time>
      </trkpt>
      <trkpt lat="52.00565" lon="4.7239">
        <ele>5.8000001907349</ele>
        <time>2019-05-15T09:50:59Z</time>
      </trkpt>
      <trkpt lat="52.00589" lon="4.72462">
        <ele>5.8000001907349</ele>
        <time>2019-05-15T09:51:15Z</time>
      </trkpt>
      <trkpt lat="52.00681" lon="4.72727">
        <ele>1.7999999523163</ele>
        <time>2019-05-15T10:22:08Z</time>
      </trkpt>
      <trkpt lat="52.00721" lon="4.72848">
        <ele>1.2000000476837</ele>
        <time>2019-05-15T10:22:21Z</time>
      </trkpt>
      <trkpt lat="52.00733" lon="4.7297">
        <ele>1.3999999761581</ele>
        <time>2019-05-15T10:22:35Z</time>
      </trkpt>
      <trkpt lat="52.00704" lon="4.73134">
        <ele>1.2000000476837</ele>
        <time>2019-05-15T10:22:59Z</time>
      </trkpt>
      <trkpt lat="52.00666" lon="4.73307">
        <ele>2</ele>
        <time>2019-05-15T10:23:19Z</time>
      </trkpt>
      <trkpt lat="52.00647" lon="4.73394">
        <ele>3.4000000953674</ele>
        <time>2019-05-15T10:23:38Z</time>
      </trkpt>
      <trkpt lat="52.00623" lon="4.73501">
        <ele>3.7999999523163</ele>
        <time>2019-05-15T10:23:48Z</time>
      </trkpt>
      <trkpt lat="52.00591" lon="4.73655">
        <ele>3.7999999523163</ele>
        <time>2019-05-15T10:23:53Z</time>
      </trkpt>
      <trkpt lat="52.00569" lon="4.73752">
        <ele>4.4000000953674</ele>
        <time>2019-05-15T11:02:16Z</time>
      </trkpt>
      <trkpt lat="52.00498" lon="4.73891">
        <ele>4.1999998092651</ele>
        <time>2019-05-15T11:02:35Z</time>
      </trkpt>
      <trkpt lat="52.00414" lon="4.74014">
        <ele>3.7999999523163</ele>
        <time>2019-05-15T11:03:29Z</time>
      </trkpt>
      <trkpt lat="52.00357" lon="4.7411">
        <ele>4</ele>
        <time>2019-05-15T11:03:40Z</time>
      </trkpt>
      <trkpt lat="52.00298" lon="4.74266">
        <ele>4.4000000953674</ele>
        <time>2019-05-15T11:03:59Z</time>
      </trkpt>
      <trkpt lat="52.0027" lon="4.744">
        <ele>4.1999998092651</ele>
        <time>2019-05-15T11:04:16Z</time>
      </trkpt>
      <trkpt lat="52.00244" lon="4.74588">
        <ele>4.1999998092651</ele>
        <time>2019-05-15T11:04:35Z</time>
      </trkpt>
      <trkpt lat="52.00219" lon="4.74744">
        <ele>4</ele>
        <time>2019-05-15T11:04:40Z</time>
      </trkpt>
      <trkpt lat="52.00225" lon="4.74912">
        <ele>4.4000000953674</ele>
        <time>2019-05-15T11:04:48Z</time>
      </trkpt>
      <trkpt lat="52.00215" lon="4.75055">
        <ele>4.1999998092651</ele>
        <time>2019-05-15T11:05:36Z</time>
      </trkpt>
      <trkpt lat="52.00174" lon="4.75217">
        <ele>4.4000000953674</ele>
        <time>2019-05-15T11:05:54Z</time>
      </trkpt>
      <trkpt lat="52.00127" lon="4.75359">
        <ele>4.1999998092651</ele>
        <time>2019-05-15T11:06:12Z</time>
      </trkpt>
      <trkpt lat="52.00095" lon="4.75512">
        <ele>4.5999999046326</ele>
        <time>2019-05-15T11:06:33Z</time>
      </trkpt>
      <trkpt lat="52.00084" lon="4.75549">
        <ele>4.1999998092651</ele>
        <time>2019-05-15T11:06:39Z</time>
      </trkpt>
      <trkpt lat="52.00067" lon="4.75549">
        <ele>2.2000000476837</ele>
        <time>2019-05-15T11:06:51Z</time>
      </trkpt>
      <trkpt lat="52.00036" lon="4.7556">
        <ele>2</ele>
        <time>2019-05-15T11:07:10Z</time>
      </trkpt>
      <trkpt lat="52.00029" lon="4.75629">
        <ele>1</ele>
        <time>2019-05-15T11:07:24Z</time>
      </trkpt>
      <trkpt lat="51.99961" lon="4.75674">
        <ele>0.80000001192093</ele>
        <time>2019-05-15T11:07:39Z</time>
      </trkpt>
      <trkpt lat="51.99891" lon="4.75717">
        <ele>1</ele>
        <time>2019-05-15T11:08:00Z</time>
      </trkpt>
      <trkpt lat="51.99877" lon="4.75723">
        <ele>1.2000000476837</ele>
        <time>2019-05-15T11:08:22Z</time>
      </trkpt>
      <trkpt lat="51.99857" lon="4.75737">
        <ele>0.80000001192093</ele>
        <time>2019-05-15T11:08:33Z</time>
      </trkpt>
      <trkpt lat="51.99811" lon="4.75765">
        <ele>0.80000001192093</ele>
        <time>2019-05-15T11:08:55Z</time>
      </trkpt>
      <trkpt lat="51.99798" lon="4.75758">
        <ele>0.60000002384186</ele>
        <time>2019-05-15T11:09:16Z</time>
      </trkpt>
      <trkpt lat="51.99904" lon="4.75665">
        <ele>-1.3999999761581</ele>
        <time>2019-05-15T11:09:31Z</time>
      </trkpt>
      <trkpt lat="51.99948" lon="4.7564">
        <ele>-1.2000000476837</ele>
        <time>2019-05-15T11:09:49Z</time>
      </trkpt>
      <trkpt lat="52.00017" lon="4.75599">
        <ele>-1.3999999761581</ele>
        <time>2019-05-15T11:10:02Z</time>
      </trkpt>
      <trkpt lat="52.00026" lon="4.75586">
        <ele>-1.3999999761581</ele>
        <time>2019-05-15T11:10:21Z</time>
      </trkpt>
      <trkpt lat="52.00029" lon="4.75567">
        <ele>-1.7999999523163</ele>
        <time>2019-05-15T11:10:34Z</time>
      </trkpt>
      <trkpt lat="52.00096" lon="4.75551">
        <ele>2.4000000953674</ele>
        <time>2019-05-15T11:10:54Z</time>
      </trkpt>
      <trkpt lat="52.00117" lon="4.75429">
        <ele>2.2000000476837</ele>
        <time>2019-05-15T11:11:10Z</time>
      </trkpt>
      <trkpt lat="52.00162" lon="4.7528">
        <ele>2</ele>
        <time>2019-05-15T11:11:15Z</time>
      </trkpt>
      <trkpt lat="52.00194" lon="4.75181">
        <ele>2.4000000953674</ele>
        <time>2019-05-15T11:11:30Z</time>
      </trkpt>
      <trkpt lat="52.00223" lon="4.75043">
        <ele>2.7999999523163</ele>
        <time>2019-05-15T11:11:45Z</time>
      </trkpt>
      <trkpt lat="52.00223" lon="4.74784">
        <ele>2.7999999523163</ele>
        <time>2019-05-15T11:11:56Z</time>
      </trkpt>
      <trkpt lat="52.0027" lon="4.74451">
        <ele>2.7999999523163</ele>
        <time>2019-05-15T11:12:18Z</time>
      </trkpt>
      <trkpt lat="52.00318" lon="4.7424">
        <ele>2.5999999046326</ele>
        <time>2019-05-15T11:12:23Z</time>
      </trkpt>
      <trkpt lat="52.00376" lon="4.74129">
        <ele>2.7999999523163</ele>
        <time>2019-05-15T11:12:36Z</time>
      </trkpt>
      <trkpt lat="52.00386" lon="4.74114">
        <ele>2.7999999523163</ele>
        <time>2019-05-15T11:13:01Z</time>
      </trkpt>
      <trkpt lat="52.00426" lon="4.74038">
        <ele>2.5999999046326</ele>
        <time>2019-05-15T11:13:18Z</time>
      </trkpt>
      <trkpt lat="52.00504" lon="4.73901">
        <ele>3.2000000476837</ele>
        <time>2019-05-15T11:13:39Z</time>
      </trkpt>
      <trkpt lat="52.0056" lon="4.73805">
        <ele>3.7999999523163</ele>
        <time>2019-05-15T11:14:00Z</time>
      </trkpt>
      <trkpt lat="52.00607" lon="4.73615">
        <ele>3.5999999046326</ele>
        <time>2019-05-15T11:14:06Z</time>
      </trkpt>
      <trkpt lat="52.00639" lon="4.73477">
        <ele>3.2000000476837</ele>
        <time>2019-05-15T11:14:17Z</time>
      </trkpt>
      <trkpt lat="52.00662" lon="4.73377">
        <ele>3.5999999046326</ele>
        <time>2019-05-15T11:14:25Z</time>
      </trkpt>
      <trkpt lat="52.0069" lon="4.73236">
        <ele>3.2000000476837</ele>
        <time>2019-05-15T11:14:47Z</time>
      </trkpt>
      <trkpt lat="52.00708" lon="4.73158">
        <ele>1.7999999523163</ele>
        <time>2019-05-15T11:15:10Z</time>
      </trkpt>
      <trkpt lat="52.0074" lon="4.72983">
        <ele>0.80000001192093</ele>
        <time>2019-05-15T11:15:22Z</time>
      </trkpt>
      <trkpt lat="52.00735" lon="4.7289">
        <ele>1</ele>
        <time>2019-05-15T11:15:42Z</time>
      </trkpt>
      <trkpt lat="52.0069" lon="4.72728">
        <ele>1</ele>
        <time>2019-05-15T11:16:01Z</time>
      </trkpt>
      <trkpt lat="52.00653" lon="4.72622">
        <ele>0.80000001192093</ele>
        <time>2019-05-15T11:16:18Z</time>
      </trkpt>
      <trkpt lat="52.00579" lon="4.72386">
        <ele>4.8000001907349</ele>
        <time>2019-05-15T11:16:40Z</time>
      </trkpt>
      <trkpt lat="52.00548" lon="4.72321">
        <ele>5.4000000953674</ele>
        <time>2019-05-15T11:16:49Z</time>
      </trkpt>
      <trkpt lat="52.00538" lon="4.72263">
        <ele>5.5999999046326</ele>
        <time>2019-05-15T11:17:11Z</time>
      </trkpt>
      <trkpt lat="52.00544" lon="4.72234">
        <ele>5.1999998092651</ele>
        <time>2019-05-15T11:17:32Z</time>
      </trkpt>
      <trkpt lat="52.00589" lon="4.72148">
        <ele>5</ele>
        <time>2019-05-15T11:17:50Z</time>
      </trkpt>
      <trkpt lat="52.00628" lon="4.72111">
        <ele>6.4000000953674</ele>
        <time>2019-05-15T11:18:09Z</time>
      </trkpt>
      <trkpt lat="52.00682" lon="4.72101">
        <ele>6.8000001907349</ele>
        <time>2019-05-15T11:18:27Z</time>
      </trkpt>
      <trkpt lat="52.00692" lon="4.72105">
        <ele>6.5999999046326</ele>
        <time>2019-05-15T11:18:47Z</time>
      </trkpt>
      <trkpt lat="52.00716" lon="4.718">
        <ele>6.5999999046326</ele>
        <time>2019-05-15T11:19:10Z</time>
      </trkpt>
      <trkpt lat="52.00714" lon="4.71695">
        <ele>6.4000000953674</ele>
        <time>2019-05-15T11:19:30Z</time>
      </trkpt>
      <trkpt lat="52.00713" lon="4.71529">
        <ele>6.8000001907349</ele>
        <time>2019-05-15T11:19:56Z</time>
      </trkpt>
      <trkpt lat="52.00708" lon="4.71415">
        <ele>6</ele>
        <time>2019-05-15T11:20:21Z</time>
      </trkpt>
      <trkpt lat="52.00752" lon="4.71358">
        <ele>5.1999998092651</ele>
        <time>2019-05-15T11:20:46Z</time>
      </trkpt>
      <trkpt lat="52.00793" lon="4.71316">
        <ele>5</ele>
        <time>2019-05-15T11:21:03Z</time>
      </trkpt>
      <trkpt lat="52.00935" lon="4.71183">
        <ele>4.5999999046326</ele>
        <time>2019-05-15T11:21:15Z</time>
      </trkpt>
      <trkpt lat="52.01036" lon="4.71045">
        <ele>4.5999999046326</ele>
        <time>2019-05-15T11:21:34Z</time>
      </trkpt>
      <trkpt lat="52.01045" lon="4.71035">
        <ele>3.4000000953674</ele>
        <time>2019-05-15T11:21:52Z</time>
      </trkpt>
      <trkpt lat="52.01086" lon="4.71028">
        <ele>2.7999999523163</ele>
        <time>2019-05-15T11:22:08Z</time>
      </trkpt>
      <trkpt lat="52.01096" lon="4.71038">
        <ele>2.2000000476837</ele>
        <time>2019-05-15T11:22:21Z</time>
      </trkpt>
      <trkpt lat="52.01127" lon="4.71074">
        <ele>1.7999999523163</ele>
        <time>2019-05-15T11:22:40Z</time>
      </trkpt>
      <trkpt lat="52.01134" lon="4.7107">
        <ele>1.6000000238419</ele>
        <time>2019-05-15T11:22:59Z</time>
      </trkpt>
      <trkpt lat="52.01142" lon="4.71067">
        <ele>1.7999999523163</ele>
        <time>2019-05-15T11:23:18Z</time>
      </trkpt>
      <trkpt lat="52.01173" lon="4.71086">
        <ele>1.3999999761581</ele>
        <time>2019-05-15T11:23:37Z</time>
      </trkpt>
      <trkpt lat="52.012" lon="4.71093">
        <ele>2.2000000476837</ele>
        <time>2019-05-15T11:23:56Z</time>
      </trkpt>
      <trkpt lat="52.01214" lon="4.71067">
        <ele>1.6000000238419</ele>
        <time>2019-05-15T11:24:14Z</time>
      </trkpt>
      <trkpt lat="52.01216" lon="4.71035">
        <ele>1.7999999523163</ele>
        <time>2019-05-15T11:24:33Z</time>
      </trkpt>
      <trkpt lat="52.01212" lon="4.71015">
        <ele>1</ele>
        <time>2019-05-15T11:24:51Z</time>
      </trkpt>
      <trkpt lat="52.01195" lon="4.71012">
        <ele>1.6000000238419</ele>
        <time>2019-05-15T11:25:09Z</time>
      </trkpt>
      <trkpt lat="52.01161" lon="4.7103">
        <ele>1.7999999523163</ele>
        <time>2019-05-15T11:25:28Z</time>
      </trkpt>
      <trkpt lat="52.0114" lon="4.71033">
        <ele>1.3999999761581</ele>
        <time>2019-05-15T11:25:51Z</time>
      </trkpt>
      <trkpt lat="52.01152" lon="4.71021">
        <ele>3</ele>
        <time>2019-05-15T11:26:11Z</time>
      </trkpt>
      <trkpt lat="52.01163" lon="4.71046">
        <ele>2.7999999523163</ele>
        <time>2019-05-15T11:26:30Z</time>
      </trkpt>
      <trkpt lat="52.01204" lon="4.71029">
        <ele>2.7999999523163</ele>
        <time>2019-05-15T11:26:58Z</time>
      </trkpt>
      <trkpt lat="52.01228" lon="4.71017">
        <ele>3.2000000476837</ele>
        <time>2019-05-15T11:27:20Z</time>
      </trkpt>
      <trkpt lat="52.01268" lon="4.70996">
        <ele>3.4000000953674</ele>
        <time>2019-05-15T11:27:41Z</time>
      </trkpt>
      <trkpt lat="52.01284" lon="4.70993">
        <ele>3.7999999523163</ele>
        <time>2019-05-15T11:28:10Z</time>
      </trkpt>
      <trkpt lat="52.01317" lon="4.70992">
        <ele>3.2000000476837</ele>
        <time>2019-05-15T11:28:32Z</time>
      </trkpt>
      <trkpt lat="52.01349" lon="4.71012">
        <ele>3</ele>
        <time>2019-05-15T11:28:55Z</time>
      </trkpt>
      <trkpt lat="52.01336" lon="4.71117">
        <ele>3.7999999523163</ele>
        <time>2019-05-15T11:29:12Z</time>
      </trkpt>
      <trkpt lat="52.01327" lon="4.71107">
        <ele>4.4000000953674</ele>
        <time>2019-05-15T11:29:23Z</time>
      </trkpt>
      <trkpt lat="52.01282" lon="4.71104">
        <ele>4</ele>
        <time>2019-05-15T11:29:40Z</time>
      </trkpt>
      <trkpt lat="52.01263" lon="4.71153">
        <ele>4.4000000953674</ele>
        <time>2019-05-15T11:30:07Z</time>
      </trkpt>
      <trkpt lat="52.01251" lon="4.71169">
        <ele>4.4000000953674</ele>
        <time>2019-05-15T11:30:36Z</time>
      </trkpt>
      <trkpt lat="52.0122" lon="4.71198">
        <ele>4.1999998092651</ele>
        <time>2019-05-15T11:31:02Z</time>
      </trkpt>
      <trkpt lat="52.012" lon="4.71223">
        <ele>4.8000001907349</ele>
        <time>2019-05-15T11:31:21Z</time>
      </trkpt>
      <trkpt lat="52.01172" lon="4.71249">
        <ele>4.5999999046326</ele>
        <time>2019-05-15T11:31:29Z</time>
      </trkpt>
      <trkpt lat="52.01151" lon="4.71271">
        <ele>4.8000001907349</ele>
        <time>2019-05-15T11:31:49Z</time>
      </trkpt>
      <trkpt lat="52.01144" lon="4.71274">
        <ele>5.4000000953674</ele>
        <time>2019-05-15T11:32:10Z</time>
      </trkpt>
      <trkpt lat="52.01136" lon="4.71239">
        <ele>4.5999999046326</ele>
        <time>2019-05-15T11:32:24Z</time>
      </trkpt>
      <trkpt lat="52.01128" lon="4.71222">
        <ele>4.8000001907349</ele>
        <time>2019-05-15T11:32:47Z</time>
      </trkpt>
      <trkpt lat="52.01109" lon="4.71194">
        <ele>4.5999999046326</ele>
        <time>2019-05-15T11:33:07Z</time>
      </trkpt>
      <trkpt lat="52.01107" lon="4.71207">
        <ele>5.4000000953674</ele>
        <time>2019-05-15T11:33:29Z</time>
      </trkpt>
      <trkpt lat="52.01084" lon="4.7128">
        <ele>5.8000001907349</ele>
        <time>2019-05-15T11:33:52Z</time>
      </trkpt>
      <trkpt lat="52.01062" lon="4.71288">
        <ele>5.8000001907349</ele>
        <time>2019-05-15T11:34:03Z</time>
      </trkpt>
      <trkpt lat="52.01062" lon="4.71283">
        <ele>5.4000000953674</ele>
        <time>2019-05-15T11:34:22Z</time>
      </trkpt>
      <trkpt lat="52.01055" lon="4.71256">
        <ele>5.5999999046326</ele>
        <time>2019-05-15T11:34:41Z</time>
      </trkpt>
      <trkpt lat="52.01062" lon="4.71192">
        <ele>5.5999999046326</ele>
        <time>2019-05-15T11:35:01Z</time>
      </trkpt>
      <trkpt lat="52.01053" lon="4.7116">
        <ele>6</ele>
        <time>2019-05-15T11:35:22Z</time>
      </trkpt>
      <trkpt lat="52.01051" lon="4.71095">
        <ele>6</ele>
        <time>2019-05-15T11:35:43Z</time>
      </trkpt>
      <trkpt lat="52.01055" lon="4.71073">
        <ele>6.1999998092651</ele>
        <time>2019-05-15T11:36:02Z</time>
      </trkpt>
      <trkpt lat="52.01077" lon="4.71068">
        <ele>6.1999998092651</ele>
        <time>2019-05-15T11:36:25Z</time>
      </trkpt>
      <trkpt lat="52.0109" lon="4.71089">
        <ele>5.5999999046326</ele>
        <time>2019-05-15T11:36:41Z</time>
      </trkpt>
      <trkpt lat="52.01091" lon="4.71118">
        <ele>5.8000001907349</ele>
        <time>2019-05-15T11:36:57Z</time>
      </trkpt>
      <trkpt lat="52.01099" lon="4.71173">
        <ele>5.4000000953674</ele>
        <time>2019-05-15T11:37:16Z</time>
      </trkpt>
      <trkpt lat="52.01099" lon="4.71211">
        <ele>5.4000000953674</ele>
        <time>2019-05-15T11:37:34Z</time>
      </trkpt>
      <trkpt lat="52.01137" lon="4.71178">
        <ele>5.4000000953674</ele>
        <time>2019-05-15T11:37:55Z</time>
      </trkpt>
      <trkpt lat="52.01169" lon="4.71144">
        <ele>5.8000001907349</ele>
        <time>2019-05-15T11:38:14Z</time>
      </trkpt>
      <trkpt lat="52.01179" lon="4.71133">
        <ele>5.5999999046326</ele>
        <time>2019-05-15T11:38:37Z</time>
      </trkpt>
      <trkpt lat="52.01202" lon="4.71105">
        <ele>5.8000001907349</ele>
        <time>2019-05-15T11:38:59Z</time>
      </trkpt>
      <trkpt lat="52.01262" lon="4.71121">
        <ele>5.8000001907349</ele>
        <time>2019-05-15T11:39:18Z</time>
      </trkpt>
      <trkpt lat="52.01293" lon="4.7109">
        <ele>5.8000001907349</ele>
        <time>2019-05-15T11:39:41Z</time>
      </trkpt>
      <trkpt lat="52.01324" lon="4.71134">
        <ele>5.4000000953674</ele>
        <time>2019-05-15T11:39:52Z</time>
      </trkpt>
      <trkpt lat="52.01331" lon="4.71185">
        <ele>6</ele>
        <time>2019-05-15T11:40:01Z</time>
      </trkpt>
      <trkpt lat="52.01377" lon="4.71277">
        <ele>6</ele>
        <time>2019-05-15T11:40:15Z</time>
      </trkpt>
      <trkpt lat="52.01385" lon="4.71286">
        <ele>6.1999998092651</ele>
        <time>2019-05-15T11:41:00Z</time>
      </trkpt>
      <trkpt lat="52.01406" lon="4.71245">
        <ele>6.1999998092651</ele>
        <time>2019-05-15T11:41:11Z</time>
      </trkpt>
      <trkpt lat="52.01444" lon="4.71182">
        <ele>6.4000000953674</ele>
        <time>2019-05-15T11:41:19Z</time>
      </trkpt>
      <trkpt lat="52.01472" lon="4.71089">
        <ele>6.4000000953674</ele>
        <time>2019-05-15T11:41:35Z</time>
      </trkpt>
      <trkpt lat="52.01523" lon="4.71006">
        <ele>5.8000001907349</ele>
        <time>2019-05-15T11:41:57Z</time>
      </trkpt>
      <trkpt lat="52.01538" lon="4.70974">
        <ele>6</ele>
        <time>2019-05-15T11:42:20Z</time>
      </trkpt>
      <trkpt lat="52.01545" lon="4.70969">
        <ele>6.5999999046326</ele>
        <time>2019-05-15T11:42:30Z</time>
      </trkpt>
      <trkpt lat="52.01601" lon="4.70965">
        <ele>6.5999999046326</ele>
        <time>2019-05-15T11:42:43Z</time>
      </trkpt>
      <trkpt lat="52.01663" lon="4.7096">
        <ele>5.4000000953674</ele>
        <time>2019-05-15T11:43:59Z</time>
      </trkpt>
      <trkpt lat="52.01671" lon="4.71137">
        <ele>4.8000001907349</ele>
        <time>2019-05-15T11:44:17Z</time>
      </trkpt>
      <trkpt lat="52.01667" lon="4.71233">
        <ele>4.5999999046326</ele>
        <time>2019-05-15T11:44:28Z</time>
      </trkpt>
      <trkpt lat="52.01658" lon="4.71348">
        <ele>4.5999999046326</ele>
        <time>2019-05-15T11:44:37Z</time>
      </trkpt>
      <trkpt lat="52.01654" lon="4.71511">
        <ele>5</ele>
        <time>2019-05-15T11:44:45Z</time>
      </trkpt>
      <trkpt lat="52.01645" lon="4.71638">
        <ele>5.1999998092651</ele>
        <time>2019-05-15T11:45:06Z</time>
      </trkpt>
      <trkpt lat="52.01639" lon="4.7175">
        <ele>5</ele>
        <time>2019-05-15T11:45:25Z</time>
      </trkpt>
      <trkpt lat="52.0163" lon="4.71879">
        <ele>5.1999998092651</ele>
        <time>2019-05-15T11:45:48Z</time>
      </trkpt>
      <trkpt lat="52.01623" lon="4.72002">
        <ele>5</ele>
        <time>2019-05-15T11:46:19Z</time>
      </trkpt>
      <trkpt lat="52.01612" lon="4.72129">
        <ele>5.5999999046326</ele>
        <time>2019-05-15T11:46:46Z</time>
      </trkpt>
      <trkpt lat="52.01608" lon="4.72188">
        <ele>6.1999998092651</ele>
        <time>2019-05-15T11:47:14Z</time>
      </trkpt>
      <trkpt lat="52.01641" lon="4.72191">
        <ele>5.8000001907349</ele>
        <time>2019-05-15T11:47:37Z</time>
      </trkpt>
      <trkpt lat="52.01675" lon="4.72159">
        <ele>6</ele>
        <time>2019-05-15T11:48:02Z</time>
      </trkpt>
      <trkpt lat="52.01721" lon="4.72149">
        <ele>6.4000000953674</ele>
        <time>2019-05-15T11:48:26Z</time>
      </trkpt>
      <trkpt lat="52.01778" lon="4.72135">
        <ele>6.4000000953674</ele>
        <time>2019-05-15T11:48:45Z</time>
      </trkpt>
      <trkpt lat="52.01832" lon="4.72134">
        <ele>6.5999999046326</ele>
        <time>2019-05-15T11:49:00Z</time>
      </trkpt>
      <trkpt lat="52.01836" lon="4.72194">
        <ele>7.1999998092651</ele>
        <time>2019-05-15T11:49:15Z</time>
      </trkpt>
      <trkpt lat="52.01847" lon="4.7226">
        <ele>5</ele>
        <time>2019-05-15T11:49:31Z</time>
      </trkpt>
      <trkpt lat="52.01853" lon="4.72208">
        <ele>5.1999998092651</ele>
        <time>2019-05-15T11:52:55Z</time>
      </trkpt>
      <trkpt lat="52.01856" lon="4.72093">
        <ele>6.8000001907349</ele>
        <time>2019-05-15T11:53:02Z</time>
      </trkpt>
      <trkpt lat="52.01856" lon="4.71988">
        <ele>5.5999999046326</ele>
        <time>2019-05-15T11:53:15Z</time>
      </trkpt>
      <trkpt lat="52.01886" lon="4.71947">
        <ele>4.8000001907349</ele>
        <time>2019-05-15T11:53:31Z</time>
      </trkpt>
      <trkpt lat="52.01967" lon="4.7192">
        <ele>5.1999998092651</ele>
        <time>2019-05-15T11:53:36Z</time>
      </trkpt>
      <trkpt lat="52.02049" lon="4.71895">
        <ele>5.1999998092651</ele>
        <time>2019-05-15T11:53:51Z</time>
      </trkpt>
      <trkpt lat="52.0213" lon="4.71874">
        <ele>4.5999999046326</ele>
        <time>2019-05-15T11:54:07Z</time>
      </trkpt>
      <trkpt lat="52.02454" lon="4.71778">
        <ele>4.5999999046326</ele>
        <time>2019-05-15T11:54:20Z</time>
      </trkpt>
      <trkpt lat="52.02511" lon="4.71738">
        <ele>5</ele>
        <time>2019-05-15T11:54:32Z</time>
      </trkpt>
      <trkpt lat="52.02586" lon="4.71762">
        <ele>5</ele>
        <time>2019-05-15T11:54:50Z</time>
      </trkpt>
      <trkpt lat="52.02618" lon="4.71795">
        <ele>4.8000001907349</ele>
        <time>2019-05-15T11:55:16Z</time>
      </trkpt>
      <trkpt lat="52.02633" lon="4.71809">
        <ele>5.1999998092651</ele>
        <time>2019-05-15T11:55:29Z</time>
      </trkpt>
      <trkpt lat="52.02679" lon="4.71826">
        <ele>5.4000000953674</ele>
        <time>2019-05-15T11:56:24Z</time>
      </trkpt>
      <trkpt lat="52.02837" lon="4.71955">
        <ele>5.4000000953674</ele>
        <time>2019-05-15T11:56:42Z</time>
      </trkpt>
      <trkpt lat="52.02892" lon="4.71959">
        <ele>4.1999998092651</ele>
        <time>2019-05-15T11:57:05Z</time>
      </trkpt>
      <trkpt lat="52.03204" lon="4.71959">
        <ele>4.1999998092651</ele>
        <time>2019-05-15T11:57:23Z</time>
      </trkpt>
      <trkpt lat="52.03322" lon="4.71957">
        <ele>4.5999999046326</ele>
        <time>2019-05-15T11:57:47Z</time>
      </trkpt>
      <trkpt lat="52.03409" lon="4.71955">
        <ele>4.4000000953674</ele>
        <time>2019-05-15T11:58:06Z</time>
      </trkpt>
      <trkpt lat="52.03504" lon="4.71956">
        <ele>4.5999999046326</ele>
        <time>2019-05-15T11:58:28Z</time>
      </trkpt>
      <trkpt lat="52.03595" lon="4.71955">
        <ele>4.5999999046326</ele>
        <time>2019-05-15T11:58:51Z</time>
      </trkpt>
      <trkpt lat="52.03699" lon="4.71955">
        <ele>4.1999998092651</ele>
        <time>2019-05-15T11:59:16Z</time>
      </trkpt>
      <trkpt lat="52.03792" lon="4.71959">
        <ele>4.8000001907349</ele>
        <time>2019-05-15T11:59:31Z</time>
      </trkpt>
      <trkpt lat="52.03851" lon="4.71974">
        <ele>5.4000000953674</ele>
        <time>2019-05-15T11:59:47Z</time>
      </trkpt>
      <trkpt lat="52.03933" lon="4.72015">
        <ele>4.8000001907349</ele>
        <time>2019-05-15T12:00:07Z</time>
      </trkpt>
      <trkpt lat="52.03998" lon="4.72044">
        <ele>4.5999999046326</ele>
        <time>2019-05-15T12:00:22Z</time>
      </trkpt>
      <trkpt lat="52.04103" lon="4.721">
        <ele>4.5999999046326</ele>
        <time>2019-05-15T12:00:35Z</time>
      </trkpt>
      <trkpt lat="52.04204" lon="4.72149">
        <ele>5.1999998092651</ele>
        <time>2019-05-15T12:01:34Z</time>
      </trkpt>
      <trkpt lat="52.04252" lon="4.72203">
        <ele>6.1999998092651</ele>
        <time>2019-05-15T12:01:52Z</time>
      </trkpt>
      <trkpt lat="52.04254" lon="4.72181">
        <ele>6.1999998092651</ele>
        <time>2019-05-15T12:02:10Z</time>
      </trkpt>
      <trkpt lat="52.0428" lon="4.72178">
        <ele>5.8000001907349</ele>
        <time>2019-05-15T12:02:35Z</time>
      </trkpt>
      <trkpt lat="52.04432" lon="4.72225">
        <ele>4.8000001907349</ele>
        <time>2019-05-15T12:02:52Z</time>
      </trkpt>
      <trkpt lat="52.04533" lon="4.7227">
        <ele>5</ele>
        <time>2019-05-15T12:03:09Z</time>
      </trkpt>
      <trkpt lat="52.04594" lon="4.72296">
        <ele>5.1999998092651</ele>
        <time>2019-05-15T12:03:24Z</time>
      </trkpt>
      <trkpt lat="52.0469" lon="4.72335">
        <ele>5</ele>
        <time>2019-05-15T12:03:52Z</time>
      </trkpt>
      <trkpt lat="52.04759" lon="4.72368">
        <ele>5</ele>
        <time>2019-05-15T12:04:01Z</time>
      </trkpt>
      <trkpt lat="52.04831" lon="4.72396">
        <ele>5.1999998092651</ele>
        <time>2019-05-15T12:04:25Z</time>
      </trkpt>
      <trkpt lat="52.04941" lon="4.72444">
        <ele>5.1999998092651</ele>
        <time>2019-05-15T12:04:46Z</time>
      </trkpt>
      <trkpt lat="52.05127" lon="4.72524">
        <ele>5.5999999046326</ele>
        <time>2019-05-15T12:05:05Z</time>
      </trkpt>
      <trkpt lat="52.05353" lon="4.72618">
        <ele>5.5999999046326</ele>
        <time>2019-05-15T12:05:31Z</time>
      </trkpt>
      <trkpt lat="52.05396" lon="4.72595">
        <ele>6</ele>
        <time>2019-05-15T12:05:47Z</time>
      </trkpt>
      <trkpt lat="52.05421" lon="4.7255">
        <ele>6</ele>
        <time>2019-05-15T12:06:08Z</time>
      </trkpt>
      <trkpt lat="52.05426" lon="4.72463">
        <ele>6</ele>
        <time>2019-05-15T12:06:31Z</time>
      </trkpt>
      <trkpt lat="52.05425" lon="4.72392">
        <ele>5.5999999046326</ele>
        <time>2019-05-15T12:06:53Z</time>
      </trkpt>
      <trkpt lat="52.05483" lon="4.72241">
        <ele>5.5999999046326</ele>
        <time>2019-05-15T12:07:14Z</time>
      </trkpt>
      <trkpt lat="52.05454" lon="4.72166">
        <ele>5.5999999046326</ele>
        <time>2019-05-15T12:07:25Z</time>
      </trkpt>
      <trkpt lat="52.05478" lon="4.72196">
        <ele>6</ele>
        <time>2019-05-15T12:07:50Z</time>
      </trkpt>
      <trkpt lat="52.05532" lon="4.72251">
        <ele>6.4000000953674</ele>
        <time>2019-05-15T12:08:06Z</time>
      </trkpt>
      <trkpt lat="52.05607" lon="4.7234">
        <ele>5.8000001907349</ele>
        <time>2019-05-15T12:08:12Z</time>
      </trkpt>
      <trkpt lat="52.05685" lon="4.72427">
        <ele>5.8000001907349</ele>
        <time>2019-05-15T12:08:18Z</time>
      </trkpt>
      <trkpt lat="52.0577" lon="4.72462">
        <ele>6</ele>
        <time>2019-05-15T12:08:28Z</time>
      </trkpt>
      <trkpt lat="52.05815" lon="4.72445">
        <ele>6</ele>
        <time>2019-05-15T12:08:41Z</time>
      </trkpt>
      <trkpt lat="52.0586" lon="4.72448">
        <ele>6.1999998092651</ele>
        <time>2019-05-15T12:09:00Z</time>
      </trkpt>
      <trkpt lat="52.05918" lon="4.7252">
        <ele>6.1999998092651</ele>
        <time>2019-05-15T12:09:21Z</time>
      </trkpt>
      <trkpt lat="52.05962" lon="4.72606">
        <ele>6</ele>
        <time>2019-05-15T12:09:43Z</time>
      </trkpt>
      <trkpt lat="52.06023" lon="4.72738">
        <ele>5.8000001907349</ele>
        <time>2019-05-15T12:10:07Z</time>
      </trkpt>
      <trkpt lat="52.06106" lon="4.72911">
        <ele>5.5999999046326</ele>
        <time>2019-05-15T12:10:28Z</time>
      </trkpt>
      <trkpt lat="52.06173" lon="4.73048">
        <ele>6</ele>
        <time>2019-05-15T12:10:51Z</time>
      </trkpt>
      <trkpt lat="52.06246" lon="4.73189">
        <ele>6</ele>
        <time>2019-05-15T12:11:09Z</time>
      </trkpt>
      <trkpt lat="52.0633" lon="4.73342">
        <ele>6.1999998092651</ele>
        <time>2019-05-15T12:11:30Z</time>
      </trkpt>
      <trkpt lat="52.06415" lon="4.73497">
        <ele>6</ele>
        <time>2019-05-15T12:11:46Z</time>
      </trkpt>
      <trkpt lat="52.065" lon="4.73613">
        <ele>6</ele>
        <time>2019-05-15T12:12:14Z</time>
      </trkpt>
      <trkpt lat="52.06599" lon="4.73715">
        <ele>6</ele>
        <time>2019-05-15T12:12:37Z</time>
      </trkpt>
      <trkpt lat="52.06715" lon="4.73825">
        <ele>6.1999998092651</ele>
        <time>2019-05-15T12:12:56Z</time>
      </trkpt>
      <trkpt lat="52.06818" lon="4.7391">
        <ele>6.1999998092651</ele>
        <time>2019-05-15T12:13:14Z</time>
      </trkpt>
      <trkpt lat="52.06837" lon="4.73925">
        <ele>6</ele>
        <time>2019-05-15T12:13:37Z</time>
      </trkpt>
      <trkpt lat="52.06897" lon="4.73972">
        <ele>6</ele>
        <time>2019-05-15T12:13:52Z</time>
      </trkpt>
      <trkpt lat="52.06989" lon="4.74053">
        <ele>5.8000001907349</ele>
        <time>2019-05-15T12:14:12Z</time>
      </trkpt>
      <trkpt lat="52.07013" lon="4.74055">
        <ele>6</ele>
        <time>2019-05-15T12:14:30Z</time>
      </trkpt>
      <trkpt lat="52.07069" lon="4.741">
        <ele>6.1999998092651</ele>
        <time>2019-05-15T12:15:01Z</time>
      </trkpt>
      <trkpt lat="52.07114" lon="4.74109">
        <ele>6.1999998092651</ele>
        <time>2019-05-15T12:15:21Z</time>
      </trkpt>
      <trkpt lat="52.07131" lon="4.74155">
        <ele>6</ele>
        <time>2019-05-15T12:15:38Z</time>
      </trkpt>
      <trkpt lat="52.07225" lon="4.74233">
        <ele>5.8000001907349</ele>
        <time>2019-05-15T12:16:01Z</time>
      </trkpt>
      <trkpt lat="52.0733" lon="4.74316">
        <ele>6.1999998092651</ele>
        <time>2019-05-15T12:16:23Z</time>
      </trkpt>
      <trkpt lat="52.07411" lon="4.74375">
        <ele>6</ele>
        <time>2019-05-15T12:16:46Z</time>
      </trkpt>
      <trkpt lat="52.07488" lon="4.74432">
        <ele>6</ele>
        <time>2019-05-15T12:17:06Z</time>
      </trkpt>
      <trkpt lat="52.07588" lon="4.74512">
        <ele>6.5999999046326</ele>
        <time>2019-05-15T12:17:26Z</time>
      </trkpt>
      <trkpt lat="52.07691" lon="4.74592">
        <ele>6</ele>
        <time>2019-05-15T12:17:46Z</time>
      </trkpt>
      <trkpt lat="52.07787" lon="4.74668">
        <ele>6.1999998092651</ele>
        <time>2019-05-15T12:18:08Z</time>
      </trkpt>
      <trkpt lat="52.07881" lon="4.74736">
        <ele>5.8000001907349</ele>
        <time>2019-05-15T12:18:30Z</time>
      </trkpt>
      <trkpt lat="52.07961" lon="4.74798">
        <ele>5.8000001907349</ele>
        <time>2019-05-15T12:18:47Z</time>
      </trkpt>
      <trkpt lat="52.08058" lon="4.74873">
        <ele>6</ele>
        <time>2019-05-15T12:19:10Z</time>
      </trkpt>
      <trkpt lat="52.08089" lon="4.74923">
        <ele>6.5999999046326</ele>
        <time>2019-05-15T12:19:32Z</time>
      </trkpt>
      <trkpt lat="52.08112" lon="4.74926">
        <ele>7.1999998092651</ele>
        <time>2019-05-15T12:19:46Z</time>
      </trkpt>
      <trkpt lat="52.08125" lon="4.74858">
        <ele>6.8000001907349</ele>
        <time>2019-05-15T12:19:58Z</time>
      </trkpt>
      <trkpt lat="52.08143" lon="4.74763">
        <ele>6.8000001907349</ele>
        <time>2019-05-15T12:21:16Z</time>
      </trkpt>
      <trkpt lat="52.08178" lon="4.74691">
        <ele>6.4000000953674</ele>
        <time>2019-05-15T12:21:38Z</time>
      </trkpt>
      <trkpt lat="52.08194" lon="4.74652">
        <ele>6</ele>
        <time>2019-05-15T12:21:57Z</time>
      </trkpt>
      <trkpt lat="52.08244" lon="4.74401">
        <ele>5.4000000953674</ele>
        <time>2019-05-15T12:22:10Z</time>
      </trkpt>
      <trkpt lat="52.0825" lon="4.74377">
        <ele>5.5999999046326</ele>
        <time>2019-05-15T12:22:27Z</time>
      </trkpt>
      <trkpt lat="52.08279" lon="4.74413">
        <ele>6.1999998092651</ele>
        <time>2019-05-15T12:22:39Z</time>
      </trkpt>
      <trkpt lat="52.08269" lon="4.74531">
        <ele>6.1999998092651</ele>
        <time>2019-05-15T12:22:58Z</time>
      </trkpt>
      <trkpt lat="52.0826" lon="4.74606">
        <ele>5.8000001907349</ele>
        <time>2019-05-15T12:23:12Z</time>
      </trkpt>
      <trkpt lat="52.08291" lon="4.74625">
        <ele>5.8000001907349</ele>
        <time>2019-05-15T12:23:28Z</time>
      </trkpt>
      <trkpt lat="52.08375" lon="4.74667">
        <ele>6.5999999046326</ele>
        <time>2019-05-15T12:23:41Z</time>
      </trkpt>
      <trkpt lat="52.08412" lon="4.74681">
        <ele>7.1999998092651</ele>
        <time>2019-05-15T12:24:06Z</time>
      </trkpt>
      <trkpt lat="52.08447" lon="4.74569">
        <ele>7.1999998092651</ele>
        <time>2019-05-15T12:24:28Z</time>
      </trkpt>
      <trkpt lat="52.08474" lon="4.74428">
        <ele>6.8000001907349</ele>
        <time>2019-05-15T12:24:50Z</time>
      </trkpt>
      <trkpt lat="52.08529" lon="4.74282">
        <ele>6.5999999046326</ele>
        <time>2019-05-15T12:25:07Z</time>
      </trkpt>
      <trkpt lat="52.08623" lon="4.741">
        <ele>7</ele>
        <time>2019-05-15T12:25:30Z</time>
      </trkpt>
      <trkpt lat="52.08676" lon="4.74051">
        <ele>8.6000003814697</ele>
        <time>2019-05-15T12:25:48Z</time>
      </trkpt>
      <trkpt lat="52.08773" lon="4.7398">
        <ele>7.1999998092651</ele>
        <time>2019-05-15T12:26:14Z</time>
      </trkpt>
      <trkpt lat="52.08805" lon="4.73973">
        <ele>7</ele>
        <time>2019-05-15T12:26:45Z</time>
      </trkpt>
      <trkpt lat="52.08886" lon="4.73928">
        <ele>6.5999999046326</ele>
        <time>2019-05-15T12:26:56Z</time>
      </trkpt>
      <trkpt lat="52.08948" lon="4.73879">
        <ele>6.5999999046326</ele>
        <time>2019-05-15T12:27:48Z</time>
      </trkpt>
      <trkpt lat="52.09157" lon="4.73797">
        <ele>7.5999999046326</ele>
        <time>2019-05-15T12:28:00Z</time>
      </trkpt>
      <trkpt lat="52.09163" lon="4.7378">
        <ele>7.5999999046326</ele>
        <time>2019-05-15T12:28:17Z</time>
      </trkpt>
      <trkpt lat="52.09235" lon="4.73774">
        <ele>8</ele>
        <time>2019-05-15T12:29:11Z</time>
      </trkpt>
      <trkpt lat="52.09308" lon="4.73764">
        <ele>7.8000001907349</ele>
        <time>2019-05-15T12:29:35Z</time>
      </trkpt>
      <trkpt lat="52.0947" lon="4.73721">
        <ele>7.8000001907349</ele>
        <time>2019-05-15T12:29:55Z</time>
      </trkpt>
      <trkpt lat="52.09677" lon="4.73664">
        <ele>8.6000003814697</ele>
        <time>2019-05-15T12:30:22Z</time>
      </trkpt>
      <trkpt lat="52.09768" lon="4.7364">
        <ele>8.6000003814697</ele>
        <time>2019-05-15T12:30:47Z</time>
      </trkpt>
      <trkpt lat="52.09865" lon="4.73601">
        <ele>8.1999998092651</ele>
        <time>2019-05-15T12:31:14Z</time>
      </trkpt>
      <trkpt lat="52.09953" lon="4.73547">
        <ele>8</ele>
        <time>2019-05-15T12:31:34Z</time>
      </trkpt>
      <trkpt lat="52.10091" lon="4.73404">
        <ele>8</ele>
        <time>2019-05-15T12:31:57Z</time>
      </trkpt>
      <trkpt lat="52.10107" lon="4.73439">
        <ele>8.1999998092651</ele>
        <time>2019-05-15T12:32:21Z</time>
      </trkpt>
      <trkpt lat="52.1017" lon="4.73399">
        <ele>8.8000001907349</ele>
        <time>2019-05-15T12:32:42Z</time>
      </trkpt>
      <trkpt lat="52.10219" lon="4.73353">
        <ele>9</ele>
        <time>2019-05-15T12:32:53Z</time>
      </trkpt>
      <trkpt lat="52.10287" lon="4.73283">
        <ele>8.1999998092651</ele>
        <time>2019-05-15T12:43:28Z</time>
      </trkpt>
      <trkpt lat="52.10306" lon="4.73267">
        <ele>8.1999998092651</ele>
        <time>2019-05-15T12:43:39Z</time>
      </trkpt>
      <trkpt lat="52.10333" lon="4.73237">
        <ele>8.6000003814697</ele>
        <time>2019-05-15T12:43:45Z</time>
      </trkpt>
      <trkpt lat="52.10347" lon="4.73222">
        <ele>8.6000003814697</ele>
        <time>2019-05-15T12:43:53Z</time>
      </trkpt>
      <trkpt lat="52.10406" lon="4.73149">
        <ele>9.6000003814697</ele>
        <time>2019-05-15T12:44:14Z</time>
      </trkpt>
      <trkpt lat="52.10466" lon="4.73073">
        <ele>8.8000001907349</ele>
        <time>2019-05-15T12:44:34Z</time>
      </trkpt>
      <trkpt lat="52.10531" lon="4.72976">
        <ele>8.6000003814697</ele>
        <time>2019-05-15T12:44:57Z</time>
      </trkpt>
      <trkpt lat="52.10564" lon="4.7294">
        <ele>9</ele>
        <time>2019-05-15T12:45:19Z</time>
      </trkpt>
      <trkpt lat="52.10634" lon="4.73078">
        <ele>11.39999961853</ele>
        <time>2019-05-15T12:45:40Z</time>
      </trkpt>
      <trkpt lat="52.10647" lon="4.73126">
        <ele>11.199999809265</ele>
        <time>2019-05-15T12:45:55Z</time>
      </trkpt>
      <trkpt lat="52.10673" lon="4.73138">
        <ele>10</ele>
        <time>2019-05-15T12:46:20Z</time>
      </trkpt>
      <trkpt lat="52.10711" lon="4.73126">
        <ele>9.3999996185303</ele>
        <time>2019-05-15T12:46:45Z</time>
      </trkpt>
      <trkpt lat="52.10745" lon="4.73123">
        <ele>9.3999996185303</ele>
        <time>2019-05-15T12:47:04Z</time>
      </trkpt>
      <trkpt lat="52.10747" lon="4.73156">
        <ele>9.3999996185303</ele>
        <time>2019-05-15T12:47:15Z</time>
      </trkpt>
      <trkpt lat="52.10745" lon="4.73238">
        <ele>8.8000001907349</ele>
        <time>2019-05-15T12:47:31Z</time>
      </trkpt>
      <trkpt lat="52.10746" lon="4.73311">
        <ele>8.8000001907349</ele>
        <time>2019-05-15T12:47:42Z</time>
      </trkpt>
      <trkpt lat="52.10752" lon="4.73417">
        <ele>9.1999998092651</ele>
        <time>2019-05-15T12:48:05Z</time>
      </trkpt>
      <trkpt lat="52.10765" lon="4.7358">
        <ele>9.3999996185303</ele>
        <time>2019-05-15T12:48:29Z</time>
      </trkpt>
      <trkpt lat="52.10767" lon="4.73603">
        <ele>10</ele>
        <time>2019-05-15T12:48:36Z</time>
      </trkpt>
      <trkpt lat="52.10762" lon="4.73642">
        <ele>10</ele>
        <time>2019-05-15T12:48:59Z</time>
      </trkpt>
      <trkpt lat="52.10734" lon="4.73784">
        <ele>9.3999996185303</ele>
        <time>2019-05-15T12:49:18Z</time>
      </trkpt>
      <trkpt lat="52.10685" lon="4.73893">
        <ele>9.3999996185303</ele>
        <time>2019-05-15T12:49:40Z</time>
      </trkpt>
      <trkpt lat="52.10687" lon="4.73898">
        <ele>9.1999998092651</ele>
        <time>2019-05-15T12:49:53Z</time>
      </trkpt>
      <trkpt lat="52.10687" lon="4.73907">
        <ele>9.3999996185303</ele>
        <time>2019-05-15T12:50:06Z</time>
      </trkpt>
      <trkpt lat="52.10702" lon="4.73957">
        <ele>9.3999996185303</ele>
        <time>2019-05-15T12:50:20Z</time>
      </trkpt>
      <trkpt lat="52.10874" lon="4.74129">
        <ele>9.3999996185303</ele>
        <time>2019-05-15T12:50:30Z</time>
      </trkpt>
      <trkpt lat="52.1096" lon="4.74215">
        <ele>9.1999998092651</ele>
        <time>2019-05-15T12:50:49Z</time>
      </trkpt>
      <trkpt lat="52.11146" lon="4.74403">
        <ele>9.1999998092651</ele>
        <time>2019-05-15T12:51:05Z</time>
      </trkpt>
      <trkpt lat="52.11224" lon="4.74485">
        <ele>9.3999996185303</ele>
        <time>2019-05-15T12:51:19Z</time>
      </trkpt>
      <trkpt lat="52.11291" lon="4.74559">
        <ele>9.8000001907349</ele>
        <time>2019-05-15T12:51:26Z</time>
      </trkpt>
      <trkpt lat="52.11394" lon="4.74666">
        <ele>9.6000003814697</ele>
        <time>2019-05-15T12:51:56Z</time>
      </trkpt>
      <trkpt lat="52.11488" lon="4.74764">
        <ele>9.1999998092651</ele>
        <time>2019-05-15T12:52:14Z</time>
      </trkpt>
      <trkpt lat="52.11585" lon="4.74862">
        <ele>9.3999996185303</ele>
        <time>2019-05-15T12:52:45Z</time>
      </trkpt>
      <trkpt lat="52.11643" lon="4.74921">
        <ele>9.3999996185303</ele>
        <time>2019-05-15T12:53:05Z</time>
      </trkpt>
      <trkpt lat="52.11785" lon="4.75069">
        <ele>9.8000001907349</ele>
        <time>2019-05-15T12:53:51Z</time>
      </trkpt>
      <trkpt lat="52.11872" lon="4.75154">
        <ele>9.8000001907349</ele>
        <time>2019-05-15T12:54:05Z</time>
      </trkpt>
      <trkpt lat="52.11924" lon="4.75223">
        <ele>9.6000003814697</ele>
        <time>2019-05-15T12:54:24Z</time>
      </trkpt>
      <trkpt lat="52.11952" lon="4.75262">
        <ele>9.8000001907349</ele>
        <time>2019-05-15T12:54:40Z</time>
      </trkpt>
      <trkpt lat="52.12029" lon="4.75339">
        <ele>9.6000003814697</ele>
        <time>2019-05-15T12:54:51Z</time>
      </trkpt>
      <trkpt lat="52.12086" lon="4.75388">
        <ele>9</ele>
        <time>2019-05-15T12:55:05Z</time>
      </trkpt>
      <trkpt lat="52.12385" lon="4.75611">
        <ele>9</ele>
        <time>2019-05-15T12:55:15Z</time>
      </trkpt>
      <trkpt lat="52.12464" lon="4.75655">
        <ele>9.6000003814697</ele>
        <time>2019-05-15T12:55:39Z</time>
      </trkpt>
      <trkpt lat="52.1263" lon="4.75743">
        <ele>9.1999998092651</ele>
        <time>2019-05-15T12:55:58Z</time>
      </trkpt>
      <trkpt lat="52.12738" lon="4.75806">
        <ele>9.6000003814697</ele>
        <time>2019-05-15T12:56:16Z</time>
      </trkpt>
      <trkpt lat="52.12777" lon="4.75821">
        <ele>9.6000003814697</ele>
        <time>2019-05-15T12:56:26Z</time>
      </trkpt>
      <trkpt lat="52.12799" lon="4.75838">
        <ele>9.1999998092651</ele>
        <time>2019-05-15T12:56:39Z</time>
      </trkpt>
      <trkpt lat="52.12793" lon="4.75831">
        <ele>8.8000001907349</ele>
        <time>2019-05-15T12:56:54Z</time>
      </trkpt>
      <trkpt lat="52.12866" lon="4.75876">
        <ele>9.3999996185303</ele>
        <time>2019-05-15T12:57:07Z</time>
      </trkpt>
      <trkpt lat="52.12944" lon="4.75927">
        <ele>9.1999998092651</ele>
        <time>2019-05-15T12:57:27Z</time>
      </trkpt>
      <trkpt lat="52.13023" lon="4.75967">
        <ele>9.8000001907349</ele>
        <time>2019-05-15T12:57:48Z</time>
      </trkpt>
      <trkpt lat="52.13032" lon="4.75974">
        <ele>9.3999996185303</ele>
        <time>2019-05-15T12:58:10Z</time>
      </trkpt>
      <trkpt lat="52.13081" lon="4.75996">
        <ele>9.3999996185303</ele>
        <time>2019-05-15T12:58:42Z</time>
      </trkpt>
      <trkpt lat="52.13141" lon="4.76008">
        <ele>9.6000003814697</ele>
        <time>2019-05-15T12:58:52Z</time>
      </trkpt>
      <trkpt lat="52.13184" lon="4.76111">
        <ele>9.3999996185303</ele>
        <time>2019-05-15T12:59:08Z</time>
      </trkpt>
      <trkpt lat="52.13242" lon="4.76248">
        <ele>9.3999996185303</ele>
        <time>2019-05-15T12:59:32Z</time>
      </trkpt>
      <trkpt lat="52.13297" lon="4.76352">
        <ele>9.1999998092651</ele>
        <time>2019-05-15T12:59:55Z</time>
      </trkpt>
      <trkpt lat="52.13302" lon="4.7636">
        <ele>10</ele>
        <time>2019-05-15T01:00:06Z</time>
      </trkpt>
      <trkpt lat="52.13355" lon="4.76447">
        <ele>9.1999998092651</ele>
        <time>2019-05-15T01:00:17Z</time>
      </trkpt>
      <trkpt lat="52.13422" lon="4.76519">
        <ele>9.6000003814697</ele>
        <time>2019-05-15T01:00:26Z</time>
      </trkpt>
      <trkpt lat="52.13492" lon="4.76577">
        <ele>9.1999998092651</ele>
        <time>2019-05-15T01:00:45Z</time>
      </trkpt>
      <trkpt lat="52.13697" lon="4.76679">
        <ele>9.1999998092651</ele>
        <time>2019-05-15T01:00:58Z</time>
      </trkpt>
      <trkpt lat="52.13763" lon="4.76714">
        <ele>9.3999996185303</ele>
        <time>2019-05-15T01:01:10Z</time>
      </trkpt>
      <trkpt lat="52.13892" lon="4.76779">
        <ele>9.3999996185303</ele>
        <time>2019-05-15T01:01:26Z</time>
      </trkpt>
      <trkpt lat="52.13969" lon="4.76824">
        <ele>9.1999998092651</ele>
        <time>2019-05-15T01:01:46Z</time>
      </trkpt>
      <trkpt lat="52.14058" lon="4.76901">
        <ele>9.6000003814697</ele>
        <time>2019-05-15T01:02:00Z</time>
      </trkpt>
      <trkpt lat="52.14133" lon="4.7698">
        <ele>9.8000001907349</ele>
        <time>2019-05-15T01:02:20Z</time>
      </trkpt>
      <trkpt lat="52.1423" lon="4.7709">
        <ele>9.3999996185303</ele>
        <time>2019-05-15T01:02:34Z</time>
      </trkpt>
      <trkpt lat="52.14315" lon="4.7718">
        <ele>9.6000003814697</ele>
        <time>2019-05-15T01:02:59Z</time>
      </trkpt>
      <trkpt lat="52.14433" lon="4.77308">
        <ele>9.6000003814697</ele>
        <time>2019-05-15T01:03:24Z</time>
      </trkpt>
      <trkpt lat="52.1446" lon="4.7733">
        <ele>8.6000003814697</ele>
        <time>2019-05-15T01:03:39Z</time>
      </trkpt>
      <trkpt lat="52.14545" lon="4.77419">
        <ele>9.1999998092651</ele>
        <time>2019-05-15T01:03:54Z</time>
      </trkpt>
      <trkpt lat="52.14621" lon="4.77493">
        <ele>9.3999996185303</ele>
        <time>2019-05-15T01:04:05Z</time>
      </trkpt>
      <trkpt lat="52.14671" lon="4.77549">
        <ele>9.3999996185303</ele>
        <time>2019-05-15T01:04:17Z</time>
      </trkpt>
      <trkpt lat="52.14746" lon="4.77628">
        <ele>9.6000003814697</ele>
        <time>2019-05-15T01:04:26Z</time>
      </trkpt>
      <trkpt lat="52.14813" lon="4.77698">
        <ele>9.3999996185303</ele>
        <time>2019-05-15T01:04:32Z</time>
      </trkpt>
      <trkpt lat="52.14848" lon="4.77738">
        <ele>9.1999998092651</ele>
        <time>2019-05-15T01:04:45Z</time>
      </trkpt>
      <trkpt lat="52.14882" lon="4.77765">
        <ele>9.3999996185303</ele>
        <time>2019-05-15T01:05:08Z</time>
      </trkpt>
      <trkpt lat="52.14885" lon="4.77774">
        <ele>9</ele>
        <time>2019-05-15T01:05:28Z</time>
      </trkpt>
      <trkpt lat="52.14919" lon="4.77813">
        <ele>9.3999996185303</ele>
        <time>2019-05-15T01:05:47Z</time>
      </trkpt>
      <trkpt lat="52.14967" lon="4.77858">
        <ele>9.6000003814697</ele>
        <time>2019-05-15T01:06:09Z</time>
      </trkpt>
      <trkpt lat="52.15" lon="4.77901">
        <ele>9.6000003814697</ele>
        <time>2019-05-15T01:06:23Z</time>
      </trkpt>
      <trkpt lat="52.1503" lon="4.77953">
        <ele>9.8000001907349</ele>
        <time>2019-05-15T01:06:37Z</time>
      </trkpt>
      <trkpt lat="52.15004" lon="4.78001">
        <ele>9.8000001907349</ele>
        <time>2019-05-15T01:06:53Z</time>
      </trkpt>
      <trkpt lat="52.15009" lon="4.78015">
        <ele>11.800000190735</ele>
        <time>2019-05-15T01:07:09Z</time>
      </trkpt>
      <trkpt lat="52.15025" lon="4.78003">
        <ele>11.800000190735</ele>
        <time>2019-05-15T01:07:20Z</time>
      </trkpt>
      <trkpt lat="52.15044" lon="4.77966">
        <ele>12.199999809265</ele>
        <time>2019-05-15T01:07:44Z</time>
      </trkpt>
      <trkpt lat="52.15059" lon="4.77973">
        <ele>12.199999809265</ele>
        <time>2019-05-15T01:08:30Z</time>
      </trkpt>
      <trkpt lat="52.15091" lon="4.78022">
        <ele>12.60000038147</ele>
        <time>2019-05-15T01:08:52Z</time>
      </trkpt>
      <trkpt lat="52.15139" lon="4.78115">
        <ele>12.199999809265</ele>
        <time>2019-05-15T01:09:13Z</time>
      </trkpt>
      <trkpt lat="52.15211" lon="4.78251">
        <ele>12.39999961853</ele>
        <time>2019-05-15T01:09:23Z</time>
      </trkpt>
      <trkpt lat="52.15296" lon="4.78408">
        <ele>12.800000190735</ele>
        <time>2019-05-15T01:09:27Z</time>
      </trkpt>
      <trkpt lat="52.15325" lon="4.78407">
        <ele>12.800000190735</ele>
        <time>2019-05-15T01:09:34Z</time>
      </trkpt>
      <trkpt lat="52.15375" lon="4.78368">
        <ele>11.60000038147</ele>
        <time>2019-05-15T01:09:46Z</time>
      </trkpt>
      <trkpt lat="52.15414" lon="4.78345">
        <ele>9.8000001907349</ele>
        <time>2019-05-15T01:10:03Z</time>
      </trkpt>
      <trkpt lat="52.15479" lon="4.78303">
        <ele>9.3999996185303</ele>
        <time>2019-05-15T01:10:18Z</time>
      </trkpt>
      <trkpt lat="52.15523" lon="4.78254">
        <ele>9.6000003814697</ele>
        <time>2019-05-15T01:10:32Z</time>
      </trkpt>
      <trkpt lat="52.15539" lon="4.78223">
        <ele>9.8000001907349</ele>
        <time>2019-05-15T01:10:44Z</time>
      </trkpt>
      <trkpt lat="52.15581" lon="4.78233">
        <ele>9.3999996185303</ele>
        <time>2019-05-15T01:11:24Z</time>
      </trkpt>
      <trkpt lat="52.15632" lon="4.78206">
        <ele>9.1999998092651</ele>
        <time>2019-05-15T01:11:29Z</time>
      </trkpt>
      <trkpt lat="52.15693" lon="4.78166">
        <ele>9.1999998092651</ele>
        <time>2019-05-15T01:11:37Z</time>
      </trkpt>
      <trkpt lat="52.157" lon="4.78163">
        <ele>9</ele>
        <time>2019-05-15T01:11:51Z</time>
      </trkpt>
      <trkpt lat="52.15747" lon="4.78133">
        <ele>9</ele>
        <time>2019-05-15T01:11:59Z</time>
      </trkpt>
      <trkpt lat="52.15807" lon="4.78095">
        <ele>9.3999996185303</ele>
        <time>2019-05-15T01:12:15Z</time>
      </trkpt>
      <trkpt lat="52.15862" lon="4.78061">
        <ele>9.3999996185303</ele>
        <time>2019-05-15T01:12:22Z</time>
      </trkpt>
      <trkpt lat="52.15957" lon="4.78003">
        <ele>9.1999998092651</ele>
        <time>2019-05-15T01:12:41Z</time>
      </trkpt>
      <trkpt lat="52.16022" lon="4.77963">
        <ele>9</ele>
        <time>2019-05-15T01:12:59Z</time>
      </trkpt>
      <trkpt lat="52.16111" lon="4.77907">
        <ele>9.1999998092651</ele>
        <time>2019-05-15T01:13:15Z</time>
      </trkpt>
      <trkpt lat="52.16192" lon="4.77857">
        <ele>9.1999998092651</ele>
        <time>2019-05-15T01:13:23Z</time>
      </trkpt>
      <trkpt lat="52.16329" lon="4.77771">
        <ele>9.6000003814697</ele>
        <time>2019-05-15T01:13:42Z</time>
      </trkpt>
      <trkpt lat="52.16413" lon="4.77715">
        <ele>9.6000003814697</ele>
        <time>2019-05-15T01:14:48Z</time>
      </trkpt>
      <trkpt lat="52.16508" lon="4.7766">
        <ele>9.1999998092651</ele>
        <time>2019-05-15T01:15:08Z</time>
      </trkpt>
      <trkpt lat="52.16605" lon="4.776">
        <ele>9.1999998092651</ele>
        <time>2019-05-15T01:15:19Z</time>
      </trkpt>
      <trkpt lat="52.16698" lon="4.77541">
        <ele>10</ele>
        <time>2019-05-15T01:15:33Z</time>
      </trkpt>
      <trkpt lat="52.1678" lon="4.77491">
        <ele>9.8000001907349</ele>
        <time>2019-05-15T01:15:54Z</time>
      </trkpt>
      <trkpt lat="52.16894" lon="4.7742">
        <ele>10</ele>
        <time>2019-05-15T01:16:11Z</time>
      </trkpt>
      <trkpt lat="52.1698" lon="4.77367">
        <ele>10</ele>
        <time>2019-05-15T01:16:20Z</time>
      </trkpt>
      <trkpt lat="52.1707" lon="4.77311">
        <ele>10.199999809265</ele>
        <time>2019-05-15T01:16:37Z</time>
      </trkpt>
      <trkpt lat="52.17151" lon="4.77257">
        <ele>10</ele>
        <time>2019-05-15T01:16:57Z</time>
      </trkpt>
      <trkpt lat="52.17256" lon="4.77194">
        <ele>10.39999961853</ele>
        <time>2019-05-15T01:17:15Z</time>
      </trkpt>
      <trkpt lat="52.17353" lon="4.77134">
        <ele>10.60000038147</ele>
        <time>2019-05-15T01:17:38Z</time>
      </trkpt>
      <trkpt lat="52.17452" lon="4.77072">
        <ele>10.199999809265</ele>
        <time>2019-05-15T01:18:07Z</time>
      </trkpt>
      <trkpt lat="52.17559" lon="4.77004">
        <ele>10.39999961853</ele>
        <time>2019-05-15T01:18:25Z</time>
      </trkpt>
      <trkpt lat="52.17627" lon="4.76963">
        <ele>10.60000038147</ele>
        <time>2019-05-15T01:18:48Z</time>
      </trkpt>
      <trkpt lat="52.17631" lon="4.76964">
        <ele>10.199999809265</ele>
        <time>2019-05-15T01:19:06Z</time>
      </trkpt>
      <trkpt lat="52.17649" lon="4.76952">
        <ele>10.199999809265</ele>
        <time>2019-05-15T01:19:15Z</time>
      </trkpt>
      <trkpt lat="52.17653" lon="4.76987">
        <ele>10.39999961853</ele>
        <time>2019-05-15T01:19:25Z</time>
      </trkpt>
      <trkpt lat="52.17673" lon="4.77057">
        <ele>10.60000038147</ele>
        <time>2019-05-15T01:19:35Z</time>
      </trkpt>
      <trkpt lat="52.17715" lon="4.77195">
        <ele>9.8000001907349</ele>
        <time>2019-05-15T01:19:48Z</time>
      </trkpt>
      <trkpt lat="52.1775" lon="4.77339">
        <ele>10</ele>
        <time>2019-05-15T01:19:55Z</time>
      </trkpt>
      <trkpt lat="52.17778" lon="4.77453">
        <ele>10.39999961853</ele>
        <time>2019-05-15T01:20:00Z</time>
      </trkpt>
      <trkpt lat="52.17809" lon="4.77591">
        <ele>10</ele>
        <time>2019-05-15T01:20:11Z</time>
      </trkpt>
      <trkpt lat="52.17841" lon="4.77718">
        <ele>9.8000001907349</ele>
        <time>2019-05-15T01:20:17Z</time>
      </trkpt>
      <trkpt lat="52.17873" lon="4.77833">
        <ele>10</ele>
        <time>2019-05-15T01:20:37Z</time>
      </trkpt>
      <trkpt lat="52.17887" lon="4.77864">
        <ele>9.8000001907349</ele>
        <time>2019-05-15T01:20:48Z</time>
      </trkpt>
      <trkpt lat="52.17937" lon="4.7783">
        <ele>10.199999809265</ele>
        <time>2019-05-15T01:21:00Z</time>
      </trkpt>
      <trkpt lat="52.18011" lon="4.77784">
        <ele>10.39999961853</ele>
        <time>2019-05-15T01:21:08Z</time>
      </trkpt>
      <trkpt lat="52.18092" lon="4.77739">
        <ele>10.39999961853</ele>
        <time>2019-05-15T01:21:25Z</time>
      </trkpt>
      <trkpt lat="52.18153" lon="4.777">
        <ele>10.60000038147</ele>
        <time>2019-05-15T01:21:37Z</time>
      </trkpt>
      <trkpt lat="52.1825" lon="4.77639">
        <ele>10.800000190735</ele>
        <time>2019-05-15T01:21:47Z</time>
      </trkpt>
      <trkpt lat="52.18409" lon="4.77537">
        <ele>10.800000190735</ele>
        <time>2019-05-15T01:22:07Z</time>
      </trkpt>
      <trkpt lat="52.18487" lon="4.77486">
        <ele>11</ele>
        <time>2019-05-15T01:22:17Z</time>
      </trkpt>
      <trkpt lat="52.18569" lon="4.77436">
        <ele>10.800000190735</ele>
        <time>2019-05-15T01:22:31Z</time>
      </trkpt>
      <trkpt lat="52.18675" lon="4.7737">
        <ele>11.39999961853</ele>
        <time>2019-05-15T01:22:55Z</time>
      </trkpt>
      <trkpt lat="52.18747" lon="4.77325">
        <ele>11.39999961853</ele>
        <time>2019-05-15T01:23:18Z</time>
      </trkpt>
      <trkpt lat="52.18829" lon="4.77275">
        <ele>11.199999809265</ele>
        <time>2019-05-15T01:23:33Z</time>
      </trkpt>
      <trkpt lat="52.1889" lon="4.77237">
        <ele>11.39999961853</ele>
        <time>2019-05-15T01:23:44Z</time>
      </trkpt>
      <trkpt lat="52.19032" lon="4.77153">
        <ele>11</ele>
        <time>2019-05-15T01:23:58Z</time>
      </trkpt>
      <trkpt lat="52.19075" lon="4.77129">
        <ele>11.39999961853</ele>
        <time>2019-05-15T01:24:20Z</time>
      </trkpt>
      <trkpt lat="52.19125" lon="4.77096">
        <ele>11.39999961853</ele>
        <time>2019-05-15T01:24:40Z</time>
      </trkpt>
      <trkpt lat="52.1918" lon="4.77197">
        <ele>11.39999961853</ele>
        <time>2019-05-15T01:24:54Z</time>
      </trkpt>
      <trkpt lat="52.19175" lon="4.77155">
        <ele>11</ele>
        <time>2019-05-15T01:25:07Z</time>
      </trkpt>
      <trkpt lat="52.19193" lon="4.77183">
        <ele>11.199999809265</ele>
        <time>2019-05-15T01:25:27Z</time>
      </trkpt>
      <trkpt lat="52.19306" lon="4.77142">
        <ele>11.199999809265</ele>
        <time>2019-05-15T01:25:42Z</time>
      </trkpt>
      <trkpt lat="52.19368" lon="4.77102">
        <ele>10.800000190735</ele>
        <time>2019-05-15T01:25:49Z</time>
      </trkpt>
      <trkpt lat="52.19424" lon="4.77103">
        <ele>10.800000190735</ele>
        <time>2019-05-15T01:26:03Z</time>
      </trkpt>
      <trkpt lat="52.19437" lon="4.77134">
        <ele>11</ele>
        <time>2019-05-15T01:26:21Z</time>
      </trkpt>
      <trkpt lat="52.19451" lon="4.77108">
        <ele>11</ele>
        <time>2019-05-15T01:26:39Z</time>
      </trkpt>
      <trkpt lat="52.195" lon="4.77082">
        <ele>11.199999809265</ele>
        <time>2019-05-15T01:26:53Z</time>
      </trkpt>
      <trkpt lat="52.19532" lon="4.77179">
        <ele>11.199999809265</ele>
        <time>2019-05-15T01:27:13Z</time>
      </trkpt>
      <trkpt lat="52.19554" lon="4.77258">
        <ele>12.60000038147</ele>
        <time>2019-05-15T01:27:34Z</time>
      </trkpt>
      <trkpt lat="52.1958" lon="4.77249">
        <ele>14.60000038147</ele>
        <time>2019-05-15T01:27:58Z</time>
      </trkpt>
      <trkpt lat="52.19628" lon="4.7723">
        <ele>15</ele>
        <time>2019-05-15T01:28:14Z</time>
      </trkpt>
      <trkpt lat="52.19724" lon="4.77197">
        <ele>15.39999961853</ele>
        <time>2019-05-15T01:28:53Z</time>
      </trkpt>
      <trkpt lat="52.19785" lon="4.77162">
        <ele>14.800000190735</ele>
        <time>2019-05-15T01:29:19Z</time>
      </trkpt>
      <trkpt lat="52.19794" lon="4.77174">
        <ele>14</ele>
        <time>2019-05-15T01:29:46Z</time>
      </trkpt>
      <trkpt lat="52.19823" lon="4.77169">
        <ele>14.60000038147</ele>
        <time>2019-05-15T01:30:01Z</time>
      </trkpt>
      <trkpt lat="52.19832" lon="4.77194">
        <ele>15.39999961853</ele>
        <time>2019-05-15T01:30:21Z</time>
      </trkpt>
      <trkpt lat="52.19875" lon="4.77256">
        <ele>14.60000038147</ele>
        <time>2019-05-15T01:30:38Z</time>
      </trkpt>
      <trkpt lat="52.19896" lon="4.7733">
        <ele>13</ele>
        <time>2019-05-15T01:30:50Z</time>
      </trkpt>
      <trkpt lat="52.19925" lon="4.77438">
        <ele>11.800000190735</ele>
        <time>2019-05-15T01:30:59Z</time>
      </trkpt>
      <trkpt lat="52.19952" lon="4.77542">
        <ele>12</ele>
        <time>2019-05-15T01:31:17Z</time>
      </trkpt>
      <trkpt lat="52.19975" lon="4.77638">
        <ele>12</ele>
        <time>2019-05-15T01:31:40Z</time>
      </trkpt>
      <trkpt lat="52.2001" lon="4.77784">
        <ele>12.39999961853</ele>
        <time>2019-05-15T01:32:04Z</time>
      </trkpt>
      <trkpt lat="52.20039" lon="4.77901">
        <ele>12</ele>
        <time>2019-05-15T01:32:24Z</time>
      </trkpt>
      <trkpt lat="52.20079" lon="4.78064">
        <ele>11.800000190735</ele>
        <time>2019-05-15T01:32:40Z</time>
      </trkpt>
      <trkpt lat="52.20121" lon="4.7821">
        <ele>12.199999809265</ele>
        <time>2019-05-15T01:32:54Z</time>
      </trkpt>
      <trkpt lat="52.20139" lon="4.78267">
        <ele>12.800000190735</ele>
        <time>2019-05-15T01:33:04Z</time>
      </trkpt>
      <trkpt lat="52.2015" lon="4.78297">
        <ele>12.800000190735</ele>
        <time>2019-05-15T01:33:26Z</time>
      </trkpt>
      <trkpt lat="52.20156" lon="4.78293">
        <ele>12.199999809265</ele>
        <time>2019-05-15T01:33:37Z</time>
      </trkpt>
      <trkpt lat="52.20201" lon="4.78297">
        <ele>12.199999809265</ele>
        <time>2019-05-15T01:34:24Z</time>
      </trkpt>
      <trkpt lat="52.20273" lon="4.78256">
        <ele>12.39999961853</ele>
        <time>2019-05-15T01:34:49Z</time>
      </trkpt>
      <trkpt lat="52.20363" lon="4.78203">
        <ele>12.39999961853</ele>
        <time>2019-05-15T01:35:04Z</time>
      </trkpt>
      <trkpt lat="52.20448" lon="4.78153">
        <ele>12.800000190735</ele>
        <time>2019-05-15T01:35:11Z</time>
      </trkpt>
      <trkpt lat="52.20521" lon="4.78104">
        <ele>12.39999961853</ele>
        <time>2019-05-15T01:35:22Z</time>
      </trkpt>
      <trkpt lat="52.20613" lon="4.78046">
        <ele>12.39999961853</ele>
        <time>2019-05-15T01:35:43Z</time>
      </trkpt>
      <trkpt lat="52.20695" lon="4.77993">
        <ele>12.800000190735</ele>
        <time>2019-05-15T01:36:28Z</time>
      </trkpt>
      <trkpt lat="52.20773" lon="4.77957">
        <ele>12.800000190735</ele>
        <time>2019-05-15T01:36:46Z</time>
      </trkpt>
      <trkpt lat="52.20829" lon="4.77934">
        <ele>13.60000038147</ele>
        <time>2019-05-15T01:37:06Z</time>
      </trkpt>
      <trkpt lat="52.20842" lon="4.77949">
        <ele>13.800000190735</ele>
        <time>2019-05-15T01:37:27Z</time>
      </trkpt>
      <trkpt lat="52.20971" lon="4.78018">
        <ele>13.199999809265</ele>
        <time>2019-05-15T01:37:37Z</time>
      </trkpt>
      <trkpt lat="52.21059" lon="4.78067">
        <ele>13.39999961853</ele>
        <time>2019-05-15T01:37:50Z</time>
      </trkpt>
      <trkpt lat="52.2113" lon="4.78116">
        <ele>13</ele>
        <time>2019-05-15T01:38:02Z</time>
      </trkpt>
      <trkpt lat="52.21219" lon="4.78179">
        <ele>13</ele>
        <time>2019-05-15T01:38:16Z</time>
      </trkpt>
      <trkpt lat="52.21318" lon="4.78242">
        <ele>12.800000190735</ele>
        <time>2019-05-15T01:38:33Z</time>
      </trkpt>
      <trkpt lat="52.21376" lon="4.78281">
        <ele>12.39999961853</ele>
        <time>2019-05-15T01:38:38Z</time>
      </trkpt>
      <trkpt lat="52.21468" lon="4.78324">
        <ele>12.60000038147</ele>
        <time>2019-05-15T01:38:50Z</time>
      </trkpt>
      <trkpt lat="52.21567" lon="4.78333">
        <ele>12.800000190735</ele>
        <time>2019-05-15T01:39:07Z</time>
      </trkpt>
      <trkpt lat="52.21652" lon="4.78316">
        <ele>12.800000190735</ele>
        <time>2019-05-15T01:39:31Z</time>
      </trkpt>
      <trkpt lat="52.21729" lon="4.783">
        <ele>12.60000038147</ele>
        <time>2019-05-15T01:39:49Z</time>
      </trkpt>
      <trkpt lat="52.21803" lon="4.78287">
        <ele>12.800000190735</ele>
        <time>2019-05-15T01:40:08Z</time>
      </trkpt>
      <trkpt lat="52.21907" lon="4.78271">
        <ele>12.800000190735</ele>
        <time>2019-05-15T01:40:26Z</time>
      </trkpt>
      <trkpt lat="52.2201" lon="4.78256">
        <ele>13</ele>
        <time>2019-05-15T01:40:43Z</time>
      </trkpt>
      <trkpt lat="52.22095" lon="4.78257">
        <ele>13.60000038147</ele>
        <time>2019-05-15T01:40:59Z</time>
      </trkpt>
      <trkpt lat="52.22201" lon="4.78275">
        <ele>13.800000190735</ele>
        <time>2019-05-15T01:41:19Z</time>
      </trkpt>
      <trkpt lat="52.22307" lon="4.78292">
        <ele>13.39999961853</ele>
        <time>2019-05-15T01:41:39Z</time>
      </trkpt>
      <trkpt lat="52.22405" lon="4.78309">
        <ele>12.800000190735</ele>
        <time>2019-05-15T01:41:58Z</time>
      </trkpt>
      <trkpt lat="52.2249" lon="4.78319">
        <ele>12.60000038147</ele>
        <time>2019-05-15T01:42:19Z</time>
      </trkpt>
      <trkpt lat="52.22603" lon="4.78339">
        <ele>16</ele>
        <time>2019-05-15T01:42:34Z</time>
      </trkpt>
      <trkpt lat="52.22654" lon="4.78346">
        <ele>16.60000038147</ele>
        <time>2019-05-15T01:42:46Z</time>
      </trkpt>
      <trkpt lat="52.22737" lon="4.78354">
        <ele>15.60000038147</ele>
        <time>2019-05-15T01:43:24Z</time>
      </trkpt>
      <trkpt lat="52.22852" lon="4.78371">
        <ele>16.60000038147</ele>
        <time>2019-05-15T01:43:47Z</time>
      </trkpt>
      <trkpt lat="52.2287" lon="4.78411">
        <ele>17.60000038147</ele>
        <time>2019-05-15T01:43:59Z</time>
      </trkpt>
      <trkpt lat="52.22882" lon="4.78416">
        <ele>18.799999237061</ele>
        <time>2019-05-15T01:44:15Z</time>
      </trkpt>
      <trkpt lat="52.22905" lon="4.78432">
        <ele>18.799999237061</ele>
        <time>2019-05-15T01:44:38Z</time>
      </trkpt>
      <trkpt lat="52.2291" lon="4.78453">
        <ele>17.799999237061</ele>
        <time>2019-05-15T01:45:06Z</time>
      </trkpt>
      <trkpt lat="52.22988" lon="4.78526">
        <ele>17</ele>
        <time>2019-05-15T01:45:30Z</time>
      </trkpt>
      <trkpt lat="52.23053" lon="4.78587">
        <ele>16.799999237061</ele>
        <time>2019-05-15T01:45:46Z</time>
      </trkpt>
      <trkpt lat="52.23151" lon="4.78706">
        <ele>16.799999237061</ele>
        <time>2019-05-15T01:46:13Z</time>
      </trkpt>
      <trkpt lat="52.23186" lon="4.78739">
        <ele>16.60000038147</ele>
        <time>2019-05-15T01:46:29Z</time>
      </trkpt>
      <trkpt lat="52.2328" lon="4.78829">
        <ele>16.60000038147</ele>
        <time>2019-05-15T01:46:46Z</time>
      </trkpt>
      <trkpt lat="52.235" lon="4.79041">
        <ele>17.200000762939</ele>
        <time>2019-05-15T01:47:09Z</time>
      </trkpt>
      <trkpt lat="52.23657" lon="4.79192">
        <ele>16.799999237061</ele>
        <time>2019-05-15T01:47:20Z</time>
      </trkpt>
      <trkpt lat="52.23726" lon="4.79262">
        <ele>16.799999237061</ele>
        <time>2019-05-15T01:47:38Z</time>
      </trkpt>
      <trkpt lat="52.23799" lon="4.79337">
        <ele>17.200000762939</ele>
        <time>2019-05-15T01:47:49Z</time>
      </trkpt>
      <trkpt lat="52.23857" lon="4.79392">
        <ele>16.60000038147</ele>
        <time>2019-05-15T01:47:59Z</time>
      </trkpt>
      <trkpt lat="52.23913" lon="4.79436">
        <ele>17.39999961853</ele>
        <time>2019-05-15T01:48:10Z</time>
      </trkpt>
      <trkpt lat="52.23923" lon="4.79457">
        <ele>17.39999961853</ele>
        <time>2019-05-15T01:48:24Z</time>
      </trkpt>
      <trkpt lat="52.23921" lon="4.79485">
        <ele>17.60000038147</ele>
        <time>2019-05-15T01:48:41Z</time>
      </trkpt>
      <trkpt lat="52.23924" lon="4.79567">
        <ele>17.39999961853</ele>
        <time>2019-05-15T01:49:02Z</time>
      </trkpt>
      <trkpt lat="52.23963" lon="4.79648">
        <ele>17.60000038147</ele>
        <time>2019-05-15T01:49:17Z</time>
      </trkpt>
      <trkpt lat="52.23995" lon="4.79741">
        <ele>17.200000762939</ele>
        <time>2019-05-15T01:49:37Z</time>
      </trkpt>
      <trkpt lat="52.24014" lon="4.79738">
        <ele>16.799999237061</ele>
        <time>2019-05-15T01:49:50Z</time>
      </trkpt>
      <trkpt lat="52.24071" lon="4.79693">
        <ele>16.799999237061</ele>
        <time>2019-05-15T01:49:59Z</time>
      </trkpt>
      <trkpt lat="52.24081" lon="4.79674">
        <ele>16.39999961853</ele>
        <time>2019-05-15T01:50:15Z</time>
      </trkpt>
      <trkpt lat="52.24088" lon="4.79637">
        <ele>16.200000762939</ele>
        <time>2019-05-15T01:50:24Z</time>
      </trkpt>
      <trkpt lat="52.24135" lon="4.79601">
        <ele>16.39999961853</ele>
        <time>2019-05-15T01:50:34Z</time>
      </trkpt>
      <trkpt lat="52.24148" lon="4.79563">
        <ele>16</ele>
        <time>2019-05-15T01:50:51Z</time>
      </trkpt>
      <trkpt lat="52.24163" lon="4.79596">
        <ele>16.60000038147</ele>
        <time>2019-05-15T01:51:08Z</time>
      </trkpt>
      <trkpt lat="52.24184" lon="4.79611">
        <ele>16.60000038147</ele>
        <time>2019-05-15T01:51:22Z</time>
      </trkpt>
      <trkpt lat="52.2422" lon="4.79629">
        <ele>15.39999961853</ele>
        <time>2019-05-15T01:51:48Z</time>
      </trkpt>
      <trkpt lat="52.24269" lon="4.79666">
        <ele>14.39999961853</ele>
        <time>2019-05-15T01:52:02Z</time>
      </trkpt>
      <trkpt lat="52.24345" lon="4.79723">
        <ele>13.60000038147</ele>
        <time>2019-05-15T01:52:25Z</time>
      </trkpt>
      <trkpt lat="52.24401" lon="4.79766">
        <ele>13.800000190735</ele>
        <time>2019-05-15T01:52:35Z</time>
      </trkpt>
      <trkpt lat="52.2449" lon="4.7983">
        <ele>14</ele>
        <time>2019-05-15T01:52:52Z</time>
      </trkpt>
      <trkpt lat="52.24519" lon="4.79855">
        <ele>14</ele>
        <time>2019-05-15T01:54:11Z</time>
      </trkpt>
      <trkpt lat="52.24578" lon="4.79899">
        <ele>14.800000190735</ele>
        <time>2019-05-15T01:54:30Z</time>
      </trkpt>
      <trkpt lat="52.24658" lon="4.79961">
        <ele>14</ele>
        <time>2019-05-15T01:54:46Z</time>
      </trkpt>
      <trkpt lat="52.24699" lon="4.79992">
        <ele>14</ele>
        <time>2019-05-15T01:55:08Z</time>
      </trkpt>
      <trkpt lat="52.24775" lon="4.80044">
        <ele>14.199999809265</ele>
        <time>2019-05-15T01:55:32Z</time>
      </trkpt>
      <trkpt lat="52.24865" lon="4.80131">
        <ele>14.39999961853</ele>
        <time>2019-05-15T01:55:55Z</time>
      </trkpt>
      <trkpt lat="52.24905" lon="4.80148">
        <ele>14.60000038147</ele>
        <time>2019-05-15T01:56:00Z</time>
      </trkpt>
      <trkpt lat="52.2498" lon="4.80201">
        <ele>14</ele>
        <time>2019-05-15T01:56:14Z</time>
      </trkpt>
      <trkpt lat="52.25065" lon="4.80265">
        <ele>14.199999809265</ele>
        <time>2019-05-15T01:56:22Z</time>
      </trkpt>
      <trkpt lat="52.25178" lon="4.80361">
        <ele>14.199999809265</ele>
        <time>2019-05-15T01:56:31Z</time>
      </trkpt>
      <trkpt lat="52.25206" lon="4.80358">
        <ele>14</ele>
        <time>2019-05-15T01:56:55Z</time>
      </trkpt>
      <trkpt lat="52.25299" lon="4.80424">
        <ele>14.39999961853</ele>
        <time>2019-05-15T01:57:30Z</time>
      </trkpt>
      <trkpt lat="52.25385" lon="4.80487">
        <ele>14.39999961853</ele>
        <time>2019-05-15T01:57:54Z</time>
      </trkpt>
      <trkpt lat="52.25472" lon="4.80552">
        <ele>14.199999809265</ele>
        <time>2019-05-15T01:58:24Z</time>
      </trkpt>
      <trkpt lat="52.25545" lon="4.80607">
        <ele>14.39999961853</ele>
        <time>2019-05-15T01:58:45Z</time>
      </trkpt>
      <trkpt lat="52.25636" lon="4.80676">
        <ele>15</ele>
        <time>2019-05-15T02:09:47Z</time>
      </trkpt>
      <trkpt lat="52.25722" lon="4.80739">
        <ele>15</ele>
        <time>2019-05-15T02:09:54Z</time>
      </trkpt>
      <trkpt lat="52.25745" lon="4.80775">
        <ele>14.39999961853</ele>
        <time>2019-05-15T02:10:14Z</time>
      </trkpt>
      <trkpt lat="52.25729" lon="4.80839">
        <ele>14</ele>
        <time>2019-05-15T02:10:39Z</time>
      </trkpt>
      <trkpt lat="52.25716" lon="4.80876">
        <ele>14</ele>
        <time>2019-05-15T02:11:08Z</time>
      </trkpt>
      <trkpt lat="52.2569" lon="4.80802">
        <ele>15.39999961853</ele>
        <time>2019-05-15T02:11:37Z</time>
      </trkpt>
      <trkpt lat="52.25704" lon="4.80773">
        <ele>17</ele>
        <time>2019-05-15T02:12:01Z</time>
      </trkpt>
      <trkpt lat="52.25771" lon="4.80816">
        <ele>21.200000762939</ele>
        <time>2019-05-15T02:12:24Z</time>
      </trkpt>
      <trkpt lat="52.25816" lon="4.8087">
        <ele>20.200000762939</ele>
        <time>2019-05-15T02:12:42Z</time>
      </trkpt>
      <trkpt lat="52.25785" lon="4.80906">
        <ele>18.39999961853</ele>
        <time>2019-05-15T02:13:05Z</time>
      </trkpt>
      <trkpt lat="52.25774" lon="4.80842">
        <ele>17.39999961853</ele>
        <time>2019-05-15T02:13:33Z</time>
      </trkpt>
      <trkpt lat="52.25787" lon="4.80797">
        <ele>15.199999809265</ele>
        <time>2019-05-15T02:14:01Z</time>
      </trkpt>
      <trkpt lat="52.25803" lon="4.80799">
        <ele>14.60000038147</ele>
        <time>2019-05-15T02:14:21Z</time>
      </trkpt>
      <trkpt lat="52.25864" lon="4.80844">
        <ele>14.800000190735</ele>
        <time>2019-05-15T02:14:41Z</time>
      </trkpt>
      <trkpt lat="52.25956" lon="4.80914">
        <ele>14.60000038147</ele>
        <time>2019-05-15T02:14:46Z</time>
      </trkpt>
      <trkpt lat="52.26055" lon="4.80989">
        <ele>15.39999961853</ele>
        <time>2019-05-15T02:15:10Z</time>
      </trkpt>
      <trkpt lat="52.26131" lon="4.81047">
        <ele>15</ele>
        <time>2019-05-15T02:15:31Z</time>
      </trkpt>
      <trkpt lat="52.262" lon="4.81095">
        <ele>15</ele>
        <time>2019-05-15T02:15:51Z</time>
      </trkpt>
      <trkpt lat="52.26281" lon="4.81155">
        <ele>15.39999961853</ele>
        <time>2019-05-15T02:16:16Z</time>
      </trkpt>
      <trkpt lat="52.26354" lon="4.8121">
        <ele>15</ele>
        <time>2019-05-15T02:16:39Z</time>
      </trkpt>
      <trkpt lat="52.26438" lon="4.81272">
        <ele>15.199999809265</ele>
        <time>2019-05-15T02:16:58Z</time>
      </trkpt>
      <trkpt lat="52.26528" lon="4.81339">
        <ele>15</ele>
        <time>2019-05-15T02:17:06Z</time>
      </trkpt>
      <trkpt lat="52.26585" lon="4.81381">
        <ele>14.800000190735</ele>
        <time>2019-05-15T02:17:15Z</time>
      </trkpt>
      <trkpt lat="52.26675" lon="4.81448">
        <ele>15.39999961853</ele>
        <time>2019-05-15T02:17:28Z</time>
      </trkpt>
      <trkpt lat="52.26759" lon="4.8151">
        <ele>15.60000038147</ele>
        <time>2019-05-15T02:17:40Z</time>
      </trkpt>
      <trkpt lat="52.26799" lon="4.81541">
        <ele>15.199999809265</ele>
        <time>2019-05-15T02:17:51Z</time>
      </trkpt>
      <trkpt lat="52.26869" lon="4.81593">
        <ele>15.39999961853</ele>
        <time>2019-05-15T02:18:09Z</time>
      </trkpt>
      <trkpt lat="52.26935" lon="4.81643">
        <ele>15.800000190735</ele>
        <time>2019-05-15T02:18:43Z</time>
      </trkpt>
      <trkpt lat="52.27018" lon="4.81703">
        <ele>16</ele>
        <time>2019-05-15T02:18:55Z</time>
      </trkpt>
      <trkpt lat="52.27101" lon="4.81765">
        <ele>15.60000038147</ele>
        <time>2019-05-15T02:19:10Z</time>
      </trkpt>
      <trkpt lat="52.27183" lon="4.81826">
        <ele>15.800000190735</ele>
        <time>2019-05-15T02:19:23Z</time>
      </trkpt>
      <trkpt lat="52.27331" lon="4.81936">
        <ele>15.800000190735</ele>
        <time>2019-05-15T02:19:39Z</time>
      </trkpt>
      <trkpt lat="52.27452" lon="4.82025">
        <ele>16.39999961853</ele>
        <time>2019-05-15T02:19:43Z</time>
      </trkpt>
      <trkpt lat="52.27617" lon="4.82147">
        <ele>16.39999961853</ele>
        <time>2019-05-15T02:19:49Z</time>
      </trkpt>
      <trkpt lat="52.27748" lon="4.82244">
        <ele>16</ele>
        <time>2019-05-15T02:20:06Z</time>
      </trkpt>
      <trkpt lat="52.27834" lon="4.82307">
        <ele>16.39999961853</ele>
        <time>2019-05-15T02:20:22Z</time>
      </trkpt>
      <trkpt lat="52.27977" lon="4.82416">
        <ele>15.800000190735</ele>
        <time>2019-05-15T02:21:45Z</time>
      </trkpt>
      <trkpt lat="52.28" lon="4.82434">
        <ele>15.60000038147</ele>
        <time>2019-05-15T02:21:59Z</time>
      </trkpt>
      <trkpt lat="52.28071" lon="4.82497">
        <ele>16</ele>
        <time>2019-05-15T02:22:04Z</time>
      </trkpt>
      <trkpt lat="52.28125" lon="4.82536">
        <ele>15.800000190735</ele>
        <time>2019-05-15T02:22:18Z</time>
      </trkpt>
      <trkpt lat="52.28159" lon="4.82568">
        <ele>15.800000190735</ele>
        <time>2019-05-15T02:22:28Z</time>
      </trkpt>
      <trkpt lat="52.28171" lon="4.82595">
        <ele>19.60000038147</ele>
        <time>2019-05-15T02:22:44Z</time>
      </trkpt>
      <trkpt lat="52.28178" lon="4.82581">
        <ele>19.799999237061</ele>
        <time>2019-05-15T02:25:30Z</time>
      </trkpt>
      <trkpt lat="52.28268" lon="4.82635">
        <ele>19.799999237061</ele>
        <time>2019-05-15T02:25:52Z</time>
      </trkpt>
      <trkpt lat="52.28322" lon="4.82676">
        <ele>20.200000762939</ele>
        <time>2019-05-15T02:26:14Z</time>
      </trkpt>
      <trkpt lat="52.28288" lon="4.82812">
        <ele>20.200000762939</ele>
        <time>2019-05-15T02:26:26Z</time>
      </trkpt>
      <trkpt lat="52.28253" lon="4.82854">
        <ele>20.39999961853</ele>
        <time>2019-05-15T02:26:46Z</time>
      </trkpt>
      <trkpt lat="52.2821" lon="4.82975">
        <ele>20.200000762939</ele>
        <time>2019-05-15T02:26:54Z</time>
      </trkpt>
      <trkpt lat="52.28172" lon="4.83109">
        <ele>20.39999961853</ele>
        <time>2019-05-15T02:27:01Z</time>
      </trkpt>
      <trkpt lat="52.28167" lon="4.83139">
        <ele>19.60000038147</ele>
        <time>2019-05-15T02:27:05Z</time>
      </trkpt>
      <trkpt lat="52.28195" lon="4.83156">
        <ele>19.39999961853</ele>
        <time>2019-05-15T02:27:20Z</time>
      </trkpt>
      <trkpt lat="52.28259" lon="4.83203">
        <ele>20.200000762939</ele>
        <time>2019-05-15T02:27:38Z</time>
      </trkpt>
      <trkpt lat="52.28335" lon="4.8326">
        <ele>20.39999961853</ele>
        <time>2019-05-15T02:27:55Z</time>
      </trkpt>
      <trkpt lat="52.28415" lon="4.83321">
        <ele>20.39999961853</ele>
        <time>2019-05-15T02:28:12Z</time>
      </trkpt>
      <trkpt lat="52.28465" lon="4.83361">
        <ele>20.799999237061</ele>
        <time>2019-05-15T02:28:29Z</time>
      </trkpt>
      <trkpt lat="52.28524" lon="4.83404">
        <ele>20.39999961853</ele>
        <time>2019-05-15T02:28:34Z</time>
      </trkpt>
      <trkpt lat="52.28582" lon="4.83448">
        <ele>20.60000038147</ele>
        <time>2019-05-15T02:28:43Z</time>
      </trkpt>
      <trkpt lat="52.28671" lon="4.83462">
        <ele>19.60000038147</ele>
        <time>2019-05-15T02:29:33Z</time>
      </trkpt>
      <trkpt lat="52.28712" lon="4.83505">
        <ele>17.39999961853</ele>
        <time>2019-05-15T02:30:09Z</time>
      </trkpt>
      <trkpt lat="52.28722" lon="4.83641">
        <ele>19.799999237061</ele>
        <time>2019-05-15T02:30:52Z</time>
      </trkpt>
      <trkpt lat="52.28769" lon="4.83677">
        <ele>21.200000762939</ele>
        <time>2019-05-15T02:31:22Z</time>
      </trkpt>
      <trkpt lat="52.28843" lon="4.83734">
        <ele>21.39999961853</ele>
        <time>2019-05-15T02:32:10Z</time>
      </trkpt>
      <trkpt lat="52.28893" lon="4.83772">
        <ele>21.39999961853</ele>
        <time>2019-05-15T02:32:29Z</time>
      </trkpt>
      <trkpt lat="52.28885" lon="4.83795">
        <ele>21.60000038147</ele>
        <time>2019-05-15T02:32:49Z</time>
      </trkpt>
      <trkpt lat="52.28911" lon="4.83761">
        <ele>21.60000038147</ele>
        <time>2019-05-15T02:32:55Z</time>
      </trkpt>
      <trkpt lat="52.28934" lon="4.83674">
        <ele>21.39999961853</ele>
        <time>2019-05-15T02:33:41Z</time>
      </trkpt>
      <trkpt lat="52.28954" lon="4.83601">
        <ele>21.39999961853</ele>
        <time>2019-05-15T02:33:52Z</time>
      </trkpt>
      <trkpt lat="52.28975" lon="4.83574">
        <ele>21.39999961853</ele>
        <time>2019-05-15T02:34:00Z</time>
      </trkpt>
      <trkpt lat="52.29001" lon="4.83586">
        <ele>21.60000038147</ele>
        <time>2019-05-15T02:34:15Z</time>
      </trkpt>
      <trkpt lat="52.29008" lon="4.83666">
        <ele>21.200000762939</ele>
        <time>2019-05-15T02:34:36Z</time>
      </trkpt>
      <trkpt lat="52.29028" lon="4.83758">
        <ele>21.200000762939</ele>
        <time>2019-05-15T02:34:58Z</time>
      </trkpt>
      <trkpt lat="52.29062" lon="4.83815">
        <ele>21</ele>
        <time>2019-05-15T02:35:12Z</time>
      </trkpt>
      <trkpt lat="52.29136" lon="4.83902">
        <ele>21.39999961853</ele>
        <time>2019-05-15T02:35:27Z</time>
      </trkpt>
      <trkpt lat="52.29181" lon="4.83963">
        <ele>21.799999237061</ele>
        <time>2019-05-15T02:35:45Z</time>
      </trkpt>
      <trkpt lat="52.29221" lon="4.8401">
        <ele>23.60000038147</ele>
        <time>2019-05-15T02:35:56Z</time>
      </trkpt>
      <trkpt lat="52.29269" lon="4.84046">
        <ele>24.39999961853</ele>
        <time>2019-05-15T02:36:07Z</time>
      </trkpt>
      <trkpt lat="52.29428" lon="4.84155">
        <ele>25</ele>
        <time>2019-05-15T02:36:30Z</time>
      </trkpt>
      <trkpt lat="52.29478" lon="4.84187">
        <ele>25.799999237061</ele>
        <time>2019-05-15T02:36:55Z</time>
      </trkpt>
      <trkpt lat="52.29565" lon="4.84244">
        <ele>25.60000038147</ele>
        <time>2019-05-15T02:37:19Z</time>
      </trkpt>
      <trkpt lat="52.29634" lon="4.84292">
        <ele>26</ele>
        <time>2019-05-15T02:37:37Z</time>
      </trkpt>
      <trkpt lat="52.29709" lon="4.84343">
        <ele>25.799999237061</ele>
        <time>2019-05-15T02:38:05Z</time>
      </trkpt>
      <trkpt lat="52.2977" lon="4.84386">
        <ele>25.200000762939</ele>
        <time>2019-05-15T02:38:23Z</time>
      </trkpt>
      <trkpt lat="52.29827" lon="4.84423">
        <ele>25.60000038147</ele>
        <time>2019-05-15T02:38:31Z</time>
      </trkpt>
      <trkpt lat="52.29891" lon="4.84474">
        <ele>25.799999237061</ele>
        <time>2019-05-15T02:38:43Z</time>
      </trkpt>
      <trkpt lat="52.29973" lon="4.84561">
        <ele>25.60000038147</ele>
        <time>2019-05-15T02:39:05Z</time>
      </trkpt>
      <trkpt lat="52.29989" lon="4.84586">
        <ele>25.200000762939</ele>
        <time>2019-05-15T02:39:27Z</time>
      </trkpt>
      <trkpt lat="52.30024" lon="4.84632">
        <ele>25.60000038147</ele>
        <time>2019-05-15T02:39:46Z</time>
      </trkpt>
      <trkpt lat="52.3015" lon="4.8479">
        <ele>26</ele>
        <time>2019-05-15T02:40:06Z</time>
      </trkpt>
      <trkpt lat="52.30198" lon="4.84845">
        <ele>26.60000038147</ele>
        <time>2019-05-15T02:40:27Z</time>
      </trkpt>
      <trkpt lat="52.3025" lon="4.84925">
        <ele>26.39999961853</ele>
        <time>2019-05-15T02:40:47Z</time>
      </trkpt>
      <trkpt lat="52.30326" lon="4.84985">
        <ele>26.799999237061</ele>
        <time>2019-05-15T02:41:01Z</time>
      </trkpt>
      <trkpt lat="52.30388" lon="4.85048">
        <ele>27</ele>
        <time>2019-05-15T02:41:43Z</time>
      </trkpt>
      <trkpt lat="52.30427" lon="4.85062">
        <ele>26.39999961853</ele>
        <time>2019-05-15T02:42:08Z</time>
      </trkpt>
      <trkpt lat="52.30446" lon="4.85064">
        <ele>25.60000038147</ele>
        <time>2019-05-15T02:42:30Z</time>
      </trkpt>
      <trkpt lat="52.30514" lon="4.85069">
        <ele>25.200000762939</ele>
        <time>2019-05-15T02:42:52Z</time>
      </trkpt>
      <trkpt lat="52.30754" lon="4.85077">
        <ele>25.200000762939</ele>
        <time>2019-05-15T02:43:14Z</time>
      </trkpt>
      <trkpt lat="52.30814" lon="4.85079">
        <ele>24.799999237061</ele>
        <time>2019-05-15T02:43:38Z</time>
      </trkpt>
      <trkpt lat="52.30827" lon="4.85078">
        <ele>25.200000762939</ele>
        <time>2019-05-15T02:44:00Z</time>
      </trkpt>
      <trkpt lat="52.31028" lon="4.85081">
        <ele>25.200000762939</ele>
        <time>2019-05-15T02:44:13Z</time>
      </trkpt>
      <trkpt lat="52.31089" lon="4.85087">
        <ele>25</ele>
        <time>2019-05-15T02:44:34Z</time>
      </trkpt>
      <trkpt lat="52.31156" lon="4.85111">
        <ele>25.39999961853</ele>
        <time>2019-05-15T02:44:55Z</time>
      </trkpt>
      <trkpt lat="52.31198" lon="4.85168">
        <ele>25.200000762939</ele>
        <time>2019-05-15T02:45:18Z</time>
      </trkpt>
      <trkpt lat="52.31232" lon="4.85205">
        <ele>25.200000762939</ele>
        <time>2019-05-15T02:45:39Z</time>
      </trkpt>
      <trkpt lat="52.31306" lon="4.85314">
        <ele>25.60000038147</ele>
        <time>2019-05-15T02:45:59Z</time>
      </trkpt>
      <trkpt lat="52.31362" lon="4.85393">
        <ele>25.799999237061</ele>
        <time>2019-05-15T02:46:13Z</time>
      </trkpt>
      <trkpt lat="52.3141" lon="4.85456">
        <ele>25</ele>
        <time>2019-05-15T02:46:43Z</time>
      </trkpt>
      <trkpt lat="52.31496" lon="4.85524">
        <ele>25.60000038147</ele>
        <time>2019-05-15T02:46:56Z</time>
      </trkpt>
      <trkpt lat="52.31536" lon="4.8555">
        <ele>26.39999961853</ele>
        <time>2019-05-15T02:47:07Z</time>
      </trkpt>
      <trkpt lat="52.31536" lon="4.85578">
        <ele>27</ele>
        <time>2019-05-15T02:47:18Z</time>
      </trkpt>
      <trkpt lat="52.31525" lon="4.85669">
        <ele>26.60000038147</ele>
        <time>2019-05-15T02:47:37Z</time>
      </trkpt>
      <trkpt lat="52.31542" lon="4.85702">
        <ele>26.39999961853</ele>
        <time>2019-05-15T02:47:58Z</time>
      </trkpt>
      <trkpt lat="52.31613" lon="4.85708">
        <ele>26.39999961853</ele>
        <time>2019-05-15T02:48:22Z</time>
      </trkpt>
      <trkpt lat="52.31641" lon="4.85713">
        <ele>26.799999237061</ele>
        <time>2019-05-15T02:48:44Z</time>
      </trkpt>
      <trkpt lat="52.31666" lon="4.85713">
        <ele>26.39999961853</ele>
        <time>2019-05-15T02:48:56Z</time>
      </trkpt>
      <trkpt lat="52.3171" lon="4.85713">
        <ele>26.39999961853</ele>
        <time>2019-05-15T02:49:13Z</time>
      </trkpt>
      <trkpt lat="52.31792" lon="4.85724">
        <ele>26.799999237061</ele>
        <time>2019-05-15T02:49:27Z</time>
      </trkpt>
      <trkpt lat="52.31858" lon="4.85731">
        <ele>26.200000762939</ele>
        <time>2019-05-15T02:49:40Z</time>
      </trkpt>
      <trkpt lat="52.31904" lon="4.85736">
        <ele>26.39999961853</ele>
        <time>2019-05-15T02:49:56Z</time>
      </trkpt>
      <trkpt lat="52.32007" lon="4.85743">
        <ele>26</ele>
        <time>2019-05-15T02:50:21Z</time>
      </trkpt>
      <trkpt lat="52.32177" lon="4.8576">
        <ele>26.39999961853</ele>
        <time>2019-05-15T02:50:39Z</time>
      </trkpt>
      <trkpt lat="52.32229" lon="4.85767">
        <ele>27.39999961853</ele>
        <time>2019-05-15T02:51:02Z</time>
      </trkpt>
      <trkpt lat="52.32396" lon="4.85775">
        <ele>27.39999961853</ele>
        <time>2019-05-15T02:51:24Z</time>
      </trkpt>
      <trkpt lat="52.32459" lon="4.85778">
        <ele>27.60000038147</ele>
        <time>2019-05-15T02:51:45Z</time>
      </trkpt>
      <trkpt lat="52.32508" lon="4.85784">
        <ele>28</ele>
        <time>2019-05-15T02:51:58Z</time>
      </trkpt>
      <trkpt lat="52.32655" lon="4.85789">
        <ele>28.39999961853</ele>
        <time>2019-05-15T02:52:10Z</time>
      </trkpt>
      <trkpt lat="52.32731" lon="4.85789">
        <ele>28</ele>
        <time>2019-05-15T02:52:31Z</time>
      </trkpt>
      <trkpt lat="52.32751" lon="4.85809">
        <ele>28.200000762939</ele>
        <time>2019-05-15T02:52:45Z</time>
      </trkpt>
      <trkpt lat="52.32764" lon="4.85907">
        <ele>27</ele>
        <time>2019-05-15T02:53:38Z</time>
      </trkpt>
      <trkpt lat="52.32774" lon="4.86287">
        <ele>27</ele>
        <time>2019-05-15T02:54:02Z</time>
      </trkpt>
      <trkpt lat="52.32776" lon="4.86394">
        <ele>26.60000038147</ele>
        <time>2019-05-15T02:54:19Z</time>
      </trkpt>
      <trkpt lat="52.32775" lon="4.86469">
        <ele>26.799999237061</ele>
        <time>2019-05-15T02:54:42Z</time>
      </trkpt>
      <trkpt lat="52.32771" lon="4.86781">
        <ele>27.39999961853</ele>
        <time>2019-05-15T02:55:08Z</time>
      </trkpt>
      <trkpt lat="52.32767" lon="4.86896">
        <ele>27.39999961853</ele>
        <time>2019-05-15T02:55:26Z</time>
      </trkpt>
      <trkpt lat="52.3277" lon="4.87009">
        <ele>27.799999237061</ele>
        <time>2019-05-15T02:57:59Z</time>
      </trkpt>
      <trkpt lat="52.32769" lon="4.871">
        <ele>27.39999961853</ele>
        <time>2019-05-15T02:58:17Z</time>
      </trkpt>
      <trkpt lat="52.32772" lon="4.87175">
        <ele>27.39999961853</ele>
        <time>2019-05-15T02:58:43Z</time>
      </trkpt>
      <trkpt lat="52.32777" lon="4.87303">
        <ele>27.799999237061</ele>
        <time>2019-05-15T02:59:05Z</time>
      </trkpt>
      <trkpt lat="52.32771" lon="4.87497">
        <ele>27.799999237061</ele>
        <time>2019-05-15T02:59:33Z</time>
      </trkpt>
      <trkpt lat="52.32771" lon="4.87556">
        <ele>28</ele>
        <time>2019-05-15T03:00:03Z</time>
      </trkpt>
      <trkpt lat="52.32779" lon="4.87756">
        <ele>27.60000038147</ele>
        <time>2019-05-15T03:00:23Z</time>
      </trkpt>
      <trkpt lat="52.32775" lon="4.87818">
        <ele>27.200000762939</ele>
        <time>2019-05-15T03:00:38Z</time>
      </trkpt>
      <trkpt lat="52.32778" lon="4.87934">
        <ele>27.799999237061</ele>
        <time>2019-05-15T03:00:50Z</time>
      </trkpt>
      <trkpt lat="52.32782" lon="4.88007">
        <ele>27.799999237061</ele>
        <time>2019-05-15T03:14:53Z</time>
      </trkpt>
      <trkpt lat="52.32784" lon="4.88167">
        <ele>27.200000762939</ele>
        <time>2019-05-15T03:15:05Z</time>
      </trkpt>
      <trkpt lat="52.32788" lon="4.88243">
        <ele>27.39999961853</ele>
        <time>2019-05-15T03:15:27Z</time>
      </trkpt>
      <trkpt lat="52.32782" lon="4.88478">
        <ele>28.200000762939</ele>
        <time>2019-05-15T03:15:49Z</time>
      </trkpt>
      <trkpt lat="52.32789" lon="4.88592">
        <ele>27.799999237061</ele>
        <time>2019-05-15T03:16:04Z</time>
      </trkpt>
      <trkpt lat="52.32812" lon="4.88715">
        <ele>27.60000038147</ele>
        <time>2019-05-15T03:16:26Z</time>
      </trkpt>
      <trkpt lat="52.32852" lon="4.88838">
        <ele>28</ele>
        <time>2019-05-15T03:16:47Z</time>
      </trkpt>
      <trkpt lat="52.32856" lon="4.88964">
        <ele>27.799999237061</ele>
        <time>2019-05-15T03:17:07Z</time>
      </trkpt>
      <trkpt lat="52.32857" lon="4.89024">
        <ele>27.60000038147</ele>
        <time>2019-05-15T03:17:28Z</time>
      </trkpt>
      <trkpt lat="52.32864" lon="4.89051">
        <ele>28</ele>
        <time>2019-05-15T03:17:42Z</time>
      </trkpt>
      <trkpt lat="52.32958" lon="4.89058">
        <ele>28.39999961853</ele>
        <time>2019-05-15T03:18:03Z</time>
      </trkpt>
      <trkpt lat="52.32997" lon="4.89061">
        <ele>28.200000762939</ele>
        <time>2019-05-15T03:18:23Z</time>
      </trkpt>
      <trkpt lat="52.33121" lon="4.89065">
        <ele>28.200000762939</ele>
        <time>2019-05-15T03:18:33Z</time>
      </trkpt>
      <trkpt lat="52.33208" lon="4.89053">
        <ele>28.200000762939</ele>
        <time>2019-05-15T03:18:45Z</time>
      </trkpt>
      <trkpt lat="52.33265" lon="4.89059">
        <ele>28.39999961853</ele>
        <time>2019-05-15T03:19:04Z</time>
      </trkpt>
      <trkpt lat="52.33331" lon="4.89056">
        <ele>28.200000762939</ele>
        <time>2019-05-15T03:19:19Z</time>
      </trkpt>
      <trkpt lat="52.33368" lon="4.89056">
        <ele>28.200000762939</ele>
        <time>2019-05-15T03:19:30Z</time>
      </trkpt>
      <trkpt lat="52.33408" lon="4.89053">
        <ele>27.799999237061</ele>
        <time>2019-05-15T03:19:45Z</time>
      </trkpt>
      <trkpt lat="52.33487" lon="4.89053">
        <ele>28.200000762939</ele>
        <time>2019-05-15T03:19:56Z</time>
      </trkpt>
      <trkpt lat="52.33597" lon="4.89073">
        <ele>27.799999237061</ele>
        <time>2019-05-15T03:20:09Z</time>
      </trkpt>
      <trkpt lat="52.33633" lon="4.89119">
        <ele>28.60000038147</ele>
        <time>2019-05-15T03:20:20Z</time>
      </trkpt>
      <trkpt lat="52.33683" lon="4.89187">
        <ele>28.799999237061</ele>
        <time>2019-05-15T03:20:26Z</time>
      </trkpt>
      <trkpt lat="52.33726" lon="4.89241">
        <ele>28.60000038147</ele>
        <time>2019-05-15T03:20:45Z</time>
      </trkpt>
      <trkpt lat="52.33798" lon="4.89242">
        <ele>29.200000762939</ele>
        <time>2019-05-15T03:21:01Z</time>
      </trkpt>
      <trkpt lat="52.33836" lon="4.89241">
        <ele>30</ele>
        <time>2019-05-15T03:21:29Z</time>
      </trkpt>
      <trkpt lat="52.33966" lon="4.89224">
        <ele>30</ele>
        <time>2019-05-15T03:21:40Z</time>
      </trkpt>
      <trkpt lat="52.34046" lon="4.89271">
        <ele>30</ele>
        <time>2019-05-15T03:21:54Z</time>
      </trkpt>
      <trkpt lat="52.3406" lon="4.89279">
        <ele>29.39999961853</ele>
        <time>2019-05-15T03:22:12Z</time>
      </trkpt>
      <trkpt lat="52.34169" lon="4.89283">
        <ele>29.799999237061</ele>
        <time>2019-05-15T03:22:31Z</time>
      </trkpt>
      <trkpt lat="52.34199" lon="4.8931">
        <ele>29.799999237061</ele>
        <time>2019-05-15T03:22:51Z</time>
      </trkpt>
      <trkpt lat="52.34197" lon="4.89342">
        <ele>30</ele>
        <time>2019-05-15T03:23:15Z</time>
      </trkpt>
      <trkpt lat="52.34225" lon="4.89414">
        <ele>30.200000762939</ele>
        <time>2019-05-15T03:23:29Z</time>
      </trkpt>
      <trkpt lat="52.34235" lon="4.89447">
        <ele>30.200000762939</ele>
        <time>2019-05-15T03:23:56Z</time>
      </trkpt>
      <trkpt lat="52.34242" lon="4.89458">
        <ele>30</ele>
        <time>2019-05-15T03:24:21Z</time>
      </trkpt>
      <trkpt lat="52.34259" lon="4.89508">
        <ele>30</ele>
        <time>2019-05-15T03:24:38Z</time>
      </trkpt>
      <trkpt lat="52.34299" lon="4.89618">
        <ele>29.799999237061</ele>
        <time>2019-05-15T03:24:56Z</time>
      </trkpt>
      <trkpt lat="52.34307" lon="4.89642">
        <ele>29.60000038147</ele>
        <time>2019-05-15T03:25:22Z</time>
      </trkpt>
      <trkpt lat="52.34342" lon="4.89741">
        <ele>30</ele>
        <time>2019-05-15T03:25:42Z</time>
      </trkpt>
      <trkpt lat="52.34407" lon="4.89922">
        <ele>30</ele>
        <time>2019-05-15T03:25:54Z</time>
      </trkpt>
      <trkpt lat="52.34461" lon="4.9004">
        <ele>30.200000762939</ele>
        <time>2019-05-15T03:26:11Z</time>
      </trkpt>
      <trkpt lat="52.34467" lon="4.90062">
        <ele>30.200000762939</ele>
        <time>2019-05-15T03:26:26Z</time>
      </trkpt>
      <trkpt lat="52.34468" lon="4.90075">
        <ele>30</ele>
        <time>2019-05-15T03:26:48Z</time>
      </trkpt>
      <trkpt lat="52.3445" lon="4.90132">
        <ele>30.60000038147</ele>
        <time>2019-05-15T03:27:12Z</time>
      </trkpt>
      <trkpt lat="52.34467" lon="4.90205">
        <ele>30.799999237061</ele>
        <time>2019-05-15T03:27:26Z</time>
      </trkpt>
      <trkpt lat="52.34505" lon="4.9031">
        <ele>30.39999961853</ele>
        <time>2019-05-15T03:27:43Z</time>
      </trkpt>
      <trkpt lat="52.34531" lon="4.90343">
        <ele>30.39999961853</ele>
        <time>2019-05-15T03:28:00Z</time>
      </trkpt>
      <trkpt lat="52.34574" lon="4.90372">
        <ele>30.60000038147</ele>
        <time>2019-05-15T03:28:19Z</time>
      </trkpt>
      <trkpt lat="52.34624" lon="4.90587">
        <ele>30.60000038147</ele>
        <time>2019-05-15T03:28:33Z</time>
      </trkpt>
      <trkpt lat="52.34648" lon="4.90734">
        <ele>30.39999961853</ele>
        <time>2019-05-15T03:28:56Z</time>
      </trkpt>
      <trkpt lat="52.34663" lon="4.90842">
        <ele>30.60000038147</ele>
        <time>2019-05-15T03:29:15Z</time>
      </trkpt>
      <trkpt lat="52.34682" lon="4.90979">
        <ele>30.60000038147</ele>
        <time>2019-05-15T03:29:29Z</time>
      </trkpt>
      <trkpt lat="52.34687" lon="4.91061">
        <ele>30.200000762939</ele>
        <time>2019-05-15T03:31:16Z</time>
      </trkpt>
      <trkpt lat="52.34705" lon="4.91193">
        <ele>31.60000038147</ele>
        <time>2019-05-15T03:31:27Z</time>
      </trkpt>
      <trkpt lat="52.34721" lon="4.91251">
        <ele>33</ele>
        <time>2019-05-15T03:31:33Z</time>
      </trkpt>
      <trkpt lat="52.34731" lon="4.91319">
        <ele>33.799999237061</ele>
        <time>2019-05-15T03:31:57Z</time>
      </trkpt>
      <trkpt lat="52.34737" lon="4.91411">
        <ele>32.599998474121</ele>
        <time>2019-05-15T03:32:10Z</time>
      </trkpt>
      <trkpt lat="52.34752" lon="4.91522">
        <ele>32.599998474121</ele>
        <time>2019-05-15T03:32:22Z</time>
      </trkpt>
      <trkpt lat="52.34762" lon="4.91588">
        <ele>31.60000038147</ele>
        <time>2019-05-15T03:32:46Z</time>
      </trkpt>
      <trkpt lat="52.34772" lon="4.91673">
        <ele>30.799999237061</ele>
        <time>2019-05-15T03:33:11Z</time>
      </trkpt>
      <trkpt lat="52.34773" lon="4.91715">
        <ele>30.60000038147</ele>
        <time>2019-05-15T03:33:36Z</time>
      </trkpt>
      <trkpt lat="52.34771" lon="4.91817">
        <ele>30.799999237061</ele>
        <time>2019-05-15T03:34:01Z</time>
      </trkpt>
      <trkpt lat="52.3478" lon="4.91943">
        <ele>31.39999961853</ele>
        <time>2019-05-15T03:34:25Z</time>
      </trkpt>
      <trkpt lat="52.34805" lon="4.91951">
        <ele>31.799999237061</ele>
        <time>2019-05-15T03:34:46Z</time>
      </trkpt>
      <trkpt lat="52.34815" lon="4.91998">
        <ele>31.799999237061</ele>
        <time>2019-05-15T03:35:03Z</time>
      </trkpt>
      <trkpt lat="52.34829" lon="4.92109">
        <ele>31.200000762939</ele>
        <time>2019-05-15T03:35:24Z</time>
      </trkpt>
      <trkpt lat="52.34816" lon="4.92221">
        <ele>30.799999237061</ele>
        <time>2019-05-15T03:35:46Z</time>
      </trkpt>
      <trkpt lat="52.34811" lon="4.92306">
        <ele>29.39999961853</ele>
        <time>2019-05-15T03:36:11Z</time>
      </trkpt>
      <trkpt lat="52.34863" lon="4.92367">
        <ele>27.39999961853</ele>
        <time>2019-05-15T03:36:25Z</time>
      </trkpt>
      <trkpt lat="52.34925" lon="4.92432">
        <ele>27.200000762939</ele>
        <time>2019-05-15T03:36:45Z</time>
      </trkpt>
      <trkpt lat="52.34981" lon="4.92486">
        <ele>27.60000038147</ele>
        <time>2019-05-15T03:37:07Z</time>
      </trkpt>
      <trkpt lat="52.3502" lon="4.92534">
        <ele>27.200000762939</ele>
        <time>2019-05-15T03:37:29Z</time>
      </trkpt>
      <trkpt lat="52.35062" lon="4.92613">
        <ele>27.200000762939</ele>
        <time>2019-05-15T03:37:55Z</time>
      </trkpt>
      <trkpt lat="52.35117" lon="4.92702">
        <ele>27.39999961853</ele>
        <time>2019-05-15T03:38:16Z</time>
      </trkpt>
      <trkpt lat="52.35178" lon="4.928">
        <ele>27.39999961853</ele>
        <time>2019-05-15T03:38:27Z</time>
      </trkpt>
      <trkpt lat="52.35242" lon="4.92883">
        <ele>27.60000038147</ele>
        <time>2019-05-15T03:38:47Z</time>
      </trkpt>
      <trkpt lat="52.35254" lon="4.92892">
        <ele>27.60000038147</ele>
        <time>2019-05-15T03:39:01Z</time>
      </trkpt>
      <trkpt lat="52.35304" lon="4.9295">
        <ele>27.200000762939</ele>
        <time>2019-05-15T03:39:12Z</time>
      </trkpt>
      <trkpt lat="52.3536" lon="4.93052">
        <ele>27.799999237061</ele>
        <time>2019-05-15T03:39:34Z</time>
      </trkpt>
      <trkpt lat="52.35342" lon="4.93088">
        <ele>28.200000762939</ele>
        <time>2019-05-15T03:39:56Z</time>
      </trkpt>
      <trkpt lat="52.35305" lon="4.93147">
        <ele>28</ele>
        <time>2019-05-15T03:40:18Z</time>
      </trkpt>
      <trkpt lat="52.35265" lon="4.93215">
        <ele>27.200000762939</ele>
        <time>2019-05-15T03:40:42Z</time>
      </trkpt>
      <trkpt lat="52.35161" lon="4.93396">
        <ele>28.200000762939</ele>
        <time>2019-05-15T03:41:05Z</time>
      </trkpt>
      <trkpt lat="52.35094" lon="4.93491">
        <ele>28</ele>
        <time>2019-05-15T03:41:20Z</time>
      </trkpt>
      <trkpt lat="52.35085" lon="4.93495">
        <ele>27.799999237061</ele>
        <time>2019-05-15T03:41:42Z</time>
      </trkpt>
      <trkpt lat="52.35077" lon="4.93513">
        <ele>28</ele>
        <time>2019-05-15T03:42:00Z</time>
      </trkpt>
      <trkpt lat="52.35091" lon="4.93532">
        <ele>28</ele>
        <time>2019-05-15T03:42:23Z</time>
      </trkpt>
      <trkpt lat="52.35212" lon="4.93737">
        <ele>28.39999961853</ele>
        <time>2019-05-15T03:42:37Z</time>
      </trkpt>
      <trkpt lat="52.35338" lon="4.93959">
        <ele>28.39999961853</ele>
        <time>2019-05-15T03:42:58Z</time>
      </trkpt>
      <trkpt lat="52.35405" lon="4.94071">
        <ele>28.60000038147</ele>
        <time>2019-05-15T03:43:03Z</time>
      </trkpt>
      <trkpt lat="52.3545" lon="4.94142">
        <ele>28.799999237061</ele>
        <time>2019-05-15T03:43:20Z</time>
      </trkpt>
      <trkpt lat="52.35506" lon="4.94079">
        <ele>28.799999237061</ele>
        <time>2019-05-15T03:43:38Z</time>
      </trkpt>
      <trkpt lat="52.35556" lon="4.94001">
        <ele>29</ele>
        <time>2019-05-15T03:43:55Z</time>
      </trkpt>
      <trkpt lat="52.35603" lon="4.93959">
        <ele>29</ele>
        <time>2019-05-15T03:44:11Z</time>
      </trkpt>
      <trkpt lat="52.35642" lon="4.93994">
        <ele>28.799999237061</ele>
        <time>2019-05-15T03:44:24Z</time>
      </trkpt>
      <trkpt lat="52.35712" lon="4.94079">
        <ele>29</ele>
        <time>2019-05-15T03:44:39Z</time>
      </trkpt>
      <trkpt lat="52.3579" lon="4.94134">
        <ele>31.799999237061</ele>
        <time>2019-05-15T03:44:47Z</time>
      </trkpt>
      <trkpt lat="52.35833" lon="4.94111">
        <ele>33.200000762939</ele>
        <time>2019-05-15T03:45:10Z</time>
      </trkpt>
      <trkpt lat="52.35874" lon="4.94087">
        <ele>33.799999237061</ele>
        <time>2019-05-15T03:45:32Z</time>
      </trkpt>
      <trkpt lat="52.35928" lon="4.94062">
        <ele>33.200000762939</ele>
        <time>2019-05-15T03:45:37Z</time>
      </trkpt>
      <trkpt lat="52.35996" lon="4.9403">
        <ele>33.200000762939</ele>
        <time>2019-05-15T03:45:55Z</time>
      </trkpt>
      <trkpt lat="52.36071" lon="4.94005">
        <ele>33.400001525879</ele>
        <time>2019-05-15T03:46:12Z</time>
      </trkpt>
      <trkpt lat="52.36138" lon="4.93981">
        <ele>33</ele>
        <time>2019-05-15T03:46:40Z</time>
      </trkpt>
      <trkpt lat="52.36162" lon="4.9399">
        <ele>32.799999237061</ele>
        <time>2019-05-15T03:46:57Z</time>
      </trkpt>
      <trkpt lat="52.36217" lon="4.93955">
        <ele>32.799999237061</ele>
        <time>2019-05-15T03:47:11Z</time>
      </trkpt>
      <trkpt lat="52.36294" lon="4.93942">
        <ele>33</ele>
        <time>2019-05-15T03:47:19Z</time>
      </trkpt>
      <trkpt lat="52.36452" lon="4.9393">
        <ele>33</ele>
        <time>2019-05-15T03:47:38Z</time>
      </trkpt>
      <trkpt lat="52.36509" lon="4.93925">
        <ele>32.799999237061</ele>
        <time>2019-05-15T03:48:00Z</time>
      </trkpt>
      <trkpt lat="52.36574" lon="4.93924">
        <ele>33.200000762939</ele>
        <time>2019-05-15T03:48:26Z</time>
      </trkpt>
      <trkpt lat="52.36691" lon="4.93951">
        <ele>35.200000762939</ele>
        <time>2019-05-15T03:48:48Z</time>
      </trkpt>
      <trkpt lat="52.36752" lon="4.93953">
        <ele>35.200000762939</ele>
        <time>2019-05-15T03:49:10Z</time>
      </trkpt>
      <trkpt lat="52.36812" lon="4.93944">
        <ele>34.599998474121</ele>
        <time>2019-05-15T03:49:30Z</time>
      </trkpt>
      <trkpt lat="52.36852" lon="4.93937">
        <ele>33.799999237061</ele>
        <time>2019-05-15T03:49:54Z</time>
      </trkpt>
      <trkpt lat="52.36866" lon="4.93875">
        <ele>34</ele>
        <time>2019-05-15T03:50:16Z</time>
      </trkpt>
      <trkpt lat="52.36899" lon="4.93867">
        <ele>34.200000762939</ele>
        <time>2019-05-15T03:50:34Z</time>
      </trkpt>
      <trkpt lat="52.36954" lon="4.93875">
        <ele>35.200000762939</ele>
        <time>2019-05-15T03:50:58Z</time>
      </trkpt>
      <trkpt lat="52.36948" lon="4.93867">
        <ele>36</ele>
        <time>2019-05-15T03:51:19Z</time>
      </trkpt>
      <trkpt lat="52.36991" lon="4.93862">
        <ele>36</ele>
        <time>2019-05-15T03:51:36Z</time>
      </trkpt>
      <trkpt lat="52.37049" lon="4.93859">
        <ele>35.599998474121</ele>
        <time>2019-05-15T03:51:56Z</time>
      </trkpt>
      <trkpt lat="52.37103" lon="4.93865">
        <ele>34.599998474121</ele>
        <time>2019-05-15T03:52:14Z</time>
      </trkpt>
      <trkpt lat="52.37118" lon="4.93834">
        <ele>33.599998474121</ele>
        <time>2019-05-15T03:52:38Z</time>
      </trkpt>
      <trkpt lat="52.37119" lon="4.93742">
        <ele>34.400001525879</ele>
        <time>2019-05-15T03:52:56Z</time>
      </trkpt>
      <trkpt lat="52.37124" lon="4.93565">
        <ele>34.400001525879</ele>
        <time>2019-05-15T03:58:15Z</time>
      </trkpt>
      <trkpt lat="52.37117" lon="4.9343">
        <ele>34.599998474121</ele>
        <time>2019-05-15T03:58:35Z</time>
      </trkpt>
      <trkpt lat="52.3714" lon="4.93417">
        <ele>34.599998474121</ele>
        <time>2019-05-15T03:59:00Z</time>
      </trkpt>
      <trkpt lat="52.37218" lon="4.93415">
        <ele>35</ele>
        <time>2019-05-15T03:59:20Z</time>
      </trkpt>
      <trkpt lat="52.37263" lon="4.93387">
        <ele>34.599998474121</ele>
        <time>2019-05-15T03:59:42Z</time>
      </trkpt>
      <trkpt lat="52.37321" lon="4.93325">
        <ele>34.799999237061</ele>
        <time>2019-05-15T04:00:06Z</time>
      </trkpt>
      <trkpt lat="52.37355" lon="4.93286">
        <ele>34.799999237061</ele>
        <time>2019-05-15T04:00:25Z</time>
      </trkpt>
      <trkpt lat="52.37383" lon="4.93237">
        <ele>35.400001525879</ele>
        <time>2019-05-15T04:00:45Z</time>
      </trkpt>
      <trkpt lat="52.37411" lon="4.93159">
        <ele>35.799999237061</ele>
        <time>2019-05-15T04:01:09Z</time>
      </trkpt>
      <trkpt lat="52.37472" lon="4.93029">
        <ele>34.400001525879</ele>
        <time>2019-05-15T04:01:25Z</time>
      </trkpt>
      <trkpt lat="52.37492" lon="4.92981">
        <ele>34.400001525879</ele>
        <time>2019-05-15T04:01:48Z</time>
      </trkpt>
      <trkpt lat="52.37533" lon="4.92858">
        <ele>34.599998474121</ele>
        <time>2019-05-15T04:08:52Z</time>
      </trkpt>
      <trkpt lat="52.37553" lon="4.92691">
        <ele>35.400001525879</ele>
        <time>2019-05-15T04:09:42Z</time>
      </trkpt>
      <trkpt lat="52.37577" lon="4.92559">
        <ele>35.599998474121</ele>
        <time>2019-05-15T04:09:51Z</time>
      </trkpt>
      <trkpt lat="52.37588" lon="4.92483">
        <ele>35.200000762939</ele>
        <time>2019-05-15T04:10:04Z</time>
      </trkpt>
      <trkpt lat="52.37649" lon="4.92501">
        <ele>35.200000762939</ele>
        <time>2019-05-15T04:10:22Z</time>
      </trkpt>
      <trkpt lat="52.37657" lon="4.92503">
        <ele>33.799999237061</ele>
        <time>2019-05-15T04:10:40Z</time>
      </trkpt>
      <trkpt lat="52.37647" lon="4.925">
        <ele>34.400001525879</ele>
        <time>2019-05-15T04:11:05Z</time>
      </trkpt>
      <trkpt lat="52.376" lon="4.92475">
        <ele>35.200000762939</ele>
        <time>2019-05-15T04:11:30Z</time>
      </trkpt>
      <trkpt lat="52.37626" lon="4.92253">
        <ele>35.200000762939</ele>
        <time>2019-05-15T04:11:55Z</time>
      </trkpt>
      <trkpt lat="52.37617" lon="4.92192">
        <ele>35.400001525879</ele>
        <time>2019-05-15T04:12:19Z</time>
      </trkpt>
      <trkpt lat="52.37611" lon="4.92227">
        <ele>35.599998474121</ele>
        <time>2019-05-15T04:12:36Z</time>
      </trkpt>
      <trkpt lat="52.37593" lon="4.9238">
        <ele>35.599998474121</ele>
        <time>2019-05-15T04:13:02Z</time>
      </trkpt>
      <trkpt lat="52.37571" lon="4.9259">
        <ele>36.599998474121</ele>
        <time>2019-05-15T04:13:27Z</time>
      </trkpt>
      <trkpt lat="52.37567" lon="4.92625">
        <ele>36.400001525879</ele>
        <time>2019-05-15T04:13:50Z</time>
      </trkpt>
      <trkpt lat="52.37533" lon="4.92746">
        <ele>36.400001525879</ele>
        <time>2019-05-15T04:14:11Z</time>
      </trkpt>
      <trkpt lat="52.3751" lon="4.92883">
        <ele>36</ele>
        <time>2019-05-15T04:14:36Z</time>
      </trkpt>
      <trkpt lat="52.37467" lon="4.93033">
        <ele>35.799999237061</ele>
        <time>2019-05-15T04:14:45Z</time>
      </trkpt>
      <trkpt lat="52.3741" lon="4.93165">
        <ele>36.200000762939</ele>
        <time>2019-05-15T04:15:03Z</time>
      </trkpt>
      <trkpt lat="52.3739" lon="4.93205">
        <ele>36</ele>
        <time>2019-05-15T04:15:27Z</time>
      </trkpt>
      <trkpt lat="52.37325" lon="4.93317">
        <ele>36.400001525879</ele>
        <time>2019-05-15T04:15:56Z</time>
      </trkpt>
      <trkpt lat="52.37262" lon="4.93384">
        <ele>36.200000762939</ele>
        <time>2019-05-15T04:16:25Z</time>
      </trkpt>
      <trkpt lat="52.37258" lon="4.9339">
        <ele>36</ele>
        <time>2019-05-15T04:16:47Z</time>
      </trkpt>
      <trkpt lat="52.37175" lon="4.93434">
        <ele>36</ele>
        <time>2019-05-15T04:18:43Z</time>
      </trkpt>
      <trkpt lat="52.37117" lon="4.93444">
        <ele>36.599998474121</ele>
        <time>2019-05-15T04:18:51Z</time>
      </trkpt>
      <trkpt lat="52.37105" lon="4.93447">
        <ele>36.200000762939</ele>
        <time>2019-05-15T04:19:09Z</time>
      </trkpt>
      <trkpt lat="52.37107" lon="4.935">
        <ele>36.200000762939</ele>
        <time>2019-05-15T04:19:24Z</time>
      </trkpt>
      <trkpt lat="52.37118" lon="4.93575">
        <ele>36</ele>
        <time>2019-05-15T04:19:41Z</time>
      </trkpt>
      <trkpt lat="52.37117" lon="4.93632">
        <ele>36</ele>
        <time>2019-05-15T04:20:04Z</time>
      </trkpt>
      <trkpt lat="52.37117" lon="4.9369">
        <ele>36.200000762939</ele>
        <time>2019-05-15T04:20:13Z</time>
      </trkpt>
      <trkpt lat="52.37118" lon="4.93814">
        <ele>36.400001525879</ele>
        <time>2019-05-15T04:20:35Z</time>
      </trkpt>
      <trkpt lat="52.37097" lon="4.93834">
        <ele>36.200000762939</ele>
        <time>2019-05-15T04:20:45Z</time>
      </trkpt>
      <trkpt lat="52.36969" lon="4.93845">
        <ele>37.799999237061</ele>
        <time>2019-05-15T04:21:04Z</time>
      </trkpt>
      <trkpt lat="52.36942" lon="4.93845">
        <ele>37.200000762939</ele>
        <time>2019-05-15T04:21:24Z</time>
      </trkpt>
      <trkpt lat="52.36865" lon="4.93863">
        <ele>36.400001525879</ele>
        <time>2019-05-15T04:21:52Z</time>
      </trkpt>
      <trkpt lat="52.36876" lon="4.93935">
        <ele>36.599998474121</ele>
        <time>2019-05-15T04:22:07Z</time>
      </trkpt>
      <trkpt lat="52.36835" lon="4.93935">
        <ele>36.799999237061</ele>
        <time>2019-05-15T04:22:16Z</time>
      </trkpt>
      <trkpt lat="52.36746" lon="4.93941">
        <ele>36.799999237061</ele>
        <time>2019-05-15T04:22:37Z</time>
      </trkpt>
      <trkpt lat="52.36647" lon="4.93944">
        <ele>37.400001525879</ele>
        <time>2019-05-15T04:23:05Z</time>
      </trkpt>
      <trkpt lat="52.36609" lon="4.93943">
        <ele>36.799999237061</ele>
        <time>2019-05-15T04:23:28Z</time>
      </trkpt>
      <trkpt lat="52.36614" lon="4.94102">
        <ele>37.599998474121</ele>
        <time>2019-05-15T04:23:45Z</time>
      </trkpt>
      <trkpt lat="52.36613" lon="4.94196">
        <ele>37.599998474121</ele>
        <time>2019-05-15T04:24:10Z</time>
      </trkpt>
      <trkpt lat="52.36612" lon="4.94317">
        <ele>37.799999237061</ele>
        <time>2019-05-15T04:24:35Z</time>
      </trkpt>
      <trkpt lat="52.3661" lon="4.94418">
        <ele>37.200000762939</ele>
        <time>2019-05-15T04:24:55Z</time>
      </trkpt>
      <trkpt lat="52.36604" lon="4.94496">
        <ele>37.200000762939</ele>
        <time>2019-05-15T04:25:17Z</time>
      </trkpt>
      <trkpt lat="52.36613" lon="4.94563">
        <ele>37.599998474121</ele>
        <time>2019-05-15T04:25:36Z</time>
      </trkpt>
      <trkpt lat="52.36626" lon="4.94666">
        <ele>37.400001525879</ele>
        <time>2019-05-15T04:25:59Z</time>
      </trkpt>
      <trkpt lat="52.36608" lon="4.94761">
        <ele>37.200000762939</ele>
        <time>2019-05-15T04:26:24Z</time>
      </trkpt>
      <trkpt lat="52.36543" lon="4.94817">
        <ele>37.400001525879</ele>
        <time>2019-05-15T04:26:48Z</time>
      </trkpt>
      <trkpt lat="52.36531" lon="4.94823">
        <ele>36.799999237061</ele>
        <time>2019-05-15T04:27:10Z</time>
      </trkpt>
      <trkpt lat="52.36508" lon="4.9485">
        <ele>37</ele>
        <time>2019-05-15T04:27:26Z</time>
      </trkpt>
      <trkpt lat="52.36507" lon="4.94857">
        <ele>35.799999237061</ele>
        <time>2019-05-15T04:27:50Z</time>
      </trkpt>
      <trkpt lat="52.36522" lon="4.94911">
        <ele>36</ele>
        <time>2019-05-15T04:28:07Z</time>
      </trkpt>
      <trkpt lat="52.3652" lon="4.94975">
        <ele>37.200000762939</ele>
        <time>2019-05-15T04:28:32Z</time>
      </trkpt>
      <trkpt lat="52.36533" lon="4.95185">
        <ele>39.400001525879</ele>
        <time>2019-05-15T04:28:59Z</time>
      </trkpt>
      <trkpt lat="52.36552" lon="4.95399">
        <ele>42.599998474121</ele>
        <time>2019-05-15T04:29:21Z</time>
      </trkpt>
      <trkpt lat="52.36562" lon="4.95517">
        <ele>43.599998474121</ele>
        <time>2019-05-15T04:29:46Z</time>
      </trkpt>
      <trkpt lat="52.36574" lon="4.95659">
        <ele>46.200000762939</ele>
        <time>2019-05-15T04:30:12Z</time>
      </trkpt>
      <trkpt lat="52.3659" lon="4.95844">
        <ele>47.200000762939</ele>
        <time>2019-05-15T04:30:39Z</time>
      </trkpt>
      <trkpt lat="52.36621" lon="4.96004">
        <ele>45.400001525879</ele>
        <time>2019-05-15T04:31:01Z</time>
      </trkpt>
      <trkpt lat="52.36667" lon="4.96112">
        <ele>43.400001525879</ele>
        <time>2019-05-15T04:31:21Z</time>
      </trkpt>
      <trkpt lat="52.3674" lon="4.962">
        <ele>43</ele>
        <time>2019-05-15T04:31:40Z</time>
      </trkpt>
      <trkpt lat="52.36802" lon="4.96236">
        <ele>41.799999237061</ele>
        <time>2019-05-15T04:31:50Z</time>
      </trkpt>
      <trkpt lat="52.37011" lon="4.96248">
        <ele>38.200000762939</ele>
        <time>2019-05-15T04:32:01Z</time>
      </trkpt>
      <trkpt lat="52.37087" lon="4.96264">
        <ele>36.400001525879</ele>
        <time>2019-05-15T04:32:21Z</time>
      </trkpt>
      <trkpt lat="52.37172" lon="4.96267">
        <ele>37</ele>
        <time>2019-05-15T04:32:27Z</time>
      </trkpt>
      <trkpt lat="52.37223" lon="4.96269">
        <ele>36.799999237061</ele>
        <time>2019-05-15T04:32:49Z</time>
      </trkpt>
      <trkpt lat="52.37347" lon="4.9627">
        <ele>37.400001525879</ele>
        <time>2019-05-15T04:33:11Z</time>
      </trkpt>
      <trkpt lat="52.37441" lon="4.96278">
        <ele>37.599998474121</ele>
        <time>2019-05-15T04:33:34Z</time>
      </trkpt>
      <trkpt lat="52.37547" lon="4.96332">
        <ele>38</ele>
        <time>2019-05-15T04:33:56Z</time>
      </trkpt>
      <trkpt lat="52.37629" lon="4.96418">
        <ele>41</ele>
        <time>2019-05-15T04:34:14Z</time>
      </trkpt>
      <trkpt lat="52.37671" lon="4.96471">
        <ele>42</ele>
        <time>2019-05-15T04:34:43Z</time>
      </trkpt>
      <trkpt lat="52.37686" lon="4.96492">
        <ele>43.400001525879</ele>
        <time>2019-05-15T04:35:04Z</time>
      </trkpt>
      <trkpt lat="52.37817" lon="4.96671">
        <ele>46.799999237061</ele>
        <time>2019-05-15T04:35:30Z</time>
      </trkpt>
      <trkpt lat="52.37852" lon="4.96716">
        <ele>46.799999237061</ele>
        <time>2019-05-15T04:35:57Z</time>
      </trkpt>
      <trkpt lat="52.37857" lon="4.96723">
        <ele>47</ele>
        <time>2019-05-15T04:36:29Z</time>
      </trkpt>
      <trkpt lat="52.37873" lon="4.96744">
        <ele>46</ele>
        <time>2019-05-15T04:36:53Z</time>
      </trkpt>
      <trkpt lat="52.3793" lon="4.96821">
        <ele>45.799999237061</ele>
        <time>2019-05-15T04:37:22Z</time>
      </trkpt>
      <trkpt lat="52.3799" lon="4.969">
        <ele>44.400001525879</ele>
        <time>2019-05-15T04:37:50Z</time>
      </trkpt>
      <trkpt lat="52.38048" lon="4.96962">
        <ele>42.599998474121</ele>
        <time>2019-05-15T04:38:04Z</time>
      </trkpt>
      <trkpt lat="52.38248" lon="4.97093">
        <ele>37.799999237061</ele>
        <time>2019-05-15T04:38:33Z</time>
      </trkpt>
      <trkpt lat="52.38284" lon="4.97044">
        <ele>37.799999237061</ele>
        <time>2019-05-15T04:38:55Z</time>
      </trkpt>
      <trkpt lat="52.38316" lon="4.97046">
        <ele>37.599998474121</ele>
        <time>2019-05-15T04:39:20Z</time>
      </trkpt>
      <trkpt lat="52.38409" lon="4.97043">
        <ele>37.599998474121</ele>
        <time>2019-05-15T04:39:38Z</time>
      </trkpt>
      <trkpt lat="52.38494" lon="4.97004">
        <ele>37.400001525879</ele>
        <time>2019-05-15T04:39:55Z</time>
      </trkpt>
      <trkpt lat="52.38569" lon="4.96953">
        <ele>37.599998474121</ele>
        <time>2019-05-15T04:40:15Z</time>
      </trkpt>
      <trkpt lat="52.38714" lon="4.96817">
        <ele>39.200000762939</ele>
        <time>2019-05-15T04:40:38Z</time>
      </trkpt>
      <trkpt lat="52.38768" lon="4.96762">
        <ele>38.799999237061</ele>
        <time>2019-05-15T04:40:55Z</time>
      </trkpt>
      <trkpt lat="52.38817" lon="4.96688">
        <ele>38</ele>
        <time>2019-05-15T04:41:07Z</time>
      </trkpt>
      <trkpt lat="52.38877" lon="4.96494">
        <ele>38</ele>
        <time>2019-05-15T04:41:23Z</time>
      </trkpt>
      <trkpt lat="52.38886" lon="4.96355">
        <ele>37.799999237061</ele>
        <time>2019-05-15T04:41:35Z</time>
      </trkpt>
      <trkpt lat="52.38877" lon="4.96264">
        <ele>38.200000762939</ele>
        <time>2019-05-15T04:41:53Z</time>
      </trkpt>
      <trkpt lat="52.38856" lon="4.96143">
        <ele>38.200000762939</ele>
        <time>2019-05-15T04:42:07Z</time>
      </trkpt>
      <trkpt lat="52.38831" lon="4.96029">
        <ele>37.400001525879</ele>
        <time>2019-05-15T04:42:22Z</time>
      </trkpt>
      <trkpt lat="52.38802" lon="4.959">
        <ele>38</ele>
        <time>2019-05-15T04:42:41Z</time>
      </trkpt>
      <trkpt lat="52.38785" lon="4.95807">
        <ele>38.200000762939</ele>
        <time>2019-05-15T04:42:53Z</time>
      </trkpt>
      <trkpt lat="52.3876" lon="4.95703">
        <ele>37.799999237061</ele>
        <time>2019-05-15T04:43:14Z</time>
      </trkpt>
      <trkpt lat="52.3874" lon="4.9561">
        <ele>37.599998474121</ele>
        <time>2019-05-15T04:43:36Z</time>
      </trkpt>
      <trkpt lat="52.38703" lon="4.95484">
        <ele>37.200000762939</ele>
        <time>2019-05-15T04:44:04Z</time>
      </trkpt>
      <trkpt lat="52.38668" lon="4.95383">
        <ele>37.599998474121</ele>
        <time>2019-05-15T04:44:32Z</time>
      </trkpt>
      <trkpt lat="52.38656" lon="4.9533">
        <ele>38.200000762939</ele>
        <time>2019-05-15T04:44:49Z</time>
      </trkpt>
      <trkpt lat="52.3866" lon="4.95296">
        <ele>38</ele>
        <time>2019-05-15T04:45:07Z</time>
      </trkpt>
      <trkpt lat="52.38655" lon="4.95179">
        <ele>37.799999237061</ele>
        <time>2019-05-15T04:45:31Z</time>
      </trkpt>
      <trkpt lat="52.38649" lon="4.95077">
        <ele>38.799999237061</ele>
        <time>2019-05-15T04:45:47Z</time>
      </trkpt>
      <trkpt lat="52.38648" lon="4.95019">
        <ele>40.799999237061</ele>
        <time>2019-05-15T04:46:14Z</time>
      </trkpt>
      <trkpt lat="52.3865" lon="4.94904">
        <ele>40.200000762939</ele>
        <time>2019-05-15T04:46:40Z</time>
      </trkpt>
      <trkpt lat="52.38666" lon="4.94791">
        <ele>40.200000762939</ele>
        <time>2019-05-15T04:47:01Z</time>
      </trkpt>
      <trkpt lat="52.3877" lon="4.9465">
        <ele>39.799999237061</ele>
        <time>2019-05-15T04:47:27Z</time>
      </trkpt>
      <trkpt lat="52.38825" lon="4.94572">
        <ele>40</ele>
        <time>2019-05-15T04:47:49Z</time>
      </trkpt>
      <trkpt lat="52.38883" lon="4.945">
        <ele>39.799999237061</ele>
        <time>2019-05-15T04:48:16Z</time>
      </trkpt>
      <trkpt lat="52.38937" lon="4.94428">
        <ele>39</ele>
        <time>2019-05-15T04:48:41Z</time>
      </trkpt>
      <trkpt lat="52.38983" lon="4.94347">
        <ele>39</ele>
        <time>2019-05-15T04:49:07Z</time>
      </trkpt>
      <trkpt lat="52.39069" lon="4.94181">
        <ele>39.400001525879</ele>
        <time>2019-05-15T04:49:29Z</time>
      </trkpt>
      <trkpt lat="52.39115" lon="4.93978">
        <ele>39.400001525879</ele>
        <time>2019-05-15T04:49:55Z</time>
      </trkpt>
      <trkpt lat="52.39123" lon="4.93844">
        <ele>39.799999237061</ele>
        <time>2019-05-15T04:50:18Z</time>
      </trkpt>
      <trkpt lat="52.3915" lon="4.93665">
        <ele>39.799999237061</ele>
        <time>2019-05-15T04:50:43Z</time>
      </trkpt>
      <trkpt lat="52.39143" lon="4.93557">
        <ele>39.599998474121</ele>
        <time>2019-05-15T04:52:43Z</time>
      </trkpt>
      <trkpt lat="52.3916" lon="4.93423">
        <ele>39.599998474121</ele>
        <time>2019-05-15T04:52:50Z</time>
      </trkpt>
      <trkpt lat="52.39169" lon="4.93315">
        <ele>39.400001525879</ele>
        <time>2019-05-15T04:54:58Z</time>
      </trkpt>
      <trkpt lat="52.39161" lon="4.9332">
        <ele>39.599998474121</ele>
        <time>2019-05-15T04:55:15Z</time>
      </trkpt>
      <trkpt lat="52.39089" lon="4.93348">
        <ele>38</ele>
        <time>2019-05-15T04:55:22Z</time>
      </trkpt>
      <trkpt lat="52.39073" lon="4.93434">
        <ele>38.200000762939</ele>
        <time>2019-05-15T04:55:30Z</time>
      </trkpt>
      <trkpt lat="52.3905" lon="4.9344">
        <ele>38.400001525879</ele>
        <time>2019-05-15T04:55:52Z</time>
      </trkpt>
      <trkpt lat="52.39052" lon="4.93374">
        <ele>37.799999237061</ele>
        <time>2019-05-15T04:56:14Z</time>
      </trkpt>
      <trkpt lat="52.39054" lon="4.93272">
        <ele>38</ele>
        <time>2019-05-15T04:56:26Z</time>
      </trkpt>
      <trkpt lat="52.39054" lon="4.93173">
        <ele>38.400001525879</ele>
        <time>2019-05-15T04:56:52Z</time>
      </trkpt>
      <trkpt lat="52.39049" lon="4.9305">
        <ele>38.400001525879</ele>
        <time>2019-05-15T04:57:10Z</time>
      </trkpt>
      <trkpt lat="52.39023" lon="4.92857">
        <ele>39.200000762939</ele>
        <time>2019-05-15T04:57:28Z</time>
      </trkpt>
      <trkpt lat="52.39012" lon="4.92736">
        <ele>39</ele>
        <time>2019-05-15T04:57:42Z</time>
      </trkpt>
      <trkpt lat="52.39036" lon="4.92769">
        <ele>38.599998474121</ele>
        <time>2019-05-16T07:28:42Z</time>
      </trkpt>
      <trkpt lat="52.39051" lon="4.92811">
        <ele>38.599998474121</ele>
        <time>2019-05-16T07:29:00Z</time>
      </trkpt>
      <trkpt lat="52.39052" lon="4.93048">
        <ele>42.400001525879</ele>
        <time>2019-05-16T07:29:24Z</time>
      </trkpt>
      <trkpt lat="52.3905" lon="4.93039">
        <ele>42.200000762939</ele>
        <time>2019-05-16T07:29:33Z</time>
      </trkpt>
      <trkpt lat="52.39051" lon="4.93029">
        <ele>42.400001525879</ele>
        <time>2019-05-16T07:29:56Z</time>
      </trkpt>
      <trkpt lat="52.39048" lon="4.92981">
        <ele>42.400001525879</ele>
        <time>2019-05-16T07:30:11Z</time>
      </trkpt>
      <trkpt lat="52.39046" lon="4.92963">
        <ele>42.599998474121</ele>
        <time>2019-05-16T07:30:18Z</time>
      </trkpt>
      <trkpt lat="52.3904" lon="4.92929">
        <ele>42.599998474121</ele>
        <time>2019-05-16T07:30:37Z</time>
      </trkpt>
      <trkpt lat="52.39038" lon="4.92911">
        <ele>42.799999237061</ele>
        <time>2019-05-16T07:34:28Z</time>
      </trkpt>
      <trkpt lat="52.39036" lon="4.9289">
        <ele>42.599998474121</ele>
        <time>2019-05-16T07:34:43Z</time>
      </trkpt>
      <trkpt lat="52.39033" lon="4.92854">
        <ele>42.599998474121</ele>
        <time>2019-05-16T07:38:18Z</time>
      </trkpt>
      <trkpt lat="52.3903" lon="4.92821">
        <ele>42.400001525879</ele>
        <time>2019-05-16T07:38:41Z</time>
      </trkpt>
      <trkpt lat="52.39021" lon="4.92761">
        <ele>42.599998474121</ele>
        <time>2019-05-16T07:39:09Z</time>
      </trkpt>
      <trkpt lat="52.38959" lon="4.92691">
        <ele>43</ele>
        <time>2019-05-16T07:39:30Z</time>
      </trkpt>
      <trkpt lat="52.3891" lon="4.92737">
        <ele>43</ele>
        <time>2019-05-16T07:39:55Z</time>
      </trkpt>
      <trkpt lat="52.38905" lon="4.92739">
        <ele>43.200000762939</ele>
        <time>2019-05-16T07:40:19Z</time>
      </trkpt>
      <trkpt lat="52.3892" lon="4.92716">
        <ele>43</ele>
        <time>2019-05-16T07:40:36Z</time>
      </trkpt>
      <trkpt lat="52.38928" lon="4.92631">
        <ele>43.400001525879</ele>
        <time>2019-05-16T07:41:01Z</time>
      </trkpt>
      <trkpt lat="52.38929" lon="4.92566">
        <ele>43.599998474121</ele>
        <time>2019-05-16T07:41:27Z</time>
      </trkpt>
      <trkpt lat="52.38931" lon="4.92539">
        <ele>43.599998474121</ele>
        <time>2019-05-16T07:42:01Z</time>
      </trkpt>
      <trkpt lat="52.38877" lon="4.9252">
        <ele>43.799999237061</ele>
        <time>2019-05-16T07:42:24Z</time>
      </trkpt>
      <trkpt lat="52.38781" lon="4.92444">
        <ele>42.799999237061</ele>
        <time>2019-05-16T07:42:36Z</time>
      </trkpt>
      <trkpt lat="52.3871" lon="4.92349">
        <ele>43.400001525879</ele>
        <time>2019-05-16T07:42:54Z</time>
      </trkpt>
      <trkpt lat="52.38655" lon="4.92291">
        <ele>43.400001525879</ele>
        <time>2019-05-16T07:43:22Z</time>
      </trkpt>
      <trkpt lat="52.38613" lon="4.92247">
        <ele>43.799999237061</ele>
        <time>2019-05-16T07:43:42Z</time>
      </trkpt>
      <trkpt lat="52.38591" lon="4.92146">
        <ele>43.799999237061</ele>
        <time>2019-05-16T07:44:11Z</time>
      </trkpt>
      <trkpt lat="52.38572" lon="4.92021">
        <ele>43.599998474121</ele>
        <time>2019-05-16T07:44:32Z</time>
      </trkpt>
      <trkpt lat="52.38556" lon="4.91913">
        <ele>43.799999237061</ele>
        <time>2019-05-16T07:44:47Z</time>
      </trkpt>
      <trkpt lat="52.38528" lon="4.91825">
        <ele>43.400001525879</ele>
        <time>2019-05-16T07:45:07Z</time>
      </trkpt>
      <trkpt lat="52.38487" lon="4.91757">
        <ele>43.599998474121</ele>
        <time>2019-05-16T07:45:17Z</time>
      </trkpt>
      <trkpt lat="52.38432" lon="4.9168">
        <ele>43.599998474121</ele>
        <time>2019-05-16T07:45:42Z</time>
      </trkpt>
      <trkpt lat="52.3838" lon="4.91606">
        <ele>43.400001525879</ele>
        <time>2019-05-16T07:45:56Z</time>
      </trkpt>
      <trkpt lat="52.38356" lon="4.91552">
        <ele>43.200000762939</ele>
        <time>2019-05-16T07:46:20Z</time>
      </trkpt>
      <trkpt lat="52.3832" lon="4.91452">
        <ele>43.599998474121</ele>
        <time>2019-05-16T07:46:40Z</time>
      </trkpt>
      <trkpt lat="52.3831" lon="4.91399">
        <ele>43.400001525879</ele>
        <time>2019-05-16T07:47:00Z</time>
      </trkpt>
      <trkpt lat="52.38303" lon="4.91282">
        <ele>44</ele>
        <time>2019-05-16T07:47:14Z</time>
      </trkpt>
      <trkpt lat="52.38321" lon="4.91173">
        <ele>44</ele>
        <time>2019-05-16T07:47:27Z</time>
      </trkpt>
      <trkpt lat="52.38299" lon="4.91012">
        <ele>44.599998474121</ele>
        <time>2019-05-16T07:47:43Z</time>
      </trkpt>
      <trkpt lat="52.38253" lon="4.90945">
        <ele>44.599998474121</ele>
        <time>2019-05-16T07:47:58Z</time>
      </trkpt>
      <trkpt lat="52.38209" lon="4.90876">
        <ele>44.400001525879</ele>
        <time>2019-05-16T07:48:42Z</time>
      </trkpt>
      <trkpt lat="52.38164" lon="4.90844">
        <ele>44.599998474121</ele>
        <time>2019-05-16T07:49:03Z</time>
      </trkpt>
      <trkpt lat="52.38148" lon="4.90839">
        <ele>43.799999237061</ele>
        <time>2019-05-16T07:49:17Z</time>
      </trkpt>
      <trkpt lat="52.38119" lon="4.90825">
        <ele>43.799999237061</ele>
        <time>2019-05-16T07:49:39Z</time>
      </trkpt>
      <trkpt lat="52.38085" lon="4.90744">
        <ele>43.400001525879</ele>
        <time>2019-05-16T07:50:22Z</time>
      </trkpt>
      <trkpt lat="52.38067" lon="4.90548">
        <ele>43.599998474121</ele>
        <time>2019-05-16T07:50:30Z</time>
      </trkpt>
      <trkpt lat="52.38069" lon="4.90334">
        <ele>43.599998474121</ele>
        <time>2019-05-16T07:50:56Z</time>
      </trkpt>
      <trkpt lat="52.3806" lon="4.90239">
        <ele>43.799999237061</ele>
        <time>2019-05-16T07:51:12Z</time>
      </trkpt>
      <trkpt lat="52.38014" lon="4.90188">
        <ele>44.400001525879</ele>
        <time>2019-05-16T07:52:14Z</time>
      </trkpt>
      <trkpt lat="52.37986" lon="4.90211">
        <ele>43.799999237061</ele>
        <time>2019-05-16T07:52:30Z</time>
      </trkpt>
      <trkpt lat="52.37959" lon="4.90256">
        <ele>43.799999237061</ele>
        <time>2019-05-16T07:52:55Z</time>
      </trkpt>
      <trkpt lat="52.37954" lon="4.90265">
        <ele>43.599998474121</ele>
        <time>2019-05-16T07:53:16Z</time>
      </trkpt>
      <trkpt lat="52.37943" lon="4.90251">
        <ele>44.400001525879</ele>
        <time>2019-05-16T07:53:35Z</time>
      </trkpt>
      <trkpt lat="52.37949" lon="4.90224">
        <ele>44.400001525879</ele>
        <time>2019-05-16T07:53:49Z</time>
      </trkpt>
      <trkpt lat="52.37986" lon="4.90112">
        <ele>44.200000762939</ele>
        <time>2019-05-16T07:54:11Z</time>
      </trkpt>
      <trkpt lat="52.38019" lon="4.90017">
        <ele>44.200000762939</ele>
        <time>2019-05-16T07:54:33Z</time>
      </trkpt>
      <trkpt lat="52.38061" lon="4.89908">
        <ele>44.400001525879</ele>
        <time>2019-05-16T07:54:53Z</time>
      </trkpt>
      <trkpt lat="52.38107" lon="4.89785">
        <ele>45.200000762939</ele>
        <time>2019-05-16T07:55:15Z</time>
      </trkpt>
      <trkpt lat="52.38144" lon="4.89686">
        <ele>47.200000762939</ele>
        <time>2019-05-16T07:55:21Z</time>
      </trkpt>
      <trkpt lat="52.38172" lon="4.89649">
        <ele>46.200000762939</ele>
        <time>2019-05-16T07:56:01Z</time>
      </trkpt>
      <trkpt lat="52.3816" lon="4.89668">
        <ele>45.599998474121</ele>
        <time>2019-05-16T07:56:21Z</time>
      </trkpt>
      <trkpt lat="52.3817" lon="4.89653">
        <ele>46.200000762939</ele>
        <time>2019-05-16T07:56:31Z</time>
      </trkpt>
      <trkpt lat="52.38211" lon="4.89585">
        <ele>45.200000762939</ele>
        <time>2019-05-16T07:57:46Z</time>
      </trkpt>
      <trkpt lat="52.38265" lon="4.89492">
        <ele>45.200000762939</ele>
        <time>2019-05-16T07:58:01Z</time>
      </trkpt>
      <trkpt lat="52.38293" lon="4.89417">
        <ele>45.400001525879</ele>
        <time>2019-05-16T07:58:23Z</time>
      </trkpt>
      <trkpt lat="52.38294" lon="4.89365">
        <ele>46</ele>
        <time>2019-05-16T07:59:02Z</time>
      </trkpt>
      <trkpt lat="52.38291" lon="4.89343">
        <ele>48</ele>
        <time>2019-05-16T08:02:13Z</time>
      </trkpt>
      <trkpt lat="52.38284" lon="4.89329">
        <ele>48</ele>
        <time>2019-05-16T08:02:27Z</time>
      </trkpt>
      <trkpt lat="52.38278" lon="4.89251">
        <ele>47.799999237061</ele>
        <time>2019-05-16T08:03:01Z</time>
      </trkpt>
      <trkpt lat="52.38273" lon="4.89111">
        <ele>45.799999237061</ele>
        <time>2019-05-16T08:03:10Z</time>
      </trkpt>
      <trkpt lat="52.38217" lon="4.89064">
        <ele>45.400001525879</ele>
        <time>2019-05-16T08:03:50Z</time>
      </trkpt>
      <trkpt lat="52.38219" lon="4.89031">
        <ele>45.599998474121</ele>
        <time>2019-05-16T08:06:12Z</time>
      </trkpt>
      <trkpt lat="52.38182" lon="4.8899">
        <ele>46.200000762939</ele>
        <time>2019-05-16T08:06:29Z</time>
      </trkpt>
      <trkpt lat="52.38138" lon="4.88944">
        <ele>47.599998474121</ele>
        <time>2019-05-16T08:06:51Z</time>
      </trkpt>
      <trkpt lat="52.38083" lon="4.88895">
        <ele>46</ele>
        <time>2019-05-16T08:07:38Z</time>
      </trkpt>
      <trkpt lat="52.38051" lon="4.88856">
        <ele>47.799999237061</ele>
        <time>2019-05-16T08:08:07Z</time>
      </trkpt>
      <trkpt lat="52.38037" lon="4.88842">
        <ele>47.799999237061</ele>
        <time>2019-05-16T08:13:18Z</time>
      </trkpt>
      <trkpt lat="52.37994" lon="4.88804">
        <ele>46.400001525879</ele>
        <time>2019-05-16T08:13:40Z</time>
      </trkpt>
      <trkpt lat="52.37946" lon="4.88774">
        <ele>45.599998474121</ele>
        <time>2019-05-16T08:14:11Z</time>
      </trkpt>
      <trkpt lat="52.37899" lon="4.88746">
        <ele>45.599998474121</ele>
        <time>2019-05-16T08:14:33Z</time>
      </trkpt>
      <trkpt lat="52.37864" lon="4.887">
        <ele>45.400001525879</ele>
        <time>2019-05-16T08:15:05Z</time>
      </trkpt>
      <trkpt lat="52.37832" lon="4.88672">
        <ele>45.599998474121</ele>
        <time>2019-05-16T08:15:34Z</time>
      </trkpt>
      <trkpt lat="52.37808" lon="4.88633">
        <ele>47.200000762939</ele>
        <time>2019-05-16T08:22:44Z</time>
      </trkpt>
      <trkpt lat="52.37794" lon="4.88613">
        <ele>47.400001525879</ele>
        <time>2019-05-16T08:23:10Z</time>
      </trkpt>
      <trkpt lat="52.37757" lon="4.8857">
        <ele>46</ele>
        <time>2019-05-16T08:23:52Z</time>
      </trkpt>
      <trkpt lat="52.37705" lon="4.88521">
        <ele>45.200000762939</ele>
        <time>2019-05-16T08:24:21Z</time>
      </trkpt>
      <trkpt lat="52.37633" lon="4.88435">
        <ele>47</ele>
        <time>2019-05-16T08:24:42Z</time>
      </trkpt>
      <trkpt lat="52.37592" lon="4.88396">
        <ele>46.799999237061</ele>
        <time>2019-05-16T08:25:25Z</time>
      </trkpt>
      <trkpt lat="52.37561" lon="4.88381">
        <ele>46.200000762939</ele>
        <time>2019-05-16T08:25:43Z</time>
      </trkpt>
      <trkpt lat="52.37529" lon="4.88346">
        <ele>46.400001525879</ele>
        <time>2019-05-16T08:26:05Z</time>
      </trkpt>
      <trkpt lat="52.37493" lon="4.88309">
        <ele>47</ele>
        <time>2019-05-16T08:26:55Z</time>
      </trkpt>
      <trkpt lat="52.3747" lon="4.88301">
        <ele>47</ele>
        <time>2019-05-16T08:27:05Z</time>
      </trkpt>
      <trkpt lat="52.37433" lon="4.88305">
        <ele>46</ele>
        <time>2019-05-16T08:29:46Z</time>
      </trkpt>
      <trkpt lat="52.37407" lon="4.88297">
        <ele>47</ele>
        <time>2019-05-16T08:30:02Z</time>
      </trkpt>
      <trkpt lat="52.37406" lon="4.88307">
        <ele>48</ele>
        <time>2019-05-16T08:30:37Z</time>
      </trkpt>
      <trkpt lat="52.37417" lon="4.88343">
        <ele>47.799999237061</ele>
        <time>2019-05-16T08:31:12Z</time>
      </trkpt>
      <trkpt lat="52.37424" lon="4.88368">
        <ele>47.200000762939</ele>
        <time>2019-05-16T08:31:51Z</time>
      </trkpt>
      <trkpt lat="52.37423" lon="4.88441">
        <ele>47.599998474121</ele>
        <time>2019-05-16T08:32:02Z</time>
      </trkpt>
      <trkpt lat="52.37467" lon="4.88445">
        <ele>46.799999237061</ele>
        <time>2019-05-16T08:32:22Z</time>
      </trkpt>
      <trkpt lat="52.37491" lon="4.88412">
        <ele>46.799999237061</ele>
        <time>2019-05-16T08:32:37Z</time>
      </trkpt>
      <trkpt lat="52.37514" lon="4.88376">
        <ele>46.400001525879</ele>
        <time>2019-05-16T08:32:54Z</time>
      </trkpt>
      <trkpt lat="52.37515" lon="4.88358">
        <ele>46.400001525879</ele>
        <time>2019-05-16T08:33:10Z</time>
      </trkpt>
      <trkpt lat="52.37503" lon="4.88348">
        <ele>48</ele>
        <time>2019-05-16T08:33:26Z</time>
      </trkpt>
      <trkpt lat="52.37452" lon="4.88332">
        <ele>48.599998474121</ele>
        <time>2019-05-16T08:34:00Z</time>
      </trkpt>
      <trkpt lat="52.3743" lon="4.88329">
        <ele>48.599998474121</ele>
        <time>2019-05-16T08:34:22Z</time>
      </trkpt>
      <trkpt lat="52.3742" lon="4.88339">
        <ele>49.200000762939</ele>
        <time>2019-05-16T08:34:40Z</time>
      </trkpt>
      <trkpt lat="52.3741" lon="4.88387">
        <ele>49.400001525879</ele>
        <time>2019-05-16T08:34:56Z</time>
      </trkpt>
      <trkpt lat="52.37395" lon="4.88469">
        <ele>49.200000762939</ele>
        <time>2019-05-16T08:35:20Z</time>
      </trkpt>
      <trkpt lat="52.37386" lon="4.88547">
        <ele>49.599998474121</ele>
        <time>2019-05-16T08:35:28Z</time>
      </trkpt>
      <trkpt lat="52.37363" lon="4.88602">
        <ele>49.200000762939</ele>
        <time>2019-05-16T08:35:33Z</time>
      </trkpt>
      <trkpt lat="52.3735" lon="4.88633">
        <ele>49.200000762939</ele>
        <time>2019-05-16T08:35:58Z</time>
      </trkpt>
      <trkpt lat="52.3733" lon="4.88729">
        <ele>49.400001525879</ele>
        <time>2019-05-16T08:36:53Z</time>
      </trkpt>
      <trkpt lat="52.37322" lon="4.88842">
        <ele>49.400001525879</ele>
        <time>2019-05-16T08:37:06Z</time>
      </trkpt>
      <trkpt lat="52.37313" lon="4.88903">
        <ele>50.200000762939</ele>
        <time>2019-05-16T08:37:18Z</time>
      </trkpt>
      <trkpt lat="52.37311" lon="4.88968">
        <ele>48.799999237061</ele>
        <time>2019-05-16T08:37:36Z</time>
      </trkpt>
      <trkpt lat="52.37315" lon="4.8899">
        <ele>49.200000762939</ele>
        <time>2019-05-16T08:37:48Z</time>
      </trkpt>
      <trkpt lat="52.37315" lon="4.89035">
        <ele>49.400001525879</ele>
        <time>2019-05-16T08:38:02Z</time>
      </trkpt>
      <trkpt lat="52.37312" lon="4.89043">
        <ele>49.599998474121</ele>
        <time>2019-05-16T08:38:16Z</time>
      </trkpt>
      <trkpt lat="52.37274" lon="4.89045">
        <ele>49.400001525879</ele>
        <time>2019-05-16T08:38:36Z</time>
      </trkpt>
      <trkpt lat="52.37262" lon="4.89052">
        <ele>49.599998474121</ele>
        <time>2019-05-16T08:38:52Z</time>
      </trkpt>
      <trkpt lat="52.37266" lon="4.89073">
        <ele>49.599998474121</ele>
        <time>2019-05-16T08:39:17Z</time>
      </trkpt>
      <trkpt lat="52.37272" lon="4.89076">
        <ele>49.200000762939</ele>
        <time>2019-05-16T08:42:02Z</time>
      </trkpt>
      <trkpt lat="52.37292" lon="4.89061">
        <ele>50.200000762939</ele>
        <time>2019-05-16T08:42:30Z</time>
      </trkpt>
      <trkpt lat="52.37332" lon="4.89098">
        <ele>50.200000762939</ele>
        <time>2019-05-16T08:42:58Z</time>
      </trkpt>
      <trkpt lat="52.37384" lon="4.89092">
        <ele>50</ele>
        <time>2019-05-16T08:43:21Z</time>
      </trkpt>
      <trkpt lat="52.37427" lon="4.89139">
        <ele>50</ele>
        <time>2019-05-16T08:43:48Z</time>
      </trkpt>
      <trkpt lat="52.37424" lon="4.89199">
        <ele>49.799999237061</ele>
        <time>2019-05-16T08:44:04Z</time>
      </trkpt>
      <trkpt lat="52.37407" lon="4.89245">
        <ele>50.200000762939</ele>
        <time>2019-05-16T08:44:20Z</time>
      </trkpt>
      <trkpt lat="52.37393" lon="4.89235">
        <ele>50.200000762939</ele>
        <time>2019-05-16T08:44:43Z</time>
      </trkpt>
      <trkpt lat="52.3737" lon="4.89224">
        <ele>50.599998474121</ele>
        <time>2019-05-16T08:45:05Z</time>
      </trkpt>
      <trkpt lat="52.37353" lon="4.89242">
        <ele>50.799999237061</ele>
        <time>2019-05-16T08:45:37Z</time>
      </trkpt>
      <trkpt lat="52.37348" lon="4.89242">
        <ele>51.200000762939</ele>
        <time>2019-05-16T08:46:38Z</time>
      </trkpt>
      <trkpt lat="52.37328" lon="4.89284">
        <ele>50.400001525879</ele>
        <time>2019-05-16T08:47:07Z</time>
      </trkpt>
      <trkpt lat="52.37311" lon="4.89285">
        <ele>50.599998474121</ele>
        <time>2019-05-16T08:47:36Z</time>
      </trkpt>
      <trkpt lat="52.37176" lon="4.89283">
        <ele>49.599998474121</ele>
        <time>2019-05-16T08:47:50Z</time>
      </trkpt>
      <trkpt lat="52.37105" lon="4.89287">
        <ele>49.599998474121</ele>
        <time>2019-05-16T08:48:17Z</time>
      </trkpt>
      <trkpt lat="52.36931" lon="4.89204">
        <ele>49.599998474121</ele>
        <time>2019-05-16T08:48:45Z</time>
      </trkpt>
      <trkpt lat="52.36927" lon="4.89202">
        <ele>50.200000762939</ele>
        <time>2019-05-16T08:50:39Z</time>
      </trkpt>
      <trkpt lat="52.36878" lon="4.89228">
        <ele>49.799999237061</ele>
        <time>2019-05-16T08:51:01Z</time>
      </trkpt>
      <trkpt lat="52.36833" lon="4.89272">
        <ele>50</ele>
        <time>2019-05-16T08:51:09Z</time>
      </trkpt>
      <trkpt lat="52.36764" lon="4.89345">
        <ele>49.799999237061</ele>
        <time>2019-05-16T08:51:36Z</time>
      </trkpt>
      <trkpt lat="52.36707" lon="4.89331">
        <ele>52</ele>
        <time>2019-05-16T08:51:59Z</time>
      </trkpt>
      <trkpt lat="52.36686" lon="4.89317">
        <ele>51.799999237061</ele>
        <time>2019-05-16T08:52:06Z</time>
      </trkpt>
      <trkpt lat="52.36684" lon="4.8931">
        <ele>50.799999237061</ele>
        <time>2019-05-16T08:52:17Z</time>
      </trkpt>
      <trkpt lat="52.3669" lon="4.89276">
        <ele>50.200000762939</ele>
        <time>2019-05-16T08:52:30Z</time>
      </trkpt>
      <trkpt lat="52.3668" lon="4.89233">
        <ele>50.200000762939</ele>
        <time>2019-05-16T08:52:43Z</time>
      </trkpt>
      <trkpt lat="52.36683" lon="4.8921">
        <ele>49.799999237061</ele>
        <time>2019-05-16T08:53:05Z</time>
      </trkpt>
      <trkpt lat="52.36675" lon="4.8919">
        <ele>50</ele>
        <time>2019-05-16T08:53:10Z</time>
      </trkpt>
      <trkpt lat="52.36692" lon="4.89149">
        <ele>50</ele>
        <time>2019-05-16T08:53:21Z</time>
      </trkpt>
      <trkpt lat="52.36694" lon="4.89105">
        <ele>50.400001525879</ele>
        <time>2019-05-16T08:53:38Z</time>
      </trkpt>
      <trkpt lat="52.36698" lon="4.89076">
        <ele>50.200000762939</ele>
        <time>2019-05-16T08:53:59Z</time>
      </trkpt>
      <trkpt lat="52.36704" lon="4.89054">
        <ele>50.400001525879</ele>
        <time>2019-05-16T08:54:07Z</time>
      </trkpt>
      <trkpt lat="52.36695" lon="4.89055">
        <ele>50.200000762939</ele>
        <time>2019-05-16T08:54:20Z</time>
      </trkpt>
      <trkpt lat="52.36672" lon="4.89049">
        <ele>50.799999237061</ele>
        <time>2019-05-16T08:54:31Z</time>
      </trkpt>
      <trkpt lat="52.36646" lon="4.89071">
        <ele>51</ele>
        <time>2019-05-16T08:54:49Z</time>
      </trkpt>
      <trkpt lat="52.36637" lon="4.89113">
        <ele>50.799999237061</ele>
        <time>2019-05-16T08:55:01Z</time>
      </trkpt>
      <trkpt lat="52.36632" lon="4.89135">
        <ele>50.799999237061</ele>
        <time>2019-05-16T08:55:18Z</time>
      </trkpt>
      <trkpt lat="52.36629" lon="4.89163">
        <ele>51.200000762939</ele>
        <time>2019-05-16T08:55:35Z</time>
      </trkpt>
      <trkpt lat="52.36622" lon="4.89201">
        <ele>51.200000762939</ele>
        <time>2019-05-16T08:55:52Z</time>
      </trkpt>
      <trkpt lat="52.36605" lon="4.89235">
        <ele>51.599998474121</ele>
        <time>2019-05-16T08:56:05Z</time>
      </trkpt>
      <trkpt lat="52.36617" lon="4.89285">
        <ele>52</ele>
        <time>2019-05-16T08:56:24Z</time>
      </trkpt>
      <trkpt lat="52.36613" lon="4.89323">
        <ele>51.200000762939</ele>
        <time>2019-05-16T08:56:40Z</time>
      </trkpt>
      <trkpt lat="52.36637" lon="4.89338">
        <ele>51.599998474121</ele>
        <time>2019-05-16T08:56:58Z</time>
      </trkpt>
      <trkpt lat="52.36661" lon="4.89323">
        <ele>52.200000762939</ele>
        <time>2019-05-16T08:57:22Z</time>
      </trkpt>
      <trkpt lat="52.36691" lon="4.89339">
        <ele>52.200000762939</ele>
        <time>2019-05-16T08:57:43Z</time>
      </trkpt>
      <trkpt lat="52.36717" lon="4.89368">
        <ele>53.200000762939</ele>
        <time>2019-05-16T08:58:03Z</time>
      </trkpt>
      <trkpt lat="52.36715" lon="4.89398">
        <ele>53.200000762939</ele>
        <time>2019-05-16T08:58:26Z</time>
      </trkpt>
      <trkpt lat="52.36704" lon="4.89517">
        <ele>51.799999237061</ele>
        <time>2019-05-16T08:58:47Z</time>
      </trkpt>
      <trkpt lat="52.36704" lon="4.89591">
        <ele>51.599998474121</ele>
        <time>2019-05-16T08:59:09Z</time>
      </trkpt>
      <trkpt lat="52.36711" lon="4.89711">
        <ele>51.400001525879</ele>
        <time>2019-05-16T08:59:23Z</time>
      </trkpt>
      <trkpt lat="52.36701" lon="4.89824">
        <ele>51.599998474121</ele>
        <time>2019-05-16T08:59:33Z</time>
      </trkpt>
      <trkpt lat="52.36689" lon="4.89917">
        <ele>51.400001525879</ele>
        <time>2019-05-16T08:59:46Z</time>
      </trkpt>
      <trkpt lat="52.36649" lon="4.90006">
        <ele>51.400001525879</ele>
        <time>2019-05-16T09:00:04Z</time>
      </trkpt>
      <trkpt lat="52.36629" lon="4.90021">
        <ele>51.599998474121</ele>
        <time>2019-05-16T09:00:22Z</time>
      </trkpt>
      <trkpt lat="52.36627" lon="4.90025">
        <ele>52.400001525879</ele>
        <time>2019-05-16T09:00:39Z</time>
      </trkpt>
      <trkpt lat="52.36623" lon="4.90041">
        <ele>52.400001525879</ele>
        <time>2019-05-16T09:00:52Z</time>
      </trkpt>
      <trkpt lat="52.3664" lon="4.90128">
        <ele>53.799999237061</ele>
        <time>2019-05-16T09:01:04Z</time>
      </trkpt>
      <trkpt lat="52.36645" lon="4.90161">
        <ele>53.799999237061</ele>
        <time>2019-05-16T09:01:36Z</time>
      </trkpt>
      <trkpt lat="52.36641" lon="4.9015">
        <ele>53.200000762939</ele>
        <time>2019-05-16T09:02:29Z</time>
      </trkpt>
      <trkpt lat="52.36644" lon="4.90154">
        <ele>53.400001525879</ele>
        <time>2019-05-16T09:02:41Z</time>
      </trkpt>
      <trkpt lat="52.3667" lon="4.90185">
        <ele>53.599998474121</ele>
        <time>2019-05-16T09:03:02Z</time>
      </trkpt>
      <trkpt lat="52.36723" lon="4.90258">
        <ele>52.599998474121</ele>
        <time>2019-05-16T09:03:16Z</time>
      </trkpt>
      <trkpt lat="52.36777" lon="4.90314">
        <ele>52.400001525879</ele>
        <time>2019-05-16T09:03:25Z</time>
      </trkpt>
      <trkpt lat="52.36786" lon="4.90342">
        <ele>52.200000762939</ele>
        <time>2019-05-16T09:03:42Z</time>
      </trkpt>
      <trkpt lat="52.36775" lon="4.9036">
        <ele>52.200000762939</ele>
        <time>2019-05-16T09:04:05Z</time>
      </trkpt>
      <trkpt lat="52.36756" lon="4.90395">
        <ele>52</ele>
        <time>2019-05-16T09:04:29Z</time>
      </trkpt>
      <trkpt lat="52.36802" lon="4.90341">
        <ele>52.200000762939</ele>
        <time>2019-05-16T09:04:49Z</time>
      </trkpt>
      <trkpt lat="52.36811" lon="4.90321">
        <ele>52.200000762939</ele>
        <time>2019-05-16T09:05:17Z</time>
      </trkpt>
      <trkpt lat="52.36815" lon="4.90307">
        <ele>52.400001525879</ele>
        <time>2019-05-16T09:05:39Z</time>
      </trkpt>
      <trkpt lat="52.36848" lon="4.90245">
        <ele>51.799999237061</ele>
        <time>2019-05-16T09:06:02Z</time>
      </trkpt>
      <trkpt lat="52.36874" lon="4.90177">
        <ele>52</ele>
        <time>2019-05-16T09:06:13Z</time>
      </trkpt>
      <trkpt lat="52.36897" lon="4.90112">
        <ele>52</ele>
        <time>2019-05-16T09:06:28Z</time>
      </trkpt>
      <trkpt lat="52.36904" lon="4.90079">
        <ele>52.200000762939</ele>
        <time>2019-05-16T09:06:49Z</time>
      </trkpt>
      <trkpt lat="52.36943" lon="4.90092">
        <ele>53.400001525879</ele>
        <time>2019-05-16T09:07:02Z</time>
      </trkpt>
      <trkpt lat="52.36976" lon="4.90129">
        <ele>55.799999237061</ele>
        <time>2019-05-16T09:07:10Z</time>
      </trkpt>
      <trkpt lat="52.36974" lon="4.90107">
        <ele>55.599998474121</ele>
        <time>2019-05-16T09:07:32Z</time>
      </trkpt>
      <trkpt lat="52.37049" lon="4.90055">
        <ele>54.400001525879</ele>
        <time>2019-05-16T09:07:48Z</time>
      </trkpt>
      <trkpt lat="52.37053" lon="4.9004">
        <ele>54.200000762939</ele>
        <time>2019-05-16T09:08:12Z</time>
      </trkpt>
      <trkpt lat="52.37024" lon="4.9002">
        <ele>54.200000762939</ele>
        <time>2019-05-16T09:08:34Z</time>
      </trkpt>
      <trkpt lat="52.37024" lon="4.90031">
        <ele>54.400001525879</ele>
        <time>2019-05-16T09:08:48Z</time>
      </trkpt>
      <trkpt lat="52.37012" lon="4.90067">
        <ele>54.400001525879</ele>
        <time>2019-05-16T09:09:18Z</time>
      </trkpt>
      <trkpt lat="52.37032" lon="4.90071">
        <ele>54.400001525879</ele>
        <time>2019-05-16T09:09:44Z</time>
      </trkpt>
      <trkpt lat="52.37058" lon="4.90074">
        <ele>54.599998474121</ele>
        <time>2019-05-16T09:09:56Z</time>
      </trkpt>
      <trkpt lat="52.37184" lon="4.90058">
        <ele>55</ele>
        <time>2019-05-16T09:10:03Z</time>
      </trkpt>
      <trkpt lat="52.37224" lon="4.90071">
        <ele>54.400001525879</ele>
        <time>2019-05-16T09:10:32Z</time>
      </trkpt>
      <trkpt lat="52.37236" lon="4.90067">
        <ele>54.599998474121</ele>
        <time>2019-05-16T09:10:55Z</time>
      </trkpt>
      <trkpt lat="52.3725" lon="4.90036">
        <ele>54.599998474121</ele>
        <time>2019-05-16T09:11:20Z</time>
      </trkpt>
      <trkpt lat="52.37273" lon="4.90072">
        <ele>55.200000762939</ele>
        <time>2019-05-16T09:11:45Z</time>
      </trkpt>
      <trkpt lat="52.3729" lon="4.9008">
        <ele>54.400001525879</ele>
        <time>2019-05-16T09:12:11Z</time>
      </trkpt>
      <trkpt lat="52.37289" lon="4.90098">
        <ele>54.799999237061</ele>
        <time>2019-05-16T09:12:36Z</time>
      </trkpt>
      <trkpt lat="52.37334" lon="4.90123">
        <ele>55.200000762939</ele>
        <time>2019-05-16T09:12:53Z</time>
      </trkpt>
      <trkpt lat="52.37409" lon="4.90153">
        <ele>55</ele>
        <time>2019-05-16T09:13:15Z</time>
      </trkpt>
      <trkpt lat="52.37465" lon="4.90177">
        <ele>54.200000762939</ele>
        <time>2019-05-16T09:13:35Z</time>
      </trkpt>
      <trkpt lat="52.37429" lon="4.90158">
        <ele>54.200000762939</ele>
        <time>2019-05-16T09:13:45Z</time>
      </trkpt>
      <trkpt lat="52.37428" lon="4.90157">
        <ele>54.599998474121</ele>
        <time>2019-05-16T09:14:04Z</time>
      </trkpt>
      <trkpt lat="52.37471" lon="4.90178">
        <ele>54.599998474121</ele>
        <time>2019-05-16T09:14:30Z</time>
      </trkpt>
      <trkpt lat="52.37623" lon="4.90256">
        <ele>55</ele>
        <time>2019-05-16T09:14:48Z</time>
      </trkpt>
      <trkpt lat="52.37648" lon="4.90241">
        <ele>54.200000762939</ele>
        <time>2019-05-16T09:14:58Z</time>
      </trkpt>
      <trkpt lat="52.37669" lon="4.90219">
        <ele>55.799999237061</ele>
        <time>2019-05-16T09:15:05Z</time>
      </trkpt>
      <trkpt lat="52.37684" lon="4.90189">
        <ele>56.200000762939</ele>
        <time>2019-05-16T09:15:14Z</time>
      </trkpt>
      <trkpt lat="52.37701" lon="4.90187">
        <ele>55.799999237061</ele>
        <time>2019-05-16T09:15:36Z</time>
      </trkpt>
      <trkpt lat="52.37703" lon="4.90154">
        <ele>56.400001525879</ele>
        <time>2019-05-16T09:15:52Z</time>
      </trkpt>
      <trkpt lat="52.37693" lon="4.9007">
        <ele>54.599998474121</ele>
        <time>2019-05-16T09:16:18Z</time>
      </trkpt>
      <trkpt lat="52.37688" lon="4.90032">
        <ele>54.599998474121</ele>
        <time>2019-05-16T09:16:38Z</time>
      </trkpt>
      <trkpt lat="52.37683" lon="4.89977">
        <ele>54.799999237061</ele>
        <time>2019-05-16T09:17:05Z</time>
      </trkpt>
      <trkpt lat="52.37681" lon="4.89927">
        <ele>56</ele>
        <time>2019-05-16T09:17:23Z</time>
      </trkpt>
      <trkpt lat="52.3768" lon="4.8991">
        <ele>56</ele>
        <time>2019-05-16T09:17:42Z</time>
      </trkpt>
      <trkpt lat="52.37668" lon="4.89906">
        <ele>56.200000762939</ele>
        <time>2019-05-16T09:18:11Z</time>
      </trkpt>
      <trkpt lat="52.37664" lon="4.89892">
        <ele>55.799999237061</ele>
        <time>2019-05-16T09:18:37Z</time>
      </trkpt>
      <trkpt lat="52.37682" lon="4.89861">
        <ele>56</ele>
        <time>2019-05-16T09:19:00Z</time>
      </trkpt>
      <trkpt lat="52.37685" lon="4.8983">
        <ele>55.400001525879</ele>
        <time>2019-05-16T09:19:31Z</time>
      </trkpt>
      <trkpt lat="52.37649" lon="4.89777">
        <ele>53.599998474121</ele>
        <time>2019-05-16T09:19:59Z</time>
      </trkpt>
      <trkpt lat="52.37577" lon="4.89675">
        <ele>53.599998474121</ele>
        <time>2019-05-16T09:20:15Z</time>
      </trkpt>
      <trkpt lat="52.37577" lon="4.89649">
        <ele>55</ele>
        <time>2019-05-16T09:20:24Z</time>
      </trkpt>
      <trkpt lat="52.3758" lon="4.89634">
        <ele>54.400001525879</ele>
        <time>2019-05-16T09:20:37Z</time>
      </trkpt>
      <trkpt lat="52.3759" lon="4.89594">
        <ele>55</ele>
        <time>2019-05-16T09:20:49Z</time>
      </trkpt>
      <trkpt lat="52.37593" lon="4.89557">
        <ele>55</ele>
        <time>2019-05-16T09:21:10Z</time>
      </trkpt>
      <trkpt lat="52.37583" lon="4.89525">
        <ele>54.799999237061</ele>
        <time>2019-05-16T09:21:19Z</time>
      </trkpt>
      <trkpt lat="52.37524" lon="4.89448">
        <ele>55.799999237061</ele>
        <time>2019-05-16T09:21:32Z</time>
      </trkpt>
      <trkpt lat="52.37489" lon="4.89416">
        <ele>56</ele>
        <time>2019-05-16T09:21:40Z</time>
      </trkpt>
      <trkpt lat="52.37465" lon="4.8939">
        <ele>55.799999237061</ele>
        <time>2019-05-16T09:21:50Z</time>
      </trkpt>
      <trkpt lat="52.37436" lon="4.89383">
        <ele>56</ele>
        <time>2019-05-16T09:22:06Z</time>
      </trkpt>
      <trkpt lat="52.37427" lon="4.89351">
        <ele>55.799999237061</ele>
        <time>2019-05-16T09:22:30Z</time>
      </trkpt>
      <trkpt lat="52.374" lon="4.89303">
        <ele>55.799999237061</ele>
        <time>2019-05-16T09:22:54Z</time>
      </trkpt>
      <trkpt lat="52.37376" lon="4.89281">
        <ele>56</ele>
        <time>2019-05-16T09:23:15Z</time>
      </trkpt>
      <trkpt lat="52.3735" lon="4.89258">
        <ele>56</ele>
        <time>2019-05-16T09:23:26Z</time>
      </trkpt>
      <trkpt lat="52.37332" lon="4.89299">
        <ele>55.599998474121</ele>
        <time>2019-05-16T09:23:39Z</time>
      </trkpt>
      <trkpt lat="52.37333" lon="4.89308">
        <ele>55.799999237061</ele>
        <time>2019-05-16T09:23:58Z</time>
      </trkpt>
      <trkpt lat="52.37341" lon="4.89333">
        <ele>55.200000762939</ele>
        <time>2019-05-16T09:24:17Z</time>
      </trkpt>
      <trkpt lat="52.37319" lon="4.89339">
        <ele>56</ele>
        <time>2019-05-16T09:24:42Z</time>
      </trkpt>
      <trkpt lat="52.37307" lon="4.89374">
        <ele>56</ele>
        <time>2019-05-16T09:25:14Z</time>
      </trkpt>
      <trkpt lat="52.37294" lon="4.894">
        <ele>56.200000762939</ele>
        <time>2019-05-16T09:25:41Z</time>
      </trkpt>
      <trkpt lat="52.37272" lon="4.89392">
        <ele>56</ele>
        <time>2019-05-16T09:26:08Z</time>
      </trkpt>
      <trkpt lat="52.37242" lon="4.89417">
        <ele>56</ele>
        <time>2019-05-16T09:26:37Z</time>
      </trkpt>
      <trkpt lat="52.37236" lon="4.89438">
        <ele>56.200000762939</ele>
        <time>2019-05-16T09:27:06Z</time>
      </trkpt>
      <trkpt lat="52.37231" lon="4.89473">
        <ele>56.200000762939</ele>
        <time>2019-05-16T09:27:32Z</time>
      </trkpt>
      <trkpt lat="52.37225" lon="4.89494">
        <ele>56</ele>
        <time>2019-05-16T09:28:00Z</time>
      </trkpt>
      <trkpt lat="52.37222" lon="4.89512">
        <ele>56.200000762939</ele>
        <time>2019-05-16T09:28:33Z</time>
      </trkpt>
      <trkpt lat="52.37211" lon="4.89554">
        <ele>56.200000762939</ele>
        <time>2019-05-16T09:29:02Z</time>
      </trkpt>
      <trkpt lat="52.37204" lon="4.89586">
        <ele>56.799999237061</ele>
        <time>2019-05-16T09:30:05Z</time>
      </trkpt>
      <trkpt lat="52.37223" lon="4.89642">
        <ele>55.599998474121</ele>
        <time>2019-05-16T09:30:25Z</time>
      </trkpt>
      <trkpt lat="52.37234" lon="4.89662">
        <ele>55.799999237061</ele>
        <time>2019-05-16T09:30:52Z</time>
      </trkpt>
      <trkpt lat="52.37243" lon="4.89675">
        <ele>55.200000762939</ele>
        <time>2019-05-16T09:31:00Z</time>
      </trkpt>
      <trkpt lat="52.37262" lon="4.8969">
        <ele>56.799999237061</ele>
        <time>2019-05-16T09:31:18Z</time>
      </trkpt>
      <trkpt lat="52.37285" lon="4.89704">
        <ele>56.200000762939</ele>
        <time>2019-05-16T09:31:30Z</time>
      </trkpt>
      <trkpt lat="52.37309" lon="4.89734">
        <ele>56.200000762939</ele>
        <time>2019-05-16T09:31:38Z</time>
      </trkpt>
      <trkpt lat="52.37331" lon="4.89764">
        <ele>55.799999237061</ele>
        <time>2019-05-16T09:32:03Z</time>
      </trkpt>
      <trkpt lat="52.37352" lon="4.89789">
        <ele>55.799999237061</ele>
        <time>2019-05-16T09:32:30Z</time>
      </trkpt>
      <trkpt lat="52.37358" lon="4.89797">
        <ele>55.599998474121</ele>
        <time>2019-05-16T09:32:52Z</time>
      </trkpt>
      <trkpt lat="52.37382" lon="4.89838">
        <ele>56.200000762939</ele>
        <time>2019-05-16T09:33:13Z</time>
      </trkpt>
      <trkpt lat="52.37393" lon="4.89831">
        <ele>56.599998474121</ele>
        <time>2019-05-16T09:33:41Z</time>
      </trkpt>
      <trkpt lat="52.37405" lon="4.89769">
        <ele>56.599998474121</ele>
        <time>2019-05-16T09:34:09Z</time>
      </trkpt>
      <trkpt lat="52.37411" lon="4.89755">
        <ele>57</ele>
        <time>2019-05-16T09:34:36Z</time>
      </trkpt>
      <trkpt lat="52.37427" lon="4.89742">
        <ele>56.799999237061</ele>
        <time>2019-05-16T09:35:02Z</time>
      </trkpt>
      <trkpt lat="52.37432" lon="4.89719">
        <ele>57.400001525879</ele>
        <time>2019-05-16T09:35:52Z</time>
      </trkpt>
      <trkpt lat="52.37443" lon="4.89705">
        <ele>57.400001525879</ele>
        <time>2019-05-16T09:36:13Z</time>
      </trkpt>
      <trkpt lat="52.37469" lon="4.89725">
        <ele>57.599998474121</ele>
        <time>2019-05-16T09:36:40Z</time>
      </trkpt>
      <trkpt lat="52.37498" lon="4.89753">
        <ele>57.400001525879</ele>
        <time>2019-05-16T09:36:50Z</time>
      </trkpt>
      <trkpt lat="52.37525" lon="4.89779">
        <ele>57.799999237061</ele>
        <time>2019-05-16T09:36:55Z</time>
      </trkpt>
      <trkpt lat="52.37536" lon="4.89763">
        <ele>58</ele>
        <time>2019-05-16T09:37:03Z</time>
      </trkpt>
      <trkpt lat="52.37548" lon="4.89723">
        <ele>57.599998474121</ele>
        <time>2019-05-16T09:37:10Z</time>
      </trkpt>
      <trkpt lat="52.37567" lon="4.89678">
        <ele>57.400001525879</ele>
        <time>2019-05-16T09:37:20Z</time>
      </trkpt>
      <trkpt lat="52.37566" lon="4.89642">
        <ele>57.400001525879</ele>
        <time>2019-05-16T09:37:34Z</time>
      </trkpt>
      <trkpt lat="52.37523" lon="4.89589">
        <ele>57.200000762939</ele>
        <time>2019-05-16T09:37:49Z</time>
      </trkpt>
      <trkpt lat="52.37456" lon="4.89504">
        <ele>57</ele>
        <time>2019-05-16T09:37:56Z</time>
      </trkpt>
      <trkpt lat="52.37415" lon="4.89458">
        <ele>57</ele>
        <time>2019-05-16T09:38:08Z</time>
      </trkpt>
      <trkpt lat="52.37347" lon="4.89379">
        <ele>57.400001525879</ele>
        <time>2019-05-16T09:38:33Z</time>
      </trkpt>
      <trkpt lat="52.3731" lon="4.8932">
        <ele>57.400001525879</ele>
        <time>2019-05-16T09:38:41Z</time>
      </trkpt>
      <trkpt lat="52.3728" lon="4.89298">
        <ele>57.200000762939</ele>
        <time>2019-05-16T09:38:52Z</time>
      </trkpt>
      <trkpt lat="52.3719" lon="4.89281">
        <ele>57.200000762939</ele>
        <time>2019-05-16T09:39:13Z</time>
      </trkpt>
      <trkpt lat="52.3713" lon="4.89291">
        <ele>56.200000762939</ele>
        <time>2019-05-16T09:39:27Z</time>
      </trkpt>
      <trkpt lat="52.37038" lon="4.89276">
        <ele>56.599998474121</ele>
        <time>2019-05-16T09:39:39Z</time>
      </trkpt>
      <trkpt lat="52.36966" lon="4.89229">
        <ele>56.799999237061</ele>
        <time>2019-05-16T09:40:03Z</time>
      </trkpt>
      <trkpt lat="52.369" lon="4.892">
        <ele>56.799999237061</ele>
        <time>2019-05-16T09:40:17Z</time>
      </trkpt>
      <trkpt lat="52.36832" lon="4.89242">
        <ele>56</ele>
        <time>2019-05-16T09:40:31Z</time>
      </trkpt>
      <trkpt lat="52.36786" lon="4.89287">
        <ele>56.400001525879</ele>
        <time>2019-05-16T09:40:40Z</time>
      </trkpt>
      <trkpt lat="52.36738" lon="4.89327">
        <ele>56.599998474121</ele>
        <time>2019-05-16T09:40:57Z</time>
      </trkpt>
      <trkpt lat="52.36694" lon="4.89339">
        <ele>58.200000762939</ele>
        <time>2019-05-16T09:41:16Z</time>
      </trkpt>
      <trkpt lat="52.36646" lon="4.89318">
        <ele>58.200000762939</ele>
        <time>2019-05-16T09:41:28Z</time>
      </trkpt>
      <trkpt lat="52.36626" lon="4.89317">
        <ele>57.200000762939</ele>
        <time>2019-05-16T09:41:54Z</time>
      </trkpt>
      <trkpt lat="52.36556" lon="4.89305">
        <ele>57.200000762939</ele>
        <time>2019-05-16T09:42:12Z</time>
      </trkpt>
      <trkpt lat="52.36514" lon="4.89286">
        <ele>58</ele>
        <time>2019-05-16T09:42:31Z</time>
      </trkpt>
      <trkpt lat="52.36442" lon="4.89256">
        <ele>57.400001525879</ele>
        <time>2019-05-16T09:42:51Z</time>
      </trkpt>
      <trkpt lat="52.36396" lon="4.89236">
        <ele>58</ele>
        <time>2019-05-16T09:43:16Z</time>
      </trkpt>
      <trkpt lat="52.36389" lon="4.89234">
        <ele>58.799999237061</ele>
        <time>2019-05-16T09:43:27Z</time>
      </trkpt>
      <trkpt lat="52.3631" lon="4.89207">
        <ele>58.400001525879</ele>
        <time>2019-05-16T09:43:51Z</time>
      </trkpt>
      <trkpt lat="52.36241" lon="4.89191">
        <ele>58.200000762939</ele>
        <time>2019-05-16T09:44:01Z</time>
      </trkpt>
      <trkpt lat="52.36178" lon="4.89163">
        <ele>59.400001525879</ele>
        <time>2019-05-16T09:44:12Z</time>
      </trkpt>
      <trkpt lat="52.36102" lon="4.89134">
        <ele>58</ele>
        <time>2019-05-16T09:44:33Z</time>
      </trkpt>
      <trkpt lat="52.36017" lon="4.89098">
        <ele>58</ele>
        <time>2019-05-16T09:44:54Z</time>
      </trkpt>
      <trkpt lat="52.35975" lon="4.89086">
        <ele>58.200000762939</ele>
        <time>2019-05-16T09:45:10Z</time>
      </trkpt>
      <trkpt lat="52.35964" lon="4.89066">
        <ele>57.599998474121</ele>
        <time>2019-05-16T09:45:17Z</time>
      </trkpt>
      <trkpt lat="52.35921" lon="4.89029">
        <ele>57.400001525879</ele>
        <time>2019-05-16T09:45:38Z</time>
      </trkpt>
      <trkpt lat="52.35877" lon="4.89066">
        <ele>57.799999237061</ele>
        <time>2019-05-16T09:45:56Z</time>
      </trkpt>
      <trkpt lat="52.35836" lon="4.89065">
        <ele>59.200000762939</ele>
        <time>2019-05-16T09:46:18Z</time>
      </trkpt>
      <trkpt lat="52.35824" lon="4.89065">
        <ele>58.200000762939</ele>
        <time>2019-05-16T09:46:40Z</time>
      </trkpt>
      <trkpt lat="52.35799" lon="4.89078">
        <ele>58.200000762939</ele>
        <time>2019-05-16T09:47:08Z</time>
      </trkpt>
      <trkpt lat="52.35766" lon="4.89073">
        <ele>57.400001525879</ele>
        <time>2019-05-16T09:47:32Z</time>
      </trkpt>
      <trkpt lat="52.35674" lon="4.89073">
        <ele>56.799999237061</ele>
        <time>2019-05-16T09:47:56Z</time>
      </trkpt>
      <trkpt lat="52.35673" lon="4.89062">
        <ele>57.200000762939</ele>
        <time>2019-05-16T09:48:21Z</time>
      </trkpt>
      <trkpt lat="52.35673" lon="4.89095">
        <ele>57.200000762939</ele>
        <time>2019-05-16T09:48:43Z</time>
      </trkpt>
      <trkpt lat="52.35671" lon="4.89112">
        <ele>57</ele>
        <time>2019-05-16T09:49:05Z</time>
      </trkpt>
      <trkpt lat="52.35675" lon="4.89149">
        <ele>57</ele>
        <time>2019-05-16T09:49:25Z</time>
      </trkpt>
      <trkpt lat="52.35711" lon="4.89148">
        <ele>57.400001525879</ele>
        <time>2019-05-16T09:49:35Z</time>
      </trkpt>
      <trkpt lat="52.35726" lon="4.89109">
        <ele>57.200000762939</ele>
        <time>2019-05-16T09:49:40Z</time>
      </trkpt>
      <trkpt lat="52.35725" lon="4.89088">
        <ele>57.200000762939</ele>
        <time>2019-05-16T09:49:57Z</time>
      </trkpt>
      <trkpt lat="52.35741" lon="4.89084">
        <ele>57.200000762939</ele>
        <time>2019-05-16T09:50:12Z</time>
      </trkpt>
      <trkpt lat="52.35781" lon="4.89082">
        <ele>57.400001525879</ele>
        <time>2019-05-16T09:50:36Z</time>
      </trkpt>
      <trkpt lat="52.35791" lon="4.89101">
        <ele>57.400001525879</ele>
        <time>2019-05-16T09:50:51Z</time>
      </trkpt>
      <trkpt lat="52.3579" lon="4.89163">
        <ele>57.200000762939</ele>
        <time>2019-05-16T09:52:04Z</time>
      </trkpt>
      <trkpt lat="52.35784" lon="4.89196">
        <ele>57.200000762939</ele>
        <time>2019-05-16T09:52:13Z</time>
      </trkpt>
      <trkpt lat="52.35769" lon="4.89253">
        <ele>57</ele>
        <time>2019-05-16T09:52:23Z</time>
      </trkpt>
      <trkpt lat="52.35788" lon="4.89269">
        <ele>57</ele>
        <time>2019-05-16T09:52:30Z</time>
      </trkpt>
      <trkpt lat="52.3578" lon="4.89277">
        <ele>56.200000762939</ele>
        <time>2019-05-16T09:52:49Z</time>
      </trkpt>
      <trkpt lat="52.35653" lon="4.89263">
        <ele>57</ele>
        <time>2019-05-16T09:53:08Z</time>
      </trkpt>
      <trkpt lat="52.35614" lon="4.89256">
        <ele>57</ele>
        <time>2019-05-16T09:53:30Z</time>
      </trkpt>
      <trkpt lat="52.35609" lon="4.89268">
        <ele>57.200000762939</ele>
        <time>2019-05-16T09:53:41Z</time>
      </trkpt>
      <trkpt lat="52.35543" lon="4.89316">
        <ele>57.200000762939</ele>
        <time>2019-05-16T09:54:00Z</time>
      </trkpt>
      <trkpt lat="52.35527" lon="4.89323">
        <ele>57</ele>
        <time>2019-05-16T09:54:14Z</time>
      </trkpt>
      <trkpt lat="52.35485" lon="4.89341">
        <ele>57</ele>
        <time>2019-05-16T09:54:21Z</time>
      </trkpt>
      <trkpt lat="52.35453" lon="4.89367">
        <ele>57.400001525879</ele>
        <time>2019-05-16T09:54:28Z</time>
      </trkpt>
      <trkpt lat="52.35464" lon="4.8936">
        <ele>57</ele>
        <time>2019-05-16T09:54:38Z</time>
      </trkpt>
      <trkpt lat="52.35476" lon="4.89348">
        <ele>57.200000762939</ele>
        <time>2019-05-16T09:54:48Z</time>
      </trkpt>
      <trkpt lat="52.35497" lon="4.8933">
        <ele>57.200000762939</ele>
        <time>2019-05-16T09:54:53Z</time>
      </trkpt>
      <trkpt lat="52.35516" lon="4.89317">
        <ele>57.599998474121</ele>
        <time>2019-05-16T09:55:08Z</time>
      </trkpt>
      <trkpt lat="52.35489" lon="4.89331">
        <ele>57.400001525879</ele>
        <time>2019-05-16T09:55:30Z</time>
      </trkpt>
      <trkpt lat="52.35455" lon="4.8936">
        <ele>57.400001525879</ele>
        <time>2019-05-16T09:55:46Z</time>
      </trkpt>
      <trkpt lat="52.35457" lon="4.8941">
        <ele>57.400001525879</ele>
        <time>2019-05-16T09:56:10Z</time>
      </trkpt>
      <trkpt lat="52.35463" lon="4.89471">
        <ele>57.200000762939</ele>
        <time>2019-05-16T09:56:50Z</time>
      </trkpt>
      <trkpt lat="52.35432" lon="4.89475">
        <ele>56</ele>
        <time>2019-05-16T09:56:58Z</time>
      </trkpt>
      <trkpt lat="52.35423" lon="4.89501">
        <ele>56</ele>
        <time>2019-05-16T09:57:21Z</time>
      </trkpt>
      <trkpt lat="52.35407" lon="4.89526">
        <ele>55.599998474121</ele>
        <time>2019-05-16T09:57:44Z</time>
      </trkpt>
      <trkpt lat="52.35406" lon="4.89528">
        <ele>55</ele>
        <time>2019-05-16T09:58:44Z</time>
      </trkpt>
      <trkpt lat="52.35403" lon="4.89563">
        <ele>54.799999237061</ele>
        <time>2019-05-16T09:59:03Z</time>
      </trkpt>
      <trkpt lat="52.35409" lon="4.89579">
        <ele>54.799999237061</ele>
        <time>2019-05-16T09:59:14Z</time>
      </trkpt>
      <trkpt lat="52.35424" lon="4.89596">
        <ele>55.200000762939</ele>
        <time>2019-05-16T09:59:43Z</time>
      </trkpt>
      <trkpt lat="52.35446" lon="4.89617">
        <ele>55.200000762939</ele>
        <time>2019-05-16T10:00:01Z</time>
      </trkpt>
      <trkpt lat="52.35449" lon="4.8966">
        <ele>55</ele>
        <time>2019-05-16T10:00:25Z</time>
      </trkpt>
      <trkpt lat="52.35463" lon="4.89695">
        <ele>55.400001525879</ele>
        <time>2019-05-16T10:01:03Z</time>
      </trkpt>
      <trkpt lat="52.35461" lon="4.89706">
        <ele>55.200000762939</ele>
        <time>2019-05-16T10:01:19Z</time>
      </trkpt>
      <trkpt lat="52.35446" lon="4.89744">
        <ele>56</ele>
        <time>2019-05-16T10:04:22Z</time>
      </trkpt>
      <trkpt lat="52.35447" lon="4.89809">
        <ele>56.599998474121</ele>
        <time>2019-05-16T10:04:47Z</time>
      </trkpt>
      <trkpt lat="52.35486" lon="4.89861">
        <ele>58</ele>
        <time>2019-05-16T10:05:07Z</time>
      </trkpt>
      <trkpt lat="52.35518" lon="4.89834">
        <ele>57.599998474121</ele>
        <time>2019-05-16T10:05:37Z</time>
      </trkpt>
      <trkpt lat="52.35567" lon="4.89794">
        <ele>57.599998474121</ele>
        <time>2019-05-16T10:06:06Z</time>
      </trkpt>
      <trkpt lat="52.3561" lon="4.89766">
        <ele>57.400001525879</ele>
        <time>2019-05-16T10:06:35Z</time>
      </trkpt>
      <trkpt lat="52.35615" lon="4.89762">
        <ele>57.799999237061</ele>
        <time>2019-05-16T10:07:00Z</time>
      </trkpt>
      <trkpt lat="52.3565" lon="4.89743">
        <ele>57.400001525879</ele>
        <time>2019-05-16T10:07:24Z</time>
      </trkpt>
      <trkpt lat="52.35662" lon="4.89738">
        <ele>57.599998474121</ele>
        <time>2019-05-16T10:07:48Z</time>
      </trkpt>
      <trkpt lat="52.35673" lon="4.8977">
        <ele>57.599998474121</ele>
        <time>2019-05-16T10:08:16Z</time>
      </trkpt>
      <trkpt lat="52.35673" lon="4.89786">
        <ele>57.400001525879</ele>
        <time>2019-05-16T10:08:38Z</time>
      </trkpt>
      <trkpt lat="52.35679" lon="4.89806">
        <ele>57.400001525879</ele>
        <time>2019-05-16T10:08:55Z</time>
      </trkpt>
      <trkpt lat="52.35688" lon="4.89837">
        <ele>57.599998474121</ele>
        <time>2019-05-16T10:09:19Z</time>
      </trkpt>
      <trkpt lat="52.35699" lon="4.89871">
        <ele>57.400001525879</ele>
        <time>2019-05-16T10:09:36Z</time>
      </trkpt>
      <trkpt lat="52.35713" lon="4.89907">
        <ele>57.599998474121</ele>
        <time>2019-05-16T10:10:07Z</time>
      </trkpt>
      <trkpt lat="52.35725" lon="4.89938">
        <ele>57.599998474121</ele>
        <time>2019-05-16T10:10:32Z</time>
      </trkpt>
      <trkpt lat="52.3571" lon="4.89948">
        <ele>59.200000762939</ele>
        <time>2019-05-16T10:11:01Z</time>
      </trkpt>
      <trkpt lat="52.35728" lon="4.89947">
        <ele>59.200000762939</ele>
        <time>2019-05-16T10:11:26Z</time>
      </trkpt>
      <trkpt lat="52.35769" lon="4.89945">
        <ele>59.599998474121</ele>
        <time>2019-05-16T10:11:50Z</time>
      </trkpt>
      <trkpt lat="52.35809" lon="4.89929">
        <ele>60.599998474121</ele>
        <time>2019-05-16T10:12:15Z</time>
      </trkpt>
      <trkpt lat="52.35882" lon="4.899">
        <ele>60.200000762939</ele>
        <time>2019-05-16T10:12:46Z</time>
      </trkpt>
      <trkpt lat="52.35949" lon="4.89897">
        <ele>60.200000762939</ele>
        <time>2019-05-16T10:13:01Z</time>
      </trkpt>
      <trkpt lat="52.35957" lon="4.89877">
        <ele>60.200000762939</ele>
        <time>2019-05-16T10:14:24Z</time>
      </trkpt>
      <trkpt lat="52.35953" lon="4.89813">
        <ele>60</ele>
        <time>2019-05-16T10:14:33Z</time>
      </trkpt>
      <trkpt lat="52.35953" lon="4.89648">
        <ele>59.400001525879</ele>
        <time>2019-05-16T10:14:41Z</time>
      </trkpt>
      <trkpt lat="52.35888" lon="4.89624">
        <ele>59.400001525879</ele>
        <time>2019-05-16T10:15:06Z</time>
      </trkpt>
      <trkpt lat="52.35886" lon="4.89561">
        <ele>59</ele>
        <time>2019-05-16T10:19:48Z</time>
      </trkpt>
      <trkpt lat="52.35886" lon="4.89524">
        <ele>59.200000762939</ele>
        <time>2019-05-16T10:20:12Z</time>
      </trkpt>
      <trkpt lat="52.35899" lon="4.89444">
        <ele>59.200000762939</ele>
        <time>2019-05-16T10:20:37Z</time>
      </trkpt>
      <trkpt lat="52.35895" lon="4.89371">
        <ele>59</ele>
        <time>2019-05-16T10:21:01Z</time>
      </trkpt>
      <trkpt lat="52.35899" lon="4.89298">
        <ele>59</ele>
        <time>2019-05-16T10:22:16Z</time>
      </trkpt>
      <trkpt lat="52.35851" lon="4.8927">
        <ele>58.599998474121</ele>
        <time>2019-05-16T10:22:31Z</time>
      </trkpt>
      <trkpt lat="52.35852" lon="4.89234">
        <ele>58.799999237061</ele>
        <time>2019-05-16T10:22:49Z</time>
      </trkpt>
      <trkpt lat="52.35852" lon="4.89152">
        <ele>58.599998474121</ele>
        <time>2019-05-16T10:23:12Z</time>
      </trkpt>
      <trkpt lat="52.35872" lon="4.89124">
        <ele>59</ele>
        <time>2019-05-16T10:23:39Z</time>
      </trkpt>
      <trkpt lat="52.35889" lon="4.89137">
        <ele>59.599998474121</ele>
        <time>2019-05-16T10:24:03Z</time>
      </trkpt>
      <trkpt lat="52.35932" lon="4.89157">
        <ele>59</ele>
        <time>2019-05-16T10:24:38Z</time>
      </trkpt>
      <trkpt lat="52.35971" lon="4.89112">
        <ele>59.599998474121</ele>
        <time>2019-05-16T10:25:00Z</time>
      </trkpt>
      <trkpt lat="52.36033" lon="4.89115">
        <ele>60</ele>
        <time>2019-05-16T10:25:21Z</time>
      </trkpt>
      <trkpt lat="52.36087" lon="4.8913">
        <ele>59.599998474121</ele>
        <time>2019-05-16T10:25:41Z</time>
      </trkpt>
      <trkpt lat="52.36155" lon="4.89153">
        <ele>59.799999237061</ele>
        <time>2019-05-16T10:26:06Z</time>
      </trkpt>
      <trkpt lat="52.36156" lon="4.89136">
        <ele>59.799999237061</ele>
        <time>2019-05-16T10:26:20Z</time>
      </trkpt>
      <trkpt lat="52.36202" lon="4.89184">
        <ele>61.200000762939</ele>
        <time>2019-05-16T10:26:34Z</time>
      </trkpt>
      <trkpt lat="52.36182" lon="4.89341">
        <ele>59.400001525879</ele>
        <time>2019-05-16T10:26:56Z</time>
      </trkpt>
      <trkpt lat="52.3616" lon="4.8944">
        <ele>59.400001525879</ele>
        <time>2019-05-16T10:27:19Z</time>
      </trkpt>
      <trkpt lat="52.36145" lon="4.89547">
        <ele>59.200000762939</ele>
        <time>2019-05-16T10:27:35Z</time>
      </trkpt>
      <trkpt lat="52.36143" lon="4.89604">
        <ele>60</ele>
        <time>2019-05-16T10:27:58Z</time>
      </trkpt>
      <trkpt lat="52.3615" lon="4.89673">
        <ele>60.400001525879</ele>
        <time>2019-05-16T10:28:24Z</time>
      </trkpt>
      <trkpt lat="52.36168" lon="4.8974">
        <ele>59.200000762939</ele>
        <time>2019-05-16T10:28:47Z</time>
      </trkpt>
      <trkpt lat="52.36191" lon="4.89831">
        <ele>59</ele>
        <time>2019-05-16T10:29:16Z</time>
      </trkpt>
      <trkpt lat="52.36204" lon="4.89875">
        <ele>59.400001525879</ele>
        <time>2019-05-16T10:29:42Z</time>
      </trkpt>
      <trkpt lat="52.36213" lon="4.89895">
        <ele>60.400001525879</ele>
        <time>2019-05-16T10:30:09Z</time>
      </trkpt>
      <trkpt lat="52.36227" lon="4.89947">
        <ele>60.400001525879</ele>
        <time>2019-05-16T10:30:20Z</time>
      </trkpt>
      <trkpt lat="52.36247" lon="4.90014">
        <ele>59.400001525879</ele>
        <time>2019-05-16T10:31:57Z</time>
      </trkpt>
      <trkpt lat="52.36258" lon="4.90076">
        <ele>59.200000762939</ele>
        <time>2019-05-16T10:32:23Z</time>
      </trkpt>
      <trkpt lat="52.36272" lon="4.90169">
        <ele>59.200000762939</ele>
        <time>2019-05-16T10:32:47Z</time>
      </trkpt>
      <trkpt lat="52.36263" lon="4.90208">
        <ele>60</ele>
        <time>2019-05-16T10:33:06Z</time>
      </trkpt>
      <trkpt lat="52.36269" lon="4.90213">
        <ele>61.200000762939</ele>
        <time>2019-05-16T10:33:31Z</time>
      </trkpt>
      <trkpt lat="52.36324" lon="4.9018">
        <ele>61.400001525879</ele>
        <time>2019-05-16T10:33:56Z</time>
      </trkpt>
      <trkpt lat="52.36345" lon="4.90172">
        <ele>59.400001525879</ele>
        <time>2019-05-16T10:34:09Z</time>
      </trkpt>
      <trkpt lat="52.36358" lon="4.90242">
        <ele>61</ele>
        <time>2019-05-16T10:34:33Z</time>
      </trkpt>
      <trkpt lat="52.36371" lon="4.90298">
        <ele>60.799999237061</ele>
        <time>2019-05-16T10:34:41Z</time>
      </trkpt>
      <trkpt lat="52.36422" lon="4.90277">
        <ele>59.400001525879</ele>
        <time>2019-05-16T10:37:07Z</time>
      </trkpt>
      <trkpt lat="52.36456" lon="4.90266">
        <ele>59.599998474121</ele>
        <time>2019-05-16T10:37:25Z</time>
      </trkpt>
      <trkpt lat="52.36487" lon="4.9025">
        <ele>60.799999237061</ele>
        <time>2019-05-16T10:37:47Z</time>
      </trkpt>
      <trkpt lat="52.36531" lon="4.90227">
        <ele>59.400001525879</ele>
        <time>2019-05-16T10:38:02Z</time>
      </trkpt>
      <trkpt lat="52.3657" lon="4.9021">
        <ele>59.200000762939</ele>
        <time>2019-05-16T10:38:17Z</time>
      </trkpt>
      <trkpt lat="52.36579" lon="4.90239">
        <ele>59.799999237061</ele>
        <time>2019-05-16T10:38:35Z</time>
      </trkpt>
      <trkpt lat="52.36623" lon="4.90408">
        <ele>59.400001525879</ele>
        <time>2019-05-16T10:39:03Z</time>
      </trkpt>
      <trkpt lat="52.36623" lon="4.90413">
        <ele>59.200000762939</ele>
        <time>2019-05-16T10:39:16Z</time>
      </trkpt>
      <trkpt lat="52.36633" lon="4.90496">
        <ele>59</ele>
        <time>2019-05-16T11:04:18Z</time>
      </trkpt>
      <trkpt lat="52.36639" lon="4.90531">
        <ele>58.799999237061</ele>
        <time>2019-05-16T11:04:29Z</time>
      </trkpt>
      <trkpt lat="52.3666" lon="4.90625">
        <ele>59.599998474121</ele>
        <time>2019-05-16T11:04:45Z</time>
      </trkpt>
      <trkpt lat="52.36677" lon="4.90658">
        <ele>59.200000762939</ele>
        <time>2019-05-16T11:04:56Z</time>
      </trkpt>
      <trkpt lat="52.36694" lon="4.90676">
        <ele>59.200000762939</ele>
        <time>2019-05-16T11:05:11Z</time>
      </trkpt>
      <trkpt lat="52.36724" lon="4.90702">
        <ele>61</ele>
        <time>2019-05-16T11:05:32Z</time>
      </trkpt>
      <trkpt lat="52.36734" lon="4.90677">
        <ele>60.799999237061</ele>
        <time>2019-05-16T11:06:02Z</time>
      </trkpt>
      <trkpt lat="52.36748" lon="4.9069">
        <ele>60.599998474121</ele>
        <time>2019-05-16T11:06:24Z</time>
      </trkpt>
      <trkpt lat="52.36755" lon="4.90665">
        <ele>60.799999237061</ele>
        <time>2019-05-16T11:06:44Z</time>
      </trkpt>
      <trkpt lat="52.36804" lon="4.90498">
        <ele>60.799999237061</ele>
        <time>2019-05-16T11:06:53Z</time>
      </trkpt>
      <trkpt lat="52.36883" lon="4.90321">
        <ele>60.799999237061</ele>
        <time>2019-05-16T11:07:03Z</time>
      </trkpt>
      <trkpt lat="52.36903" lon="4.90263">
        <ele>60.599998474121</ele>
        <time>2019-05-16T11:07:11Z</time>
      </trkpt>
      <trkpt lat="52.36933" lon="4.90185">
        <ele>60.799999237061</ele>
        <time>2019-05-16T11:07:26Z</time>
      </trkpt>
      <trkpt lat="52.36949" lon="4.90149">
        <ele>61</ele>
        <time>2019-05-16T11:07:40Z</time>
      </trkpt>
      <trkpt lat="52.36976" lon="4.90095">
        <ele>61.599998474121</ele>
        <time>2019-05-16T11:07:48Z</time>
      </trkpt>
      <trkpt lat="52.37022" lon="4.90074">
        <ele>60.599998474121</ele>
        <time>2019-05-16T11:08:01Z</time>
      </trkpt>
      <trkpt lat="52.37078" lon="4.8997">
        <ele>59.799999237061</ele>
        <time>2019-05-16T11:08:17Z</time>
      </trkpt>
      <trkpt lat="52.37099" lon="4.89909">
        <ele>59.799999237061</ele>
        <time>2019-05-16T11:08:39Z</time>
      </trkpt>
      <trkpt lat="52.37094" lon="4.8989">
        <ele>59.599998474121</ele>
        <time>2019-05-16T11:08:45Z</time>
      </trkpt>
      <trkpt lat="52.37116" lon="4.8983">
        <ele>60.200000762939</ele>
        <time>2019-05-16T11:09:00Z</time>
      </trkpt>
      <trkpt lat="52.37143" lon="4.89766">
        <ele>59.400001525879</ele>
        <time>2019-05-16T11:09:18Z</time>
      </trkpt>
      <trkpt lat="52.37187" lon="4.89607">
        <ele>60.599998474121</ele>
        <time>2019-05-16T11:09:33Z</time>
      </trkpt>
      <trkpt lat="52.37202" lon="4.89628">
        <ele>60.400001525879</ele>
        <time>2019-05-16T11:09:56Z</time>
      </trkpt>
      <trkpt lat="52.37244" lon="4.8967">
        <ele>59</ele>
        <time>2019-05-16T11:10:12Z</time>
      </trkpt>
      <trkpt lat="52.37268" lon="4.89696">
        <ele>59</ele>
        <time>2019-05-16T11:10:36Z</time>
      </trkpt>
      <trkpt lat="52.37299" lon="4.89731">
        <ele>59.400001525879</ele>
        <time>2019-05-16T11:10:57Z</time>
      </trkpt>
      <trkpt lat="52.37333" lon="4.89778">
        <ele>59.200000762939</ele>
        <time>2019-05-16T11:11:13Z</time>
      </trkpt>
      <trkpt lat="52.3743" lon="4.89906">
        <ele>59.599998474121</ele>
        <time>2019-05-16T11:11:32Z</time>
      </trkpt>
      <trkpt lat="52.3748" lon="4.89939">
        <ele>59.200000762939</ele>
        <time>2019-05-16T11:11:55Z</time>
      </trkpt>
      <trkpt lat="52.37494" lon="4.89958">
        <ele>59.799999237061</ele>
        <time>2019-05-16T11:12:20Z</time>
      </trkpt>
      <trkpt lat="52.37499" lon="4.89966">
        <ele>59.400001525879</ele>
        <time>2019-05-16T11:12:44Z</time>
      </trkpt>
      <trkpt lat="52.37519" lon="4.89992">
        <ele>59.400001525879</ele>
        <time>2019-05-16T11:13:09Z</time>
      </trkpt>
      <trkpt lat="52.37532" lon="4.89993">
        <ele>60.799999237061</ele>
        <time>2019-05-16T11:13:32Z</time>
      </trkpt>
      <trkpt lat="52.37552" lon="4.89951">
        <ele>59.200000762939</ele>
        <time>2019-05-16T11:14:00Z</time>
      </trkpt>
      <trkpt lat="52.37576" lon="4.89897">
        <ele>60</ele>
        <time>2019-05-16T11:14:22Z</time>
      </trkpt>
      <trkpt lat="52.37581" lon="4.89897">
        <ele>60.400001525879</ele>
        <time>2019-05-16T11:14:47Z</time>
      </trkpt>
      <trkpt lat="52.37603" lon="4.89919">
        <ele>60.599998474121</ele>
        <time>2019-05-16T11:15:10Z</time>
      </trkpt>
      <trkpt lat="52.37621" lon="4.89953">
        <ele>60.599998474121</ele>
        <time>2019-05-16T11:15:37Z</time>
      </trkpt>
      <trkpt lat="52.37693" lon="4.89886">
        <ele>62</ele>
        <time>2019-05-16T11:16:03Z</time>
      </trkpt>
      <trkpt lat="52.3771" lon="4.89858">
        <ele>61.799999237061</ele>
        <time>2019-05-16T11:16:28Z</time>
      </trkpt>
      <trkpt lat="52.37726" lon="4.89866">
        <ele>60.799999237061</ele>
        <time>2019-05-16T11:16:55Z</time>
      </trkpt>
      <trkpt lat="52.37737" lon="4.89885">
        <ele>61.200000762939</ele>
        <time>2019-05-16T11:17:17Z</time>
      </trkpt>
      <trkpt lat="52.37752" lon="4.89906">
        <ele>61.200000762939</ele>
        <time>2019-05-16T11:18:04Z</time>
      </trkpt>
      <trkpt lat="52.37783" lon="4.89967">
        <ele>61.799999237061</ele>
        <time>2019-05-16T11:18:17Z</time>
      </trkpt>
      <trkpt lat="52.37778" lon="4.90011">
        <ele>61.599998474121</ele>
        <time>2019-05-16T11:18:31Z</time>
      </trkpt>
      <trkpt lat="52.37767" lon="4.90018">
        <ele>62.200000762939</ele>
        <time>2019-05-16T11:18:46Z</time>
      </trkpt>
      <trkpt lat="52.37763" lon="4.90083">
        <ele>62.200000762939</ele>
        <time>2019-05-16T11:19:11Z</time>
      </trkpt>
      <trkpt lat="52.37766" lon="4.90156">
        <ele>61.400001525879</ele>
        <time>2019-05-16T11:19:36Z</time>
      </trkpt>
      <trkpt lat="52.37769" lon="4.9019">
        <ele>61.799999237061</ele>
        <time>2019-05-16T11:19:55Z</time>
      </trkpt>
      <trkpt lat="52.37748" lon="4.90236">
        <ele>61.599998474121</ele>
        <time>2019-05-16T11:20:20Z</time>
      </trkpt>
      <trkpt lat="52.37734" lon="4.90284">
        <ele>61.599998474121</ele>
        <time>2019-05-16T11:20:41Z</time>
      </trkpt>
      <trkpt lat="52.37722" lon="4.90299">
        <ele>60.799999237061</ele>
        <time>2019-05-16T11:21:03Z</time>
      </trkpt>
      <trkpt lat="52.37714" lon="4.90321">
        <ele>61.599998474121</ele>
        <time>2019-05-16T11:21:18Z</time>
      </trkpt>
      <trkpt lat="52.37692" lon="4.90372">
        <ele>61</ele>
        <time>2019-05-16T11:21:26Z</time>
      </trkpt>
      <trkpt lat="52.37704" lon="4.90403">
        <ele>60.799999237061</ele>
        <time>2019-05-16T11:21:38Z</time>
      </trkpt>
      <trkpt lat="52.37723" lon="4.90414">
        <ele>60</ele>
        <time>2019-05-16T11:22:00Z</time>
      </trkpt>
      <trkpt lat="52.3777" lon="4.90463">
        <ele>59.799999237061</ele>
        <time>2019-05-16T11:22:23Z</time>
      </trkpt>
      <trkpt lat="52.37832" lon="4.90519">
        <ele>60.400001525879</ele>
        <time>2019-05-16T11:22:41Z</time>
      </trkpt>
      <trkpt lat="52.37865" lon="4.90441">
        <ele>60.799999237061</ele>
        <time>2019-05-16T11:23:06Z</time>
      </trkpt>
      <trkpt lat="52.37924" lon="4.90284">
        <ele>60.200000762939</ele>
        <time>2019-05-16T11:23:27Z</time>
      </trkpt>
      <trkpt lat="52.37939" lon="4.90265">
        <ele>59.799999237061</ele>
        <time>2019-05-16T11:23:50Z</time>
      </trkpt>
      <trkpt lat="52.3795" lon="4.90277">
        <ele>59.799999237061</ele>
        <time>2019-05-16T11:24:12Z</time>
      </trkpt>
      <trkpt lat="52.37972" lon="4.90242">
        <ele>61.599998474121</ele>
        <time>2019-05-16T11:24:34Z</time>
      </trkpt>
      <trkpt lat="52.38008" lon="4.90212">
        <ele>61.599998474121</ele>
        <time>2019-05-16T11:25:02Z</time>
      </trkpt>
      <trkpt lat="52.38028" lon="4.90246">
        <ele>62</ele>
        <time>2019-05-16T11:25:23Z</time>
      </trkpt>
      <trkpt lat="52.38022" lon="4.90282">
        <ele>60.599998474121</ele>
        <time>2019-05-16T11:25:46Z</time>
      </trkpt>
      <trkpt lat="52.37999" lon="4.90392">
        <ele>62</ele>
        <time>2019-05-16T11:26:03Z</time>
      </trkpt>
      <trkpt lat="52.37988" lon="4.90518">
        <ele>61.599998474121</ele>
        <time>2019-05-16T11:26:25Z</time>
      </trkpt>
      <trkpt lat="52.38007" lon="4.90634">
        <ele>61.799999237061</ele>
        <time>2019-05-16T11:26:45Z</time>
      </trkpt>
      <trkpt lat="52.38053" lon="4.90744">
        <ele>61.799999237061</ele>
        <time>2019-05-16T11:26:59Z</time>
      </trkpt>
      <trkpt lat="52.3809" lon="4.90784">
        <ele>61.200000762939</ele>
        <time>2019-05-16T11:27:37Z</time>
      </trkpt>
      <trkpt lat="52.38141" lon="4.90828">
        <ele>61.599998474121</ele>
        <time>2019-05-16T11:27:57Z</time>
      </trkpt>
      <trkpt lat="52.38169" lon="4.90835">
        <ele>60</ele>
        <time>2019-05-16T11:28:06Z</time>
      </trkpt>
      <trkpt lat="52.38192" lon="4.90844">
        <ele>60.400001525879</ele>
        <time>2019-05-16T11:28:15Z</time>
      </trkpt>
      <trkpt lat="52.38224" lon="4.90882">
        <ele>60.599998474121</ele>
        <time>2019-05-16T11:28:20Z</time>
      </trkpt>
      <trkpt lat="52.38291" lon="4.90974">
        <ele>60.799999237061</ele>
        <time>2019-05-16T11:28:32Z</time>
      </trkpt>
      <trkpt lat="52.38315" lon="4.91074">
        <ele>60.599998474121</ele>
        <time>2019-05-16T11:28:38Z</time>
      </trkpt>
      <trkpt lat="52.38298" lon="4.91316">
        <ele>60.599998474121</ele>
        <time>2019-05-16T11:28:45Z</time>
      </trkpt>
      <trkpt lat="52.38308" lon="4.91412">
        <ele>60.400001525879</ele>
        <time>2019-05-16T11:28:51Z</time>
      </trkpt>
      <trkpt lat="52.38353" lon="4.91565">
        <ele>60.599998474121</ele>
        <time>2019-05-16T11:29:01Z</time>
      </trkpt>
      <trkpt lat="52.38427" lon="4.91683">
        <ele>60.400001525879</ele>
        <time>2019-05-16T11:29:17Z</time>
      </trkpt>
      <trkpt lat="52.38474" lon="4.91771">
        <ele>60.400001525879</ele>
        <time>2019-05-16T11:29:36Z</time>
      </trkpt>
      <trkpt lat="52.38489" lon="4.91795">
        <ele>60.599998474121</ele>
        <time>2019-05-16T11:29:55Z</time>
      </trkpt>
      <trkpt lat="52.38497" lon="4.91794">
        <ele>61.400001525879</ele>
        <time>2019-05-16T11:30:12Z</time>
      </trkpt>
      <trkpt lat="52.38465" lon="4.91801">
        <ele>61.200000762939</ele>
        <time>2019-05-16T11:30:24Z</time>
      </trkpt>
      <trkpt lat="52.38455" lon="4.9182">
        <ele>61.200000762939</ele>
        <time>2019-05-16T11:30:34Z</time>
      </trkpt>
      <trkpt lat="52.38465" lon="4.91805">
        <ele>61</ele>
        <time>2019-05-16T11:30:51Z</time>
      </trkpt>
      <trkpt lat="52.38454" lon="4.91831">
        <ele>61.400001525879</ele>
        <time>2019-05-16T11:31:11Z</time>
      </trkpt>
      <trkpt lat="52.38467" lon="4.91805">
        <ele>60.799999237061</ele>
        <time>2019-05-16T11:31:30Z</time>
      </trkpt>
      <trkpt lat="52.38452" lon="4.9183">
        <ele>60.799999237061</ele>
        <time>2019-05-16T11:31:36Z</time>
      </trkpt>
      <trkpt lat="52.38431" lon="4.91808">
        <ele>60.599998474121</ele>
        <time>2019-05-16T11:31:48Z</time>
      </trkpt>
      <trkpt lat="52.38474" lon="4.91795">
        <ele>61</ele>
        <time>2019-05-16T11:32:03Z</time>
      </trkpt>
      <trkpt lat="52.38503" lon="4.91795">
        <ele>61</ele>
        <time>2019-05-16T11:32:29Z</time>
      </trkpt>
      <trkpt lat="52.38518" lon="4.91807">
        <ele>60.599998474121</ele>
        <time>2019-05-16T11:32:48Z</time>
      </trkpt>
      <trkpt lat="52.38534" lon="4.91861">
        <ele>60.799999237061</ele>
        <time>2019-05-16T11:32:53Z</time>
      </trkpt>
      <trkpt lat="52.38551" lon="4.91893">
        <ele>60.799999237061</ele>
        <time>2019-05-16T11:33:09Z</time>
      </trkpt>
      <trkpt lat="52.38561" lon="4.91912">
        <ele>61</ele>
        <time>2019-05-16T11:34:57Z</time>
      </trkpt>
      <trkpt lat="52.38583" lon="4.92055">
        <ele>61.599998474121</ele>
        <time>2019-05-16T11:35:17Z</time>
      </trkpt>
      <trkpt lat="52.38608" lon="4.92228">
        <ele>61.400001525879</ele>
        <time>2019-05-16T11:35:29Z</time>
      </trkpt>
      <trkpt lat="52.38636" lon="4.92287">
        <ele>61.400001525879</ele>
        <time>2019-05-16T11:35:50Z</time>
      </trkpt>
      <trkpt lat="52.38715" lon="4.92372">
        <ele>61.200000762939</ele>
        <time>2019-05-16T11:36:28Z</time>
      </trkpt>
      <trkpt lat="52.38751" lon="4.92421">
        <ele>61</ele>
        <time>2019-05-16T11:36:50Z</time>
      </trkpt>
      <trkpt lat="52.3879" lon="4.92449">
        <ele>61.200000762939</ele>
        <time>2019-05-16T11:37:09Z</time>
      </trkpt>
      <trkpt lat="52.38854" lon="4.92502">
        <ele>61.400001525879</ele>
        <time>2019-05-16T11:37:36Z</time>
      </trkpt>
      <trkpt lat="52.38897" lon="4.92521">
        <ele>61.200000762939</ele>
        <time>2019-05-16T11:37:57Z</time>
      </trkpt>
      <trkpt lat="52.38931" lon="4.92531">
        <ele>61.599998474121</ele>
        <time>2019-05-16T11:38:26Z</time>
      </trkpt>
      <trkpt lat="52.38925" lon="4.92618">
        <ele>61.599998474121</ele>
        <time>2019-05-16T11:38:53Z</time>
      </trkpt>
      <trkpt lat="52.38946" lon="4.92669">
        <ele>61</ele>
        <time>2019-05-16T11:39:06Z</time>
      </trkpt>
      <trkpt lat="52.39018" lon="4.92719">
        <ele>61</ele>
        <time>2019-05-16T11:39:14Z</time>
      </trkpt>
      <trkpt lat="52.39052" lon="4.92974">
        <ele>61</ele>
        <time>2019-05-16T11:39:23Z</time>
      </trkpt>
      <trkpt lat="52.39077" lon="4.93121">
        <ele>60.599998474121</ele>
        <time>2019-05-16T11:39:37Z</time>
      </trkpt>
      <trkpt lat="52.39076" lon="4.93231">
        <ele>60.599998474121</ele>
        <time>2019-05-16T11:40:00Z</time>
      </trkpt>
      <trkpt lat="52.39013" lon="4.92669">
        <ele>14.60000038147</ele>
        <time>2019-05-16T11:40:24Z</time>
      </trkpt>
      <trkpt lat="52.39005" lon="4.92562">
        <ele>14.60000038147</ele>
        <time>2019-05-16T11:40:47Z</time>
      </trkpt>
      <trkpt lat="52.39027" lon="4.92511">
        <ele>15.60000038147</ele>
        <time>2019-05-16T11:41:09Z</time>
      </trkpt>
      <trkpt lat="52.39061" lon="4.92505">
        <ele>16</ele>
        <time>2019-05-16T11:41:34Z</time>
      </trkpt>
      <trkpt lat="52.39094" lon="4.92506">
        <ele>16.200000762939</ele>
        <time>2019-05-16T11:41:57Z</time>
      </trkpt>
      <trkpt lat="52.39144" lon="4.92562">
        <ele>16.39999961853</ele>
        <time>2019-05-16T11:42:18Z</time>
      </trkpt>
      <trkpt lat="52.39197" lon="4.92628">
        <ele>15.199999809265</ele>
        <time>2019-05-16T11:42:34Z</time>
      </trkpt>
      <trkpt lat="52.39328" lon="4.92789">
        <ele>14</ele>
        <time>2019-05-16T11:42:39Z</time>
      </trkpt>
      <trkpt lat="52.39399" lon="4.92842">
        <ele>14.39999961853</ele>
        <time>2019-05-16T11:42:53Z</time>
      </trkpt>
      <trkpt lat="52.39458" lon="4.92877">
        <ele>15</ele>
        <time>2019-05-16T11:43:14Z</time>
      </trkpt>
      <trkpt lat="52.39572" lon="4.92968">
        <ele>14</ele>
        <time>2019-05-16T11:43:39Z</time>
      </trkpt>
      <trkpt lat="52.39615" lon="4.93011">
        <ele>12.199999809265</ele>
        <time>2019-05-16T11:43:59Z</time>
      </trkpt>
      <trkpt lat="52.39627" lon="4.93">
        <ele>11.60000038147</ele>
        <time>2019-05-16T11:44:25Z</time>
      </trkpt>
      <trkpt lat="52.39684" lon="4.92862">
        <ele>11.60000038147</ele>
        <time>2019-05-16T11:44:51Z</time>
      </trkpt>
      <trkpt lat="52.39671" lon="4.92833">
        <ele>11.60000038147</ele>
        <time>2019-05-16T11:45:07Z</time>
      </trkpt>
      <trkpt lat="52.39656" lon="4.92798">
        <ele>11.39999961853</ele>
        <time>2019-05-16T11:45:33Z</time>
      </trkpt>
      <trkpt lat="52.39698" lon="4.92725">
        <ele>12.800000190735</ele>
        <time>2019-05-16T11:45:58Z</time>
      </trkpt>
      <trkpt lat="52.39717" lon="4.92669">
        <ele>13.39999961853</ele>
        <time>2019-05-16T11:46:21Z</time>
      </trkpt>
      <trkpt lat="52.39738" lon="4.92589">
        <ele>13.800000190735</ele>
        <time>2019-05-16T11:46:42Z</time>
      </trkpt>
      <trkpt lat="52.39778" lon="4.9259">
        <ele>13.60000038147</ele>
        <time>2019-05-16T11:47:02Z</time>
      </trkpt>
      <trkpt lat="52.39798" lon="4.92539">
        <ele>13.800000190735</ele>
        <time>2019-05-16T11:47:28Z</time>
      </trkpt>
      <trkpt lat="52.39817" lon="4.92479">
        <ele>14.60000038147</ele>
        <time>2019-05-16T11:47:53Z</time>
      </trkpt>
      <trkpt lat="52.39871" lon="4.92315">
        <ele>15.60000038147</ele>
        <time>2019-05-16T11:48:15Z</time>
      </trkpt>
      <trkpt lat="52.39842" lon="4.92228">
        <ele>15.800000190735</ele>
        <time>2019-05-16T11:48:42Z</time>
      </trkpt>
      <trkpt lat="52.3985" lon="4.92211">
        <ele>16.60000038147</ele>
        <time>2019-05-16T11:49:08Z</time>
      </trkpt>
      <trkpt lat="52.39919" lon="4.92145">
        <ele>18.200000762939</ele>
        <time>2019-05-16T11:49:33Z</time>
      </trkpt>
      <trkpt lat="52.39931" lon="4.92171">
        <ele>18</ele>
        <time>2019-05-16T11:49:57Z</time>
      </trkpt>
      <trkpt lat="52.39967" lon="4.92232">
        <ele>16.200000762939</ele>
        <time>2019-05-16T11:50:20Z</time>
      </trkpt>
      <trkpt lat="52.39996" lon="4.92241">
        <ele>14.199999809265</ele>
        <time>2019-05-16T11:50:32Z</time>
      </trkpt>
      <trkpt lat="52.40094" lon="4.92262">
        <ele>13.800000190735</ele>
        <time>2019-05-16T11:50:51Z</time>
      </trkpt>
      <trkpt lat="52.40185" lon="4.92317">
        <ele>14.39999961853</ele>
        <time>2019-05-16T11:51:18Z</time>
      </trkpt>
      <trkpt lat="52.40268" lon="4.92378">
        <ele>14.39999961853</ele>
        <time>2019-05-16T11:51:40Z</time>
      </trkpt>
      <trkpt lat="52.40331" lon="4.92396">
        <ele>14.199999809265</ele>
        <time>2019-05-16T11:51:56Z</time>
      </trkpt>
      <trkpt lat="52.40452" lon="4.92455">
        <ele>14.800000190735</ele>
        <time>2019-05-16T11:52:02Z</time>
      </trkpt>
      <trkpt lat="52.40517" lon="4.92462">
        <ele>14.800000190735</ele>
        <time>2019-05-16T11:52:08Z</time>
      </trkpt>
      <trkpt lat="52.40632" lon="4.9248">
        <ele>14.60000038147</ele>
        <time>2019-05-16T11:52:18Z</time>
      </trkpt>
      <trkpt lat="52.40712" lon="4.92504">
        <ele>14.60000038147</ele>
        <time>2019-05-16T11:52:55Z</time>
      </trkpt>
      <trkpt lat="52.40775" lon="4.92556">
        <ele>15.60000038147</ele>
        <time>2019-05-16T11:53:07Z</time>
      </trkpt>
      <trkpt lat="52.40848" lon="4.92644">
        <ele>14.39999961853</ele>
        <time>2019-05-16T11:53:16Z</time>
      </trkpt>
      <trkpt lat="52.40927" lon="4.92769">
        <ele>14.199999809265</ele>
        <time>2019-05-16T11:53:32Z</time>
      </trkpt>
      <trkpt lat="52.40973" lon="4.92823">
        <ele>14.199999809265</ele>
        <time>2019-05-16T11:53:54Z</time>
      </trkpt>
      <trkpt lat="52.41096" lon="4.92914">
        <ele>13.800000190735</ele>
        <time>2019-05-16T11:54:13Z</time>
      </trkpt>
      <trkpt lat="52.4116" lon="4.93006">
        <ele>14.199999809265</ele>
        <time>2019-05-16T11:54:34Z</time>
      </trkpt>
      <trkpt lat="52.4119" lon="4.93091">
        <ele>15.60000038147</ele>
        <time>2019-05-16T11:55:32Z</time>
      </trkpt>
      <trkpt lat="52.41201" lon="4.93266">
        <ele>14.199999809265</ele>
        <time>2019-05-16T11:56:03Z</time>
      </trkpt>
      <trkpt lat="52.41213" lon="4.93403">
        <ele>14</ele>
        <time>2019-05-16T11:56:27Z</time>
      </trkpt>
      <trkpt lat="52.41239" lon="4.93583">
        <ele>13.800000190735</ele>
        <time>2019-05-16T11:56:53Z</time>
      </trkpt>
      <trkpt lat="52.41286" lon="4.9376">
        <ele>14</ele>
        <time>2019-05-16T11:57:14Z</time>
      </trkpt>
      <trkpt lat="52.4133" lon="4.93891">
        <ele>14</ele>
        <time>2019-05-16T11:57:37Z</time>
      </trkpt>
      <trkpt lat="52.41366" lon="4.94016">
        <ele>14.39999961853</ele>
        <time>2019-05-16T11:58:04Z</time>
      </trkpt>
      <trkpt lat="52.41397" lon="4.94167">
        <ele>14.199999809265</ele>
        <time>2019-05-16T11:58:26Z</time>
      </trkpt>
      <trkpt lat="52.4143" lon="4.94285">
        <ele>15</ele>
        <time>2019-05-16T11:58:50Z</time>
      </trkpt>
      <trkpt lat="52.41467" lon="4.94358">
        <ele>14</ele>
        <time>2019-05-16T11:59:10Z</time>
      </trkpt>
      <trkpt lat="52.41496" lon="4.94397">
        <ele>14</ele>
        <time>2019-05-16T11:59:30Z</time>
      </trkpt>
      <trkpt lat="52.41565" lon="4.94455">
        <ele>14.199999809265</ele>
        <time>2019-05-16T11:59:38Z</time>
      </trkpt>
      <trkpt lat="52.41688" lon="4.94517">
        <ele>13.800000190735</ele>
        <time>2019-05-16T11:59:44Z</time>
      </trkpt>
      <trkpt lat="52.41803" lon="4.94571">
        <ele>13.60000038147</ele>
        <time>2019-05-16T12:00:01Z</time>
      </trkpt>
      <trkpt lat="52.41946" lon="4.94638">
        <ele>13.60000038147</ele>
        <time>2019-05-16T12:00:21Z</time>
      </trkpt>
      <trkpt lat="52.42033" lon="4.94678">
        <ele>13.800000190735</ele>
        <time>2019-05-16T12:00:41Z</time>
      </trkpt>
      <trkpt lat="52.4215" lon="4.9472">
        <ele>13.800000190735</ele>
        <time>2019-05-16T12:00:49Z</time>
      </trkpt>
      <trkpt lat="52.42212" lon="4.94766">
        <ele>14</ele>
        <time>2019-05-16T12:01:08Z</time>
      </trkpt>
      <trkpt lat="52.4227" lon="4.94865">
        <ele>13.800000190735</ele>
        <time>2019-05-16T12:01:14Z</time>
      </trkpt>
      <trkpt lat="52.42325" lon="4.95006">
        <ele>14</ele>
        <time>2019-05-16T12:01:25Z</time>
      </trkpt>
      <trkpt lat="52.42375" lon="4.95028">
        <ele>14</ele>
        <time>2019-05-16T12:01:41Z</time>
      </trkpt>
      <trkpt lat="52.42588" lon="4.95031">
        <ele>14</ele>
        <time>2019-05-16T12:01:50Z</time>
      </trkpt>
      <trkpt lat="52.42696" lon="4.95033">
        <ele>14.199999809265</ele>
        <time>2019-05-16T12:02:01Z</time>
      </trkpt>
      <trkpt lat="52.42762" lon="4.95033">
        <ele>14</ele>
        <time>2019-05-16T12:02:08Z</time>
      </trkpt>
      <trkpt lat="52.42874" lon="4.95037">
        <ele>13.800000190735</ele>
        <time>2019-05-16T12:02:17Z</time>
      </trkpt>
      <trkpt lat="52.43075" lon="4.95041">
        <ele>14.199999809265</ele>
        <time>2019-05-16T12:02:30Z</time>
      </trkpt>
      <trkpt lat="52.43193" lon="4.95044">
        <ele>14</ele>
        <time>2019-05-16T12:02:50Z</time>
      </trkpt>
      <trkpt lat="52.43276" lon="4.95046">
        <ele>14.60000038147</ele>
        <time>2019-05-16T12:03:05Z</time>
      </trkpt>
      <trkpt lat="52.43432" lon="4.95051">
        <ele>14</ele>
        <time>2019-05-16T12:03:28Z</time>
      </trkpt>
      <trkpt lat="52.43755" lon="4.95049">
        <ele>14</ele>
        <time>2019-05-16T12:03:36Z</time>
      </trkpt>
      <trkpt lat="52.4379" lon="4.95041">
        <ele>13.800000190735</ele>
        <time>2019-05-16T12:03:51Z</time>
      </trkpt>
      <trkpt lat="52.43882" lon="4.95023">
        <ele>13.800000190735</ele>
        <time>2019-05-16T12:04:03Z</time>
      </trkpt>
      <trkpt lat="52.43982" lon="4.95003">
        <ele>14</ele>
        <time>2019-05-16T12:04:12Z</time>
      </trkpt>
      <trkpt lat="52.44332" lon="4.9494">
        <ele>14</ele>
        <time>2019-05-16T12:04:23Z</time>
      </trkpt>
      <trkpt lat="52.44471" lon="4.94913">
        <ele>13.800000190735</ele>
        <time>2019-05-16T12:04:44Z</time>
      </trkpt>
      <trkpt lat="52.44579" lon="4.9489">
        <ele>14</ele>
        <time>2019-05-16T12:05:11Z</time>
      </trkpt>
      <trkpt lat="52.44651" lon="4.94875">
        <ele>14.39999961853</ele>
        <time>2019-05-16T12:05:33Z</time>
      </trkpt>
      <trkpt lat="52.44707" lon="4.94865">
        <ele>13.60000038147</ele>
        <time>2019-05-16T12:05:46Z</time>
      </trkpt>
      <trkpt lat="52.44786" lon="4.9485">
        <ele>13.60000038147</ele>
        <time>2019-05-16T12:06:08Z</time>
      </trkpt>
      <trkpt lat="52.44894" lon="4.94831">
        <ele>13.800000190735</ele>
        <time>2019-05-16T12:06:33Z</time>
      </trkpt>
      <trkpt lat="52.45106" lon="4.94789">
        <ele>13.800000190735</ele>
        <time>2019-05-16T12:07:00Z</time>
      </trkpt>
      <trkpt lat="52.45181" lon="4.94774">
        <ele>13.60000038147</ele>
        <time>2019-05-16T12:07:11Z</time>
      </trkpt>
      <trkpt lat="52.45258" lon="4.94775">
        <ele>13.60000038147</ele>
        <time>2019-05-16T12:07:21Z</time>
      </trkpt>
      <trkpt lat="52.4537" lon="4.94832">
        <ele>13.60000038147</ele>
        <time>2019-05-16T12:07:47Z</time>
      </trkpt>
      <trkpt lat="52.45477" lon="4.94885">
        <ele>13.800000190735</ele>
        <time>2019-05-16T12:08:14Z</time>
      </trkpt>
      <trkpt lat="52.45571" lon="4.94932">
        <ele>14.60000038147</ele>
        <time>2019-05-16T12:08:41Z</time>
      </trkpt>
      <trkpt lat="52.4568" lon="4.94984">
        <ele>13.60000038147</ele>
        <time>2019-05-16T12:09:05Z</time>
      </trkpt>
      <trkpt lat="52.45741" lon="4.95009">
        <ele>13.39999961853</ele>
        <time>2019-05-16T12:09:32Z</time>
      </trkpt>
      <trkpt lat="52.45841" lon="4.95031">
        <ele>13.199999809265</ele>
        <time>2019-05-16T12:09:59Z</time>
      </trkpt>
      <trkpt lat="52.45968" lon="4.95006">
        <ele>13.60000038147</ele>
        <time>2019-05-16T12:10:10Z</time>
      </trkpt>
      <trkpt lat="52.46067" lon="4.94968">
        <ele>13.199999809265</ele>
        <time>2019-05-16T12:10:22Z</time>
      </trkpt>
      <trkpt lat="52.46145" lon="4.94938">
        <ele>13.199999809265</ele>
        <time>2019-05-16T12:10:31Z</time>
      </trkpt>
      <trkpt lat="52.46243" lon="4.94903">
        <ele>13.39999961853</ele>
        <time>2019-05-16T12:10:43Z</time>
      </trkpt>
      <trkpt lat="52.46304" lon="4.94879">
        <ele>14</ele>
        <time>2019-05-16T12:10:54Z</time>
      </trkpt>
      <trkpt lat="52.46454" lon="4.94822">
        <ele>13.60000038147</ele>
        <time>2019-05-16T12:11:03Z</time>
      </trkpt>
      <trkpt lat="52.46503" lon="4.94803">
        <ele>13.60000038147</ele>
        <time>2019-05-16T12:11:16Z</time>
      </trkpt>
      <trkpt lat="52.46598" lon="4.94765">
        <ele>13.800000190735</ele>
        <time>2019-05-16T12:11:24Z</time>
      </trkpt>
      <trkpt lat="52.46706" lon="4.94721">
        <ele>13.800000190735</ele>
        <time>2019-05-16T12:11:37Z</time>
      </trkpt>
      <trkpt lat="52.46818" lon="4.94684">
        <ele>13.39999961853</ele>
        <time>2019-05-16T12:12:52Z</time>
      </trkpt>
      <trkpt lat="52.46903" lon="4.94657">
        <ele>13.39999961853</ele>
        <time>2019-05-16T12:13:02Z</time>
      </trkpt>
      <trkpt lat="52.47063" lon="4.94657">
        <ele>13.39999961853</ele>
        <time>2019-05-16T12:13:12Z</time>
      </trkpt>
      <trkpt lat="52.47072" lon="4.94657">
        <ele>13.199999809265</ele>
        <time>2019-05-16T12:13:19Z</time>
      </trkpt>
      <trkpt lat="52.47097" lon="4.94659">
        <ele>13.39999961853</ele>
        <time>2019-05-16T12:13:24Z</time>
      </trkpt>
      <trkpt lat="52.47215" lon="4.94662">
        <ele>13.199999809265</ele>
        <time>2019-05-16T12:13:28Z</time>
      </trkpt>
      <trkpt lat="52.47323" lon="4.94664">
        <ele>13.60000038147</ele>
        <time>2019-05-16T12:13:45Z</time>
      </trkpt>
      <trkpt lat="52.47393" lon="4.94665">
        <ele>14</ele>
        <time>2019-05-16T12:14:12Z</time>
      </trkpt>
      <trkpt lat="52.47517" lon="4.94666">
        <ele>13.800000190735</ele>
        <time>2019-05-16T12:14:42Z</time>
      </trkpt>
      <trkpt lat="52.47642" lon="4.9467">
        <ele>14</ele>
        <time>2019-05-16T12:15:07Z</time>
      </trkpt>
      <trkpt lat="52.47721" lon="4.94677">
        <ele>13.800000190735</ele>
        <time>2019-05-16T12:15:28Z</time>
      </trkpt>
      <trkpt lat="52.47843" lon="4.94688">
        <ele>13.60000038147</ele>
        <time>2019-05-16T12:15:52Z</time>
      </trkpt>
      <trkpt lat="52.4796" lon="4.94688">
        <ele>14</ele>
        <time>2019-05-16T12:16:16Z</time>
      </trkpt>
      <trkpt lat="52.4813" lon="4.94724">
        <ele>14</ele>
        <time>2019-05-16T12:16:41Z</time>
      </trkpt>
      <trkpt lat="52.48247" lon="4.94755">
        <ele>14.39999961853</ele>
        <time>2019-05-16T12:17:06Z</time>
      </trkpt>
      <trkpt lat="52.4836" lon="4.94785">
        <ele>14.199999809265</ele>
        <time>2019-05-16T12:17:28Z</time>
      </trkpt>
      <trkpt lat="52.48598" lon="4.94842">
        <ele>14.199999809265</ele>
        <time>2019-05-16T12:17:53Z</time>
      </trkpt>
      <trkpt lat="52.48707" lon="4.94871">
        <ele>14.39999961853</ele>
        <time>2019-05-16T12:18:17Z</time>
      </trkpt>
      <trkpt lat="52.48954" lon="4.94928">
        <ele>14.39999961853</ele>
        <time>2019-05-16T12:18:33Z</time>
      </trkpt>
      <trkpt lat="52.49228" lon="4.94839">
        <ele>14.39999961853</ele>
        <time>2019-05-16T12:18:56Z</time>
      </trkpt>
      <trkpt lat="52.49273" lon="4.94817">
        <ele>14.39999961853</ele>
        <time>2019-05-16T12:19:15Z</time>
      </trkpt>
      <trkpt lat="52.49298" lon="4.94774">
        <ele>14.39999961853</ele>
        <time>2019-05-16T12:19:39Z</time>
      </trkpt>
      <trkpt lat="52.49326" lon="4.94753">
        <ele>14</ele>
        <time>2019-05-16T12:20:04Z</time>
      </trkpt>
      <trkpt lat="52.49366" lon="4.94786">
        <ele>13.60000038147</ele>
        <time>2019-05-16T12:20:29Z</time>
      </trkpt>
      <trkpt lat="52.4944" lon="4.94764">
        <ele>14</ele>
        <time>2019-05-16T12:20:53Z</time>
      </trkpt>
      <trkpt lat="52.4952" lon="4.94739">
        <ele>14</ele>
        <time>2019-05-16T12:21:16Z</time>
      </trkpt>
      <trkpt lat="52.496" lon="4.94713">
        <ele>13.800000190735</ele>
        <time>2019-05-16T12:21:38Z</time>
      </trkpt>
      <trkpt lat="52.49629" lon="4.94698">
        <ele>13.60000038147</ele>
        <time>2019-05-16T12:21:53Z</time>
      </trkpt>
      <trkpt lat="52.49637" lon="4.9469">
        <ele>13</ele>
        <time>2019-05-16T12:22:16Z</time>
      </trkpt>
      <trkpt lat="52.49632" lon="4.94612">
        <ele>13.39999961853</ele>
        <time>2019-05-16T12:22:41Z</time>
      </trkpt>
      <trkpt lat="52.49624" lon="4.94599">
        <ele>14.199999809265</ele>
        <time>2019-05-16T12:22:57Z</time>
      </trkpt>
      <trkpt lat="52.49644" lon="4.94744">
        <ele>16</ele>
        <time>2019-05-16T12:23:20Z</time>
      </trkpt>
      <trkpt lat="52.49647" lon="4.94763">
        <ele>15.60000038147</ele>
        <time>2019-05-16T12:23:45Z</time>
      </trkpt>
      <trkpt lat="52.49658" lon="4.94812">
        <ele>15.60000038147</ele>
        <time>2019-05-16T12:24:12Z</time>
      </trkpt>
      <trkpt lat="52.49675" lon="4.94806">
        <ele>15.199999809265</ele>
        <time>2019-05-16T12:24:32Z</time>
      </trkpt>
      <trkpt lat="52.49766" lon="4.94762">
        <ele>14.800000190735</ele>
        <time>2019-05-16T12:25:47Z</time>
      </trkpt>
      <trkpt lat="52.49866" lon="4.94714">
        <ele>13.199999809265</ele>
        <time>2019-05-16T12:26:12Z</time>
      </trkpt>
      <trkpt lat="52.49903" lon="4.94749">
        <ele>13.199999809265</ele>
        <time>2019-05-16T12:26:28Z</time>
      </trkpt>
      <trkpt lat="52.49959" lon="4.94748">
        <ele>13.199999809265</ele>
        <time>2019-05-16T12:26:47Z</time>
      </trkpt>
      <trkpt lat="52.50021" lon="4.94664">
        <ele>13</ele>
        <time>2019-05-16T12:26:57Z</time>
      </trkpt>
      <trkpt lat="52.50154" lon="4.94621">
        <ele>13</ele>
        <time>2019-05-16T01:01:21Z</time>
      </trkpt>
      <trkpt lat="52.50232" lon="4.94628">
        <ele>13.39999961853</ele>
        <time>2019-05-16T01:01:28Z</time>
      </trkpt>
      <trkpt lat="52.50258" lon="4.94619">
        <ele>13.39999961853</ele>
        <time>2019-05-16T01:01:39Z</time>
      </trkpt>
      <trkpt lat="52.50301" lon="4.94592">
        <ele>13.199999809265</ele>
        <time>2019-05-16T01:01:51Z</time>
      </trkpt>
      <trkpt lat="52.5048" lon="4.94499">
        <ele>13.199999809265</ele>
        <time>2019-05-16T01:02:09Z</time>
      </trkpt>
      <trkpt lat="52.50568" lon="4.94467">
        <ele>13.60000038147</ele>
        <time>2019-05-16T01:02:27Z</time>
      </trkpt>
      <trkpt lat="52.50653" lon="4.94441">
        <ele>13.60000038147</ele>
        <time>2019-05-16T01:02:35Z</time>
      </trkpt>
      <trkpt lat="52.50725" lon="4.94467">
        <ele>13.60000038147</ele>
        <time>2019-05-16T01:02:56Z</time>
      </trkpt>
      <trkpt lat="52.50777" lon="4.94443">
        <ele>13.800000190735</ele>
        <time>2019-05-16T01:03:11Z</time>
      </trkpt>
      <trkpt lat="52.50788" lon="4.94421">
        <ele>14</ele>
        <time>2019-05-16T01:03:33Z</time>
      </trkpt>
      <trkpt lat="52.50805" lon="4.9444">
        <ele>14</ele>
        <time>2019-05-16T01:03:57Z</time>
      </trkpt>
      <trkpt lat="52.50858" lon="4.94483">
        <ele>14.39999961853</ele>
        <time>2019-05-16T01:04:05Z</time>
      </trkpt>
      <trkpt lat="52.50865" lon="4.94502">
        <ele>14.39999961853</ele>
        <time>2019-05-16T01:04:15Z</time>
      </trkpt>
      <trkpt lat="52.5091" lon="4.94527">
        <ele>14.60000038147</ele>
        <time>2019-05-16T01:04:34Z</time>
      </trkpt>
      <trkpt lat="52.5093" lon="4.94547">
        <ele>14.60000038147</ele>
        <time>2019-05-16T01:04:55Z</time>
      </trkpt>
      <trkpt lat="52.50946" lon="4.9456">
        <ele>14.800000190735</ele>
        <time>2019-05-16T01:05:17Z</time>
      </trkpt>
      <trkpt lat="52.50987" lon="4.94608">
        <ele>14.800000190735</ele>
        <time>2019-05-16T01:05:32Z</time>
      </trkpt>
      <trkpt lat="52.5104" lon="4.94653">
        <ele>15.199999809265</ele>
        <time>2019-05-16T01:05:50Z</time>
      </trkpt>
      <trkpt lat="52.51068" lon="4.94651">
        <ele>14.39999961853</ele>
        <time>2019-05-16T01:06:08Z</time>
      </trkpt>
      <trkpt lat="52.51047" lon="4.9463">
        <ele>14.800000190735</ele>
        <time>2019-05-16T01:06:27Z</time>
      </trkpt>
      <trkpt lat="52.51022" lon="4.9461">
        <ele>14.60000038147</ele>
        <time>2019-05-16T01:06:32Z</time>
      </trkpt>
      <trkpt lat="52.51017" lon="4.94605">
        <ele>14.800000190735</ele>
        <time>2019-05-16T01:06:37Z</time>
      </trkpt>
      <trkpt lat="52.51012" lon="4.94608">
        <ele>14.60000038147</ele>
        <time>2019-05-16T01:06:54Z</time>
      </trkpt>
      <trkpt lat="52.50992" lon="4.94642">
        <ele>14.60000038147</ele>
        <time>2019-05-16T01:07:06Z</time>
      </trkpt>
      <trkpt lat="52.5098" lon="4.94673">
        <ele>13.60000038147</ele>
        <time>2019-05-16T01:07:22Z</time>
      </trkpt>
      <trkpt lat="52.50968" lon="4.94699">
        <ele>13.800000190735</ele>
        <time>2019-05-16T01:07:42Z</time>
      </trkpt>
      <trkpt lat="52.50949" lon="4.94759">
        <ele>13.60000038147</ele>
        <time>2019-05-16T01:07:57Z</time>
      </trkpt>
      <trkpt lat="52.50937" lon="4.948">
        <ele>13.800000190735</ele>
        <time>2019-05-16T01:08:11Z</time>
      </trkpt>
      <trkpt lat="52.50926" lon="4.94841">
        <ele>13.800000190735</ele>
        <time>2019-05-16T01:08:56Z</time>
      </trkpt>
      <trkpt lat="52.5092" lon="4.94851">
        <ele>14</ele>
        <time>2019-05-16T01:09:05Z</time>
      </trkpt>
      <trkpt lat="52.50912" lon="4.94889">
        <ele>13.60000038147</ele>
        <time>2019-05-16T01:09:19Z</time>
      </trkpt>
      <trkpt lat="52.50919" lon="4.949">
        <ele>14.39999961853</ele>
        <time>2019-05-16T01:09:31Z</time>
      </trkpt>
      <trkpt lat="52.50945" lon="4.94778">
        <ele>14.39999961853</ele>
        <time>2019-05-16T01:09:38Z</time>
      </trkpt>
      <trkpt lat="52.50951" lon="4.94736">
        <ele>14.199999809265</ele>
        <time>2019-05-16T01:09:48Z</time>
      </trkpt>
      <trkpt lat="52.50975" lon="4.94669">
        <ele>14.199999809265</ele>
        <time>2019-05-16T01:10:03Z</time>
      </trkpt>
      <trkpt lat="52.50992" lon="4.9463">
        <ele>14.800000190735</ele>
        <time>2019-05-16T01:10:22Z</time>
      </trkpt>
      <trkpt lat="52.51005" lon="4.94585">
        <ele>15</ele>
        <time>2019-05-16T01:10:35Z</time>
      </trkpt>
      <trkpt lat="52.51021" lon="4.94554">
        <ele>14</ele>
        <time>2019-05-16T01:10:57Z</time>
      </trkpt>
      <trkpt lat="52.51042" lon="4.94502">
        <ele>13.60000038147</ele>
        <time>2019-05-16T01:11:15Z</time>
      </trkpt>
      <trkpt lat="52.51127" lon="4.94618">
        <ele>13.60000038147</ele>
        <time>2019-05-16T01:11:24Z</time>
      </trkpt>
      <trkpt lat="52.51138" lon="4.9469">
        <ele>13.800000190735</ele>
        <time>2019-05-16T01:11:33Z</time>
      </trkpt>
      <trkpt lat="52.5114" lon="4.94637">
        <ele>14.39999961853</ele>
        <time>2019-05-16T01:11:48Z</time>
      </trkpt>
      <trkpt lat="52.51136" lon="4.94607">
        <ele>14.199999809265</ele>
        <time>2019-05-16T01:12:13Z</time>
      </trkpt>
      <trkpt lat="52.51138" lon="4.9461">
        <ele>13.60000038147</ele>
        <time>2019-05-16T01:12:28Z</time>
      </trkpt>
      <trkpt lat="52.51147" lon="4.94662">
        <ele>13.60000038147</ele>
        <time>2019-05-16T01:12:43Z</time>
      </trkpt>
      <trkpt lat="52.5115" lon="4.9468">
        <ele>14.199999809265</ele>
        <time>2019-05-16T01:13:08Z</time>
      </trkpt>
      <trkpt lat="52.51166" lon="4.9469">
        <ele>14</ele>
        <time>2019-05-16T01:13:28Z</time>
      </trkpt>
      <trkpt lat="52.51214" lon="4.94648">
        <ele>14.199999809265</ele>
        <time>2019-05-16T01:13:48Z</time>
      </trkpt>
      <trkpt lat="52.51275" lon="4.94617">
        <ele>14.60000038147</ele>
        <time>2019-05-16T01:14:05Z</time>
      </trkpt>
      <trkpt lat="52.51422" lon="4.94577">
        <ele>11.39999961853</ele>
        <time>2019-05-16T01:14:25Z</time>
      </trkpt>
      <trkpt lat="52.51489" lon="4.94565">
        <ele>11</ele>
        <time>2019-05-16T01:14:42Z</time>
      </trkpt>
      <trkpt lat="52.51613" lon="4.94533">
        <ele>11</ele>
        <time>2019-05-16T01:15:06Z</time>
      </trkpt>
      <trkpt lat="52.51704" lon="4.94513">
        <ele>11.199999809265</ele>
        <time>2019-05-16T01:15:16Z</time>
      </trkpt>
      <trkpt lat="52.518" lon="4.94495">
        <ele>11.60000038147</ele>
        <time>2019-05-16T01:15:30Z</time>
      </trkpt>
      <trkpt lat="52.51856" lon="4.94485">
        <ele>11.39999961853</ele>
        <time>2019-05-16T01:15:49Z</time>
      </trkpt>
      <trkpt lat="52.51919" lon="4.94505">
        <ele>11.199999809265</ele>
        <time>2019-05-16T01:16:10Z</time>
      </trkpt>
      <trkpt lat="52.52082" lon="4.94603">
        <ele>11.199999809265</ele>
        <time>2019-05-16T01:16:30Z</time>
      </trkpt>
      <trkpt lat="52.52149" lon="4.94645">
        <ele>11.39999961853</ele>
        <time>2019-05-16T01:16:48Z</time>
      </trkpt>
      <trkpt lat="52.5222" lon="4.94688">
        <ele>11.199999809265</ele>
        <time>2019-05-16T01:17:09Z</time>
      </trkpt>
      <trkpt lat="52.52271" lon="4.94726">
        <ele>11.199999809265</ele>
        <time>2019-05-16T01:17:27Z</time>
      </trkpt>
      <trkpt lat="52.52401" lon="4.94805">
        <ele>10.60000038147</ele>
        <time>2019-05-16T01:17:36Z</time>
      </trkpt>
      <trkpt lat="52.52707" lon="4.9499">
        <ele>10.60000038147</ele>
        <time>2019-05-16T01:17:40Z</time>
      </trkpt>
      <trkpt lat="52.52805" lon="4.9505">
        <ele>10.39999961853</ele>
        <time>2019-05-16T01:17:56Z</time>
      </trkpt>
      <trkpt lat="52.5288" lon="4.95097">
        <ele>10.800000190735</ele>
        <time>2019-05-16T01:18:19Z</time>
      </trkpt>
      <trkpt lat="52.52986" lon="4.95162">
        <ele>11</ele>
        <time>2019-05-16T01:18:36Z</time>
      </trkpt>
      <trkpt lat="52.53048" lon="4.95201">
        <ele>11</ele>
        <time>2019-05-16T01:18:49Z</time>
      </trkpt>
      <trkpt lat="52.53133" lon="4.95246">
        <ele>10.39999961853</ele>
        <time>2019-05-16T01:19:03Z</time>
      </trkpt>
      <trkpt lat="52.53232" lon="4.95305">
        <ele>10.60000038147</ele>
        <time>2019-05-16T01:19:15Z</time>
      </trkpt>
      <trkpt lat="52.53305" lon="4.95349">
        <ele>10.199999809265</ele>
        <time>2019-05-16T01:19:39Z</time>
      </trkpt>
      <trkpt lat="52.5337" lon="4.95389">
        <ele>10</ele>
        <time>2019-05-16T01:20:03Z</time>
      </trkpt>
      <trkpt lat="52.53716" lon="4.95616">
        <ele>10</ele>
        <time>2019-05-16T01:20:16Z</time>
      </trkpt>
      <trkpt lat="52.53796" lon="4.95661">
        <ele>9.8000001907349</ele>
        <time>2019-05-16T01:20:34Z</time>
      </trkpt>
      <trkpt lat="52.53823" lon="4.95631">
        <ele>10.39999961853</ele>
        <time>2019-05-16T01:20:45Z</time>
      </trkpt>
      <trkpt lat="52.53866" lon="4.95469">
        <ele>9.6000003814697</ele>
        <time>2019-05-16T01:20:54Z</time>
      </trkpt>
      <trkpt lat="52.53903" lon="4.95306">
        <ele>9.6000003814697</ele>
        <time>2019-05-16T01:21:19Z</time>
      </trkpt>
      <trkpt lat="52.53929" lon="4.95199">
        <ele>10.199999809265</ele>
        <time>2019-05-16T01:21:39Z</time>
      </trkpt>
      <trkpt lat="52.53944" lon="4.95123">
        <ele>10.39999961853</ele>
        <time>2019-05-16T01:21:54Z</time>
      </trkpt>
      <trkpt lat="52.53976" lon="4.94983">
        <ele>10.199999809265</ele>
        <time>2019-05-16T01:22:19Z</time>
      </trkpt>
      <trkpt lat="52.54003" lon="4.94864">
        <ele>10.199999809265</ele>
        <time>2019-05-16T01:22:38Z</time>
      </trkpt>
      <trkpt lat="52.54024" lon="4.94764">
        <ele>10</ele>
        <time>2019-05-16T01:22:44Z</time>
      </trkpt>
      <trkpt lat="52.5406" lon="4.94612">
        <ele>10</ele>
        <time>2019-05-16T01:22:59Z</time>
      </trkpt>
      <trkpt lat="52.54093" lon="4.94472">
        <ele>10.199999809265</ele>
        <time>2019-05-16T01:23:08Z</time>
      </trkpt>
      <trkpt lat="52.54127" lon="4.94323">
        <ele>10</ele>
        <time>2019-05-16T01:23:28Z</time>
      </trkpt>
      <trkpt lat="52.54168" lon="4.9414">
        <ele>10.199999809265</ele>
        <time>2019-05-16T01:23:41Z</time>
      </trkpt>
      <trkpt lat="52.54198" lon="4.93997">
        <ele>10.199999809265</ele>
        <time>2019-05-16T01:23:52Z</time>
      </trkpt>
      <trkpt lat="52.54228" lon="4.93862">
        <ele>10</ele>
        <time>2019-05-16T01:24:02Z</time>
      </trkpt>
      <trkpt lat="52.54252" lon="4.9377">
        <ele>10.199999809265</ele>
        <time>2019-05-16T01:24:11Z</time>
      </trkpt>
      <trkpt lat="52.5427" lon="4.93693">
        <ele>10</ele>
        <time>2019-05-16T01:24:20Z</time>
      </trkpt>
      <trkpt lat="52.54292" lon="4.93595">
        <ele>10.199999809265</ele>
        <time>2019-05-16T01:24:34Z</time>
      </trkpt>
      <trkpt lat="52.54319" lon="4.93477">
        <ele>10.199999809265</ele>
        <time>2019-05-16T01:24:44Z</time>
      </trkpt>
      <trkpt lat="52.54402" lon="4.93109">
        <ele>9.6000003814697</ele>
        <time>2019-05-16T01:24:57Z</time>
      </trkpt>
      <trkpt lat="52.54432" lon="4.92976">
        <ele>9.6000003814697</ele>
        <time>2019-05-16T01:25:08Z</time>
      </trkpt>
      <trkpt lat="52.54461" lon="4.92851">
        <ele>9.8000001907349</ele>
        <time>2019-05-16T01:25:28Z</time>
      </trkpt>
      <trkpt lat="52.54533" lon="4.92534">
        <ele>9.8000001907349</ele>
        <time>2019-05-16T01:25:47Z</time>
      </trkpt>
      <trkpt lat="52.54579" lon="4.92331">
        <ele>9.3999996185303</ele>
        <time>2019-05-16T01:26:00Z</time>
      </trkpt>
      <trkpt lat="52.54623" lon="4.92132">
        <ele>9.3999996185303</ele>
        <time>2019-05-16T01:26:20Z</time>
      </trkpt>
      <trkpt lat="52.5463" lon="4.92108">
        <ele>9.6000003814697</ele>
        <time>2019-05-16T01:26:40Z</time>
      </trkpt>
      <trkpt lat="52.5465" lon="4.92012">
        <ele>10</ele>
        <time>2019-05-16T01:26:56Z</time>
      </trkpt>
      <trkpt lat="52.54698" lon="4.91796">
        <ele>10</ele>
        <time>2019-05-16T01:27:07Z</time>
      </trkpt>
      <trkpt lat="52.54723" lon="4.91735">
        <ele>10.199999809265</ele>
        <time>2019-05-16T01:27:23Z</time>
      </trkpt>
      <trkpt lat="52.54785" lon="4.91448">
        <ele>10.199999809265</ele>
        <time>2019-05-16T01:27:40Z</time>
      </trkpt>
      <trkpt lat="52.54809" lon="4.91344">
        <ele>10.39999961853</ele>
        <time>2019-05-16T01:27:58Z</time>
      </trkpt>
      <trkpt lat="52.54819" lon="4.9131">
        <ele>10.60000038147</ele>
        <time>2019-05-16T01:28:06Z</time>
      </trkpt>
      <trkpt lat="52.54865" lon="4.91313">
        <ele>10.800000190735</ele>
        <time>2019-05-16T01:28:23Z</time>
      </trkpt>
      <trkpt lat="52.54947" lon="4.91361">
        <ele>10.39999961853</ele>
        <time>2019-05-16T01:28:41Z</time>
      </trkpt>
      <trkpt lat="52.55108" lon="4.91449">
        <ele>10</ele>
        <time>2019-05-16T01:29:01Z</time>
      </trkpt>
      <trkpt lat="52.55122" lon="4.91455">
        <ele>10</ele>
        <time>2019-05-16T01:29:17Z</time>
      </trkpt>
      <trkpt lat="52.55137" lon="4.91457">
        <ele>9.8000001907349</ele>
        <time>2019-05-16T01:29:34Z</time>
      </trkpt>
      <trkpt lat="52.55207" lon="4.91499">
        <ele>9.6000003814697</ele>
        <time>2019-05-16T01:29:46Z</time>
      </trkpt>
      <trkpt lat="52.55287" lon="4.91548">
        <ele>9.6000003814697</ele>
        <time>2019-05-16T01:30:04Z</time>
      </trkpt>
      <trkpt lat="52.55345" lon="4.91584">
        <ele>9.8000001907349</ele>
        <time>2019-05-16T01:30:21Z</time>
      </trkpt>
      <trkpt lat="52.554" lon="4.91618">
        <ele>9.6000003814697</ele>
        <time>2019-05-16T01:30:38Z</time>
      </trkpt>
      <trkpt lat="52.55546" lon="4.91704">
        <ele>9.6000003814697</ele>
        <time>2019-05-16T01:30:49Z</time>
      </trkpt>
      <trkpt lat="52.55621" lon="4.9175">
        <ele>9.1999998092651</ele>
        <time>2019-05-16T01:31:48Z</time>
      </trkpt>
      <trkpt lat="52.55683" lon="4.91788">
        <ele>9</ele>
        <time>2019-05-16T01:32:06Z</time>
      </trkpt>
      <trkpt lat="52.56091" lon="4.92035">
        <ele>9</ele>
        <time>2019-05-16T01:32:20Z</time>
      </trkpt>
      <trkpt lat="52.56143" lon="4.92067">
        <ele>8.8000001907349</ele>
        <time>2019-05-16T01:32:31Z</time>
      </trkpt>
      <trkpt lat="52.56325" lon="4.92178">
        <ele>8.8000001907349</ele>
        <time>2019-05-16T01:32:49Z</time>
      </trkpt>
      <trkpt lat="52.5639" lon="4.92219">
        <ele>9</ele>
        <time>2019-05-16T01:33:03Z</time>
      </trkpt>
      <trkpt lat="52.56409" lon="4.92206">
        <ele>9.3999996185303</ele>
        <time>2019-05-16T01:33:16Z</time>
      </trkpt>
      <trkpt lat="52.56458" lon="4.91985">
        <ele>9</ele>
        <time>2019-05-16T01:33:24Z</time>
      </trkpt>
      <trkpt lat="52.56481" lon="4.91874">
        <ele>9</ele>
        <time>2019-05-16T01:33:37Z</time>
      </trkpt>
      <trkpt lat="52.56482" lon="4.91864">
        <ele>8.6000003814697</ele>
        <time>2019-05-16T01:33:53Z</time>
      </trkpt>
      <trkpt lat="52.56481" lon="4.9187">
        <ele>8.8000001907349</ele>
        <time>2019-05-16T01:34:08Z</time>
      </trkpt>
      <trkpt lat="52.56469" lon="4.91928">
        <ele>9</ele>
        <time>2019-05-16T01:34:25Z</time>
      </trkpt>
      <trkpt lat="52.56453" lon="4.92005">
        <ele>9</ele>
        <time>2019-05-16T01:34:35Z</time>
      </trkpt>
      <trkpt lat="52.56418" lon="4.92149">
        <ele>9.1999998092651</ele>
        <time>2019-05-16T01:34:49Z</time>
      </trkpt>
      <trkpt lat="52.56405" lon="4.92219">
        <ele>9.1999998092651</ele>
        <time>2019-05-16T01:34:58Z</time>
      </trkpt>
      <trkpt lat="52.56426" lon="4.9224">
        <ele>9.3999996185303</ele>
        <time>2019-05-16T01:35:09Z</time>
      </trkpt>
      <trkpt lat="52.56492" lon="4.92281">
        <ele>9</ele>
        <time>2019-05-16T01:35:26Z</time>
      </trkpt>
      <trkpt lat="52.5669" lon="4.92401">
        <ele>9.3999996185303</ele>
        <time>2019-05-16T01:35:45Z</time>
      </trkpt>
      <trkpt lat="52.56782" lon="4.92454">
        <ele>9.1999998092651</ele>
        <time>2019-05-16T01:36:01Z</time>
      </trkpt>
      <trkpt lat="52.56876" lon="4.92511">
        <ele>9.3999996185303</ele>
        <time>2019-05-16T01:36:21Z</time>
      </trkpt>
      <trkpt lat="52.56968" lon="4.92567">
        <ele>9.3999996185303</ele>
        <time>2019-05-16T01:36:41Z</time>
      </trkpt>
      <trkpt lat="52.57056" lon="4.92623">
        <ele>9.1999998092651</ele>
        <time>2019-05-16T01:37:01Z</time>
      </trkpt>
      <trkpt lat="52.57235" lon="4.92732">
        <ele>9.6000003814697</ele>
        <time>2019-05-16T01:37:12Z</time>
      </trkpt>
      <trkpt lat="52.57313" lon="4.92779">
        <ele>9.6000003814697</ele>
        <time>2019-05-16T01:37:21Z</time>
      </trkpt>
      <trkpt lat="52.57392" lon="4.92826">
        <ele>10.199999809265</ele>
        <time>2019-05-16T01:37:33Z</time>
      </trkpt>
      <trkpt lat="52.57483" lon="4.92882">
        <ele>10.199999809265</ele>
        <time>2019-05-16T01:37:50Z</time>
      </trkpt>
      <trkpt lat="52.5757" lon="4.92936">
        <ele>9.8000001907349</ele>
        <time>2019-05-16T01:37:59Z</time>
      </trkpt>
      <trkpt lat="52.57638" lon="4.92974">
        <ele>10.199999809265</ele>
        <time>2019-05-16T01:38:09Z</time>
      </trkpt>
      <trkpt lat="52.57707" lon="4.93014">
        <ele>10.39999961853</ele>
        <time>2019-05-16T01:38:27Z</time>
      </trkpt>
      <trkpt lat="52.57933" lon="4.93155">
        <ele>9.8000001907349</ele>
        <time>2019-05-16T01:38:47Z</time>
      </trkpt>
      <trkpt lat="52.57977" lon="4.93178">
        <ele>9.8000001907349</ele>
        <time>2019-05-16T01:39:03Z</time>
      </trkpt>
      <trkpt lat="52.57969" lon="4.93178">
        <ele>10</ele>
        <time>2019-05-16T01:39:19Z</time>
      </trkpt>
      <trkpt lat="52.57981" lon="4.93185">
        <ele>9.8000001907349</ele>
        <time>2019-05-16T01:39:32Z</time>
      </trkpt>
      <trkpt lat="52.58018" lon="4.93206">
        <ele>9.8000001907349</ele>
        <time>2019-05-16T01:41:18Z</time>
      </trkpt>
      <trkpt lat="52.58179" lon="4.93304">
        <ele>10.199999809265</ele>
        <time>2019-05-16T01:41:38Z</time>
      </trkpt>
      <trkpt lat="52.58279" lon="4.93365">
        <ele>10.39999961853</ele>
        <time>2019-05-16T01:41:53Z</time>
      </trkpt>
      <trkpt lat="52.58339" lon="4.93402">
        <ele>10.39999961853</ele>
        <time>2019-05-16T01:42:04Z</time>
      </trkpt>
      <trkpt lat="52.58394" lon="4.93435">
        <ele>10.199999809265</ele>
        <time>2019-05-16T01:42:18Z</time>
      </trkpt>
      <trkpt lat="52.5862" lon="4.93572">
        <ele>9.8000001907349</ele>
        <time>2019-05-16T01:42:32Z</time>
      </trkpt>
      <trkpt lat="52.58688" lon="4.93614">
        <ele>10.199999809265</ele>
        <time>2019-05-16T01:42:44Z</time>
      </trkpt>
      <trkpt lat="52.58768" lon="4.93656">
        <ele>9.8000001907349</ele>
        <time>2019-05-16T01:42:54Z</time>
      </trkpt>
      <trkpt lat="52.58805" lon="4.93631">
        <ele>9.8000001907349</ele>
        <time>2019-05-16T01:43:10Z</time>
      </trkpt>
      <trkpt lat="52.58826" lon="4.9366">
        <ele>9.6000003814697</ele>
        <time>2019-05-16T01:43:22Z</time>
      </trkpt>
      <trkpt lat="52.58915" lon="4.93745">
        <ele>9.6000003814697</ele>
        <time>2019-05-16T01:43:32Z</time>
      </trkpt>
      <trkpt lat="52.59004" lon="4.938">
        <ele>9.8000001907349</ele>
        <time>2019-05-16T01:43:37Z</time>
      </trkpt>
      <trkpt lat="52.59067" lon="4.93837">
        <ele>9.8000001907349</ele>
        <time>2019-05-16T01:43:55Z</time>
      </trkpt>
      <trkpt lat="52.59164" lon="4.93899">
        <ele>10</ele>
        <time>2019-05-16T01:44:14Z</time>
      </trkpt>
      <trkpt lat="52.59172" lon="4.93905">
        <ele>9.8000001907349</ele>
        <time>2019-05-16T01:46:14Z</time>
      </trkpt>
      <trkpt lat="52.59242" lon="4.93947">
        <ele>9.8000001907349</ele>
        <time>2019-05-16T01:46:34Z</time>
      </trkpt>
      <trkpt lat="52.59468" lon="4.94082">
        <ele>10.199999809265</ele>
        <time>2019-05-16T01:46:49Z</time>
      </trkpt>
      <trkpt lat="52.59687" lon="4.9422">
        <ele>9.8000001907349</ele>
        <time>2019-05-16T01:47:03Z</time>
      </trkpt>
      <trkpt lat="52.59785" lon="4.94278">
        <ele>9.8000001907349</ele>
        <time>2019-05-16T01:47:15Z</time>
      </trkpt>
      <trkpt lat="52.59865" lon="4.94326">
        <ele>10</ele>
        <time>2019-05-16T01:47:35Z</time>
      </trkpt>
      <trkpt lat="52.5996" lon="4.94383">
        <ele>10</ele>
        <time>2019-05-16T01:47:45Z</time>
      </trkpt>
      <trkpt lat="52.6002" lon="4.9442">
        <ele>9.6000003814697</ele>
        <time>2019-05-16T01:47:53Z</time>
      </trkpt>
      <trkpt lat="52.60071" lon="4.94448">
        <ele>9.8000001907349</ele>
        <time>2019-05-16T01:48:03Z</time>
      </trkpt>
      <trkpt lat="52.6012" lon="4.94482">
        <ele>9.3999996185303</ele>
        <time>2019-05-16T01:48:22Z</time>
      </trkpt>
      <trkpt lat="52.60177" lon="4.94524">
        <ele>9.3999996185303</ele>
        <time>2019-05-16T01:48:38Z</time>
      </trkpt>
      <trkpt lat="52.60269" lon="4.94585">
        <ele>9.1999998092651</ele>
        <time>2019-05-16T01:48:57Z</time>
      </trkpt>
      <trkpt lat="52.60376" lon="4.94659">
        <ele>9.1999998092651</ele>
        <time>2019-05-16T01:49:13Z</time>
      </trkpt>
      <trkpt lat="52.60394" lon="4.94672">
        <ele>9</ele>
        <time>2019-05-16T01:49:30Z</time>
      </trkpt>
      <trkpt lat="52.60455" lon="4.94713">
        <ele>9</ele>
        <time>2019-05-16T01:49:49Z</time>
      </trkpt>
      <trkpt lat="52.60548" lon="4.94776">
        <ele>9.3999996185303</ele>
        <time>2019-05-16T01:49:56Z</time>
      </trkpt>
      <trkpt lat="52.60615" lon="4.94823">
        <ele>9.3999996185303</ele>
        <time>2019-05-16T01:50:07Z</time>
      </trkpt>
      <trkpt lat="52.60725" lon="4.94898">
        <ele>9.6000003814697</ele>
        <time>2019-05-16T01:50:19Z</time>
      </trkpt>
      <trkpt lat="52.60815" lon="4.94962">
        <ele>9.6000003814697</ele>
        <time>2019-05-16T01:50:25Z</time>
      </trkpt>
      <trkpt lat="52.61029" lon="4.9511">
        <ele>10</ele>
        <time>2019-05-16T01:50:41Z</time>
      </trkpt>
      <trkpt lat="52.61123" lon="4.95173">
        <ele>10.800000190735</ele>
        <time>2019-05-16T01:50:59Z</time>
      </trkpt>
      <trkpt lat="52.61284" lon="4.95304">
        <ele>15</ele>
        <time>2019-05-16T01:51:08Z</time>
      </trkpt>
      <trkpt lat="52.61313" lon="4.95334">
        <ele>15.39999961853</ele>
        <time>2019-05-16T01:51:24Z</time>
      </trkpt>
      <trkpt lat="52.61349" lon="4.9537">
        <ele>15.60000038147</ele>
        <time>2019-05-16T01:51:44Z</time>
      </trkpt>
      <trkpt lat="52.61382" lon="4.95402">
        <ele>15.39999961853</ele>
        <time>2019-05-16T01:52:02Z</time>
      </trkpt>
      <trkpt lat="52.61454" lon="4.95473">
        <ele>14.39999961853</ele>
        <time>2019-05-16T01:52:26Z</time>
      </trkpt>
      <trkpt lat="52.61483" lon="4.95476">
        <ele>14</ele>
        <time>2019-05-16T01:52:43Z</time>
      </trkpt>
      <trkpt lat="52.61482" lon="4.95428">
        <ele>12.60000038147</ele>
        <time>2019-05-16T01:53:05Z</time>
      </trkpt>
      <trkpt lat="52.61487" lon="4.95364">
        <ele>12.39999961853</ele>
        <time>2019-05-16T01:53:19Z</time>
      </trkpt>
      <trkpt lat="52.61482" lon="4.95341">
        <ele>12.39999961853</ele>
        <time>2019-05-16T01:53:39Z</time>
      </trkpt>
      <trkpt lat="52.61461" lon="4.95336">
        <ele>12.199999809265</ele>
        <time>2019-05-16T01:55:17Z</time>
      </trkpt>
      <trkpt lat="52.6147" lon="4.95338">
        <ele>11.60000038147</ele>
        <time>2019-05-16T01:55:22Z</time>
      </trkpt>
      <trkpt lat="52.61484" lon="4.95331">
        <ele>11.60000038147</ele>
        <time>2019-05-16T01:55:34Z</time>
      </trkpt>
      <trkpt lat="52.61487" lon="4.95335">
        <ele>13.39999961853</ele>
        <time>2019-05-16T01:55:49Z</time>
      </trkpt>
      <trkpt lat="52.61482" lon="4.9541">
        <ele>13.39999961853</ele>
        <time>2019-05-16T01:56:05Z</time>
      </trkpt>
      <trkpt lat="52.61456" lon="4.95442">
        <ele>13.39999961853</ele>
        <time>2019-05-16T01:56:30Z</time>
      </trkpt>
      <trkpt lat="52.61437" lon="4.95505">
        <ele>12.60000038147</ele>
        <time>2019-05-16T01:56:47Z</time>
      </trkpt>
      <trkpt lat="52.61447" lon="4.95651">
        <ele>12.800000190735</ele>
        <time>2019-05-16T01:56:58Z</time>
      </trkpt>
      <trkpt lat="52.61459" lon="4.95734">
        <ele>13.39999961853</ele>
        <time>2019-05-16T01:57:10Z</time>
      </trkpt>
      <trkpt lat="52.61479" lon="4.9573">
        <ele>13.60000038147</ele>
        <time>2019-05-16T01:57:18Z</time>
      </trkpt>
      <trkpt lat="52.6151" lon="4.9572">
        <ele>13.39999961853</ele>
        <time>2019-05-16T01:57:31Z</time>
      </trkpt>
      <trkpt lat="52.61513" lon="4.95739">
        <ele>12.60000038147</ele>
        <time>2019-05-16T01:57:48Z</time>
      </trkpt>
      <trkpt lat="52.61542" lon="4.95982">
        <ele>11.800000190735</ele>
        <time>2019-05-16T01:57:57Z</time>
      </trkpt>
      <trkpt lat="52.61561" lon="4.96107">
        <ele>12</ele>
        <time>2019-05-16T01:58:07Z</time>
      </trkpt>
      <trkpt lat="52.61576" lon="4.96208">
        <ele>11.60000038147</ele>
        <time>2019-05-16T01:58:15Z</time>
      </trkpt>
      <trkpt lat="52.61622" lon="4.96545">
        <ele>11.60000038147</ele>
        <time>2019-05-16T01:58:31Z</time>
      </trkpt>
      <trkpt lat="52.61629" lon="4.96621">
        <ele>11.39999961853</ele>
        <time>2019-05-16T01:58:49Z</time>
      </trkpt>
      <trkpt lat="52.61651" lon="4.96796">
        <ele>12</ele>
        <time>2019-05-16T01:58:58Z</time>
      </trkpt>
      <trkpt lat="52.61682" lon="4.97003">
        <ele>12</ele>
        <time>2019-05-16T01:59:02Z</time>
      </trkpt>
      <trkpt lat="52.61699" lon="4.97148">
        <ele>12.199999809265</ele>
        <time>2019-05-16T01:59:09Z</time>
      </trkpt>
      <trkpt lat="52.6174" lon="4.9746">
        <ele>12.199999809265</ele>
        <time>2019-05-16T01:59:27Z</time>
      </trkpt>
      <trkpt lat="52.61757" lon="4.97602">
        <ele>12</ele>
        <time>2019-05-16T01:59:47Z</time>
      </trkpt>
      <trkpt lat="52.61839" lon="4.98227">
        <ele>12</ele>
        <time>2019-05-16T02:00:00Z</time>
      </trkpt>
      <trkpt lat="52.61867" lon="4.98491">
        <ele>12</ele>
        <time>2019-05-16T02:00:19Z</time>
      </trkpt>
      <trkpt lat="52.61878" lon="4.98639">
        <ele>12.199999809265</ele>
        <time>2019-05-16T02:00:39Z</time>
      </trkpt>
      <trkpt lat="52.61902" lon="4.98807">
        <ele>11.800000190735</ele>
        <time>2019-05-16T02:00:59Z</time>
      </trkpt>
      <trkpt lat="52.61926" lon="4.99022">
        <ele>11.800000190735</ele>
        <time>2019-05-16T02:01:18Z</time>
      </trkpt>
      <trkpt lat="52.61945" lon="4.99199">
        <ele>12</ele>
        <time>2019-05-16T02:01:22Z</time>
      </trkpt>
      <trkpt lat="52.61968" lon="4.99414">
        <ele>12</ele>
        <time>2019-05-16T02:01:37Z</time>
      </trkpt>
      <trkpt lat="52.61986" lon="4.99583">
        <ele>11.60000038147</ele>
        <time>2019-05-16T02:01:53Z</time>
      </trkpt>
      <trkpt lat="52.62005" lon="4.99742">
        <ele>11.800000190735</ele>
        <time>2019-05-16T02:02:03Z</time>
      </trkpt>
      <trkpt lat="52.62103" lon="5.00471">
        <ele>11.800000190735</ele>
        <time>2019-05-16T02:02:11Z</time>
      </trkpt>
      <trkpt lat="52.62117" lon="5.0056">
        <ele>11.60000038147</ele>
        <time>2019-05-16T02:02:27Z</time>
      </trkpt>
      <trkpt lat="52.62146" lon="5.00673">
        <ele>11.60000038147</ele>
        <time>2019-05-16T02:02:42Z</time>
      </trkpt>
      <trkpt lat="52.62196" lon="5.00701">
        <ele>11.60000038147</ele>
        <time>2019-05-16T02:02:58Z</time>
      </trkpt>
      <trkpt lat="52.62218" lon="5.00725">
        <ele>11.39999961853</ele>
        <time>2019-05-16T02:03:16Z</time>
      </trkpt>
      <trkpt lat="52.62206" lon="5.00752">
        <ele>10.199999809265</ele>
        <time>2019-05-16T02:03:38Z</time>
      </trkpt>
      <trkpt lat="52.62169" lon="5.00766">
        <ele>10.800000190735</ele>
        <time>2019-05-16T02:04:03Z</time>
      </trkpt>
      <trkpt lat="52.62159" lon="5.00777">
        <ele>11.60000038147</ele>
        <time>2019-05-16T02:04:12Z</time>
      </trkpt>
      <trkpt lat="52.62166" lon="5.00825">
        <ele>12</ele>
        <time>2019-05-16T02:04:51Z</time>
      </trkpt>
      <trkpt lat="52.62175" lon="5.00894">
        <ele>11.800000190735</ele>
        <time>2019-05-16T02:05:09Z</time>
      </trkpt>
      <trkpt lat="52.62224" lon="5.01195">
        <ele>11.800000190735</ele>
        <time>2019-05-16T02:05:29Z</time>
      </trkpt>
      <trkpt lat="52.62239" lon="5.01238">
        <ele>12</ele>
        <time>2019-05-16T02:05:49Z</time>
      </trkpt>
      <trkpt lat="52.62256" lon="5.01238">
        <ele>11.199999809265</ele>
        <time>2019-05-16T02:06:10Z</time>
      </trkpt>
      <trkpt lat="52.62433" lon="5.01267">
        <ele>10.39999961853</ele>
        <time>2019-05-16T02:06:32Z</time>
      </trkpt>
      <trkpt lat="52.62494" lon="5.01287">
        <ele>10.60000038147</ele>
        <time>2019-05-16T02:06:48Z</time>
      </trkpt>
      <trkpt lat="52.62518" lon="5.01304">
        <ele>10.60000038147</ele>
        <time>2019-05-16T02:06:55Z</time>
      </trkpt>
      <trkpt lat="52.62561" lon="5.01377">
        <ele>10.800000190735</ele>
        <time>2019-05-16T02:07:06Z</time>
      </trkpt>
      <trkpt lat="52.62626" lon="5.0137">
        <ele>11.199999809265</ele>
        <time>2019-05-16T02:07:23Z</time>
      </trkpt>
      <trkpt lat="52.62707" lon="5.01356">
        <ele>11</ele>
        <time>2019-05-16T02:07:38Z</time>
      </trkpt>
      <trkpt lat="52.62762" lon="5.0135">
        <ele>11</ele>
        <time>2019-05-16T02:07:51Z</time>
      </trkpt>
      <trkpt lat="52.62897" lon="5.01379">
        <ele>10.60000038147</ele>
        <time>2019-05-16T02:08:08Z</time>
      </trkpt>
      <trkpt lat="52.62961" lon="5.01418">
        <ele>10.60000038147</ele>
        <time>2019-05-16T02:08:28Z</time>
      </trkpt>
      <trkpt lat="52.63041" lon="5.01403">
        <ele>10.800000190735</ele>
        <time>2019-05-16T02:08:40Z</time>
      </trkpt>
      <trkpt lat="52.63122" lon="5.01409">
        <ele>11.39999961853</ele>
        <time>2019-05-16T02:09:13Z</time>
      </trkpt>
      <trkpt lat="52.63196" lon="5.01435">
        <ele>11.60000038147</ele>
        <time>2019-05-16T02:09:23Z</time>
      </trkpt>
      <trkpt lat="52.63218" lon="5.01439">
        <ele>12.800000190735</ele>
        <time>2019-05-16T02:09:30Z</time>
      </trkpt>
      <trkpt lat="52.6324" lon="5.01504">
        <ele>12.800000190735</ele>
        <time>2019-05-16T02:09:44Z</time>
      </trkpt>
      <trkpt lat="52.63294" lon="5.01656">
        <ele>11.60000038147</ele>
        <time>2019-05-16T02:10:01Z</time>
      </trkpt>
      <trkpt lat="52.63337" lon="5.01732">
        <ele>11.60000038147</ele>
        <time>2019-05-16T02:10:19Z</time>
      </trkpt>
      <trkpt lat="52.63369" lon="5.01708">
        <ele>12.800000190735</ele>
        <time>2019-05-16T02:10:38Z</time>
      </trkpt>
      <trkpt lat="52.63413" lon="5.0178">
        <ele>13.60000038147</ele>
        <time>2019-05-16T02:10:58Z</time>
      </trkpt>
      <trkpt lat="52.63433" lon="5.01821">
        <ele>13.60000038147</ele>
        <time>2019-05-16T02:11:28Z</time>
      </trkpt>
      <trkpt lat="52.63456" lon="5.0189">
        <ele>13.199999809265</ele>
        <time>2019-05-16T02:11:44Z</time>
      </trkpt>
      <trkpt lat="52.63475" lon="5.02024">
        <ele>13.199999809265</ele>
        <time>2019-05-16T02:12:02Z</time>
      </trkpt>
      <trkpt lat="52.63483" lon="5.02137">
        <ele>13.39999961853</ele>
        <time>2019-05-16T02:12:23Z</time>
      </trkpt>
      <trkpt lat="52.6347" lon="5.0225">
        <ele>11.60000038147</ele>
        <time>2019-05-16T02:12:41Z</time>
      </trkpt>
      <trkpt lat="52.63551" lon="5.02583">
        <ele>11.60000038147</ele>
        <time>2019-05-16T02:12:55Z</time>
      </trkpt>
      <trkpt lat="52.63613" lon="5.02543">
        <ele>11.60000038147</ele>
        <time>2019-05-16T02:13:13Z</time>
      </trkpt>
      <trkpt lat="52.63639" lon="5.02657">
        <ele>11.800000190735</ele>
        <time>2019-05-16T02:13:28Z</time>
      </trkpt>
      <trkpt lat="52.63708" lon="5.0266">
        <ele>11.800000190735</ele>
        <time>2019-05-16T02:13:42Z</time>
      </trkpt>
      <trkpt lat="52.63724" lon="5.0269">
        <ele>12</ele>
        <time>2019-05-16T02:14:00Z</time>
      </trkpt>
      <trkpt lat="52.63745" lon="5.02798">
        <ele>12</ele>
        <time>2019-05-16T02:14:13Z</time>
      </trkpt>
      <trkpt lat="52.63766" lon="5.02917">
        <ele>12.60000038147</ele>
        <time>2019-05-16T02:14:22Z</time>
      </trkpt>
      <trkpt lat="52.63785" lon="5.03035">
        <ele>11.39999961853</ele>
        <time>2019-05-16T02:14:33Z</time>
      </trkpt>
      <trkpt lat="52.63793" lon="5.03106">
        <ele>11</ele>
        <time>2019-05-16T02:14:43Z</time>
      </trkpt>
      <trkpt lat="52.63811" lon="5.03199">
        <ele>11</ele>
        <time>2019-05-16T02:15:00Z</time>
      </trkpt>
      <trkpt lat="52.63834" lon="5.03323">
        <ele>11.199999809265</ele>
        <time>2019-05-16T02:16:06Z</time>
      </trkpt>
      <trkpt lat="52.63893" lon="5.03461">
        <ele>11.800000190735</ele>
        <time>2019-05-16T02:16:19Z</time>
      </trkpt>
      <trkpt lat="52.63919" lon="5.03544">
        <ele>11.800000190735</ele>
        <time>2019-05-16T02:16:33Z</time>
      </trkpt>
      <trkpt lat="52.63927" lon="5.03615">
        <ele>11.39999961853</ele>
        <time>2019-05-16T02:16:39Z</time>
      </trkpt>
      <trkpt lat="52.63929" lon="5.03643">
        <ele>11.800000190735</ele>
        <time>2019-05-16T02:16:44Z</time>
      </trkpt>
      <trkpt lat="52.63938" lon="5.03652">
        <ele>11.199999809265</ele>
        <time>2019-05-16T02:16:53Z</time>
      </trkpt>
      <trkpt lat="52.63948" lon="5.03689">
        <ele>11.39999961853</ele>
        <time>2019-05-16T02:17:10Z</time>
      </trkpt>
      <trkpt lat="52.63964" lon="5.03704">
        <ele>11.199999809265</ele>
        <time>2019-05-16T02:17:27Z</time>
      </trkpt>
      <trkpt lat="52.64073" lon="5.03911">
        <ele>11.800000190735</ele>
        <time>2019-05-16T02:17:43Z</time>
      </trkpt>
      <trkpt lat="52.6409" lon="5.03955">
        <ele>11.800000190735</ele>
        <time>2019-05-16T02:17:52Z</time>
      </trkpt>
      <trkpt lat="52.64159" lon="5.04177">
        <ele>11.39999961853</ele>
        <time>2019-05-16T02:18:10Z</time>
      </trkpt>
      <trkpt lat="52.6421" lon="5.04456">
        <ele>11.39999961853</ele>
        <time>2019-05-16T02:18:17Z</time>
      </trkpt>
      <trkpt lat="52.64238" lon="5.04581">
        <ele>11.199999809265</ele>
        <time>2019-05-16T02:18:34Z</time>
      </trkpt>
      <trkpt lat="52.64327" lon="5.04855">
        <ele>11.60000038147</ele>
        <time>2019-05-16T02:18:47Z</time>
      </trkpt>
      <trkpt lat="52.64345" lon="5.04934">
        <ele>12</ele>
        <time>2019-05-16T02:19:02Z</time>
      </trkpt>
      <trkpt lat="52.64374" lon="5.05055">
        <ele>12.39999961853</ele>
        <time>2019-05-16T02:19:11Z</time>
      </trkpt>
      <trkpt lat="52.64394" lon="5.05117">
        <ele>12.800000190735</ele>
        <time>2019-05-16T02:19:21Z</time>
      </trkpt>
      <trkpt lat="52.64416" lon="5.05175">
        <ele>13.800000190735</ele>
        <time>2019-05-16T02:19:29Z</time>
      </trkpt>
      <trkpt lat="52.64425" lon="5.05176">
        <ele>14.199999809265</ele>
        <time>2019-05-16T02:19:34Z</time>
      </trkpt>
      <trkpt lat="52.64457" lon="5.05166">
        <ele>14</ele>
        <time>2019-05-16T02:19:57Z</time>
      </trkpt>
      <trkpt lat="52.64493" lon="5.05124">
        <ele>13.800000190735</ele>
        <time>2019-05-16T02:20:05Z</time>
      </trkpt>
      <trkpt lat="52.64571" lon="5.04934">
        <ele>13.800000190735</ele>
        <time>2019-05-16T02:20:25Z</time>
      </trkpt>
      <trkpt lat="52.64612" lon="5.04929">
        <ele>13.800000190735</ele>
        <time>2019-05-16T02:20:48Z</time>
      </trkpt>
      <trkpt lat="52.64623" lon="5.04924">
        <ele>13.39999961853</ele>
        <time>2019-05-16T02:21:10Z</time>
      </trkpt>
      <trkpt lat="52.6467" lon="5.04872">
        <ele>13.800000190735</ele>
        <time>2019-05-16T02:21:22Z</time>
      </trkpt>
      <trkpt lat="52.64763" lon="5.04736">
        <ele>13.800000190735</ele>
        <time>2019-05-16T02:21:28Z</time>
      </trkpt>
      <trkpt lat="52.6478" lon="5.04775">
        <ele>13.199999809265</ele>
        <time>2019-05-16T02:21:44Z</time>
      </trkpt>
      <trkpt lat="52.64813" lon="5.04892">
        <ele>13.39999961853</ele>
        <time>2019-05-16T02:23:10Z</time>
      </trkpt>
      <trkpt lat="52.64903" lon="5.05211">
        <ele>13.39999961853</ele>
        <time>2019-05-16T02:23:18Z</time>
      </trkpt>
      <trkpt lat="52.6491" lon="5.05235">
        <ele>13</ele>
        <time>2019-05-16T02:23:33Z</time>
      </trkpt>
      <trkpt lat="52.64964" lon="5.0543">
        <ele>13</ele>
        <time>2019-05-16T02:23:37Z</time>
      </trkpt>
      <trkpt lat="52.64996" lon="5.05534">
        <ele>13.39999961853</ele>
        <time>2019-05-16T02:23:47Z</time>
      </trkpt>
      <trkpt lat="52.65037" lon="5.05671">
        <ele>13.60000038147</ele>
        <time>2019-05-16T02:24:10Z</time>
      </trkpt>
      <trkpt lat="52.65105" lon="5.05878">
        <ele>13.60000038147</ele>
        <time>2019-05-16T02:26:33Z</time>
      </trkpt>
      <trkpt lat="52.65142" lon="5.06004">
        <ele>14</ele>
        <time>2019-05-16T02:26:42Z</time>
      </trkpt>
      <trkpt lat="52.65232" lon="5.06294">
        <ele>14</ele>
        <time>2019-05-16T02:26:55Z</time>
      </trkpt>
      <trkpt lat="52.65268" lon="5.06395">
        <ele>13.800000190735</ele>
        <time>2019-05-16T02:27:14Z</time>
      </trkpt>
      <trkpt lat="52.65365" lon="5.0681">
        <ele>13.800000190735</ele>
        <time>2019-05-16T02:27:34Z</time>
      </trkpt>
      <trkpt lat="52.65372" lon="5.06911">
        <ele>14</ele>
        <time>2019-05-16T02:27:49Z</time>
      </trkpt>
      <trkpt lat="52.65369" lon="5.0699">
        <ele>14</ele>
        <time>2019-05-16T02:27:54Z</time>
      </trkpt>
      <trkpt lat="52.65367" lon="5.07034">
        <ele>13.60000038147</ele>
        <time>2019-05-16T02:28:14Z</time>
      </trkpt>
      <trkpt lat="52.6535" lon="5.07232">
        <ele>13.60000038147</ele>
        <time>2019-05-16T02:28:34Z</time>
      </trkpt>
      <trkpt lat="52.65291" lon="5.07358">
        <ele>13.60000038147</ele>
        <time>2019-05-16T02:28:59Z</time>
      </trkpt>
      <trkpt lat="52.65198" lon="5.07458">
        <ele>13.39999961853</ele>
        <time>2019-05-16T02:29:23Z</time>
      </trkpt>
      <trkpt lat="52.6513" lon="5.07529">
        <ele>13.60000038147</ele>
        <time>2019-05-16T02:29:32Z</time>
      </trkpt>
      <trkpt lat="52.65084" lon="5.07579">
        <ele>13.60000038147</ele>
        <time>2019-05-16T02:29:42Z</time>
      </trkpt>
      <trkpt lat="52.65018" lon="5.0763">
        <ele>13</ele>
        <time>2019-05-16T02:29:53Z</time>
      </trkpt>
      <trkpt lat="52.64931" lon="5.07725">
        <ele>12.60000038147</ele>
        <time>2019-05-16T02:30:13Z</time>
      </trkpt>
      <trkpt lat="52.64875" lon="5.07787">
        <ele>12.199999809265</ele>
        <time>2019-05-16T02:30:54Z</time>
      </trkpt>
      <trkpt lat="52.6481" lon="5.07857">
        <ele>12.800000190735</ele>
        <time>2019-05-16T02:31:13Z</time>
      </trkpt>
      <trkpt lat="52.64718" lon="5.0795">
        <ele>13.39999961853</ele>
        <time>2019-05-16T02:31:30Z</time>
      </trkpt>
      <trkpt lat="52.64677" lon="5.07994">
        <ele>13.39999961853</ele>
        <time>2019-05-16T02:31:52Z</time>
      </trkpt>
      <trkpt lat="52.64597" lon="5.08079">
        <ele>13.60000038147</ele>
        <time>2019-05-16T02:32:01Z</time>
      </trkpt>
      <trkpt lat="52.64513" lon="5.08213">
        <ele>13.39999961853</ele>
        <time>2019-05-16T02:32:14Z</time>
      </trkpt>
      <trkpt lat="52.64386" lon="5.08449">
        <ele>13.39999961853</ele>
        <time>2019-05-16T02:32:22Z</time>
      </trkpt>
      <trkpt lat="52.64407" lon="5.08562">
        <ele>14.199999809265</ele>
        <time>2019-05-16T02:32:30Z</time>
      </trkpt>
      <trkpt lat="52.6444" lon="5.08733">
        <ele>14.39999961853</ele>
        <time>2019-05-16T02:32:48Z</time>
      </trkpt>
      <trkpt lat="52.64479" lon="5.08922">
        <ele>14.199999809265</ele>
        <time>2019-05-16T02:32:57Z</time>
      </trkpt>
      <trkpt lat="52.64494" lon="5.09058">
        <ele>13.199999809265</ele>
        <time>2019-05-16T02:33:18Z</time>
      </trkpt>
      <trkpt lat="52.64511" lon="5.09202">
        <ele>12.800000190735</ele>
        <time>2019-05-16T02:33:32Z</time>
      </trkpt>
      <trkpt lat="52.64519" lon="5.09276">
        <ele>12.800000190735</ele>
        <time>2019-05-16T02:33:41Z</time>
      </trkpt>
      <trkpt lat="52.64533" lon="5.09425">
        <ele>13</ele>
        <time>2019-05-16T02:34:48Z</time>
      </trkpt>
      <trkpt lat="52.64544" lon="5.09532">
        <ele>13</ele>
        <time>2019-05-16T02:34:57Z</time>
      </trkpt>
      <trkpt lat="52.64562" lon="5.09654">
        <ele>12.800000190735</ele>
        <time>2019-05-16T02:35:09Z</time>
      </trkpt>
      <trkpt lat="52.64566" lon="5.09666">
        <ele>13.199999809265</ele>
        <time>2019-05-16T02:35:20Z</time>
      </trkpt>
      <trkpt lat="52.6466" lon="5.10002">
        <ele>13.199999809265</ele>
        <time>2019-05-16T02:35:39Z</time>
      </trkpt>
      <trkpt lat="52.64688" lon="5.10132">
        <ele>13.39999961853</ele>
        <time>2019-05-16T02:36:02Z</time>
      </trkpt>
      <trkpt lat="52.64728" lon="5.10328">
        <ele>13.39999961853</ele>
        <time>2019-05-16T02:36:16Z</time>
      </trkpt>
      <trkpt lat="52.64759" lon="5.10498">
        <ele>13.199999809265</ele>
        <time>2019-05-16T02:36:28Z</time>
      </trkpt>
      <trkpt lat="52.64805" lon="5.10747">
        <ele>13.199999809265</ele>
        <time>2019-05-16T02:36:36Z</time>
      </trkpt>
      <trkpt lat="52.64838" lon="5.10927">
        <ele>13.60000038147</ele>
        <time>2019-05-16T02:36:47Z</time>
      </trkpt>
      <trkpt lat="52.64864" lon="5.11069">
        <ele>14</ele>
        <time>2019-05-16T02:37:01Z</time>
      </trkpt>
      <trkpt lat="52.64898" lon="5.11262">
        <ele>13.800000190735</ele>
        <time>2019-05-16T02:37:19Z</time>
      </trkpt>
      <trkpt lat="52.64932" lon="5.11444">
        <ele>14.199999809265</ele>
        <time>2019-05-16T02:37:36Z</time>
      </trkpt>
      <trkpt lat="52.6495" lon="5.11539">
        <ele>14.199999809265</ele>
        <time>2019-05-16T02:37:46Z</time>
      </trkpt>
      <trkpt lat="52.64984" lon="5.11706">
        <ele>14.39999961853</ele>
        <time>2019-05-16T02:37:55Z</time>
      </trkpt>
      <trkpt lat="52.65004" lon="5.11883">
        <ele>14.39999961853</ele>
        <time>2019-05-16T02:38:12Z</time>
      </trkpt>
      <trkpt lat="52.65021" lon="5.12054">
        <ele>14.199999809265</ele>
        <time>2019-05-16T02:38:28Z</time>
      </trkpt>
      <trkpt lat="52.65056" lon="5.12217">
        <ele>14.60000038147</ele>
        <time>2019-05-16T02:38:46Z</time>
      </trkpt>
      <trkpt lat="52.65113" lon="5.12424">
        <ele>14.39999961853</ele>
        <time>2019-05-16T02:39:34Z</time>
      </trkpt>
      <trkpt lat="52.65177" lon="5.12646">
        <ele>14.39999961853</ele>
        <time>2019-05-16T02:39:44Z</time>
      </trkpt>
      <trkpt lat="52.65211" lon="5.1277">
        <ele>13.800000190735</ele>
        <time>2019-05-16T02:40:34Z</time>
      </trkpt>
      <trkpt lat="52.65233" lon="5.12852">
        <ele>13.800000190735</ele>
        <time>2019-05-16T02:40:46Z</time>
      </trkpt>
      <trkpt lat="52.65286" lon="5.13041">
        <ele>14</ele>
        <time>2019-05-16T02:40:57Z</time>
      </trkpt>
      <trkpt lat="52.65333" lon="5.13213">
        <ele>14</ele>
        <time>2019-05-16T02:41:11Z</time>
      </trkpt>
      <trkpt lat="52.65357" lon="5.13295">
        <ele>13.800000190735</ele>
        <time>2019-05-16T02:41:29Z</time>
      </trkpt>
      <trkpt lat="52.65407" lon="5.13472">
        <ele>14</ele>
        <time>2019-05-16T02:41:50Z</time>
      </trkpt>
      <trkpt lat="52.65443" lon="5.136">
        <ele>13.60000038147</ele>
        <time>2019-05-16T02:42:04Z</time>
      </trkpt>
      <trkpt lat="52.65497" lon="5.13783">
        <ele>13.39999961853</ele>
        <time>2019-05-16T02:42:23Z</time>
      </trkpt>
      <trkpt lat="52.65598" lon="5.14118">
        <ele>13.39999961853</ele>
        <time>2019-05-16T02:42:35Z</time>
      </trkpt>
      <trkpt lat="52.65651" lon="5.14257">
        <ele>14</ele>
        <time>2019-05-16T02:42:51Z</time>
      </trkpt>
      <trkpt lat="52.65642" lon="5.14281">
        <ele>13.800000190735</ele>
        <time>2019-05-16T02:43:07Z</time>
      </trkpt>
      <trkpt lat="52.65622" lon="5.14358">
        <ele>13.800000190735</ele>
        <time>2019-05-16T02:43:27Z</time>
      </trkpt>
      <trkpt lat="52.65577" lon="5.14547">
        <ele>13.39999961853</ele>
        <time>2019-05-16T02:43:49Z</time>
      </trkpt>
      <trkpt lat="52.65525" lon="5.14772">
        <ele>13.60000038147</ele>
        <time>2019-05-16T02:44:02Z</time>
      </trkpt>
      <trkpt lat="52.65518" lon="5.14839">
        <ele>13.39999961853</ele>
        <time>2019-05-16T02:44:17Z</time>
      </trkpt>
      <trkpt lat="52.65508" lon="5.14944">
        <ele>13.60000038147</ele>
        <time>2019-05-16T02:44:30Z</time>
      </trkpt>
      <trkpt lat="52.65493" lon="5.15125">
        <ele>13.60000038147</ele>
        <time>2019-05-16T02:44:50Z</time>
      </trkpt>
      <trkpt lat="52.65479" lon="5.15286">
        <ele>13.39999961853</ele>
        <time>2019-05-16T02:45:05Z</time>
      </trkpt>
      <trkpt lat="52.65468" lon="5.15436">
        <ele>13.60000038147</ele>
        <time>2019-05-16T02:45:21Z</time>
      </trkpt>
      <trkpt lat="52.65452" lon="5.15614">
        <ele>13.39999961853</ele>
        <time>2019-05-16T02:45:45Z</time>
      </trkpt>
      <trkpt lat="52.65433" lon="5.15782">
        <ele>13.800000190735</ele>
        <time>2019-05-16T02:46:00Z</time>
      </trkpt>
      <trkpt lat="52.65417" lon="5.15969">
        <ele>13.39999961853</ele>
        <time>2019-05-16T02:46:10Z</time>
      </trkpt>
      <trkpt lat="52.6538" lon="5.163">
        <ele>13.39999961853</ele>
        <time>2019-05-16T02:46:18Z</time>
      </trkpt>
      <trkpt lat="52.65357" lon="5.16427">
        <ele>13.60000038147</ele>
        <time>2019-05-16T02:49:11Z</time>
      </trkpt>
      <trkpt lat="52.65344" lon="5.16514">
        <ele>13.39999961853</ele>
        <time>2019-05-16T02:49:34Z</time>
      </trkpt>
      <trkpt lat="52.65314" lon="5.1667">
        <ele>13.60000038147</ele>
        <time>2019-05-16T02:49:41Z</time>
      </trkpt>
      <trkpt lat="52.65275" lon="5.16873">
        <ele>13</ele>
        <time>2019-05-16T02:50:41Z</time>
      </trkpt>
      <trkpt lat="52.65263" lon="5.17127">
        <ele>13</ele>
        <time>2019-05-16T02:51:10Z</time>
      </trkpt>
      <trkpt lat="52.65267" lon="5.1714">
        <ele>12.800000190735</ele>
        <time>2019-05-16T02:51:33Z</time>
      </trkpt>
      <trkpt lat="52.65273" lon="5.17205">
        <ele>13</ele>
        <time>2019-05-16T02:52:04Z</time>
      </trkpt>
      <trkpt lat="52.65282" lon="5.1735">
        <ele>13</ele>
        <time>2019-05-16T02:52:19Z</time>
      </trkpt>
      <trkpt lat="52.65294" lon="5.17611">
        <ele>13.39999961853</ele>
        <time>2019-05-16T02:52:36Z</time>
      </trkpt>
      <trkpt lat="52.65304" lon="5.17775">
        <ele>13.39999961853</ele>
        <time>2019-05-16T02:52:54Z</time>
      </trkpt>
      <trkpt lat="52.65307" lon="5.17834">
        <ele>13.60000038147</ele>
        <time>2019-05-16T02:53:04Z</time>
      </trkpt>
      <trkpt lat="52.65314" lon="5.1794">
        <ele>13.60000038147</ele>
        <time>2019-05-16T02:53:20Z</time>
      </trkpt>
      <trkpt lat="52.6532" lon="5.18035">
        <ele>13.800000190735</ele>
        <time>2019-05-16T02:53:34Z</time>
      </trkpt>
      <trkpt lat="52.65322" lon="5.18128">
        <ele>13.60000038147</ele>
        <time>2019-05-16T02:53:58Z</time>
      </trkpt>
      <trkpt lat="52.65332" lon="5.18343">
        <ele>13.60000038147</ele>
        <time>2019-05-16T02:54:18Z</time>
      </trkpt>
      <trkpt lat="52.65354" lon="5.18356">
        <ele>13.199999809265</ele>
        <time>2019-05-16T02:54:35Z</time>
      </trkpt>
      <trkpt lat="52.65458" lon="5.18354">
        <ele>13.199999809265</ele>
        <time>2019-05-16T02:55:25Z</time>
      </trkpt>
      <trkpt lat="52.65565" lon="5.18348">
        <ele>13.60000038147</ele>
        <time>2019-05-16T02:55:43Z</time>
      </trkpt>
      <trkpt lat="52.65688" lon="5.18328">
        <ele>13.60000038147</ele>
        <time>2019-05-16T02:56:00Z</time>
      </trkpt>
      <trkpt lat="52.65732" lon="5.18278">
        <ele>13.60000038147</ele>
        <time>2019-05-16T02:56:13Z</time>
      </trkpt>
      <trkpt lat="52.65807" lon="5.18233">
        <ele>13.800000190735</ele>
        <time>2019-05-16T02:56:24Z</time>
      </trkpt>
      <trkpt lat="52.65889" lon="5.18225">
        <ele>14.199999809265</ele>
        <time>2019-05-16T02:56:36Z</time>
      </trkpt>
      <trkpt lat="52.65975" lon="5.18217">
        <ele>14.199999809265</ele>
        <time>2019-05-16T02:56:46Z</time>
      </trkpt>
      <trkpt lat="52.66024" lon="5.18209">
        <ele>14.39999961853</ele>
        <time>2019-05-16T02:56:59Z</time>
      </trkpt>
      <trkpt lat="52.6604" lon="5.1824">
        <ele>14.60000038147</ele>
        <time>2019-05-16T02:57:10Z</time>
      </trkpt>
      <trkpt lat="52.66101" lon="5.18419">
        <ele>14.60000038147</ele>
        <time>2019-05-16T02:57:14Z</time>
      </trkpt>
      <trkpt lat="52.66106" lon="5.18432">
        <ele>15</ele>
        <time>2019-05-16T02:57:25Z</time>
      </trkpt>
      <trkpt lat="52.66108" lon="5.18493">
        <ele>14.800000190735</ele>
        <time>2019-05-16T02:57:48Z</time>
      </trkpt>
      <trkpt lat="52.66122" lon="5.18603">
        <ele>15</ele>
        <time>2019-05-16T02:58:11Z</time>
      </trkpt>
      <trkpt lat="52.66175" lon="5.19155">
        <ele>15</ele>
        <time>2019-05-16T02:58:32Z</time>
      </trkpt>
      <trkpt lat="52.66186" lon="5.19257">
        <ele>15.199999809265</ele>
        <time>2019-05-16T02:58:54Z</time>
      </trkpt>
      <trkpt lat="52.66204" lon="5.19467">
        <ele>15.199999809265</ele>
        <time>2019-05-16T02:59:13Z</time>
      </trkpt>
      <trkpt lat="52.66216" lon="5.19634">
        <ele>14.800000190735</ele>
        <time>2019-05-16T02:59:28Z</time>
      </trkpt>
      <trkpt lat="52.66224" lon="5.19748">
        <ele>15.199999809265</ele>
        <time>2019-05-16T02:59:46Z</time>
      </trkpt>
      <trkpt lat="52.66234" lon="5.19894">
        <ele>14.39999961853</ele>
        <time>2019-05-16T02:59:57Z</time>
      </trkpt>
      <trkpt lat="52.66241" lon="5.19988">
        <ele>14.60000038147</ele>
        <time>2019-05-16T03:00:20Z</time>
      </trkpt>
      <trkpt lat="52.66279" lon="5.20024">
        <ele>15</ele>
        <time>2019-05-16T03:00:42Z</time>
      </trkpt>
      <trkpt lat="52.66406" lon="5.20034">
        <ele>14</ele>
        <time>2019-05-16T03:00:56Z</time>
      </trkpt>
      <trkpt lat="52.66495" lon="5.20041">
        <ele>14.199999809265</ele>
        <time>2019-05-16T03:01:15Z</time>
      </trkpt>
      <trkpt lat="52.66576" lon="5.2005">
        <ele>14.199999809265</ele>
        <time>2019-05-16T03:01:35Z</time>
      </trkpt>
      <trkpt lat="52.66637" lon="5.20062">
        <ele>14</ele>
        <time>2019-05-16T03:01:55Z</time>
      </trkpt>
      <trkpt lat="52.6666" lon="5.20301">
        <ele>14</ele>
        <time>2019-05-16T03:02:10Z</time>
      </trkpt>
      <trkpt lat="52.66666" lon="5.20413">
        <ele>14.199999809265</ele>
        <time>2019-05-16T03:02:24Z</time>
      </trkpt>
      <trkpt lat="52.66678" lon="5.20491">
        <ele>14.39999961853</ele>
        <time>2019-05-16T03:02:38Z</time>
      </trkpt>
      <trkpt lat="52.66718" lon="5.20497">
        <ele>14.39999961853</ele>
        <time>2019-05-16T03:02:45Z</time>
      </trkpt>
      <trkpt lat="52.6675" lon="5.2051">
        <ele>14</ele>
        <time>2019-05-16T03:02:57Z</time>
      </trkpt>
      <trkpt lat="52.66767" lon="5.2049">
        <ele>14</ele>
        <time>2019-05-16T03:03:11Z</time>
      </trkpt>
      <trkpt lat="52.66836" lon="5.20502">
        <ele>13.60000038147</ele>
        <time>2019-05-16T03:03:23Z</time>
      </trkpt>
      <trkpt lat="52.6693" lon="5.20514">
        <ele>13.39999961853</ele>
        <time>2019-05-16T03:03:34Z</time>
      </trkpt>
      <trkpt lat="52.67026" lon="5.20525">
        <ele>13.39999961853</ele>
        <time>2019-05-16T03:03:53Z</time>
      </trkpt>
      <trkpt lat="52.67114" lon="5.20533">
        <ele>13.60000038147</ele>
        <time>2019-05-16T03:04:10Z</time>
      </trkpt>
      <trkpt lat="52.67198" lon="5.20542">
        <ele>13.60000038147</ele>
        <time>2019-05-16T03:04:19Z</time>
      </trkpt>
      <trkpt lat="52.67289" lon="5.20546">
        <ele>13.39999961853</ele>
        <time>2019-05-16T03:04:40Z</time>
      </trkpt>
      <trkpt lat="52.67379" lon="5.20509">
        <ele>13.39999961853</ele>
        <time>2019-05-16T03:05:00Z</time>
      </trkpt>
      <trkpt lat="52.67489" lon="5.20406">
        <ele>13.800000190735</ele>
        <time>2019-05-16T03:05:19Z</time>
      </trkpt>
      <trkpt lat="52.67516" lon="5.20393">
        <ele>13.60000038147</ele>
        <time>2019-05-16T03:05:38Z</time>
      </trkpt>
      <trkpt lat="52.67534" lon="5.20408">
        <ele>13.60000038147</ele>
        <time>2019-05-16T03:05:59Z</time>
      </trkpt>
      <trkpt lat="52.67541" lon="5.20401">
        <ele>13.800000190735</ele>
        <time>2019-05-16T03:06:21Z</time>
      </trkpt>
      <trkpt lat="52.67537" lon="5.20424">
        <ele>13.800000190735</ele>
        <time>2019-05-16T03:06:38Z</time>
      </trkpt>
      <trkpt lat="52.67545" lon="5.20476">
        <ele>14</ele>
        <time>2019-05-16T03:06:56Z</time>
      </trkpt>
      <trkpt lat="52.67564" lon="5.20899">
        <ele>14</ele>
        <time>2019-05-16T03:07:14Z</time>
      </trkpt>
      <trkpt lat="52.67568" lon="5.21004">
        <ele>14.199999809265</ele>
        <time>2019-05-16T03:07:35Z</time>
      </trkpt>
      <trkpt lat="52.67575" lon="5.21119">
        <ele>14</ele>
        <time>2019-05-16T03:07:54Z</time>
      </trkpt>
      <trkpt lat="52.67578" lon="5.21186">
        <ele>14</ele>
        <time>2019-05-16T03:08:12Z</time>
      </trkpt>
      <trkpt lat="52.67592" lon="5.21383">
        <ele>14.39999961853</ele>
        <time>2019-05-16T03:08:33Z</time>
      </trkpt>
      <trkpt lat="52.67598" lon="5.2152">
        <ele>14.199999809265</ele>
        <time>2019-05-16T03:08:57Z</time>
      </trkpt>
      <trkpt lat="52.67603" lon="5.21619">
        <ele>14.800000190735</ele>
        <time>2019-05-16T03:09:18Z</time>
      </trkpt>
      <trkpt lat="52.67615" lon="5.2174">
        <ele>14.800000190735</ele>
        <time>2019-05-16T03:09:36Z</time>
      </trkpt>
      <trkpt lat="52.67628" lon="5.21876">
        <ele>15.199999809265</ele>
        <time>2019-05-16T03:09:56Z</time>
      </trkpt>
      <trkpt lat="52.67644" lon="5.22064">
        <ele>15.199999809265</ele>
        <time>2019-05-16T03:10:18Z</time>
      </trkpt>
      <trkpt lat="52.67656" lon="5.22166">
        <ele>15</ele>
        <time>2019-05-16T03:10:37Z</time>
      </trkpt>
      <trkpt lat="52.67665" lon="5.22278">
        <ele>14.60000038147</ele>
        <time>2019-05-16T03:10:55Z</time>
      </trkpt>
      <trkpt lat="52.67675" lon="5.22385">
        <ele>14.39999961853</ele>
        <time>2019-05-16T03:11:07Z</time>
      </trkpt>
      <trkpt lat="52.67685" lon="5.22489">
        <ele>14.39999961853</ele>
        <time>2019-05-16T03:11:18Z</time>
      </trkpt>
      <trkpt lat="52.67702" lon="5.22622">
        <ele>14.800000190735</ele>
        <time>2019-05-16T03:11:31Z</time>
      </trkpt>
      <trkpt lat="52.67715" lon="5.22763">
        <ele>14.800000190735</ele>
        <time>2019-05-16T03:11:44Z</time>
      </trkpt>
      <trkpt lat="52.6773" lon="5.22945">
        <ele>14.60000038147</ele>
        <time>2019-05-16T03:11:55Z</time>
      </trkpt>
      <trkpt lat="52.67739" lon="5.23061">
        <ele>14.800000190735</ele>
        <time>2019-05-16T03:12:12Z</time>
      </trkpt>
      <trkpt lat="52.67758" lon="5.23298">
        <ele>14.800000190735</ele>
        <time>2019-05-16T03:12:29Z</time>
      </trkpt>
      <trkpt lat="52.67778" lon="5.23408">
        <ele>14.60000038147</ele>
        <time>2019-05-16T03:12:47Z</time>
      </trkpt>
      <trkpt lat="52.67791" lon="5.23473">
        <ele>14.39999961853</ele>
        <time>2019-05-16T03:13:04Z</time>
      </trkpt>
      <trkpt lat="52.67798" lon="5.23569">
        <ele>14.199999809265</ele>
        <time>2019-05-16T03:13:22Z</time>
      </trkpt>
      <trkpt lat="52.67808" lon="5.23671">
        <ele>14.199999809265</ele>
        <time>2019-05-16T03:13:43Z</time>
      </trkpt>
      <trkpt lat="52.67821" lon="5.2385">
        <ele>14.60000038147</ele>
        <time>2019-05-16T03:13:49Z</time>
      </trkpt>
      <trkpt lat="52.67823" lon="5.24013">
        <ele>14</ele>
        <time>2019-05-16T03:14:02Z</time>
      </trkpt>
      <trkpt lat="52.67829" lon="5.24101">
        <ele>14</ele>
        <time>2019-05-16T03:14:20Z</time>
      </trkpt>
      <trkpt lat="52.67835" lon="5.24191">
        <ele>13.800000190735</ele>
        <time>2019-05-17T08:02:30Z</time>
      </trkpt>
      <trkpt lat="52.67835" lon="5.24272">
        <ele>14</ele>
        <time>2019-05-17T08:02:33Z</time>
      </trkpt>
      <trkpt lat="52.67902" lon="5.24331">
        <ele>15.199999809265</ele>
        <time>2019-05-17T08:02:36Z</time>
      </trkpt>
      <trkpt lat="52.67943" lon="5.24338">
        <ele>16.200000762939</ele>
        <time>2019-05-17T08:02:39Z</time>
      </trkpt>
      <trkpt lat="52.67949" lon="5.24346">
        <ele>17.60000038147</ele>
        <time>2019-05-17T08:02:44Z</time>
      </trkpt>
      <trkpt lat="52.67975" lon="5.24345">
        <ele>17.60000038147</ele>
        <time>2019-05-17T08:02:47Z</time>
      </trkpt>
      <trkpt lat="52.68001" lon="5.24343">
        <ele>18</ele>
        <time>2019-05-17T08:02:50Z</time>
      </trkpt>
      <trkpt lat="52.68161" lon="5.24332">
        <ele>18</ele>
        <time>2019-05-17T08:02:53Z</time>
      </trkpt>
      <trkpt lat="52.68187" lon="5.24377">
        <ele>18</ele>
        <time>2019-05-17T08:02:57Z</time>
      </trkpt>
      <trkpt lat="52.68222" lon="5.24508">
        <ele>18.799999237061</ele>
        <time>2019-05-17T08:03:01Z</time>
      </trkpt>
      <trkpt lat="52.68321" lon="5.24531">
        <ele>18.200000762939</ele>
        <time>2019-05-17T08:03:05Z</time>
      </trkpt>
      <trkpt lat="52.68412" lon="5.24541">
        <ele>18.200000762939</ele>
        <time>2019-05-17T08:03:09Z</time>
      </trkpt>
      <trkpt lat="52.68486" lon="5.2454">
        <ele>18</ele>
        <time>2019-05-17T08:03:14Z</time>
      </trkpt>
      <trkpt lat="52.68531" lon="5.2454">
        <ele>17.799999237061</ele>
        <time>2019-05-17T08:03:23Z</time>
      </trkpt>
      <trkpt lat="52.68567" lon="5.24564">
        <ele>18</ele>
        <time>2019-05-17T08:03:37Z</time>
      </trkpt>
      <trkpt lat="52.68599" lon="5.24776">
        <ele>18</ele>
        <time>2019-05-17T08:03:50Z</time>
      </trkpt>
      <trkpt lat="52.68661" lon="5.24853">
        <ele>17.799999237061</ele>
        <time>2019-05-17T08:04:04Z</time>
      </trkpt>
      <trkpt lat="52.68673" lon="5.2489">
        <ele>17.39999961853</ele>
        <time>2019-05-17T08:04:12Z</time>
      </trkpt>
      <trkpt lat="52.68704" lon="5.25136">
        <ele>16.200000762939</ele>
        <time>2019-05-17T08:04:22Z</time>
      </trkpt>
      <trkpt lat="52.68712" lon="5.2532">
        <ele>16.200000762939</ele>
        <time>2019-05-17T08:04:29Z</time>
      </trkpt>
      <trkpt lat="52.68691" lon="5.25362">
        <ele>16.39999961853</ele>
        <time>2019-05-17T08:04:40Z</time>
      </trkpt>
      <trkpt lat="52.68682" lon="5.25448">
        <ele>16</ele>
        <time>2019-05-17T08:04:58Z</time>
      </trkpt>
      <trkpt lat="52.68655" lon="5.25548">
        <ele>15.800000190735</ele>
        <time>2019-05-17T08:05:11Z</time>
      </trkpt>
      <trkpt lat="52.6866" lon="5.25536">
        <ele>16</ele>
        <time>2019-05-17T08:05:29Z</time>
      </trkpt>
      <trkpt lat="52.6869" lon="5.25399">
        <ele>16</ele>
        <time>2019-05-17T08:05:45Z</time>
      </trkpt>
      <trkpt lat="52.68734" lon="5.25409">
        <ele>15.60000038147</ele>
        <time>2019-05-17T08:06:08Z</time>
      </trkpt>
      <trkpt lat="52.68743" lon="5.25401">
        <ele>14.800000190735</ele>
        <time>2019-05-17T08:06:23Z</time>
      </trkpt>
      <trkpt lat="52.68707" lon="5.25413">
        <ele>15</ele>
        <time>2019-05-17T08:06:34Z</time>
      </trkpt>
      <trkpt lat="52.68689" lon="5.25377">
        <ele>15.39999961853</ele>
        <time>2019-05-17T08:06:54Z</time>
      </trkpt>
      <trkpt lat="52.68715" lon="5.25345">
        <ele>15.800000190735</ele>
        <time>2019-05-17T08:07:08Z</time>
      </trkpt>
      <trkpt lat="52.68729" lon="5.25448">
        <ele>17.799999237061</ele>
        <time>2019-05-17T08:07:26Z</time>
      </trkpt>
      <trkpt lat="52.68745" lon="5.25568">
        <ele>17.39999961853</ele>
        <time>2019-05-17T08:07:48Z</time>
      </trkpt>
      <trkpt lat="52.68756" lon="5.25689">
        <ele>16.39999961853</ele>
        <time>2019-05-17T08:08:04Z</time>
      </trkpt>
      <trkpt lat="52.6875" lon="5.25872">
        <ele>16.39999961853</ele>
        <time>2019-05-17T08:08:21Z</time>
      </trkpt>
      <trkpt lat="52.68742" lon="5.26003">
        <ele>17.200000762939</ele>
        <time>2019-05-17T08:08:38Z</time>
      </trkpt>
      <trkpt lat="52.68769" lon="5.26163">
        <ele>17.200000762939</ele>
        <time>2019-05-17T08:08:55Z</time>
      </trkpt>
      <trkpt lat="52.68808" lon="5.26324">
        <ele>15.199999809265</ele>
        <time>2019-05-17T08:09:11Z</time>
      </trkpt>
      <trkpt lat="52.68853" lon="5.26464">
        <ele>13.800000190735</ele>
        <time>2019-05-17T08:09:21Z</time>
      </trkpt>
      <trkpt lat="52.68917" lon="5.26591">
        <ele>14.199999809265</ele>
        <time>2019-05-17T08:09:39Z</time>
      </trkpt>
      <trkpt lat="52.69003" lon="5.26751">
        <ele>13.800000190735</ele>
        <time>2019-05-17T08:09:52Z</time>
      </trkpt>
      <trkpt lat="52.6911" lon="5.2696">
        <ele>13.800000190735</ele>
        <time>2019-05-17T08:10:16Z</time>
      </trkpt>
      <trkpt lat="52.69206" lon="5.2713">
        <ele>14</ele>
        <time>2019-05-17T08:10:30Z</time>
      </trkpt>
      <trkpt lat="52.69287" lon="5.27268">
        <ele>13.800000190735</ele>
        <time>2019-05-17T08:10:47Z</time>
      </trkpt>
      <trkpt lat="52.69373" lon="5.27379">
        <ele>14.199999809265</ele>
        <time>2019-05-17T08:10:56Z</time>
      </trkpt>
      <trkpt lat="52.69406" lon="5.27414">
        <ele>14.199999809265</ele>
        <time>2019-05-17T08:11:12Z</time>
      </trkpt>
      <trkpt lat="52.69402" lon="5.27453">
        <ele>14</ele>
        <time>2019-05-17T08:11:27Z</time>
      </trkpt>
      <trkpt lat="52.69428" lon="5.27496">
        <ele>14</ele>
        <time>2019-05-17T08:11:42Z</time>
      </trkpt>
      <trkpt lat="52.69479" lon="5.27596">
        <ele>14.39999961853</ele>
        <time>2019-05-17T08:12:00Z</time>
      </trkpt>
      <trkpt lat="52.69526" lon="5.27662">
        <ele>14</ele>
        <time>2019-05-17T08:12:42Z</time>
      </trkpt>
      <trkpt lat="52.69535" lon="5.27674">
        <ele>14.199999809265</ele>
        <time>2019-05-17T08:13:08Z</time>
      </trkpt>
      <trkpt lat="52.69582" lon="5.27735">
        <ele>14</ele>
        <time>2019-05-17T08:13:36Z</time>
      </trkpt>
      <trkpt lat="52.69599" lon="5.27793">
        <ele>14</ele>
        <time>2019-05-17T08:14:10Z</time>
      </trkpt>
      <trkpt lat="52.6962" lon="5.27912">
        <ele>14</ele>
        <time>2019-05-17T08:14:50Z</time>
      </trkpt>
      <trkpt lat="52.69639" lon="5.28103">
        <ele>14.199999809265</ele>
        <time>2019-05-17T08:15:12Z</time>
      </trkpt>
      <trkpt lat="52.69677" lon="5.28303">
        <ele>14.199999809265</ele>
        <time>2019-05-17T08:15:37Z</time>
      </trkpt>
      <trkpt lat="52.69725" lon="5.28388">
        <ele>14.800000190735</ele>
        <time>2019-05-17T08:15:59Z</time>
      </trkpt>
      <trkpt lat="52.69822" lon="5.28355">
        <ele>17.200000762939</ele>
        <time>2019-05-17T08:16:21Z</time>
      </trkpt>
      <trkpt lat="52.69855" lon="5.28346">
        <ele>17.60000038147</ele>
        <time>2019-05-17T08:17:05Z</time>
      </trkpt>
      <trkpt lat="52.6989" lon="5.28403">
        <ele>17.799999237061</ele>
        <time>2019-05-17T08:17:13Z</time>
      </trkpt>
      <trkpt lat="52.69908" lon="5.28573">
        <ele>17.799999237061</ele>
        <time>2019-05-17T08:17:19Z</time>
      </trkpt>
      <trkpt lat="52.69923" lon="5.28713">
        <ele>17.60000038147</ele>
        <time>2019-05-17T08:22:00Z</time>
      </trkpt>
      <trkpt lat="52.69935" lon="5.28826">
        <ele>17.60000038147</ele>
        <time>2019-05-17T08:22:07Z</time>
      </trkpt>
      <trkpt lat="52.69955" lon="5.28949">
        <ele>16.799999237061</ele>
        <time>2019-05-17T08:22:26Z</time>
      </trkpt>
      <trkpt lat="52.69988" lon="5.28972">
        <ele>17.799999237061</ele>
        <time>2019-05-17T08:22:43Z</time>
      </trkpt>
      <trkpt lat="52.69974" lon="5.28956">
        <ele>18</ele>
        <time>2019-05-17T08:23:00Z</time>
      </trkpt>
      <trkpt lat="52.69919" lon="5.28965">
        <ele>16.200000762939</ele>
        <time>2019-05-17T08:23:21Z</time>
      </trkpt>
      <trkpt lat="52.8867" lon="5.35825">
        <ele>12.800000190735</ele>
        <time>2019-05-17T08:23:35Z</time>
      </trkpt>
      <trkpt lat="52.8865" lon="5.35805">
        <ele>13.39999961853</ele>
        <time>2019-05-17T08:23:46Z</time>
      </trkpt>
      <trkpt lat="52.88634" lon="5.3583">
        <ele>14</ele>
        <time>2019-05-17T08:24:01Z</time>
      </trkpt>
      <trkpt lat="52.88625" lon="5.35856">
        <ele>13.800000190735</ele>
        <time>2019-05-17T08:24:06Z</time>
      </trkpt>
      <trkpt lat="52.886" lon="5.35852">
        <ele>13.60000038147</ele>
        <time>2019-05-17T08:24:14Z</time>
      </trkpt>
      <trkpt lat="52.88585" lon="5.35858">
        <ele>14</ele>
        <time>2019-05-17T08:24:44Z</time>
      </trkpt>
      <trkpt lat="52.88578" lon="5.35866">
        <ele>13.39999961853</ele>
        <time>2019-05-17T08:24:58Z</time>
      </trkpt>
      <trkpt lat="52.88567" lon="5.35871">
        <ele>13.60000038147</ele>
        <time>2019-05-17T08:25:16Z</time>
      </trkpt>
      <trkpt lat="52.88527" lon="5.35885">
        <ele>13.39999961853</ele>
        <time>2019-05-17T08:25:29Z</time>
      </trkpt>
      <trkpt lat="52.88479" lon="5.35873">
        <ele>13.800000190735</ele>
        <time>2019-05-17T08:25:39Z</time>
      </trkpt>
      <trkpt lat="52.88431" lon="5.35855">
        <ele>13.800000190735</ele>
        <time>2019-05-17T08:25:50Z</time>
      </trkpt>
      <trkpt lat="52.88395" lon="5.35845">
        <ele>12.800000190735</ele>
        <time>2019-05-17T08:26:11Z</time>
      </trkpt>
      <trkpt lat="52.88349" lon="5.35871">
        <ele>12.199999809265</ele>
        <time>2019-05-17T08:26:26Z</time>
      </trkpt>
      <trkpt lat="52.88308" lon="5.35881">
        <ele>12.199999809265</ele>
        <time>2019-05-17T08:26:36Z</time>
      </trkpt>
      <trkpt lat="52.88234" lon="5.35905">
        <ele>12.60000038147</ele>
        <time>2019-05-17T08:26:40Z</time>
      </trkpt>
      <trkpt lat="52.88118" lon="5.35959">
        <ele>12.60000038147</ele>
        <time>2019-05-17T08:26:51Z</time>
      </trkpt>
      <trkpt lat="52.88064" lon="5.35984">
        <ele>12.39999961853</ele>
        <time>2019-05-17T08:26:58Z</time>
      </trkpt>
      <trkpt lat="52.8795" lon="5.36048">
        <ele>12.39999961853</ele>
        <time>2019-05-17T08:27:04Z</time>
      </trkpt>
      <trkpt lat="52.87925" lon="5.36147">
        <ele>13</ele>
        <time>2019-05-17T08:27:10Z</time>
      </trkpt>
      <trkpt lat="52.87939" lon="5.36298">
        <ele>13</ele>
        <time>2019-05-17T08:27:20Z</time>
      </trkpt>
      <trkpt lat="52.87937" lon="5.36313">
        <ele>13.199999809265</ele>
        <time>2019-05-17T08:27:31Z</time>
      </trkpt>
      <trkpt lat="52.87921" lon="5.36328">
        <ele>13.199999809265</ele>
        <time>2019-05-17T08:27:42Z</time>
      </trkpt>
      <trkpt lat="52.87889" lon="5.36346">
        <ele>13.39999961853</ele>
        <time>2019-05-17T08:28:25Z</time>
      </trkpt>
      <trkpt lat="52.87786" lon="5.36426">
        <ele>14.800000190735</ele>
        <time>2019-05-17T08:28:41Z</time>
      </trkpt>
      <trkpt lat="52.87633" lon="5.36586">
        <ele>14</ele>
        <time>2019-05-17T08:28:52Z</time>
      </trkpt>
      <trkpt lat="52.87632" lon="5.3664">
        <ele>13.39999961853</ele>
        <time>2019-05-17T08:30:50Z</time>
      </trkpt>
      <trkpt lat="52.87657" lon="5.36703">
        <ele>13.199999809265</ele>
        <time>2019-05-17T08:30:58Z</time>
      </trkpt>
      <trkpt lat="52.87695" lon="5.36809">
        <ele>12.199999809265</ele>
        <time>2019-05-17T08:31:06Z</time>
      </trkpt>
      <trkpt lat="52.8773" lon="5.36839">
        <ele>11.60000038147</ele>
        <time>2019-05-17T08:31:24Z</time>
      </trkpt>
      <trkpt lat="52.87721" lon="5.36804">
        <ele>11</ele>
        <time>2019-05-17T08:31:40Z</time>
      </trkpt>
      <trkpt lat="52.87782" lon="5.36951">
        <ele>11</ele>
        <time>2019-05-17T08:31:57Z</time>
      </trkpt>
      <trkpt lat="52.8785" lon="5.36991">
        <ele>11.199999809265</ele>
        <time>2019-05-17T08:32:12Z</time>
      </trkpt>
      <trkpt lat="52.87869" lon="5.36995">
        <ele>11.800000190735</ele>
        <time>2019-05-17T08:32:30Z</time>
      </trkpt>
      <trkpt lat="52.87864" lon="5.36957">
        <ele>11.39999961853</ele>
        <time>2019-05-17T08:32:43Z</time>
      </trkpt>
      <trkpt lat="52.87842" lon="5.36936">
        <ele>11.800000190735</ele>
        <time>2019-05-17T08:33:26Z</time>
      </trkpt>
      <trkpt lat="52.87839" lon="5.36954">
        <ele>12</ele>
        <time>2019-05-17T08:33:33Z</time>
      </trkpt>
      <trkpt lat="52.87823" lon="5.36993">
        <ele>11.60000038147</ele>
        <time>2019-05-17T08:33:43Z</time>
      </trkpt>
      <trkpt lat="52.87797" lon="5.36968">
        <ele>11</ele>
        <time>2019-05-17T08:33:57Z</time>
      </trkpt>
      <trkpt lat="52.87767" lon="5.36938">
        <ele>11</ele>
        <time>2019-05-17T08:34:16Z</time>
      </trkpt>
      <trkpt lat="52.87749" lon="5.36882">
        <ele>10.800000190735</ele>
        <time>2019-05-17T08:34:26Z</time>
      </trkpt>
      <trkpt lat="52.8773" lon="5.36824">
        <ele>10.800000190735</ele>
        <time>2019-05-17T08:34:42Z</time>
      </trkpt>
      <trkpt lat="52.87728" lon="5.36821">
        <ele>10.60000038147</ele>
        <time>2019-05-17T08:34:51Z</time>
      </trkpt>
      <trkpt lat="52.87721" lon="5.3677">
        <ele>10.60000038147</ele>
        <time>2019-05-17T08:35:04Z</time>
      </trkpt>
      <trkpt lat="52.87718" lon="5.36797">
        <ele>10.60000038147</ele>
        <time>2019-05-17T08:35:14Z</time>
      </trkpt>
      <trkpt lat="52.87741" lon="5.36857">
        <ele>10.800000190735</ele>
        <time>2019-05-17T08:35:19Z</time>
      </trkpt>
      <trkpt lat="52.87762" lon="5.36838">
        <ele>11</ele>
        <time>2019-05-17T08:35:30Z</time>
      </trkpt>
      <trkpt lat="52.8776" lon="5.36842">
        <ele>10.60000038147</ele>
        <time>2019-05-17T08:35:43Z</time>
      </trkpt>
      <trkpt lat="52.87737" lon="5.36843">
        <ele>10.60000038147</ele>
        <time>2019-05-17T08:35:52Z</time>
      </trkpt>
      <trkpt lat="52.87729" lon="5.36828">
        <ele>10.39999961853</ele>
        <time>2019-05-17T08:36:04Z</time>
      </trkpt>
      <trkpt lat="52.87736" lon="5.36832">
        <ele>10.60000038147</ele>
        <time>2019-05-17T08:36:22Z</time>
      </trkpt>
      <trkpt lat="52.87762" lon="5.36813">
        <ele>10.60000038147</ele>
        <time>2019-05-17T08:36:36Z</time>
      </trkpt>
      <trkpt lat="52.87775" lon="5.36811">
        <ele>10.39999961853</ele>
        <time>2019-05-17T08:36:56Z</time>
      </trkpt>
      <trkpt lat="52.87772" lon="5.36808">
        <ele>10.60000038147</ele>
        <time>2019-05-17T08:37:15Z</time>
      </trkpt>
      <trkpt lat="52.87741" lon="5.36829">
        <ele>-10.800000190735</ele>
        <time>2019-05-17T08:37:21Z</time>
      </trkpt>
      <trkpt lat="52.87713" lon="5.36859">
        <ele>-10.60000038147</ele>
        <time>2019-05-17T08:37:40Z</time>
      </trkpt>
      <trkpt lat="52.87718" lon="5.36885">
        <ele>-10.60000038147</ele>
        <time>2019-05-17T08:37:47Z</time>
      </trkpt>
      <trkpt lat="52.8776" lon="5.36996">
        <ele>-10.39999961853</ele>
        <time>2019-05-17T08:37:56Z</time>
      </trkpt>
      <trkpt lat="52.87795" lon="5.37125">
        <ele>-10.39999961853</ele>
        <time>2019-05-17T08:38:04Z</time>
      </trkpt>
      <trkpt lat="52.87813" lon="5.37322">
        <ele>-10.60000038147</ele>
        <time>2019-05-17T08:38:21Z</time>
      </trkpt>
      <trkpt lat="52.87767" lon="5.37747">
        <ele>-11</ele>
        <time>2019-05-17T08:38:34Z</time>
      </trkpt>
      <trkpt lat="52.87739" lon="5.37969">
        <ele>-11</ele>
        <time>2019-05-17T08:44:12Z</time>
      </trkpt>
      <trkpt lat="52.87734" lon="5.38013">
        <ele>-10.800000190735</ele>
        <time>2019-05-17T08:44:26Z</time>
      </trkpt>
      <trkpt lat="52.87686" lon="5.38401">
        <ele>-10.39999961853</ele>
        <time>2019-05-17T08:44:44Z</time>
      </trkpt>
      <trkpt lat="52.87669" lon="5.38539">
        <ele>-10</ele>
        <time>2019-05-17T08:45:08Z</time>
      </trkpt>
      <trkpt lat="52.87646" lon="5.38732">
        <ele>-10</ele>
        <time>2019-05-17T08:45:30Z</time>
      </trkpt>
      <trkpt lat="52.87625" lon="5.38899">
        <ele>-9.8000001907349</ele>
        <time>2019-05-17T08:47:37Z</time>
      </trkpt>
      <trkpt lat="52.876" lon="5.39104">
        <ele>-9.3999996185303</ele>
        <time>2019-05-17T08:47:50Z</time>
      </trkpt>
      <trkpt lat="52.87581" lon="5.39261">
        <ele>-8.8000001907349</ele>
        <time>2019-05-17T08:48:04Z</time>
      </trkpt>
      <trkpt lat="52.87566" lon="5.3948">
        <ele>-8.8000001907349</ele>
        <time>2019-05-17T08:48:25Z</time>
      </trkpt>
      <trkpt lat="52.87589" lon="5.39673">
        <ele>-9</ele>
        <time>2019-05-17T08:48:38Z</time>
      </trkpt>
      <trkpt lat="52.87646" lon="5.39865">
        <ele>-9.1999998092651</ele>
        <time>2019-05-17T08:48:55Z</time>
      </trkpt>
      <trkpt lat="52.8769" lon="5.40013">
        <ele>-9.3999996185303</ele>
        <time>2019-05-17T08:49:08Z</time>
      </trkpt>
      <trkpt lat="52.87728" lon="5.40164">
        <ele>-9.1999998092651</ele>
        <time>2019-05-17T08:49:15Z</time>
      </trkpt>
      <trkpt lat="52.87765" lon="5.40317">
        <ele>-9.1999998092651</ele>
        <time>2019-05-17T08:49:33Z</time>
      </trkpt>
      <trkpt lat="52.87798" lon="5.40467">
        <ele>-9</ele>
        <time>2019-05-17T08:49:52Z</time>
      </trkpt>
      <trkpt lat="52.87825" lon="5.40704">
        <ele>-7.8000001907349</ele>
        <time>2019-05-17T08:50:05Z</time>
      </trkpt>
      <trkpt lat="52.8782" lon="5.40714">
        <ele>-7.5999999046326</ele>
        <time>2019-05-17T08:50:24Z</time>
      </trkpt>
      <trkpt lat="52.87785" lon="5.4073">
        <ele>-7.8000001907349</ele>
        <time>2019-05-17T08:50:32Z</time>
      </trkpt>
      <trkpt lat="52.87716" lon="5.40786">
        <ele>-7.8000001907349</ele>
        <time>2019-05-17T08:52:15Z</time>
      </trkpt>
      <trkpt lat="52.87641" lon="5.40853">
        <ele>-7</ele>
        <time>2019-05-17T08:52:29Z</time>
      </trkpt>
      <trkpt lat="52.87509" lon="5.40974">
        <ele>-6.1999998092651</ele>
        <time>2019-05-17T08:52:42Z</time>
      </trkpt>
      <trkpt lat="52.87461" lon="5.41063">
        <ele>-6.1999998092651</ele>
        <time>2019-05-17T08:52:53Z</time>
      </trkpt>
      <trkpt lat="52.87416" lon="5.41105">
        <ele>-6.4000000953674</ele>
        <time>2019-05-17T08:53:19Z</time>
      </trkpt>
      <trkpt lat="52.8742" lon="5.4113">
        <ele>-6.1999998092651</ele>
        <time>2019-05-17T08:54:10Z</time>
      </trkpt>
      <trkpt lat="52.87449" lon="5.4126">
        <ele>-5.5999999046326</ele>
        <time>2019-05-17T08:54:22Z</time>
      </trkpt>
      <trkpt lat="52.87485" lon="5.41427">
        <ele>-7</ele>
        <time>2019-05-17T08:54:44Z</time>
      </trkpt>
      <trkpt lat="52.87515" lon="5.4153">
        <ele>-7.4000000953674</ele>
        <time>2019-05-17T08:54:53Z</time>
      </trkpt>
      <trkpt lat="52.87549" lon="5.41684">
        <ele>-9.1999998092651</ele>
        <time>2019-05-17T08:55:06Z</time>
      </trkpt>
      <trkpt lat="52.87578" lon="5.41843">
        <ele>-9.6000003814697</ele>
        <time>2019-05-17T08:55:12Z</time>
      </trkpt>
      <trkpt lat="52.87587" lon="5.41965">
        <ele>-9.8000001907349</ele>
        <time>2019-05-17T08:57:43Z</time>
      </trkpt>
      <trkpt lat="52.87591" lon="5.42144">
        <ele>-9.3999996185303</ele>
        <time>2019-05-17T08:58:25Z</time>
      </trkpt>
      <trkpt lat="52.87578" lon="5.42336">
        <ele>-9.6000003814697</ele>
        <time>2019-05-17T08:59:09Z</time>
      </trkpt>
      <trkpt lat="52.87557" lon="5.42525">
        <ele>-9.6000003814697</ele>
        <time>2019-05-17T08:59:33Z</time>
      </trkpt>
      <trkpt lat="52.87536" lon="5.42707">
        <ele>-9</ele>
        <time>2019-05-17T09:00:07Z</time>
      </trkpt>
      <trkpt lat="52.87512" lon="5.43095">
        <ele>-9.8000001907349</ele>
        <time>2019-05-17T09:00:41Z</time>
      </trkpt>
      <trkpt lat="52.87518" lon="5.43251">
        <ele>-9.6000003814697</ele>
        <time>2019-05-17T09:01:01Z</time>
      </trkpt>
      <trkpt lat="52.87516" lon="5.43375">
        <ele>-9.3999996185303</ele>
        <time>2019-05-17T09:01:23Z</time>
      </trkpt>
      <trkpt lat="52.87516" lon="5.43468">
        <ele>-9</ele>
        <time>2019-05-17T09:01:35Z</time>
      </trkpt>
      <trkpt lat="52.87522" lon="5.436">
        <ele>-9.1999998092651</ele>
        <time>2019-05-17T09:02:04Z</time>
      </trkpt>
      <trkpt lat="52.87527" lon="5.43767">
        <ele>-9.1999998092651</ele>
        <time>2019-05-17T09:02:34Z</time>
      </trkpt>
      <trkpt lat="52.87533" lon="5.43897">
        <ele>-8.8000001907349</ele>
        <time>2019-05-17T09:02:46Z</time>
      </trkpt>
      <trkpt lat="52.87541" lon="5.43972">
        <ele>-8</ele>
        <time>2019-05-17T09:05:48Z</time>
      </trkpt>
      <trkpt lat="52.87544" lon="5.44022">
        <ele>-7</ele>
        <time>2019-05-17T09:06:00Z</time>
      </trkpt>
      <trkpt lat="52.87546" lon="5.44034">
        <ele>-6</ele>
        <time>2019-05-17T09:06:09Z</time>
      </trkpt>
      <trkpt lat="52.87551" lon="5.44078">
        <ele>-5.8000001907349</ele>
        <time>2019-05-17T09:06:15Z</time>
      </trkpt>
      <trkpt lat="52.8757" lon="5.4429">
        <ele>-8.3999996185303</ele>
        <time>2019-05-17T09:08:16Z</time>
      </trkpt>
      <trkpt lat="52.87585" lon="5.4443">
        <ele>-8.3999996185303</ele>
        <time>2019-05-17T09:08:35Z</time>
      </trkpt>
      <trkpt lat="52.87599" lon="5.44563">
        <ele>-8.6000003814697</ele>
        <time>2019-05-17T09:08:55Z</time>
      </trkpt>
      <trkpt lat="52.87651" lon="5.44883">
        <ele>-8.1999998092651</ele>
        <time>2019-05-17T09:09:14Z</time>
      </trkpt>
      <trkpt lat="52.87725" lon="5.45013">
        <ele>-8.1999998092651</ele>
        <time>2019-05-17T09:09:38Z</time>
      </trkpt>
      <trkpt lat="52.87789" lon="5.45121">
        <ele>-8.3999996185303</ele>
        <time>2019-05-17T09:09:51Z</time>
      </trkpt>
      <trkpt lat="52.87842" lon="5.45205">
        <ele>-8.1999998092651</ele>
        <time>2019-05-17T09:10:10Z</time>
      </trkpt>
      <trkpt lat="52.87902" lon="5.45306">
        <ele>-8.6000003814697</ele>
        <time>2019-05-17T09:10:42Z</time>
      </trkpt>
      <trkpt lat="52.87974" lon="5.45403">
        <ele>-8.3999996185303</ele>
        <time>2019-05-17T09:10:56Z</time>
      </trkpt>
      <trkpt lat="52.88015" lon="5.45452">
        <ele>-7.8000001907349</ele>
        <time>2019-05-17T09:11:09Z</time>
      </trkpt>
      <trkpt lat="52.88033" lon="5.45484">
        <ele>-6.8000001907349</ele>
        <time>2019-05-17T09:11:31Z</time>
      </trkpt>
      <trkpt lat="52.88067" lon="5.45596">
        <ele>-5.8000001907349</ele>
        <time>2019-05-17T09:11:41Z</time>
      </trkpt>
      <trkpt lat="52.88068" lon="5.45611">
        <ele>-5.4000000953674</ele>
        <time>2019-05-17T09:13:39Z</time>
      </trkpt>
      <trkpt lat="52.88035" lon="5.45652">
        <ele>-5</ele>
        <time>2019-05-17T09:13:49Z</time>
      </trkpt>
      <trkpt lat="52.87941" lon="5.45735">
        <ele>-5.8000001907349</ele>
        <time>2019-05-17T09:14:06Z</time>
      </trkpt>
      <trkpt lat="52.87929" lon="5.45752">
        <ele>-6.1999998092651</ele>
        <time>2019-05-17T09:14:37Z</time>
      </trkpt>
      <trkpt lat="52.87964" lon="5.45717">
        <ele>-6.4000000953674</ele>
        <time>2019-05-17T09:15:32Z</time>
      </trkpt>
      <trkpt lat="52.88002" lon="5.45682">
        <ele>-5.5999999046326</ele>
        <time>2019-05-17T09:15:57Z</time>
      </trkpt>
      <trkpt lat="52.8801" lon="5.45706">
        <ele>-5.4000000953674</ele>
        <time>2019-05-17T09:16:24Z</time>
      </trkpt>
      <trkpt lat="52.88017" lon="5.45711">
        <ele>-5</ele>
        <time>2019-05-17T09:16:39Z</time>
      </trkpt>
      <trkpt lat="52.88006" lon="5.4568">
        <ele>-4.8000001907349</ele>
        <time>2019-05-17T09:16:57Z</time>
      </trkpt>
      <trkpt lat="52.88025" lon="5.45658">
        <ele>-5</ele>
        <time>2019-05-17T09:17:18Z</time>
      </trkpt>
      <trkpt lat="52.88063" lon="5.45616">
        <ele>-4.8000001907349</ele>
        <time>2019-05-17T09:17:36Z</time>
      </trkpt>
      <trkpt lat="52.88076" lon="5.45639">
        <ele>-4.8000001907349</ele>
        <time>2019-05-17T09:18:14Z</time>
      </trkpt>
      <trkpt lat="52.88101" lon="5.45733">
        <ele>-4</ele>
        <time>2019-05-17T09:18:54Z</time>
      </trkpt>
      <trkpt lat="52.8813" lon="5.45848">
        <ele>-2.4000000953674</ele>
        <time>2019-05-17T09:19:35Z</time>
      </trkpt>
      <trkpt lat="52.88155" lon="5.4594">
        <ele>-1.7999999523163</ele>
        <time>2019-05-17T09:20:05Z</time>
      </trkpt>
      <trkpt lat="52.88142" lon="5.46037">
        <ele>-1.2000000476837</ele>
        <time>2019-05-17T09:20:22Z</time>
      </trkpt>
      <trkpt lat="52.88078" lon="5.46157">
        <ele>-1.3999999761581</ele>
        <time>2019-05-17T09:20:45Z</time>
      </trkpt>
      <trkpt lat="52.88028" lon="5.46218">
        <ele>-2.4000000953674</ele>
        <time>2019-05-17T09:20:57Z</time>
      </trkpt>
      <trkpt lat="52.88028" lon="5.46268">
        <ele>-3.2000000476837</ele>
        <time>2019-05-17T09:21:17Z</time>
      </trkpt>
      <trkpt lat="52.88009" lon="5.46335">
        <ele>-3.4000000953674</ele>
        <time>2019-05-17T09:21:41Z</time>
      </trkpt>
      <trkpt lat="52.87985" lon="5.46467">
        <ele>-4.8000001907349</ele>
        <time>2019-05-17T09:21:52Z</time>
      </trkpt>
      <trkpt lat="52.87955" lon="5.46656">
        <ele>-6</ele>
        <time>2019-05-17T09:22:07Z</time>
      </trkpt>
      <trkpt lat="52.87972" lon="5.4671">
        <ele>-6</ele>
        <time>2019-05-17T09:22:26Z</time>
      </trkpt>
      <trkpt lat="52.88045" lon="5.46749">
        <ele>-5.4000000953674</ele>
        <time>2019-05-17T09:22:37Z</time>
      </trkpt>
      <trkpt lat="52.88136" lon="5.46805">
        <ele>-5.4000000953674</ele>
        <time>2019-05-17T09:22:48Z</time>
      </trkpt>
      <trkpt lat="52.88164" lon="5.4684">
        <ele>-5.5999999046326</ele>
        <time>2019-05-17T09:23:13Z</time>
      </trkpt>
      <trkpt lat="52.88189" lon="5.46875">
        <ele>-5.5999999046326</ele>
        <time>2019-05-17T09:23:23Z</time>
      </trkpt>
      <trkpt lat="52.8823" lon="5.46966">
        <ele>-5.4000000953674</ele>
        <time>2019-05-17T09:24:03Z</time>
      </trkpt>
      <trkpt lat="52.88289" lon="5.47118">
        <ele>-5.4000000953674</ele>
        <time>2019-05-17T09:24:15Z</time>
      </trkpt>
      <trkpt lat="52.88334" lon="5.47234">
        <ele>-5.5999999046326</ele>
        <time>2019-05-17T09:24:25Z</time>
      </trkpt>
      <trkpt lat="52.88322" lon="5.4728">
        <ele>-6.1999998092651</ele>
        <time>2019-05-17T09:24:32Z</time>
      </trkpt>
      <trkpt lat="52.88318" lon="5.47284">
        <ele>-7</ele>
        <time>2019-05-17T09:24:51Z</time>
      </trkpt>
      <trkpt lat="52.88297" lon="5.47308">
        <ele>-7</ele>
        <time>2019-05-17T09:25:03Z</time>
      </trkpt>
      <trkpt lat="52.88199" lon="5.47412">
        <ele>-6.8000001907349</ele>
        <time>2019-05-17T09:25:25Z</time>
      </trkpt>
      <trkpt lat="52.88151" lon="5.47464">
        <ele>-7.1999998092651</ele>
        <time>2019-05-17T09:25:44Z</time>
      </trkpt>
      <trkpt lat="52.88054" lon="5.47565">
        <ele>-7</ele>
        <time>2019-05-17T09:26:00Z</time>
      </trkpt>
      <trkpt lat="52.8794" lon="5.47687">
        <ele>-7.1999998092651</ele>
        <time>2019-05-17T09:26:20Z</time>
      </trkpt>
      <trkpt lat="52.87854" lon="5.47775">
        <ele>-6.5999999046326</ele>
        <time>2019-05-17T09:26:35Z</time>
      </trkpt>
      <trkpt lat="52.87766" lon="5.47868">
        <ele>-7.1999998092651</ele>
        <time>2019-05-17T09:27:27Z</time>
      </trkpt>
      <trkpt lat="52.87636" lon="5.48">
        <ele>-7.1999998092651</ele>
        <time>2019-05-17T09:27:32Z</time>
      </trkpt>
      <trkpt lat="52.87588" lon="5.48057">
        <ele>-7.5999999046326</ele>
        <time>2019-05-17T09:27:51Z</time>
      </trkpt>
      <trkpt lat="52.87505" lon="5.48135">
        <ele>-7.5999999046326</ele>
        <time>2019-05-17T09:28:00Z</time>
      </trkpt>
      <trkpt lat="52.87449" lon="5.48195">
        <ele>-7.4000000953674</ele>
        <time>2019-05-17T09:28:23Z</time>
      </trkpt>
      <trkpt lat="52.87384" lon="5.48262">
        <ele>-7</ele>
        <time>2019-05-17T09:31:57Z</time>
      </trkpt>
      <trkpt lat="52.87296" lon="5.48358">
        <ele>-7</ele>
        <time>2019-05-17T09:32:08Z</time>
      </trkpt>
      <trkpt lat="52.87253" lon="5.48407">
        <ele>-7.1999998092651</ele>
        <time>2019-05-17T09:32:26Z</time>
      </trkpt>
      <trkpt lat="52.87174" lon="5.48497">
        <ele>-7</ele>
        <time>2019-05-17T09:32:43Z</time>
      </trkpt>
      <trkpt lat="52.87139" lon="5.48544">
        <ele>-7.4000000953674</ele>
        <time>2019-05-17T09:32:54Z</time>
      </trkpt>
      <trkpt lat="52.87079" lon="5.48608">
        <ele>-7.4000000953674</ele>
        <time>2019-05-17T09:33:05Z</time>
      </trkpt>
      <trkpt lat="52.87044" lon="5.48666">
        <ele>-7.1999998092651</ele>
        <time>2019-05-17T09:33:56Z</time>
      </trkpt>
      <trkpt lat="52.86958" lon="5.48791">
        <ele>-7</ele>
        <time>2019-05-17T09:36:16Z</time>
      </trkpt>
      <trkpt lat="52.8687" lon="5.48926">
        <ele>-6.5999999046326</ele>
        <time>2019-05-17T09:36:35Z</time>
      </trkpt>
      <trkpt lat="52.86786" lon="5.4905">
        <ele>-6.4000000953674</ele>
        <time>2019-05-17T09:36:43Z</time>
      </trkpt>
      <trkpt lat="52.86729" lon="5.49139">
        <ele>-6.5999999046326</ele>
        <time>2019-05-17T09:36:55Z</time>
      </trkpt>
      <trkpt lat="52.86681" lon="5.49214">
        <ele>-6.1999998092651</ele>
        <time>2019-05-17T09:37:14Z</time>
      </trkpt>
      <trkpt lat="52.86626" lon="5.49308">
        <ele>-6</ele>
        <time>2019-05-17T09:37:35Z</time>
      </trkpt>
      <trkpt lat="52.86588" lon="5.49367">
        <ele>-5.4000000953674</ele>
        <time>2019-05-17T09:37:45Z</time>
      </trkpt>
      <trkpt lat="52.86532" lon="5.49437">
        <ele>-5</ele>
        <time>2019-05-17T09:38:07Z</time>
      </trkpt>
      <trkpt lat="52.86467" lon="5.49536">
        <ele>-5</ele>
        <time>2019-05-17T09:38:28Z</time>
      </trkpt>
      <trkpt lat="52.86419" lon="5.49605">
        <ele>-4.8000001907349</ele>
        <time>2019-05-17T09:38:58Z</time>
      </trkpt>
      <trkpt lat="52.86359" lon="5.49696">
        <ele>-5.1999998092651</ele>
        <time>2019-05-17T09:39:22Z</time>
      </trkpt>
      <trkpt lat="52.86304" lon="5.49842">
        <ele>-5.5999999046326</ele>
        <time>2019-05-17T09:39:54Z</time>
      </trkpt>
      <trkpt lat="52.86231" lon="5.49993">
        <ele>-5.5999999046326</ele>
        <time>2019-05-17T09:40:18Z</time>
      </trkpt>
      <trkpt lat="52.86187" lon="5.50091">
        <ele>-5.1999998092651</ele>
        <time>2019-05-17T09:40:36Z</time>
      </trkpt>
      <trkpt lat="52.86161" lon="5.50161">
        <ele>-5.1999998092651</ele>
        <time>2019-05-17T09:43:51Z</time>
      </trkpt>
      <trkpt lat="52.86112" lon="5.50285">
        <ele>-5.5999999046326</ele>
        <time>2019-05-17T09:44:35Z</time>
      </trkpt>
      <trkpt lat="52.86049" lon="5.50408">
        <ele>-5.5999999046326</ele>
        <time>2019-05-17T09:44:48Z</time>
      </trkpt>
      <trkpt lat="52.86009" lon="5.50489">
        <ele>-6</ele>
        <time>2019-05-17T09:45:05Z</time>
      </trkpt>
      <trkpt lat="52.85986" lon="5.50544">
        <ele>-6</ele>
        <time>2019-05-17T09:45:12Z</time>
      </trkpt>
      <trkpt lat="52.85942" lon="5.50634">
        <ele>-5.4000000953674</ele>
        <time>2019-05-17T09:45:36Z</time>
      </trkpt>
      <trkpt lat="52.85897" lon="5.50739">
        <ele>-5</ele>
        <time>2019-05-17T09:47:37Z</time>
      </trkpt>
      <trkpt lat="52.8584" lon="5.5088">
        <ele>-5.1999998092651</ele>
        <time>2019-05-17T09:47:47Z</time>
      </trkpt>
      <trkpt lat="52.85803" lon="5.5096">
        <ele>-4.1999998092651</ele>
        <time>2019-05-17T09:48:26Z</time>
      </trkpt>
      <trkpt lat="52.85765" lon="5.51046">
        <ele>-2.2000000476837</ele>
        <time>2019-05-17T09:48:39Z</time>
      </trkpt>
      <trkpt lat="52.85727" lon="5.51135">
        <ele>-1.3999999761581</ele>
        <time>2019-05-17T09:48:49Z</time>
      </trkpt>
      <trkpt lat="52.85674" lon="5.51257">
        <ele>-1.7999999523163</ele>
        <time>2019-05-17T09:49:05Z</time>
      </trkpt>
      <trkpt lat="52.85672" lon="5.51263">
        <ele>-3.2000000476837</ele>
        <time>2019-05-17T09:49:25Z</time>
      </trkpt>
      <trkpt lat="52.85629" lon="5.51335">
        <ele>-3.2000000476837</ele>
        <time>2019-05-17T09:49:40Z</time>
      </trkpt>
      <trkpt lat="52.85558" lon="5.51443">
        <ele>-4.8000001907349</ele>
        <time>2019-05-17T09:50:01Z</time>
      </trkpt>
      <trkpt lat="52.85512" lon="5.51522">
        <ele>-4.8000001907349</ele>
        <time>2019-05-17T09:50:18Z</time>
      </trkpt>
      <trkpt lat="52.85456" lon="5.51622">
        <ele>-4.4000000953674</ele>
        <time>2019-05-17T09:50:33Z</time>
      </trkpt>
      <trkpt lat="52.85386" lon="5.51746">
        <ele>-3.5999999046326</ele>
        <time>2019-05-17T09:52:53Z</time>
      </trkpt>
      <trkpt lat="52.85364" lon="5.51806">
        <ele>-2.4000000953674</ele>
        <time>2019-05-17T09:53:00Z</time>
      </trkpt>
      <trkpt lat="52.85319" lon="5.51912">
        <ele>-1.3999999761581</ele>
        <time>2019-05-17T09:53:14Z</time>
      </trkpt>
      <trkpt lat="52.85294" lon="5.51977">
        <ele>-1</ele>
        <time>2019-05-17T09:53:34Z</time>
      </trkpt>
      <trkpt lat="52.85253" lon="5.52086">
        <ele>-0.60000002384186</ele>
        <time>2019-05-17T09:53:53Z</time>
      </trkpt>
      <trkpt lat="52.85221" lon="5.52176">
        <ele>-1.3999999761581</ele>
        <time>2019-05-17T09:54:44Z</time>
      </trkpt>
      <trkpt lat="52.85203" lon="5.52257">
        <ele>-1.7999999523163</ele>
        <time>2019-05-17T09:55:04Z</time>
      </trkpt>
      <trkpt lat="52.85172" lon="5.52353">
        <ele>-2.7999999523163</ele>
        <time>2019-05-17T09:55:24Z</time>
      </trkpt>
      <trkpt lat="52.85139" lon="5.52452">
        <ele>-3.4000000953674</ele>
        <time>2019-05-17T09:55:47Z</time>
      </trkpt>
      <trkpt lat="52.85097" lon="5.52564">
        <ele>-3.5999999046326</ele>
        <time>2019-05-17T09:56:10Z</time>
      </trkpt>
      <trkpt lat="52.85066" lon="5.52655">
        <ele>-3.4000000953674</ele>
        <time>2019-05-17T09:56:25Z</time>
      </trkpt>
      <trkpt lat="52.85017" lon="5.52749">
        <ele>-3</ele>
        <time>2019-05-17T09:56:34Z</time>
      </trkpt>
      <trkpt lat="52.84965" lon="5.52872">
        <ele>-3.2000000476837</ele>
        <time>2019-05-17T09:56:50Z</time>
      </trkpt>
      <trkpt lat="52.84884" lon="5.53137">
        <ele>-3.2000000476837</ele>
        <time>2019-05-17T09:57:08Z</time>
      </trkpt>
      <trkpt lat="52.84851" lon="5.53243">
        <ele>-2.5999999046326</ele>
        <time>2019-05-17T09:57:22Z</time>
      </trkpt>
      <trkpt lat="52.84829" lon="5.53359">
        <ele>-2.5999999046326</ele>
        <time>2019-05-17T09:57:48Z</time>
      </trkpt>
      <trkpt lat="52.84863" lon="5.53382">
        <ele>-2.4000000953674</ele>
        <time>2019-05-17T09:58:07Z</time>
      </trkpt>
      <trkpt lat="52.84908" lon="5.53356">
        <ele>-2.5999999046326</ele>
        <time>2019-05-17T09:58:58Z</time>
      </trkpt>
      <trkpt lat="52.84937" lon="5.53346">
        <ele>-2.5999999046326</ele>
        <time>2019-05-17T09:59:29Z</time>
      </trkpt>
      <trkpt lat="52.84925" lon="5.53343">
        <ele>-3</ele>
        <time>2019-05-17T09:59:48Z</time>
      </trkpt>
      <trkpt lat="52.84903" lon="5.53355">
        <ele>-2.7999999523163</ele>
        <time>2019-05-17T09:59:55Z</time>
      </trkpt>
      <trkpt lat="52.84886" lon="5.5337">
        <ele>-3.5999999046326</ele>
        <time>2019-05-17T10:00:06Z</time>
      </trkpt>
      <trkpt lat="52.84908" lon="5.53359">
        <ele>-3.5999999046326</ele>
        <time>2019-05-17T10:00:12Z</time>
      </trkpt>
      <trkpt lat="52.84946" lon="5.53345">
        <ele>-3.2000000476837</ele>
        <time>2019-05-17T10:02:18Z</time>
      </trkpt>
      <trkpt lat="52.84985" lon="5.53465">
        <ele>-2.5999999046326</ele>
        <time>2019-05-17T10:02:37Z</time>
      </trkpt>
      <trkpt lat="52.85011" lon="5.53552">
        <ele>-2</ele>
        <time>2019-05-17T10:02:54Z</time>
      </trkpt>
      <trkpt lat="52.85037" lon="5.53651">
        <ele>-1.7999999523163</ele>
        <time>2019-05-17T10:03:04Z</time>
      </trkpt>
      <trkpt lat="52.85072" lon="5.53778">
        <ele>-2</ele>
        <time>2019-05-17T10:05:14Z</time>
      </trkpt>
      <trkpt lat="52.85122" lon="5.53974">
        <ele>-3.5999999046326</ele>
        <time>2019-05-17T10:05:24Z</time>
      </trkpt>
      <trkpt lat="52.85161" lon="5.54114">
        <ele>-3.5999999046326</ele>
        <time>2019-05-17T10:05:36Z</time>
      </trkpt>
      <trkpt lat="52.85197" lon="5.54241">
        <ele>-4.1999998092651</ele>
        <time>2019-05-17T10:05:46Z</time>
      </trkpt>
      <trkpt lat="52.85228" lon="5.54356">
        <ele>-4</ele>
        <time>2019-05-17T10:07:09Z</time>
      </trkpt>
      <trkpt lat="52.85295" lon="5.54594">
        <ele>-4</ele>
        <time>2019-05-17T10:07:30Z</time>
      </trkpt>
      <trkpt lat="52.85328" lon="5.54699">
        <ele>-3.2000000476837</ele>
        <time>2019-05-17T10:07:54Z</time>
      </trkpt>
      <trkpt lat="52.85364" lon="5.5484">
        <ele>-3.5999999046326</ele>
        <time>2019-05-17T10:08:30Z</time>
      </trkpt>
      <trkpt lat="52.85367" lon="5.54997">
        <ele>-3.5999999046326</ele>
        <time>2019-05-17T10:08:48Z</time>
      </trkpt>
      <trkpt lat="52.85356" lon="5.55148">
        <ele>-2.5999999046326</ele>
        <time>2019-05-17T10:09:17Z</time>
      </trkpt>
      <trkpt lat="52.85363" lon="5.55239">
        <ele>-1.6000000238419</ele>
        <time>2019-05-17T10:09:47Z</time>
      </trkpt>
      <trkpt lat="52.8541" lon="5.55368">
        <ele>-2</ele>
        <time>2019-05-17T10:11:02Z</time>
      </trkpt>
      <trkpt lat="52.85485" lon="5.55467">
        <ele>-2</ele>
        <time>2019-05-17T10:11:14Z</time>
      </trkpt>
      <trkpt lat="52.8556" lon="5.55574">
        <ele>-2.2000000476837</ele>
        <time>2019-05-17T10:11:21Z</time>
      </trkpt>
      <trkpt lat="52.85616" lon="5.5566">
        <ele>-2.5999999046326</ele>
        <time>2019-05-17T10:11:29Z</time>
      </trkpt>
      <trkpt lat="52.85681" lon="5.55782">
        <ele>-2.7999999523163</ele>
        <time>2019-05-17T10:11:42Z</time>
      </trkpt>
      <trkpt lat="52.85739" lon="5.55892">
        <ele>-2.7999999523163</ele>
        <time>2019-05-17T10:11:54Z</time>
      </trkpt>
      <trkpt lat="52.85855" lon="5.56128">
        <ele>-2</ele>
        <time>2019-05-17T10:12:18Z</time>
      </trkpt>
      <trkpt lat="52.8595" lon="5.56417">
        <ele>-3</ele>
        <time>2019-05-17T10:12:34Z</time>
      </trkpt>
      <trkpt lat="52.86003" lon="5.56606">
        <ele>-3</ele>
        <time>2019-05-17T10:12:44Z</time>
      </trkpt>
      <trkpt lat="52.86067" lon="5.56788">
        <ele>-2.5999999046326</ele>
        <time>2019-05-17T10:13:09Z</time>
      </trkpt>
      <trkpt lat="52.86147" lon="5.56963">
        <ele>-2.7999999523163</ele>
        <time>2019-05-17T10:13:29Z</time>
      </trkpt>
      <trkpt lat="52.86199" lon="5.57071">
        <ele>-3</ele>
        <time>2019-05-17T10:13:48Z</time>
      </trkpt>
      <trkpt lat="52.86237" lon="5.57147">
        <ele>-3.4000000953674</ele>
        <time>2019-05-17T10:14:10Z</time>
      </trkpt>
      <trkpt lat="52.863" lon="5.57228">
        <ele>-3.4000000953674</ele>
        <time>2019-05-17T10:14:40Z</time>
      </trkpt>
      <trkpt lat="52.86358" lon="5.57339">
        <ele>-4</ele>
        <time>2019-05-17T10:15:06Z</time>
      </trkpt>
      <trkpt lat="52.86417" lon="5.57561">
        <ele>-4</ele>
        <time>2019-05-17T10:15:50Z</time>
      </trkpt>
      <trkpt lat="52.86458" lon="5.57707">
        <ele>-4.1999998092651</ele>
        <time>2019-05-17T10:15:59Z</time>
      </trkpt>
      <trkpt lat="52.8647" lon="5.57765">
        <ele>-4.5999999046326</ele>
        <time>2019-05-17T10:16:21Z</time>
      </trkpt>
      <trkpt lat="52.86458" lon="5.57896">
        <ele>-4.1999998092651</ele>
        <time>2019-05-17T10:16:28Z</time>
      </trkpt>
      <trkpt lat="52.86404" lon="5.58001">
        <ele>-4</ele>
        <time>2019-05-17T10:16:37Z</time>
      </trkpt>
      <trkpt lat="52.86342" lon="5.58105">
        <ele>-4.1999998092651</ele>
        <time>2019-05-17T10:16:56Z</time>
      </trkpt>
      <trkpt lat="52.86321" lon="5.58135">
        <ele>-3.7999999523163</ele>
        <time>2019-05-17T10:17:18Z</time>
      </trkpt>
      <trkpt lat="52.86362" lon="5.58234">
        <ele>-4</ele>
        <time>2019-05-17T10:17:38Z</time>
      </trkpt>
      <trkpt lat="52.86495" lon="5.58547">
        <ele>-4</ele>
        <time>2019-05-17T10:17:51Z</time>
      </trkpt>
      <trkpt lat="52.86547" lon="5.58703">
        <ele>-4.1999998092651</ele>
        <time>2019-05-17T10:18:20Z</time>
      </trkpt>
      <trkpt lat="52.86574" lon="5.58864">
        <ele>-4.1999998092651</ele>
        <time>2019-05-17T10:18:48Z</time>
      </trkpt>
      <trkpt lat="52.86588" lon="5.58954">
        <ele>-4.4000000953674</ele>
        <time>2019-05-17T10:19:10Z</time>
      </trkpt>
      <trkpt lat="52.86616" lon="5.59138">
        <ele>-4.5999999046326</ele>
        <time>2019-05-17T10:19:28Z</time>
      </trkpt>
      <trkpt lat="52.86627" lon="5.59199">
        <ele>-4.4000000953674</ele>
        <time>2019-05-17T10:19:46Z</time>
      </trkpt>
      <trkpt lat="52.8666" lon="5.59302">
        <ele>-3.5999999046326</ele>
        <time>2019-05-17T10:20:47Z</time>
      </trkpt>
      <trkpt lat="52.86703" lon="5.59384">
        <ele>-3.4000000953674</ele>
        <time>2019-05-17T10:21:18Z</time>
      </trkpt>
      <trkpt lat="52.86754" lon="5.59456">
        <ele>-3</ele>
        <time>2019-05-17T10:21:43Z</time>
      </trkpt>
      <trkpt lat="52.86852" lon="5.59547">
        <ele>-3</ele>
        <time>2019-05-17T10:22:06Z</time>
      </trkpt>
      <trkpt lat="52.86917" lon="5.59599">
        <ele>-2.7999999523163</ele>
        <time>2019-05-17T10:23:17Z</time>
      </trkpt>
      <trkpt lat="52.86973" lon="5.59641">
        <ele>-2.7999999523163</ele>
        <time>2019-05-17T10:23:42Z</time>
      </trkpt>
      <trkpt lat="52.87065" lon="5.5976">
        <ele>-3</ele>
        <time>2019-05-17T10:24:06Z</time>
      </trkpt>
      <trkpt lat="52.87117" lon="5.59844">
        <ele>-3.7999999523163</ele>
        <time>2019-05-17T10:24:39Z</time>
      </trkpt>
      <trkpt lat="52.87232" lon="5.60023">
        <ele>-4.1999998092651</ele>
        <time>2019-05-17T10:25:42Z</time>
      </trkpt>
      <trkpt lat="52.87266" lon="5.60079">
        <ele>-4.1999998092651</ele>
        <time>2019-05-17T10:25:51Z</time>
      </trkpt>
      <trkpt lat="52.87324" lon="5.60178">
        <ele>-4.4000000953674</ele>
        <time>2019-05-17T10:30:45Z</time>
      </trkpt>
      <trkpt lat="52.87368" lon="5.60265">
        <ele>-5</ele>
        <time>2019-05-17T10:31:02Z</time>
      </trkpt>
      <trkpt lat="52.87432" lon="5.60412">
        <ele>-5.4000000953674</ele>
        <time>2019-05-17T10:31:41Z</time>
      </trkpt>
      <trkpt lat="52.87477" lon="5.60496">
        <ele>-5</ele>
        <time>2019-05-17T10:31:56Z</time>
      </trkpt>
      <trkpt lat="52.87552" lon="5.60585">
        <ele>-4.8000001907349</ele>
        <time>2019-05-17T10:32:15Z</time>
      </trkpt>
      <trkpt lat="52.87634" lon="5.6064">
        <ele>-4.1999998092651</ele>
        <time>2019-05-17T10:32:38Z</time>
      </trkpt>
      <trkpt lat="52.87718" lon="5.6069">
        <ele>-4.5999999046326</ele>
        <time>2019-05-17T10:33:02Z</time>
      </trkpt>
      <trkpt lat="52.87804" lon="5.60777">
        <ele>-4.1999998092651</ele>
        <time>2019-05-17T10:33:22Z</time>
      </trkpt>
      <trkpt lat="52.87889" lon="5.60958">
        <ele>-4.5999999046326</ele>
        <time>2019-05-17T10:33:47Z</time>
      </trkpt>
      <trkpt lat="52.87942" lon="5.61083">
        <ele>-4</ele>
        <time>2019-05-17T10:34:40Z</time>
      </trkpt>
      <trkpt lat="52.87966" lon="5.61122">
        <ele>-4.4000000953674</ele>
        <time>2019-05-17T10:35:01Z</time>
      </trkpt>
      <trkpt lat="52.88001" lon="5.61122">
        <ele>-4.4000000953674</ele>
        <time>2019-05-17T10:35:25Z</time>
      </trkpt>
      <trkpt lat="52.8808" lon="5.6119">
        <ele>-4.5999999046326</ele>
        <time>2019-05-17T10:35:40Z</time>
      </trkpt>
      <trkpt lat="52.88172" lon="5.61257">
        <ele>-5</ele>
        <time>2019-05-17T10:35:49Z</time>
      </trkpt>
      <trkpt lat="52.88297" lon="5.61365">
        <ele>-4.5999999046326</ele>
        <time>2019-05-17T10:36:11Z</time>
      </trkpt>
      <trkpt lat="52.88358" lon="5.61392">
        <ele>-4.5999999046326</ele>
        <time>2019-05-17T10:37:15Z</time>
      </trkpt>
      <trkpt lat="52.88449" lon="5.6144">
        <ele>-3.7999999523163</ele>
        <time>2019-05-17T10:37:27Z</time>
      </trkpt>
      <trkpt lat="52.88542" lon="5.61491">
        <ele>-4.1999998092651</ele>
        <time>2019-05-17T10:37:49Z</time>
      </trkpt>
      <trkpt lat="52.88589" lon="5.61554">
        <ele>-4.8000001907349</ele>
        <time>2019-05-17T10:38:02Z</time>
      </trkpt>
      <trkpt lat="52.8863" lon="5.61646">
        <ele>-5.1999998092651</ele>
        <time>2019-05-17T10:38:24Z</time>
      </trkpt>
      <trkpt lat="52.88671" lon="5.61774">
        <ele>-5</ele>
        <time>2019-05-17T10:39:45Z</time>
      </trkpt>
      <trkpt lat="52.88709" lon="5.61908">
        <ele>-5.1999998092651</ele>
        <time>2019-05-17T10:39:58Z</time>
      </trkpt>
      <trkpt lat="52.8874" lon="5.61983">
        <ele>-5</ele>
        <time>2019-05-17T10:40:21Z</time>
      </trkpt>
      <trkpt lat="52.8877" lon="5.62087">
        <ele>-5</ele>
        <time>2019-05-17T10:41:01Z</time>
      </trkpt>
      <trkpt lat="52.88803" lon="5.62197">
        <ele>-5.1999998092651</ele>
        <time>2019-05-17T10:41:12Z</time>
      </trkpt>
      <trkpt lat="52.88845" lon="5.62338">
        <ele>-5</ele>
        <time>2019-05-17T10:41:36Z</time>
      </trkpt>
      <trkpt lat="52.88882" lon="5.62452">
        <ele>-5.1999998092651</ele>
        <time>2019-05-17T10:41:59Z</time>
      </trkpt>
      <trkpt lat="52.88901" lon="5.62548">
        <ele>-4.8000001907349</ele>
        <time>2019-05-17T10:42:24Z</time>
      </trkpt>
      <trkpt lat="52.88935" lon="5.62634">
        <ele>-4.8000001907349</ele>
        <time>2019-05-17T10:42:35Z</time>
      </trkpt>
      <trkpt lat="52.88964" lon="5.62747">
        <ele>-5.1999998092651</ele>
        <time>2019-05-17T10:42:50Z</time>
      </trkpt>
      <trkpt lat="52.8898" lon="5.62821">
        <ele>-5.5999999046326</ele>
        <time>2019-05-17T10:43:14Z</time>
      </trkpt>
      <trkpt lat="52.89091" lon="5.63158">
        <ele>-5.5999999046326</ele>
        <time>2019-05-17T10:43:22Z</time>
      </trkpt>
      <trkpt lat="52.89134" lon="5.63328">
        <ele>-5.4000000953674</ele>
        <time>2019-05-17T10:43:35Z</time>
      </trkpt>
      <trkpt lat="52.89158" lon="5.6342">
        <ele>-5.1999998092651</ele>
        <time>2019-05-17T10:43:46Z</time>
      </trkpt>
      <trkpt lat="52.89236" lon="5.63705">
        <ele>-5.1999998092651</ele>
        <time>2019-05-17T10:44:00Z</time>
      </trkpt>
      <trkpt lat="52.89311" lon="5.63951">
        <ele>-5.1999998092651</ele>
        <time>2019-05-17T10:45:41Z</time>
      </trkpt>
      <trkpt lat="52.89349" lon="5.64069">
        <ele>-5.5999999046326</ele>
        <time>2019-05-17T10:46:17Z</time>
      </trkpt>
      <trkpt lat="52.89391" lon="5.64184">
        <ele>-5</ele>
        <time>2019-05-17T10:46:26Z</time>
      </trkpt>
      <trkpt lat="52.89406" lon="5.64232">
        <ele>-4.1999998092651</ele>
        <time>2019-05-17T10:46:37Z</time>
      </trkpt>
      <trkpt lat="52.89412" lon="5.64249">
        <ele>-4.4000000953674</ele>
        <time>2019-05-17T10:47:13Z</time>
      </trkpt>
      <trkpt lat="52.8943" lon="5.64316">
        <ele>-4.1999998092651</ele>
        <time>2019-05-17T10:47:46Z</time>
      </trkpt>
      <trkpt lat="52.89468" lon="5.64427">
        <ele>-4</ele>
        <time>2019-05-17T10:48:20Z</time>
      </trkpt>
      <trkpt lat="52.89495" lon="5.64522">
        <ele>-3.2000000476837</ele>
        <time>2019-05-17T10:49:23Z</time>
      </trkpt>
      <trkpt lat="52.8948" lon="5.64529">
        <ele>-3.5999999046326</ele>
        <time>2019-05-17T10:49:40Z</time>
      </trkpt>
      <trkpt lat="52.89494" lon="5.64542">
        <ele>-2.7999999523163</ele>
        <time>2019-05-17T10:52:13Z</time>
      </trkpt>
      <trkpt lat="52.8951" lon="5.64609">
        <ele>-2.5999999046326</ele>
        <time>2019-05-17T10:52:28Z</time>
      </trkpt>
      <trkpt lat="52.89525" lon="5.64634">
        <ele>-3</ele>
        <time>2019-05-17T10:52:39Z</time>
      </trkpt>
      <trkpt lat="52.89571" lon="5.64684">
        <ele>-3</ele>
        <time>2019-05-17T10:52:45Z</time>
      </trkpt>
      <trkpt lat="52.8961" lon="5.64682">
        <ele>-4</ele>
        <time>2019-05-17T10:52:52Z</time>
      </trkpt>
      <trkpt lat="52.89597" lon="5.64677">
        <ele>-3.5999999046326</ele>
        <time>2019-05-17T10:53:06Z</time>
      </trkpt>
      <trkpt lat="52.89576" lon="5.64673">
        <ele>-3.7999999523163</ele>
        <time>2019-05-17T10:53:28Z</time>
      </trkpt>
      <trkpt lat="52.89551" lon="5.64725">
        <ele>-3.7999999523163</ele>
        <time>2019-05-17T10:53:44Z</time>
      </trkpt>
      <trkpt lat="52.89525" lon="5.64806">
        <ele>-3</ele>
        <time>2019-05-17T10:54:05Z</time>
      </trkpt>
      <trkpt lat="52.8951" lon="5.64865">
        <ele>-2.7999999523163</ele>
        <time>2019-05-17T10:54:23Z</time>
      </trkpt>
      <trkpt lat="52.89501" lon="5.64901">
        <ele>-3.4000000953674</ele>
        <time>2019-05-17T10:54:35Z</time>
      </trkpt>
      <trkpt lat="52.8949" lon="5.64992">
        <ele>-3.5999999046326</ele>
        <time>2019-05-17T10:54:58Z</time>
      </trkpt>
      <trkpt lat="52.89505" lon="5.65075">
        <ele>-3.5999999046326</ele>
        <time>2019-05-17T10:55:12Z</time>
      </trkpt>
      <trkpt lat="52.89548" lon="5.65228">
        <ele>-3.7999999523163</ele>
        <time>2019-05-17T10:55:37Z</time>
      </trkpt>
      <trkpt lat="52.89581" lon="5.65344">
        <ele>-3.5999999046326</ele>
        <time>2019-05-17T10:56:00Z</time>
      </trkpt>
      <trkpt lat="52.89614" lon="5.65453">
        <ele>-3.2000000476837</ele>
        <time>2019-05-17T10:56:22Z</time>
      </trkpt>
      <trkpt lat="52.8964" lon="5.65545">
        <ele>-3.2000000476837</ele>
        <time>2019-05-17T10:56:43Z</time>
      </trkpt>
      <trkpt lat="52.89679" lon="5.65651">
        <ele>-3.4000000953674</ele>
        <time>2019-05-17T10:56:56Z</time>
      </trkpt>
      <trkpt lat="52.89734" lon="5.65796">
        <ele>-3.4000000953674</ele>
        <time>2019-05-17T10:57:15Z</time>
      </trkpt>
      <trkpt lat="52.89784" lon="5.65948">
        <ele>-3</ele>
        <time>2019-05-17T10:57:30Z</time>
      </trkpt>
      <trkpt lat="52.8981" lon="5.66074">
        <ele>-3.2000000476837</ele>
        <time>2019-05-17T10:57:46Z</time>
      </trkpt>
      <trkpt lat="52.89834" lon="5.66178">
        <ele>-3.2000000476837</ele>
        <time>2019-05-17T10:57:57Z</time>
      </trkpt>
      <trkpt lat="52.8987" lon="5.66296">
        <ele>-2.7999999523163</ele>
        <time>2019-05-17T10:58:13Z</time>
      </trkpt>
      <trkpt lat="52.89905" lon="5.66407">
        <ele>-3.4000000953674</ele>
        <time>2019-05-17T10:58:31Z</time>
      </trkpt>
      <trkpt lat="52.89942" lon="5.66522">
        <ele>-3.2000000476837</ele>
        <time>2019-05-17T10:58:51Z</time>
      </trkpt>
      <trkpt lat="52.89988" lon="5.66666">
        <ele>-3.4000000953674</ele>
        <time>2019-05-17T10:59:08Z</time>
      </trkpt>
      <trkpt lat="52.90034" lon="5.6681">
        <ele>-2.7999999523163</ele>
        <time>2019-05-17T10:59:50Z</time>
      </trkpt>
      <trkpt lat="52.9009" lon="5.66981">
        <ele>-2.4000000953674</ele>
        <time>2019-05-17T11:00:12Z</time>
      </trkpt>
      <trkpt lat="52.90125" lon="5.67089">
        <ele>-3.2000000476837</ele>
        <time>2019-05-17T11:00:35Z</time>
      </trkpt>
      <trkpt lat="52.90179" lon="5.67257">
        <ele>-2.7999999523163</ele>
        <time>2019-05-17T11:00:56Z</time>
      </trkpt>
      <trkpt lat="52.90221" lon="5.67388">
        <ele>-2.5999999046326</ele>
        <time>2019-05-17T11:01:15Z</time>
      </trkpt>
      <trkpt lat="52.90256" lon="5.67492">
        <ele>-2.5999999046326</ele>
        <time>2019-05-17T11:01:39Z</time>
      </trkpt>
      <trkpt lat="52.90288" lon="5.67582">
        <ele>-2.4000000953674</ele>
        <time>2019-05-17T11:01:56Z</time>
      </trkpt>
      <trkpt lat="52.90328" lon="5.67687">
        <ele>-1.6000000238419</ele>
        <time>2019-05-17T11:02:39Z</time>
      </trkpt>
      <trkpt lat="52.90357" lon="5.67768">
        <ele>-1.2000000476837</ele>
        <time>2019-05-17T11:02:56Z</time>
      </trkpt>
      <trkpt lat="52.90351" lon="5.67818">
        <ele>-1</ele>
        <time>2019-05-17T11:03:13Z</time>
      </trkpt>
      <trkpt lat="52.9034" lon="5.67866">
        <ele>-1</ele>
        <time>2019-05-17T11:03:28Z</time>
      </trkpt>
      <trkpt lat="52.90398" lon="5.67937">
        <ele>-0.40000000596046</ele>
        <time>2019-05-17T11:03:49Z</time>
      </trkpt>
      <trkpt lat="52.90402" lon="5.68091">
        <ele>-0.20000000298023</ele>
        <time>2019-05-17T11:04:13Z</time>
      </trkpt>
      <trkpt lat="52.90459" lon="5.68362">
        <ele>-1</ele>
        <time>2019-05-17T11:05:01Z</time>
      </trkpt>
      <trkpt lat="52.90502" lon="5.68519">
        <ele>-1.2000000476837</ele>
        <time>2019-05-17T11:05:09Z</time>
      </trkpt>
      <trkpt lat="52.90535" lon="5.68629">
        <ele>-1.3999999761581</ele>
        <time>2019-05-17T11:05:18Z</time>
      </trkpt>
      <trkpt lat="52.90561" lon="5.68706">
        <ele>-1.3999999761581</ele>
        <time>2019-05-17T11:05:36Z</time>
      </trkpt>
      <trkpt lat="52.90602" lon="5.68813">
        <ele>-1.7999999523163</ele>
        <time>2019-05-17T11:05:50Z</time>
      </trkpt>
      <trkpt lat="52.90642" lon="5.68919">
        <ele>-2.5999999046326</ele>
        <time>2019-05-17T11:06:08Z</time>
      </trkpt>
      <trkpt lat="52.9069" lon="5.69049">
        <ele>-2.4000000953674</ele>
        <time>2019-05-17T11:06:58Z</time>
      </trkpt>
      <trkpt lat="52.90719" lon="5.6914">
        <ele>-2</ele>
        <time>2019-05-17T11:07:10Z</time>
      </trkpt>
      <trkpt lat="52.90764" lon="5.69292">
        <ele>-2</ele>
        <time>2019-05-17T11:07:21Z</time>
      </trkpt>
      <trkpt lat="52.90853" lon="5.6953">
        <ele>-2.4000000953674</ele>
        <time>2019-05-17T11:07:39Z</time>
      </trkpt>
      <trkpt lat="52.90894" lon="5.69632">
        <ele>-1.3999999761581</ele>
        <time>2019-05-17T11:07:56Z</time>
      </trkpt>
      <trkpt lat="52.90945" lon="5.697">
        <ele>-0.40000000596046</ele>
        <time>2019-05-17T11:08:35Z</time>
      </trkpt>
      <trkpt lat="52.91022" lon="5.69806">
        <ele>2.4000000953674</ele>
        <time>2019-05-17T11:08:46Z</time>
      </trkpt>
      <trkpt lat="52.91058" lon="5.69925">
        <ele>5.1999998092651</ele>
        <time>2019-05-17T11:09:03Z</time>
      </trkpt>
      <trkpt lat="52.91055" lon="5.7">
        <ele>5.8000001907349</ele>
        <time>2019-05-17T11:09:16Z</time>
      </trkpt>
      <trkpt lat="52.91052" lon="5.70095">
        <ele>6.1999998092651</ele>
        <time>2019-05-17T11:09:31Z</time>
      </trkpt>
      <trkpt lat="52.91038" lon="5.70177">
        <ele>5.4000000953674</ele>
        <time>2019-05-17T11:10:36Z</time>
      </trkpt>
      <trkpt lat="52.90926" lon="5.70343">
        <ele>2.4000000953674</ele>
        <time>2019-05-17T11:10:50Z</time>
      </trkpt>
      <trkpt lat="52.90859" lon="5.70433">
        <ele>1</ele>
        <time>2019-05-17T11:10:57Z</time>
      </trkpt>
      <trkpt lat="52.90838" lon="5.70434">
        <ele>-0.80000001192093</ele>
        <time>2019-05-17T11:11:28Z</time>
      </trkpt>
      <trkpt lat="52.90835" lon="5.704">
        <ele>-1</ele>
        <time>2019-05-17T11:11:47Z</time>
      </trkpt>
      <trkpt lat="52.90879" lon="5.70377">
        <ele>-0.60000002384186</ele>
        <time>2019-05-17T11:12:04Z</time>
      </trkpt>
      <trkpt lat="52.90962" lon="5.70259">
        <ele>-0.80000001192093</ele>
        <time>2019-05-17T11:12:29Z</time>
      </trkpt>
      <trkpt lat="52.9102" lon="5.7014">
        <ele>-0.80000001192093</ele>
        <time>2019-05-17T11:12:45Z</time>
      </trkpt>
      <trkpt lat="52.91019" lon="5.70069">
        <ele>-0.80000001192093</ele>
        <time>2019-05-17T11:12:57Z</time>
      </trkpt>
      <trkpt lat="52.91018" lon="5.70071">
        <ele>0.40000000596046</ele>
        <time>2019-05-17T11:13:39Z</time>
      </trkpt>
      <trkpt lat="52.91019" lon="5.70082">
        <ele>0.20000000298023</ele>
        <time>2019-05-17T11:13:57Z</time>
      </trkpt>
      <trkpt lat="52.91009" lon="5.70173">
        <ele>0.60000002384186</ele>
        <time>2019-05-17T11:14:05Z</time>
      </trkpt>
      <trkpt lat="52.90955" lon="5.70258">
        <ele>0.20000000298023</ele>
        <time>2019-05-17T11:14:21Z</time>
      </trkpt>
      <trkpt lat="52.90902" lon="5.70342">
        <ele>0.40000000596046</ele>
        <time>2019-05-17T11:14:53Z</time>
      </trkpt>
      <trkpt lat="52.90837" lon="5.70392">
        <ele>0.20000000298023</ele>
        <time>2019-05-17T11:15:15Z</time>
      </trkpt>
      <trkpt lat="52.90785" lon="5.70459">
        <ele>0.20000000298023</ele>
        <time>2019-05-17T11:15:39Z</time>
      </trkpt>
      <trkpt lat="52.90749" lon="5.70573">
        <ele>-0.20000000298023</ele>
        <time>2019-05-17T11:16:05Z</time>
      </trkpt>
      <trkpt lat="52.907" lon="5.70657">
        <time>2019-05-17T11:16:20Z</time>
      </trkpt>
      <trkpt lat="52.9067" lon="5.70711">
        <ele>-0.40000000596046</ele>
        <time>2019-05-17T11:16:40Z</time>
      </trkpt>
      <trkpt lat="52.90628" lon="5.70782">
        <ele>-0.20000000298023</ele>
        <time>2019-05-17T11:17:01Z</time>
      </trkpt>
      <trkpt lat="52.90564" lon="5.70884">
        <ele>-0.60000002384186</ele>
        <time>2019-05-17T11:17:12Z</time>
      </trkpt>
      <trkpt lat="52.90505" lon="5.7098">
        <ele>-0.40000000596046</ele>
        <time>2019-05-17T11:17:35Z</time>
      </trkpt>
      <trkpt lat="52.90454" lon="5.71067">
        <ele>0.20000000298023</ele>
        <time>2019-05-17T11:17:48Z</time>
      </trkpt>
      <trkpt lat="52.90398" lon="5.71157">
        <ele>-0.20000000298023</ele>
        <time>2019-05-17T11:18:10Z</time>
      </trkpt>
      <trkpt lat="52.90236" lon="5.71425">
        <ele>0.20000000298023</ele>
        <time>2019-05-17T11:18:30Z</time>
      </trkpt>
      <trkpt lat="52.90117" lon="5.71622">
        <ele>0.20000000298023</ele>
        <time>2019-05-17T11:18:49Z</time>
      </trkpt>
      <trkpt lat="52.90061" lon="5.71714">
        <time>2019-05-17T11:25:24Z</time>
      </trkpt>
      <trkpt lat="52.89998" lon="5.71819">
        <ele>0.20000000298023</ele>
        <time>2019-05-17T11:25:48Z</time>
      </trkpt>
      <trkpt lat="52.89927" lon="5.71937">
        <ele>0.20000000298023</ele>
        <time>2019-05-17T11:26:06Z</time>
      </trkpt>
      <trkpt lat="52.89884" lon="5.7201">
        <ele>1</ele>
        <time>2019-05-17T11:26:12Z</time>
      </trkpt>
      <trkpt lat="52.89818" lon="5.72118">
        <ele>0.80000001192093</ele>
        <time>2019-05-17T11:26:33Z</time>
      </trkpt>
      <trkpt lat="52.89773" lon="5.72191">
        <ele>0.80000001192093</ele>
        <time>2019-05-17T11:26:43Z</time>
      </trkpt>
      <trkpt lat="52.89719" lon="5.72284">
        <ele>1</ele>
        <time>2019-05-17T11:26:52Z</time>
      </trkpt>
      <trkpt lat="52.89642" lon="5.72412">
        <ele>1</ele>
        <time>2019-05-17T11:27:13Z</time>
      </trkpt>
      <trkpt lat="52.89573" lon="5.72524">
        <ele>1.2000000476837</ele>
        <time>2019-05-17T11:27:27Z</time>
      </trkpt>
      <trkpt lat="52.89515" lon="5.72618">
        <ele>0.60000002384186</ele>
        <time>2019-05-17T11:27:37Z</time>
      </trkpt>
      <trkpt lat="52.89457" lon="5.72723">
        <ele>0.40000000596046</ele>
        <time>2019-05-17T11:27:49Z</time>
      </trkpt>
      <trkpt lat="52.89407" lon="5.72817">
        <ele>0.40000000596046</ele>
        <time>2019-05-17T11:28:00Z</time>
      </trkpt>
      <trkpt lat="52.89335" lon="5.72933">
        <ele>0.60000002384186</ele>
        <time>2019-05-17T11:28:16Z</time>
      </trkpt>
      <trkpt lat="52.89244" lon="5.73082">
        <ele>1.3999999761581</ele>
        <time>2019-05-17T11:28:36Z</time>
      </trkpt>
      <trkpt lat="52.89198" lon="5.73156">
        <ele>1.3999999761581</ele>
        <time>2019-05-17T11:39:50Z</time>
      </trkpt>
      <trkpt lat="52.89111" lon="5.733">
        <ele>0.80000001192093</ele>
        <time>2019-05-17T11:40:03Z</time>
      </trkpt>
      <trkpt lat="52.89073" lon="5.73363">
        <ele>0.40000000596046</ele>
        <time>2019-05-17T11:40:22Z</time>
      </trkpt>
      <trkpt lat="52.88931" lon="5.73588">
        <ele>0.80000001192093</ele>
        <time>2019-05-17T11:40:34Z</time>
      </trkpt>
      <trkpt lat="52.88877" lon="5.73677">
        <ele>0.60000002384186</ele>
        <time>2019-05-17T11:40:55Z</time>
      </trkpt>
      <trkpt lat="52.88811" lon="5.73734">
        <ele>1.3999999761581</ele>
        <time>2019-05-17T11:41:22Z</time>
      </trkpt>
      <trkpt lat="52.88666" lon="5.73724">
        <ele>2.5999999046326</ele>
        <time>2019-05-17T11:41:46Z</time>
      </trkpt>
      <trkpt lat="52.88563" lon="5.73703">
        <ele>2</ele>
        <time>2019-05-17T11:42:11Z</time>
      </trkpt>
      <trkpt lat="52.8838" lon="5.73729">
        <ele>1.6000000238419</ele>
        <time>2019-05-17T11:42:25Z</time>
      </trkpt>
      <trkpt lat="52.8823" lon="5.73733">
        <ele>0.80000001192093</ele>
        <time>2019-05-17T11:42:54Z</time>
      </trkpt>
      <trkpt lat="52.8818" lon="5.73716">
        <ele>0.80000001192093</ele>
        <time>2019-05-17T11:43:10Z</time>
      </trkpt>
      <trkpt lat="52.88119" lon="5.73773">
        <ele>0.80000001192093</ele>
        <time>2019-05-17T11:43:35Z</time>
      </trkpt>
      <trkpt lat="52.88042" lon="5.73795">
        <ele>1.2000000476837</ele>
        <time>2019-05-17T11:43:55Z</time>
      </trkpt>
      <trkpt lat="52.87949" lon="5.73824">
        <ele>0.80000001192093</ele>
        <time>2019-05-17T11:44:20Z</time>
      </trkpt>
      <trkpt lat="52.87837" lon="5.73897">
        <ele>0.80000001192093</ele>
        <time>2019-05-17T11:44:33Z</time>
      </trkpt>
      <trkpt lat="52.87768" lon="5.73955">
        <ele>1.2000000476837</ele>
        <time>2019-05-17T11:44:51Z</time>
      </trkpt>
      <trkpt lat="52.87671" lon="5.74038">
        <ele>0.80000001192093</ele>
        <time>2019-05-17T11:45:09Z</time>
      </trkpt>
      <trkpt lat="52.87527" lon="5.74213">
        <ele>2.4000000953674</ele>
        <time>2019-05-17T11:45:39Z</time>
      </trkpt>
      <trkpt lat="52.87489" lon="5.74286">
        <ele>3.2000000476837</ele>
        <time>2019-05-17T11:45:51Z</time>
      </trkpt>
      <trkpt lat="52.87435" lon="5.74404">
        <ele>5.4000000953674</ele>
        <time>2019-05-17T11:46:23Z</time>
      </trkpt>
      <trkpt lat="52.87378" lon="5.74553">
        <ele>7.4000000953674</ele>
        <time>2019-05-17T11:46:49Z</time>
      </trkpt>
      <trkpt lat="52.87337" lon="5.74647">
        <ele>7.5999999046326</ele>
        <time>2019-05-17T11:47:08Z</time>
      </trkpt>
      <trkpt lat="52.87264" lon="5.74797">
        <ele>5.4000000953674</ele>
        <time>2019-05-17T11:47:33Z</time>
      </trkpt>
      <trkpt lat="52.87267" lon="5.74813">
        <ele>4</ele>
        <time>2019-05-17T11:48:00Z</time>
      </trkpt>
      <trkpt lat="52.87243" lon="5.74862">
        <ele>3.7999999523163</ele>
        <time>2019-05-17T11:48:10Z</time>
      </trkpt>
      <trkpt lat="52.87204" lon="5.7494">
        <ele>-0.20000000298023</ele>
        <time>2019-05-17T11:48:33Z</time>
      </trkpt>
      <trkpt lat="52.87184" lon="5.75022">
        <ele>-0.20000000298023</ele>
        <time>2019-05-17T11:48:55Z</time>
      </trkpt>
      <trkpt lat="52.87162" lon="5.75154">
        <ele>0.60000002384186</ele>
        <time>2019-05-17T11:49:11Z</time>
      </trkpt>
      <trkpt lat="52.87165" lon="5.75177">
        <ele>0.60000002384186</ele>
        <time>2019-05-17T11:49:37Z</time>
      </trkpt>
      <trkpt lat="52.8716" lon="5.75167">
        <ele>0.40000000596046</ele>
        <time>2019-05-17T11:50:09Z</time>
      </trkpt>
      <trkpt lat="52.87172" lon="5.75088">
        <ele>0.40000000596046</ele>
        <time>2019-05-17T11:50:38Z</time>
      </trkpt>
      <trkpt lat="52.872" lon="5.74959">
        <ele>0.20000000298023</ele>
        <time>2019-05-17T11:51:27Z</time>
      </trkpt>
      <trkpt lat="52.87232" lon="5.74866">
        <ele>0.20000000298023</ele>
        <time>2019-05-17T11:52:44Z</time>
      </trkpt>
      <trkpt lat="52.87256" lon="5.74841">
        <ele>1.3999999761581</ele>
        <time>2019-05-17T12:08:00Z</time>
      </trkpt>
      <trkpt lat="52.87258" lon="5.74794">
        <ele>4.5999999046326</ele>
        <time>2019-05-17T12:08:26Z</time>
      </trkpt>
      <trkpt lat="52.87201" lon="5.74677">
        <ele>3.5999999046326</ele>
        <time>2019-05-17T12:08:38Z</time>
      </trkpt>
      <trkpt lat="52.87197" lon="5.74667">
        <ele>3.2000000476837</ele>
        <time>2019-05-17T12:08:51Z</time>
      </trkpt>
      <trkpt lat="52.87156" lon="5.74632">
        <ele>2.7999999523163</ele>
        <time>2019-05-17T12:09:13Z</time>
      </trkpt>
      <trkpt lat="52.87102" lon="5.74665">
        <ele>2</ele>
        <time>2019-05-17T12:09:33Z</time>
      </trkpt>
      <trkpt lat="52.8702" lon="5.74717">
        <ele>1.3999999761581</ele>
        <time>2019-05-17T12:09:42Z</time>
      </trkpt>
      <trkpt lat="52.8697" lon="5.74749">
        <ele>1.2000000476837</ele>
        <time>2019-05-17T12:09:55Z</time>
      </trkpt>
      <trkpt lat="52.8689" lon="5.74799">
        <ele>1.3999999761581</ele>
        <time>2019-05-17T12:10:14Z</time>
      </trkpt>
      <trkpt lat="52.86871" lon="5.74809">
        <ele>1.6000000238419</ele>
        <time>2019-05-17T12:10:29Z</time>
      </trkpt>
      <trkpt lat="52.86868" lon="5.74815">
        <ele>1</ele>
        <time>2019-05-17T12:10:44Z</time>
      </trkpt>
      <trkpt lat="52.86927" lon="5.75076">
        <ele>1.6000000238419</ele>
        <time>2019-05-17T12:10:49Z</time>
      </trkpt>
      <trkpt lat="52.86961" lon="5.75236">
        <ele>1.2000000476837</ele>
        <time>2019-05-17T12:11:01Z</time>
      </trkpt>
      <trkpt lat="52.8699" lon="5.75371">
        <ele>1.3999999761581</ele>
        <time>2019-05-17T12:11:14Z</time>
      </trkpt>
      <trkpt lat="52.87022" lon="5.75504">
        <ele>1.3999999761581</ele>
        <time>2019-05-17T12:11:31Z</time>
      </trkpt>
      <trkpt lat="52.87055" lon="5.75631">
        <ele>1.6000000238419</ele>
        <time>2019-05-17T12:11:48Z</time>
      </trkpt>
      <trkpt lat="52.87066" lon="5.75683">
        <ele>1.7999999523163</ele>
        <time>2019-05-17T12:12:05Z</time>
      </trkpt>
      <trkpt lat="52.87081" lon="5.75772">
        <ele>1.6000000238419</ele>
        <time>2019-05-17T12:12:15Z</time>
      </trkpt>
      <trkpt lat="52.87095" lon="5.75841">
        <ele>2</ele>
        <time>2019-05-17T12:12:25Z</time>
      </trkpt>
      <trkpt lat="52.87102" lon="5.75879">
        <ele>2</ele>
        <time>2019-05-17T12:12:38Z</time>
      </trkpt>
      <trkpt lat="52.87146" lon="5.76159">
        <ele>1.2000000476837</ele>
        <time>2019-05-17T12:12:55Z</time>
      </trkpt>
      <trkpt lat="52.87177" lon="5.7634">
        <ele>1.3999999761581</ele>
        <time>2019-05-17T12:13:06Z</time>
      </trkpt>
      <trkpt lat="52.87209" lon="5.76517">
        <ele>1.2000000476837</ele>
        <time>2019-05-17T12:13:16Z</time>
      </trkpt>
      <trkpt lat="52.87275" lon="5.76868">
        <ele>1.2000000476837</ele>
        <time>2019-05-17T12:13:33Z</time>
      </trkpt>
      <trkpt lat="52.87298" lon="5.77005">
        <ele>1</ele>
        <time>2019-05-17T12:13:42Z</time>
      </trkpt>
      <trkpt lat="52.87324" lon="5.77159">
        <ele>1.2000000476837</ele>
        <time>2019-05-17T12:13:51Z</time>
      </trkpt>
      <trkpt lat="52.87359" lon="5.77424">
        <ele>1.2000000476837</ele>
        <time>2019-05-17T12:14:11Z</time>
      </trkpt>
      <trkpt lat="52.87367" lon="5.77524">
        <ele>1.6000000238419</ele>
        <time>2019-05-17T12:14:30Z</time>
      </trkpt>
      <trkpt lat="52.87372" lon="5.77625">
        <ele>1.6000000238419</ele>
        <time>2019-05-17T12:14:53Z</time>
      </trkpt>
      <trkpt lat="52.87379" lon="5.77735">
        <ele>1.2000000476837</ele>
        <time>2019-05-17T12:15:50Z</time>
      </trkpt>
      <trkpt lat="52.87383" lon="5.77861">
        <ele>1.2000000476837</ele>
        <time>2019-05-17T12:16:03Z</time>
      </trkpt>
      <trkpt lat="52.87387" lon="5.77982">
        <ele>1.3999999761581</ele>
        <time>2019-05-17T12:16:43Z</time>
      </trkpt>
      <trkpt lat="52.87387" lon="5.78133">
        <ele>1.7999999523163</ele>
        <time>2019-05-17T12:16:56Z</time>
      </trkpt>
      <trkpt lat="52.87379" lon="5.78243">
        <ele>2</ele>
        <time>2019-05-17T12:17:14Z</time>
      </trkpt>
      <trkpt lat="52.87374" lon="5.78388">
        <ele>1.6000000238419</ele>
        <time>2019-05-17T12:17:33Z</time>
      </trkpt>
      <trkpt lat="52.87362" lon="5.78601">
        <ele>1.6000000238419</ele>
        <time>2019-05-17T12:17:52Z</time>
      </trkpt>
      <trkpt lat="52.87361" lon="5.78736">
        <ele>2.2000000476837</ele>
        <time>2019-05-17T12:18:08Z</time>
      </trkpt>
      <trkpt lat="52.87359" lon="5.78826">
        <ele>2</ele>
        <time>2019-05-17T12:20:14Z</time>
      </trkpt>
      <trkpt lat="52.87348" lon="5.79015">
        <ele>2</ele>
        <time>2019-05-17T12:20:26Z</time>
      </trkpt>
      <trkpt lat="52.87349" lon="5.79205">
        <ele>1.2000000476837</ele>
        <time>2019-05-17T12:20:43Z</time>
      </trkpt>
      <trkpt lat="52.87345" lon="5.79355">
        <ele>1</ele>
        <time>2019-05-17T12:20:56Z</time>
      </trkpt>
      <trkpt lat="52.87333" lon="5.79467">
        <ele>1.3999999761581</ele>
        <time>2019-05-17T12:21:39Z</time>
      </trkpt>
      <trkpt lat="52.87319" lon="5.79572">
        <ele>1.6000000238419</ele>
        <time>2019-05-17T12:21:49Z</time>
      </trkpt>
      <trkpt lat="52.87311" lon="5.79643">
        <ele>1.3999999761581</ele>
        <time>2019-05-17T12:22:00Z</time>
      </trkpt>
      <trkpt lat="52.87334" lon="5.79799">
        <ele>1.7999999523163</ele>
        <time>2019-05-17T12:22:12Z</time>
      </trkpt>
      <trkpt lat="52.87348" lon="5.79935">
        <ele>2</ele>
        <time>2019-05-17T12:22:32Z</time>
      </trkpt>
      <trkpt lat="52.8736" lon="5.80102">
        <ele>1.3999999761581</ele>
        <time>2019-05-17T12:23:00Z</time>
      </trkpt>
      <trkpt lat="52.87364" lon="5.80265">
        <ele>1</ele>
        <time>2019-05-17T12:23:10Z</time>
      </trkpt>
      <trkpt lat="52.87367" lon="5.80332">
        <ele>1</ele>
        <time>2019-05-17T12:25:17Z</time>
      </trkpt>
      <trkpt lat="52.87369" lon="5.80363">
        <ele>0.80000001192093</ele>
        <time>2019-05-17T12:25:25Z</time>
      </trkpt>
      <trkpt lat="52.87361" lon="5.8051">
        <ele>0.60000002384186</ele>
        <time>2019-05-17T12:25:42Z</time>
      </trkpt>
      <trkpt lat="52.87349" lon="5.80662">
        <ele>1.2000000476837</ele>
        <time>2019-05-17T12:25:49Z</time>
      </trkpt>
      <trkpt lat="52.87337" lon="5.80787">
        <ele>1.2000000476837</ele>
        <time>2019-05-17T12:25:53Z</time>
      </trkpt>
      <trkpt lat="52.87317" lon="5.8094">
        <ele>1</ele>
        <time>2019-05-17T12:26:07Z</time>
      </trkpt>
      <trkpt lat="52.8727" lon="5.81106">
        <ele>1.3999999761581</ele>
        <time>2019-05-17T12:28:15Z</time>
      </trkpt>
      <trkpt lat="52.8723" lon="5.8125">
        <ele>1.6000000238419</ele>
        <time>2019-05-17T12:28:27Z</time>
      </trkpt>
      <trkpt lat="52.87209" lon="5.81407">
        <ele>1.2000000476837</ele>
        <time>2019-05-17T12:28:43Z</time>
      </trkpt>
      <trkpt lat="52.87204" lon="5.8156">
        <ele>1.3999999761581</ele>
        <time>2019-05-17T12:28:55Z</time>
      </trkpt>
      <trkpt lat="52.87193" lon="5.8168">
        <ele>1.3999999761581</ele>
        <time>2019-05-17T12:29:08Z</time>
      </trkpt>
      <trkpt lat="52.87175" lon="5.8184">
        <ele>1.6000000238419</ele>
        <time>2019-05-17T12:29:22Z</time>
      </trkpt>
      <trkpt lat="52.87167" lon="5.81919">
        <ele>1.7999999523163</ele>
        <time>2019-05-17T12:29:36Z</time>
      </trkpt>
      <trkpt lat="52.87142" lon="5.82052">
        <ele>1.6000000238419</ele>
        <time>2019-05-17T12:29:46Z</time>
      </trkpt>
      <trkpt lat="52.87128" lon="5.82123">
        <ele>1.3999999761581</ele>
        <time>2019-05-17T12:30:02Z</time>
      </trkpt>
      <trkpt lat="52.8711" lon="5.82235">
        <ele>1.3999999761581</ele>
        <time>2019-05-17T12:30:22Z</time>
      </trkpt>
      <trkpt lat="52.8708" lon="5.8223">
        <ele>1.3999999761581</ele>
        <time>2019-05-17T12:30:30Z</time>
      </trkpt>
      <trkpt lat="52.87015" lon="5.82239">
        <ele>1</ele>
        <time>2019-05-17T12:31:03Z</time>
      </trkpt>
      <trkpt lat="52.86967" lon="5.82416">
        <ele>1</ele>
        <time>2019-05-17T12:31:15Z</time>
      </trkpt>
      <trkpt lat="52.86854" lon="5.82886">
        <ele>2.2000000476837</ele>
        <time>2019-05-17T12:31:21Z</time>
      </trkpt>
      <trkpt lat="52.86815" lon="5.83029">
        <ele>2</ele>
        <time>2019-05-17T12:31:36Z</time>
      </trkpt>
      <trkpt lat="52.86769" lon="5.83185">
        <ele>2.4000000953674</ele>
        <time>2019-05-17T12:31:50Z</time>
      </trkpt>
      <trkpt lat="52.86744" lon="5.83284">
        <ele>2.2000000476837</ele>
        <time>2019-05-17T12:32:12Z</time>
      </trkpt>
      <trkpt lat="52.86689" lon="5.83406">
        <ele>2</ele>
        <time>2019-05-17T12:32:25Z</time>
      </trkpt>
      <trkpt lat="52.86602" lon="5.83539">
        <ele>2.4000000953674</ele>
        <time>2019-05-17T12:32:36Z</time>
      </trkpt>
      <trkpt lat="52.86543" lon="5.83672">
        <ele>2.5999999046326</ele>
        <time>2019-05-17T12:32:43Z</time>
      </trkpt>
      <trkpt lat="52.86472" lon="5.83831">
        <ele>2.7999999523163</ele>
        <time>2019-05-17T12:35:40Z</time>
      </trkpt>
      <trkpt lat="52.86403" lon="5.83991">
        <ele>2.7999999523163</ele>
        <time>2019-05-17T12:35:53Z</time>
      </trkpt>
      <trkpt lat="52.86358" lon="5.8409">
        <ele>3</ele>
        <time>2019-05-17T12:36:03Z</time>
      </trkpt>
      <trkpt lat="52.86326" lon="5.84165">
        <ele>3.5999999046326</ele>
        <time>2019-05-17T12:36:10Z</time>
      </trkpt>
      <trkpt lat="52.86281" lon="5.84316">
        <ele>4.1999998092651</ele>
        <time>2019-05-17T12:36:30Z</time>
      </trkpt>
      <trkpt lat="52.86225" lon="5.84512">
        <ele>4.4000000953674</ele>
        <time>2019-05-17T12:36:47Z</time>
      </trkpt>
      <trkpt lat="52.8618" lon="5.84668">
        <ele>4.4000000953674</ele>
        <time>2019-05-17T12:37:05Z</time>
      </trkpt>
      <trkpt lat="52.86147" lon="5.84793">
        <ele>4.1999998092651</ele>
        <time>2019-05-17T12:37:17Z</time>
      </trkpt>
      <trkpt lat="52.86123" lon="5.84882">
        <ele>5</ele>
        <time>2019-05-17T12:37:33Z</time>
      </trkpt>
      <trkpt lat="52.86106" lon="5.84942">
        <ele>5.8000001907349</ele>
        <time>2019-05-17T12:37:40Z</time>
      </trkpt>
      <trkpt lat="52.86095" lon="5.84976">
        <ele>6.8000001907349</ele>
        <time>2019-05-17T12:37:55Z</time>
      </trkpt>
      <trkpt lat="52.86079" lon="5.85029">
        <ele>7.1999998092651</ele>
        <time>2019-05-17T12:38:13Z</time>
      </trkpt>
      <trkpt lat="52.86049" lon="5.85136">
        <ele>6.4000000953674</ele>
        <time>2019-05-17T12:38:24Z</time>
      </trkpt>
      <trkpt lat="52.86053" lon="5.85212">
        <ele>5.8000001907349</ele>
        <time>2019-05-17T12:38:41Z</time>
      </trkpt>
      <trkpt lat="52.86146" lon="5.85357">
        <ele>4.8000001907349</ele>
        <time>2019-05-17T12:38:58Z</time>
      </trkpt>
      <trkpt lat="52.86205" lon="5.85409">
        <ele>5</ele>
        <time>2019-05-17T12:39:10Z</time>
      </trkpt>
      <trkpt lat="52.86287" lon="5.85462">
        <ele>4.8000001907349</ele>
        <time>2019-05-17T12:39:26Z</time>
      </trkpt>
      <trkpt lat="52.86438" lon="5.85588">
        <ele>4.8000001907349</ele>
        <time>2019-05-17T12:39:44Z</time>
      </trkpt>
      <trkpt lat="52.86493" lon="5.85683">
        <ele>4.5999999046326</ele>
        <time>2019-05-17T12:41:30Z</time>
      </trkpt>
      <trkpt lat="52.86543" lon="5.8582">
        <ele>5.1999998092651</ele>
        <time>2019-05-17T12:41:42Z</time>
      </trkpt>
      <trkpt lat="52.86564" lon="5.85885">
        <ele>4.8000001907349</ele>
        <time>2019-05-17T12:41:59Z</time>
      </trkpt>
      <trkpt lat="52.86573" lon="5.85913">
        <ele>4.4000000953674</ele>
        <time>2019-05-17T12:42:16Z</time>
      </trkpt>
      <trkpt lat="52.86626" lon="5.86182">
        <ele>4.4000000953674</ele>
        <time>2019-05-17T12:42:31Z</time>
      </trkpt>
      <trkpt lat="52.86602" lon="5.86303">
        <ele>4.4000000953674</ele>
        <time>2019-05-17T12:42:51Z</time>
      </trkpt>
      <trkpt lat="52.86565" lon="5.86467">
        <ele>4.5999999046326</ele>
        <time>2019-05-17T12:43:09Z</time>
      </trkpt>
      <trkpt lat="52.86542" lon="5.86557">
        <ele>4.1999998092651</ele>
        <time>2019-05-17T12:46:37Z</time>
      </trkpt>
      <trkpt lat="52.86509" lon="5.8671">
        <ele>4.1999998092651</ele>
        <time>2019-05-17T12:46:43Z</time>
      </trkpt>
      <trkpt lat="52.86475" lon="5.86854">
        <ele>4</ele>
        <time>2019-05-17T12:46:54Z</time>
      </trkpt>
      <trkpt lat="52.8644" lon="5.87006">
        <ele>4.4000000953674</ele>
        <time>2019-05-17T12:47:06Z</time>
      </trkpt>
      <trkpt lat="52.86419" lon="5.87093">
        <ele>4.1999998092651</ele>
        <time>2019-05-17T12:47:21Z</time>
      </trkpt>
      <trkpt lat="52.86386" lon="5.87229">
        <ele>4.5999999046326</ele>
        <time>2019-05-17T12:47:41Z</time>
      </trkpt>
      <trkpt lat="52.86365" lon="5.87315">
        <ele>4.5999999046326</ele>
        <time>2019-05-17T12:48:00Z</time>
      </trkpt>
      <trkpt lat="52.8634" lon="5.87428">
        <ele>4.1999998092651</ele>
        <time>2019-05-17T12:48:21Z</time>
      </trkpt>
      <trkpt lat="52.86321" lon="5.87533">
        <ele>4.1999998092651</ele>
        <time>2019-05-17T12:48:40Z</time>
      </trkpt>
      <trkpt lat="52.86288" lon="5.87687">
        <ele>4.4000000953674</ele>
        <time>2019-05-17T12:48:59Z</time>
      </trkpt>
      <trkpt lat="52.86245" lon="5.87831">
        <ele>4.1999998092651</ele>
        <time>2019-05-17T12:49:09Z</time>
      </trkpt>
      <trkpt lat="52.86229" lon="5.87884">
        <ele>3.4000000953674</ele>
        <time>2019-05-17T12:49:20Z</time>
      </trkpt>
      <trkpt lat="52.86212" lon="5.87958">
        <ele>3.2000000476837</ele>
        <time>2019-05-17T12:49:38Z</time>
      </trkpt>
      <trkpt lat="52.86171" lon="5.88132">
        <ele>4</ele>
        <time>2019-05-17T12:49:46Z</time>
      </trkpt>
      <trkpt lat="52.86031" lon="5.88725">
        <ele>4</ele>
        <time>2019-05-17T12:49:56Z</time>
      </trkpt>
      <trkpt lat="52.85981" lon="5.88934">
        <ele>4.1999998092651</ele>
        <time>2019-05-17T12:52:19Z</time>
      </trkpt>
      <trkpt lat="52.85943" lon="5.89091">
        <ele>4.1999998092651</ele>
        <time>2019-05-17T12:52:30Z</time>
      </trkpt>
      <trkpt lat="52.85897" lon="5.89284">
        <ele>4</ele>
        <time>2019-05-17T12:52:38Z</time>
      </trkpt>
      <trkpt lat="52.8586" lon="5.89442">
        <ele>4</ele>
        <time>2019-05-17T12:52:48Z</time>
      </trkpt>
      <trkpt lat="52.85796" lon="5.89569">
        <ele>4.4000000953674</ele>
        <time>2019-05-17T12:52:55Z</time>
      </trkpt>
      <trkpt lat="52.85765" lon="5.89637">
        <ele>4.4000000953674</ele>
        <time>2019-05-17T12:53:07Z</time>
      </trkpt>
      <trkpt lat="52.85793" lon="5.89787">
        <ele>4.4000000953674</ele>
        <time>2019-05-17T12:53:32Z</time>
      </trkpt>
      <trkpt lat="52.85802" lon="5.89799">
        <ele>4.8000001907349</ele>
        <time>2019-05-17T12:53:45Z</time>
      </trkpt>
      <trkpt lat="52.85836" lon="5.89849">
        <ele>5.1999998092651</ele>
        <time>2019-05-17T12:54:07Z</time>
      </trkpt>
      <trkpt lat="52.85916" lon="5.89976">
        <ele>4.4000000953674</ele>
        <time>2019-05-17T12:54:38Z</time>
      </trkpt>
      <trkpt lat="52.8595" lon="5.90042">
        <ele>4.4000000953674</ele>
        <time>2019-05-17T12:54:48Z</time>
      </trkpt>
      <trkpt lat="52.85933" lon="5.90103">
        <ele>4.1999998092651</ele>
        <time>2019-05-17T12:55:19Z</time>
      </trkpt>
      <trkpt lat="52.85907" lon="5.90213">
        <ele>3.4000000953674</ele>
        <time>2019-05-17T12:55:55Z</time>
      </trkpt>
      <trkpt lat="52.85822" lon="5.90589">
        <ele>3.4000000953674</ele>
        <time>2019-05-17T12:56:19Z</time>
      </trkpt>
      <trkpt lat="52.85828" lon="5.90739">
        <ele>3.2000000476837</ele>
        <time>2019-05-17T12:56:40Z</time>
      </trkpt>
      <trkpt lat="52.85876" lon="5.90985">
        <ele>3.7999999523163</ele>
        <time>2019-05-17T12:56:49Z</time>
      </trkpt>
      <trkpt lat="52.85873" lon="5.91119">
        <ele>3.7999999523163</ele>
        <time>2019-05-17T12:57:09Z</time>
      </trkpt>
      <trkpt lat="52.85834" lon="5.91304">
        <ele>4</ele>
        <time>2019-05-17T12:57:36Z</time>
      </trkpt>
      <trkpt lat="52.85798" lon="5.91451">
        <ele>4.1999998092651</ele>
        <time>2019-05-17T12:57:49Z</time>
      </trkpt>
      <trkpt lat="52.85743" lon="5.91596">
        <ele>4</ele>
        <time>2019-05-17T12:58:06Z</time>
      </trkpt>
      <trkpt lat="52.85674" lon="5.91693">
        <ele>4.1999998092651</ele>
        <time>2019-05-17T12:58:32Z</time>
      </trkpt>
      <trkpt lat="52.8558" lon="5.91793">
        <ele>4.5999999046326</ele>
        <time>2019-05-17T12:58:50Z</time>
      </trkpt>
      <trkpt lat="52.85485" lon="5.9189">
        <ele>4.5999999046326</ele>
        <time>2019-05-17T12:59:16Z</time>
      </trkpt>
      <trkpt lat="52.85406" lon="5.91985">
        <ele>5</ele>
        <time>2019-05-17T12:59:26Z</time>
      </trkpt>
      <trkpt lat="52.85352" lon="5.92115">
        <ele>5</ele>
        <time>2019-05-17T12:59:41Z</time>
      </trkpt>
      <trkpt lat="52.85329" lon="5.92305">
        <ele>5.4000000953674</ele>
        <time>2019-05-17T01:00:00Z</time>
      </trkpt>
      <trkpt lat="52.85344" lon="5.92451">
        <ele>5.8000001907349</ele>
        <time>2019-05-17T01:00:21Z</time>
      </trkpt>
      <trkpt lat="52.85392" lon="5.926">
        <ele>5.5999999046326</ele>
        <time>2019-05-17T01:00:30Z</time>
      </trkpt>
      <trkpt lat="52.85445" lon="5.92734">
        <ele>4.8000001907349</ele>
        <time>2019-05-17T01:00:42Z</time>
      </trkpt>
      <trkpt lat="52.85545" lon="5.92989">
        <ele>4.8000001907349</ele>
        <time>2019-05-17T01:00:49Z</time>
      </trkpt>
      <trkpt lat="52.85604" lon="5.93139">
        <ele>5</ele>
        <time>2019-05-17T01:01:35Z</time>
      </trkpt>
      <trkpt lat="52.85643" lon="5.93228">
        <ele>5</ele>
        <time>2019-05-17T01:01:57Z</time>
      </trkpt>
      <trkpt lat="52.85685" lon="5.93316">
        <ele>5.5999999046326</ele>
        <time>2019-05-17T01:02:15Z</time>
      </trkpt>
      <trkpt lat="52.85745" lon="5.93438">
        <ele>5.8000001907349</ele>
        <time>2019-05-17T01:02:24Z</time>
      </trkpt>
      <trkpt lat="52.85838" lon="5.93656">
        <ele>5.8000001907349</ele>
        <time>2019-05-17T01:02:38Z</time>
      </trkpt>
      <trkpt lat="52.85903" lon="5.93827">
        <ele>6.1999998092651</ele>
        <time>2019-05-17T01:02:59Z</time>
      </trkpt>
      <trkpt lat="52.85958" lon="5.93969">
        <ele>6.5999999046326</ele>
        <time>2019-05-17T01:03:03Z</time>
      </trkpt>
      <trkpt lat="52.86048" lon="5.94209">
        <ele>6.5999999046326</ele>
        <time>2019-05-17T01:03:14Z</time>
      </trkpt>
      <trkpt lat="52.86096" lon="5.94338">
        <ele>6.4000000953674</ele>
        <time>2019-05-17T01:03:22Z</time>
      </trkpt>
      <trkpt lat="52.86138" lon="5.9445">
        <ele>6.4000000953674</ele>
        <time>2019-05-17T01:03:33Z</time>
      </trkpt>
      <trkpt lat="52.86177" lon="5.94543">
        <ele>6.5999999046326</ele>
        <time>2019-05-17T01:03:54Z</time>
      </trkpt>
      <trkpt lat="52.86213" lon="5.94654">
        <ele>6.4000000953674</ele>
        <time>2019-05-17T01:04:12Z</time>
      </trkpt>
      <trkpt lat="52.86216" lon="5.94694">
        <ele>6.1999998092651</ele>
        <time>2019-05-17T01:04:35Z</time>
      </trkpt>
      <trkpt lat="52.86141" lon="5.94738">
        <ele>6.4000000953674</ele>
        <time>2019-05-17T01:04:44Z</time>
      </trkpt>
      <trkpt lat="52.86039" lon="5.94838">
        <ele>6.8000001907349</ele>
        <time>2019-05-17T01:04:57Z</time>
      </trkpt>
      <trkpt lat="52.85925" lon="5.94952">
        <ele>6.5999999046326</ele>
        <time>2019-05-17T01:05:29Z</time>
      </trkpt>
      <trkpt lat="52.85834" lon="5.95043">
        <ele>7.1999998092651</ele>
        <time>2019-05-17T01:05:39Z</time>
      </trkpt>
      <trkpt lat="52.85757" lon="5.9512">
        <ele>7.1999998092651</ele>
        <time>2019-05-17T01:05:54Z</time>
      </trkpt>
      <trkpt lat="52.85727" lon="5.95164">
        <ele>6.8000001907349</ele>
        <time>2019-05-17T01:06:21Z</time>
      </trkpt>
      <trkpt lat="52.85769" lon="5.95296">
        <ele>6.8000001907349</ele>
        <time>2019-05-17T01:06:31Z</time>
      </trkpt>
      <trkpt lat="52.85825" lon="5.9546">
        <ele>6.5999999046326</ele>
        <time>2019-05-17T01:06:43Z</time>
      </trkpt>
      <trkpt lat="52.85921" lon="5.95746">
        <ele>7</ele>
        <time>2019-05-17T01:10:18Z</time>
      </trkpt>
      <trkpt lat="52.8596" lon="5.95861">
        <ele>7</ele>
        <time>2019-05-17T01:12:49Z</time>
      </trkpt>
      <trkpt lat="52.86022" lon="5.96043">
        <ele>7.4000000953674</ele>
        <time>2019-05-17T01:13:12Z</time>
      </trkpt>
      <trkpt lat="52.86055" lon="5.96132">
        <ele>7.8000001907349</ele>
        <time>2019-05-17T01:13:34Z</time>
      </trkpt>
      <trkpt lat="52.86111" lon="5.96283">
        <ele>7.5999999046326</ele>
        <time>2019-05-17T01:13:44Z</time>
      </trkpt>
      <trkpt lat="52.86159" lon="5.96417">
        <ele>7.5999999046326</ele>
        <time>2019-05-17T01:14:09Z</time>
      </trkpt>
      <trkpt lat="52.8621" lon="5.96553">
        <ele>8.1999998092651</ele>
        <time>2019-05-17T01:14:35Z</time>
      </trkpt>
      <trkpt lat="52.86243" lon="5.96645">
        <ele>8.1999998092651</ele>
        <time>2019-05-17T01:14:59Z</time>
      </trkpt>
      <trkpt lat="52.86272" lon="5.96723">
        <ele>8</ele>
        <time>2019-05-17T01:15:24Z</time>
      </trkpt>
      <trkpt lat="52.86323" lon="5.9686">
        <ele>8.1999998092651</ele>
        <time>2019-05-17T01:15:39Z</time>
      </trkpt>
      <trkpt lat="52.86405" lon="5.97074">
        <ele>8.1999998092651</ele>
        <time>2019-05-17T01:16:06Z</time>
      </trkpt>
      <trkpt lat="52.8646" lon="5.97223">
        <ele>8</ele>
        <time>2019-05-17T01:16:24Z</time>
      </trkpt>
      <trkpt lat="52.86523" lon="5.97387">
        <ele>8</ele>
        <time>2019-05-17T01:16:51Z</time>
      </trkpt>
      <trkpt lat="52.86563" lon="5.97493">
        <ele>7.5999999046326</ele>
        <time>2019-05-17T01:17:13Z</time>
      </trkpt>
      <trkpt lat="52.86612" lon="5.97614">
        <ele>7.8000001907349</ele>
        <time>2019-05-17T01:17:33Z</time>
      </trkpt>
      <trkpt lat="52.86711" lon="5.97875">
        <ele>8.3999996185303</ele>
        <time>2019-05-17T01:18:00Z</time>
      </trkpt>
      <trkpt lat="52.86768" lon="5.98014">
        <ele>8.6000003814697</ele>
        <time>2019-05-17T01:18:20Z</time>
      </trkpt>
      <trkpt lat="52.86812" lon="5.98087">
        <ele>8.1999998092651</ele>
        <time>2019-05-17T01:18:44Z</time>
      </trkpt>
      <trkpt lat="52.86793" lon="5.98146">
        <ele>8.1999998092651</ele>
        <time>2019-05-17T01:19:03Z</time>
      </trkpt>
      <trkpt lat="52.86785" lon="5.98241">
        <ele>7.8000001907349</ele>
        <time>2019-05-17T01:19:22Z</time>
      </trkpt>
      <trkpt lat="52.86809" lon="5.98278">
        <ele>8.1999998092651</ele>
        <time>2019-05-17T01:19:49Z</time>
      </trkpt>
      <trkpt lat="52.86816" lon="5.98282">
        <ele>7.8000001907349</ele>
        <time>2019-05-17T01:20:15Z</time>
      </trkpt>
      <trkpt lat="52.86883" lon="5.98378">
        <ele>8</ele>
        <time>2019-05-17T01:20:32Z</time>
      </trkpt>
      <trkpt lat="52.86938" lon="5.98472">
        <ele>8.3999996185303</ele>
        <time>2019-05-17T01:20:41Z</time>
      </trkpt>
      <trkpt lat="52.86986" lon="5.9858">
        <ele>8.6000003814697</ele>
        <time>2019-05-17T01:20:55Z</time>
      </trkpt>
      <trkpt lat="52.8703" lon="5.98681">
        <ele>8.6000003814697</ele>
        <time>2019-05-17T01:23:24Z</time>
      </trkpt>
      <trkpt lat="52.87071" lon="5.98776">
        <ele>8.3999996185303</ele>
        <time>2019-05-17T01:23:57Z</time>
      </trkpt>
      <trkpt lat="52.87167" lon="5.99002">
        <ele>8.8000001907349</ele>
        <time>2019-05-17T01:30:06Z</time>
      </trkpt>
      <trkpt lat="52.87198" lon="5.99078">
        <ele>8.8000001907349</ele>
        <time>2019-05-17T01:30:33Z</time>
      </trkpt>
      <trkpt lat="52.87249" lon="5.99196">
        <ele>8.3999996185303</ele>
        <time>2019-05-17T01:35:12Z</time>
      </trkpt>
      <trkpt lat="52.87293" lon="5.99297">
        <ele>8.8000001907349</ele>
        <time>2019-05-17T01:35:41Z</time>
      </trkpt>
      <trkpt lat="52.87373" lon="5.99479">
        <ele>8.8000001907349</ele>
        <time>2019-05-17T01:37:14Z</time>
      </trkpt>
      <trkpt lat="52.87398" lon="5.99533">
        <ele>9</ele>
        <time>2019-05-17T01:42:44Z</time>
      </trkpt>
      <trkpt lat="52.87449" lon="5.9964">
        <ele>8.6000003814697</ele>
        <time>2019-05-17T01:48:12Z</time>
      </trkpt>
      <trkpt lat="52.87471" lon="5.99687">
        <ele>8.6000003814697</ele>
        <time>2019-05-17T01:49:41Z</time>
      </trkpt>
      <trkpt lat="52.87474" lon="5.99705">
        <ele>9.3999996185303</ele>
        <time>2019-05-17T01:58:07Z</time>
      </trkpt>
      <trkpt lat="52.87499" lon="5.9976">
        <ele>9.8000001907349</ele>
        <time>2019-05-17T01:58:15Z</time>
      </trkpt>
      <trkpt lat="52.87527" lon="5.99832">
        <ele>9.6000003814697</ele>
        <time>2019-05-17T01:59:27Z</time>
      </trkpt>
      <trkpt lat="52.87542" lon="5.99838">
        <ele>9.1999998092651</ele>
        <time>2019-05-17T01:59:41Z</time>
      </trkpt>
      <trkpt lat="52.87565" lon="5.99821">
        <ele>9.1999998092651</ele>
        <time>2019-05-17T01:59:50Z</time>
      </trkpt>
      <trkpt lat="52.87569" lon="5.99839">
        <ele>9.3999996185303</ele>
        <time>2019-05-17T01:59:56Z</time>
      </trkpt>
      <trkpt lat="52.87586" lon="5.99808">
        <ele>9.6000003814697</ele>
        <time>2019-05-17T02:00:20Z</time>
      </trkpt>
      <trkpt lat="52.87619" lon="5.99838">
        <ele>9.6000003814697</ele>
        <time>2019-05-17T02:00:48Z</time>
      </trkpt>
      <trkpt lat="52.87647" lon="5.99911">
        <ele>9</ele>
        <time>2019-05-17T02:01:01Z</time>
      </trkpt>
      <trkpt lat="52.87681" lon="5.99999">
        <ele>9</ele>
        <time>2019-05-17T02:01:26Z</time>
      </trkpt>
      <trkpt lat="52.87698" lon="6.00102">
        <ele>9.3999996185303</ele>
        <time>2019-05-17T02:01:40Z</time>
      </trkpt>
      <trkpt lat="52.87685" lon="6.0015">
        <ele>9.3999996185303</ele>
        <time>2019-05-17T02:01:50Z</time>
      </trkpt>
      <trkpt lat="52.87688" lon="6.00169">
        <ele>9.6000003814697</ele>
        <time>2019-05-17T02:02:09Z</time>
      </trkpt>
      <trkpt lat="52.87811" lon="6.00157">
        <ele>9.6000003814697</ele>
        <time>2019-05-17T02:02:23Z</time>
      </trkpt>
      <trkpt lat="52.87884" lon="6.00151">
        <ele>9.1999998092651</ele>
        <time>2019-05-17T02:02:35Z</time>
      </trkpt>
      <trkpt lat="52.87958" lon="6.00139">
        <ele>9</ele>
        <time>2019-05-17T02:02:51Z</time>
      </trkpt>
      <trkpt lat="52.88043" lon="6.00126">
        <ele>9</ele>
        <time>2019-05-17T02:03:04Z</time>
      </trkpt>
      <trkpt lat="52.88123" lon="6.00114">
        <ele>9.3999996185303</ele>
        <time>2019-05-17T02:03:19Z</time>
      </trkpt>
      <trkpt lat="52.88207" lon="6.00124">
        <ele>9.3999996185303</ele>
        <time>2019-05-17T02:03:26Z</time>
      </trkpt>
      <trkpt lat="52.88249" lon="6.00063">
        <ele>9.1999998092651</ele>
        <time>2019-05-17T02:03:39Z</time>
      </trkpt>
      <trkpt lat="52.88261" lon="6.00041">
        <ele>8.3999996185303</ele>
        <time>2019-05-17T02:03:48Z</time>
      </trkpt>
      <trkpt lat="52.8828" lon="6.00018">
        <ele>8.1999998092651</ele>
        <time>2019-05-17T02:04:03Z</time>
      </trkpt>
      <trkpt lat="52.88284" lon="6.00027">
        <ele>8.3999996185303</ele>
        <time>2019-05-17T02:04:21Z</time>
      </trkpt>
      <trkpt lat="52.88293" lon="6.00053">
        <ele>8.3999996185303</ele>
        <time>2019-05-17T02:04:36Z</time>
      </trkpt>
      <trkpt lat="52.88324" lon="6.00136">
        <ele>7</ele>
        <time>2019-05-17T02:04:50Z</time>
      </trkpt>
      <trkpt lat="52.88361" lon="6.00244">
        <ele>8.1999998092651</ele>
        <time>2019-05-17T02:04:58Z</time>
      </trkpt>
      <trkpt lat="52.88381" lon="6.00346">
        <ele>8.8000001907349</ele>
        <time>2019-05-17T02:05:14Z</time>
      </trkpt>
      <trkpt lat="52.88412" lon="6.00417">
        <ele>8.6000003814697</ele>
        <time>2019-05-18T07:37:50Z</time>
      </trkpt>
      <trkpt lat="52.88447" lon="6.00503">
        <ele>8.1999998092651</ele>
        <time>2019-05-18T07:38:10Z</time>
      </trkpt>
      <trkpt lat="52.88474" lon="6.00573">
        <ele>8.6000003814697</ele>
        <time>2019-05-18T07:38:29Z</time>
      </trkpt>
      <trkpt lat="52.88516" lon="6.0066">
        <ele>8.8000001907349</ele>
        <time>2019-05-18T07:38:42Z</time>
      </trkpt>
      <trkpt lat="52.88573" lon="6.00796">
        <ele>8.8000001907349</ele>
        <time>2019-05-18T07:38:56Z</time>
      </trkpt>
      <trkpt lat="52.88608" lon="6.00881">
        <ele>8.6000003814697</ele>
        <time>2019-05-18T07:39:14Z</time>
      </trkpt>
      <trkpt lat="52.88653" lon="6.00987">
        <ele>8.8000001907349</ele>
        <time>2019-05-18T07:39:29Z</time>
      </trkpt>
      <trkpt lat="52.88671" lon="6.01058">
        <ele>8.8000001907349</ele>
        <time>2019-05-18T07:39:47Z</time>
      </trkpt>
      <trkpt lat="52.88645" lon="6.01119">
        <ele>9.3999996185303</ele>
        <time>2019-05-18T07:40:08Z</time>
      </trkpt>
      <trkpt lat="52.88575" lon="6.012">
        <ele>9.6000003814697</ele>
        <time>2019-05-18T07:40:30Z</time>
      </trkpt>
      <trkpt lat="52.88524" lon="6.01256">
        <ele>9.6000003814697</ele>
        <time>2019-05-18T07:40:51Z</time>
      </trkpt>
      <trkpt lat="52.88451" lon="6.01341">
        <ele>8.6000003814697</ele>
        <time>2019-05-18T07:41:14Z</time>
      </trkpt>
      <trkpt lat="52.88229" lon="6.01588">
        <ele>9.1999998092651</ele>
        <time>2019-05-18T07:41:28Z</time>
      </trkpt>
      <trkpt lat="52.88214" lon="6.01654">
        <ele>9.3999996185303</ele>
        <time>2019-05-18T07:41:39Z</time>
      </trkpt>
      <trkpt lat="52.8826" lon="6.01739">
        <ele>9.1999998092651</ele>
        <time>2019-05-18T07:41:44Z</time>
      </trkpt>
      <trkpt lat="52.88276" lon="6.01836">
        <ele>8.3999996185303</ele>
        <time>2019-05-18T07:42:02Z</time>
      </trkpt>
      <trkpt lat="52.88285" lon="6.01879">
        <ele>8.3999996185303</ele>
        <time>2019-05-18T07:42:12Z</time>
      </trkpt>
      <trkpt lat="52.88324" lon="6.01926">
        <ele>8.6000003814697</ele>
        <time>2019-05-18T07:42:20Z</time>
      </trkpt>
      <trkpt lat="52.88353" lon="6.0202">
        <ele>8.8000001907349</ele>
        <time>2019-05-18T07:42:31Z</time>
      </trkpt>
      <trkpt lat="52.88388" lon="6.02133">
        <ele>8.8000001907349</ele>
        <time>2019-05-18T07:42:43Z</time>
      </trkpt>
      <trkpt lat="52.88422" lon="6.02256">
        <ele>8.6000003814697</ele>
        <time>2019-05-18T07:42:51Z</time>
      </trkpt>
      <trkpt lat="52.88464" lon="6.02402">
        <ele>8.6000003814697</ele>
        <time>2019-05-18T07:43:05Z</time>
      </trkpt>
      <trkpt lat="52.8848" lon="6.02448">
        <ele>8.3999996185303</ele>
        <time>2019-05-18T07:43:20Z</time>
      </trkpt>
      <trkpt lat="52.88515" lon="6.02545">
        <ele>8.6000003814697</ele>
        <time>2019-05-18T07:43:32Z</time>
      </trkpt>
      <trkpt lat="52.88556" lon="6.0268">
        <ele>9</ele>
        <time>2019-05-18T07:43:44Z</time>
      </trkpt>
      <trkpt lat="52.88584" lon="6.02794">
        <ele>8.8000001907349</ele>
        <time>2019-05-18T07:43:58Z</time>
      </trkpt>
      <trkpt lat="52.88612" lon="6.02915">
        <ele>9.1999998092651</ele>
        <time>2019-05-18T07:44:19Z</time>
      </trkpt>
      <trkpt lat="52.88645" lon="6.03022">
        <ele>8.8000001907349</ele>
        <time>2019-05-18T07:44:32Z</time>
      </trkpt>
      <trkpt lat="52.88753" lon="6.03307">
        <ele>8.8000001907349</ele>
        <time>2019-05-18T07:44:52Z</time>
      </trkpt>
      <trkpt lat="52.88788" lon="6.03404">
        <ele>9</ele>
        <time>2019-05-18T07:44:57Z</time>
      </trkpt>
      <trkpt lat="52.88812" lon="6.0347">
        <ele>9</ele>
        <time>2019-05-18T07:45:15Z</time>
      </trkpt>
      <trkpt lat="52.88859" lon="6.03585">
        <ele>9.1999998092651</ele>
        <time>2019-05-18T07:45:24Z</time>
      </trkpt>
      <trkpt lat="52.88931" lon="6.03739">
        <ele>10.39999961853</ele>
        <time>2019-05-18T07:45:32Z</time>
      </trkpt>
      <trkpt lat="52.88972" lon="6.03836">
        <ele>10.60000038147</ele>
        <time>2019-05-18T07:45:42Z</time>
      </trkpt>
      <trkpt lat="52.88998" lon="6.03927">
        <ele>11</ele>
        <time>2019-05-18T07:45:48Z</time>
      </trkpt>
      <trkpt lat="52.89026" lon="6.04039">
        <ele>11</ele>
        <time>2019-05-18T07:46:09Z</time>
      </trkpt>
      <trkpt lat="52.89121" lon="6.04275">
        <ele>11.39999961853</ele>
        <time>2019-05-18T07:46:31Z</time>
      </trkpt>
      <trkpt lat="52.89169" lon="6.04365">
        <ele>11.39999961853</ele>
        <time>2019-05-18T07:46:53Z</time>
      </trkpt>
      <trkpt lat="52.89208" lon="6.04458">
        <ele>11.199999809265</ele>
        <time>2019-05-18T07:47:08Z</time>
      </trkpt>
      <trkpt lat="52.89234" lon="6.04521">
        <ele>11</ele>
        <time>2019-05-18T07:47:19Z</time>
      </trkpt>
      <trkpt lat="52.89281" lon="6.04642">
        <ele>10.199999809265</ele>
        <time>2019-05-18T07:47:40Z</time>
      </trkpt>
      <trkpt lat="52.89322" lon="6.04748">
        <ele>10.39999961853</ele>
        <time>2019-05-18T07:47:56Z</time>
      </trkpt>
      <trkpt lat="52.89349" lon="6.04814">
        <ele>10.39999961853</ele>
        <time>2019-05-18T07:48:22Z</time>
      </trkpt>
      <trkpt lat="52.89401" lon="6.04942">
        <ele>9.8000001907349</ele>
        <time>2019-05-18T07:48:42Z</time>
      </trkpt>
      <trkpt lat="52.89453" lon="6.05038">
        <ele>9.6000003814697</ele>
        <time>2019-05-18T07:49:01Z</time>
      </trkpt>
      <trkpt lat="52.89507" lon="6.0512">
        <ele>9.8000001907349</ele>
        <time>2019-05-18T07:49:21Z</time>
      </trkpt>
      <trkpt lat="52.89604" lon="6.05302">
        <ele>9.8000001907349</ele>
        <time>2019-05-18T07:49:46Z</time>
      </trkpt>
      <trkpt lat="52.89639" lon="6.05413">
        <ele>10.39999961853</ele>
        <time>2019-05-18T07:49:59Z</time>
      </trkpt>
      <trkpt lat="52.89593" lon="6.05497">
        <ele>10.199999809265</ele>
        <time>2019-05-18T07:50:16Z</time>
      </trkpt>
      <trkpt lat="52.89443" lon="6.05672">
        <ele>10.199999809265</ele>
        <time>2019-05-18T07:50:31Z</time>
      </trkpt>
      <trkpt lat="52.89362" lon="6.05762">
        <ele>10</ele>
        <time>2019-05-18T07:50:54Z</time>
      </trkpt>
      <trkpt lat="52.89315" lon="6.05803">
        <ele>9</ele>
        <time>2019-05-18T07:51:12Z</time>
      </trkpt>
      <trkpt lat="52.89292" lon="6.0578">
        <ele>9.3999996185303</ele>
        <time>2019-05-18T07:51:35Z</time>
      </trkpt>
      <trkpt lat="52.89265" lon="6.05751">
        <ele>9.3999996185303</ele>
        <time>2019-05-18T07:51:54Z</time>
      </trkpt>
      <trkpt lat="52.89258" lon="6.05805">
        <ele>9.8000001907349</ele>
        <time>2019-05-18T07:52:19Z</time>
      </trkpt>
      <trkpt lat="52.89307" lon="6.05879">
        <ele>9.6000003814697</ele>
        <time>2019-05-18T07:52:45Z</time>
      </trkpt>
      <trkpt lat="52.89397" lon="6.06025">
        <ele>9.6000003814697</ele>
        <time>2019-05-18T07:53:07Z</time>
      </trkpt>
      <trkpt lat="52.89659" lon="6.06237">
        <ele>9.6000003814697</ele>
        <time>2019-05-18T07:53:28Z</time>
      </trkpt>
      <trkpt lat="52.89751" lon="6.06313">
        <ele>10</ele>
        <time>2019-05-18T07:53:51Z</time>
      </trkpt>
      <trkpt lat="52.89834" lon="6.06397">
        <ele>9.8000001907349</ele>
        <time>2019-05-18T07:54:10Z</time>
      </trkpt>
      <trkpt lat="52.89905" lon="6.06488">
        <ele>9.8000001907349</ele>
        <time>2019-05-18T07:54:23Z</time>
      </trkpt>
      <trkpt lat="52.89971" lon="6.06582">
        <ele>9.6000003814697</ele>
        <time>2019-05-18T07:54:32Z</time>
      </trkpt>
      <trkpt lat="52.90049" lon="6.06691">
        <ele>10</ele>
        <time>2019-05-18T07:54:52Z</time>
      </trkpt>
      <trkpt lat="52.90105" lon="6.06767">
        <ele>10.199999809265</ele>
        <time>2019-05-18T07:55:20Z</time>
      </trkpt>
      <trkpt lat="52.90162" lon="6.06848">
        <ele>9.8000001907349</ele>
        <time>2019-05-18T07:55:46Z</time>
      </trkpt>
      <trkpt lat="52.90298" lon="6.07036">
        <ele>10.199999809265</ele>
        <time>2019-05-18T07:56:18Z</time>
      </trkpt>
      <trkpt lat="52.90365" lon="6.07124">
        <ele>9.8000001907349</ele>
        <time>2019-05-18T07:56:38Z</time>
      </trkpt>
      <trkpt lat="52.90461" lon="6.07254">
        <ele>9.3999996185303</ele>
        <time>2019-05-18T07:57:05Z</time>
      </trkpt>
      <trkpt lat="52.90521" lon="6.07336">
        <ele>9.3999996185303</ele>
        <time>2019-05-18T07:57:21Z</time>
      </trkpt>
      <trkpt lat="52.90571" lon="6.07403">
        <ele>9.1999998092651</ele>
        <time>2019-05-18T07:57:43Z</time>
      </trkpt>
      <trkpt lat="52.90579" lon="6.07414">
        <ele>9</ele>
        <time>2019-05-18T07:58:06Z</time>
      </trkpt>
      <trkpt lat="52.90619" lon="6.07467">
        <ele>9.3999996185303</ele>
        <time>2019-05-18T07:58:12Z</time>
      </trkpt>
      <trkpt lat="52.90685" lon="6.0757">
        <ele>9</ele>
        <time>2019-05-18T07:58:18Z</time>
      </trkpt>
      <trkpt lat="52.90757" lon="6.07697">
        <ele>9</ele>
        <time>2019-05-18T07:58:43Z</time>
      </trkpt>
      <trkpt lat="52.90879" lon="6.0791">
        <ele>9.8000001907349</ele>
        <time>2019-05-18T07:59:07Z</time>
      </trkpt>
      <trkpt lat="52.90926" lon="6.07998">
        <ele>10</ele>
        <time>2019-05-18T07:59:32Z</time>
      </trkpt>
      <trkpt lat="52.90957" lon="6.08102">
        <ele>9.8000001907349</ele>
        <time>2019-05-18T07:59:47Z</time>
      </trkpt>
      <trkpt lat="52.91009" lon="6.08172">
        <ele>10</ele>
        <time>2019-05-18T08:00:13Z</time>
      </trkpt>
      <trkpt lat="52.91058" lon="6.08253">
        <ele>9.6000003814697</ele>
        <time>2019-05-18T08:00:34Z</time>
      </trkpt>
      <trkpt lat="52.91113" lon="6.08391">
        <ele>9.8000001907349</ele>
        <time>2019-05-18T08:01:00Z</time>
      </trkpt>
      <trkpt lat="52.91145" lon="6.08482">
        <ele>10</ele>
        <time>2019-05-18T08:01:27Z</time>
      </trkpt>
      <trkpt lat="52.91185" lon="6.08581">
        <ele>9.8000001907349</ele>
        <time>2019-05-18T08:01:48Z</time>
      </trkpt>
      <trkpt lat="52.91217" lon="6.08685">
        <ele>10</ele>
        <time>2019-05-18T08:02:21Z</time>
      </trkpt>
      <trkpt lat="52.91263" lon="6.08812">
        <ele>9.8000001907349</ele>
        <time>2019-05-18T08:02:39Z</time>
      </trkpt>
      <trkpt lat="52.91303" lon="6.08928">
        <ele>10.199999809265</ele>
        <time>2019-05-18T08:02:54Z</time>
      </trkpt>
      <trkpt lat="52.91349" lon="6.09051">
        <ele>10</ele>
        <time>2019-05-18T08:03:22Z</time>
      </trkpt>
      <trkpt lat="52.91375" lon="6.09127">
        <ele>9.6000003814697</ele>
        <time>2019-05-18T08:03:39Z</time>
      </trkpt>
      <trkpt lat="52.91426" lon="6.09266">
        <ele>9.3999996185303</ele>
        <time>2019-05-18T08:04:57Z</time>
      </trkpt>
      <trkpt lat="52.91472" lon="6.09396">
        <ele>9.6000003814697</ele>
        <time>2019-05-18T08:05:15Z</time>
      </trkpt>
      <trkpt lat="52.91571" lon="6.09678">
        <ele>9.6000003814697</ele>
        <time>2019-05-18T08:05:38Z</time>
      </trkpt>
      <trkpt lat="52.91625" lon="6.09832">
        <ele>9.8000001907349</ele>
        <time>2019-05-18T08:06:03Z</time>
      </trkpt>
      <trkpt lat="52.91678" lon="6.09972">
        <ele>10.199999809265</ele>
        <time>2019-05-18T08:06:27Z</time>
      </trkpt>
      <trkpt lat="52.91734" lon="6.10088">
        <ele>10.39999961853</ele>
        <time>2019-05-18T08:06:53Z</time>
      </trkpt>
      <trkpt lat="52.91784" lon="6.10183">
        <ele>10.199999809265</ele>
        <time>2019-05-18T08:07:26Z</time>
      </trkpt>
      <trkpt lat="52.91849" lon="6.10303">
        <ele>10.39999961853</ele>
        <time>2019-05-18T08:07:58Z</time>
      </trkpt>
      <trkpt lat="52.91894" lon="6.10388">
        <ele>10.199999809265</ele>
        <time>2019-05-18T08:08:24Z</time>
      </trkpt>
      <trkpt lat="52.91954" lon="6.10507">
        <ele>10.199999809265</ele>
        <time>2019-05-18T08:08:43Z</time>
      </trkpt>
      <trkpt lat="52.92015" lon="6.10627">
        <ele>10.39999961853</ele>
        <time>2019-05-18T08:08:58Z</time>
      </trkpt>
      <trkpt lat="52.92063" lon="6.10722">
        <ele>10.199999809265</ele>
        <time>2019-05-18T08:09:20Z</time>
      </trkpt>
      <trkpt lat="52.92172" lon="6.10937">
        <ele>10.199999809265</ele>
        <time>2019-05-18T08:09:47Z</time>
      </trkpt>
      <trkpt lat="52.92225" lon="6.11037">
        <ele>10.39999961853</ele>
        <time>2019-05-18T08:10:12Z</time>
      </trkpt>
      <trkpt lat="52.92286" lon="6.11157">
        <ele>10.800000190735</ele>
        <time>2019-05-18T08:10:38Z</time>
      </trkpt>
      <trkpt lat="52.9244" lon="6.11474">
        <ele>10.800000190735</ele>
        <time>2019-05-18T08:10:56Z</time>
      </trkpt>
      <trkpt lat="52.9254" lon="6.11678">
        <ele>10.39999961853</ele>
        <time>2019-05-18T08:11:14Z</time>
      </trkpt>
      <trkpt lat="52.92596" lon="6.11796">
        <ele>11</ele>
        <time>2019-05-18T08:11:42Z</time>
      </trkpt>
      <trkpt lat="52.92825" lon="6.12269">
        <ele>11</ele>
        <time>2019-05-18T08:12:09Z</time>
      </trkpt>
      <trkpt lat="52.92887" lon="6.12389">
        <ele>10.60000038147</ele>
        <time>2019-05-18T08:12:33Z</time>
      </trkpt>
      <trkpt lat="52.92943" lon="6.12508">
        <ele>10.39999961853</ele>
        <time>2019-05-18T08:13:00Z</time>
      </trkpt>
      <trkpt lat="52.93008" lon="6.12642">
        <ele>10.39999961853</ele>
        <time>2019-05-18T08:13:16Z</time>
      </trkpt>
      <trkpt lat="52.93104" lon="6.12844">
        <ele>10</ele>
        <time>2019-05-18T08:13:40Z</time>
      </trkpt>
      <trkpt lat="52.93145" lon="6.1293">
        <ele>10.199999809265</ele>
        <time>2019-05-18T08:14:10Z</time>
      </trkpt>
      <trkpt lat="52.93186" lon="6.13015">
        <ele>10.800000190735</ele>
        <time>2019-05-18T08:14:34Z</time>
      </trkpt>
      <trkpt lat="52.93193" lon="6.13036">
        <ele>10.800000190735</ele>
        <time>2019-05-18T08:14:56Z</time>
      </trkpt>
      <trkpt lat="52.93199" lon="6.13036">
        <ele>10.39999961853</ele>
        <time>2019-05-18T08:15:22Z</time>
      </trkpt>
      <trkpt lat="52.93226" lon="6.13089">
        <ele>10.39999961853</ele>
        <time>2019-05-18T08:15:41Z</time>
      </trkpt>
      <trkpt lat="52.93247" lon="6.13158">
        <ele>10.60000038147</ele>
        <time>2019-05-18T08:16:04Z</time>
      </trkpt>
      <trkpt lat="52.93255" lon="6.1318">
        <ele>10.60000038147</ele>
        <time>2019-05-18T08:16:21Z</time>
      </trkpt>
      <trkpt lat="52.93276" lon="6.13214">
        <ele>10.199999809265</ele>
        <time>2019-05-18T08:16:34Z</time>
      </trkpt>
      <trkpt lat="52.93291" lon="6.1331">
        <ele>10.60000038147</ele>
        <time>2019-05-18T08:16:57Z</time>
      </trkpt>
      <trkpt lat="52.93299" lon="6.13374">
        <ele>10.60000038147</ele>
        <time>2019-05-18T08:17:22Z</time>
      </trkpt>
      <trkpt lat="52.93363" lon="6.1344">
        <ele>10.39999961853</ele>
        <time>2019-05-18T08:17:48Z</time>
      </trkpt>
      <trkpt lat="52.93395" lon="6.13496">
        <ele>10.800000190735</ele>
        <time>2019-05-18T08:18:08Z</time>
      </trkpt>
      <trkpt lat="52.9348" lon="6.137">
        <ele>11.199999809265</ele>
        <time>2019-05-18T08:18:29Z</time>
      </trkpt>
      <trkpt lat="52.93534" lon="6.13838">
        <ele>11</ele>
        <time>2019-05-18T08:18:52Z</time>
      </trkpt>
      <trkpt lat="52.93596" lon="6.13953">
        <ele>11.199999809265</ele>
        <time>2019-05-18T08:20:10Z</time>
      </trkpt>
      <trkpt lat="52.93657" lon="6.14051">
        <ele>11.199999809265</ele>
        <time>2019-05-18T08:20:18Z</time>
      </trkpt>
      <trkpt lat="52.93813" lon="6.14271">
        <ele>10.800000190735</ele>
        <time>2019-05-18T08:20:47Z</time>
      </trkpt>
      <trkpt lat="52.93851" lon="6.14338">
        <ele>11</ele>
        <time>2019-05-18T08:21:14Z</time>
      </trkpt>
      <trkpt lat="52.93922" lon="6.14446">
        <ele>11</ele>
        <time>2019-05-18T08:21:31Z</time>
      </trkpt>
      <trkpt lat="52.93984" lon="6.14573">
        <ele>10.800000190735</ele>
        <time>2019-05-18T08:22:00Z</time>
      </trkpt>
      <trkpt lat="52.94064" lon="6.14806">
        <ele>10.800000190735</ele>
        <time>2019-05-18T08:22:29Z</time>
      </trkpt>
      <trkpt lat="52.94112" lon="6.14956">
        <ele>11</ele>
        <time>2019-05-18T08:22:47Z</time>
      </trkpt>
      <trkpt lat="52.94147" lon="6.15056">
        <ele>11</ele>
        <time>2019-05-18T08:23:15Z</time>
      </trkpt>
      <trkpt lat="52.94182" lon="6.15143">
        <ele>10.800000190735</ele>
        <time>2019-05-18T08:23:43Z</time>
      </trkpt>
      <trkpt lat="52.94223" lon="6.1524">
        <ele>11.39999961853</ele>
        <time>2019-05-18T08:24:11Z</time>
      </trkpt>
      <trkpt lat="52.94268" lon="6.15335">
        <ele>11.199999809265</ele>
        <time>2019-05-18T08:24:33Z</time>
      </trkpt>
      <trkpt lat="52.94311" lon="6.15432">
        <ele>11.39999961853</ele>
        <time>2019-05-18T08:25:00Z</time>
      </trkpt>
      <trkpt lat="52.94336" lon="6.15509">
        <ele>11.199999809265</ele>
        <time>2019-05-18T08:25:27Z</time>
      </trkpt>
      <trkpt lat="52.94347" lon="6.1553">
        <ele>10.800000190735</ele>
        <time>2019-05-18T08:25:57Z</time>
      </trkpt>
      <trkpt lat="52.94372" lon="6.15565">
        <ele>11.199999809265</ele>
        <time>2019-05-18T08:26:24Z</time>
      </trkpt>
      <trkpt lat="52.94401" lon="6.15625">
        <ele>11.39999961853</ele>
        <time>2019-05-18T08:26:52Z</time>
      </trkpt>
      <trkpt lat="52.94446" lon="6.15726">
        <ele>11</ele>
        <time>2019-05-18T08:27:14Z</time>
      </trkpt>
      <trkpt lat="52.94502" lon="6.15842">
        <ele>11.39999961853</ele>
        <time>2019-05-18T08:27:36Z</time>
      </trkpt>
      <trkpt lat="52.94542" lon="6.1593">
        <ele>11.199999809265</ele>
        <time>2019-05-18T08:27:56Z</time>
      </trkpt>
      <trkpt lat="52.94593" lon="6.16045">
        <ele>11.199999809265</ele>
        <time>2019-05-18T08:28:19Z</time>
      </trkpt>
      <trkpt lat="52.94653" lon="6.16179">
        <ele>11.60000038147</ele>
        <time>2019-05-18T08:28:42Z</time>
      </trkpt>
      <trkpt lat="52.94718" lon="6.16319">
        <ele>11.60000038147</ele>
        <time>2019-05-18T08:29:01Z</time>
      </trkpt>
      <trkpt lat="52.94771" lon="6.16427">
        <ele>11.199999809265</ele>
        <time>2019-05-18T08:29:12Z</time>
      </trkpt>
      <trkpt lat="52.94836" lon="6.16545">
        <ele>11.39999961853</ele>
        <time>2019-05-18T08:29:19Z</time>
      </trkpt>
      <trkpt lat="52.94898" lon="6.16652">
        <ele>11.39999961853</ele>
        <time>2019-05-18T08:29:28Z</time>
      </trkpt>
      <trkpt lat="52.94957" lon="6.1676">
        <ele>11.199999809265</ele>
        <time>2019-05-18T08:29:39Z</time>
      </trkpt>
      <trkpt lat="52.94971" lon="6.16791">
        <ele>11.199999809265</ele>
        <time>2019-05-18T08:29:58Z</time>
      </trkpt>
      <trkpt lat="52.95" lon="6.16852">
        <ele>11.39999961853</ele>
        <time>2019-05-18T08:30:19Z</time>
      </trkpt>
      <trkpt lat="52.9505" lon="6.16983">
        <ele>11.60000038147</ele>
        <time>2019-05-18T08:30:38Z</time>
      </trkpt>
      <trkpt lat="52.95082" lon="6.17078">
        <ele>10.60000038147</ele>
        <time>2019-05-18T08:30:50Z</time>
      </trkpt>
      <trkpt lat="52.95117" lon="6.17196">
        <ele>11.39999961853</ele>
        <time>2019-05-18T08:31:00Z</time>
      </trkpt>
      <trkpt lat="52.95182" lon="6.17385">
        <ele>11.800000190735</ele>
        <time>2019-05-18T08:31:15Z</time>
      </trkpt>
      <trkpt lat="52.95219" lon="6.17484">
        <ele>11</ele>
        <time>2019-05-18T08:31:23Z</time>
      </trkpt>
      <trkpt lat="52.95252" lon="6.17567">
        <ele>11.199999809265</ele>
        <time>2019-05-18T08:31:38Z</time>
      </trkpt>
      <trkpt lat="52.95276" lon="6.17627">
        <ele>11.199999809265</ele>
        <time>2019-05-18T08:31:54Z</time>
      </trkpt>
      <trkpt lat="52.95292" lon="6.17667">
        <ele>11</ele>
        <time>2019-05-18T08:32:24Z</time>
      </trkpt>
      <trkpt lat="52.95313" lon="6.17721">
        <ele>11.39999961853</ele>
        <time>2019-05-18T08:32:35Z</time>
      </trkpt>
      <trkpt lat="52.95361" lon="6.17851">
        <ele>11.60000038147</ele>
        <time>2019-05-18T08:33:29Z</time>
      </trkpt>
      <trkpt lat="52.95414" lon="6.17979">
        <ele>10.800000190735</ele>
        <time>2019-05-18T08:33:52Z</time>
      </trkpt>
      <trkpt lat="52.95458" lon="6.18102">
        <ele>11.39999961853</ele>
        <time>2019-05-18T08:34:06Z</time>
      </trkpt>
      <trkpt lat="52.95484" lon="6.18176">
        <ele>11.39999961853</ele>
        <time>2019-05-18T08:34:12Z</time>
      </trkpt>
      <trkpt lat="52.95527" lon="6.18286">
        <ele>11.800000190735</ele>
        <time>2019-05-18T08:34:50Z</time>
      </trkpt>
      <trkpt lat="52.9558" lon="6.18411">
        <ele>11.800000190735</ele>
        <time>2019-05-18T08:35:03Z</time>
      </trkpt>
      <trkpt lat="52.95636" lon="6.18534">
        <ele>12</ele>
        <time>2019-05-18T08:35:21Z</time>
      </trkpt>
      <trkpt lat="52.95705" lon="6.18687">
        <ele>11.60000038147</ele>
        <time>2019-05-18T08:35:41Z</time>
      </trkpt>
      <trkpt lat="52.95755" lon="6.18793">
        <ele>11.60000038147</ele>
        <time>2019-05-18T08:35:52Z</time>
      </trkpt>
      <trkpt lat="52.95803" lon="6.18901">
        <ele>12</ele>
        <time>2019-05-18T08:36:13Z</time>
      </trkpt>
      <trkpt lat="52.95856" lon="6.19022">
        <ele>12.199999809265</ele>
        <time>2019-05-18T08:36:31Z</time>
      </trkpt>
      <trkpt lat="52.95863" lon="6.1907">
        <ele>12.39999961853</ele>
        <time>2019-05-18T08:36:37Z</time>
      </trkpt>
      <trkpt lat="52.95849" lon="6.19114">
        <ele>12.800000190735</ele>
        <time>2019-05-18T08:36:48Z</time>
      </trkpt>
      <trkpt lat="52.95749" lon="6.19261">
        <ele>12.39999961853</ele>
        <time>2019-05-18T08:37:13Z</time>
      </trkpt>
      <trkpt lat="52.95621" lon="6.19433">
        <ele>12.800000190735</ele>
        <time>2019-05-18T08:37:36Z</time>
      </trkpt>
      <trkpt lat="52.95517" lon="6.19578">
        <ele>12.39999961853</ele>
        <time>2019-05-18T08:37:58Z</time>
      </trkpt>
      <trkpt lat="52.95458" lon="6.19654">
        <ele>12.60000038147</ele>
        <time>2019-05-18T08:38:19Z</time>
      </trkpt>
      <trkpt lat="52.95409" lon="6.19719">
        <ele>12.60000038147</ele>
        <time>2019-05-18T08:38:38Z</time>
      </trkpt>
      <trkpt lat="52.95343" lon="6.1982">
        <ele>12.800000190735</ele>
        <time>2019-05-18T08:38:58Z</time>
      </trkpt>
      <trkpt lat="52.95282" lon="6.19903">
        <ele>12.800000190735</ele>
        <time>2019-05-18T08:39:05Z</time>
      </trkpt>
      <trkpt lat="52.95225" lon="6.1998">
        <ele>13.39999961853</ele>
        <time>2019-05-18T08:39:15Z</time>
      </trkpt>
      <trkpt lat="52.9511" lon="6.20139">
        <ele>13.39999961853</ele>
        <time>2019-05-18T08:39:32Z</time>
      </trkpt>
      <trkpt lat="52.9506" lon="6.20215">
        <ele>13.60000038147</ele>
        <time>2019-05-18T08:40:10Z</time>
      </trkpt>
      <trkpt lat="52.94992" lon="6.20289">
        <ele>13.39999961853</ele>
        <time>2019-05-18T08:40:24Z</time>
      </trkpt>
      <trkpt lat="52.94936" lon="6.20364">
        <ele>13.39999961853</ele>
        <time>2019-05-18T08:41:05Z</time>
      </trkpt>
      <trkpt lat="52.94867" lon="6.20462">
        <ele>13.199999809265</ele>
        <time>2019-05-18T08:41:30Z</time>
      </trkpt>
      <trkpt lat="52.94762" lon="6.20592">
        <ele>12.199999809265</ele>
        <time>2019-05-18T08:41:53Z</time>
      </trkpt>
      <trkpt lat="52.94686" lon="6.20699">
        <ele>12.39999961853</ele>
        <time>2019-05-18T08:42:18Z</time>
      </trkpt>
      <trkpt lat="52.94601" lon="6.20804">
        <ele>12.800000190735</ele>
        <time>2019-05-18T08:47:46Z</time>
      </trkpt>
      <trkpt lat="52.94428" lon="6.21017">
        <ele>12</ele>
        <time>2019-05-18T08:48:09Z</time>
      </trkpt>
      <trkpt lat="52.94328" lon="6.2114">
        <ele>12.39999961853</ele>
        <time>2019-05-18T08:48:44Z</time>
      </trkpt>
      <trkpt lat="52.94246" lon="6.21247">
        <ele>12.60000038147</ele>
        <time>2019-05-18T08:49:13Z</time>
      </trkpt>
      <trkpt lat="52.94149" lon="6.21371">
        <ele>13.39999961853</ele>
        <time>2019-05-18T08:55:57Z</time>
      </trkpt>
      <trkpt lat="52.94162" lon="6.21463">
        <ele>14.800000190735</ele>
        <time>2019-05-18T08:56:18Z</time>
      </trkpt>
      <trkpt lat="52.94191" lon="6.21593">
        <ele>15.199999809265</ele>
        <time>2019-05-18T08:56:40Z</time>
      </trkpt>
      <trkpt lat="52.94223" lon="6.21746">
        <ele>15.39999961853</ele>
        <time>2019-05-18T08:56:55Z</time>
      </trkpt>
      <trkpt lat="52.94272" lon="6.21998">
        <ele>14.199999809265</ele>
        <time>2019-05-18T08:57:11Z</time>
      </trkpt>
      <trkpt lat="52.94285" lon="6.22283">
        <ele>14.60000038147</ele>
        <time>2019-05-18T08:57:36Z</time>
      </trkpt>
      <trkpt lat="52.94286" lon="6.22432">
        <ele>14.60000038147</ele>
        <time>2019-05-18T08:58:02Z</time>
      </trkpt>
      <trkpt lat="52.94286" lon="6.22519">
        <ele>15</ele>
        <time>2019-05-18T08:58:16Z</time>
      </trkpt>
      <trkpt lat="52.94288" lon="6.22677">
        <ele>15.199999809265</ele>
        <time>2019-05-18T08:58:57Z</time>
      </trkpt>
      <trkpt lat="52.94294" lon="6.22896">
        <ele>15.800000190735</ele>
        <time>2019-05-18T08:59:28Z</time>
      </trkpt>
      <trkpt lat="52.94295" lon="6.23039">
        <ele>16.60000038147</ele>
        <time>2019-05-18T08:59:54Z</time>
      </trkpt>
      <trkpt lat="52.9429" lon="6.23206">
        <ele>16.60000038147</ele>
        <time>2019-05-18T09:00:17Z</time>
      </trkpt>
      <trkpt lat="52.94289" lon="6.23355">
        <ele>16.799999237061</ele>
        <time>2019-05-18T09:00:24Z</time>
      </trkpt>
      <trkpt lat="52.94289" lon="6.23495">
        <ele>16.60000038147</ele>
        <time>2019-05-18T09:00:47Z</time>
      </trkpt>
      <trkpt lat="52.94295" lon="6.23649">
        <ele>15.800000190735</ele>
        <time>2019-05-18T09:08:49Z</time>
      </trkpt>
      <trkpt lat="52.94291" lon="6.23718">
        <ele>15.60000038147</ele>
        <time>2019-05-18T09:09:04Z</time>
      </trkpt>
      <trkpt lat="52.94293" lon="6.23788">
        <ele>15.800000190735</ele>
        <time>2019-05-18T09:09:28Z</time>
      </trkpt>
      <trkpt lat="52.94293" lon="6.2393">
        <ele>15.800000190735</ele>
        <time>2019-05-18T09:09:54Z</time>
      </trkpt>
      <trkpt lat="52.94296" lon="6.24">
        <ele>16</ele>
        <time>2019-05-18T09:10:02Z</time>
      </trkpt>
      <trkpt lat="52.94297" lon="6.24128">
        <ele>16.200000762939</ele>
        <time>2019-05-18T09:10:31Z</time>
      </trkpt>
      <trkpt lat="52.94304" lon="6.24207">
        <ele>16.39999961853</ele>
        <time>2019-05-18T09:11:11Z</time>
      </trkpt>
      <trkpt lat="52.94303" lon="6.24334">
        <ele>16.60000038147</ele>
        <time>2019-05-18T09:11:41Z</time>
      </trkpt>
      <trkpt lat="52.94305" lon="6.24493">
        <ele>16.60000038147</ele>
        <time>2019-05-18T09:12:10Z</time>
      </trkpt>
      <trkpt lat="52.94305" lon="6.24603">
        <ele>16.200000762939</ele>
        <time>2019-05-18T09:12:34Z</time>
      </trkpt>
      <trkpt lat="52.94308" lon="6.24743">
        <ele>16.60000038147</ele>
        <time>2019-05-18T09:12:58Z</time>
      </trkpt>
      <trkpt lat="52.94307" lon="6.24845">
        <ele>17.39999961853</ele>
        <time>2019-05-18T09:13:40Z</time>
      </trkpt>
      <trkpt lat="52.94308" lon="6.25034">
        <ele>17.39999961853</ele>
        <time>2019-05-18T09:14:06Z</time>
      </trkpt>
      <trkpt lat="52.94307" lon="6.25139">
        <ele>17.200000762939</ele>
        <time>2019-05-18T09:14:26Z</time>
      </trkpt>
      <trkpt lat="52.94301" lon="6.25239">
        <ele>17.39999961853</ele>
        <time>2019-05-18T09:14:48Z</time>
      </trkpt>
      <trkpt lat="52.94303" lon="6.25366">
        <ele>17.799999237061</ele>
        <time>2019-05-18T09:15:07Z</time>
      </trkpt>
      <trkpt lat="52.94299" lon="6.2562">
        <ele>17.799999237061</ele>
        <time>2019-05-18T09:15:22Z</time>
      </trkpt>
      <trkpt lat="52.94299" lon="6.25774">
        <ele>16.60000038147</ele>
        <time>2019-05-18T09:15:37Z</time>
      </trkpt>
      <trkpt lat="52.943" lon="6.2592">
        <ele>16.799999237061</ele>
        <time>2019-05-18T09:15:46Z</time>
      </trkpt>
      <trkpt lat="52.94299" lon="6.26068">
        <ele>16.60000038147</ele>
        <time>2019-05-18T09:19:48Z</time>
      </trkpt>
      <trkpt lat="52.94299" lon="6.2617">
        <ele>17</ele>
        <time>2019-05-18T09:20:01Z</time>
      </trkpt>
      <trkpt lat="52.94301" lon="6.26297">
        <ele>17.200000762939</ele>
        <time>2019-05-18T09:20:26Z</time>
      </trkpt>
      <trkpt lat="52.943" lon="6.26465">
        <ele>17.799999237061</ele>
        <time>2019-05-18T09:20:48Z</time>
      </trkpt>
      <trkpt lat="52.94299" lon="6.26606">
        <ele>17.60000038147</ele>
        <time>2019-05-18T09:21:01Z</time>
      </trkpt>
      <trkpt lat="52.94301" lon="6.2679">
        <ele>17.39999961853</ele>
        <time>2019-05-18T09:21:22Z</time>
      </trkpt>
      <trkpt lat="52.94306" lon="6.26892">
        <ele>17.39999961853</ele>
        <time>2019-05-18T09:21:29Z</time>
      </trkpt>
      <trkpt lat="52.94315" lon="6.27085">
        <ele>18.39999961853</ele>
        <time>2019-05-18T09:21:48Z</time>
      </trkpt>
      <trkpt lat="52.94332" lon="6.27146">
        <ele>19.200000762939</ele>
        <time>2019-05-18T09:22:05Z</time>
      </trkpt>
      <trkpt lat="52.9436" lon="6.27243">
        <ele>19.60000038147</ele>
        <time>2019-05-18T09:22:20Z</time>
      </trkpt>
      <trkpt lat="52.94401" lon="6.27353">
        <ele>18.200000762939</ele>
        <time>2019-05-18T09:22:33Z</time>
      </trkpt>
      <trkpt lat="52.94427" lon="6.27444">
        <ele>17.799999237061</ele>
        <time>2019-05-18T09:22:50Z</time>
      </trkpt>
      <trkpt lat="52.94472" lon="6.27605">
        <ele>17.39999961853</ele>
        <time>2019-05-18T09:23:04Z</time>
      </trkpt>
      <trkpt lat="52.9451" lon="6.27729">
        <ele>17</ele>
        <time>2019-05-18T09:23:25Z</time>
      </trkpt>
      <trkpt lat="52.94545" lon="6.27858">
        <ele>17</ele>
        <time>2019-05-18T09:23:46Z</time>
      </trkpt>
      <trkpt lat="52.94585" lon="6.27987">
        <ele>18</ele>
        <time>2019-05-18T09:24:09Z</time>
      </trkpt>
      <trkpt lat="52.94653" lon="6.28252">
        <ele>18.39999961853</ele>
        <time>2019-05-18T09:24:22Z</time>
      </trkpt>
      <trkpt lat="52.94667" lon="6.28315">
        <ele>18.799999237061</ele>
        <time>2019-05-18T09:24:37Z</time>
      </trkpt>
      <trkpt lat="52.94669" lon="6.28353">
        <ele>18.799999237061</ele>
        <time>2019-05-18T09:24:57Z</time>
      </trkpt>
      <trkpt lat="52.94678" lon="6.28416">
        <ele>19</ele>
        <time>2019-05-18T09:25:19Z</time>
      </trkpt>
      <trkpt lat="52.9468" lon="6.28421">
        <ele>18.799999237061</ele>
        <time>2019-05-18T09:25:36Z</time>
      </trkpt>
      <trkpt lat="52.94664" lon="6.28428">
        <ele>19</ele>
        <time>2019-05-18T09:25:54Z</time>
      </trkpt>
      <trkpt lat="52.94656" lon="6.28488">
        <ele>19</ele>
        <time>2019-05-18T09:26:09Z</time>
      </trkpt>
      <trkpt lat="52.94659" lon="6.28575">
        <ele>19.39999961853</ele>
        <time>2019-05-18T09:26:29Z</time>
      </trkpt>
      <trkpt lat="52.94655" lon="6.28671">
        <ele>19.39999961853</ele>
        <time>2019-05-18T09:26:43Z</time>
      </trkpt>
      <trkpt lat="52.9465" lon="6.28764">
        <ele>19.799999237061</ele>
        <time>2019-05-18T09:26:55Z</time>
      </trkpt>
      <trkpt lat="52.94649" lon="6.28897">
        <ele>20.200000762939</ele>
        <time>2019-05-18T09:27:17Z</time>
      </trkpt>
      <trkpt lat="52.94646" lon="6.29">
        <ele>20.39999961853</ele>
        <time>2019-05-18T09:27:37Z</time>
      </trkpt>
      <trkpt lat="52.94642" lon="6.29108">
        <ele>19.799999237061</ele>
        <time>2019-05-18T09:28:01Z</time>
      </trkpt>
      <trkpt lat="52.94638" lon="6.29202">
        <ele>19.60000038147</ele>
        <time>2019-05-18T09:28:24Z</time>
      </trkpt>
      <trkpt lat="52.94629" lon="6.29319">
        <ele>19.60000038147</ele>
        <time>2019-05-18T09:28:42Z</time>
      </trkpt>
      <trkpt lat="52.94625" lon="6.29402">
        <ele>19.799999237061</ele>
        <time>2019-05-18T09:29:08Z</time>
      </trkpt>
      <trkpt lat="52.94606" lon="6.29434">
        <ele>20.200000762939</ele>
        <time>2019-05-18T09:29:22Z</time>
      </trkpt>
      <trkpt lat="52.94609" lon="6.29456">
        <ele>20.200000762939</ele>
        <time>2019-05-18T09:29:41Z</time>
      </trkpt>
      <trkpt lat="52.94573" lon="6.29433">
        <ele>20</ele>
        <time>2019-05-18T09:30:05Z</time>
      </trkpt>
      <trkpt lat="52.9453" lon="6.29412">
        <ele>20.200000762939</ele>
        <time>2019-05-18T09:30:22Z</time>
      </trkpt>
      <trkpt lat="52.94367" lon="6.29333">
        <ele>19.799999237061</ele>
        <time>2019-05-18T09:30:38Z</time>
      </trkpt>
      <trkpt lat="52.94304" lon="6.29295">
        <ele>20</ele>
        <time>2019-05-18T09:30:53Z</time>
      </trkpt>
      <trkpt lat="52.94268" lon="6.29282">
        <ele>20.200000762939</ele>
        <time>2019-05-18T09:31:05Z</time>
      </trkpt>
      <trkpt lat="52.94222" lon="6.29243">
        <ele>19.799999237061</ele>
        <time>2019-05-18T09:31:14Z</time>
      </trkpt>
      <trkpt lat="52.94163" lon="6.29212">
        <ele>20</ele>
        <time>2019-05-18T09:31:32Z</time>
      </trkpt>
      <trkpt lat="52.93983" lon="6.2913">
        <ele>20</ele>
        <time>2019-05-18T09:31:45Z</time>
      </trkpt>
      <trkpt lat="52.93944" lon="6.29112">
        <ele>20.200000762939</ele>
        <time>2019-05-18T09:32:05Z</time>
      </trkpt>
      <trkpt lat="52.93875" lon="6.29083">
        <ele>20</ele>
        <time>2019-05-18T09:32:25Z</time>
      </trkpt>
      <trkpt lat="52.9382" lon="6.29059">
        <ele>20.200000762939</ele>
        <time>2019-05-18T09:32:33Z</time>
      </trkpt>
      <trkpt lat="52.93726" lon="6.29017">
        <ele>20.200000762939</ele>
        <time>2019-05-18T09:32:43Z</time>
      </trkpt>
      <trkpt lat="52.93711" lon="6.29032">
        <ele>20.39999961853</ele>
        <time>2019-05-18T09:32:51Z</time>
      </trkpt>
      <trkpt lat="52.93656" lon="6.29044">
        <ele>20.39999961853</ele>
        <time>2019-05-18T09:33:12Z</time>
      </trkpt>
      <trkpt lat="52.93619" lon="6.29013">
        <ele>21</ele>
        <time>2019-05-18T09:33:36Z</time>
      </trkpt>
      <trkpt lat="52.93583" lon="6.28952">
        <ele>20.799999237061</ele>
        <time>2019-05-18T09:33:54Z</time>
      </trkpt>
      <trkpt lat="52.93543" lon="6.28888">
        <ele>20.39999961853</ele>
        <time>2019-05-18T09:34:05Z</time>
      </trkpt>
      <trkpt lat="52.93505" lon="6.28853">
        <ele>20.60000038147</ele>
        <time>2019-05-18T09:34:25Z</time>
      </trkpt>
      <trkpt lat="52.93494" lon="6.28786">
        <ele>21</ele>
        <time>2019-05-18T09:34:42Z</time>
      </trkpt>
      <trkpt lat="52.93495" lon="6.28741">
        <ele>21</ele>
        <time>2019-05-18T09:34:58Z</time>
      </trkpt>
      <trkpt lat="52.93485" lon="6.28673">
        <ele>20.200000762939</ele>
        <time>2019-05-18T09:35:22Z</time>
      </trkpt>
      <trkpt lat="52.93486" lon="6.2867">
        <ele>19.60000038147</ele>
        <time>2019-05-18T09:35:45Z</time>
      </trkpt>
      <trkpt lat="52.93487" lon="6.28692">
        <ele>20.799999237061</ele>
        <time>2019-05-18T09:36:06Z</time>
      </trkpt>
      <trkpt lat="52.93492" lon="6.28723">
        <ele>20.799999237061</ele>
        <time>2019-05-18T09:36:32Z</time>
      </trkpt>
      <trkpt lat="52.93484" lon="6.28786">
        <ele>21.39999961853</ele>
        <time>2019-05-18T09:36:53Z</time>
      </trkpt>
      <trkpt lat="52.93461" lon="6.28773">
        <ele>21.39999961853</ele>
        <time>2019-05-18T09:37:14Z</time>
      </trkpt>
      <trkpt lat="52.9346" lon="6.28721">
        <ele>21.39999961853</ele>
        <time>2019-05-18T09:37:33Z</time>
      </trkpt>
      <trkpt lat="52.93456" lon="6.28728">
        <ele>21</ele>
        <time>2019-05-18T09:37:54Z</time>
      </trkpt>
      <trkpt lat="52.93457" lon="6.28725">
        <ele>21.200000762939</ele>
        <time>2019-05-18T09:38:10Z</time>
      </trkpt>
      <trkpt lat="52.93457" lon="6.28705">
        <ele>21.200000762939</ele>
        <time>2019-05-18T09:38:30Z</time>
      </trkpt>
      <trkpt lat="52.93468" lon="6.28702">
        <ele>20.799999237061</ele>
        <time>2019-05-18T09:38:49Z</time>
      </trkpt>
      <trkpt lat="52.93471" lon="6.28692">
        <ele>21.200000762939</ele>
        <time>2019-05-18T09:39:08Z</time>
      </trkpt>
      <trkpt lat="52.93466" lon="6.28657">
        <ele>20.60000038147</ele>
        <time>2019-05-18T09:39:29Z</time>
      </trkpt>
      <trkpt lat="52.93471" lon="6.28654">
        <ele>20</ele>
        <time>2019-05-18T09:39:50Z</time>
      </trkpt>
      <trkpt lat="52.9347" lon="6.28615">
        <ele>20</ele>
        <time>2019-05-18T09:40:09Z</time>
      </trkpt>
      <trkpt lat="52.93467" lon="6.28607">
        <ele>1.6000000238419</ele>
        <time>2019-05-18T09:40:33Z</time>
      </trkpt>
      <trkpt lat="52.9347" lon="6.28621">
        <ele>1.7999999523163</ele>
        <time>2019-05-18T09:40:58Z</time>
      </trkpt>
      <trkpt lat="52.9348" lon="6.28655">
        <ele>1.2000000476837</ele>
        <time>2019-05-18T09:41:16Z</time>
      </trkpt>
      <trkpt lat="52.93485" lon="6.28688">
        <ele>1.3999999761581</ele>
        <time>2019-05-18T09:41:35Z</time>
      </trkpt>
      <trkpt lat="52.93484" lon="6.28725">
        <ele>2.2000000476837</ele>
        <time>2019-05-18T09:41:49Z</time>
      </trkpt>
      <trkpt lat="52.93483" lon="6.28765">
        <ele>2.4000000953674</ele>
        <time>2019-05-18T09:42:10Z</time>
      </trkpt>
      <trkpt lat="52.93482" lon="6.2878">
        <ele>2.4000000953674</ele>
        <time>2019-05-18T09:43:46Z</time>
      </trkpt>
      <trkpt lat="52.93485" lon="6.28801">
        <ele>2.5999999046326</ele>
        <time>2019-05-18T09:44:05Z</time>
      </trkpt>
      <trkpt lat="52.93516" lon="6.28841">
        <ele>2.5999999046326</ele>
        <time>2019-05-18T09:44:25Z</time>
      </trkpt>
      <trkpt lat="52.9356" lon="6.28911">
        <ele>2.4000000953674</ele>
        <time>2019-05-18T09:44:43Z</time>
      </trkpt>
      <trkpt lat="52.93626" lon="6.29013">
        <ele>2.7999999523163</ele>
        <time>2019-05-18T09:44:57Z</time>
      </trkpt>
      <trkpt lat="52.93676" lon="6.29013">
        <ele>2.5999999046326</ele>
        <time>2019-05-18T09:45:23Z</time>
      </trkpt>
      <trkpt lat="52.93703" lon="6.28994">
        <ele>2.2000000476837</ele>
        <time>2019-05-18T09:45:46Z</time>
      </trkpt>
      <trkpt lat="52.93763" lon="6.29021">
        <ele>2</ele>
        <time>2019-05-18T09:46:05Z</time>
      </trkpt>
      <trkpt lat="52.93815" lon="6.29043">
        <ele>2</ele>
        <time>2019-05-18T09:46:21Z</time>
      </trkpt>
      <trkpt lat="52.93881" lon="6.29064">
        <ele>1.6000000238419</ele>
        <time>2019-05-18T09:46:36Z</time>
      </trkpt>
      <trkpt lat="52.93943" lon="6.2909">
        <ele>1.7999999523163</ele>
        <time>2019-05-18T09:46:56Z</time>
      </trkpt>
      <trkpt lat="52.9411" lon="6.29164">
        <ele>2.2000000476837</ele>
        <time>2019-05-18T09:47:19Z</time>
      </trkpt>
      <trkpt lat="52.94169" lon="6.29196">
        <ele>2.2000000476837</ele>
        <time>2019-05-18T09:47:39Z</time>
      </trkpt>
      <trkpt lat="52.94237" lon="6.29248">
        <ele>1.7999999523163</ele>
        <time>2019-05-18T09:47:53Z</time>
      </trkpt>
      <trkpt lat="52.94288" lon="6.29275">
        <ele>2.2000000476837</ele>
        <time>2019-05-18T09:48:01Z</time>
      </trkpt>
      <trkpt lat="52.9435" lon="6.29315">
        <ele>1.7999999523163</ele>
        <time>2019-05-18T09:48:20Z</time>
      </trkpt>
      <trkpt lat="52.94478" lon="6.29383">
        <ele>1.7999999523163</ele>
        <time>2019-05-18T09:48:39Z</time>
      </trkpt>
      <trkpt lat="52.94531" lon="6.2941">
        <ele>2.7999999523163</ele>
        <time>2019-05-18T09:48:53Z</time>
      </trkpt>
      <trkpt lat="52.9457" lon="6.29431">
        <ele>2.7999999523163</ele>
        <time>2019-05-18T09:49:06Z</time>
      </trkpt>
      <trkpt lat="52.9465" lon="6.29484">
        <ele>2.4000000953674</ele>
        <time>2019-05-18T09:49:27Z</time>
      </trkpt>
      <trkpt lat="52.94704" lon="6.29514">
        <ele>2.5999999046326</ele>
        <time>2019-05-18T09:49:41Z</time>
      </trkpt>
      <trkpt lat="52.94768" lon="6.29576">
        <ele>3.2000000476837</ele>
        <time>2019-05-18T09:49:59Z</time>
      </trkpt>
      <trkpt lat="52.94806" lon="6.29617">
        <ele>3.2000000476837</ele>
        <time>2019-05-18T09:50:14Z</time>
      </trkpt>
      <trkpt lat="52.94923" lon="6.29765">
        <ele>1.7999999523163</ele>
        <time>2019-05-18T09:50:28Z</time>
      </trkpt>
      <trkpt lat="52.94985" lon="6.29837">
        <ele>1.6000000238419</ele>
        <time>2019-05-18T09:50:50Z</time>
      </trkpt>
      <trkpt lat="52.95045" lon="6.29902">
        <ele>2</ele>
        <time>2019-05-18T09:51:12Z</time>
      </trkpt>
      <trkpt lat="52.95111" lon="6.29965">
        <ele>1.6000000238419</ele>
        <time>2019-05-18T09:51:35Z</time>
      </trkpt>
      <trkpt lat="52.95143" lon="6.29982">
        <ele>1</ele>
        <time>2019-05-18T09:51:55Z</time>
      </trkpt>
      <trkpt lat="52.95169" lon="6.30061">
        <ele>1.6000000238419</ele>
        <time>2019-05-18T09:52:08Z</time>
      </trkpt>
      <trkpt lat="52.95206" lon="6.30178">
        <ele>1.6000000238419</ele>
        <time>2019-05-18T09:52:30Z</time>
      </trkpt>
      <trkpt lat="52.95239" lon="6.30287">
        <ele>2</ele>
        <time>2019-05-18T09:52:55Z</time>
      </trkpt>
      <trkpt lat="52.95306" lon="6.30495">
        <ele>1.6000000238419</ele>
        <time>2019-05-18T09:53:17Z</time>
      </trkpt>
      <trkpt lat="52.95333" lon="6.30566">
        <ele>2.2000000476837</ele>
        <time>2019-05-18T09:53:57Z</time>
      </trkpt>
      <trkpt lat="52.95379" lon="6.30721">
        <ele>2.2000000476837</ele>
        <time>2019-05-18T09:54:16Z</time>
      </trkpt>
      <trkpt lat="52.95397" lon="6.30796">
        <ele>1.7999999523163</ele>
        <time>2019-05-18T09:54:34Z</time>
      </trkpt>
      <trkpt lat="52.95405" lon="6.30922">
        <ele>1.6000000238419</ele>
        <time>2019-05-18T09:54:51Z</time>
      </trkpt>
      <trkpt lat="52.95406" lon="6.3105">
        <ele>1.7999999523163</ele>
        <time>2019-05-18T09:55:11Z</time>
      </trkpt>
      <trkpt lat="52.95432" lon="6.31194">
        <ele>1.7999999523163</ele>
        <time>2019-05-18T10:01:25Z</time>
      </trkpt>
      <trkpt lat="52.95453" lon="6.31269">
        <ele>2.2000000476837</ele>
        <time>2019-05-18T10:01:35Z</time>
      </trkpt>
      <trkpt lat="52.95467" lon="6.3134">
        <ele>2.7999999523163</ele>
        <time>2019-05-18T10:01:50Z</time>
      </trkpt>
      <trkpt lat="52.95472" lon="6.3137">
        <ele>3.4000000953674</ele>
        <time>2019-05-18T10:02:10Z</time>
      </trkpt>
      <trkpt lat="52.95482" lon="6.31428">
        <ele>3.4000000953674</ele>
        <time>2019-05-18T10:02:36Z</time>
      </trkpt>
      <trkpt lat="52.95507" lon="6.31538">
        <ele>2.2000000476837</ele>
        <time>2019-05-18T10:02:51Z</time>
      </trkpt>
      <trkpt lat="52.9554" lon="6.31703">
        <ele>2.2000000476837</ele>
        <time>2019-05-18T10:02:59Z</time>
      </trkpt>
      <trkpt lat="52.95535" lon="6.31837">
        <ele>2.2000000476837</ele>
        <time>2019-05-18T10:03:18Z</time>
      </trkpt>
      <trkpt lat="52.95523" lon="6.31937">
        <ele>2</ele>
        <time>2019-05-18T10:03:42Z</time>
      </trkpt>
      <trkpt lat="52.955" lon="6.32121">
        <ele>2.2000000476837</ele>
        <time>2019-05-18T10:04:07Z</time>
      </trkpt>
      <trkpt lat="52.955" lon="6.32336">
        <ele>2.2000000476837</ele>
        <time>2019-05-18T10:04:31Z</time>
      </trkpt>
      <trkpt lat="52.95499" lon="6.32412">
        <ele>2</ele>
        <time>2019-05-18T10:04:54Z</time>
      </trkpt>
      <trkpt lat="52.95497" lon="6.32549">
        <ele>1.7999999523163</ele>
        <time>2019-05-18T10:05:17Z</time>
      </trkpt>
      <trkpt lat="52.95494" lon="6.32678">
        <ele>2.2000000476837</ele>
        <time>2019-05-18T10:05:39Z</time>
      </trkpt>
      <trkpt lat="52.95491" lon="6.32759">
        <ele>2.2000000476837</ele>
        <time>2019-05-18T10:05:59Z</time>
      </trkpt>
      <trkpt lat="52.95469" lon="6.33025">
        <ele>3</ele>
        <time>2019-05-18T10:06:23Z</time>
      </trkpt>
      <trkpt lat="52.95453" lon="6.33141">
        <ele>3.2000000476837</ele>
        <time>2019-05-18T10:06:42Z</time>
      </trkpt>
      <trkpt lat="52.95432" lon="6.33278">
        <ele>3.5999999046326</ele>
        <time>2019-05-18T10:07:02Z</time>
      </trkpt>
      <trkpt lat="52.95405" lon="6.33425">
        <ele>3.4000000953674</ele>
        <time>2019-05-18T10:07:25Z</time>
      </trkpt>
      <trkpt lat="52.95383" lon="6.33572">
        <ele>3.5999999046326</ele>
        <time>2019-05-18T10:07:47Z</time>
      </trkpt>
      <trkpt lat="52.95382" lon="6.33646">
        <ele>3.5999999046326</ele>
        <time>2019-05-18T10:08:04Z</time>
      </trkpt>
      <trkpt lat="52.95397" lon="6.33653">
        <ele>3.7999999523163</ele>
        <time>2019-05-18T10:08:23Z</time>
      </trkpt>
      <trkpt lat="52.95446" lon="6.33626">
        <ele>3.5999999046326</ele>
        <time>2019-05-18T10:08:44Z</time>
      </trkpt>
      <trkpt lat="52.95456" lon="6.33619">
        <ele>2.2000000476837</ele>
        <time>2019-05-18T10:09:05Z</time>
      </trkpt>
      <trkpt lat="52.95419" lon="6.33628">
        <ele>2.5999999046326</ele>
        <time>2019-05-18T10:09:24Z</time>
      </trkpt>
      <trkpt lat="52.95396" lon="6.33659">
        <ele>3.5999999046326</ele>
        <time>2019-05-18T10:09:40Z</time>
      </trkpt>
      <trkpt lat="52.95393" lon="6.33695">
        <ele>3.5999999046326</ele>
        <time>2019-05-18T10:10:02Z</time>
      </trkpt>
      <trkpt lat="52.95409" lon="6.33783">
        <ele>3.4000000953674</ele>
        <time>2019-05-18T10:10:09Z</time>
      </trkpt>
      <trkpt lat="52.95528" lon="6.33963">
        <ele>2.4000000953674</ele>
        <time>2019-05-18T10:10:17Z</time>
      </trkpt>
      <trkpt lat="52.95589" lon="6.34045">
        <ele>2.2000000476837</ele>
        <time>2019-05-18T10:17:54Z</time>
      </trkpt>
      <trkpt lat="52.95736" lon="6.34128">
        <ele>2.2000000476837</ele>
        <time>2019-05-18T10:18:17Z</time>
      </trkpt>
      <trkpt lat="52.95793" lon="6.34216">
        <ele>2</ele>
        <time>2019-05-18T10:18:29Z</time>
      </trkpt>
      <trkpt lat="52.95925" lon="6.34434">
        <ele>2</ele>
        <time>2019-05-18T10:18:51Z</time>
      </trkpt>
      <trkpt lat="52.95979" lon="6.34521">
        <ele>2.4000000953674</ele>
        <time>2019-05-18T10:19:15Z</time>
      </trkpt>
      <trkpt lat="52.95959" lon="6.34592">
        <ele>2.7999999523163</ele>
        <time>2019-05-18T10:19:41Z</time>
      </trkpt>
      <trkpt lat="52.9586" lon="6.34752">
        <ele>2.7999999523163</ele>
        <time>2019-05-18T10:19:56Z</time>
      </trkpt>
      <trkpt lat="52.95765" lon="6.34903">
        <ele>3.2000000476837</ele>
        <time>2019-05-18T10:20:10Z</time>
      </trkpt>
      <trkpt lat="52.9568" lon="6.35037">
        <ele>3.2000000476837</ele>
        <time>2019-05-18T10:20:36Z</time>
      </trkpt>
      <trkpt lat="52.95612" lon="6.35146">
        <ele>3.4000000953674</ele>
        <time>2019-05-18T10:21:05Z</time>
      </trkpt>
      <trkpt lat="52.95585" lon="6.35218">
        <ele>3.5999999046326</ele>
        <time>2019-05-18T10:21:22Z</time>
      </trkpt>
      <trkpt lat="52.955" lon="6.35452">
        <ele>3.5999999046326</ele>
        <time>2019-05-18T10:21:44Z</time>
      </trkpt>
      <trkpt lat="52.95456" lon="6.35576">
        <ele>4</ele>
        <time>2019-05-18T10:22:00Z</time>
      </trkpt>
      <trkpt lat="52.95415" lon="6.35685">
        <ele>3.7999999523163</ele>
        <time>2019-05-18T10:22:13Z</time>
      </trkpt>
      <trkpt lat="52.95358" lon="6.35832">
        <ele>3.5999999046326</ele>
        <time>2019-05-18T10:22:23Z</time>
      </trkpt>
      <trkpt lat="52.95297" lon="6.35999">
        <ele>3.2000000476837</ele>
        <time>2019-05-18T10:22:34Z</time>
      </trkpt>
      <trkpt lat="52.95249" lon="6.36127">
        <ele>3.2000000476837</ele>
        <time>2019-05-18T10:22:48Z</time>
      </trkpt>
      <trkpt lat="52.95209" lon="6.36231">
        <ele>3</ele>
        <time>2019-05-18T10:23:10Z</time>
      </trkpt>
      <trkpt lat="52.95136" lon="6.36432">
        <ele>3.7999999523163</ele>
        <time>2019-05-18T10:23:25Z</time>
      </trkpt>
      <trkpt lat="52.95049" lon="6.36662">
        <ele>4.4000000953674</ele>
        <time>2019-05-18T10:23:49Z</time>
      </trkpt>
      <trkpt lat="52.95003" lon="6.3679">
        <ele>4.1999998092651</ele>
        <time>2019-05-18T10:23:57Z</time>
      </trkpt>
      <trkpt lat="52.9489" lon="6.37086">
        <ele>4.1999998092651</ele>
        <time>2019-05-18T10:24:18Z</time>
      </trkpt>
      <trkpt lat="52.9484" lon="6.37223">
        <ele>4.5999999046326</ele>
        <time>2019-05-18T10:24:46Z</time>
      </trkpt>
      <trkpt lat="52.94791" lon="6.37353">
        <ele>4.8000001907349</ele>
        <time>2019-05-18T10:25:14Z</time>
      </trkpt>
      <trkpt lat="52.9477" lon="6.37488">
        <ele>4.4000000953674</ele>
        <time>2019-05-18T10:25:41Z</time>
      </trkpt>
      <trkpt lat="52.94758" lon="6.37692">
        <ele>4</ele>
        <time>2019-05-18T10:26:08Z</time>
      </trkpt>
      <trkpt lat="52.94747" lon="6.37875">
        <ele>4.4000000953674</ele>
        <time>2019-05-18T10:26:32Z</time>
      </trkpt>
      <trkpt lat="52.9474" lon="6.3801">
        <ele>4.5999999046326</ele>
        <time>2019-05-18T10:26:54Z</time>
      </trkpt>
      <trkpt lat="52.94726" lon="6.38228">
        <ele>4.1999998092651</ele>
        <time>2019-05-18T10:27:19Z</time>
      </trkpt>
      <trkpt lat="52.94716" lon="6.38395">
        <ele>4.1999998092651</ele>
        <time>2019-05-18T10:27:41Z</time>
      </trkpt>
      <trkpt lat="52.94704" lon="6.38608">
        <ele>4.5999999046326</ele>
        <time>2019-05-18T10:28:03Z</time>
      </trkpt>
      <trkpt lat="52.94694" lon="6.38767">
        <ele>5</ele>
        <time>2019-05-18T10:28:18Z</time>
      </trkpt>
      <trkpt lat="52.94683" lon="6.38981">
        <ele>4.5999999046326</ele>
        <time>2019-05-18T10:28:33Z</time>
      </trkpt>
      <trkpt lat="52.94672" lon="6.39167">
        <ele>4.5999999046326</ele>
        <time>2019-05-18T10:28:57Z</time>
      </trkpt>
      <trkpt lat="52.94663" lon="6.39339">
        <ele>4.4000000953674</ele>
        <time>2019-05-18T10:29:25Z</time>
      </trkpt>
      <trkpt lat="52.94651" lon="6.3955">
        <ele>4.8000001907349</ele>
        <time>2019-05-18T10:30:41Z</time>
      </trkpt>
      <trkpt lat="52.9464" lon="6.39756">
        <ele>5.4000000953674</ele>
        <time>2019-05-18T10:31:01Z</time>
      </trkpt>
      <trkpt lat="52.94628" lon="6.3994">
        <ele>5.5999999046326</ele>
        <time>2019-05-18T10:31:25Z</time>
      </trkpt>
      <trkpt lat="52.94581" lon="6.40221">
        <ele>6</ele>
        <time>2019-05-18T10:31:42Z</time>
      </trkpt>
      <trkpt lat="52.94545" lon="6.40331">
        <ele>6.8000001907349</ele>
        <time>2019-05-18T10:32:11Z</time>
      </trkpt>
      <trkpt lat="52.94517" lon="6.40403">
        <ele>6.8000001907349</ele>
        <time>2019-05-18T10:32:35Z</time>
      </trkpt>
      <trkpt lat="52.94516" lon="6.40413">
        <ele>6.5999999046326</ele>
        <time>2019-05-18T10:33:04Z</time>
      </trkpt>
      <trkpt lat="52.94491" lon="6.40487">
        <ele>6.4000000953674</ele>
        <time>2019-05-18T10:33:30Z</time>
      </trkpt>
      <trkpt lat="52.94431" lon="6.4066">
        <ele>6.4000000953674</ele>
        <time>2019-05-18T10:33:58Z</time>
      </trkpt>
      <trkpt lat="52.94353" lon="6.40872">
        <ele>6.1999998092651</ele>
        <time>2019-05-18T10:34:14Z</time>
      </trkpt>
      <trkpt lat="52.94293" lon="6.41038">
        <ele>6</ele>
        <time>2019-05-18T10:34:25Z</time>
      </trkpt>
      <trkpt lat="52.94218" lon="6.41248">
        <ele>6</ele>
        <time>2019-05-18T10:34:41Z</time>
      </trkpt>
      <trkpt lat="52.94102" lon="6.4157">
        <ele>5.5999999046326</ele>
        <time>2019-05-18T10:34:56Z</time>
      </trkpt>
      <trkpt lat="52.94031" lon="6.4176">
        <ele>5.8000001907349</ele>
        <time>2019-05-18T10:35:10Z</time>
      </trkpt>
      <trkpt lat="52.93971" lon="6.41915">
        <ele>5.4000000953674</ele>
        <time>2019-05-18T10:35:30Z</time>
      </trkpt>
      <trkpt lat="52.93897" lon="6.42112">
        <ele>5.5999999046326</ele>
        <time>2019-05-18T10:35:44Z</time>
      </trkpt>
      <trkpt lat="52.93824" lon="6.42322">
        <ele>5.4000000953674</ele>
        <time>2019-05-18T10:36:04Z</time>
      </trkpt>
      <trkpt lat="52.93791" lon="6.4242">
        <ele>5.4000000953674</ele>
        <time>2019-05-18T10:36:12Z</time>
      </trkpt>
      <trkpt lat="52.93738" lon="6.42579">
        <ele>5.1999998092651</ele>
        <time>2019-05-18T10:36:22Z</time>
      </trkpt>
      <trkpt lat="52.93665" lon="6.42796">
        <ele>5.4000000953674</ele>
        <time>2019-05-18T10:36:40Z</time>
      </trkpt>
      <trkpt lat="52.93603" lon="6.42956">
        <ele>5.5999999046326</ele>
        <time>2019-05-18T10:36:49Z</time>
      </trkpt>
      <trkpt lat="52.93587" lon="6.43033">
        <ele>5.8000001907349</ele>
        <time>2019-05-18T10:37:00Z</time>
      </trkpt>
      <trkpt lat="52.93611" lon="6.43056">
        <ele>6</ele>
        <time>2019-05-18T10:55:31Z</time>
      </trkpt>
      <trkpt lat="52.93657" lon="6.43118">
        <ele>5.8000001907349</ele>
        <time>2019-05-18T10:55:43Z</time>
      </trkpt>
      <trkpt lat="52.93745" lon="6.43211">
        <ele>5.5999999046326</ele>
        <time>2019-05-18T10:55:59Z</time>
      </trkpt>
      <trkpt lat="52.9393" lon="6.43412">
        <ele>5.5999999046326</ele>
        <time>2019-05-18T11:15:58Z</time>
      </trkpt>
      <trkpt lat="52.93973" lon="6.43458">
        <ele>5.8000001907349</ele>
        <time>2019-05-18T11:16:15Z</time>
      </trkpt>
      <trkpt lat="52.94057" lon="6.43551">
        <ele>6</ele>
        <time>2019-05-18T11:16:24Z</time>
      </trkpt>
      <trkpt lat="52.9414" lon="6.43634">
        <ele>5.8000001907349</ele>
        <time>2019-05-18T11:16:35Z</time>
      </trkpt>
      <trkpt lat="52.94274" lon="6.43766">
        <ele>6.1999998092651</ele>
        <time>2019-05-18T11:16:57Z</time>
      </trkpt>
      <trkpt lat="52.94277" lon="6.43825">
        <ele>6.4000000953674</ele>
        <time>2019-05-18T11:17:13Z</time>
      </trkpt>
      <trkpt lat="52.94301" lon="6.43892">
        <ele>6.1999998092651</ele>
        <time>2019-05-18T11:17:22Z</time>
      </trkpt>
      <trkpt lat="52.94341" lon="6.43926">
        <ele>6</ele>
        <time>2019-05-18T11:17:37Z</time>
      </trkpt>
      <trkpt lat="52.94492" lon="6.44084">
        <ele>6</ele>
        <time>2019-05-18T11:18:47Z</time>
      </trkpt>
      <trkpt lat="52.94569" lon="6.44171">
        <ele>5.8000001907349</ele>
        <time>2019-05-18T11:18:56Z</time>
      </trkpt>
      <trkpt lat="52.94595" lon="6.44209">
        <ele>5.5999999046326</ele>
        <time>2019-05-18T11:19:25Z</time>
      </trkpt>
      <trkpt lat="52.94641" lon="6.44248">
        <ele>5.5999999046326</ele>
        <time>2019-05-18T11:19:46Z</time>
      </trkpt>
      <trkpt lat="52.94718" lon="6.44337">
        <ele>6</ele>
        <time>2019-05-18T11:20:01Z</time>
      </trkpt>
      <trkpt lat="52.94832" lon="6.4446">
        <ele>6.4000000953674</ele>
        <time>2019-05-18T11:20:12Z</time>
      </trkpt>
      <trkpt lat="52.94891" lon="6.44526">
        <ele>6.1999998092651</ele>
        <time>2019-05-18T11:20:32Z</time>
      </trkpt>
      <trkpt lat="52.9495" lon="6.44585">
        <ele>6.4000000953674</ele>
        <time>2019-05-18T11:20:42Z</time>
      </trkpt>
      <trkpt lat="52.95006" lon="6.44649">
        <ele>6.4000000953674</ele>
        <time>2019-05-18T11:20:51Z</time>
      </trkpt>
      <trkpt lat="52.95058" lon="6.44705">
        <ele>6.5999999046326</ele>
        <time>2019-05-18T11:21:02Z</time>
      </trkpt>
      <trkpt lat="52.95149" lon="6.44801">
        <ele>6.4000000953674</ele>
        <time>2019-05-18T11:21:27Z</time>
      </trkpt>
      <trkpt lat="52.95223" lon="6.44879">
        <ele>6</ele>
        <time>2019-05-18T11:21:38Z</time>
      </trkpt>
      <trkpt lat="52.95279" lon="6.44937">
        <ele>6</ele>
        <time>2019-05-18T11:21:56Z</time>
      </trkpt>
      <trkpt lat="52.95368" lon="6.45032">
        <ele>5.8000001907349</ele>
        <time>2019-05-18T11:22:17Z</time>
      </trkpt>
      <trkpt lat="52.95456" lon="6.45129">
        <ele>6</ele>
        <time>2019-05-18T11:22:44Z</time>
      </trkpt>
      <trkpt lat="52.95697" lon="6.45388">
        <ele>6</ele>
        <time>2019-05-18T11:23:04Z</time>
      </trkpt>
      <trkpt lat="52.95753" lon="6.45448">
        <ele>5.8000001907349</ele>
        <time>2019-05-18T11:23:25Z</time>
      </trkpt>
      <trkpt lat="52.95839" lon="6.4554">
        <ele>5.8000001907349</ele>
        <time>2019-05-18T11:23:40Z</time>
      </trkpt>
      <trkpt lat="52.95904" lon="6.45612">
        <ele>5.4000000953674</ele>
        <time>2019-05-18T11:23:59Z</time>
      </trkpt>
      <trkpt lat="52.96012" lon="6.45726">
        <ele>5.4000000953674</ele>
        <time>2019-05-18T11:24:10Z</time>
      </trkpt>
      <trkpt lat="52.96079" lon="6.45798">
        <ele>5.8000001907349</ele>
        <time>2019-05-18T11:24:21Z</time>
      </trkpt>
      <trkpt lat="52.96252" lon="6.45988">
        <ele>5.8000001907349</ele>
        <time>2019-05-18T11:24:35Z</time>
      </trkpt>
      <trkpt lat="52.96342" lon="6.46081">
        <ele>6</ele>
        <time>2019-05-18T11:24:54Z</time>
      </trkpt>
      <trkpt lat="52.9645" lon="6.46205">
        <ele>6</ele>
        <time>2019-05-18T11:25:05Z</time>
      </trkpt>
      <trkpt lat="52.96557" lon="6.46322">
        <ele>5.8000001907349</ele>
        <time>2019-05-18T11:25:31Z</time>
      </trkpt>
      <trkpt lat="52.96676" lon="6.46445">
        <ele>5.4000000953674</ele>
        <time>2019-05-18T11:25:53Z</time>
      </trkpt>
      <trkpt lat="52.96771" lon="6.46545">
        <ele>5.5999999046326</ele>
        <time>2019-05-18T11:26:04Z</time>
      </trkpt>
      <trkpt lat="52.96862" lon="6.46644">
        <ele>5.5999999046326</ele>
        <time>2019-05-18T11:26:17Z</time>
      </trkpt>
      <trkpt lat="52.96968" lon="6.46759">
        <ele>5.4000000953674</ele>
        <time>2019-05-18T11:26:24Z</time>
      </trkpt>
      <trkpt lat="52.97082" lon="6.46887">
        <ele>5.4000000953674</ele>
        <time>2019-05-18T11:26:46Z</time>
      </trkpt>
      <trkpt lat="52.97185" lon="6.46998">
        <ele>5.5999999046326</ele>
        <time>2019-05-18T11:27:10Z</time>
      </trkpt>
      <trkpt lat="52.97283" lon="6.47103">
        <ele>5.5999999046326</ele>
        <time>2019-05-18T11:27:23Z</time>
      </trkpt>
      <trkpt lat="52.97392" lon="6.47223">
        <ele>5.4000000953674</ele>
        <time>2019-05-18T11:27:42Z</time>
      </trkpt>
      <trkpt lat="52.9744" lon="6.47269">
        <ele>5.4000000953674</ele>
        <time>2019-05-18T11:28:06Z</time>
      </trkpt>
      <trkpt lat="52.97689" lon="6.47533">
        <ele>4.8000001907349</ele>
        <time>2019-05-18T11:28:29Z</time>
      </trkpt>
      <trkpt lat="52.97785" lon="6.47638">
        <ele>4.8000001907349</ele>
        <time>2019-05-18T11:28:45Z</time>
      </trkpt>
      <trkpt lat="52.97877" lon="6.47737">
        <ele>4</ele>
        <time>2019-05-18T11:29:09Z</time>
      </trkpt>
      <trkpt lat="52.97986" lon="6.47866">
        <ele>3.4000000953674</ele>
        <time>2019-05-18T11:29:28Z</time>
      </trkpt>
      <trkpt lat="52.98057" lon="6.47937">
        <ele>3.4000000953674</ele>
        <time>2019-05-18T11:29:52Z</time>
      </trkpt>
      <trkpt lat="52.98147" lon="6.48033">
        <ele>3.7999999523163</ele>
        <time>2019-05-18T11:30:13Z</time>
      </trkpt>
      <trkpt lat="52.98248" lon="6.48142">
        <ele>4</ele>
        <time>2019-05-18T11:30:25Z</time>
      </trkpt>
      <trkpt lat="52.98344" lon="6.48245">
        <ele>3.7999999523163</ele>
        <time>2019-05-18T11:30:44Z</time>
      </trkpt>
      <trkpt lat="52.98502" lon="6.48413">
        <ele>3.7999999523163</ele>
        <time>2019-05-18T11:30:58Z</time>
      </trkpt>
      <trkpt lat="52.98576" lon="6.48502">
        <ele>3.5999999046326</ele>
        <time>2019-05-18T11:31:05Z</time>
      </trkpt>
      <trkpt lat="52.98675" lon="6.48607">
        <ele>3.7999999523163</ele>
        <time>2019-05-18T11:31:13Z</time>
      </trkpt>
      <trkpt lat="52.98746" lon="6.48689">
        <ele>3.7999999523163</ele>
        <time>2019-05-18T11:31:25Z</time>
      </trkpt>
      <trkpt lat="52.98832" lon="6.48782">
        <ele>3.4000000953674</ele>
        <time>2019-05-18T11:31:31Z</time>
      </trkpt>
      <trkpt lat="52.98924" lon="6.48878">
        <ele>3.5999999046326</ele>
        <time>2019-05-18T11:31:40Z</time>
      </trkpt>
      <trkpt lat="52.99013" lon="6.48973">
        <ele>3.4000000953674</ele>
        <time>2019-05-18T11:31:50Z</time>
      </trkpt>
      <trkpt lat="52.99104" lon="6.49088">
        <ele>3.4000000953674</ele>
        <time>2019-05-18T11:32:09Z</time>
      </trkpt>
      <trkpt lat="52.99161" lon="6.49226">
        <ele>3.4000000953674</ele>
        <time>2019-05-18T11:32:32Z</time>
      </trkpt>
      <trkpt lat="52.99186" lon="6.49207">
        <ele>3.7999999523163</ele>
        <time>2019-05-18T11:33:21Z</time>
      </trkpt>
      <trkpt lat="52.99246" lon="6.49226">
        <ele>3.7999999523163</ele>
        <time>2019-05-18T11:33:31Z</time>
      </trkpt>
      <trkpt lat="52.99294" lon="6.49278">
        <ele>3.7999999523163</ele>
        <time>2019-05-18T11:33:43Z</time>
      </trkpt>
      <trkpt lat="52.99283" lon="6.49253">
        <ele>3.7999999523163</ele>
        <time>2019-05-18T11:33:59Z</time>
      </trkpt>
      <trkpt lat="52.99313" lon="6.49216">
        <ele>4.1999998092651</ele>
        <time>2019-05-18T11:34:12Z</time>
      </trkpt>
      <trkpt lat="52.99327" lon="6.49261">
        <ele>4</ele>
        <time>2019-05-18T11:34:34Z</time>
      </trkpt>
      <trkpt lat="52.9933" lon="6.49258">
        <ele>3.7999999523163</ele>
        <time>2019-05-18T11:34:49Z</time>
      </trkpt>
      <trkpt lat="52.99333" lon="6.4921">
        <ele>3.7999999523163</ele>
        <time>2019-05-18T11:34:57Z</time>
      </trkpt>
      <trkpt lat="52.99348" lon="6.49206">
        <ele>4</ele>
        <time>2019-05-18T11:35:16Z</time>
      </trkpt>
      <trkpt lat="52.99428" lon="6.49192">
        <ele>3.5999999046326</ele>
        <time>2019-05-18T11:35:35Z</time>
      </trkpt>
      <trkpt lat="52.99515" lon="6.49161">
        <ele>3.5999999046326</ele>
        <time>2019-05-18T11:35:55Z</time>
      </trkpt>
      <trkpt lat="52.99632" lon="6.49118">
        <ele>3.4000000953674</ele>
        <time>2019-05-18T11:36:06Z</time>
      </trkpt>
      <trkpt lat="52.99748" lon="6.49077">
        <ele>3.5999999046326</ele>
        <time>2019-05-18T11:36:37Z</time>
      </trkpt>
      <trkpt lat="52.99867" lon="6.49035">
        <ele>3.4000000953674</ele>
        <time>2019-05-18T11:39:34Z</time>
      </trkpt>
      <trkpt lat="52.99963" lon="6.49004">
        <ele>3.4000000953674</ele>
        <time>2019-05-18T11:39:51Z</time>
      </trkpt>
      <trkpt lat="53.00048" lon="6.48976">
        <ele>3.5999999046326</ele>
        <time>2019-05-18T11:40:13Z</time>
      </trkpt>
      <trkpt lat="53.00052" lon="6.48975">
        <ele>3.4000000953674</ele>
        <time>2019-05-18T11:40:35Z</time>
      </trkpt>
      <trkpt lat="53.00059" lon="6.49001">
        <ele>3.4000000953674</ele>
        <time>2019-05-18T11:40:56Z</time>
      </trkpt>
      <trkpt lat="53.00073" lon="6.49166">
        <ele>3</ele>
        <time>2019-05-18T11:41:04Z</time>
      </trkpt>
      <trkpt lat="53.00088" lon="6.49272">
        <ele>3</ele>
        <time>2019-05-18T11:41:13Z</time>
      </trkpt>
      <trkpt lat="53.00101" lon="6.49385">
        <ele>2.7999999523163</ele>
        <time>2019-05-18T11:41:25Z</time>
      </trkpt>
      <trkpt lat="53.00123" lon="6.49556">
        <ele>2.7999999523163</ele>
        <time>2019-05-18T11:41:50Z</time>
      </trkpt>
      <trkpt lat="53.0015" lon="6.4977">
        <ele>3</ele>
        <time>2019-05-18T11:42:04Z</time>
      </trkpt>
      <trkpt lat="53.00172" lon="6.4995">
        <ele>2.7999999523163</ele>
        <time>2019-05-18T11:42:10Z</time>
      </trkpt>
      <trkpt lat="53.00194" lon="6.50114">
        <ele>2.7999999523163</ele>
        <time>2019-05-18T11:42:27Z</time>
      </trkpt>
      <trkpt lat="53.00214" lon="6.50266">
        <ele>3.2000000476837</ele>
        <time>2019-05-18T11:42:35Z</time>
      </trkpt>
      <trkpt lat="53.00231" lon="6.5039">
        <ele>2.5999999046326</ele>
        <time>2019-05-18T11:42:46Z</time>
      </trkpt>
      <trkpt lat="53.00256" lon="6.50598">
        <ele>2.5999999046326</ele>
        <time>2019-05-18T11:42:53Z</time>
      </trkpt>
      <trkpt lat="53.0028" lon="6.506">
        <ele>2.5999999046326</ele>
        <time>2019-05-18T11:43:04Z</time>
      </trkpt>
      <trkpt lat="53.00321" lon="6.50624">
        <ele>2.7999999523163</ele>
        <time>2019-05-18T11:43:26Z</time>
      </trkpt>
      <trkpt lat="53.00399" lon="6.50705">
        <ele>2.5999999046326</ele>
        <time>2019-05-18T11:43:47Z</time>
      </trkpt>
      <trkpt lat="53.00425" lon="6.50741">
        <ele>2.5999999046326</ele>
        <time>2019-05-18T11:43:55Z</time>
      </trkpt>
      <trkpt lat="53.00418" lon="6.50783">
        <ele>2.7999999523163</ele>
        <time>2019-05-18T11:44:06Z</time>
      </trkpt>
      <trkpt lat="53.00435" lon="6.5091">
        <ele>2.7999999523163</ele>
        <time>2019-05-18T11:44:26Z</time>
      </trkpt>
      <trkpt lat="53.00457" lon="6.51081">
        <ele>3.2000000476837</ele>
        <time>2019-05-18T11:44:47Z</time>
      </trkpt>
      <trkpt lat="53.00469" lon="6.51178">
        <ele>3</ele>
        <time>2019-05-18T11:45:07Z</time>
      </trkpt>
      <trkpt lat="53.00492" lon="6.51349">
        <ele>2.7999999523163</ele>
        <time>2019-05-18T11:45:11Z</time>
      </trkpt>
      <trkpt lat="53.00508" lon="6.51491">
        <ele>2.4000000953674</ele>
        <time>2019-05-18T11:45:22Z</time>
      </trkpt>
      <trkpt lat="53.00503" lon="6.51556">
        <ele>2.4000000953674</ele>
        <time>2019-05-18T11:45:41Z</time>
      </trkpt>
      <trkpt lat="53.00461" lon="6.51672">
        <ele>2.2000000476837</ele>
        <time>2019-05-18T11:46:02Z</time>
      </trkpt>
      <trkpt lat="53.00405" lon="6.51782">
        <ele>2.2000000476837</ele>
        <time>2019-05-18T11:46:20Z</time>
      </trkpt>
      <trkpt lat="53.00374" lon="6.51802">
        <ele>2.5999999046326</ele>
        <time>2019-05-18T11:46:29Z</time>
      </trkpt>
      <trkpt lat="53.00371" lon="6.51824">
        <ele>2.5999999046326</ele>
        <time>2019-05-18T11:46:45Z</time>
      </trkpt>
      <trkpt lat="53.00402" lon="6.51945">
        <ele>2.4000000953674</ele>
        <time>2019-05-18T11:47:05Z</time>
      </trkpt>
      <trkpt lat="53.00423" lon="6.52111">
        <ele>2.4000000953674</ele>
        <time>2019-05-18T11:47:24Z</time>
      </trkpt>
      <trkpt lat="53.00416" lon="6.52177">
        <ele>2.2000000476837</ele>
        <time>2019-05-18T11:47:33Z</time>
      </trkpt>
      <trkpt lat="53.00361" lon="6.52278">
        <ele>2.2000000476837</ele>
        <time>2019-05-18T11:47:46Z</time>
      </trkpt>
      <trkpt lat="53.00298" lon="6.5238">
        <ele>2.5999999046326</ele>
        <time>2019-05-18T11:48:06Z</time>
      </trkpt>
      <trkpt lat="53.00282" lon="6.52407">
        <ele>2.2000000476837</ele>
        <time>2019-05-18T11:48:22Z</time>
      </trkpt>
      <trkpt lat="53.00228" lon="6.52512">
        <ele>2.5999999046326</ele>
        <time>2019-05-18T11:48:33Z</time>
      </trkpt>
      <trkpt lat="53.00205" lon="6.52531">
        <ele>2.4000000953674</ele>
        <time>2019-05-18T11:48:48Z</time>
      </trkpt>
      <trkpt lat="53.00169" lon="6.52622">
        <ele>2.7999999523163</ele>
        <time>2019-05-18T11:48:55Z</time>
      </trkpt>
      <trkpt lat="53.00129" lon="6.52688">
        <ele>2.7999999523163</ele>
        <time>2019-05-18T11:49:08Z</time>
      </trkpt>
      <trkpt lat="53.00104" lon="6.52745">
        <ele>2.5999999046326</ele>
        <time>2019-05-18T11:49:25Z</time>
      </trkpt>
      <trkpt lat="53.00051" lon="6.52849">
        <ele>2.5999999046326</ele>
        <time>2019-05-18T11:49:40Z</time>
      </trkpt>
      <trkpt lat="52.99978" lon="6.52969">
        <ele>2.4000000953674</ele>
        <time>2019-05-18T12:11:47Z</time>
      </trkpt>
      <trkpt lat="52.99915" lon="6.53076">
        <ele>2.4000000953674</ele>
        <time>2019-05-18T12:12:01Z</time>
      </trkpt>
      <trkpt lat="52.99857" lon="6.53172">
        <ele>2.5999999046326</ele>
        <time>2019-05-18T12:12:13Z</time>
      </trkpt>
      <trkpt lat="52.9984" lon="6.53203">
        <ele>2.5999999046326</ele>
        <time>2019-05-18T12:12:30Z</time>
      </trkpt>
      <trkpt lat="52.99787" lon="6.53278">
        <ele>2.4000000953674</ele>
        <time>2019-05-18T12:12:46Z</time>
      </trkpt>
      <trkpt lat="52.99775" lon="6.53261">
        <ele>2.2000000476837</ele>
        <time>2019-05-18T12:13:01Z</time>
      </trkpt>
      <trkpt lat="52.99713" lon="6.53174">
        <ele>2.4000000953674</ele>
        <time>2019-05-18T12:13:09Z</time>
      </trkpt>
      <trkpt lat="52.99624" lon="6.53132">
        <ele>2.4000000953674</ele>
        <time>2019-05-18T12:13:30Z</time>
      </trkpt>
      <trkpt lat="52.99408" lon="6.53166">
        <ele>2.4000000953674</ele>
        <time>2019-05-18T12:13:51Z</time>
      </trkpt>
      <trkpt lat="52.99422" lon="6.53324">
        <ele>2.4000000953674</ele>
        <time>2019-05-18T12:14:11Z</time>
      </trkpt>
      <trkpt lat="52.9943" lon="6.53491">
        <ele>2.7999999523163</ele>
        <time>2019-05-18T12:14:31Z</time>
      </trkpt>
      <trkpt lat="52.99423" lon="6.53568">
        <ele>3.2000000476837</ele>
        <time>2019-05-18T12:14:50Z</time>
      </trkpt>
      <trkpt lat="52.99425" lon="6.53649">
        <ele>3</ele>
        <time>2019-05-18T12:15:14Z</time>
      </trkpt>
      <trkpt lat="52.99421" lon="6.5379">
        <ele>3.2000000476837</ele>
        <time>2019-05-18T12:15:39Z</time>
      </trkpt>
      <trkpt lat="52.99419" lon="6.5398">
        <ele>3.2000000476837</ele>
        <time>2019-05-18T12:15:52Z</time>
      </trkpt>
      <trkpt lat="52.99417" lon="6.54109">
        <ele>3</ele>
        <time>2019-05-18T12:16:12Z</time>
      </trkpt>
      <trkpt lat="52.99399" lon="6.54565">
        <ele>3</ele>
        <time>2019-05-18T12:16:25Z</time>
      </trkpt>
      <trkpt lat="52.99397" lon="6.54659">
        <ele>2.5999999046326</ele>
        <time>2019-05-18T12:17:30Z</time>
      </trkpt>
      <trkpt lat="52.99395" lon="6.54824">
        <ele>2.5999999046326</ele>
        <time>2019-05-18T12:17:41Z</time>
      </trkpt>
      <trkpt lat="52.99394" lon="6.54962">
        <ele>2.7999999523163</ele>
        <time>2019-05-18T12:18:00Z</time>
      </trkpt>
      <trkpt lat="52.9939" lon="6.55088">
        <ele>2.7999999523163</ele>
        <time>2019-05-18T12:18:12Z</time>
      </trkpt>
      <trkpt lat="52.99385" lon="6.55235">
        <ele>3</ele>
        <time>2019-05-18T12:18:25Z</time>
      </trkpt>
      <trkpt lat="52.99379" lon="6.55372">
        <ele>2.7999999523163</ele>
        <time>2019-05-18T12:18:46Z</time>
      </trkpt>
      <trkpt lat="52.99373" lon="6.55533">
        <ele>2.7999999523163</ele>
        <time>2019-05-18T12:19:02Z</time>
      </trkpt>
      <trkpt lat="52.9937" lon="6.55637">
        <ele>3.2000000476837</ele>
        <time>2019-05-18T12:19:15Z</time>
      </trkpt>
      <trkpt lat="52.9937" lon="6.55769">
        <ele>3.2000000476837</ele>
        <time>2019-05-18T12:19:54Z</time>
      </trkpt>
      <trkpt lat="52.99356" lon="6.5588">
        <ele>3.4000000953674</ele>
        <time>2019-05-18T12:20:10Z</time>
      </trkpt>
      <trkpt lat="52.99356" lon="6.55955">
        <ele>2.7999999523163</ele>
        <time>2019-05-18T12:20:31Z</time>
      </trkpt>
      <trkpt lat="52.9938" lon="6.55975">
        <ele>2.2000000476837</ele>
        <time>2019-05-18T12:20:44Z</time>
      </trkpt>
      <trkpt lat="52.9938" lon="6.5601">
        <ele>2</ele>
        <time>2019-05-18T12:20:51Z</time>
      </trkpt>
      <trkpt lat="52.99395" lon="6.56083">
        <ele>1</ele>
        <time>2019-05-18T12:21:43Z</time>
      </trkpt>
      <trkpt lat="52.99416" lon="6.56142">
        <ele>1</ele>
        <time>2019-05-18T12:22:03Z</time>
      </trkpt>
      <trkpt lat="52.99414" lon="6.56184">
        <ele>1.2000000476837</ele>
        <time>2019-05-18T12:22:23Z</time>
      </trkpt>
      <trkpt lat="52.99397" lon="6.56247">
        <ele>1.6000000238419</ele>
        <time>2019-05-18T12:22:47Z</time>
      </trkpt>
      <trkpt lat="52.9939" lon="6.56276">
        <ele>2.2000000476837</ele>
        <time>2019-05-18T12:22:54Z</time>
      </trkpt>
      <trkpt lat="52.99393" lon="6.56324">
        <ele>2</ele>
        <time>2019-05-18T12:23:32Z</time>
      </trkpt>
      <trkpt lat="52.99426" lon="6.56373">
        <ele>2.2000000476837</ele>
        <time>2019-05-18T12:23:52Z</time>
      </trkpt>
      <trkpt lat="52.99465" lon="6.56371">
        <ele>1.7999999523163</ele>
        <time>2019-05-18T12:24:03Z</time>
      </trkpt>
      <trkpt lat="52.99488" lon="6.56398">
        <ele>1.2000000476837</ele>
        <time>2019-05-18T12:24:27Z</time>
      </trkpt>
      <trkpt lat="52.99499" lon="6.56383">
        <ele>1.3999999761581</ele>
        <time>2019-05-18T12:24:45Z</time>
      </trkpt>
      <trkpt lat="52.99516" lon="6.56359">
        <ele>1.3999999761581</ele>
        <time>2019-05-18T12:25:06Z</time>
      </trkpt>
      <trkpt lat="52.9952" lon="6.56365">
        <ele>1.6000000238419</ele>
        <time>2019-05-18T12:25:16Z</time>
      </trkpt>
      <trkpt lat="52.99503" lon="6.56389">
        <ele>1.6000000238419</ele>
        <time>2019-05-18T12:25:39Z</time>
      </trkpt>
      <trkpt lat="52.99508" lon="6.56397">
        <ele>0.60000002384186</ele>
        <time>2019-05-18T12:25:58Z</time>
      </trkpt>
      <trkpt lat="52.99522" lon="6.56369">
        <ele>0.60000002384186</ele>
        <time>2019-05-18T12:26:19Z</time>
      </trkpt>
      <trkpt lat="52.9953" lon="6.56312">
        <ele>0.80000001192093</ele>
        <time>2019-05-18T12:26:29Z</time>
      </trkpt>
      <trkpt lat="52.99521" lon="6.56202">
        <ele>1</ele>
        <time>2019-05-18T12:26:43Z</time>
      </trkpt>
      <trkpt lat="52.99522" lon="6.56166">
        <ele>1</ele>
        <time>2019-05-18T12:26:59Z</time>
      </trkpt>
      <trkpt lat="52.99559" lon="6.56154">
        <ele>1</ele>
        <time>2019-05-18T12:27:23Z</time>
      </trkpt>
      <trkpt lat="52.99614" lon="6.56285">
        <ele>1.6000000238419</ele>
        <time>2019-05-18T12:27:29Z</time>
      </trkpt>
      <trkpt lat="52.99619" lon="6.56338">
        <ele>1.6000000238419</ele>
        <time>2019-05-18T12:27:47Z</time>
      </trkpt>
      <trkpt lat="52.99608" lon="6.56375">
        <ele>1.7999999523163</ele>
        <time>2019-05-18T12:28:00Z</time>
      </trkpt>
      <trkpt lat="52.99612" lon="6.5641">
        <ele>1.6000000238419</ele>
        <time>2019-05-18T12:28:14Z</time>
      </trkpt>
      <trkpt lat="52.99603" lon="6.56616">
        <ele>1.2000000476837</ele>
        <time>2019-05-18T12:28:35Z</time>
      </trkpt>
      <trkpt lat="52.99638" lon="6.56672">
        <ele>1.2000000476837</ele>
        <time>2019-05-18T12:30:12Z</time>
      </trkpt>
      <trkpt lat="52.99632" lon="6.56716">
        <ele>1.6000000238419</ele>
        <time>2019-05-18T12:30:39Z</time>
      </trkpt>
      <trkpt lat="52.99601" lon="6.56729">
        <ele>1.3999999761581</ele>
        <time>2019-05-18T12:31:01Z</time>
      </trkpt>
      <trkpt lat="52.99588" lon="6.56741">
        <ele>1.3999999761581</ele>
        <time>2019-05-18T12:31:26Z</time>
      </trkpt>
      <trkpt lat="52.99579" lon="6.56801">
        <ele>1.2000000476837</ele>
        <time>2019-05-18T12:31:46Z</time>
      </trkpt>
      <trkpt lat="52.99567" lon="6.5696">
        <ele>0.60000002384186</ele>
        <time>2019-05-18T12:32:00Z</time>
      </trkpt>
      <trkpt lat="52.99554" lon="6.56998">
        <ele>0.20000000298023</ele>
        <time>2019-05-18T12:32:16Z</time>
      </trkpt>
      <trkpt lat="52.99552" lon="6.57016">
        <ele>0.20000000298023</ele>
        <time>2019-05-18T12:32:30Z</time>
      </trkpt>
      <trkpt lat="52.99535" lon="6.57175">
        <ele>-0.60000002384186</ele>
        <time>2019-05-18T12:32:39Z</time>
      </trkpt>
      <trkpt lat="52.99531" lon="6.57252">
        <ele>-1.7999999523163</ele>
        <time>2019-05-18T12:32:56Z</time>
      </trkpt>
      <trkpt lat="52.9952" lon="6.57396">
        <ele>-1</ele>
        <time>2019-05-18T12:33:16Z</time>
      </trkpt>
      <trkpt lat="52.9952" lon="6.57471">
        <ele>0.40000000596046</ele>
        <time>2019-05-18T12:33:37Z</time>
      </trkpt>
      <trkpt lat="52.99521" lon="6.5753">
        <ele>0.80000001192093</ele>
        <time>2019-05-18T12:33:47Z</time>
      </trkpt>
      <trkpt lat="52.99514" lon="6.57631">
        <ele>1</ele>
        <time>2019-05-18T12:34:09Z</time>
      </trkpt>
      <trkpt lat="52.9951" lon="6.57712">
        <ele>1.3999999761581</ele>
        <time>2019-05-18T12:34:35Z</time>
      </trkpt>
      <trkpt lat="52.99518" lon="6.57788">
        <ele>1.3999999761581</ele>
        <time>2019-05-18T12:34:58Z</time>
      </trkpt>
      <trkpt lat="52.99511" lon="6.57873">
        <ele>1.6000000238419</ele>
        <time>2019-05-18T12:35:33Z</time>
      </trkpt>
      <trkpt lat="52.99527" lon="6.57915">
        <ele>1.3999999761581</ele>
        <time>2019-05-18T12:35:45Z</time>
      </trkpt>
      <trkpt lat="52.99543" lon="6.57938">
        <ele>1.7999999523163</ele>
        <time>2019-05-18T12:35:55Z</time>
      </trkpt>
      <trkpt lat="52.99555" lon="6.57952">
        <ele>1.6000000238419</ele>
        <time>2019-05-18T12:36:12Z</time>
      </trkpt>
      <trkpt lat="52.99611" lon="6.57936">
        <ele>1.6000000238419</ele>
        <time>2019-05-18T12:36:36Z</time>
      </trkpt>
      <trkpt lat="52.99666" lon="6.58">
        <ele>1.6000000238419</ele>
        <time>2019-05-18T12:37:01Z</time>
      </trkpt>
      <trkpt lat="52.99705" lon="6.5815">
        <ele>1.7999999523163</ele>
        <time>2019-05-18T12:37:18Z</time>
      </trkpt>
      <trkpt lat="52.99733" lon="6.58251">
        <ele>1.6000000238419</ele>
        <time>2019-05-18T12:37:37Z</time>
      </trkpt>
      <trkpt lat="52.99774" lon="6.58336">
        <ele>2.2000000476837</ele>
        <time>2019-05-18T12:37:47Z</time>
      </trkpt>
      <trkpt lat="52.99822" lon="6.58433">
        <ele>2.2000000476837</ele>
        <time>2019-05-18T12:38:07Z</time>
      </trkpt>
      <trkpt lat="52.9985" lon="6.58559">
        <ele>2.4000000953674</ele>
        <time>2019-05-18T12:38:22Z</time>
      </trkpt>
      <trkpt lat="52.99899" lon="6.58803">
        <ele>2.4000000953674</ele>
        <time>2019-05-18T12:38:45Z</time>
      </trkpt>
      <trkpt lat="52.99946" lon="6.58931">
        <ele>2.5999999046326</ele>
        <time>2019-05-18T12:39:12Z</time>
      </trkpt>
      <trkpt lat="52.99971" lon="6.58944">
        <ele>2.5999999046326</ele>
        <time>2019-05-18T12:39:30Z</time>
      </trkpt>
      <trkpt lat="53.00078" lon="6.59148">
        <ele>3</ele>
        <time>2019-05-18T12:39:49Z</time>
      </trkpt>
      <trkpt lat="53.00119" lon="6.59174">
        <ele>3</ele>
        <time>2019-05-18T12:40:08Z</time>
      </trkpt>
      <trkpt lat="53.00127" lon="6.59189">
        <ele>2.7999999523163</ele>
        <time>2019-05-18T12:40:26Z</time>
      </trkpt>
      <trkpt lat="53.00132" lon="6.59231">
        <ele>2.7999999523163</ele>
        <time>2019-05-18T12:40:51Z</time>
      </trkpt>
      <trkpt lat="53.00135" lon="6.59242">
        <ele>1.7999999523163</ele>
        <time>2019-05-18T12:41:13Z</time>
      </trkpt>
      <trkpt lat="53.00158" lon="6.5929">
        <ele>1.7999999523163</ele>
        <time>2019-05-18T12:41:46Z</time>
      </trkpt>
      <trkpt lat="53.00293" lon="6.59549">
        <ele>1.2000000476837</ele>
        <time>2019-05-18T12:42:11Z</time>
      </trkpt>
      <trkpt lat="53.00349" lon="6.59639">
        <ele>1.3999999761581</ele>
        <time>2019-05-18T12:42:31Z</time>
      </trkpt>
      <trkpt lat="53.00411" lon="6.59756">
        <ele>1.2000000476837</ele>
        <time>2019-05-18T12:42:58Z</time>
      </trkpt>
      <trkpt lat="53.00507" lon="6.59928">
        <ele>0.80000001192093</ele>
        <time>2019-05-18T12:43:23Z</time>
      </trkpt>
      <trkpt lat="53.0054" lon="6.59989">
        <ele>0.40000000596046</ele>
        <time>2019-05-18T12:43:38Z</time>
      </trkpt>
      <trkpt lat="53.00592" lon="6.60079">
        <ele>0.20000000298023</ele>
        <time>2019-05-18T12:44:02Z</time>
      </trkpt>
      <trkpt lat="53.00616" lon="6.60124">
        <ele>-0.20000000298023</ele>
        <time>2019-05-18T12:44:26Z</time>
      </trkpt>
      <trkpt lat="53.00756" lon="6.60377">
        <ele>-1.3999999761581</ele>
        <time>2019-05-18T12:44:51Z</time>
      </trkpt>
      <trkpt lat="53.00906" lon="6.60623">
        <ele>-3.4000000953674</ele>
        <time>2019-05-18T12:45:14Z</time>
      </trkpt>
      <trkpt lat="53.01001" lon="6.60784">
        <ele>-3.4000000953674</ele>
        <time>2019-05-18T12:45:42Z</time>
      </trkpt>
      <trkpt lat="53.01075" lon="6.60907">
        <ele>-3.2000000476837</ele>
        <time>2019-05-18T12:46:12Z</time>
      </trkpt>
      <trkpt lat="53.01084" lon="6.60942">
        <ele>-2.7999999523163</ele>
        <time>2019-05-18T12:46:28Z</time>
      </trkpt>
      <trkpt lat="53.01205" lon="6.61136">
        <ele>-1</ele>
        <time>2019-05-18T12:46:39Z</time>
      </trkpt>
      <trkpt lat="53.01294" lon="6.61192">
        <ele>0.40000000596046</ele>
        <time>2019-05-18T12:47:05Z</time>
      </trkpt>
      <trkpt lat="53.0137" lon="6.61187">
        <ele>0.80000001192093</ele>
        <time>2019-05-18T12:47:30Z</time>
      </trkpt>
      <trkpt lat="53.01439" lon="6.6119">
        <ele>1.3999999761581</ele>
        <time>2019-05-18T12:47:44Z</time>
      </trkpt>
      <trkpt lat="53.01587" lon="6.6124">
        <ele>2</ele>
        <time>2019-05-18T12:48:09Z</time>
      </trkpt>
      <trkpt lat="53.01681" lon="6.6127">
        <ele>1.7999999523163</ele>
        <time>2019-05-18T12:48:28Z</time>
      </trkpt>
      <trkpt lat="53.01765" lon="6.61314">
        <ele>1.7999999523163</ele>
        <time>2019-05-18T12:48:55Z</time>
      </trkpt>
      <trkpt lat="53.01836" lon="6.61413">
        <ele>1.7999999523163</ele>
        <time>2019-05-18T12:49:20Z</time>
      </trkpt>
      <trkpt lat="53.01873" lon="6.61545">
        <ele>1</ele>
        <time>2019-05-18T12:49:45Z</time>
      </trkpt>
      <trkpt lat="53.019" lon="6.616">
        <ele>1</ele>
        <time>2019-05-18T12:50:09Z</time>
      </trkpt>
      <trkpt lat="53.01917" lon="6.61797">
        <ele>0.60000002384186</ele>
        <time>2019-05-18T12:50:17Z</time>
      </trkpt>
      <trkpt lat="53.01948" lon="6.62057">
        <ele>-0.60000002384186</ele>
        <time>2019-05-18T12:50:32Z</time>
      </trkpt>
      <trkpt lat="53.01983" lon="6.62335">
        <ele>-1.3999999761581</ele>
        <time>2019-05-18T12:50:58Z</time>
      </trkpt>
      <trkpt lat="53.02001" lon="6.6249">
        <ele>-2.5999999046326</ele>
        <time>2019-05-18T12:51:28Z</time>
      </trkpt>
      <trkpt lat="53.02019" lon="6.62625">
        <ele>-3</ele>
        <time>2019-05-18T12:51:37Z</time>
      </trkpt>
      <trkpt lat="53.02072" lon="6.62798">
        <ele>-3.7999999523163</ele>
        <time>2019-05-18T12:51:52Z</time>
      </trkpt>
      <trkpt lat="53.02129" lon="6.62939">
        <ele>-4.1999998092651</ele>
        <time>2019-05-18T12:52:18Z</time>
      </trkpt>
      <trkpt lat="53.02209" lon="6.63117">
        <ele>-4.1999998092651</ele>
        <time>2019-05-18T12:52:41Z</time>
      </trkpt>
      <trkpt lat="53.02248" lon="6.63202">
        <ele>-4.5999999046326</ele>
        <time>2019-05-18T12:53:02Z</time>
      </trkpt>
      <trkpt lat="53.02279" lon="6.63307">
        <ele>-4.5999999046326</ele>
        <time>2019-05-18T12:53:26Z</time>
      </trkpt>
      <trkpt lat="53.023" lon="6.63353">
        <ele>-3.7999999523163</ele>
        <time>2019-05-18T12:53:51Z</time>
      </trkpt>
      <trkpt lat="53.02291" lon="6.63362">
        <ele>-4.1999998092651</ele>
        <time>2019-05-18T12:54:17Z</time>
      </trkpt>
      <trkpt lat="53.02304" lon="6.63437">
        <ele>-4</ele>
        <time>2019-05-18T12:54:43Z</time>
      </trkpt>
      <trkpt lat="53.02332" lon="6.63562">
        <ele>-3.2000000476837</ele>
        <time>2019-05-18T12:55:06Z</time>
      </trkpt>
      <trkpt lat="53.02385" lon="6.63811">
        <ele>-2.7999999523163</ele>
        <time>2019-05-18T12:55:26Z</time>
      </trkpt>
      <trkpt lat="53.0245" lon="6.64146">
        <ele>-1.6000000238419</ele>
        <time>2019-05-18T12:55:37Z</time>
      </trkpt>
      <trkpt lat="53.02478" lon="6.64288">
        <ele>-2</ele>
        <time>2019-05-18T12:55:59Z</time>
      </trkpt>
      <trkpt lat="53.02513" lon="6.64468">
        <ele>-2.2000000476837</ele>
        <time>2019-05-18T12:56:19Z</time>
      </trkpt>
      <trkpt lat="53.02554" lon="6.64687">
        <ele>-2.5999999046326</ele>
        <time>2019-05-18T12:56:32Z</time>
      </trkpt>
      <trkpt lat="53.02582" lon="6.64824">
        <ele>-2.5999999046326</ele>
        <time>2019-05-18T12:56:52Z</time>
      </trkpt>
      <trkpt lat="53.02615" lon="6.64988">
        <ele>-2.7999999523163</ele>
        <time>2019-05-18T12:57:12Z</time>
      </trkpt>
      <trkpt lat="53.02647" lon="6.65154">
        <ele>-2.7999999523163</ele>
        <time>2019-05-18T12:57:47Z</time>
      </trkpt>
      <trkpt lat="53.02677" lon="6.65311">
        <ele>-3.2000000476837</ele>
        <time>2019-05-18T12:58:01Z</time>
      </trkpt>
      <trkpt lat="53.02699" lon="6.65416">
        <ele>-3.5999999046326</ele>
        <time>2019-05-18T12:58:24Z</time>
      </trkpt>
      <trkpt lat="53.02749" lon="6.65567">
        <ele>-4</ele>
        <time>2019-05-18T12:58:44Z</time>
      </trkpt>
      <trkpt lat="53.0281" lon="6.65695">
        <ele>-4.1999998092651</ele>
        <time>2019-05-18T12:58:59Z</time>
      </trkpt>
      <trkpt lat="53.02858" lon="6.65768">
        <ele>-4.5999999046326</ele>
        <time>2019-05-18T12:59:21Z</time>
      </trkpt>
      <trkpt lat="53.02942" lon="6.65871">
        <ele>-4.8000001907349</ele>
        <time>2019-05-18T12:59:29Z</time>
      </trkpt>
      <trkpt lat="53.03016" lon="6.65956">
        <ele>-4.8000001907349</ele>
        <time>2019-05-18T12:59:43Z</time>
      </trkpt>
      <trkpt lat="53.03082" lon="6.66033">
        <ele>-4.5999999046326</ele>
        <time>2019-05-18T12:59:56Z</time>
      </trkpt>
      <trkpt lat="53.03108" lon="6.66077">
        <ele>-4.5999999046326</ele>
        <time>2019-05-18T01:00:09Z</time>
      </trkpt>
      <trkpt lat="53.03209" lon="6.66168">
        <ele>-3.5999999046326</ele>
        <time>2019-05-18T01:00:29Z</time>
      </trkpt>
      <trkpt lat="53.03281" lon="6.66168">
        <ele>-3.7999999523163</ele>
        <time>2019-05-18T01:00:51Z</time>
      </trkpt>
      <trkpt lat="53.03355" lon="6.66168">
        <ele>-3.4000000953674</ele>
        <time>2019-05-18T01:01:45Z</time>
      </trkpt>
      <trkpt lat="53.03504" lon="6.66187">
        <ele>-3.4000000953674</ele>
        <time>2019-05-18T01:01:52Z</time>
      </trkpt>
      <trkpt lat="53.03545" lon="6.66211">
        <ele>-3.2000000476837</ele>
        <time>2019-05-18T01:02:17Z</time>
      </trkpt>
      <trkpt lat="53.03629" lon="6.66332">
        <ele>-2.4000000953674</ele>
        <time>2019-05-18T01:02:45Z</time>
      </trkpt>
      <trkpt lat="53.03653" lon="6.66405">
        <ele>-2.4000000953674</ele>
        <time>2019-05-18T01:03:03Z</time>
      </trkpt>
      <trkpt lat="53.03671" lon="6.66511">
        <ele>-2</ele>
        <time>2019-05-18T01:03:21Z</time>
      </trkpt>
      <trkpt lat="53.03687" lon="6.66631">
        <ele>-2.2000000476837</ele>
        <time>2019-05-18T01:03:34Z</time>
      </trkpt>
      <trkpt lat="53.03698" lon="6.66767">
        <ele>-1.7999999523163</ele>
        <time>2019-05-18T01:03:56Z</time>
      </trkpt>
      <trkpt lat="53.037" lon="6.6688">
        <ele>-2</ele>
        <time>2019-05-18T01:04:19Z</time>
      </trkpt>
      <trkpt lat="53.03708" lon="6.66965">
        <ele>-1.6000000238419</ele>
        <time>2019-05-18T01:04:42Z</time>
      </trkpt>
      <trkpt lat="53.03721" lon="6.67355">
        <ele>-1.6000000238419</ele>
        <time>2019-05-18T01:04:56Z</time>
      </trkpt>
      <trkpt lat="53.0373" lon="6.6746">
        <ele>-2</ele>
        <time>2019-05-18T01:05:06Z</time>
      </trkpt>
      <trkpt lat="53.03735" lon="6.6757">
        <ele>-1.3999999761581</ele>
        <time>2019-05-18T01:05:23Z</time>
      </trkpt>
      <trkpt lat="53.03732" lon="6.67627">
        <ele>-1.2000000476837</ele>
        <time>2019-05-18T01:05:43Z</time>
      </trkpt>
      <trkpt lat="53.03739" lon="6.67769">
        <ele>-1.6000000238419</ele>
        <time>2019-05-18T01:11:43Z</time>
      </trkpt>
      <trkpt lat="53.03751" lon="6.67925">
        <ele>-1.2000000476837</ele>
        <time>2019-05-18T01:11:57Z</time>
      </trkpt>
      <trkpt lat="53.03804" lon="6.68191">
        <ele>-1.2000000476837</ele>
        <time>2019-05-18T01:12:18Z</time>
      </trkpt>
      <trkpt lat="53.03833" lon="6.68332">
        <ele>-1</ele>
        <time>2019-05-18T01:12:36Z</time>
      </trkpt>
      <trkpt lat="53.03854" lon="6.68422">
        <ele>-0.60000002384186</ele>
        <time>2019-05-18T01:12:50Z</time>
      </trkpt>
      <trkpt lat="53.03897" lon="6.68608">
        <ele>-0.60000002384186</ele>
        <time>2019-05-18T01:13:12Z</time>
      </trkpt>
      <trkpt lat="53.03921" lon="6.68715">
        <ele>-1</ele>
        <time>2019-05-18T01:13:33Z</time>
      </trkpt>
      <trkpt lat="53.03944" lon="6.68825">
        <ele>-1.2000000476837</ele>
        <time>2019-05-18T01:13:46Z</time>
      </trkpt>
      <trkpt lat="53.03967" lon="6.6894">
        <ele>-1.2000000476837</ele>
        <time>2019-05-18T01:14:01Z</time>
      </trkpt>
      <trkpt lat="53.03978" lon="6.69008">
        <ele>-1.3999999761581</ele>
        <time>2019-05-18T01:14:21Z</time>
      </trkpt>
      <trkpt lat="53.03992" lon="6.69049">
        <ele>-2.2000000476837</ele>
        <time>2019-05-18T01:14:33Z</time>
      </trkpt>
      <trkpt lat="53.04024" lon="6.69174">
        <ele>-2.2000000476837</ele>
        <time>2019-05-18T01:14:57Z</time>
      </trkpt>
      <trkpt lat="53.04054" lon="6.69256">
        <ele>-2.4000000953674</ele>
        <time>2019-05-18T01:15:15Z</time>
      </trkpt>
      <trkpt lat="53.04089" lon="6.69377">
        <ele>-2.5999999046326</ele>
        <time>2019-05-18T01:15:37Z</time>
      </trkpt>
      <trkpt lat="53.04102" lon="6.69471">
        <ele>-1.7999999523163</ele>
        <time>2019-05-18T01:15:52Z</time>
      </trkpt>
      <trkpt lat="53.04119" lon="6.69596">
        <ele>-1.2000000476837</ele>
        <time>2019-05-18T01:16:04Z</time>
      </trkpt>
      <trkpt lat="53.04155" lon="6.69662">
        <ele>-0.40000000596046</ele>
        <time>2019-05-18T01:16:23Z</time>
      </trkpt>
      <trkpt lat="53.04199" lon="6.69831">
        <ele>1</ele>
        <time>2019-05-18T01:16:37Z</time>
      </trkpt>
      <trkpt lat="53.04207" lon="6.69841">
        <ele>1.3999999761581</ele>
        <time>2019-05-18T01:16:59Z</time>
      </trkpt>
      <trkpt lat="53.04244" lon="6.69853">
        <ele>1.6000000238419</ele>
        <time>2019-05-18T01:17:20Z</time>
      </trkpt>
      <trkpt lat="53.04249" lon="6.69887">
        <ele>1.6000000238419</ele>
        <time>2019-05-18T01:17:38Z</time>
      </trkpt>
      <trkpt lat="53.04257" lon="6.69895">
        <ele>1.7999999523163</ele>
        <time>2019-05-18T01:17:56Z</time>
      </trkpt>
      <trkpt lat="53.04259" lon="6.69962">
        <ele>1.7999999523163</ele>
        <time>2019-05-18T01:18:16Z</time>
      </trkpt>
      <trkpt lat="53.04297" lon="6.70225">
        <ele>3.4000000953674</ele>
        <time>2019-05-18T01:18:36Z</time>
      </trkpt>
      <trkpt lat="53.04391" lon="6.70328">
        <ele>4.1999998092651</ele>
        <time>2019-05-18T01:18:50Z</time>
      </trkpt>
      <trkpt lat="53.04518" lon="6.70377">
        <ele>4.5999999046326</ele>
        <time>2019-05-18T01:19:00Z</time>
      </trkpt>
      <trkpt lat="53.04568" lon="6.70466">
        <ele>4.4000000953674</ele>
        <time>2019-05-18T01:19:08Z</time>
      </trkpt>
      <trkpt lat="53.04604" lon="6.70574">
        <ele>4</ele>
        <time>2019-05-18T01:19:17Z</time>
      </trkpt>
      <trkpt lat="53.0465" lon="6.70723">
        <ele>3.2000000476837</ele>
        <time>2019-05-18T01:19:35Z</time>
      </trkpt>
      <trkpt lat="53.04695" lon="6.70828">
        <ele>2.4000000953674</ele>
        <time>2019-05-18T01:19:59Z</time>
      </trkpt>
      <trkpt lat="53.04794" lon="6.71127">
        <ele>1.7999999523163</ele>
        <time>2019-05-18T01:20:22Z</time>
      </trkpt>
      <trkpt lat="53.04832" lon="6.71234">
        <ele>2.4000000953674</ele>
        <time>2019-05-18T01:20:47Z</time>
      </trkpt>
      <trkpt lat="53.04851" lon="6.71301">
        <ele>2.4000000953674</ele>
        <time>2019-05-18T01:21:11Z</time>
      </trkpt>
      <trkpt lat="53.04881" lon="6.71398">
        <ele>2.5999999046326</ele>
        <time>2019-05-18T01:21:32Z</time>
      </trkpt>
      <trkpt lat="53.04928" lon="6.71498">
        <ele>2.5999999046326</ele>
        <time>2019-05-18T01:21:54Z</time>
      </trkpt>
      <trkpt lat="53.04984" lon="6.71653">
        <ele>2.7999999523163</ele>
        <time>2019-05-18T01:22:22Z</time>
      </trkpt>
      <trkpt lat="53.05017" lon="6.71749">
        <ele>3</ele>
        <time>2019-05-18T01:22:33Z</time>
      </trkpt>
      <trkpt lat="53.05054" lon="6.71855">
        <ele>2.7999999523163</ele>
        <time>2019-05-18T01:22:42Z</time>
      </trkpt>
      <trkpt lat="53.05091" lon="6.71976">
        <ele>2.4000000953674</ele>
        <time>2019-05-18T01:22:53Z</time>
      </trkpt>
      <trkpt lat="53.05128" lon="6.72099">
        <ele>1.7999999523163</ele>
        <time>2019-05-18T01:23:01Z</time>
      </trkpt>
      <trkpt lat="53.05168" lon="6.72218">
        <ele>1.6000000238419</ele>
        <time>2019-05-18T01:23:14Z</time>
      </trkpt>
      <trkpt lat="53.05194" lon="6.72277">
        <ele>1.2000000476837</ele>
        <time>2019-05-18T01:23:35Z</time>
      </trkpt>
      <trkpt lat="53.05306" lon="6.72512">
        <ele>1.2000000476837</ele>
        <time>2019-05-18T01:23:58Z</time>
      </trkpt>
      <trkpt lat="53.05328" lon="6.72556">
        <ele>0.80000001192093</ele>
        <time>2019-05-18T01:24:07Z</time>
      </trkpt>
      <trkpt lat="53.05407" lon="6.72662">
        <ele>-1</ele>
        <time>2019-05-18T01:24:18Z</time>
      </trkpt>
      <trkpt lat="53.05461" lon="6.72736">
        <ele>-2.7999999523163</ele>
        <time>2019-05-18T01:24:34Z</time>
      </trkpt>
      <trkpt lat="53.05464" lon="6.72801">
        <ele>-3.5999999046326</ele>
        <time>2019-05-18T01:24:50Z</time>
      </trkpt>
      <trkpt lat="53.05469" lon="6.72865">
        <ele>-3.7999999523163</ele>
        <time>2019-05-18T01:24:59Z</time>
      </trkpt>
      <trkpt lat="53.05465" lon="6.73032">
        <ele>-4</ele>
        <time>2019-05-18T01:25:11Z</time>
      </trkpt>
      <trkpt lat="53.05483" lon="6.73129">
        <ele>-4</ele>
        <time>2019-05-18T01:25:28Z</time>
      </trkpt>
      <trkpt lat="53.05509" lon="6.73209">
        <ele>-4.5999999046326</ele>
        <time>2019-05-18T01:25:49Z</time>
      </trkpt>
      <trkpt lat="53.0553" lon="6.73263">
        <ele>-5.4000000953674</ele>
        <time>2019-05-18T01:26:07Z</time>
      </trkpt>
      <trkpt lat="53.05588" lon="6.73445">
        <ele>-7.1999998092651</ele>
        <time>2019-05-18T01:26:26Z</time>
      </trkpt>
      <trkpt lat="53.05646" lon="6.73636">
        <ele>-8</ele>
        <time>2019-05-18T01:26:48Z</time>
      </trkpt>
      <trkpt lat="53.05716" lon="6.73827">
        <ele>-8.3999996185303</ele>
        <time>2019-05-18T01:27:02Z</time>
      </trkpt>
      <trkpt lat="53.05764" lon="6.73956">
        <ele>-8.6000003814697</ele>
        <time>2019-05-18T01:27:17Z</time>
      </trkpt>
      <trkpt lat="53.05797" lon="6.74024">
        <ele>-8.6000003814697</ele>
        <time>2019-05-18T01:27:33Z</time>
      </trkpt>
      <trkpt lat="53.05833" lon="6.74101">
        <ele>-9.1999998092651</ele>
        <time>2019-05-18T01:27:48Z</time>
      </trkpt>
      <trkpt lat="53.05903" lon="6.74226">
        <ele>-9.1999998092651</ele>
        <time>2019-05-18T01:28:03Z</time>
      </trkpt>
      <trkpt lat="53.0599" lon="6.74404">
        <ele>-9.3999996185303</ele>
        <time>2019-05-18T01:28:20Z</time>
      </trkpt>
      <trkpt lat="53.0609" lon="6.74607">
        <ele>-9.3999996185303</ele>
        <time>2019-05-18T01:28:41Z</time>
      </trkpt>
      <trkpt lat="53.06211" lon="6.74876">
        <ele>-9</ele>
        <time>2019-05-18T01:29:03Z</time>
      </trkpt>
      <trkpt lat="53.06284" lon="6.75067">
        <ele>-9</ele>
        <time>2019-05-18T01:29:29Z</time>
      </trkpt>
      <trkpt lat="53.06352" lon="6.75234">
        <ele>-9.3999996185303</ele>
        <time>2019-05-18T01:29:47Z</time>
      </trkpt>
      <trkpt lat="53.06397" lon="6.75348">
        <ele>-9.3999996185303</ele>
        <time>2019-05-18T01:30:06Z</time>
      </trkpt>
      <trkpt lat="53.06456" lon="6.75485">
        <ele>-9</ele>
        <time>2019-05-18T01:30:27Z</time>
      </trkpt>
      <trkpt lat="53.06536" lon="6.75628">
        <ele>-9.3999996185303</ele>
        <time>2019-05-18T01:30:45Z</time>
      </trkpt>
      <trkpt lat="53.06593" lon="6.75712">
        <ele>-8.6000003814697</ele>
        <time>2019-05-18T01:30:55Z</time>
      </trkpt>
      <trkpt lat="53.06737" lon="6.75868">
        <ele>-8.6000003814697</ele>
        <time>2019-05-18T01:31:11Z</time>
      </trkpt>
      <trkpt lat="53.06797" lon="6.75915">
        <ele>-9</ele>
        <time>2019-05-18T01:31:26Z</time>
      </trkpt>
      <trkpt lat="53.06862" lon="6.75959">
        <ele>-8.8000001907349</ele>
        <time>2019-05-18T01:31:52Z</time>
      </trkpt>
      <trkpt lat="53.06967" lon="6.76022">
        <ele>-8.8000001907349</ele>
        <time>2019-05-18T01:32:16Z</time>
      </trkpt>
      <trkpt lat="53.0706" lon="6.76078">
        <ele>-8.6000003814697</ele>
        <time>2019-05-18T01:32:29Z</time>
      </trkpt>
      <trkpt lat="53.07374" lon="6.76327">
        <ele>-8.6000003814697</ele>
        <time>2019-05-18T01:32:43Z</time>
      </trkpt>
      <trkpt lat="53.07461" lon="6.76369">
        <ele>-8.6000003814697</ele>
        <time>2019-05-18T01:32:59Z</time>
      </trkpt>
      <trkpt lat="53.07517" lon="6.76381">
        <ele>-8.8000001907349</ele>
        <time>2019-05-18T01:33:21Z</time>
      </trkpt>
      <trkpt lat="53.07583" lon="6.76403">
        <ele>-8</ele>
        <time>2019-05-18T01:33:34Z</time>
      </trkpt>
      <trkpt lat="53.07626" lon="6.76428">
        <ele>-8</ele>
        <time>2019-05-18T01:34:34Z</time>
      </trkpt>
      <trkpt lat="53.07658" lon="6.76435">
        <ele>-8.1999998092651</ele>
        <time>2019-05-18T01:34:45Z</time>
      </trkpt>
      <trkpt lat="53.07725" lon="6.76506">
        <ele>-8.6000003814697</ele>
        <time>2019-05-18T01:34:53Z</time>
      </trkpt>
      <trkpt lat="53.07763" lon="6.76618">
        <ele>-8.6000003814697</ele>
        <time>2019-05-18T01:35:24Z</time>
      </trkpt>
      <trkpt lat="53.07786" lon="6.76729">
        <ele>-8.8000001907349</ele>
        <time>2019-05-18T01:35:41Z</time>
      </trkpt>
      <trkpt lat="53.07834" lon="6.76892">
        <ele>-8.6000003814697</ele>
        <time>2019-05-18T01:35:59Z</time>
      </trkpt>
      <trkpt lat="53.07877" lon="6.77043">
        <ele>-8.6000003814697</ele>
        <time>2019-05-18T01:36:24Z</time>
      </trkpt>
      <trkpt lat="53.0791" lon="6.77157">
        <ele>-9.1999998092651</ele>
        <time>2019-05-18T01:36:34Z</time>
      </trkpt>
      <trkpt lat="53.07942" lon="6.77261">
        <ele>-9.6000003814697</ele>
        <time>2019-05-18T01:36:57Z</time>
      </trkpt>
      <trkpt lat="53.07999" lon="6.77454">
        <ele>-9</ele>
        <time>2019-05-18T01:37:03Z</time>
      </trkpt>
      <trkpt lat="53.08044" lon="6.7761">
        <ele>-9</ele>
        <time>2019-05-18T01:37:21Z</time>
      </trkpt>
      <trkpt lat="53.0809" lon="6.77766">
        <ele>-8.8000001907349</ele>
        <time>2019-05-18T01:37:44Z</time>
      </trkpt>
      <trkpt lat="53.0815" lon="6.77968">
        <ele>-8.8000001907349</ele>
        <time>2019-05-18T01:38:02Z</time>
      </trkpt>
      <trkpt lat="53.08197" lon="6.78128">
        <ele>-9</ele>
        <time>2019-05-18T01:38:13Z</time>
      </trkpt>
      <trkpt lat="53.0825" lon="6.78321">
        <ele>-9.3999996185303</ele>
        <time>2019-05-18T01:38:23Z</time>
      </trkpt>
      <trkpt lat="53.08297" lon="6.78495">
        <ele>-9.1999998092651</ele>
        <time>2019-05-18T01:38:40Z</time>
      </trkpt>
      <trkpt lat="53.083" lon="6.78511">
        <ele>-9.3999996185303</ele>
        <time>2019-05-18T01:38:58Z</time>
      </trkpt>
      <trkpt lat="53.08403" lon="6.78894">
        <ele>-9.3999996185303</ele>
        <time>2019-05-18T01:39:17Z</time>
      </trkpt>
      <trkpt lat="53.08427" lon="6.78899">
        <ele>-9.1999998092651</ele>
        <time>2019-05-18T01:39:23Z</time>
      </trkpt>
      <trkpt lat="53.0848" lon="6.78977">
        <ele>-9.1999998092651</ele>
        <time>2019-05-18T01:39:35Z</time>
      </trkpt>
      <trkpt lat="53.08556" lon="6.79198">
        <ele>-9.1999998092651</ele>
        <time>2019-05-18T01:39:55Z</time>
      </trkpt>
      <trkpt lat="53.0859" lon="6.79332">
        <ele>-9.6000003814697</ele>
        <time>2019-05-18T01:40:19Z</time>
      </trkpt>
      <trkpt lat="53.08659" lon="6.79585">
        <ele>-9.6000003814697</ele>
        <time>2019-05-18T01:40:29Z</time>
      </trkpt>
      <trkpt lat="53.08698" lon="6.79724">
        <ele>-9.3999996185303</ele>
        <time>2019-05-18T01:40:45Z</time>
      </trkpt>
      <trkpt lat="53.08738" lon="6.79786">
        <ele>-9.6000003814697</ele>
        <time>2019-05-18T01:41:08Z</time>
      </trkpt>
      <trkpt lat="53.08887" lon="6.79672">
        <ele>-9.6000003814697</ele>
        <time>2019-05-18T01:41:18Z</time>
      </trkpt>
      <trkpt lat="53.08927" lon="6.7975">
        <ele>-9.6000003814697</ele>
        <time>2019-05-18T01:41:39Z</time>
      </trkpt>
      <trkpt lat="53.08944" lon="6.79813">
        <ele>-10</ele>
        <time>2019-05-18T01:41:49Z</time>
      </trkpt>
      <trkpt lat="53.09015" lon="6.80096">
        <ele>-9.6000003814697</ele>
        <time>2019-05-18T01:42:04Z</time>
      </trkpt>
      <trkpt lat="53.09063" lon="6.80267">
        <ele>-9.8000001907349</ele>
        <time>2019-05-18T01:43:35Z</time>
      </trkpt>
      <trkpt lat="53.09095" lon="6.80376">
        <ele>-9.8000001907349</ele>
        <time>2019-05-18T01:43:42Z</time>
      </trkpt>
      <trkpt lat="53.09128" lon="6.80496">
        <ele>-9.3999996185303</ele>
        <time>2019-05-18T01:43:56Z</time>
      </trkpt>
      <trkpt lat="53.09161" lon="6.80554">
        <ele>-9.3999996185303</ele>
        <time>2019-05-18T01:44:05Z</time>
      </trkpt>
      <trkpt lat="53.09161" lon="6.80597">
        <ele>-9.6000003814697</ele>
        <time>2019-05-18T01:44:17Z</time>
      </trkpt>
      <trkpt lat="53.0922" lon="6.80826">
        <ele>-9.6000003814697</ele>
        <time>2019-05-18T01:44:24Z</time>
      </trkpt>
      <trkpt lat="53.0923" lon="6.80866">
        <ele>-9.3999996185303</ele>
        <time>2019-05-18T01:44:37Z</time>
      </trkpt>
      <trkpt lat="53.09236" lon="6.8092">
        <ele>-9.8000001907349</ele>
        <time>2019-05-18T01:44:55Z</time>
      </trkpt>
      <trkpt lat="53.09228" lon="6.81117">
        <ele>-10</ele>
        <time>2019-05-18T01:45:11Z</time>
      </trkpt>
      <trkpt lat="53.09204" lon="6.81683">
        <ele>-10</ele>
        <time>2019-05-18T01:45:37Z</time>
      </trkpt>
      <trkpt lat="53.09196" lon="6.81847">
        <ele>-10.199999809265</ele>
        <time>2019-05-18T01:46:01Z</time>
      </trkpt>
      <trkpt lat="53.09177" lon="6.82346">
        <ele>-10.199999809265</ele>
        <time>2019-05-18T01:46:25Z</time>
      </trkpt>
      <trkpt lat="53.09175" lon="6.82444">
        <ele>-10</ele>
        <time>2019-05-18T01:46:43Z</time>
      </trkpt>
      <trkpt lat="53.09168" lon="6.82584">
        <ele>-10</ele>
        <time>2019-05-18T01:47:01Z</time>
      </trkpt>
      <trkpt lat="53.09161" lon="6.82752">
        <ele>-9.8000001907349</ele>
        <time>2019-05-18T01:47:20Z</time>
      </trkpt>
      <trkpt lat="53.09147" lon="6.83113">
        <ele>-10.199999809265</ele>
        <time>2019-05-18T01:47:45Z</time>
      </trkpt>
      <trkpt lat="53.09132" lon="6.83317">
        <ele>-10.39999961853</ele>
        <time>2019-05-18T01:47:55Z</time>
      </trkpt>
      <trkpt lat="53.09124" lon="6.83408">
        <ele>-10</ele>
        <time>2019-05-18T01:48:18Z</time>
      </trkpt>
      <trkpt lat="53.09127" lon="6.83493">
        <ele>-9.8000001907349</ele>
        <time>2019-05-18T01:48:47Z</time>
      </trkpt>
      <trkpt lat="53.09123" lon="6.83709">
        <ele>-10.60000038147</ele>
        <time>2019-05-18T01:49:13Z</time>
      </trkpt>
      <trkpt lat="53.09114" lon="6.8387">
        <ele>-10.60000038147</ele>
        <time>2019-05-18T01:49:35Z</time>
      </trkpt>
      <trkpt lat="53.09109" lon="6.84024">
        <ele>-10.39999961853</ele>
        <time>2019-05-18T01:49:45Z</time>
      </trkpt>
      <trkpt lat="53.09101" lon="6.84156">
        <ele>-10.39999961853</ele>
        <time>2019-05-18T01:49:53Z</time>
      </trkpt>
      <trkpt lat="53.09094" lon="6.84261">
        <ele>-10</ele>
        <time>2019-05-18T01:50:04Z</time>
      </trkpt>
      <trkpt lat="53.09084" lon="6.84363">
        <ele>-7</ele>
        <time>2019-05-18T01:50:28Z</time>
      </trkpt>
      <trkpt lat="53.09071" lon="6.84426">
        <ele>-7.4000000953674</ele>
        <time>2019-05-18T01:50:48Z</time>
      </trkpt>
      <trkpt lat="53.0906" lon="6.84503">
        <ele>-9.1999998092651</ele>
        <time>2019-05-18T01:51:23Z</time>
      </trkpt>
      <trkpt lat="53.09029" lon="6.84597">
        <ele>-9.8000001907349</ele>
        <time>2019-05-18T01:51:45Z</time>
      </trkpt>
      <trkpt lat="53.09021" lon="6.84685">
        <ele>-10</ele>
        <time>2019-05-18T01:51:56Z</time>
      </trkpt>
      <trkpt lat="53.08997" lon="6.84804">
        <ele>-10.800000190735</ele>
        <time>2019-05-18T01:52:17Z</time>
      </trkpt>
      <trkpt lat="53.08981" lon="6.84867">
        <ele>-10.800000190735</ele>
        <time>2019-05-18T01:52:44Z</time>
      </trkpt>
      <trkpt lat="53.08963" lon="6.84954">
        <ele>-10.199999809265</ele>
        <time>2019-05-18T01:53:11Z</time>
      </trkpt>
      <trkpt lat="53.0894" lon="6.85057">
        <ele>-10.39999961853</ele>
        <time>2019-05-18T01:53:32Z</time>
      </trkpt>
      <trkpt lat="53.08915" lon="6.85151">
        <ele>-10.199999809265</ele>
        <time>2019-05-18T01:53:44Z</time>
      </trkpt>
      <trkpt lat="53.08899" lon="6.8527">
        <ele>-10.199999809265</ele>
        <time>2019-05-18T01:53:58Z</time>
      </trkpt>
      <trkpt lat="53.08911" lon="6.85295">
        <ele>-10</ele>
        <time>2019-05-18T01:54:12Z</time>
      </trkpt>
      <trkpt lat="53.08957" lon="6.85322">
        <ele>-10</ele>
        <time>2019-05-18T01:54:28Z</time>
      </trkpt>
      <trkpt lat="53.09038" lon="6.85375">
        <ele>-10.39999961853</ele>
        <time>2019-05-18T01:54:57Z</time>
      </trkpt>
      <trkpt lat="53.09103" lon="6.85414">
        <ele>-10.199999809265</ele>
        <time>2019-05-18T01:55:20Z</time>
      </trkpt>
      <trkpt lat="53.09149" lon="6.85434">
        <ele>-10.199999809265</ele>
        <time>2019-05-18T01:55:37Z</time>
      </trkpt>
      <trkpt lat="53.09208" lon="6.8548">
        <ele>-10.60000038147</ele>
        <time>2019-05-18T01:56:01Z</time>
      </trkpt>
      <trkpt lat="53.09261" lon="6.85511">
        <ele>-10.60000038147</ele>
        <time>2019-05-18T01:56:10Z</time>
      </trkpt>
      <trkpt lat="53.09331" lon="6.85554">
        <ele>-10.39999961853</ele>
        <time>2019-05-18T01:56:20Z</time>
      </trkpt>
      <trkpt lat="53.09405" lon="6.85601">
        <ele>-10.39999961853</ele>
        <time>2019-05-18T01:56:34Z</time>
      </trkpt>
      <trkpt lat="53.09454" lon="6.85619">
        <ele>-10.199999809265</ele>
        <time>2019-05-18T02:05:33Z</time>
      </trkpt>
      <trkpt lat="53.09578" lon="6.85695">
        <ele>-10.199999809265</ele>
        <time>2019-05-18T02:05:46Z</time>
      </trkpt>
      <trkpt lat="53.09639" lon="6.85869">
        <ele>-10.199999809265</ele>
        <time>2019-05-18T02:11:35Z</time>
      </trkpt>
      <trkpt lat="53.09694" lon="6.85895">
        <ele>-10.39999961853</ele>
        <time>2019-05-18T02:11:57Z</time>
      </trkpt>
      <trkpt lat="53.09749" lon="6.85902">
        <ele>-10.199999809265</ele>
        <time>2019-05-18T02:12:07Z</time>
      </trkpt>
      <trkpt lat="53.09969" lon="6.8593">
        <ele>-10.199999809265</ele>
        <time>2019-05-18T02:12:20Z</time>
      </trkpt>
      <trkpt lat="53.10057" lon="6.85944">
        <ele>-10.39999961853</ele>
        <time>2019-05-18T02:12:31Z</time>
      </trkpt>
      <trkpt lat="53.10121" lon="6.85956">
        <ele>-10.199999809265</ele>
        <time>2019-05-18T02:12:49Z</time>
      </trkpt>
      <trkpt lat="53.10196" lon="6.85978">
        <ele>-10.39999961853</ele>
        <time>2019-05-18T04:11:01Z</time>
      </trkpt>
      <trkpt lat="53.10326" lon="6.86021">
        <ele>-10.39999961853</ele>
        <time>2019-05-18T04:11:19Z</time>
      </trkpt>
      <trkpt lat="53.10376" lon="6.86076">
        <ele>-10.39999961853</ele>
        <time>2019-05-18T04:11:26Z</time>
      </trkpt>
      <trkpt lat="53.10402" lon="6.86204">
        <ele>-10.60000038147</ele>
        <time>2019-05-18T04:12:01Z</time>
      </trkpt>
      <trkpt lat="53.10432" lon="6.8634">
        <ele>-10.60000038147</ele>
        <time>2019-05-18T04:12:13Z</time>
      </trkpt>
      <trkpt lat="53.10485" lon="6.86394">
        <ele>-10.39999961853</ele>
        <time>2019-05-18T04:12:42Z</time>
      </trkpt>
      <trkpt lat="53.10482" lon="6.86446">
        <ele>-10.60000038147</ele>
        <time>2019-05-18T04:12:56Z</time>
      </trkpt>
      <trkpt lat="53.1047" lon="6.86468">
        <ele>-10.800000190735</ele>
        <time>2019-05-18T04:13:34Z</time>
      </trkpt>
      <trkpt lat="53.10526" lon="6.86689">
        <ele>-10.800000190735</ele>
        <time>2019-05-18T04:13:49Z</time>
      </trkpt>
      <trkpt lat="53.10564" lon="6.86829">
        <ele>-10.60000038147</ele>
        <time>2019-05-18T04:14:06Z</time>
      </trkpt>
      <trkpt lat="53.10586" lon="6.86904">
        <ele>-10.800000190735</ele>
        <time>2019-05-18T04:14:21Z</time>
      </trkpt>
      <trkpt lat="53.10622" lon="6.87008">
        <ele>-10.39999961853</ele>
        <time>2019-05-18T04:14:38Z</time>
      </trkpt>
      <trkpt lat="53.10647" lon="6.87004">
        <ele>-10.199999809265</ele>
        <time>2019-05-18T04:14:51Z</time>
      </trkpt>
      <trkpt lat="53.10665" lon="6.87031">
        <ele>-10</ele>
        <time>2019-05-18T04:15:06Z</time>
      </trkpt>
      <trkpt lat="53.10701" lon="6.87065">
        <ele>-10.199999809265</ele>
        <time>2019-05-18T04:15:19Z</time>
      </trkpt>
      <trkpt lat="53.10758" lon="6.87094">
        <ele>-10.199999809265</ele>
        <time>2019-05-18T04:15:41Z</time>
      </trkpt>
      <trkpt lat="53.10832" lon="6.87102">
        <ele>-10.39999961853</ele>
        <time>2019-05-18T04:15:59Z</time>
      </trkpt>
      <trkpt lat="53.10914" lon="6.87119">
        <ele>-10.39999961853</ele>
        <time>2019-05-18T04:16:08Z</time>
      </trkpt>
      <trkpt lat="53.10998" lon="6.8713">
        <ele>-10.199999809265</ele>
        <time>2019-05-18T04:16:28Z</time>
      </trkpt>
      <trkpt lat="53.11026" lon="6.87152">
        <ele>-10.39999961853</ele>
        <time>2019-05-18T04:16:43Z</time>
      </trkpt>
      <trkpt lat="53.11035" lon="6.87224">
        <ele>-10.39999961853</ele>
        <time>2019-05-18T04:16:59Z</time>
      </trkpt>
      <trkpt lat="53.11028" lon="6.87376">
        <ele>-9.8000001907349</ele>
        <time>2019-05-18T04:17:18Z</time>
      </trkpt>
      <trkpt lat="53.11025" lon="6.8747">
        <ele>-10.199999809265</ele>
        <time>2019-05-18T04:17:38Z</time>
      </trkpt>
      <trkpt lat="53.11021" lon="6.87598">
        <ele>-10.199999809265</ele>
        <time>2019-05-18T04:18:05Z</time>
      </trkpt>
      <trkpt lat="53.11015" lon="6.87674">
        <ele>-10.60000038147</ele>
        <time>2019-05-18T04:18:23Z</time>
      </trkpt>
      <trkpt lat="53.11006" lon="6.87801">
        <ele>-10.800000190735</ele>
        <time>2019-05-18T04:18:31Z</time>
      </trkpt>
      <trkpt lat="53.11006" lon="6.87876">
        <ele>-10.800000190735</ele>
        <time>2019-05-18T04:18:48Z</time>
      </trkpt>
      <trkpt lat="53.11" lon="6.88006">
        <ele>-11.199999809265</ele>
        <time>2019-05-18T04:19:13Z</time>
      </trkpt>
      <trkpt lat="53.11001" lon="6.88076">
        <ele>-11</ele>
        <time>2019-05-18T04:19:22Z</time>
      </trkpt>
      <trkpt lat="53.11006" lon="6.88111">
        <ele>-11</ele>
        <time>2019-05-18T04:19:47Z</time>
      </trkpt>
      <trkpt lat="53.1102" lon="6.88259">
        <ele>-11.199999809265</ele>
        <time>2019-05-18T04:20:03Z</time>
      </trkpt>
      <trkpt lat="53.11034" lon="6.88399">
        <ele>-11.199999809265</ele>
        <time>2019-05-18T04:20:11Z</time>
      </trkpt>
      <trkpt lat="53.11026" lon="6.88538">
        <ele>-10.800000190735</ele>
        <time>2019-05-18T04:20:22Z</time>
      </trkpt>
      <trkpt lat="53.11008" lon="6.886">
        <ele>-10.800000190735</ele>
        <time>2019-05-18T04:20:40Z</time>
      </trkpt>
      <trkpt lat="53.11025" lon="6.88621">
        <ele>-10.60000038147</ele>
        <time>2019-05-18T04:20:57Z</time>
      </trkpt>
      <trkpt lat="53.11086" lon="6.88662">
        <ele>-10.39999961853</ele>
        <time>2019-05-18T04:21:17Z</time>
      </trkpt>
      <trkpt lat="53.1116" lon="6.88724">
        <ele>-10.60000038147</ele>
        <time>2019-05-18T04:21:25Z</time>
      </trkpt>
      <trkpt lat="53.11242" lon="6.88785">
        <ele>-10.39999961853</ele>
        <time>2019-05-18T04:21:30Z</time>
      </trkpt>
      <trkpt lat="53.11315" lon="6.8883">
        <ele>-10.39999961853</ele>
        <time>2019-05-18T04:21:39Z</time>
      </trkpt>
      <trkpt lat="53.11408" lon="6.88873">
        <ele>-10.39999961853</ele>
        <time>2019-05-18T04:22:14Z</time>
      </trkpt>
      <trkpt lat="53.11506" lon="6.889">
        <ele>-10.60000038147</ele>
        <time>2019-05-18T04:22:35Z</time>
      </trkpt>
      <trkpt lat="53.11603" lon="6.88919">
        <ele>-10.39999961853</ele>
        <time>2019-05-18T04:22:43Z</time>
      </trkpt>
      <trkpt lat="53.11695" lon="6.88917">
        <ele>-10.39999961853</ele>
        <time>2019-05-18T04:23:04Z</time>
      </trkpt>
      <trkpt lat="53.11788" lon="6.88936">
        <ele>-10.199999809265</ele>
        <time>2019-05-18T04:23:14Z</time>
      </trkpt>
      <trkpt lat="53.11876" lon="6.88947">
        <ele>-10.39999961853</ele>
        <time>2019-05-18T04:23:28Z</time>
      </trkpt>
      <trkpt lat="53.11938" lon="6.8896">
        <ele>-10.39999961853</ele>
        <time>2019-05-18T04:23:40Z</time>
      </trkpt>
      <trkpt lat="53.11982" lon="6.88983">
        <ele>-10.60000038147</ele>
        <time>2019-05-18T04:23:52Z</time>
      </trkpt>
      <trkpt lat="53.12055" lon="6.8899">
        <ele>-10.199999809265</ele>
        <time>2019-05-18T04:24:01Z</time>
      </trkpt>
      <trkpt lat="53.12125" lon="6.8899">
        <ele>-10.60000038147</ele>
        <time>2019-05-18T04:24:12Z</time>
      </trkpt>
      <trkpt lat="53.12264" lon="6.88988">
        <ele>-11</ele>
        <time>2019-05-18T04:24:24Z</time>
      </trkpt>
      <trkpt lat="53.1239" lon="6.88997">
        <ele>-11</ele>
        <time>2019-05-18T04:24:37Z</time>
      </trkpt>
      <trkpt lat="53.12477" lon="6.88999">
        <ele>-11.199999809265</ele>
        <time>2019-05-18T04:24:48Z</time>
      </trkpt>
      <trkpt lat="53.12526" lon="6.89002">
        <ele>-11.199999809265</ele>
        <time>2019-05-18T04:25:00Z</time>
      </trkpt>
      <trkpt lat="53.12615" lon="6.89004">
        <ele>-11.39999961853</ele>
        <time>2019-05-18T04:25:14Z</time>
      </trkpt>
      <trkpt lat="53.1272" lon="6.89008">
        <ele>-11.199999809265</ele>
        <time>2019-05-18T04:25:48Z</time>
      </trkpt>
      <trkpt lat="53.12787" lon="6.89024">
        <ele>-11.199999809265</ele>
        <time>2019-05-18T04:26:11Z</time>
      </trkpt>
      <trkpt lat="53.12946" lon="6.89087">
        <ele>-11.199999809265</ele>
        <time>2019-05-18T04:26:20Z</time>
      </trkpt>
      <trkpt lat="53.13054" lon="6.89131">
        <ele>-11.39999961853</ele>
        <time>2019-05-18T04:26:30Z</time>
      </trkpt>
      <trkpt lat="53.13212" lon="6.89187">
        <ele>-11</ele>
        <time>2019-05-18T04:26:39Z</time>
      </trkpt>
      <trkpt lat="53.13278" lon="6.89245">
        <ele>-10.39999961853</ele>
        <time>2019-05-18T04:26:56Z</time>
      </trkpt>
      <trkpt lat="53.13326" lon="6.89352">
        <ele>-10</ele>
        <time>2019-05-18T04:27:10Z</time>
      </trkpt>
      <trkpt lat="53.13397" lon="6.89519">
        <ele>-11.39999961853</ele>
        <time>2019-05-18T04:27:48Z</time>
      </trkpt>
      <trkpt lat="53.13427" lon="6.89584">
        <ele>-11.60000038147</ele>
        <time>2019-05-18T04:28:18Z</time>
      </trkpt>
      <trkpt lat="53.13452" lon="6.89713">
        <ele>-11.199999809265</ele>
        <time>2019-05-18T04:28:29Z</time>
      </trkpt>
      <trkpt lat="53.13456" lon="6.89822">
        <ele>-10.199999809265</ele>
        <time>2019-05-18T04:29:38Z</time>
      </trkpt>
      <trkpt lat="53.13444" lon="6.89876">
        <ele>-10.60000038147</ele>
        <time>2019-05-18T04:29:45Z</time>
      </trkpt>
      <trkpt lat="53.13462" lon="6.89922">
        <ele>-10.800000190735</ele>
        <time>2019-05-18T04:29:51Z</time>
      </trkpt>
      <trkpt lat="53.13464" lon="6.90008">
        <ele>-11.39999961853</ele>
        <time>2019-05-18T04:30:00Z</time>
      </trkpt>
      <trkpt lat="53.13447" lon="6.90043">
        <ele>-11.60000038147</ele>
        <time>2019-05-18T04:30:10Z</time>
      </trkpt>
      <trkpt lat="53.13465" lon="6.90087">
        <ele>-11.60000038147</ele>
        <time>2019-05-18T04:30:46Z</time>
      </trkpt>
      <trkpt lat="53.1347" lon="6.90144">
        <ele>-11.199999809265</ele>
        <time>2019-05-18T04:30:51Z</time>
      </trkpt>
      <trkpt lat="53.13477" lon="6.90176">
        <ele>-11.199999809265</ele>
        <time>2019-05-19T07:33:21Z</time>
      </trkpt>
      <trkpt lat="53.13514" lon="6.90181">
        <ele>-11.199999809265</ele>
        <time>2019-05-19T07:33:36Z</time>
      </trkpt>
      <trkpt lat="53.13587" lon="6.90172">
        <ele>-11.39999961853</ele>
        <time>2019-05-19T07:33:42Z</time>
      </trkpt>
      <trkpt lat="53.13702" lon="6.90564">
        <ele>-11.39999961853</ele>
        <time>2019-05-19T07:34:05Z</time>
      </trkpt>
      <trkpt lat="53.13734" lon="6.90686">
        <ele>-11.60000038147</ele>
        <time>2019-05-19T07:34:28Z</time>
      </trkpt>
      <trkpt lat="53.13762" lon="6.90779">
        <ele>-11.39999961853</ele>
        <time>2019-05-19T07:34:58Z</time>
      </trkpt>
      <trkpt lat="53.13794" lon="6.90883">
        <ele>-11.39999961853</ele>
        <time>2019-05-19T07:35:30Z</time>
      </trkpt>
      <trkpt lat="53.13824" lon="6.90992">
        <ele>-11.199999809265</ele>
        <time>2019-05-19T07:36:01Z</time>
      </trkpt>
      <trkpt lat="53.13913" lon="6.9141">
        <ele>-11.199999809265</ele>
        <time>2019-05-19T07:36:25Z</time>
      </trkpt>
      <trkpt lat="53.13938" lon="6.91547">
        <ele>-10.60000038147</ele>
        <time>2019-05-19T07:36:39Z</time>
      </trkpt>
      <trkpt lat="53.13955" lon="6.91646">
        <ele>-10.800000190735</ele>
        <time>2019-05-19T07:37:35Z</time>
      </trkpt>
      <trkpt lat="53.13972" lon="6.91769">
        <ele>-10.39999961853</ele>
        <time>2019-05-19T07:38:03Z</time>
      </trkpt>
      <trkpt lat="53.13973" lon="6.91907">
        <ele>-10.800000190735</ele>
        <time>2019-05-19T07:38:33Z</time>
      </trkpt>
      <trkpt lat="53.1396" lon="6.92014">
        <ele>-10.800000190735</ele>
        <time>2019-05-19T07:38:53Z</time>
      </trkpt>
      <trkpt lat="53.13948" lon="6.92134">
        <ele>-10.60000038147</ele>
        <time>2019-05-19T07:39:21Z</time>
      </trkpt>
      <trkpt lat="53.13928" lon="6.92289">
        <ele>-10.199999809265</ele>
        <time>2019-05-19T07:39:46Z</time>
      </trkpt>
      <trkpt lat="53.13891" lon="6.92598">
        <ele>-10.60000038147</ele>
        <time>2019-05-19T07:40:18Z</time>
      </trkpt>
      <trkpt lat="53.13865" lon="6.92806">
        <ele>-11.60000038147</ele>
        <time>2019-05-19T07:40:41Z</time>
      </trkpt>
      <trkpt lat="53.13848" lon="6.92944">
        <ele>-11.39999961853</ele>
        <time>2019-05-19T07:41:13Z</time>
      </trkpt>
      <trkpt lat="53.13834" lon="6.93108">
        <ele>-11.39999961853</ele>
        <time>2019-05-19T07:41:43Z</time>
      </trkpt>
      <trkpt lat="53.13841" lon="6.93073">
        <ele>-12</ele>
        <time>2019-05-19T07:42:14Z</time>
      </trkpt>
      <trkpt lat="53.13836" lon="6.93083">
        <ele>-12.199999809265</ele>
        <time>2019-05-19T07:42:40Z</time>
      </trkpt>
      <trkpt lat="53.13813" lon="6.93283">
        <ele>-12.60000038147</ele>
        <time>2019-05-19T07:43:06Z</time>
      </trkpt>
      <trkpt lat="53.13789" lon="6.93527">
        <ele>-12.60000038147</ele>
        <time>2019-05-19T07:43:32Z</time>
      </trkpt>
      <trkpt lat="53.13782" lon="6.93637">
        <ele>-12.39999961853</ele>
        <time>2019-05-19T07:43:57Z</time>
      </trkpt>
      <trkpt lat="53.1377" lon="6.93752">
        <ele>-12.39999961853</ele>
        <time>2019-05-19T07:44:22Z</time>
      </trkpt>
      <trkpt lat="53.13761" lon="6.93853">
        <ele>-12.199999809265</ele>
        <time>2019-05-19T07:44:38Z</time>
      </trkpt>
      <trkpt lat="53.13745" lon="6.94045">
        <ele>-12.199999809265</ele>
        <time>2019-05-19T07:45:07Z</time>
      </trkpt>
      <trkpt lat="53.13738" lon="6.94102">
        <ele>-12.39999961853</ele>
        <time>2019-05-19T07:45:18Z</time>
      </trkpt>
      <trkpt lat="53.13724" lon="6.94256">
        <ele>-12.60000038147</ele>
        <time>2019-05-19T07:45:37Z</time>
      </trkpt>
      <trkpt lat="53.1371" lon="6.94426">
        <ele>-12.39999961853</ele>
        <time>2019-05-19T07:45:56Z</time>
      </trkpt>
      <trkpt lat="53.13699" lon="6.94573">
        <ele>-12.39999961853</ele>
        <time>2019-05-19T07:46:21Z</time>
      </trkpt>
      <trkpt lat="53.137" lon="6.94633">
        <ele>-12.199999809265</ele>
        <time>2019-05-19T07:46:30Z</time>
      </trkpt>
      <trkpt lat="53.13686" lon="6.94765">
        <ele>-12.39999961853</ele>
        <time>2019-05-19T07:46:50Z</time>
      </trkpt>
      <trkpt lat="53.13674" lon="6.94919">
        <ele>-12.39999961853</ele>
        <time>2019-05-19T07:47:09Z</time>
      </trkpt>
      <trkpt lat="53.13661" lon="6.95043">
        <ele>-12.39999961853</ele>
        <time>2019-05-19T07:47:16Z</time>
      </trkpt>
      <trkpt lat="53.13646" lon="6.95202">
        <ele>-12.199999809265</ele>
        <time>2019-05-19T07:47:37Z</time>
      </trkpt>
      <trkpt lat="53.1364" lon="6.953">
        <ele>-12.60000038147</ele>
        <time>2019-05-19T07:48:00Z</time>
      </trkpt>
      <trkpt lat="53.13654" lon="6.95437">
        <ele>-13</ele>
        <time>2019-05-19T07:48:17Z</time>
      </trkpt>
      <trkpt lat="53.1368" lon="6.9554">
        <ele>-13</ele>
        <time>2019-05-19T07:48:24Z</time>
      </trkpt>
      <trkpt lat="53.13788" lon="6.95834">
        <ele>-12.199999809265</ele>
        <time>2019-05-19T07:48:43Z</time>
      </trkpt>
      <trkpt lat="53.13852" lon="6.96028">
        <ele>-12.199999809265</ele>
        <time>2019-05-19T07:49:08Z</time>
      </trkpt>
      <trkpt lat="53.13885" lon="6.96179">
        <ele>-12.60000038147</ele>
        <time>2019-05-19T07:49:26Z</time>
      </trkpt>
      <trkpt lat="53.13927" lon="6.96406">
        <ele>-12.199999809265</ele>
        <time>2019-05-19T07:49:53Z</time>
      </trkpt>
      <trkpt lat="53.13972" lon="6.96649">
        <ele>-12.199999809265</ele>
        <time>2019-05-19T07:50:21Z</time>
      </trkpt>
      <trkpt lat="53.13968" lon="6.96686">
        <ele>-11.800000190735</ele>
        <time>2019-05-19T07:50:48Z</time>
      </trkpt>
      <trkpt lat="53.13989" lon="6.96799">
        <ele>-11.60000038147</ele>
        <time>2019-05-19T07:51:15Z</time>
      </trkpt>
      <trkpt lat="53.14013" lon="6.96918">
        <ele>-11.800000190735</ele>
        <time>2019-05-19T07:51:41Z</time>
      </trkpt>
      <trkpt lat="53.14033" lon="6.97032">
        <ele>-11.60000038147</ele>
        <time>2019-05-19T07:52:09Z</time>
      </trkpt>
      <trkpt lat="53.14035" lon="6.9705">
        <ele>-11.39999961853</ele>
        <time>2019-05-19T07:52:33Z</time>
      </trkpt>
      <trkpt lat="53.14052" lon="6.97144">
        <ele>-11.39999961853</ele>
        <time>2019-05-19T07:52:52Z</time>
      </trkpt>
      <trkpt lat="53.14087" lon="6.97327">
        <ele>-11</ele>
        <time>2019-05-19T07:53:06Z</time>
      </trkpt>
      <trkpt lat="53.14109" lon="6.97447">
        <ele>-10.800000190735</ele>
        <time>2019-05-19T07:53:27Z</time>
      </trkpt>
      <trkpt lat="53.14138" lon="6.97616">
        <ele>-10.800000190735</ele>
        <time>2019-05-19T07:53:52Z</time>
      </trkpt>
      <trkpt lat="53.14167" lon="6.97782">
        <ele>-10.60000038147</ele>
        <time>2019-05-19T07:54:13Z</time>
      </trkpt>
      <trkpt lat="53.14188" lon="6.97914">
        <ele>-10.39999961853</ele>
        <time>2019-05-19T07:54:27Z</time>
      </trkpt>
      <trkpt lat="53.14206" lon="6.98014">
        <ele>-10.199999809265</ele>
        <time>2019-05-19T07:54:38Z</time>
      </trkpt>
      <trkpt lat="53.14239" lon="6.9817">
        <ele>-10</ele>
        <time>2019-05-19T07:56:40Z</time>
      </trkpt>
      <trkpt lat="53.1426" lon="6.98256">
        <ele>-9.8000001907349</ele>
        <time>2019-05-19T07:59:27Z</time>
      </trkpt>
      <trkpt lat="53.1429" lon="6.98377">
        <ele>-10</ele>
        <time>2019-05-19T07:59:44Z</time>
      </trkpt>
      <trkpt lat="53.14348" lon="6.98522">
        <ele>-9.8000001907349</ele>
        <time>2019-05-19T07:59:53Z</time>
      </trkpt>
      <trkpt lat="53.14423" lon="6.98626">
        <ele>-10</ele>
        <time>2019-05-19T08:00:16Z</time>
      </trkpt>
      <trkpt lat="53.14775" lon="6.99145">
        <ele>-10</ele>
        <time>2019-05-19T08:00:36Z</time>
      </trkpt>
      <trkpt lat="53.14821" lon="6.99152">
        <ele>-9.3999996185303</ele>
        <time>2019-05-19T08:01:01Z</time>
      </trkpt>
      <trkpt lat="53.15031" lon="6.99175">
        <ele>-8.3999996185303</ele>
        <time>2019-05-19T08:01:25Z</time>
      </trkpt>
      <trkpt lat="53.15107" lon="6.99195">
        <ele>-8.6000003814697</ele>
        <time>2019-05-19T08:01:53Z</time>
      </trkpt>
      <trkpt lat="53.15198" lon="6.99219">
        <ele>-9</ele>
        <time>2019-05-19T08:02:16Z</time>
      </trkpt>
      <trkpt lat="53.15269" lon="6.99278">
        <ele>-9.6000003814697</ele>
        <time>2019-05-19T08:02:35Z</time>
      </trkpt>
      <trkpt lat="53.15304" lon="6.99361">
        <ele>-9.8000001907349</ele>
        <time>2019-05-19T08:02:57Z</time>
      </trkpt>
      <trkpt lat="53.15343" lon="6.99465">
        <ele>-10.39999961853</ele>
        <time>2019-05-19T08:03:20Z</time>
      </trkpt>
      <trkpt lat="53.15398" lon="6.99604">
        <ele>-10.60000038147</ele>
        <time>2019-05-19T08:03:36Z</time>
      </trkpt>
      <trkpt lat="53.15454" lon="6.99745">
        <ele>-10.60000038147</ele>
        <time>2019-05-19T08:03:45Z</time>
      </trkpt>
      <trkpt lat="53.15507" lon="6.99881">
        <ele>-9.8000001907349</ele>
        <time>2019-05-19T08:04:07Z</time>
      </trkpt>
      <trkpt lat="53.15567" lon="7.00048">
        <ele>-10.39999961853</ele>
        <time>2019-05-19T08:04:12Z</time>
      </trkpt>
      <trkpt lat="53.15597" lon="7.00126">
        <ele>-10</ele>
        <time>2019-05-19T08:04:30Z</time>
      </trkpt>
      <trkpt lat="53.15619" lon="7.00176">
        <ele>-9.3999996185303</ele>
        <time>2019-05-19T08:04:37Z</time>
      </trkpt>
      <trkpt lat="53.15636" lon="7.00217">
        <ele>-9.1999998092651</ele>
        <time>2019-05-19T08:04:50Z</time>
      </trkpt>
      <trkpt lat="53.1565" lon="7.00314">
        <ele>-9.6000003814697</ele>
        <time>2019-05-19T08:05:10Z</time>
      </trkpt>
      <trkpt lat="53.1564" lon="7.00441">
        <ele>-9</ele>
        <time>2019-05-19T08:05:16Z</time>
      </trkpt>
      <trkpt lat="53.15552" lon="7.00679">
        <ele>-8.1999998092651</ele>
        <time>2019-05-19T08:05:21Z</time>
      </trkpt>
      <trkpt lat="53.15547" lon="7.00787">
        <ele>-7.8000001907349</ele>
        <time>2019-05-19T08:05:38Z</time>
      </trkpt>
      <trkpt lat="53.15548" lon="7.00881">
        <ele>-7.5999999046326</ele>
        <time>2019-05-19T08:05:50Z</time>
      </trkpt>
      <trkpt lat="53.15522" lon="7.00999">
        <ele>-8</ele>
        <time>2019-05-19T08:06:14Z</time>
      </trkpt>
      <trkpt lat="53.15497" lon="7.01166">
        <ele>-7.4000000953674</ele>
        <time>2019-05-19T08:06:27Z</time>
      </trkpt>
      <trkpt lat="53.1549" lon="7.01304">
        <ele>-7.4000000953674</ele>
        <time>2019-05-19T08:06:37Z</time>
      </trkpt>
      <trkpt lat="53.15477" lon="7.01446">
        <ele>-7.5999999046326</ele>
        <time>2019-05-19T08:06:44Z</time>
      </trkpt>
      <trkpt lat="53.15459" lon="7.01497">
        <ele>-8</ele>
        <time>2019-05-19T08:06:53Z</time>
      </trkpt>
      <trkpt lat="53.15425" lon="7.0155">
        <ele>-8.8000001907349</ele>
        <time>2019-05-19T08:07:02Z</time>
      </trkpt>
      <trkpt lat="53.15332" lon="7.01693">
        <ele>-9.8000001907349</ele>
        <time>2019-05-19T08:07:18Z</time>
      </trkpt>
      <trkpt lat="53.15279" lon="7.01774">
        <ele>-10</ele>
        <time>2019-05-19T08:07:24Z</time>
      </trkpt>
      <trkpt lat="53.15235" lon="7.01838">
        <ele>-9.8000001907349</ele>
        <time>2019-05-19T08:07:44Z</time>
      </trkpt>
      <trkpt lat="53.1517" lon="7.01941">
        <ele>-9.8000001907349</ele>
        <time>2019-05-19T08:08:08Z</time>
      </trkpt>
      <trkpt lat="53.15149" lon="7.02026">
        <ele>-9.6000003814697</ele>
        <time>2019-05-19T08:08:27Z</time>
      </trkpt>
      <trkpt lat="53.15174" lon="7.02144">
        <ele>-9.3999996185303</ele>
        <time>2019-05-19T08:08:47Z</time>
      </trkpt>
      <trkpt lat="53.15195" lon="7.02247">
        <ele>-9.6000003814697</ele>
        <time>2019-05-19T08:09:11Z</time>
      </trkpt>
      <trkpt lat="53.15227" lon="7.02393">
        <ele>-9.1999998092651</ele>
        <time>2019-05-19T08:09:24Z</time>
      </trkpt>
      <trkpt lat="53.15252" lon="7.02507">
        <ele>-9.3999996185303</ele>
        <time>2019-05-19T08:09:31Z</time>
      </trkpt>
      <trkpt lat="53.15265" lon="7.02609">
        <ele>-9.1999998092651</ele>
        <time>2019-05-19T08:09:41Z</time>
      </trkpt>
      <trkpt lat="53.15257" lon="7.02653">
        <ele>-9.1999998092651</ele>
        <time>2019-05-19T08:09:59Z</time>
      </trkpt>
      <trkpt lat="53.15267" lon="7.02681">
        <ele>-9</ele>
        <time>2019-05-19T08:10:15Z</time>
      </trkpt>
      <trkpt lat="53.15287" lon="7.02742">
        <ele>-9</ele>
        <time>2019-05-19T08:10:26Z</time>
      </trkpt>
      <trkpt lat="53.15298" lon="7.0287">
        <ele>-8.8000001907349</ele>
        <time>2019-05-19T08:10:36Z</time>
      </trkpt>
      <trkpt lat="53.15309" lon="7.02949">
        <ele>-8.8000001907349</ele>
        <time>2019-05-19T08:10:56Z</time>
      </trkpt>
      <trkpt lat="53.15325" lon="7.02958">
        <ele>-9.1999998092651</ele>
        <time>2019-05-19T08:11:21Z</time>
      </trkpt>
      <trkpt lat="53.15336" lon="7.03124">
        <ele>-9.1999998092651</ele>
        <time>2019-05-19T08:11:33Z</time>
      </trkpt>
      <trkpt lat="53.15356" lon="7.03284">
        <ele>-8.8000001907349</ele>
        <time>2019-05-19T08:11:44Z</time>
      </trkpt>
      <trkpt lat="53.15345" lon="7.03393">
        <ele>-9</ele>
        <time>2019-05-19T08:12:03Z</time>
      </trkpt>
      <trkpt lat="53.15341" lon="7.03439">
        <ele>-9</ele>
        <time>2019-05-19T08:12:30Z</time>
      </trkpt>
      <trkpt lat="53.15328" lon="7.03556">
        <ele>-9.1999998092651</ele>
        <time>2019-05-19T08:12:50Z</time>
      </trkpt>
      <trkpt lat="53.15311" lon="7.03683">
        <ele>-9</ele>
        <time>2019-05-19T08:13:00Z</time>
      </trkpt>
      <trkpt lat="53.15303" lon="7.03793">
        <ele>-9</ele>
        <time>2019-05-19T08:13:12Z</time>
      </trkpt>
      <trkpt lat="53.15291" lon="7.03898">
        <ele>-9.1999998092651</ele>
        <time>2019-05-19T08:13:22Z</time>
      </trkpt>
      <trkpt lat="53.15363" lon="7.03964">
        <ele>-9.8000001907349</ele>
        <time>2019-05-19T08:13:48Z</time>
      </trkpt>
      <trkpt lat="53.15442" lon="7.04016">
        <ele>-9.8000001907349</ele>
        <time>2019-05-19T08:14:02Z</time>
      </trkpt>
      <trkpt lat="53.15519" lon="7.0406">
        <ele>-10</ele>
        <time>2019-05-19T08:14:25Z</time>
      </trkpt>
      <trkpt lat="53.15594" lon="7.04108">
        <ele>-10.39999961853</ele>
        <time>2019-05-19T08:14:54Z</time>
      </trkpt>
      <trkpt lat="53.15646" lon="7.04144">
        <ele>-10.199999809265</ele>
        <time>2019-05-19T08:15:14Z</time>
      </trkpt>
      <trkpt lat="53.15698" lon="7.04173">
        <ele>-10.39999961853</ele>
        <time>2019-05-19T08:15:35Z</time>
      </trkpt>
      <trkpt lat="53.15743" lon="7.04195">
        <ele>-10.199999809265</ele>
        <time>2019-05-19T08:15:44Z</time>
      </trkpt>
      <trkpt lat="53.15799" lon="7.04234">
        <ele>-10.199999809265</ele>
        <time>2019-05-19T08:16:06Z</time>
      </trkpt>
      <trkpt lat="53.15782" lon="7.04357">
        <ele>-10.60000038147</ele>
        <time>2019-05-19T08:16:24Z</time>
      </trkpt>
      <trkpt lat="53.15738" lon="7.04539">
        <ele>-10.60000038147</ele>
        <time>2019-05-19T08:16:42Z</time>
      </trkpt>
      <trkpt lat="53.15684" lon="7.04735">
        <ele>-10.39999961853</ele>
        <time>2019-05-19T08:16:56Z</time>
      </trkpt>
      <trkpt lat="53.15631" lon="7.04925">
        <ele>-10.800000190735</ele>
        <time>2019-05-19T08:17:12Z</time>
      </trkpt>
      <trkpt lat="53.15577" lon="7.05096">
        <ele>-10.800000190735</ele>
        <time>2019-05-19T08:17:35Z</time>
      </trkpt>
      <trkpt lat="53.15533" lon="7.05252">
        <ele>-8.6000003814697</ele>
        <time>2019-05-19T08:17:48Z</time>
      </trkpt>
      <trkpt lat="53.15516" lon="7.05299">
        <ele>-8.3999996185303</ele>
        <time>2019-05-19T08:18:08Z</time>
      </trkpt>
      <trkpt lat="53.15485" lon="7.05379">
        <ele>-8.1999998092651</ele>
        <time>2019-05-19T08:18:19Z</time>
      </trkpt>
      <trkpt lat="53.15572" lon="7.05465">
        <ele>-6.5999999046326</ele>
        <time>2019-05-19T08:18:35Z</time>
      </trkpt>
      <trkpt lat="53.15596" lon="7.05452">
        <ele>-6.5999999046326</ele>
        <time>2019-05-19T08:18:51Z</time>
      </trkpt>
      <trkpt lat="53.15654" lon="7.05468">
        <ele>-8.8000001907349</ele>
        <time>2019-05-19T08:19:17Z</time>
      </trkpt>
      <trkpt lat="53.15712" lon="7.05483">
        <ele>-10</ele>
        <time>2019-05-19T08:19:43Z</time>
      </trkpt>
      <trkpt lat="53.15733" lon="7.05543">
        <ele>-9.6000003814697</ele>
        <time>2019-05-19T08:20:08Z</time>
      </trkpt>
      <trkpt lat="53.1573" lon="7.05617">
        <ele>-9.3999996185303</ele>
        <time>2019-05-19T08:20:28Z</time>
      </trkpt>
      <trkpt lat="53.15691" lon="7.05733">
        <ele>-8.8000001907349</ele>
        <time>2019-05-19T08:20:47Z</time>
      </trkpt>
      <trkpt lat="53.15609" lon="7.05978">
        <ele>-8.8000001907349</ele>
        <time>2019-05-19T08:21:07Z</time>
      </trkpt>
      <trkpt lat="53.1551" lon="7.06198">
        <ele>-9.3999996185303</ele>
        <time>2019-05-19T08:21:21Z</time>
      </trkpt>
      <trkpt lat="53.15432" lon="7.06375">
        <ele>-9.8000001907349</ele>
        <time>2019-05-19T08:21:41Z</time>
      </trkpt>
      <trkpt lat="53.15397" lon="7.06465">
        <ele>-10.199999809265</ele>
        <time>2019-05-19T08:22:01Z</time>
      </trkpt>
      <trkpt lat="53.15372" lon="7.06551">
        <ele>-9.8000001907349</ele>
        <time>2019-05-19T08:22:16Z</time>
      </trkpt>
      <trkpt lat="53.15358" lon="7.06745">
        <ele>-5.8000001907349</ele>
        <time>2019-05-19T08:22:37Z</time>
      </trkpt>
      <trkpt lat="53.15378" lon="7.06973">
        <ele>-9.1999998092651</ele>
        <time>2019-05-19T08:22:54Z</time>
      </trkpt>
      <trkpt lat="53.15417" lon="7.071">
        <ele>-9.3999996185303</ele>
        <time>2019-05-19T08:23:15Z</time>
      </trkpt>
      <trkpt lat="53.15478" lon="7.0725">
        <ele>-9.1999998092651</ele>
        <time>2019-05-19T08:23:31Z</time>
      </trkpt>
      <trkpt lat="53.15523" lon="7.07383">
        <ele>-9.1999998092651</ele>
        <time>2019-05-19T08:23:46Z</time>
      </trkpt>
      <trkpt lat="53.15598" lon="7.07453">
        <ele>-9</ele>
        <time>2019-05-19T08:24:03Z</time>
      </trkpt>
      <trkpt lat="53.15668" lon="7.07545">
        <ele>-9</ele>
        <time>2019-05-19T08:24:16Z</time>
      </trkpt>
      <trkpt lat="53.1581" lon="7.07725">
        <ele>-8.6000003814697</ele>
        <time>2019-05-19T08:24:37Z</time>
      </trkpt>
      <trkpt lat="53.15882" lon="7.07823">
        <ele>-8.8000001907349</ele>
        <time>2019-05-19T08:24:57Z</time>
      </trkpt>
      <trkpt lat="53.15942" lon="7.07903">
        <ele>-8.8000001907349</ele>
        <time>2019-05-19T08:25:15Z</time>
      </trkpt>
      <trkpt lat="53.15985" lon="7.07955">
        <ele>-8.6000003814697</ele>
        <time>2019-05-19T08:25:31Z</time>
      </trkpt>
      <trkpt lat="53.16059" lon="7.08051">
        <ele>-8.6000003814697</ele>
        <time>2019-05-19T08:25:49Z</time>
      </trkpt>
      <trkpt lat="53.16206" lon="7.0824">
        <ele>-9</ele>
        <time>2019-05-19T08:26:05Z</time>
      </trkpt>
      <trkpt lat="53.16279" lon="7.0833">
        <ele>-8.8000001907349</ele>
        <time>2019-05-19T08:26:30Z</time>
      </trkpt>
      <trkpt lat="53.16342" lon="7.08407">
        <ele>-9</ele>
        <time>2019-05-19T08:26:46Z</time>
      </trkpt>
      <trkpt lat="53.16503" lon="7.08601">
        <ele>-8.6000003814697</ele>
        <time>2019-05-19T08:27:03Z</time>
      </trkpt>
      <trkpt lat="53.16556" lon="7.08668">
        <ele>-8.3999996185303</ele>
        <time>2019-05-19T08:27:20Z</time>
      </trkpt>
      <trkpt lat="53.16607" lon="7.0873">
        <ele>-8.3999996185303</ele>
        <time>2019-05-19T08:27:44Z</time>
      </trkpt>
      <trkpt lat="53.16737" lon="7.08882">
        <ele>-8.8000001907349</ele>
        <time>2019-05-19T08:29:17Z</time>
      </trkpt>
      <trkpt lat="53.16789" lon="7.08948">
        <ele>-8.6000003814697</ele>
        <time>2019-05-19T08:29:35Z</time>
      </trkpt>
      <trkpt lat="53.16817" lon="7.08996">
        <ele>-8.8000001907349</ele>
        <time>2019-05-19T08:29:42Z</time>
      </trkpt>
      <trkpt lat="53.16836" lon="7.08992">
        <ele>-8.3999996185303</ele>
        <time>2019-05-19T08:29:57Z</time>
      </trkpt>
      <trkpt lat="53.16887" lon="7.09047">
        <ele>-8</ele>
        <time>2019-05-19T08:30:13Z</time>
      </trkpt>
      <trkpt lat="53.17039" lon="7.09222">
        <ele>-7.5999999046326</ele>
        <time>2019-05-19T08:30:33Z</time>
      </trkpt>
      <trkpt lat="53.17203" lon="7.09414">
        <ele>-7.5999999046326</ele>
        <time>2019-05-19T08:31:00Z</time>
      </trkpt>
      <trkpt lat="53.17265" lon="7.09486">
        <ele>-7.8000001907349</ele>
        <time>2019-05-19T08:31:15Z</time>
      </trkpt>
      <trkpt lat="53.17335" lon="7.09573">
        <ele>-7.8000001907349</ele>
        <time>2019-05-19T08:31:35Z</time>
      </trkpt>
      <trkpt lat="53.17381" lon="7.09633">
        <ele>-7.5999999046326</ele>
        <time>2019-05-19T08:31:49Z</time>
      </trkpt>
      <trkpt lat="53.17447" lon="7.09712">
        <ele>-7.5999999046326</ele>
        <time>2019-05-19T08:32:10Z</time>
      </trkpt>
      <trkpt lat="53.17518" lon="7.09796">
        <ele>-7.4000000953674</ele>
        <time>2019-05-19T08:32:28Z</time>
      </trkpt>
      <trkpt lat="53.17593" lon="7.0989">
        <ele>-7.8000001907349</ele>
        <time>2019-05-19T08:32:45Z</time>
      </trkpt>
      <trkpt lat="53.17666" lon="7.09981">
        <ele>-8</ele>
        <time>2019-05-19T08:33:01Z</time>
      </trkpt>
      <trkpt lat="53.1771" lon="7.10038">
        <ele>-8</ele>
        <time>2019-05-19T08:33:17Z</time>
      </trkpt>
      <trkpt lat="53.17751" lon="7.10101">
        <ele>-8.1999998092651</ele>
        <time>2019-05-19T08:33:35Z</time>
      </trkpt>
      <trkpt lat="53.1777" lon="7.10143">
        <ele>-8.3999996185303</ele>
        <time>2019-05-19T08:33:49Z</time>
      </trkpt>
      <trkpt lat="53.17796" lon="7.1022">
        <ele>-8.1999998092651</ele>
        <time>2019-05-19T08:34:04Z</time>
      </trkpt>
      <trkpt lat="53.17841" lon="7.10458">
        <ele>-8.1999998092651</ele>
        <time>2019-05-19T08:34:24Z</time>
      </trkpt>
      <trkpt lat="53.1787" lon="7.10626">
        <ele>-7.8000001907349</ele>
        <time>2019-05-19T08:34:49Z</time>
      </trkpt>
      <trkpt lat="53.17893" lon="7.10761">
        <ele>-8</ele>
        <time>2019-05-19T08:35:11Z</time>
      </trkpt>
      <trkpt lat="53.17909" lon="7.10876">
        <ele>-8.8000001907349</ele>
        <time>2019-05-19T08:35:32Z</time>
      </trkpt>
      <trkpt lat="53.1793" lon="7.10985">
        <ele>-8.6000003814697</ele>
        <time>2019-05-19T08:35:50Z</time>
      </trkpt>
      <trkpt lat="53.17952" lon="7.11116">
        <ele>-9.3999996185303</ele>
        <time>2019-05-19T08:36:05Z</time>
      </trkpt>
      <trkpt lat="53.17999" lon="7.11358">
        <ele>-10.199999809265</ele>
        <time>2019-05-19T08:36:24Z</time>
      </trkpt>
      <trkpt lat="53.18051" lon="7.11666">
        <ele>-10.199999809265</ele>
        <time>2019-05-19T08:36:42Z</time>
      </trkpt>
      <trkpt lat="53.18071" lon="7.118">
        <ele>-10.39999961853</ele>
        <time>2019-05-19T08:37:28Z</time>
      </trkpt>
      <trkpt lat="53.18088" lon="7.11891">
        <ele>-10.199999809265</ele>
        <time>2019-05-19T08:37:39Z</time>
      </trkpt>
      <trkpt lat="53.18112" lon="7.12038">
        <ele>-10</ele>
        <time>2019-05-19T08:37:53Z</time>
      </trkpt>
      <trkpt lat="53.18135" lon="7.12138">
        <ele>-10</ele>
        <time>2019-05-19T08:38:05Z</time>
      </trkpt>
      <trkpt lat="53.18158" lon="7.1228">
        <ele>-10.60000038147</ele>
        <time>2019-05-19T08:39:20Z</time>
      </trkpt>
      <trkpt lat="53.18182" lon="7.12421">
        <ele>-10.39999961853</ele>
        <time>2019-05-19T08:39:29Z</time>
      </trkpt>
      <trkpt lat="53.18204" lon="7.12559">
        <ele>-11.199999809265</ele>
        <time>2019-05-19T08:39:44Z</time>
      </trkpt>
      <trkpt lat="53.18213" lon="7.12621">
        <ele>-11.199999809265</ele>
        <time>2019-05-19T08:39:54Z</time>
      </trkpt>
      <trkpt lat="53.18253" lon="7.12894">
        <ele>-10.800000190735</ele>
        <time>2019-05-19T08:40:11Z</time>
      </trkpt>
      <trkpt lat="53.18265" lon="7.13013">
        <ele>-11.39999961853</ele>
        <time>2019-05-19T08:40:28Z</time>
      </trkpt>
      <trkpt lat="53.18266" lon="7.13165">
        <ele>-10.60000038147</ele>
        <time>2019-05-19T08:40:49Z</time>
      </trkpt>
      <trkpt lat="53.18272" lon="7.13225">
        <ele>-10.800000190735</ele>
        <time>2019-05-19T08:41:09Z</time>
      </trkpt>
      <trkpt lat="53.18288" lon="7.13366">
        <ele>-10.60000038147</ele>
        <time>2019-05-19T08:41:32Z</time>
      </trkpt>
      <trkpt lat="53.18299" lon="7.13454">
        <ele>-10.39999961853</ele>
        <time>2019-05-19T08:41:37Z</time>
      </trkpt>
      <trkpt lat="53.18414" lon="7.13421">
        <ele>-10</ele>
        <time>2019-05-19T08:41:48Z</time>
      </trkpt>
      <trkpt lat="53.18433" lon="7.13409">
        <ele>-10</ele>
        <time>2019-05-19T08:42:11Z</time>
      </trkpt>
      <trkpt lat="53.18423" lon="7.13361">
        <ele>-10.800000190735</ele>
        <time>2019-05-19T08:42:31Z</time>
      </trkpt>
      <trkpt lat="53.18387" lon="7.13376">
        <ele>-10</ele>
        <time>2019-05-19T08:42:51Z</time>
      </trkpt>
      <trkpt lat="53.18421" lon="7.13351">
        <ele>-11</ele>
        <time>2019-05-19T08:43:08Z</time>
      </trkpt>
      <trkpt lat="53.18429" lon="7.13324">
        <ele>-11</ele>
        <time>2019-05-19T08:43:30Z</time>
      </trkpt>
      <trkpt lat="53.18303" lon="7.13491">
        <ele>-5.8000001907349</ele>
        <time>2019-05-19T08:43:48Z</time>
      </trkpt>
      <trkpt lat="53.18324" lon="7.13548">
        <ele>-5.8000001907349</ele>
        <time>2019-05-19T08:43:54Z</time>
      </trkpt>
      <trkpt lat="53.18334" lon="7.13688">
        <ele>-6.1999998092651</ele>
        <time>2019-05-19T08:44:16Z</time>
      </trkpt>
      <trkpt lat="53.18343" lon="7.13807">
        <ele>-6.1999998092651</ele>
        <time>2019-05-19T08:44:42Z</time>
      </trkpt>
      <trkpt lat="53.18362" lon="7.13998">
        <ele>-6.5999999046326</ele>
        <time>2019-05-19T08:45:07Z</time>
      </trkpt>
      <trkpt lat="53.18369" lon="7.14165">
        <ele>-6.4000000953674</ele>
        <time>2019-05-19T08:45:22Z</time>
      </trkpt>
      <trkpt lat="53.18382" lon="7.14265">
        <ele>-6</ele>
        <time>2019-05-19T08:45:46Z</time>
      </trkpt>
      <trkpt lat="53.1855" lon="7.1479">
        <ele>-6</ele>
        <time>2019-05-19T08:46:13Z</time>
      </trkpt>
      <trkpt lat="53.18585" lon="7.14894">
        <ele>-5.8000001907349</ele>
        <time>2019-05-19T08:46:40Z</time>
      </trkpt>
      <trkpt lat="53.18636" lon="7.15031">
        <ele>-6</ele>
        <time>2019-05-19T08:46:59Z</time>
      </trkpt>
      <trkpt lat="53.18689" lon="7.15168">
        <ele>-6.4000000953674</ele>
        <time>2019-05-19T08:47:22Z</time>
      </trkpt>
      <trkpt lat="53.18747" lon="7.15312">
        <ele>-6.1999998092651</ele>
        <time>2019-05-19T08:47:43Z</time>
      </trkpt>
      <trkpt lat="53.18791" lon="7.15426">
        <ele>-6.5999999046326</ele>
        <time>2019-05-19T08:48:04Z</time>
      </trkpt>
      <trkpt lat="53.18886" lon="7.15692">
        <ele>-6.5999999046326</ele>
        <time>2019-05-19T08:48:25Z</time>
      </trkpt>
      <trkpt lat="53.18903" lon="7.15907">
        <ele>-7</ele>
        <time>2019-05-19T08:48:45Z</time>
      </trkpt>
      <trkpt lat="53.18907" lon="7.15953">
        <ele>-7.5999999046326</ele>
        <time>2019-05-19T08:49:08Z</time>
      </trkpt>
      <trkpt lat="53.18911" lon="7.16014">
        <ele>-7.8000001907349</ele>
        <time>2019-05-19T08:49:37Z</time>
      </trkpt>
      <trkpt lat="53.18922" lon="7.16172">
        <ele>-7.5999999046326</ele>
        <time>2019-05-19T08:50:05Z</time>
      </trkpt>
      <trkpt lat="53.18919" lon="7.16264">
        <ele>-7.5999999046326</ele>
        <time>2019-05-19T08:50:33Z</time>
      </trkpt>
      <trkpt lat="53.18904" lon="7.16308">
        <ele>-8</ele>
        <time>2019-05-19T08:50:55Z</time>
      </trkpt>
      <trkpt lat="53.18884" lon="7.16417">
        <ele>-8</ele>
        <time>2019-05-19T08:51:13Z</time>
      </trkpt>
      <trkpt lat="53.18872" lon="7.16553">
        <ele>-7.8000001907349</ele>
        <time>2019-05-19T08:51:31Z</time>
      </trkpt>
      <trkpt lat="53.18863" lon="7.1673">
        <ele>-8.1999998092651</ele>
        <time>2019-05-19T08:51:52Z</time>
      </trkpt>
      <trkpt lat="53.18858" lon="7.16867">
        <ele>-7.8000001907349</ele>
        <time>2019-05-19T08:52:15Z</time>
      </trkpt>
      <trkpt lat="53.18852" lon="7.17001">
        <ele>-7.5999999046326</ele>
        <time>2019-05-19T08:52:29Z</time>
      </trkpt>
      <trkpt lat="53.1889" lon="7.17129">
        <ele>-8.1999998092651</ele>
        <time>2019-05-19T08:52:53Z</time>
      </trkpt>
      <trkpt lat="53.18948" lon="7.17303">
        <ele>-7.8000001907349</ele>
        <time>2019-05-19T08:53:05Z</time>
      </trkpt>
      <trkpt lat="53.19031" lon="7.17459">
        <ele>-7.8000001907349</ele>
        <time>2019-05-19T08:53:26Z</time>
      </trkpt>
      <trkpt lat="53.19206" lon="7.17673">
        <ele>-8.1999998092651</ele>
        <time>2019-05-19T08:53:47Z</time>
      </trkpt>
      <trkpt lat="53.19268" lon="7.17749">
        <ele>-8.1999998092651</ele>
        <time>2019-05-19T08:54:10Z</time>
      </trkpt>
      <trkpt lat="53.19328" lon="7.17867">
        <ele>-8.3999996185303</ele>
        <time>2019-05-19T08:54:22Z</time>
      </trkpt>
      <trkpt lat="53.19363" lon="7.18016">
        <ele>-8.1999998092651</ele>
        <time>2019-05-19T08:54:42Z</time>
      </trkpt>
      <trkpt lat="53.19365" lon="7.1818">
        <ele>-8.1999998092651</ele>
        <time>2019-05-19T08:55:11Z</time>
      </trkpt>
      <trkpt lat="53.19318" lon="7.18362">
        <ele>-8.6000003814697</ele>
        <time>2019-05-19T08:55:37Z</time>
      </trkpt>
      <trkpt lat="53.19246" lon="7.1856">
        <ele>-8.8000001907349</ele>
        <time>2019-05-19T08:56:03Z</time>
      </trkpt>
      <trkpt lat="53.19172" lon="7.18763">
        <ele>-8.6000003814697</ele>
        <time>2019-05-19T08:56:27Z</time>
      </trkpt>
      <trkpt lat="53.19094" lon="7.18976">
        <ele>-8.8000001907349</ele>
        <time>2019-05-19T08:56:46Z</time>
      </trkpt>
      <trkpt lat="53.19022" lon="7.19153">
        <ele>-9</ele>
        <time>2019-05-19T08:57:12Z</time>
      </trkpt>
      <trkpt lat="53.19014" lon="7.19195">
        <ele>-8.6000003814697</ele>
        <time>2019-05-19T08:57:22Z</time>
      </trkpt>
      <trkpt lat="53.18946" lon="7.19384">
        <ele>-8.6000003814697</ele>
        <time>2019-05-19T08:57:40Z</time>
      </trkpt>
      <trkpt lat="53.18894" lon="7.19525">
        <ele>-8</ele>
        <time>2019-05-19T08:58:01Z</time>
      </trkpt>
      <trkpt lat="53.18826" lon="7.19714">
        <ele>-8.1999998092651</ele>
        <time>2019-05-19T08:58:19Z</time>
      </trkpt>
      <trkpt lat="53.18767" lon="7.19862">
        <ele>-7.5999999046326</ele>
        <time>2019-05-19T08:58:46Z</time>
      </trkpt>
      <trkpt lat="53.18722" lon="7.19913">
        <ele>-6.8000001907349</ele>
        <time>2019-05-19T08:59:07Z</time>
      </trkpt>
      <trkpt lat="53.18613" lon="7.20032">
        <ele>-6</ele>
        <time>2019-05-19T08:59:26Z</time>
      </trkpt>
      <trkpt lat="53.18536" lon="7.20108">
        <ele>-5.8000001907349</ele>
        <time>2019-05-19T08:59:54Z</time>
      </trkpt>
      <trkpt lat="53.18493" lon="7.20152">
        <ele>-5.5999999046326</ele>
        <time>2019-05-19T09:00:14Z</time>
      </trkpt>
      <trkpt lat="53.1839" lon="7.20246">
        <ele>-6</ele>
        <time>2019-05-19T09:00:33Z</time>
      </trkpt>
      <trkpt lat="53.18338" lon="7.20305">
        <ele>-5.4000000953674</ele>
        <time>2019-05-19T09:00:53Z</time>
      </trkpt>
      <trkpt lat="53.18306" lon="7.20413">
        <ele>-6</ele>
        <time>2019-05-19T09:01:06Z</time>
      </trkpt>
      <trkpt lat="53.18297" lon="7.20565">
        <ele>-5.8000001907349</ele>
        <time>2019-05-19T09:01:27Z</time>
      </trkpt>
      <trkpt lat="53.18319" lon="7.20652">
        <ele>-6.1999998092651</ele>
        <time>2019-05-19T09:01:44Z</time>
      </trkpt>
      <trkpt lat="53.18339" lon="7.20781">
        <ele>-7</ele>
        <time>2019-05-19T09:02:02Z</time>
      </trkpt>
      <trkpt lat="53.18332" lon="7.209">
        <ele>-7</ele>
        <time>2019-05-19T09:02:18Z</time>
      </trkpt>
      <trkpt lat="53.18297" lon="7.21061">
        <ele>-7.5999999046326</ele>
        <time>2019-05-19T09:02:36Z</time>
      </trkpt>
      <trkpt lat="53.18261" lon="7.2124">
        <ele>-8</ele>
        <time>2019-05-19T09:02:57Z</time>
      </trkpt>
      <trkpt lat="53.18236" lon="7.21359">
        <ele>-7.8000001907349</ele>
        <time>2019-05-19T09:03:20Z</time>
      </trkpt>
      <trkpt lat="53.1824" lon="7.21416">
        <ele>-7.8000001907349</ele>
        <time>2019-05-19T09:03:42Z</time>
      </trkpt>
      <trkpt lat="53.18287" lon="7.21541">
        <ele>-7.5999999046326</ele>
        <time>2019-05-19T09:04:06Z</time>
      </trkpt>
      <trkpt lat="53.18297" lon="7.21566">
        <ele>-7.4000000953674</ele>
        <time>2019-05-19T09:04:25Z</time>
      </trkpt>
      <trkpt lat="53.18323" lon="7.21621">
        <ele>-7.5999999046326</ele>
        <time>2019-05-19T09:04:44Z</time>
      </trkpt>
      <trkpt lat="53.18382" lon="7.21742">
        <ele>-7.1999998092651</ele>
        <time>2019-05-19T09:05:03Z</time>
      </trkpt>
      <trkpt lat="53.18423" lon="7.21813">
        <ele>-7.1999998092651</ele>
        <time>2019-05-19T09:05:13Z</time>
      </trkpt>
      <trkpt lat="53.18389" lon="7.21892">
        <ele>-7.4000000953674</ele>
        <time>2019-05-19T09:05:22Z</time>
      </trkpt>
      <trkpt lat="53.1827" lon="7.22175">
        <ele>-7.4000000953674</ele>
        <time>2019-05-19T09:05:32Z</time>
      </trkpt>
      <trkpt lat="53.18196" lon="7.22335">
        <ele>-7.5999999046326</ele>
        <time>2019-05-19T09:05:54Z</time>
      </trkpt>
      <trkpt lat="53.18093" lon="7.22444">
        <ele>-7.5999999046326</ele>
        <time>2019-05-19T09:06:20Z</time>
      </trkpt>
      <trkpt lat="53.18045" lon="7.22555">
        <ele>-6.8000001907349</ele>
        <time>2019-05-19T09:06:44Z</time>
      </trkpt>
      <trkpt lat="53.18052" lon="7.22642">
        <ele>-6.1999998092651</ele>
        <time>2019-05-19T09:07:01Z</time>
      </trkpt>
      <trkpt lat="53.18102" lon="7.22749">
        <ele>-5.5999999046326</ele>
        <time>2019-05-19T09:07:19Z</time>
      </trkpt>
      <trkpt lat="53.18145" lon="7.22892">
        <ele>-6.5999999046326</ele>
        <time>2019-05-19T09:07:43Z</time>
      </trkpt>
      <trkpt lat="53.18203" lon="7.23336">
        <ele>-6.5999999046326</ele>
        <time>2019-05-19T09:08:08Z</time>
      </trkpt>
      <trkpt lat="53.18216" lon="7.23475">
        <ele>-5.1999998092651</ele>
        <time>2019-05-19T09:08:22Z</time>
      </trkpt>
      <trkpt lat="53.18246" lon="7.23602">
        <ele>-4.4000000953674</ele>
        <time>2019-05-19T09:08:39Z</time>
      </trkpt>
      <trkpt lat="53.18271" lon="7.23707">
        <ele>-4.4000000953674</ele>
        <time>2019-05-19T09:09:01Z</time>
      </trkpt>
      <trkpt lat="53.18356" lon="7.24066">
        <ele>-4.8000001907349</ele>
        <time>2019-05-19T09:09:24Z</time>
      </trkpt>
      <trkpt lat="53.18394" lon="7.24235">
        <ele>-5.1999998092651</ele>
        <time>2019-05-19T09:09:40Z</time>
      </trkpt>
      <trkpt lat="53.18468" lon="7.24545">
        <ele>-5.1999998092651</ele>
        <time>2019-05-19T09:09:59Z</time>
      </trkpt>
      <trkpt lat="53.18505" lon="7.24701">
        <ele>-5.4000000953674</ele>
        <time>2019-05-19T09:10:19Z</time>
      </trkpt>
      <trkpt lat="53.18524" lon="7.24797">
        <ele>-5.4000000953674</ele>
        <time>2019-05-19T09:10:43Z</time>
      </trkpt>
      <trkpt lat="53.18549" lon="7.24968">
        <ele>-5.5999999046326</ele>
        <time>2019-05-19T09:11:06Z</time>
      </trkpt>
      <trkpt lat="53.18552" lon="7.25126">
        <ele>-6.4000000953674</ele>
        <time>2019-05-19T09:11:24Z</time>
      </trkpt>
      <trkpt lat="53.18513" lon="7.25328">
        <ele>-6.8000001907349</ele>
        <time>2019-05-19T09:11:37Z</time>
      </trkpt>
      <trkpt lat="53.18436" lon="7.25487">
        <ele>-7.1999998092651</ele>
        <time>2019-05-19T09:11:57Z</time>
      </trkpt>
      <trkpt lat="53.18388" lon="7.25532">
        <ele>-7.1999998092651</ele>
        <time>2019-05-19T09:12:12Z</time>
      </trkpt>
      <trkpt lat="53.18283" lon="7.25654">
        <ele>-8.1999998092651</ele>
        <time>2019-05-19T09:12:31Z</time>
      </trkpt>
      <trkpt lat="53.18207" lon="7.25751">
        <ele>-8.6000003814697</ele>
        <time>2019-05-19T09:12:51Z</time>
      </trkpt>
      <trkpt lat="53.18203" lon="7.25777">
        <ele>-8.1999998092651</ele>
        <time>2019-05-19T09:13:12Z</time>
      </trkpt>
      <trkpt lat="53.18183" lon="7.25848">
        <ele>-8</ele>
        <time>2019-05-19T09:13:38Z</time>
      </trkpt>
      <trkpt lat="53.18175" lon="7.25914">
        <ele>-6.5999999046326</ele>
        <time>2019-05-19T09:13:53Z</time>
      </trkpt>
      <trkpt lat="53.18193" lon="7.26029">
        <ele>-5.5999999046326</ele>
        <time>2019-05-19T09:14:16Z</time>
      </trkpt>
      <trkpt lat="53.18232" lon="7.26176">
        <ele>-4.8000001907349</ele>
        <time>2019-05-19T09:14:41Z</time>
      </trkpt>
      <trkpt lat="53.18248" lon="7.26232">
        <ele>-4.1999998092651</ele>
        <time>2019-05-19T09:15:03Z</time>
      </trkpt>
      <trkpt lat="53.18266" lon="7.2631">
        <ele>-3.7999999523163</ele>
        <time>2019-05-19T09:15:23Z</time>
      </trkpt>
      <trkpt lat="53.18288" lon="7.26397">
        <ele>-3</ele>
        <time>2019-05-19T09:15:45Z</time>
      </trkpt>
      <trkpt lat="53.18297" lon="7.26423">
        <ele>-2.2000000476837</ele>
        <time>2019-05-19T09:16:08Z</time>
      </trkpt>
      <trkpt lat="53.18323" lon="7.26419">
        <ele>-2.4000000953674</ele>
        <time>2019-05-19T09:16:19Z</time>
      </trkpt>
      <trkpt lat="53.18369" lon="7.26365">
        <ele>-2.7999999523163</ele>
        <time>2019-05-19T09:16:45Z</time>
      </trkpt>
      <trkpt lat="53.18362" lon="7.26358">
        <ele>-2.5999999046326</ele>
        <time>2019-05-19T09:17:14Z</time>
      </trkpt>
      <trkpt lat="53.18356" lon="7.26359">
        <ele>-2.7999999523163</ele>
        <time>2019-05-19T09:17:30Z</time>
      </trkpt>
      <trkpt lat="53.18335" lon="7.26379">
        <ele>-2.4000000953674</ele>
        <time>2019-05-19T09:17:55Z</time>
      </trkpt>
      <trkpt lat="53.18304" lon="7.26443">
        <ele>-2</ele>
        <time>2019-05-19T09:18:10Z</time>
      </trkpt>
      <trkpt lat="53.18313" lon="7.26485">
        <ele>-1.3999999761581</ele>
        <time>2019-05-19T09:18:21Z</time>
      </trkpt>
      <trkpt lat="53.1833" lon="7.26549">
        <ele>-1</ele>
        <time>2019-05-19T09:18:58Z</time>
      </trkpt>
      <trkpt lat="53.18354" lon="7.26652">
        <ele>-0.80000001192093</ele>
        <time>2019-05-19T09:19:16Z</time>
      </trkpt>
      <trkpt lat="53.18414" lon="7.26767">
        <ele>0.60000002384186</ele>
        <time>2019-05-19T09:25:32Z</time>
      </trkpt>
      <trkpt lat="53.18441" lon="7.26802">
        <ele>1.3999999761581</ele>
        <time>2019-05-19T09:25:50Z</time>
      </trkpt>
      <trkpt lat="53.18467" lon="7.26792">
        <ele>2</ele>
        <time>2019-05-19T09:25:57Z</time>
      </trkpt>
      <trkpt lat="53.18507" lon="7.26807">
        <ele>1.6000000238419</ele>
        <time>2019-05-19T09:26:13Z</time>
      </trkpt>
      <trkpt lat="53.18531" lon="7.26884">
        <ele>1.7999999523163</ele>
        <time>2019-05-19T09:26:27Z</time>
      </trkpt>
      <trkpt lat="53.18572" lon="7.2693">
        <ele>1.6000000238419</ele>
        <time>2019-05-19T09:45:29Z</time>
      </trkpt>
      <trkpt lat="53.18607" lon="7.26954">
        <ele>0.80000001192093</ele>
        <time>2019-05-19T09:46:44Z</time>
      </trkpt>
      <trkpt lat="53.18656" lon="7.26975">
        <ele>1</ele>
        <time>2019-05-19T09:47:03Z</time>
      </trkpt>
      <trkpt lat="53.18753" lon="7.27027">
        <ele>0.80000001192093</ele>
        <time>2019-05-19T09:47:14Z</time>
      </trkpt>
      <trkpt lat="53.18816" lon="7.27069">
        <ele>1</ele>
        <time>2019-05-19T09:47:29Z</time>
      </trkpt>
      <trkpt lat="53.18893" lon="7.27135">
        <ele>0.80000001192093</ele>
        <time>2019-05-19T09:47:45Z</time>
      </trkpt>
      <trkpt lat="53.18972" lon="7.27219">
        <ele>0.80000001192093</ele>
        <time>2019-05-19T09:48:04Z</time>
      </trkpt>
      <trkpt lat="53.19057" lon="7.27307">
        <ele>0.20000000298023</ele>
        <time>2019-05-19T09:48:15Z</time>
      </trkpt>
      <trkpt lat="53.19134" lon="7.27335">
        <ele>1</ele>
        <time>2019-05-19T09:48:25Z</time>
      </trkpt>
      <trkpt lat="53.1921" lon="7.27383">
        <ele>-1</ele>
        <time>2019-05-19T09:48:32Z</time>
      </trkpt>
      <trkpt lat="53.19296" lon="7.2746">
        <ele>-1</ele>
        <time>2019-05-19T09:48:41Z</time>
      </trkpt>
      <trkpt lat="53.19376" lon="7.27578">
        <ele>-0.80000001192093</ele>
        <time>2019-05-19T09:49:03Z</time>
      </trkpt>
      <trkpt lat="53.19429" lon="7.27657">
        <ele>-1.2000000476837</ele>
        <time>2019-05-19T09:49:19Z</time>
      </trkpt>
      <trkpt lat="53.19524" lon="7.27785">
        <ele>-1.3999999761581</ele>
        <time>2019-05-19T09:49:53Z</time>
      </trkpt>
      <trkpt lat="53.19597" lon="7.27876">
        <ele>-1.3999999761581</ele>
        <time>2019-05-19T09:50:06Z</time>
      </trkpt>
      <trkpt lat="53.19667" lon="7.27961">
        <ele>-1.6000000238419</ele>
        <time>2019-05-19T09:50:19Z</time>
      </trkpt>
      <trkpt lat="53.19773" lon="7.2809">
        <ele>-2.4000000953674</ele>
        <time>2019-05-19T09:50:45Z</time>
      </trkpt>
      <trkpt lat="53.19835" lon="7.28149">
        <ele>-2.5999999046326</ele>
        <time>2019-05-19T09:51:07Z</time>
      </trkpt>
      <trkpt lat="53.19898" lon="7.28211">
        <ele>-3.2000000476837</ele>
        <time>2019-05-19T09:51:29Z</time>
      </trkpt>
      <trkpt lat="53.19971" lon="7.28279">
        <ele>-3.4000000953674</ele>
        <time>2019-05-19T09:51:46Z</time>
      </trkpt>
      <trkpt lat="53.20009" lon="7.2831">
        <ele>-3.7999999523163</ele>
        <time>2019-05-19T09:52:08Z</time>
      </trkpt>
      <trkpt lat="53.20096" lon="7.28398">
        <ele>-4</ele>
        <time>2019-05-19T09:52:36Z</time>
      </trkpt>
      <trkpt lat="53.20164" lon="7.28519">
        <ele>-4.1999998092651</ele>
        <time>2019-05-19T09:53:04Z</time>
      </trkpt>
      <trkpt lat="53.20197" lon="7.28597">
        <ele>-4.4000000953674</ele>
        <time>2019-05-19T09:53:27Z</time>
      </trkpt>
      <trkpt lat="53.20246" lon="7.28672">
        <ele>-4.1999998092651</ele>
        <time>2019-05-19T09:53:44Z</time>
      </trkpt>
      <trkpt lat="53.20353" lon="7.28812">
        <ele>-5</ele>
        <time>2019-05-19T09:54:06Z</time>
      </trkpt>
      <trkpt lat="53.20411" lon="7.28889">
        <ele>-4.1999998092651</ele>
        <time>2019-05-19T09:54:26Z</time>
      </trkpt>
      <trkpt lat="53.20454" lon="7.28948">
        <ele>-4.4000000953674</ele>
        <time>2019-05-19T09:54:47Z</time>
      </trkpt>
      <trkpt lat="53.20709" lon="7.29246">
        <ele>-5.1999998092651</ele>
        <time>2019-05-19T09:55:14Z</time>
      </trkpt>
      <trkpt lat="53.2076" lon="7.29299">
        <ele>-4.8000001907349</ele>
        <time>2019-05-19T09:55:41Z</time>
      </trkpt>
      <trkpt lat="53.20842" lon="7.29377">
        <ele>-4.8000001907349</ele>
        <time>2019-05-19T09:56:13Z</time>
      </trkpt>
      <trkpt lat="53.20921" lon="7.29466">
        <ele>-5.1999998092651</ele>
        <time>2019-05-19T09:56:33Z</time>
      </trkpt>
      <trkpt lat="53.21011" lon="7.29564">
        <ele>-5.4000000953674</ele>
        <time>2019-05-19T09:57:04Z</time>
      </trkpt>
      <trkpt lat="53.2108" lon="7.29639">
        <ele>-5</ele>
        <time>2019-05-19T09:57:28Z</time>
      </trkpt>
      <trkpt lat="53.21141" lon="7.29697">
        <ele>-4.8000001907349</ele>
        <time>2019-05-19T09:57:49Z</time>
      </trkpt>
      <trkpt lat="53.21246" lon="7.29763">
        <ele>-4.8000001907349</ele>
        <time>2019-05-19T09:58:09Z</time>
      </trkpt>
      <trkpt lat="53.21338" lon="7.2981">
        <ele>-4.5999999046326</ele>
        <time>2019-05-19T09:58:31Z</time>
      </trkpt>
      <trkpt lat="53.21395" lon="7.29845">
        <ele>-4.4000000953674</ele>
        <time>2019-05-19T09:58:51Z</time>
      </trkpt>
      <trkpt lat="53.21555" lon="7.29919">
        <ele>-5.1999998092651</ele>
        <time>2019-05-19T09:59:03Z</time>
      </trkpt>
      <trkpt lat="53.216" lon="7.29942">
        <ele>-5.1999998092651</ele>
        <time>2019-05-19T09:59:14Z</time>
      </trkpt>
      <trkpt lat="53.21668" lon="7.29975">
        <ele>-5.4000000953674</ele>
        <time>2019-05-19T09:59:30Z</time>
      </trkpt>
      <trkpt lat="53.21755" lon="7.30019">
        <ele>-5</ele>
        <time>2019-05-19T09:59:44Z</time>
      </trkpt>
      <trkpt lat="53.21832" lon="7.30055">
        <ele>-5</ele>
        <time>2019-05-19T10:00:09Z</time>
      </trkpt>
      <trkpt lat="53.21863" lon="7.30088">
        <ele>-4.5999999046326</ele>
        <time>2019-05-19T10:00:32Z</time>
      </trkpt>
      <trkpt lat="53.21859" lon="7.30169">
        <ele>-4.4000000953674</ele>
        <time>2019-05-19T10:00:55Z</time>
      </trkpt>
      <trkpt lat="53.2185" lon="7.30311">
        <ele>-3.7999999523163</ele>
        <time>2019-05-19T10:01:21Z</time>
      </trkpt>
      <trkpt lat="53.21878" lon="7.30345">
        <ele>-3.5999999046326</ele>
        <time>2019-05-19T10:01:39Z</time>
      </trkpt>
      <trkpt lat="53.21949" lon="7.30376">
        <ele>-3.4000000953674</ele>
        <time>2019-05-19T10:01:53Z</time>
      </trkpt>
      <trkpt lat="53.22021" lon="7.30426">
        <ele>-3.5999999046326</ele>
        <time>2019-05-19T10:02:13Z</time>
      </trkpt>
      <trkpt lat="53.22057" lon="7.30521">
        <ele>-3.5999999046326</ele>
        <time>2019-05-19T10:02:32Z</time>
      </trkpt>
      <trkpt lat="53.22099" lon="7.30646">
        <ele>-3.7999999523163</ele>
        <time>2019-05-19T10:02:56Z</time>
      </trkpt>
      <trkpt lat="53.22104" lon="7.30869">
        <ele>-5.4000000953674</ele>
        <time>2019-05-19T10:03:16Z</time>
      </trkpt>
      <trkpt lat="53.22105" lon="7.31059">
        <ele>-5.5999999046326</ele>
        <time>2019-05-19T10:03:44Z</time>
      </trkpt>
      <trkpt lat="53.22101" lon="7.31264">
        <ele>-5.1999998092651</ele>
        <time>2019-05-19T10:04:09Z</time>
      </trkpt>
      <trkpt lat="53.2213" lon="7.31379">
        <ele>-5.1999998092651</ele>
        <time>2019-05-19T10:04:32Z</time>
      </trkpt>
      <trkpt lat="53.22173" lon="7.31548">
        <ele>-6</ele>
        <time>2019-05-19T10:04:58Z</time>
      </trkpt>
      <trkpt lat="53.2221" lon="7.31706">
        <ele>-5.1999998092651</ele>
        <time>2019-05-19T10:05:22Z</time>
      </trkpt>
      <trkpt lat="53.22249" lon="7.31876">
        <ele>-5.5999999046326</ele>
        <time>2019-05-19T10:05:38Z</time>
      </trkpt>
      <trkpt lat="53.22343" lon="7.32282">
        <ele>-5.5999999046326</ele>
        <time>2019-05-19T10:05:59Z</time>
      </trkpt>
      <trkpt lat="53.22377" lon="7.32453">
        <ele>-5.4000000953674</ele>
        <time>2019-05-19T10:06:17Z</time>
      </trkpt>
      <trkpt lat="53.22408" lon="7.3261">
        <ele>-5.4000000953674</ele>
        <time>2019-05-19T10:06:33Z</time>
      </trkpt>
      <trkpt lat="53.22443" lon="7.32774">
        <ele>-5.5999999046326</ele>
        <time>2019-05-19T10:06:55Z</time>
      </trkpt>
      <trkpt lat="53.22481" lon="7.32955">
        <ele>-5.5999999046326</ele>
        <time>2019-05-19T10:07:18Z</time>
      </trkpt>
      <trkpt lat="53.22507" lon="7.33077">
        <ele>-5.8000001907349</ele>
        <time>2019-05-19T10:07:38Z</time>
      </trkpt>
      <trkpt lat="53.22585" lon="7.33464">
        <ele>-6.1999998092651</ele>
        <time>2019-05-19T10:07:54Z</time>
      </trkpt>
      <trkpt lat="53.22614" lon="7.33614">
        <ele>-6.4000000953674</ele>
        <time>2019-05-19T10:08:04Z</time>
      </trkpt>
      <trkpt lat="53.22709" lon="7.34067">
        <ele>-6.4000000953674</ele>
        <time>2019-05-19T10:08:14Z</time>
      </trkpt>
      <trkpt lat="53.22743" lon="7.34254">
        <ele>-6.5999999046326</ele>
        <time>2019-05-19T10:08:29Z</time>
      </trkpt>
      <trkpt lat="53.22802" lon="7.34593">
        <ele>-6.5999999046326</ele>
        <time>2019-05-19T10:08:33Z</time>
      </trkpt>
      <trkpt lat="53.22833" lon="7.34767">
        <ele>-6.8000001907349</ele>
        <time>2019-05-19T10:08:40Z</time>
      </trkpt>
      <trkpt lat="53.22854" lon="7.34883">
        <ele>-7</ele>
        <time>2019-05-19T10:08:55Z</time>
      </trkpt>
      <trkpt lat="53.22886" lon="7.35059">
        <ele>-6.8000001907349</ele>
        <time>2019-05-19T10:09:20Z</time>
      </trkpt>
      <trkpt lat="53.22925" lon="7.35276">
        <ele>-7.1999998092651</ele>
        <time>2019-05-19T10:09:45Z</time>
      </trkpt>
      <trkpt lat="53.22947" lon="7.35401">
        <ele>-8</ele>
        <time>2019-05-19T10:10:04Z</time>
      </trkpt>
      <trkpt lat="53.22984" lon="7.35602">
        <ele>-8</ele>
        <time>2019-05-19T10:47:28Z</time>
      </trkpt>
      <trkpt lat="53.23015" lon="7.35778">
        <ele>-7.1999998092651</ele>
        <time>2019-05-19T10:47:45Z</time>
      </trkpt>
      <trkpt lat="53.23048" lon="7.35955">
        <ele>-7.1999998092651</ele>
        <time>2019-05-19T10:48:05Z</time>
      </trkpt>
      <trkpt lat="53.23082" lon="7.36137">
        <ele>-6.1999998092651</ele>
        <time>2019-05-19T10:48:26Z</time>
      </trkpt>
      <trkpt lat="53.23125" lon="7.36216">
        <ele>-6.1999998092651</ele>
        <time>2019-05-19T10:48:46Z</time>
      </trkpt>
      <trkpt lat="53.23172" lon="7.36327">
        <ele>-6</ele>
        <time>2019-05-19T10:49:04Z</time>
      </trkpt>
      <trkpt lat="53.23186" lon="7.36462">
        <ele>-4.1999998092651</ele>
        <time>2019-05-19T10:49:21Z</time>
      </trkpt>
      <trkpt lat="53.23193" lon="7.36522">
        <ele>-3.7999999523163</ele>
        <time>2019-05-19T10:49:41Z</time>
      </trkpt>
      <trkpt lat="53.23208" lon="7.36643">
        <ele>-3.5999999046326</ele>
        <time>2019-05-19T10:50:02Z</time>
      </trkpt>
      <trkpt lat="53.23211" lon="7.3665">
        <ele>-3.4000000953674</ele>
        <time>2019-05-19T10:50:14Z</time>
      </trkpt>
      <trkpt lat="53.23249" lon="7.36784">
        <ele>-3.7999999523163</ele>
        <time>2019-05-19T10:50:28Z</time>
      </trkpt>
      <trkpt lat="53.23259" lon="7.36822">
        <ele>-3.4000000953674</ele>
        <time>2019-05-19T10:50:47Z</time>
      </trkpt>
      <trkpt lat="53.23276" lon="7.36858">
        <ele>-3.5999999046326</ele>
        <time>2019-05-19T10:51:08Z</time>
      </trkpt>
      <trkpt lat="53.23319" lon="7.36993">
        <ele>-4.5999999046326</ele>
        <time>2019-05-19T10:51:27Z</time>
      </trkpt>
      <trkpt lat="53.23325" lon="7.37033">
        <ele>-5.4000000953674</ele>
        <time>2019-05-19T10:51:45Z</time>
      </trkpt>
      <trkpt lat="53.23337" lon="7.37137">
        <ele>-6.1999998092651</ele>
        <time>2019-05-19T10:52:11Z</time>
      </trkpt>
      <trkpt lat="53.23354" lon="7.37285">
        <ele>-6.5999999046326</ele>
        <time>2019-05-19T10:52:37Z</time>
      </trkpt>
      <trkpt lat="53.23378" lon="7.37481">
        <ele>-6.8000001907349</ele>
        <time>2019-05-19T10:53:04Z</time>
      </trkpt>
      <trkpt lat="53.23408" lon="7.37733">
        <ele>-6.8000001907349</ele>
        <time>2019-05-19T10:53:18Z</time>
      </trkpt>
      <trkpt lat="53.23436" lon="7.37963">
        <ele>-7</ele>
        <time>2019-05-19T10:53:37Z</time>
      </trkpt>
      <trkpt lat="53.23459" lon="7.38152">
        <ele>-7.1999998092651</ele>
        <time>2019-05-19T10:53:59Z</time>
      </trkpt>
      <trkpt lat="53.2348" lon="7.38323">
        <ele>-7</ele>
        <time>2019-05-19T10:54:22Z</time>
      </trkpt>
      <trkpt lat="53.23519" lon="7.3854">
        <ele>-7</ele>
        <time>2019-05-19T10:54:37Z</time>
      </trkpt>
      <trkpt lat="53.2355" lon="7.38699">
        <ele>-6.5999999046326</ele>
        <time>2019-05-19T10:54:59Z</time>
      </trkpt>
      <trkpt lat="53.23562" lon="7.3876">
        <ele>-6.8000001907349</ele>
        <time>2019-05-19T10:55:14Z</time>
      </trkpt>
      <trkpt lat="53.23585" lon="7.38874">
        <ele>-7</ele>
        <time>2019-05-19T10:55:35Z</time>
      </trkpt>
      <trkpt lat="53.23619" lon="7.39049">
        <ele>-6</ele>
        <time>2019-05-19T10:56:01Z</time>
      </trkpt>
      <trkpt lat="53.23649" lon="7.3921">
        <ele>-5.5999999046326</ele>
        <time>2019-05-19T10:56:23Z</time>
      </trkpt>
      <trkpt lat="53.23665" lon="7.39299">
        <ele>-5.5999999046326</ele>
        <time>2019-05-19T10:56:41Z</time>
      </trkpt>
      <trkpt lat="53.23665" lon="7.39313">
        <ele>-5.4000000953674</ele>
        <time>2019-05-19T10:57:01Z</time>
      </trkpt>
      <trkpt lat="53.23666" lon="7.39331">
        <ele>-5.4000000953674</ele>
        <time>2019-05-19T10:57:24Z</time>
      </trkpt>
      <trkpt lat="53.23682" lon="7.39378">
        <ele>-5.1999998092651</ele>
        <time>2019-05-19T10:57:47Z</time>
      </trkpt>
      <trkpt lat="53.23683" lon="7.39389">
        <ele>-5.4000000953674</ele>
        <time>2019-05-19T10:58:17Z</time>
      </trkpt>
      <trkpt lat="53.2368" lon="7.39403">
        <ele>-4.8000001907349</ele>
        <time>2019-05-19T10:58:32Z</time>
      </trkpt>
      <trkpt lat="53.23626" lon="7.39429">
        <ele>-4.8000001907349</ele>
        <time>2019-05-19T10:59:00Z</time>
      </trkpt>
      <trkpt lat="53.23547" lon="7.39483">
        <ele>-4.5999999046326</ele>
        <time>2019-05-19T10:59:15Z</time>
      </trkpt>
      <trkpt lat="53.23441" lon="7.39569">
        <ele>-5.5999999046326</ele>
        <time>2019-05-19T10:59:40Z</time>
      </trkpt>
      <trkpt lat="53.23373" lon="7.39621">
        <ele>-5.8000001907349</ele>
        <time>2019-05-19T11:00:02Z</time>
      </trkpt>
      <trkpt lat="53.23324" lon="7.39667">
        <ele>-5.8000001907349</ele>
        <time>2019-05-19T11:00:25Z</time>
      </trkpt>
      <trkpt lat="53.23295" lon="7.39703">
        <ele>-4.8000001907349</ele>
        <time>2019-05-19T11:00:46Z</time>
      </trkpt>
      <trkpt lat="53.23265" lon="7.39693">
        <ele>-4.5999999046326</ele>
        <time>2019-05-19T11:01:08Z</time>
      </trkpt>
      <trkpt lat="53.23254" lon="7.39654">
        <ele>-5.4000000953674</ele>
        <time>2019-05-19T11:01:21Z</time>
      </trkpt>
      <trkpt lat="53.2324" lon="7.39653">
        <ele>-6</ele>
        <time>2019-05-19T11:01:46Z</time>
      </trkpt>
      <trkpt lat="53.23191" lon="7.39715">
        <ele>-6.1999998092651</ele>
        <time>2019-05-19T11:02:08Z</time>
      </trkpt>
      <trkpt lat="53.23165" lon="7.39754">
        <ele>-6.1999998092651</ele>
        <time>2019-05-19T11:02:24Z</time>
      </trkpt>
      <trkpt lat="53.23083" lon="7.39853">
        <ele>-6.4000000953674</ele>
        <time>2019-05-19T11:02:46Z</time>
      </trkpt>
      <trkpt lat="53.23006" lon="7.3996">
        <ele>-5.4000000953674</ele>
        <time>2019-05-19T11:02:55Z</time>
      </trkpt>
      <trkpt lat="53.22914" lon="7.40129">
        <ele>-6.4000000953674</ele>
        <time>2019-05-19T11:03:07Z</time>
      </trkpt>
      <trkpt lat="53.22864" lon="7.40233">
        <ele>-6.8000001907349</ele>
        <time>2019-05-19T11:03:25Z</time>
      </trkpt>
      <trkpt lat="53.22798" lon="7.40401">
        <ele>-6.8000001907349</ele>
        <time>2019-05-19T11:03:48Z</time>
      </trkpt>
      <trkpt lat="53.22758" lon="7.40589">
        <ele>-7.4000000953674</ele>
        <time>2019-05-19T11:04:10Z</time>
      </trkpt>
      <trkpt lat="53.22728" lon="7.40738">
        <ele>-7.1999998092651</ele>
        <time>2019-05-19T11:04:36Z</time>
      </trkpt>
      <trkpt lat="53.22701" lon="7.40847">
        <ele>-7.1999998092651</ele>
        <time>2019-05-19T11:04:56Z</time>
      </trkpt>
      <trkpt lat="53.22656" lon="7.40962">
        <ele>-7</ele>
        <time>2019-05-19T11:05:22Z</time>
      </trkpt>
      <trkpt lat="53.2261" lon="7.41074">
        <ele>-6.4000000953674</ele>
        <time>2019-05-19T11:05:47Z</time>
      </trkpt>
      <trkpt lat="53.22573" lon="7.41132">
        <ele>-6.4000000953674</ele>
        <time>2019-05-19T11:06:10Z</time>
      </trkpt>
      <trkpt lat="53.22556" lon="7.4114">
        <ele>-6.1999998092651</ele>
        <time>2019-05-19T11:06:27Z</time>
      </trkpt>
      <trkpt lat="53.22534" lon="7.41157">
        <ele>-6.1999998092651</ele>
        <time>2019-05-19T11:06:41Z</time>
      </trkpt>
      <trkpt lat="53.22496" lon="7.41215">
        <ele>-5.8000001907349</ele>
        <time>2019-05-19T11:06:56Z</time>
      </trkpt>
      <trkpt lat="53.22443" lon="7.41265">
        <ele>-5</ele>
        <time>2019-05-19T11:07:12Z</time>
      </trkpt>
      <trkpt lat="53.22403" lon="7.4132">
        <ele>-5</ele>
        <time>2019-05-19T11:07:27Z</time>
      </trkpt>
      <trkpt lat="53.22346" lon="7.41391">
        <ele>-5.1999998092651</ele>
        <time>2019-05-19T11:07:50Z</time>
      </trkpt>
      <trkpt lat="53.22296" lon="7.41427">
        <ele>-5.1999998092651</ele>
        <time>2019-05-19T11:08:07Z</time>
      </trkpt>
      <trkpt lat="53.22228" lon="7.41461">
        <ele>-5</ele>
        <time>2019-05-19T11:08:15Z</time>
      </trkpt>
      <trkpt lat="53.22182" lon="7.41501">
        <ele>-6.1999998092651</ele>
        <time>2019-05-19T11:08:21Z</time>
      </trkpt>
      <trkpt lat="53.22103" lon="7.4157">
        <ele>-6.8000001907349</ele>
        <time>2019-05-19T11:08:47Z</time>
      </trkpt>
      <trkpt lat="53.22029" lon="7.41634">
        <ele>-6.4000000953674</ele>
        <time>2019-05-19T11:09:12Z</time>
      </trkpt>
      <trkpt lat="53.21915" lon="7.41741">
        <ele>-6.4000000953674</ele>
        <time>2019-05-19T11:09:56Z</time>
      </trkpt>
      <trkpt lat="53.21817" lon="7.41842">
        <ele>-4.4000000953674</ele>
        <time>2019-05-19T11:10:18Z</time>
      </trkpt>
      <trkpt lat="53.21772" lon="7.41872">
        <ele>-3.2000000476837</ele>
        <time>2019-05-19T11:10:31Z</time>
      </trkpt>
      <trkpt lat="53.21764" lon="7.41886">
        <ele>-2</ele>
        <time>2019-05-19T11:10:36Z</time>
      </trkpt>
      <trkpt lat="53.21776" lon="7.41915">
        <ele>-2</ele>
        <time>2019-05-19T11:10:46Z</time>
      </trkpt>
      <trkpt lat="53.2177" lon="7.41936">
        <ele>-1.7999999523163</ele>
        <time>2019-05-19T11:10:59Z</time>
      </trkpt>
      <trkpt lat="53.21767" lon="7.41933">
        <ele>-2</ele>
        <time>2019-05-19T11:11:22Z</time>
      </trkpt>
      <trkpt lat="53.21734" lon="7.41933">
        <ele>-2.2000000476837</ele>
        <time>2019-05-19T11:11:48Z</time>
      </trkpt>
      <trkpt lat="53.217" lon="7.42032">
        <ele>-2.4000000953674</ele>
        <time>2019-05-19T11:11:57Z</time>
      </trkpt>
      <trkpt lat="53.217" lon="7.42041">
        <ele>-1.2000000476837</ele>
        <time>2019-05-19T11:12:12Z</time>
      </trkpt>
      <trkpt lat="53.21709" lon="7.41976">
        <ele>-1.2000000476837</ele>
        <time>2019-05-19T11:12:35Z</time>
      </trkpt>
      <trkpt lat="53.2176" lon="7.41923">
        <ele>-2.4000000953674</ele>
        <time>2019-05-19T11:12:55Z</time>
      </trkpt>
      <trkpt lat="53.21814" lon="7.42023">
        <ele>-1</ele>
        <time>2019-05-19T11:13:09Z</time>
      </trkpt>
      <trkpt lat="53.21836" lon="7.42102">
        <ele>0.40000000596046</ele>
        <time>2019-05-19T11:13:18Z</time>
      </trkpt>
      <trkpt lat="53.2185" lon="7.42187">
        <ele>1.3999999761581</ele>
        <time>2019-05-19T11:13:24Z</time>
      </trkpt>
      <trkpt lat="53.21853" lon="7.42278">
        <ele>2</ele>
        <time>2019-05-19T11:13:36Z</time>
      </trkpt>
      <trkpt lat="53.21813" lon="7.42564">
        <ele>5</ele>
        <time>2019-05-19T11:13:52Z</time>
      </trkpt>
      <trkpt lat="53.21792" lon="7.42688">
        <ele>5.1999998092651</ele>
        <time>2019-05-19T11:14:09Z</time>
      </trkpt>
      <trkpt lat="53.21774" lon="7.42796">
        <ele>4.8000001907349</ele>
        <time>2019-05-19T11:14:50Z</time>
      </trkpt>
      <trkpt lat="53.21741" lon="7.42941">
        <ele>3.5999999046326</ele>
        <time>2019-05-19T11:15:05Z</time>
      </trkpt>
      <trkpt lat="53.21706" lon="7.43055">
        <ele>2.2000000476837</ele>
        <time>2019-05-19T11:15:19Z</time>
      </trkpt>
      <trkpt lat="53.21683" lon="7.43183">
        <ele>1</ele>
        <time>2019-05-19T11:15:41Z</time>
      </trkpt>
      <trkpt lat="53.21694" lon="7.43273">
        <ele>-0.40000000596046</ele>
        <time>2019-05-19T11:15:57Z</time>
      </trkpt>
      <trkpt lat="53.21706" lon="7.43347">
        <ele>-1.6000000238419</ele>
        <time>2019-05-19T11:16:19Z</time>
      </trkpt>
      <trkpt lat="53.21675" lon="7.43398">
        <ele>-2.2000000476837</ele>
        <time>2019-05-19T11:16:40Z</time>
      </trkpt>
      <trkpt lat="53.21624" lon="7.43524">
        <ele>-2.7999999523163</ele>
        <time>2019-05-19T11:17:41Z</time>
      </trkpt>
      <trkpt lat="53.21603" lon="7.43585">
        <ele>-3.7999999523163</ele>
        <time>2019-05-19T11:17:59Z</time>
      </trkpt>
      <trkpt lat="53.21572" lon="7.43777">
        <ele>-5</ele>
        <time>2019-05-19T11:18:28Z</time>
      </trkpt>
      <trkpt lat="53.21551" lon="7.43868">
        <ele>-4.8000001907349</ele>
        <time>2019-05-19T11:18:54Z</time>
      </trkpt>
      <trkpt lat="53.21571" lon="7.43909">
        <ele>-5.1999998092651</ele>
        <time>2019-05-19T11:19:16Z</time>
      </trkpt>
      <trkpt lat="53.21601" lon="7.43951">
        <ele>-5</ele>
        <time>2019-05-19T11:19:38Z</time>
      </trkpt>
      <trkpt lat="53.21645" lon="7.4417">
        <ele>-4.5999999046326</ele>
        <time>2019-05-19T11:20:00Z</time>
      </trkpt>
      <trkpt lat="53.21677" lon="7.44257">
        <ele>-4.8000001907349</ele>
        <time>2019-05-19T11:20:15Z</time>
      </trkpt>
      <trkpt lat="53.21789" lon="7.44442">
        <ele>-4.8000001907349</ele>
        <time>2019-05-19T11:20:30Z</time>
      </trkpt>
      <trkpt lat="53.21832" lon="7.44475">
        <ele>-4.4000000953674</ele>
        <time>2019-05-19T11:20:46Z</time>
      </trkpt>
      <trkpt lat="53.21871" lon="7.44505">
        <ele>-3.5999999046326</ele>
        <time>2019-05-19T11:20:57Z</time>
      </trkpt>
      <trkpt lat="53.21927" lon="7.44548">
        <ele>-3.4000000953674</ele>
        <time>2019-05-19T11:21:17Z</time>
      </trkpt>
      <trkpt lat="53.21993" lon="7.4459">
        <ele>-3.5999999046326</ele>
        <time>2019-05-19T11:21:40Z</time>
      </trkpt>
      <trkpt lat="53.22056" lon="7.44624">
        <ele>-4.1999998092651</ele>
        <time>2019-05-19T11:22:07Z</time>
      </trkpt>
      <trkpt lat="53.22172" lon="7.44669">
        <ele>-4.5999999046326</ele>
        <time>2019-05-19T11:22:35Z</time>
      </trkpt>
      <trkpt lat="53.22242" lon="7.4468">
        <ele>-4.4000000953674</ele>
        <time>2019-05-19T11:23:02Z</time>
      </trkpt>
      <trkpt lat="53.22311" lon="7.44718">
        <ele>-4.4000000953674</ele>
        <time>2019-05-19T11:23:30Z</time>
      </trkpt>
      <trkpt lat="53.22363" lon="7.44735">
        <ele>-4.5999999046326</ele>
        <time>2019-05-19T11:23:52Z</time>
      </trkpt>
      <trkpt lat="53.22408" lon="7.4478">
        <ele>-4.4000000953674</ele>
        <time>2019-05-19T11:24:17Z</time>
      </trkpt>
      <trkpt lat="53.22436" lon="7.44847">
        <ele>-3.7999999523163</ele>
        <time>2019-05-19T11:24:38Z</time>
      </trkpt>
      <trkpt lat="53.22482" lon="7.44903">
        <ele>-4.1999998092651</ele>
        <time>2019-05-19T11:25:00Z</time>
      </trkpt>
      <trkpt lat="53.22536" lon="7.44963">
        <ele>-4.4000000953674</ele>
        <time>2019-05-19T11:25:16Z</time>
      </trkpt>
      <trkpt lat="53.22537" lon="7.44964">
        <ele>-5</ele>
        <time>2019-05-19T11:25:32Z</time>
      </trkpt>
      <trkpt lat="53.2252" lon="7.44998">
        <ele>-5.4000000953674</ele>
        <time>2019-05-19T11:25:48Z</time>
      </trkpt>
      <trkpt lat="53.22524" lon="7.45011">
        <ele>-6</ele>
        <time>2019-05-19T11:26:09Z</time>
      </trkpt>
      <trkpt lat="53.22554" lon="7.45053">
        <ele>-5.8000001907349</ele>
        <time>2019-05-19T11:26:29Z</time>
      </trkpt>
      <trkpt lat="53.22605" lon="7.45099">
        <ele>-6.4000000953674</ele>
        <time>2019-05-19T11:26:51Z</time>
      </trkpt>
      <trkpt lat="53.22624" lon="7.45069">
        <ele>-5.5999999046326</ele>
        <time>2019-05-19T11:27:07Z</time>
      </trkpt>
      <trkpt lat="53.22632" lon="7.45076">
        <ele>-4.8000001907349</ele>
        <time>2019-05-19T11:27:31Z</time>
      </trkpt>
      <trkpt lat="53.22643" lon="7.45081">
        <ele>-5</ele>
        <time>2019-05-19T11:28:01Z</time>
      </trkpt>
      <trkpt lat="53.22653" lon="7.45108">
        <ele>-4.5999999046326</ele>
        <time>2019-05-19T11:28:21Z</time>
      </trkpt>
      <trkpt lat="53.22649" lon="7.4515">
        <ele>-4.8000001907349</ele>
        <time>2019-05-19T11:28:34Z</time>
      </trkpt>
      <trkpt lat="53.22602" lon="7.45271">
        <ele>-4.8000001907349</ele>
        <time>2019-05-19T11:29:02Z</time>
      </trkpt>
      <trkpt lat="53.22547" lon="7.45405">
        <ele>-6</ele>
        <time>2019-05-19T11:29:29Z</time>
      </trkpt>
      <trkpt lat="53.22574" lon="7.45479">
        <ele>-6.4000000953674</ele>
        <time>2019-05-19T11:29:53Z</time>
      </trkpt>
      <trkpt lat="53.2265" lon="7.45567">
        <ele>-6.5999999046326</ele>
        <time>2019-05-19T11:30:13Z</time>
      </trkpt>
      <trkpt lat="53.22699" lon="7.45633">
        <ele>-6.5999999046326</ele>
        <time>2019-05-19T11:30:31Z</time>
      </trkpt>
      <trkpt lat="53.2271" lon="7.45663">
        <ele>-7</ele>
        <time>2019-05-19T11:30:42Z</time>
      </trkpt>
      <trkpt lat="53.22707" lon="7.45738">
        <ele>-7</ele>
        <time>2019-05-19T11:31:05Z</time>
      </trkpt>
      <trkpt lat="53.22659" lon="7.45879">
        <ele>-6.4000000953674</ele>
        <time>2019-05-19T11:31:27Z</time>
      </trkpt>
      <trkpt lat="53.2274" lon="7.45984">
        <ele>-6.4000000953674</ele>
        <time>2019-05-19T11:31:51Z</time>
      </trkpt>
      <trkpt lat="53.22762" lon="7.46055">
        <ele>-6.1999998092651</ele>
        <time>2019-05-19T11:32:15Z</time>
      </trkpt>
      <trkpt lat="53.22755" lon="7.46129">
        <ele>-5.8000001907349</ele>
        <time>2019-05-19T11:32:29Z</time>
      </trkpt>
      <trkpt lat="53.22735" lon="7.46212">
        <ele>-5.5999999046326</ele>
        <time>2019-05-19T11:32:45Z</time>
      </trkpt>
      <trkpt lat="53.22703" lon="7.46294">
        <ele>-5.5999999046326</ele>
        <time>2019-05-19T11:34:49Z</time>
      </trkpt>
      <trkpt lat="53.22651" lon="7.4636">
        <ele>-5.8000001907349</ele>
        <time>2019-05-19T11:35:13Z</time>
      </trkpt>
      <trkpt lat="53.22639" lon="7.46396">
        <ele>-5.5999999046326</ele>
        <time>2019-05-19T11:35:37Z</time>
      </trkpt>
      <trkpt lat="53.22606" lon="7.46409">
        <ele>-5.1999998092651</ele>
        <time>2019-05-19T11:35:59Z</time>
      </trkpt>
      <trkpt lat="53.22617" lon="7.46453">
        <ele>-5</ele>
        <time>2019-05-19T11:36:22Z</time>
      </trkpt>
      <trkpt lat="53.22635" lon="7.46543">
        <ele>-6.8000001907349</ele>
        <time>2019-05-19T11:36:49Z</time>
      </trkpt>
      <trkpt lat="53.22623" lon="7.46563">
        <ele>-6.5999999046326</ele>
        <time>2019-05-19T11:37:13Z</time>
      </trkpt>
      <trkpt lat="53.2262" lon="7.46585">
        <ele>-4.1999998092651</ele>
        <time>2019-05-19T11:37:37Z</time>
      </trkpt>
      <trkpt lat="53.22641" lon="7.46583">
        <ele>-4.1999998092651</ele>
        <time>2019-05-19T11:38:01Z</time>
      </trkpt>
      <trkpt lat="53.22737" lon="7.46584">
        <ele>-3.5999999046326</ele>
        <time>2019-05-19T11:38:21Z</time>
      </trkpt>
      <trkpt lat="53.2279" lon="7.46583">
        <ele>-3.7999999523163</ele>
        <time>2019-05-19T11:38:45Z</time>
      </trkpt>
      <trkpt lat="53.22802" lon="7.46583">
        <ele>-4</ele>
        <time>2019-05-19T11:38:57Z</time>
      </trkpt>
      <trkpt lat="53.22799" lon="7.46708">
        <ele>-4</ele>
        <time>2019-05-19T11:39:17Z</time>
      </trkpt>
      <trkpt lat="53.22802" lon="7.46813">
        <ele>-4.1999998092651</ele>
        <time>2019-05-19T11:39:28Z</time>
      </trkpt>
      <trkpt lat="53.22804" lon="7.46865">
        <ele>-3.7999999523163</ele>
        <time>2019-05-19T11:39:47Z</time>
      </trkpt>
      <trkpt lat="53.22809" lon="7.46993">
        <ele>-3.4000000953674</ele>
        <time>2019-05-19T11:39:55Z</time>
      </trkpt>
      <trkpt lat="53.22812" lon="7.47081">
        <ele>-3.2000000476837</ele>
        <time>2019-05-19T11:40:14Z</time>
      </trkpt>
      <trkpt lat="53.2282" lon="7.47199">
        <ele>-3.2000000476837</ele>
        <time>2019-05-19T11:40:21Z</time>
      </trkpt>
      <trkpt lat="53.22829" lon="7.47315">
        <ele>-3</ele>
        <time>2019-05-19T11:40:44Z</time>
      </trkpt>
      <trkpt lat="53.22825" lon="7.47371">
        <ele>-2.2000000476837</ele>
        <time>2019-05-19T11:41:08Z</time>
      </trkpt>
      <trkpt lat="53.22832" lon="7.47444">
        <ele>-2.4000000953674</ele>
        <time>2019-05-19T11:41:35Z</time>
      </trkpt>
      <trkpt lat="53.22846" lon="7.47538">
        <ele>-2.7999999523163</ele>
        <time>2019-05-19T11:42:01Z</time>
      </trkpt>
      <trkpt lat="53.22875" lon="7.4775">
        <ele>-2.7999999523163</ele>
        <time>2019-05-19T11:42:25Z</time>
      </trkpt>
      <trkpt lat="53.22882" lon="7.47797">
        <ele>-2.5999999046326</ele>
        <time>2019-05-19T11:42:50Z</time>
      </trkpt>
      <trkpt lat="53.22921" lon="7.47797">
        <ele>-2.2000000476837</ele>
        <time>2019-05-19T11:43:07Z</time>
      </trkpt>
      <trkpt lat="53.22961" lon="7.47786">
        <ele>-2.4000000953674</ele>
        <time>2019-05-19T11:43:29Z</time>
      </trkpt>
      <trkpt lat="53.22984" lon="7.47808">
        <ele>-2.4000000953674</ele>
        <time>2019-05-19T11:43:56Z</time>
      </trkpt>
      <trkpt lat="53.23054" lon="7.48207">
        <ele>-2.4000000953674</ele>
        <time>2019-05-19T11:44:21Z</time>
      </trkpt>
      <trkpt lat="53.23094" lon="7.48423">
        <ele>-1.2000000476837</ele>
        <time>2019-05-19T11:44:49Z</time>
      </trkpt>
      <trkpt lat="53.23122" lon="7.48583">
        <ele>-1.2000000476837</ele>
        <time>2019-05-19T11:45:09Z</time>
      </trkpt>
      <trkpt lat="53.23145" lon="7.48704">
        <ele>-1.3999999761581</ele>
        <time>2019-05-19T11:45:18Z</time>
      </trkpt>
      <trkpt lat="53.23189" lon="7.48919">
        <ele>-1.3999999761581</ele>
        <time>2019-05-19T11:45:36Z</time>
      </trkpt>
      <trkpt lat="53.23209" lon="7.49011">
        <ele>-1.6000000238419</ele>
        <time>2019-05-19T11:45:50Z</time>
      </trkpt>
      <trkpt lat="53.23229" lon="7.49106">
        <ele>-2.2000000476837</ele>
        <time>2019-05-19T11:46:14Z</time>
      </trkpt>
      <trkpt lat="53.23225" lon="7.49212">
        <ele>-2.5999999046326</ele>
        <time>2019-05-19T11:46:42Z</time>
      </trkpt>
      <trkpt lat="53.23213" lon="7.49313">
        <ele>-2.7999999523163</ele>
        <time>2019-05-19T11:47:06Z</time>
      </trkpt>
      <trkpt lat="53.23218" lon="7.49438">
        <ele>-2.7999999523163</ele>
        <time>2019-05-19T11:47:28Z</time>
      </trkpt>
      <trkpt lat="53.2324" lon="7.49586">
        <ele>-3.2000000476837</ele>
        <time>2019-05-19T11:47:45Z</time>
      </trkpt>
      <trkpt lat="53.23281" lon="7.49641">
        <ele>-3.5999999046326</ele>
        <time>2019-05-19T11:47:57Z</time>
      </trkpt>
      <trkpt lat="53.23336" lon="7.49755">
        <ele>-4</ele>
        <time>2019-05-19T11:48:07Z</time>
      </trkpt>
      <trkpt lat="53.23371" lon="7.49737">
        <ele>-4.4000000953674</ele>
        <time>2019-05-19T11:48:54Z</time>
      </trkpt>
      <trkpt lat="53.2345" lon="7.49712">
        <ele>-3.2000000476837</ele>
        <time>2019-05-19T11:49:11Z</time>
      </trkpt>
      <trkpt lat="53.23519" lon="7.49732">
        <ele>-2.7999999523163</ele>
        <time>2019-05-19T11:49:22Z</time>
      </trkpt>
      <trkpt lat="53.23588" lon="7.4975">
        <ele>-2.5999999046326</ele>
        <time>2019-05-19T11:49:33Z</time>
      </trkpt>
      <trkpt lat="53.23659" lon="7.49714">
        <ele>-1.7999999523163</ele>
        <time>2019-05-19T11:49:56Z</time>
      </trkpt>
      <trkpt lat="53.23681" lon="7.49721">
        <ele>-1.7999999523163</ele>
        <time>2019-05-19T11:50:16Z</time>
      </trkpt>
      <trkpt lat="53.23767" lon="7.4975">
        <ele>-0.60000002384186</ele>
        <time>2019-05-19T11:50:40Z</time>
      </trkpt>
      <trkpt lat="53.23857" lon="7.49775">
        <ele>-1.6000000238419</ele>
        <time>2019-05-19T11:51:01Z</time>
      </trkpt>
      <trkpt lat="53.2392" lon="7.4983">
        <ele>-2.2000000476837</ele>
        <time>2019-05-19T11:51:25Z</time>
      </trkpt>
      <trkpt lat="53.23996" lon="7.49964">
        <ele>-3.4000000953674</ele>
        <time>2019-05-19T11:51:45Z</time>
      </trkpt>
      <trkpt lat="53.24054" lon="7.50064">
        <ele>-2.7999999523163</ele>
        <time>2019-05-19T11:52:10Z</time>
      </trkpt>
      <trkpt lat="53.24125" lon="7.50145">
        <ele>-2.5999999046326</ele>
        <time>2019-05-19T11:52:26Z</time>
      </trkpt>
      <trkpt lat="53.24192" lon="7.50375">
        <ele>-4.5999999046326</ele>
        <time>2019-05-19T11:52:50Z</time>
      </trkpt>
      <trkpt lat="53.24236" lon="7.50535">
        <ele>-5</ele>
        <time>2019-05-19T11:53:11Z</time>
      </trkpt>
      <trkpt lat="53.2428" lon="7.50705">
        <ele>-5.1999998092651</ele>
        <time>2019-05-19T11:53:35Z</time>
      </trkpt>
      <trkpt lat="53.24327" lon="7.50877">
        <ele>-5.1999998092651</ele>
        <time>2019-05-19T11:53:54Z</time>
      </trkpt>
      <trkpt lat="53.24371" lon="7.51037">
        <ele>-5.4000000953674</ele>
        <time>2019-05-19T11:54:18Z</time>
      </trkpt>
      <trkpt lat="53.24464" lon="7.51373">
        <ele>-3.7999999523163</ele>
        <time>2019-05-19T11:54:32Z</time>
      </trkpt>
      <trkpt lat="53.2451" lon="7.5145">
        <ele>-3.7999999523163</ele>
        <time>2019-05-19T11:54:54Z</time>
      </trkpt>
      <trkpt lat="53.24566" lon="7.51541">
        <ele>-3.5999999046326</ele>
        <time>2019-05-19T11:55:15Z</time>
      </trkpt>
      <trkpt lat="53.2464" lon="7.5166">
        <ele>-3.4000000953674</ele>
        <time>2019-05-19T11:55:38Z</time>
      </trkpt>
      <trkpt lat="53.24676" lon="7.51731">
        <ele>-3.4000000953674</ele>
        <time>2019-05-19T11:55:52Z</time>
      </trkpt>
      <trkpt lat="53.24712" lon="7.51797">
        <ele>-3</ele>
        <time>2019-05-19T11:56:14Z</time>
      </trkpt>
      <trkpt lat="53.2479" lon="7.51984">
        <ele>-2.2000000476837</ele>
        <time>2019-05-19T11:56:28Z</time>
      </trkpt>
      <trkpt lat="53.24813" lon="7.52011">
        <ele>-3.4000000953674</ele>
        <time>2019-05-19T11:56:47Z</time>
      </trkpt>
      <trkpt lat="53.2488" lon="7.52105">
        <ele>-3</ele>
        <time>2019-05-19T11:57:03Z</time>
      </trkpt>
      <trkpt lat="53.24939" lon="7.52165">
        <ele>-2.2000000476837</ele>
        <time>2019-05-19T11:57:28Z</time>
      </trkpt>
      <trkpt lat="53.24984" lon="7.52295">
        <ele>-2</ele>
        <time>2019-05-19T11:57:50Z</time>
      </trkpt>
      <trkpt lat="53.25011" lon="7.52431">
        <ele>-1.3999999761581</ele>
        <time>2019-05-19T12:02:23Z</time>
      </trkpt>
      <trkpt lat="53.25015" lon="7.52462">
        <ele>-1</ele>
        <time>2019-05-19T12:03:12Z</time>
      </trkpt>
      <trkpt lat="53.25025" lon="7.52442">
        <ele>-0.80000001192093</ele>
        <time>2019-05-19T12:03:25Z</time>
      </trkpt>
      <trkpt lat="53.25035" lon="7.52461">
        <ele>-1</ele>
        <time>2019-05-19T12:03:50Z</time>
      </trkpt>
      <trkpt lat="53.25083" lon="7.52536">
        <ele>-1</ele>
        <time>2019-05-19T12:04:18Z</time>
      </trkpt>
      <trkpt lat="53.25142" lon="7.52589">
        <ele>-0.40000000596046</ele>
        <time>2019-05-19T12:04:49Z</time>
      </trkpt>
      <trkpt lat="53.25182" lon="7.52639">
        <ele>-0.20000000298023</ele>
        <time>2019-05-19T12:05:16Z</time>
      </trkpt>
      <trkpt lat="53.25236" lon="7.52717">
        <ele>-0.20000000298023</ele>
        <time>2019-05-19T12:05:47Z</time>
      </trkpt>
      <trkpt lat="53.25263" lon="7.52761">
        <ele>-1</ele>
        <time>2019-05-19T12:06:11Z</time>
      </trkpt>
      <trkpt lat="53.25311" lon="7.52877">
        <ele>-1</ele>
        <time>2019-05-19T12:06:40Z</time>
      </trkpt>
      <trkpt lat="53.25525" lon="7.53259">
        <ele>-1.6000000238419</ele>
        <time>2019-05-19T12:07:04Z</time>
      </trkpt>
      <trkpt lat="53.25547" lon="7.533">
        <ele>-1.7999999523163</ele>
        <time>2019-05-19T12:07:27Z</time>
      </trkpt>
      <trkpt lat="53.25613" lon="7.53414">
        <ele>-2</ele>
        <time>2019-05-19T12:07:40Z</time>
      </trkpt>
      <trkpt lat="53.25862" lon="7.53855">
        <ele>-2</ele>
        <time>2019-05-19T12:08:03Z</time>
      </trkpt>
      <trkpt lat="53.25915" lon="7.53945">
        <ele>-1.6000000238419</ele>
        <time>2019-05-19T12:08:18Z</time>
      </trkpt>
      <trkpt lat="53.25962" lon="7.5403">
        <ele>-1.3999999761581</ele>
        <time>2019-05-19T12:08:27Z</time>
      </trkpt>
      <trkpt lat="53.26003" lon="7.54109">
        <ele>-1.7999999523163</ele>
        <time>2019-05-19T12:08:43Z</time>
      </trkpt>
      <trkpt lat="53.26084" lon="7.54205">
        <ele>-1.7999999523163</ele>
        <time>2019-05-19T12:09:08Z</time>
      </trkpt>
      <trkpt lat="53.26157" lon="7.54269">
        <ele>-1.2000000476837</ele>
        <time>2019-05-19T12:09:20Z</time>
      </trkpt>
      <trkpt lat="53.26255" lon="7.54371">
        <ele>-1</ele>
        <time>2019-05-19T12:09:30Z</time>
      </trkpt>
      <trkpt lat="53.26319" lon="7.54431">
        <ele>-1.3999999761581</ele>
        <time>2019-05-19T12:09:46Z</time>
      </trkpt>
      <trkpt lat="53.26404" lon="7.54515">
        <ele>-1.6000000238419</ele>
        <time>2019-05-19T12:10:15Z</time>
      </trkpt>
      <trkpt lat="53.26508" lon="7.54612">
        <ele>-1.6000000238419</ele>
        <time>2019-05-19T12:10:40Z</time>
      </trkpt>
      <trkpt lat="53.26575" lon="7.54674">
        <ele>-1.2000000476837</ele>
        <time>2019-05-19T12:11:03Z</time>
      </trkpt>
      <trkpt lat="53.26644" lon="7.54755">
        <ele>-1.3999999761581</ele>
        <time>2019-05-19T12:11:16Z</time>
      </trkpt>
      <trkpt lat="53.26719" lon="7.54839">
        <ele>-1.3999999761581</ele>
        <time>2019-05-19T12:11:40Z</time>
      </trkpt>
      <trkpt lat="53.26789" lon="7.5495">
        <ele>-1.7999999523163</ele>
        <time>2019-05-19T12:12:02Z</time>
      </trkpt>
      <trkpt lat="53.26845" lon="7.55072">
        <ele>-2</ele>
        <time>2019-05-19T12:12:29Z</time>
      </trkpt>
      <trkpt lat="53.26884" lon="7.5518">
        <ele>-1.7999999523163</ele>
        <time>2019-05-19T12:12:53Z</time>
      </trkpt>
      <trkpt lat="53.26929" lon="7.55295">
        <ele>-1.7999999523163</ele>
        <time>2019-05-19T12:13:17Z</time>
      </trkpt>
      <trkpt lat="53.26984" lon="7.55437">
        <ele>-2.2000000476837</ele>
        <time>2019-05-19T12:13:40Z</time>
      </trkpt>
      <trkpt lat="53.27028" lon="7.55537">
        <ele>-2</ele>
        <time>2019-05-19T12:14:04Z</time>
      </trkpt>
      <trkpt lat="53.27057" lon="7.55626">
        <ele>-2.4000000953674</ele>
        <time>2019-05-19T12:14:28Z</time>
      </trkpt>
      <trkpt lat="53.27082" lon="7.55691">
        <ele>-1.7999999523163</ele>
        <time>2019-05-19T12:14:50Z</time>
      </trkpt>
      <trkpt lat="53.27139" lon="7.55813">
        <ele>-1.6000000238419</ele>
        <time>2019-05-19T12:15:12Z</time>
      </trkpt>
      <trkpt lat="53.27189" lon="7.55901">
        <ele>-1.2000000476837</ele>
        <time>2019-05-19T12:15:38Z</time>
      </trkpt>
      <trkpt lat="53.27265" lon="7.56023">
        <ele>-1</ele>
        <time>2019-05-19T12:16:00Z</time>
      </trkpt>
      <trkpt lat="53.27324" lon="7.56104">
        <ele>-0.60000002384186</ele>
        <time>2019-05-19T12:16:27Z</time>
      </trkpt>
      <trkpt lat="53.27404" lon="7.56203">
        <ele>-1</ele>
        <time>2019-05-19T12:16:51Z</time>
      </trkpt>
      <trkpt lat="53.27479" lon="7.56294">
        <ele>-1</ele>
        <time>2019-05-19T12:17:16Z</time>
      </trkpt>
      <trkpt lat="53.27547" lon="7.56381">
        <ele>-0.80000001192093</ele>
        <time>2019-05-19T12:17:40Z</time>
      </trkpt>
      <trkpt lat="53.27626" lon="7.56491">
        <ele>-1</ele>
        <time>2019-05-19T12:18:07Z</time>
      </trkpt>
      <trkpt lat="53.27695" lon="7.56612">
        <ele>-0.80000001192093</ele>
        <time>2019-05-19T12:18:28Z</time>
      </trkpt>
      <trkpt lat="53.27751" lon="7.56749">
        <ele>-1.2000000476837</ele>
        <time>2019-05-19T12:18:49Z</time>
      </trkpt>
      <trkpt lat="53.27794" lon="7.5692">
        <ele>-1.2000000476837</ele>
        <time>2019-05-19T12:19:12Z</time>
      </trkpt>
      <trkpt lat="53.27832" lon="7.57094">
        <ele>-0.60000002384186</ele>
        <time>2019-05-19T12:19:27Z</time>
      </trkpt>
      <trkpt lat="53.27873" lon="7.57281">
        <ele>-0.40000000596046</ele>
        <time>2019-05-19T12:19:52Z</time>
      </trkpt>
      <trkpt lat="53.27897" lon="7.57389">
        <ele>-0.40000000596046</ele>
        <time>2019-05-19T12:20:13Z</time>
      </trkpt>
      <trkpt lat="53.2793" lon="7.57508">
        <ele>0.40000000596046</ele>
        <time>2019-05-19T12:20:28Z</time>
      </trkpt>
      <trkpt lat="53.27964" lon="7.57545">
        <ele>0.40000000596046</ele>
        <time>2019-05-19T12:20:52Z</time>
      </trkpt>
      <trkpt lat="53.28042" lon="7.57613">
        <ele>-0.40000000596046</ele>
        <time>2019-05-19T12:21:15Z</time>
      </trkpt>
      <trkpt lat="53.28137" lon="7.57693">
        <ele>-0.60000002384186</ele>
        <time>2019-05-19T12:21:33Z</time>
      </trkpt>
      <trkpt lat="53.28234" lon="7.57774">
        <ele>-0.60000002384186</ele>
        <time>2019-05-19T12:21:57Z</time>
      </trkpt>
      <trkpt lat="53.28282" lon="7.57815">
        <ele>-1</ele>
        <time>2019-05-19T12:22:19Z</time>
      </trkpt>
      <trkpt lat="53.28334" lon="7.57858">
        <ele>-0.60000002384186</ele>
        <time>2019-05-19T12:22:39Z</time>
      </trkpt>
      <trkpt lat="53.2843" lon="7.57937">
        <ele>-0.60000002384186</ele>
        <time>2019-05-19T12:22:58Z</time>
      </trkpt>
      <trkpt lat="53.28517" lon="7.5801">
        <ele>-0.80000001192093</ele>
        <time>2019-05-19T12:23:06Z</time>
      </trkpt>
      <trkpt lat="53.28646" lon="7.58116">
        <ele>-0.80000001192093</ele>
        <time>2019-05-19T12:23:26Z</time>
      </trkpt>
      <trkpt lat="53.28667" lon="7.58126">
        <ele>-1.2000000476837</ele>
        <time>2019-05-19T12:23:39Z</time>
      </trkpt>
      <trkpt lat="53.28735" lon="7.58185">
        <ele>-1.3999999761581</ele>
        <time>2019-05-19T12:23:54Z</time>
      </trkpt>
      <trkpt lat="53.28835" lon="7.5827">
        <ele>-1.2000000476837</ele>
        <time>2019-05-19T12:24:24Z</time>
      </trkpt>
      <trkpt lat="53.28904" lon="7.58322">
        <ele>-1.3999999761581</ele>
        <time>2019-05-19T12:24:49Z</time>
      </trkpt>
      <trkpt lat="53.28987" lon="7.58389">
        <ele>-1.2000000476837</ele>
        <time>2019-05-19T12:25:11Z</time>
      </trkpt>
      <trkpt lat="53.29035" lon="7.58429">
        <ele>-1.6000000238419</ele>
        <time>2019-05-19T12:25:24Z</time>
      </trkpt>
      <trkpt lat="53.29117" lon="7.58496">
        <ele>-1.3999999761581</ele>
        <time>2019-05-19T12:25:48Z</time>
      </trkpt>
      <trkpt lat="53.29204" lon="7.5857">
        <ele>-1.3999999761581</ele>
        <time>2019-05-19T12:26:16Z</time>
      </trkpt>
      <trkpt lat="53.29289" lon="7.58633">
        <ele>-2</ele>
        <time>2019-05-19T12:26:39Z</time>
      </trkpt>
      <trkpt lat="53.29403" lon="7.58737">
        <ele>-1.3999999761581</ele>
        <time>2019-05-19T12:27:05Z</time>
      </trkpt>
      <trkpt lat="53.29508" lon="7.58829">
        <ele>-1.3999999761581</ele>
        <time>2019-05-19T12:27:27Z</time>
      </trkpt>
      <trkpt lat="53.29574" lon="7.58888">
        <ele>-1.7999999523163</ele>
        <time>2019-05-19T12:27:58Z</time>
      </trkpt>
      <trkpt lat="53.29666" lon="7.58969">
        <ele>-1.3999999761581</ele>
        <time>2019-05-19T12:28:14Z</time>
      </trkpt>
      <trkpt lat="53.29765" lon="7.59064">
        <ele>-1.2000000476837</ele>
        <time>2019-05-19T12:28:43Z</time>
      </trkpt>
      <trkpt lat="53.29861" lon="7.59157">
        <ele>-1.3999999761581</ele>
        <time>2019-05-19T12:29:10Z</time>
      </trkpt>
      <trkpt lat="53.29909" lon="7.59205">
        <ele>-1.3999999761581</ele>
        <time>2019-05-19T12:29:36Z</time>
      </trkpt>
      <trkpt lat="53.29927" lon="7.59232">
        <ele>-1</ele>
        <time>2019-05-19T12:29:54Z</time>
      </trkpt>
      <trkpt lat="53.29951" lon="7.59241">
        <ele>-1</ele>
        <time>2019-05-19T12:30:14Z</time>
      </trkpt>
      <trkpt lat="53.30041" lon="7.59322">
        <ele>-1.6000000238419</ele>
        <time>2019-05-19T12:30:41Z</time>
      </trkpt>
      <trkpt lat="53.30126" lon="7.59399">
        <ele>-1.2000000476837</ele>
        <time>2019-05-19T12:31:00Z</time>
      </trkpt>
      <trkpt lat="53.3019" lon="7.59449">
        <ele>-0.40000000596046</ele>
        <time>2019-05-19T12:31:19Z</time>
      </trkpt>
      <trkpt lat="53.3025" lon="7.59471">
        <ele>-0.20000000298023</ele>
        <time>2019-05-19T12:31:43Z</time>
      </trkpt>
      <trkpt lat="53.30317" lon="7.59459">
        <ele>-0.40000000596046</ele>
        <time>2019-05-19T12:32:12Z</time>
      </trkpt>
      <trkpt lat="53.30408" lon="7.59422">
        <ele>-1</ele>
        <time>2019-05-19T12:32:32Z</time>
      </trkpt>
      <trkpt lat="53.30499" lon="7.59367">
        <ele>-2.7999999523163</ele>
        <time>2019-05-19T12:32:56Z</time>
      </trkpt>
      <trkpt lat="53.30536" lon="7.59403">
        <ele>-3.2000000476837</ele>
        <time>2019-05-19T12:33:15Z</time>
      </trkpt>
      <trkpt lat="53.30549" lon="7.59622">
        <ele>-2</ele>
        <time>2019-05-19T12:33:46Z</time>
      </trkpt>
      <trkpt lat="53.30554" lon="7.59854">
        <ele>-1.3999999761581</ele>
        <time>2019-05-19T12:34:12Z</time>
      </trkpt>
      <trkpt lat="53.30561" lon="7.60096">
        <ele>-0.20000000298023</ele>
        <time>2019-05-19T12:34:32Z</time>
      </trkpt>
      <trkpt lat="53.30565" lon="7.60244">
        <ele>0.80000001192093</ele>
        <time>2019-05-19T12:34:42Z</time>
      </trkpt>
      <trkpt lat="53.30595" lon="7.60264">
        <ele>1</ele>
        <time>2019-05-19T12:34:53Z</time>
      </trkpt>
      <trkpt lat="53.30621" lon="7.60327">
        <ele>0.40000000596046</ele>
        <time>2019-05-19T12:35:10Z</time>
      </trkpt>
      <trkpt lat="53.30662" lon="7.60412">
        <ele>0.80000001192093</ele>
        <time>2019-05-19T12:35:27Z</time>
      </trkpt>
      <trkpt lat="53.30711" lon="7.60502">
        <ele>1</ele>
        <time>2019-05-19T12:36:10Z</time>
      </trkpt>
      <trkpt lat="53.30799" lon="7.60623">
        <ele>0.60000002384186</ele>
        <time>2019-05-19T12:36:34Z</time>
      </trkpt>
      <trkpt lat="53.30906" lon="7.60804">
        <ele>-0.60000002384186</ele>
        <time>2019-05-19T12:36:56Z</time>
      </trkpt>
      <trkpt lat="53.3097" lon="7.60858">
        <ele>-1.7999999523163</ele>
        <time>2019-05-19T12:37:17Z</time>
      </trkpt>
      <trkpt lat="53.31052" lon="7.61011">
        <ele>-2.5999999046326</ele>
        <time>2019-05-19T12:37:36Z</time>
      </trkpt>
      <trkpt lat="53.31166" lon="7.61179">
        <ele>-4.1999998092651</ele>
        <time>2019-05-19T12:37:54Z</time>
      </trkpt>
      <trkpt lat="53.31356" lon="7.61471">
        <ele>-5</ele>
        <time>2019-05-19T12:38:13Z</time>
      </trkpt>
      <trkpt lat="53.31532" lon="7.61751">
        <ele>-5</ele>
        <time>2019-05-19T12:38:36Z</time>
      </trkpt>
      <trkpt lat="53.31609" lon="7.61874">
        <ele>-4.8000001907349</ele>
        <time>2019-05-19T12:38:51Z</time>
      </trkpt>
      <trkpt lat="53.31697" lon="7.62015">
        <ele>-4.8000001907349</ele>
        <time>2019-05-19T12:39:14Z</time>
      </trkpt>
      <trkpt lat="53.31783" lon="7.62161">
        <ele>-4.5999999046326</ele>
        <time>2019-05-19T12:39:36Z</time>
      </trkpt>
      <trkpt lat="53.31839" lon="7.62281">
        <ele>-5</ele>
        <time>2019-05-19T12:40:00Z</time>
      </trkpt>
      <trkpt lat="53.31899" lon="7.62406">
        <ele>-4.1999998092651</ele>
        <time>2019-05-19T12:40:17Z</time>
      </trkpt>
      <trkpt lat="53.31953" lon="7.62529">
        <ele>-4.5999999046326</ele>
        <time>2019-05-19T12:40:29Z</time>
      </trkpt>
      <trkpt lat="53.32008" lon="7.62659">
        <ele>-3.7999999523163</ele>
        <time>2019-05-19T12:40:41Z</time>
      </trkpt>
      <trkpt lat="53.32057" lon="7.62767">
        <ele>-4</ele>
        <time>2019-05-19T12:41:04Z</time>
      </trkpt>
      <trkpt lat="53.32128" lon="7.62935">
        <ele>-3.7999999523163</ele>
        <time>2019-05-19T12:41:20Z</time>
      </trkpt>
      <trkpt lat="53.32177" lon="7.63047">
        <ele>-3.7999999523163</ele>
        <time>2019-05-19T12:45:13Z</time>
      </trkpt>
      <trkpt lat="53.32243" lon="7.63199">
        <ele>-4</ele>
        <time>2019-05-19T12:45:29Z</time>
      </trkpt>
      <trkpt lat="53.32307" lon="7.63346">
        <ele>-4</ele>
        <time>2019-05-19T12:45:49Z</time>
      </trkpt>
      <trkpt lat="53.32366" lon="7.63491">
        <ele>-4.4000000953674</ele>
        <time>2019-05-19T12:46:14Z</time>
      </trkpt>
      <trkpt lat="53.32426" lon="7.63629">
        <ele>-4.4000000953674</ele>
        <time>2019-05-19T12:46:25Z</time>
      </trkpt>
      <trkpt lat="53.3249" lon="7.6379">
        <ele>-4.5999999046326</ele>
        <time>2019-05-19T12:58:26Z</time>
      </trkpt>
      <trkpt lat="53.32535" lon="7.63896">
        <ele>-4.4000000953674</ele>
        <time>2019-05-19T12:58:41Z</time>
      </trkpt>
      <trkpt lat="53.32568" lon="7.63973">
        <ele>-4.5999999046326</ele>
        <time>2019-05-19T12:58:57Z</time>
      </trkpt>
      <trkpt lat="53.32597" lon="7.6404">
        <ele>-4.4000000953674</ele>
        <time>2019-05-19T12:59:13Z</time>
      </trkpt>
      <trkpt lat="53.32674" lon="7.64226">
        <ele>-4.8000001907349</ele>
        <time>2019-05-19T12:59:33Z</time>
      </trkpt>
      <trkpt lat="53.32724" lon="7.64335">
        <ele>-4.8000001907349</ele>
        <time>2019-05-19T12:59:53Z</time>
      </trkpt>
      <trkpt lat="53.32757" lon="7.64411">
        <ele>-5</ele>
        <time>2019-05-19T01:00:10Z</time>
      </trkpt>
      <trkpt lat="53.32926" lon="7.64824">
        <ele>-5</ele>
        <time>2019-05-19T01:00:26Z</time>
      </trkpt>
      <trkpt lat="53.32986" lon="7.64971">
        <ele>-5.1999998092651</ele>
        <time>2019-05-19T01:00:40Z</time>
      </trkpt>
      <trkpt lat="53.3302" lon="7.65046">
        <ele>-5.5999999046326</ele>
        <time>2019-05-19T01:01:07Z</time>
      </trkpt>
      <trkpt lat="53.33064" lon="7.65147">
        <ele>-5.8000001907349</ele>
        <time>2019-05-19T01:01:28Z</time>
      </trkpt>
      <trkpt lat="53.33106" lon="7.65371">
        <ele>-5.1999998092651</ele>
        <time>2019-05-19T01:01:50Z</time>
      </trkpt>
      <trkpt lat="53.33123" lon="7.65487">
        <ele>-5.4000000953674</ele>
        <time>2019-05-19T01:02:12Z</time>
      </trkpt>
      <trkpt lat="53.33146" lon="7.65587">
        <ele>-5.4000000953674</ele>
        <time>2019-05-19T01:02:35Z</time>
      </trkpt>
      <trkpt lat="53.33172" lon="7.65683">
        <ele>-5.1999998092651</ele>
        <time>2019-05-19T01:02:58Z</time>
      </trkpt>
      <trkpt lat="53.33206" lon="7.65827">
        <ele>-6.4000000953674</ele>
        <time>2019-05-19T01:03:05Z</time>
      </trkpt>
      <trkpt lat="53.33217" lon="7.6598">
        <ele>-6.1999998092651</ele>
        <time>2019-05-19T01:03:24Z</time>
      </trkpt>
      <trkpt lat="53.33243" lon="7.66111">
        <ele>-6.1999998092651</ele>
        <time>2019-05-19T01:03:58Z</time>
      </trkpt>
      <trkpt lat="53.3328" lon="7.66225">
        <ele>-6.4000000953674</ele>
        <time>2019-05-19T01:04:11Z</time>
      </trkpt>
      <trkpt lat="53.33372" lon="7.66441">
        <ele>-6.4000000953674</ele>
        <time>2019-05-19T01:04:44Z</time>
      </trkpt>
      <trkpt lat="53.33415" lon="7.66553">
        <ele>-6</ele>
        <time>2019-05-19T01:04:50Z</time>
      </trkpt>
      <trkpt lat="53.33443" lon="7.6666">
        <ele>-5</ele>
        <time>2019-05-19T01:05:04Z</time>
      </trkpt>
      <trkpt lat="53.33512" lon="7.67022">
        <ele>-3.5999999046326</ele>
        <time>2019-05-19T01:05:26Z</time>
      </trkpt>
      <trkpt lat="53.33534" lon="7.67137">
        <ele>-3.5999999046326</ele>
        <time>2019-05-19T01:05:47Z</time>
      </trkpt>
      <trkpt lat="53.33562" lon="7.67283">
        <ele>-3.4000000953674</ele>
        <time>2019-05-19T01:06:04Z</time>
      </trkpt>
      <trkpt lat="53.33581" lon="7.67461">
        <ele>-3.4000000953674</ele>
        <time>2019-05-19T01:06:22Z</time>
      </trkpt>
      <trkpt lat="53.33577" lon="7.676">
        <ele>-3</ele>
        <time>2019-05-19T01:06:38Z</time>
      </trkpt>
      <trkpt lat="53.33575" lon="7.67758">
        <ele>-2.7999999523163</ele>
        <time>2019-05-19T01:06:59Z</time>
      </trkpt>
      <trkpt lat="53.33591" lon="7.67886">
        <ele>-2.7999999523163</ele>
        <time>2019-05-19T01:07:25Z</time>
      </trkpt>
      <trkpt lat="53.33608" lon="7.67993">
        <ele>-3</ele>
        <time>2019-05-19T01:07:41Z</time>
      </trkpt>
      <trkpt lat="53.33627" lon="7.6812">
        <ele>-3</ele>
        <time>2019-05-19T01:08:05Z</time>
      </trkpt>
      <trkpt lat="53.33648" lon="7.68217">
        <ele>-3.2000000476837</ele>
        <time>2019-05-19T01:08:17Z</time>
      </trkpt>
      <trkpt lat="53.3367" lon="7.68346">
        <ele>-3.5999999046326</ele>
        <time>2019-05-19T01:08:33Z</time>
      </trkpt>
      <trkpt lat="53.33694" lon="7.68492">
        <ele>-3.5999999046326</ele>
        <time>2019-05-19T01:08:54Z</time>
      </trkpt>
      <trkpt lat="53.33712" lon="7.68589">
        <ele>-3.7999999523163</ele>
        <time>2019-05-19T01:09:07Z</time>
      </trkpt>
      <trkpt lat="53.33743" lon="7.68746">
        <ele>-4.5999999046326</ele>
        <time>2019-05-19T01:09:29Z</time>
      </trkpt>
      <trkpt lat="53.33758" lon="7.68819">
        <ele>-4.8000001907349</ele>
        <time>2019-05-19T01:09:53Z</time>
      </trkpt>
      <trkpt lat="53.33777" lon="7.68944">
        <ele>-4.5999999046326</ele>
        <time>2019-05-19T01:10:11Z</time>
      </trkpt>
      <trkpt lat="53.33829" lon="7.69239">
        <ele>-4.1999998092651</ele>
        <time>2019-05-19T01:10:32Z</time>
      </trkpt>
      <trkpt lat="53.33861" lon="7.69361">
        <ele>-3.7999999523163</ele>
        <time>2019-05-19T01:10:48Z</time>
      </trkpt>
      <trkpt lat="53.33892" lon="7.69458">
        <ele>-3.5999999046326</ele>
        <time>2019-05-19T01:11:08Z</time>
      </trkpt>
      <trkpt lat="53.33951" lon="7.69581">
        <ele>-3.5999999046326</ele>
        <time>2019-05-19T01:11:27Z</time>
      </trkpt>
      <trkpt lat="53.34036" lon="7.69708">
        <ele>-3.4000000953674</ele>
        <time>2019-05-19T01:11:39Z</time>
      </trkpt>
      <trkpt lat="53.34117" lon="7.69842">
        <ele>-3.4000000953674</ele>
        <time>2019-05-19T01:11:56Z</time>
      </trkpt>
      <trkpt lat="53.34161" lon="7.69863">
        <ele>-3.5999999046326</ele>
        <time>2019-05-19T01:12:14Z</time>
      </trkpt>
      <trkpt lat="53.34237" lon="7.69959">
        <ele>-3.5999999046326</ele>
        <time>2019-05-19T01:12:31Z</time>
      </trkpt>
      <trkpt lat="53.34298" lon="7.70067">
        <ele>-3.7999999523163</ele>
        <time>2019-05-19T01:12:50Z</time>
      </trkpt>
      <trkpt lat="53.34342" lon="7.70218">
        <ele>-2.7999999523163</ele>
        <time>2019-05-19T01:13:14Z</time>
      </trkpt>
      <trkpt lat="53.34384" lon="7.70517">
        <ele>-2</ele>
        <time>2019-05-19T01:13:22Z</time>
      </trkpt>
      <trkpt lat="53.34394" lon="7.70596">
        <ele>-2</ele>
        <time>2019-05-19T01:13:40Z</time>
      </trkpt>
      <trkpt lat="53.34413" lon="7.70748">
        <ele>-2.2000000476837</ele>
        <time>2019-05-19T01:14:04Z</time>
      </trkpt>
      <trkpt lat="53.34426" lon="7.70866">
        <ele>-2</ele>
        <time>2019-05-19T01:14:27Z</time>
      </trkpt>
      <trkpt lat="53.34448" lon="7.71036">
        <ele>-2.4000000953674</ele>
        <time>2019-05-19T01:14:47Z</time>
      </trkpt>
      <trkpt lat="53.34459" lon="7.7113">
        <ele>-2.2000000476837</ele>
        <time>2019-05-19T01:15:06Z</time>
      </trkpt>
      <trkpt lat="53.34483" lon="7.7131">
        <ele>-2</ele>
        <time>2019-05-19T01:15:17Z</time>
      </trkpt>
      <trkpt lat="53.34501" lon="7.71459">
        <ele>-2.4000000953674</ele>
        <time>2019-05-19T01:15:34Z</time>
      </trkpt>
      <trkpt lat="53.34517" lon="7.71582">
        <ele>-1.7999999523163</ele>
        <time>2019-05-19T01:15:56Z</time>
      </trkpt>
      <trkpt lat="53.34531" lon="7.71705">
        <ele>-2.2000000476837</ele>
        <time>2019-05-19T01:16:15Z</time>
      </trkpt>
      <trkpt lat="53.34544" lon="7.71806">
        <ele>-2</ele>
        <time>2019-05-19T01:16:29Z</time>
      </trkpt>
      <trkpt lat="53.34574" lon="7.72028">
        <ele>-1.2000000476837</ele>
        <time>2019-05-19T01:16:51Z</time>
      </trkpt>
      <trkpt lat="53.34592" lon="7.72179">
        <ele>-1</ele>
        <time>2019-05-19T01:17:09Z</time>
      </trkpt>
      <trkpt lat="53.34607" lon="7.72305">
        <ele>-1</ele>
        <time>2019-05-19T01:17:27Z</time>
      </trkpt>
      <trkpt lat="53.34622" lon="7.7243">
        <ele>-1.3999999761581</ele>
        <time>2019-05-19T01:17:47Z</time>
      </trkpt>
      <trkpt lat="53.34637" lon="7.72581">
        <ele>-1.6000000238419</ele>
        <time>2019-05-19T01:18:04Z</time>
      </trkpt>
      <trkpt lat="53.34626" lon="7.72817">
        <ele>-1.6000000238419</ele>
        <time>2019-05-19T01:18:25Z</time>
      </trkpt>
      <trkpt lat="53.34616" lon="7.72967">
        <ele>-1.3999999761581</ele>
        <time>2019-05-19T01:18:48Z</time>
      </trkpt>
      <trkpt lat="53.34608" lon="7.7306">
        <ele>-0.80000001192093</ele>
        <time>2019-05-19T01:19:12Z</time>
      </trkpt>
      <trkpt lat="53.34593" lon="7.73243">
        <ele>-0.80000001192093</ele>
        <time>2019-05-19T01:19:35Z</time>
      </trkpt>
      <trkpt lat="53.34581" lon="7.73418">
        <ele>-0.60000002384186</ele>
        <time>2019-05-19T01:19:54Z</time>
      </trkpt>
      <trkpt lat="53.34571" lon="7.7357">
        <ele>-0.80000001192093</ele>
        <time>2019-05-19T01:20:06Z</time>
      </trkpt>
      <trkpt lat="53.34558" lon="7.73727">
        <ele>-0.40000000596046</ele>
        <time>2019-05-19T01:20:13Z</time>
      </trkpt>
      <trkpt lat="53.34547" lon="7.73953">
        <ele>10</ele>
        <time>2019-05-19T01:20:31Z</time>
      </trkpt>
      <trkpt lat="53.34542" lon="7.7406">
        <ele>-0.20000000298023</ele>
        <time>2019-05-19T01:20:49Z</time>
      </trkpt>
      <trkpt lat="53.34533" lon="7.74195">
        <ele>0.20000000298023</ele>
        <time>2019-05-19T01:21:02Z</time>
      </trkpt>
      <trkpt lat="53.34522" lon="7.74277">
        <ele>-0.20000000298023</ele>
        <time>2019-05-19T01:21:23Z</time>
      </trkpt>
      <trkpt lat="53.34479" lon="7.74427">
        <ele>-0.80000001192093</ele>
        <time>2019-05-19T01:21:45Z</time>
      </trkpt>
      <trkpt lat="53.34423" lon="7.74585">
        <ele>-0.80000001192093</ele>
        <time>2019-05-19T01:22:05Z</time>
      </trkpt>
      <trkpt lat="53.34375" lon="7.74726">
        <ele>-1.2000000476837</ele>
        <time>2019-05-19T01:22:27Z</time>
      </trkpt>
      <trkpt lat="53.34351" lon="7.74851">
        <ele>-1.7999999523163</ele>
        <time>2019-05-19T01:22:47Z</time>
      </trkpt>
      <trkpt lat="53.34324" lon="7.74997">
        <ele>-2</ele>
        <time>2019-05-19T01:23:07Z</time>
      </trkpt>
      <trkpt lat="53.34302" lon="7.75071">
        <ele>-2.4000000953674</ele>
        <time>2019-05-19T01:23:26Z</time>
      </trkpt>
      <trkpt lat="53.34271" lon="7.75152">
        <ele>-2.4000000953674</ele>
        <time>2019-05-19T01:23:51Z</time>
      </trkpt>
      <trkpt lat="53.34241" lon="7.75235">
        <ele>-2.5999999046326</ele>
        <time>2019-05-19T01:24:10Z</time>
      </trkpt>
      <trkpt lat="53.34228" lon="7.75289">
        <ele>-2.5999999046326</ele>
        <time>2019-05-19T01:24:34Z</time>
      </trkpt>
      <trkpt lat="53.34213" lon="7.75426">
        <ele>-2.4000000953674</ele>
        <time>2019-05-19T01:24:46Z</time>
      </trkpt>
      <trkpt lat="53.34221" lon="7.75542">
        <ele>-2.4000000953674</ele>
        <time>2019-05-19T01:25:16Z</time>
      </trkpt>
      <trkpt lat="53.34241" lon="7.7569">
        <ele>-2.5999999046326</ele>
        <time>2019-05-19T01:25:25Z</time>
      </trkpt>
      <trkpt lat="53.3428" lon="7.75962">
        <ele>-3.4000000953674</ele>
        <time>2019-05-19T01:25:36Z</time>
      </trkpt>
      <trkpt lat="53.34293" lon="7.76054">
        <ele>-3.2000000476837</ele>
        <time>2019-05-19T01:25:46Z</time>
      </trkpt>
      <trkpt lat="53.34312" lon="7.76185">
        <ele>-2.7999999523163</ele>
        <time>2019-05-19T01:26:05Z</time>
      </trkpt>
      <trkpt lat="53.34332" lon="7.7634">
        <ele>-3.7999999523163</ele>
        <time>2019-05-19T01:26:25Z</time>
      </trkpt>
      <trkpt lat="53.34341" lon="7.76377">
        <ele>-2.4000000953674</ele>
        <time>2019-05-19T01:26:42Z</time>
      </trkpt>
      <trkpt lat="53.34346" lon="7.76437">
        <ele>-2.4000000953674</ele>
        <time>2019-05-19T01:27:00Z</time>
      </trkpt>
      <trkpt lat="53.3435" lon="7.76453">
        <ele>-4.1999998092651</ele>
        <time>2019-05-19T01:27:20Z</time>
      </trkpt>
      <trkpt lat="53.34355" lon="7.76493">
        <ele>-4.1999998092651</ele>
        <time>2019-05-19T01:27:39Z</time>
      </trkpt>
      <trkpt lat="53.34378" lon="7.76646">
        <ele>-4.8000001907349</ele>
        <time>2019-05-19T01:28:01Z</time>
      </trkpt>
      <trkpt lat="53.34393" lon="7.76758">
        <ele>-5</ele>
        <time>2019-05-19T01:28:27Z</time>
      </trkpt>
      <trkpt lat="53.34415" lon="7.76919">
        <ele>-4.8000001907349</ele>
        <time>2019-05-19T01:28:53Z</time>
      </trkpt>
      <trkpt lat="53.34439" lon="7.77089">
        <ele>-5</ele>
        <time>2019-05-19T01:29:18Z</time>
      </trkpt>
      <trkpt lat="53.34467" lon="7.77295">
        <ele>-5.1999998092651</ele>
        <time>2019-05-19T01:29:42Z</time>
      </trkpt>
      <trkpt lat="53.34488" lon="7.77411">
        <ele>-5.4000000953674</ele>
        <time>2019-05-19T01:30:09Z</time>
      </trkpt>
      <trkpt lat="53.34516" lon="7.77542">
        <ele>-5</ele>
        <time>2019-05-19T01:30:32Z</time>
      </trkpt>
      <trkpt lat="53.34542" lon="7.77701">
        <ele>-4.8000001907349</ele>
        <time>2019-05-19T01:30:52Z</time>
      </trkpt>
      <trkpt lat="53.34559" lon="7.77823">
        <ele>-4</ele>
        <time>2019-05-19T01:31:13Z</time>
      </trkpt>
      <trkpt lat="53.34603" lon="7.78174">
        <ele>-3.5999999046326</ele>
        <time>2019-05-19T01:31:38Z</time>
      </trkpt>
      <trkpt lat="53.34625" lon="7.78346">
        <ele>-3.2000000476837</ele>
        <time>2019-05-19T01:32:03Z</time>
      </trkpt>
      <trkpt lat="53.34645" lon="7.78508">
        <ele>-3.4000000953674</ele>
        <time>2019-05-19T01:32:22Z</time>
      </trkpt>
      <trkpt lat="53.34661" lon="7.78635">
        <ele>-3.4000000953674</ele>
        <time>2019-05-19T01:32:38Z</time>
      </trkpt>
      <trkpt lat="53.34678" lon="7.78777">
        <ele>-3.5999999046326</ele>
        <time>2019-05-19T01:33:00Z</time>
      </trkpt>
      <trkpt lat="53.34702" lon="7.78897">
        <ele>-3</ele>
        <time>2019-05-19T01:33:22Z</time>
      </trkpt>
      <trkpt lat="53.34735" lon="7.78988">
        <ele>-3.2000000476837</ele>
        <time>2019-05-19T01:34:30Z</time>
      </trkpt>
      <trkpt lat="53.34771" lon="7.79063">
        <ele>-3.5999999046326</ele>
        <time>2019-05-19T01:34:46Z</time>
      </trkpt>
      <trkpt lat="53.34812" lon="7.79148">
        <ele>-3.4000000953674</ele>
        <time>2019-05-19T01:35:09Z</time>
      </trkpt>
      <trkpt lat="53.34861" lon="7.7925">
        <ele>-3</ele>
        <time>2019-05-19T01:35:36Z</time>
      </trkpt>
      <trkpt lat="53.34907" lon="7.79343">
        <ele>-2.7999999523163</ele>
        <time>2019-05-19T01:36:01Z</time>
      </trkpt>
      <trkpt lat="53.35056" lon="7.7967">
        <ele>-3.4000000953674</ele>
        <time>2019-05-19T01:36:21Z</time>
      </trkpt>
      <trkpt lat="53.35079" lon="7.79722">
        <ele>-3.5999999046326</ele>
        <time>2019-05-19T01:36:40Z</time>
      </trkpt>
      <trkpt lat="53.35126" lon="7.79829">
        <ele>-2.7999999523163</ele>
        <time>2019-05-19T01:36:58Z</time>
      </trkpt>
      <trkpt lat="53.35213" lon="7.80019">
        <ele>-2.4000000953674</ele>
        <time>2019-05-19T01:37:18Z</time>
      </trkpt>
      <trkpt lat="53.35249" lon="7.80113">
        <ele>-1.7999999523163</ele>
        <time>2019-05-19T01:37:37Z</time>
      </trkpt>
      <trkpt lat="53.35284" lon="7.80195">
        <ele>-2.4000000953674</ele>
        <time>2019-05-19T01:38:01Z</time>
      </trkpt>
      <trkpt lat="53.35325" lon="7.80327">
        <ele>-2</ele>
        <time>2019-05-19T01:38:19Z</time>
      </trkpt>
      <trkpt lat="53.35339" lon="7.80423">
        <ele>-1.6000000238419</ele>
        <time>2019-05-19T01:38:41Z</time>
      </trkpt>
      <trkpt lat="53.35354" lon="7.80546">
        <ele>-1.7999999523163</ele>
        <time>2019-05-19T01:39:01Z</time>
      </trkpt>
      <trkpt lat="53.3538" lon="7.80684">
        <ele>-1.3999999761581</ele>
        <time>2019-05-19T01:39:24Z</time>
      </trkpt>
      <trkpt lat="53.35412" lon="7.80805">
        <ele>-1.3999999761581</ele>
        <time>2019-05-19T01:39:45Z</time>
      </trkpt>
      <trkpt lat="53.35442" lon="7.80905">
        <ele>-1.2000000476837</ele>
        <time>2019-05-19T01:40:07Z</time>
      </trkpt>
      <trkpt lat="53.35485" lon="7.81051">
        <ele>-0.80000001192093</ele>
        <time>2019-05-19T01:40:21Z</time>
      </trkpt>
      <trkpt lat="53.3553" lon="7.81172">
        <ele>-1.2000000476837</ele>
        <time>2019-05-19T01:40:46Z</time>
      </trkpt>
      <trkpt lat="53.35581" lon="7.81263">
        <ele>-1.6000000238419</ele>
        <time>2019-05-19T01:41:10Z</time>
      </trkpt>
      <trkpt lat="53.3565" lon="7.81324">
        <ele>-2.2000000476837</ele>
        <time>2019-05-19T01:41:36Z</time>
      </trkpt>
      <trkpt lat="53.35695" lon="7.81344">
        <ele>-0.60000002384186</ele>
        <time>2019-05-19T01:42:00Z</time>
      </trkpt>
      <trkpt lat="53.35772" lon="7.81402">
        <ele>-0.60000002384186</ele>
        <time>2019-05-19T01:42:26Z</time>
      </trkpt>
      <trkpt lat="53.35849" lon="7.81439">
        <ele>-0.40000000596046</ele>
        <time>2019-05-19T01:42:51Z</time>
      </trkpt>
      <trkpt lat="53.36068" lon="7.81456">
        <ele>0.20000000298023</ele>
        <time>2019-05-19T01:43:13Z</time>
      </trkpt>
      <trkpt lat="53.36142" lon="7.81463">
        <ele>10</ele>
        <time>2019-05-19T01:43:32Z</time>
      </trkpt>
      <trkpt lat="53.36229" lon="7.81501">
        <ele>0.20000000298023</ele>
        <time>2019-05-19T01:43:56Z</time>
      </trkpt>
      <trkpt lat="53.36282" lon="7.81544">
        <ele>0.20000000298023</ele>
        <time>2019-05-19T01:44:16Z</time>
      </trkpt>
      <trkpt lat="53.36357" lon="7.81601">
        <ele>0.60000002384186</ele>
        <time>2019-05-19T01:44:40Z</time>
      </trkpt>
      <trkpt lat="53.36428" lon="7.81646">
        <ele>0.80000001192093</ele>
        <time>2019-05-19T01:45:05Z</time>
      </trkpt>
      <trkpt lat="53.36489" lon="7.81689">
        <ele>0.80000001192093</ele>
        <time>2019-05-19T01:45:25Z</time>
      </trkpt>
      <trkpt lat="53.36561" lon="7.81733">
        <ele>1</ele>
        <time>2019-05-19T01:45:47Z</time>
      </trkpt>
      <trkpt lat="53.36607" lon="7.81762">
        <ele>1.2000000476837</ele>
        <time>2019-05-19T01:46:07Z</time>
      </trkpt>
      <trkpt lat="53.36692" lon="7.81814">
        <ele>0.60000002384186</ele>
        <time>2019-05-19T01:46:27Z</time>
      </trkpt>
      <trkpt lat="53.36784" lon="7.81872">
        <ele>0.40000000596046</ele>
        <time>2019-05-19T01:46:51Z</time>
      </trkpt>
      <trkpt lat="53.36886" lon="7.81934">
        <ele>0.60000002384186</ele>
        <time>2019-05-19T01:47:09Z</time>
      </trkpt>
      <trkpt lat="53.36972" lon="7.81988">
        <ele>0.60000002384186</ele>
        <time>2019-05-19T01:47:36Z</time>
      </trkpt>
      <trkpt lat="53.37037" lon="7.82042">
        <ele>0.20000000298023</ele>
        <time>2019-05-19T01:47:55Z</time>
      </trkpt>
      <trkpt lat="53.37153" lon="7.82141">
        <ele>0.20000000298023</ele>
        <time>2019-05-19T01:48:15Z</time>
      </trkpt>
      <trkpt lat="53.37249" lon="7.82225">
        <ele>-0.20000000298023</ele>
        <time>2019-05-19T01:48:38Z</time>
      </trkpt>
      <trkpt lat="53.37353" lon="7.82313">
        <ele>0.40000000596046</ele>
        <time>2019-05-19T01:49:01Z</time>
      </trkpt>
      <trkpt lat="53.37637" lon="7.8256">
        <ele>0.40000000596046</ele>
        <time>2019-05-19T01:49:25Z</time>
      </trkpt>
      <trkpt lat="53.37629" lon="7.82583">
        <ele>0.80000001192093</ele>
        <time>2019-05-19T01:49:43Z</time>
      </trkpt>
      <trkpt lat="53.37525" lon="7.82914">
        <ele>0.80000001192093</ele>
        <time>2019-05-19T01:50:10Z</time>
      </trkpt>
      <trkpt lat="53.37481" lon="7.83065">
        <ele>0.60000002384186</ele>
        <time>2019-05-19T01:50:34Z</time>
      </trkpt>
      <trkpt lat="53.37442" lon="7.83208">
        <ele>1.2000000476837</ele>
        <time>2019-05-19T01:50:59Z</time>
      </trkpt>
      <trkpt lat="53.37493" lon="7.83266">
        <ele>1.7999999523163</ele>
        <time>2019-05-19T01:51:22Z</time>
      </trkpt>
      <trkpt lat="53.37564" lon="7.83331">
        <ele>1.7999999523163</ele>
        <time>2019-05-19T01:51:48Z</time>
      </trkpt>
      <trkpt lat="53.37666" lon="7.8343">
        <ele>1.2000000476837</ele>
        <time>2019-05-19T01:52:09Z</time>
      </trkpt>
      <trkpt lat="53.37684" lon="7.83502">
        <ele>1</ele>
        <time>2019-05-19T01:52:29Z</time>
      </trkpt>
      <trkpt lat="53.37726" lon="7.83718">
        <ele>1</ele>
        <time>2019-05-19T01:52:50Z</time>
      </trkpt>
      <trkpt lat="53.37749" lon="7.83839">
        <ele>0.80000001192093</ele>
        <time>2019-05-19T01:53:11Z</time>
      </trkpt>
      <trkpt lat="53.37775" lon="7.83966">
        <ele>1.2000000476837</ele>
        <time>2019-05-19T01:53:18Z</time>
      </trkpt>
      <trkpt lat="53.37804" lon="7.84108">
        <ele>1.2000000476837</ele>
        <time>2019-05-19T01:59:44Z</time>
      </trkpt>
      <trkpt lat="53.37836" lon="7.84269">
        <ele>1</ele>
        <time>2019-05-19T01:59:57Z</time>
      </trkpt>
      <trkpt lat="53.37891" lon="7.84537">
        <ele>0.20000000298023</ele>
        <time>2019-05-19T02:00:13Z</time>
      </trkpt>
      <trkpt lat="53.37905" lon="7.84609">
        <ele>0.20000000298023</ele>
        <time>2019-05-19T02:00:32Z</time>
      </trkpt>
      <trkpt lat="53.37945" lon="7.84826">
        <ele>0.60000002384186</ele>
        <time>2019-05-19T02:00:43Z</time>
      </trkpt>
      <trkpt lat="53.37972" lon="7.84963">
        <ele>0.80000001192093</ele>
        <time>2019-05-19T02:01:04Z</time>
      </trkpt>
      <trkpt lat="53.38004" lon="7.85105">
        <ele>0.80000001192093</ele>
        <time>2019-05-19T02:01:21Z</time>
      </trkpt>
      <trkpt lat="53.38037" lon="7.85257">
        <ele>0.40000000596046</ele>
        <time>2019-05-19T02:01:34Z</time>
      </trkpt>
      <trkpt lat="53.38066" lon="7.85413">
        <ele>0.60000002384186</ele>
        <time>2019-05-19T02:01:55Z</time>
      </trkpt>
      <trkpt lat="53.38098" lon="7.85567">
        <ele>0.40000000596046</ele>
        <time>2019-05-19T02:02:08Z</time>
      </trkpt>
      <trkpt lat="53.3813" lon="7.85732">
        <ele>0.40000000596046</ele>
        <time>2019-05-19T02:02:30Z</time>
      </trkpt>
      <trkpt lat="53.38159" lon="7.85871">
        <ele>0.20000000298023</ele>
        <time>2019-05-19T02:02:50Z</time>
      </trkpt>
      <trkpt lat="53.38179" lon="7.85968">
        <ele>10</ele>
        <time>2019-05-19T02:03:16Z</time>
      </trkpt>
      <trkpt lat="53.38223" lon="7.86192">
        <ele>10</ele>
        <time>2019-05-19T02:03:40Z</time>
      </trkpt>
      <trkpt lat="53.38226" lon="7.86208">
        <ele>-0.80000001192093</ele>
        <time>2019-05-19T02:04:03Z</time>
      </trkpt>
      <trkpt lat="53.38263" lon="7.86399">
        <ele>-0.80000001192093</ele>
        <time>2019-05-19T02:04:31Z</time>
      </trkpt>
      <trkpt lat="53.38327" lon="7.86711">
        <ele>-1.2000000476837</ele>
        <time>2019-05-19T02:04:57Z</time>
      </trkpt>
      <trkpt lat="53.38345" lon="7.86809">
        <ele>-1</ele>
        <time>2019-05-19T02:05:11Z</time>
      </trkpt>
      <trkpt lat="53.38373" lon="7.86972">
        <ele>-1.2000000476837</ele>
        <time>2019-05-19T02:05:36Z</time>
      </trkpt>
      <trkpt lat="53.38406" lon="7.87152">
        <ele>-0.80000001192093</ele>
        <time>2019-05-19T02:06:01Z</time>
      </trkpt>
      <trkpt lat="53.38432" lon="7.87321">
        <ele>-1.7999999523163</ele>
        <time>2019-05-19T02:06:22Z</time>
      </trkpt>
      <trkpt lat="53.38426" lon="7.87397">
        <ele>-1.7999999523163</ele>
        <time>2019-05-19T02:06:45Z</time>
      </trkpt>
      <trkpt lat="53.38426" lon="7.87475">
        <ele>-2</ele>
        <time>2019-05-19T02:07:13Z</time>
      </trkpt>
      <trkpt lat="53.38452" lon="7.8761">
        <ele>-1.7999999523163</ele>
        <time>2019-05-19T02:07:32Z</time>
      </trkpt>
      <trkpt lat="53.38481" lon="7.87743">
        <ele>-2</ele>
        <time>2019-05-19T02:07:48Z</time>
      </trkpt>
      <trkpt lat="53.38518" lon="7.87924">
        <ele>-1</ele>
        <time>2019-05-19T02:08:08Z</time>
      </trkpt>
      <trkpt lat="53.38539" lon="7.88035">
        <ele>-0.80000001192093</ele>
        <time>2019-05-19T02:08:26Z</time>
      </trkpt>
      <trkpt lat="53.38573" lon="7.88167">
        <ele>-1</ele>
        <time>2019-05-19T02:08:45Z</time>
      </trkpt>
      <trkpt lat="53.38593" lon="7.8827">
        <ele>-1.6000000238419</ele>
        <time>2019-05-19T02:09:06Z</time>
      </trkpt>
      <trkpt lat="53.38645" lon="7.8851">
        <ele>-1.2000000476837</ele>
        <time>2019-05-19T02:14:08Z</time>
      </trkpt>
      <trkpt lat="53.38667" lon="7.88624">
        <ele>-1.2000000476837</ele>
        <time>2019-05-19T02:14:20Z</time>
      </trkpt>
      <trkpt lat="53.38691" lon="7.88737">
        <ele>-1</ele>
        <time>2019-05-19T02:14:33Z</time>
      </trkpt>
      <trkpt lat="53.38706" lon="7.88855">
        <ele>-0.40000000596046</ele>
        <time>2019-05-19T02:14:54Z</time>
      </trkpt>
      <trkpt lat="53.38669" lon="7.88949">
        <ele>-0.20000000298023</ele>
        <time>2019-05-19T02:15:18Z</time>
      </trkpt>
      <trkpt lat="53.386" lon="7.88978">
        <ele>-0.20000000298023</ele>
        <time>2019-05-19T02:15:38Z</time>
      </trkpt>
      <trkpt lat="53.38482" lon="7.88996">
        <ele>-0.80000001192093</ele>
        <time>2019-05-19T02:16:02Z</time>
      </trkpt>
      <trkpt lat="53.38412" lon="7.89006">
        <ele>-0.80000001192093</ele>
        <time>2019-05-19T02:16:27Z</time>
      </trkpt>
      <trkpt lat="53.38302" lon="7.89024">
        <ele>-1.2000000476837</ele>
        <time>2019-05-19T02:16:54Z</time>
      </trkpt>
      <trkpt lat="53.38233" lon="7.89043">
        <ele>-1.2000000476837</ele>
        <time>2019-05-19T02:17:16Z</time>
      </trkpt>
      <trkpt lat="53.38273" lon="7.89175">
        <ele>-1.6000000238419</ele>
        <time>2019-05-19T02:17:43Z</time>
      </trkpt>
      <trkpt lat="53.38363" lon="7.89481">
        <ele>-1.6000000238419</ele>
        <time>2019-05-19T02:18:05Z</time>
      </trkpt>
      <trkpt lat="53.38407" lon="7.89624">
        <ele>-2</ele>
        <time>2019-05-19T02:18:28Z</time>
      </trkpt>
      <trkpt lat="53.38435" lon="7.89726">
        <ele>-2.5999999046326</ele>
        <time>2019-05-19T02:19:23Z</time>
      </trkpt>
      <trkpt lat="53.38457" lon="7.89789">
        <ele>-2.7999999523163</ele>
        <time>2019-05-19T02:19:39Z</time>
      </trkpt>
      <trkpt lat="53.38488" lon="7.8989">
        <ele>-3</ele>
        <time>2019-05-19T02:20:04Z</time>
      </trkpt>
      <trkpt lat="53.38541" lon="7.90078">
        <ele>-2.2000000476837</ele>
        <time>2019-05-19T02:20:22Z</time>
      </trkpt>
      <trkpt lat="53.38575" lon="7.90184">
        <ele>-2</ele>
        <time>2019-05-19T02:20:42Z</time>
      </trkpt>
      <trkpt lat="53.38598" lon="7.9026">
        <ele>-2</ele>
        <time>2019-05-19T02:20:57Z</time>
      </trkpt>
      <trkpt lat="53.38619" lon="7.90331">
        <ele>-1.6000000238419</ele>
        <time>2019-05-19T02:21:17Z</time>
      </trkpt>
      <trkpt lat="53.38641" lon="7.90451">
        <ele>-1.2000000476837</ele>
        <time>2019-05-19T02:21:36Z</time>
      </trkpt>
      <trkpt lat="53.38677" lon="7.90689">
        <ele>-2</ele>
        <time>2019-05-19T02:21:51Z</time>
      </trkpt>
      <trkpt lat="53.38686" lon="7.90739">
        <ele>-2.4000000953674</ele>
        <time>2019-05-19T02:22:14Z</time>
      </trkpt>
      <trkpt lat="53.38683" lon="7.90718">
        <ele>-2.2000000476837</ele>
        <time>2019-05-19T02:22:35Z</time>
      </trkpt>
      <trkpt lat="53.38697" lon="7.90708">
        <ele>-2.2000000476837</ele>
        <time>2019-05-19T02:22:56Z</time>
      </trkpt>
      <trkpt lat="53.3869" lon="7.90739">
        <ele>-2.2000000476837</ele>
        <time>2019-05-19T02:23:20Z</time>
      </trkpt>
      <trkpt lat="53.38705" lon="7.90852">
        <ele>-2.4000000953674</ele>
        <time>2019-05-19T02:23:44Z</time>
      </trkpt>
      <trkpt lat="53.38717" lon="7.90929">
        <ele>-2.5999999046326</ele>
        <time>2019-05-19T02:24:07Z</time>
      </trkpt>
      <trkpt lat="53.3873" lon="7.91024">
        <ele>-2.4000000953674</ele>
        <time>2019-05-19T02:24:26Z</time>
      </trkpt>
      <trkpt lat="53.38746" lon="7.91141">
        <ele>-2</ele>
        <time>2019-05-19T02:24:48Z</time>
      </trkpt>
      <trkpt lat="53.38772" lon="7.91308">
        <ele>-2.2000000476837</ele>
        <time>2019-05-19T02:25:11Z</time>
      </trkpt>
      <trkpt lat="53.38798" lon="7.91492">
        <ele>-3.5999999046326</ele>
        <time>2019-05-19T02:25:35Z</time>
      </trkpt>
      <trkpt lat="53.38885" lon="7.91794">
        <ele>-2.5999999046326</ele>
        <time>2019-05-19T02:26:04Z</time>
      </trkpt>
      <trkpt lat="53.3892" lon="7.91918">
        <ele>-2.4000000953674</ele>
        <time>2019-05-19T02:26:27Z</time>
      </trkpt>
      <trkpt lat="53.38941" lon="7.91996">
        <ele>-2.5999999046326</ele>
        <time>2019-05-19T02:26:47Z</time>
      </trkpt>
      <trkpt lat="53.38974" lon="7.92097">
        <ele>-2.5999999046326</ele>
        <time>2019-05-19T02:27:12Z</time>
      </trkpt>
      <trkpt lat="53.39024" lon="7.92245">
        <ele>-2.4000000953674</ele>
        <time>2019-05-19T02:27:25Z</time>
      </trkpt>
      <trkpt lat="53.39068" lon="7.9234">
        <ele>-2.4000000953674</ele>
        <time>2019-05-19T02:27:36Z</time>
      </trkpt>
      <trkpt lat="53.39157" lon="7.92498">
        <ele>-1.7999999523163</ele>
        <time>2019-05-19T02:27:54Z</time>
      </trkpt>
      <trkpt lat="53.39212" lon="7.92587">
        <ele>-1.6000000238419</ele>
        <time>2019-05-19T02:28:13Z</time>
      </trkpt>
      <trkpt lat="53.39252" lon="7.92695">
        <ele>-2.4000000953674</ele>
        <time>2019-05-19T02:28:32Z</time>
      </trkpt>
      <trkpt lat="53.39263" lon="7.92753">
        <ele>-2.5999999046326</ele>
        <time>2019-05-19T02:28:53Z</time>
      </trkpt>
      <trkpt lat="53.39293" lon="7.92875">
        <ele>-2.7999999523163</ele>
        <time>2019-05-19T02:29:07Z</time>
      </trkpt>
      <trkpt lat="53.39296" lon="7.92878">
        <ele>-3.4000000953674</ele>
        <time>2019-05-19T02:29:29Z</time>
      </trkpt>
      <trkpt lat="53.39314" lon="7.92941">
        <ele>-3.2000000476837</ele>
        <time>2019-05-19T02:29:48Z</time>
      </trkpt>
      <trkpt lat="53.39298" lon="7.92964">
        <ele>-3</ele>
        <time>2019-05-19T02:37:13Z</time>
      </trkpt>
      <trkpt lat="53.39148" lon="7.93061">
        <ele>-4.8000001907349</ele>
        <time>2019-05-19T02:37:29Z</time>
      </trkpt>
      <trkpt lat="53.3911" lon="7.93095">
        <ele>-5.8000001907349</ele>
        <time>2019-05-19T02:37:52Z</time>
      </trkpt>
      <trkpt lat="53.39016" lon="7.93239">
        <ele>-6.8000001907349</ele>
        <time>2019-05-19T02:38:13Z</time>
      </trkpt>
      <trkpt lat="53.39012" lon="7.93251">
        <ele>-6.5999999046326</ele>
        <time>2019-05-19T02:38:32Z</time>
      </trkpt>
      <trkpt lat="53.38973" lon="7.93371">
        <ele>-6.4000000953674</ele>
        <time>2019-05-19T02:38:48Z</time>
      </trkpt>
      <trkpt lat="53.38957" lon="7.93472">
        <ele>-6.1999998092651</ele>
        <time>2019-05-19T02:39:10Z</time>
      </trkpt>
      <trkpt lat="53.38947" lon="7.93571">
        <ele>-6.1999998092651</ele>
        <time>2019-05-19T02:39:26Z</time>
      </trkpt>
      <trkpt lat="53.38934" lon="7.93754">
        <ele>-6.4000000953674</ele>
        <time>2019-05-19T02:39:43Z</time>
      </trkpt>
      <trkpt lat="53.38923" lon="7.9392">
        <ele>-5.8000001907349</ele>
        <time>2019-05-19T02:40:00Z</time>
      </trkpt>
      <trkpt lat="53.38917" lon="7.94051">
        <ele>-5.5999999046326</ele>
        <time>2019-05-19T02:40:19Z</time>
      </trkpt>
      <trkpt lat="53.38909" lon="7.94154">
        <ele>-5.1999998092651</ele>
        <time>2019-05-19T02:40:47Z</time>
      </trkpt>
      <trkpt lat="53.38895" lon="7.9437">
        <ele>-4</ele>
        <time>2019-05-19T02:41:10Z</time>
      </trkpt>
      <trkpt lat="53.38909" lon="7.94544">
        <ele>-4.4000000953674</ele>
        <time>2019-05-19T02:41:34Z</time>
      </trkpt>
      <trkpt lat="53.38925" lon="7.94645">
        <ele>-5.1999998092651</ele>
        <time>2019-05-19T02:41:58Z</time>
      </trkpt>
      <trkpt lat="53.38971" lon="7.94817">
        <ele>-6.1999998092651</ele>
        <time>2019-05-19T02:42:23Z</time>
      </trkpt>
      <trkpt lat="53.38992" lon="7.9497">
        <ele>-6.5999999046326</ele>
        <time>2019-05-19T02:42:49Z</time>
      </trkpt>
      <trkpt lat="53.39003" lon="7.95104">
        <ele>-6.1999998092651</ele>
        <time>2019-05-19T02:43:14Z</time>
      </trkpt>
      <trkpt lat="53.39001" lon="7.95148">
        <ele>-6</ele>
        <time>2019-05-19T02:43:34Z</time>
      </trkpt>
      <trkpt lat="53.39003" lon="7.95156">
        <ele>-4.8000001907349</ele>
        <time>2019-05-19T02:43:42Z</time>
      </trkpt>
      <trkpt lat="53.3901" lon="7.95194">
        <ele>-4.8000001907349</ele>
        <time>2019-05-19T02:43:49Z</time>
      </trkpt>
      <trkpt lat="53.39009" lon="7.95265">
        <ele>-4.5999999046326</ele>
        <time>2019-05-19T02:43:59Z</time>
      </trkpt>
      <trkpt lat="53.38973" lon="7.9542">
        <ele>-3.4000000953674</ele>
        <time>2019-05-19T02:44:19Z</time>
      </trkpt>
      <trkpt lat="53.38963" lon="7.95497">
        <ele>-3.2000000476837</ele>
        <time>2019-05-19T02:44:41Z</time>
      </trkpt>
      <trkpt lat="53.38963" lon="7.95605">
        <ele>-3.2000000476837</ele>
        <time>2019-05-19T02:45:03Z</time>
      </trkpt>
      <trkpt lat="53.38962" lon="7.95616">
        <ele>-3</ele>
        <time>2019-05-19T02:45:21Z</time>
      </trkpt>
      <trkpt lat="53.38961" lon="7.95553">
        <ele>-3</ele>
        <time>2019-05-19T02:45:41Z</time>
      </trkpt>
      <trkpt lat="53.38973" lon="7.95429">
        <ele>-3.2000000476837</ele>
        <time>2019-05-19T02:46:05Z</time>
      </trkpt>
      <trkpt lat="53.38998" lon="7.95329">
        <ele>-3.5999999046326</ele>
        <time>2019-05-19T02:46:29Z</time>
      </trkpt>
      <trkpt lat="53.39015" lon="7.95231">
        <ele>-4.1999998092651</ele>
        <time>2019-05-19T02:46:48Z</time>
      </trkpt>
      <trkpt lat="53.38999" lon="7.9519">
        <ele>-4.8000001907349</ele>
        <time>2019-05-19T02:47:11Z</time>
      </trkpt>
      <trkpt lat="53.38952" lon="7.95176">
        <ele>-5</ele>
        <time>2019-05-19T02:47:33Z</time>
      </trkpt>
      <trkpt lat="53.38844" lon="7.95162">
        <ele>-4.5999999046326</ele>
        <time>2019-05-19T02:47:44Z</time>
      </trkpt>
      <trkpt lat="53.38797" lon="7.95208">
        <ele>-4.5999999046326</ele>
        <time>2019-05-19T02:48:04Z</time>
      </trkpt>
      <trkpt lat="53.38766" lon="7.95291">
        <ele>-4.5999999046326</ele>
        <time>2019-05-19T02:48:27Z</time>
      </trkpt>
      <trkpt lat="53.38693" lon="7.95415">
        <ele>-3.2000000476837</ele>
        <time>2019-05-19T02:48:50Z</time>
      </trkpt>
      <trkpt lat="53.38682" lon="7.95448">
        <ele>-3.4000000953674</ele>
        <time>2019-05-19T02:49:13Z</time>
      </trkpt>
      <trkpt lat="53.3865" lon="7.95441">
        <ele>-3.4000000953674</ele>
        <time>2019-05-19T02:49:33Z</time>
      </trkpt>
      <trkpt lat="53.38616" lon="7.95435">
        <ele>-3.2000000476837</ele>
        <time>2019-05-19T02:49:45Z</time>
      </trkpt>
      <trkpt lat="53.38586" lon="7.95425">
        <ele>-3.4000000953674</ele>
        <time>2019-05-19T02:50:02Z</time>
      </trkpt>
      <trkpt lat="53.38589" lon="7.95422">
        <ele>-3.2000000476837</ele>
        <time>2019-05-19T02:50:12Z</time>
      </trkpt>
      <trkpt lat="53.38637" lon="7.95438">
        <ele>-3</ele>
        <time>2019-05-19T02:50:32Z</time>
      </trkpt>
      <trkpt lat="53.38691" lon="7.95448">
        <ele>-3</ele>
        <time>2019-05-19T02:50:48Z</time>
      </trkpt>
      <trkpt lat="53.38699" lon="7.9542">
        <ele>-3</ele>
        <time>2019-05-19T02:51:07Z</time>
      </trkpt>
      <trkpt lat="53.38738" lon="7.95344">
        <ele>-3.2000000476837</ele>
        <time>2019-05-19T02:51:23Z</time>
      </trkpt>
      <trkpt lat="53.38773" lon="7.95255">
        <ele>-3.5999999046326</ele>
        <time>2019-05-19T02:51:44Z</time>
      </trkpt>
      <trkpt lat="53.38771" lon="7.95216">
        <ele>-4</ele>
        <time>2019-05-19T02:52:07Z</time>
      </trkpt>
      <trkpt lat="53.38747" lon="7.95182">
        <ele>-4.4000000953674</ele>
        <time>2019-05-19T02:52:26Z</time>
      </trkpt>
      <trkpt lat="53.38696" lon="7.95227">
        <ele>-4.4000000953674</ele>
        <time>2019-05-19T02:52:48Z</time>
      </trkpt>
      <trkpt lat="53.38712" lon="7.95213">
        <ele>-6.4000000953674</ele>
        <time>2019-05-19T02:53:04Z</time>
      </trkpt>
      <trkpt lat="53.38725" lon="7.95219">
        <ele>-6.1999998092651</ele>
        <time>2019-05-19T02:53:30Z</time>
      </trkpt>
      <trkpt lat="53.38749" lon="7.9519">
        <ele>-6</ele>
        <time>2019-05-19T02:53:46Z</time>
      </trkpt>
      <trkpt lat="53.38783" lon="7.9523">
        <ele>-6.4000000953674</ele>
        <time>2019-05-19T02:54:04Z</time>
      </trkpt>
      <trkpt lat="53.3884" lon="7.9516">
        <ele>-6</ele>
        <time>2019-05-19T02:54:24Z</time>
      </trkpt>
      <trkpt lat="53.38929" lon="7.95164">
        <ele>-6.4000000953674</ele>
        <time>2019-05-19T02:54:43Z</time>
      </trkpt>
      <trkpt lat="53.38991" lon="7.95171">
        <ele>-6.4000000953674</ele>
        <time>2019-05-19T02:55:02Z</time>
      </trkpt>
      <trkpt lat="53.38998" lon="7.95173">
        <ele>-6.8000001907349</ele>
        <time>2019-05-19T02:55:22Z</time>
      </trkpt>
      <trkpt lat="53.39008" lon="7.95202">
        <ele>-6.8000001907349</ele>
        <time>2019-05-19T02:55:42Z</time>
      </trkpt>
      <trkpt lat="53.39005" lon="7.95308">
        <ele>-6.4000000953674</ele>
        <time>2019-05-19T02:56:03Z</time>
      </trkpt>
      <trkpt lat="53.38978" lon="7.95452">
        <ele>-5.4000000953674</ele>
        <time>2019-05-19T02:56:17Z</time>
      </trkpt>
      <trkpt lat="53.38967" lon="7.95593">
        <ele>-5.1999998092651</ele>
        <time>2019-05-19T02:56:37Z</time>
      </trkpt>
      <trkpt lat="53.38982" lon="7.95694">
        <ele>-5</ele>
        <time>2019-05-19T02:57:02Z</time>
      </trkpt>
      <trkpt lat="53.39011" lon="7.95786">
        <ele>-5</ele>
        <time>2019-05-19T02:57:26Z</time>
      </trkpt>
      <trkpt lat="53.39042" lon="7.95901">
        <ele>-4.5999999046326</ele>
        <time>2019-05-19T02:57:52Z</time>
      </trkpt>
      <trkpt lat="53.3906" lon="7.9596">
        <ele>-4.8000001907349</ele>
        <time>2019-05-19T02:58:09Z</time>
      </trkpt>
      <trkpt lat="53.39122" lon="7.96152">
        <ele>-4.8000001907349</ele>
        <time>2019-05-19T02:58:29Z</time>
      </trkpt>
      <trkpt lat="53.39149" lon="7.96244">
        <ele>-5</ele>
        <time>2019-05-19T02:58:43Z</time>
      </trkpt>
      <trkpt lat="53.39187" lon="7.96373">
        <ele>-4.8000001907349</ele>
        <time>2019-05-19T02:58:58Z</time>
      </trkpt>
      <trkpt lat="53.39208" lon="7.96435">
        <ele>-5</ele>
        <time>2019-05-19T02:59:16Z</time>
      </trkpt>
      <trkpt lat="53.39255" lon="7.96605">
        <ele>-4.5999999046326</ele>
        <time>2019-05-19T02:59:36Z</time>
      </trkpt>
      <trkpt lat="53.39365" lon="7.96991">
        <ele>-6.1999998092651</ele>
        <time>2019-05-19T02:59:51Z</time>
      </trkpt>
      <trkpt lat="53.39389" lon="7.97068">
        <ele>-6.5999999046326</ele>
        <time>2019-05-19T03:00:16Z</time>
      </trkpt>
      <trkpt lat="53.39415" lon="7.97173">
        <ele>-6.8000001907349</ele>
        <time>2019-05-19T03:00:37Z</time>
      </trkpt>
      <trkpt lat="53.39446" lon="7.97287">
        <ele>-6.8000001907349</ele>
        <time>2019-05-19T03:00:59Z</time>
      </trkpt>
      <trkpt lat="53.39466" lon="7.97497">
        <ele>-8</ele>
        <time>2019-05-19T03:01:22Z</time>
      </trkpt>
      <trkpt lat="53.39458" lon="7.97695">
        <ele>-8</ele>
        <time>2019-05-19T03:01:47Z</time>
      </trkpt>
      <trkpt lat="53.3945" lon="7.97865">
        <ele>-7.4000000953674</ele>
        <time>2019-05-19T03:02:09Z</time>
      </trkpt>
      <trkpt lat="53.39436" lon="7.98025">
        <ele>-7.8000001907349</ele>
        <time>2019-05-19T03:02:23Z</time>
      </trkpt>
      <trkpt lat="53.3943" lon="7.98147">
        <ele>-8</ele>
        <time>2019-05-19T03:02:34Z</time>
      </trkpt>
      <trkpt lat="53.39425" lon="7.98257">
        <ele>-8.6000003814697</ele>
        <time>2019-05-19T03:02:49Z</time>
      </trkpt>
      <trkpt lat="53.39417" lon="7.98376">
        <ele>-8.8000001907349</ele>
        <time>2019-05-19T03:03:28Z</time>
      </trkpt>
      <trkpt lat="53.39404" lon="7.98512">
        <ele>-9.1999998092651</ele>
        <time>2019-05-19T03:03:38Z</time>
      </trkpt>
      <trkpt lat="53.39382" lon="7.98681">
        <ele>-9.6000003814697</ele>
        <time>2019-05-19T03:03:54Z</time>
      </trkpt>
      <trkpt lat="53.39358" lon="7.98882">
        <ele>-10</ele>
        <time>2019-05-19T03:04:10Z</time>
      </trkpt>
      <trkpt lat="53.39343" lon="7.98981">
        <ele>-10.39999961853</ele>
        <time>2019-05-19T03:04:25Z</time>
      </trkpt>
      <trkpt lat="53.39327" lon="7.99057">
        <ele>-11.199999809265</ele>
        <time>2019-05-19T03:04:38Z</time>
      </trkpt>
      <trkpt lat="53.39306" lon="7.99194">
        <ele>-11.60000038147</ele>
        <time>2019-05-19T03:04:58Z</time>
      </trkpt>
      <trkpt lat="53.39285" lon="7.99282">
        <ele>-11.60000038147</ele>
        <time>2019-05-19T03:05:14Z</time>
      </trkpt>
      <trkpt lat="53.39274" lon="7.99386">
        <ele>-11.39999961853</ele>
        <time>2019-05-19T03:05:32Z</time>
      </trkpt>
      <trkpt lat="53.39263" lon="7.99518">
        <ele>-11.60000038147</ele>
        <time>2019-05-19T03:05:47Z</time>
      </trkpt>
      <trkpt lat="53.3925" lon="7.99644">
        <ele>-10</ele>
        <time>2019-05-19T03:06:04Z</time>
      </trkpt>
      <trkpt lat="53.39226" lon="7.99757">
        <ele>-9.3999996185303</ele>
        <time>2019-05-19T03:06:20Z</time>
      </trkpt>
      <trkpt lat="53.39197" lon="7.99856">
        <ele>-8.6000003814697</ele>
        <time>2019-05-19T03:06:32Z</time>
      </trkpt>
      <trkpt lat="53.39171" lon="7.9993">
        <ele>-8.1999998092651</ele>
        <time>2019-05-19T03:06:44Z</time>
      </trkpt>
      <trkpt lat="53.39147" lon="8.00021">
        <ele>-8.3999996185303</ele>
        <time>2019-05-19T03:06:53Z</time>
      </trkpt>
      <trkpt lat="53.39117" lon="8.00138">
        <ele>-8.8000001907349</ele>
        <time>2019-05-19T03:07:05Z</time>
      </trkpt>
      <trkpt lat="53.39088" lon="8.00212">
        <ele>-8.8000001907349</ele>
        <time>2019-05-19T03:07:16Z</time>
      </trkpt>
      <trkpt lat="53.39039" lon="8.00325">
        <ele>-9</ele>
        <time>2019-05-19T03:07:36Z</time>
      </trkpt>
      <trkpt lat="53.38999" lon="8.004">
        <ele>-10</ele>
        <time>2019-05-19T03:08:00Z</time>
      </trkpt>
      <trkpt lat="53.38926" lon="8.00535">
        <ele>-9.8000001907349</ele>
        <time>2019-05-19T03:08:18Z</time>
      </trkpt>
      <trkpt lat="53.3888" lon="8.00618">
        <ele>-9.6000003814697</ele>
        <time>2019-05-19T03:08:27Z</time>
      </trkpt>
      <trkpt lat="53.38763" lon="8.00819">
        <ele>-8.3999996185303</ele>
        <time>2019-05-19T03:08:40Z</time>
      </trkpt>
      <trkpt lat="53.3871" lon="8.00975">
        <ele>-7.5999999046326</ele>
        <time>2019-05-19T03:08:57Z</time>
      </trkpt>
      <trkpt lat="53.38702" lon="8.00967">
        <ele>-7.8000001907349</ele>
        <time>2019-05-19T03:09:09Z</time>
      </trkpt>
      <trkpt lat="53.3869" lon="8.00931">
        <ele>-7.1999998092651</ele>
        <time>2019-05-19T03:09:27Z</time>
      </trkpt>
      <trkpt lat="53.38541" lon="8.00802">
        <ele>-7.1999998092651</ele>
        <time>2019-05-19T03:09:44Z</time>
      </trkpt>
      <trkpt lat="53.38481" lon="8.00763">
        <ele>-7</ele>
        <time>2019-05-19T03:09:54Z</time>
      </trkpt>
      <trkpt lat="53.38494" lon="8.00772">
        <ele>-7</ele>
        <time>2019-05-19T03:10:11Z</time>
      </trkpt>
      <trkpt lat="53.38561" lon="8.00819">
        <ele>-7.1999998092651</ele>
        <time>2019-05-19T03:10:25Z</time>
      </trkpt>
      <trkpt lat="53.38574" lon="8.00847">
        <ele>-7</ele>
        <time>2019-05-19T03:10:35Z</time>
      </trkpt>
      <trkpt lat="53.38542" lon="8.00872">
        <ele>-8</ele>
        <time>2019-05-19T03:10:50Z</time>
      </trkpt>
      <trkpt lat="53.38495" lon="8.0087">
        <ele>-8</ele>
        <time>2019-05-19T03:11:00Z</time>
      </trkpt>
      <trkpt lat="53.38487" lon="8.00869">
        <ele>-8.3999996185303</ele>
        <time>2019-05-19T03:11:19Z</time>
      </trkpt>
      <trkpt lat="53.38562" lon="8.00879">
        <ele>10</ele>
        <time>2019-05-19T03:11:31Z</time>
      </trkpt>
      <trkpt lat="53.3857" lon="8.00839">
        <ele>10</ele>
        <time>2019-05-19T03:11:48Z</time>
      </trkpt>
      <trkpt lat="53.38639" lon="8.00891">
        <ele>10</ele>
        <time>2019-05-19T03:12:04Z</time>
      </trkpt>
      <trkpt lat="53.38684" lon="8.0096">
        <ele>-0.20000000298023</ele>
        <time>2019-05-19T03:12:16Z</time>
      </trkpt>
      <trkpt lat="53.38694" lon="8.00966">
        <ele>10</ele>
        <time>2019-05-19T03:12:34Z</time>
      </trkpt>
      <trkpt lat="53.38663" lon="8.0112">
        <ele>-1.6000000238419</ele>
        <time>2019-05-19T03:12:56Z</time>
      </trkpt>
      <trkpt lat="53.38647" lon="8.01283">
        <ele>-2.2000000476837</ele>
        <time>2019-05-19T03:13:14Z</time>
      </trkpt>
      <trkpt lat="53.38659" lon="8.01533">
        <ele>-1.7999999523163</ele>
        <time>2019-05-19T03:13:34Z</time>
      </trkpt>
      <trkpt lat="53.38685" lon="8.0171">
        <ele>-1.3999999761581</ele>
        <time>2019-05-19T03:13:47Z</time>
      </trkpt>
      <trkpt lat="53.38705" lon="8.01855">
        <ele>-1.6000000238419</ele>
        <time>2019-05-19T03:13:52Z</time>
      </trkpt>
      <trkpt lat="53.38766" lon="8.02256">
        <ele>-2</ele>
        <time>2019-05-19T03:14:00Z</time>
      </trkpt>
      <trkpt lat="53.3879" lon="8.02418">
        <ele>-2.5999999046326</ele>
        <time>2019-05-19T03:14:06Z</time>
      </trkpt>
      <trkpt lat="53.38832" lon="8.0265">
        <ele>-3.2000000476837</ele>
        <time>2019-05-19T03:15:09Z</time>
      </trkpt>
      <trkpt lat="53.38865" lon="8.02913">
        <ele>-3.5999999046326</ele>
        <time>2019-05-19T03:15:18Z</time>
      </trkpt>
      <trkpt lat="53.38897" lon="8.03127">
        <ele>-3.7999999523163</ele>
        <time>2019-05-19T03:15:31Z</time>
      </trkpt>
      <trkpt lat="53.38926" lon="8.03327">
        <ele>-3.5999999046326</ele>
        <time>2019-05-19T03:15:40Z</time>
      </trkpt>
      <trkpt lat="53.38953" lon="8.03488">
        <ele>-3.5999999046326</ele>
        <time>2019-05-19T03:15:58Z</time>
      </trkpt>
      <trkpt lat="53.38968" lon="8.0369">
        <ele>-2.7999999523163</ele>
        <time>2019-05-19T03:16:16Z</time>
      </trkpt>
      <trkpt lat="53.38954" lon="8.03851">
        <ele>-2.4000000953674</ele>
        <time>2019-05-19T03:16:33Z</time>
      </trkpt>
      <trkpt lat="53.38926" lon="8.03966">
        <ele>-2</ele>
        <time>2019-05-19T03:16:46Z</time>
      </trkpt>
      <trkpt lat="53.38849" lon="8.04272">
        <ele>-2</ele>
        <time>2019-05-19T03:17:02Z</time>
      </trkpt>
      <trkpt lat="53.38817" lon="8.04392">
        <ele>-1.7999999523163</ele>
        <time>2019-05-19T03:18:50Z</time>
      </trkpt>
      <trkpt lat="53.38786" lon="8.04511">
        <ele>-1.7999999523163</ele>
        <time>2019-05-19T03:19:08Z</time>
      </trkpt>
      <trkpt lat="53.38746" lon="8.04669">
        <ele>-1.6000000238419</ele>
        <time>2019-05-19T03:19:17Z</time>
      </trkpt>
      <trkpt lat="53.38706" lon="8.04785">
        <ele>-1</ele>
        <time>2019-05-19T03:19:34Z</time>
      </trkpt>
      <trkpt lat="53.38647" lon="8.04922">
        <ele>-0.40000000596046</ele>
        <time>2019-05-19T03:19:51Z</time>
      </trkpt>
      <trkpt lat="53.38611" lon="8.05011">
        <ele>-0.40000000596046</ele>
        <time>2019-05-20T07:23:42Z</time>
      </trkpt>
      <trkpt lat="53.38576" lon="8.05133">
        <ele>-0.20000000298023</ele>
        <time>2019-05-20T07:24:18Z</time>
      </trkpt>
      <trkpt lat="53.3855" lon="8.0528">
        <ele>0.60000002384186</ele>
        <time>2019-05-20T07:24:38Z</time>
      </trkpt>
      <trkpt lat="53.38523" lon="8.05444">
        <ele>1.2000000476837</ele>
        <time>2019-05-20T07:26:06Z</time>
      </trkpt>
      <trkpt lat="53.38513" lon="8.05572">
        <ele>1.7999999523163</ele>
        <time>2019-05-20T07:26:17Z</time>
      </trkpt>
      <trkpt lat="53.38508" lon="8.05672">
        <ele>1.6000000238419</ele>
        <time>2019-05-20T07:26:30Z</time>
      </trkpt>
      <trkpt lat="53.38508" lon="8.05686">
        <ele>1.7999999523163</ele>
        <time>2019-05-20T07:26:47Z</time>
      </trkpt>
      <trkpt lat="53.38501" lon="8.05741">
        <ele>1.6000000238419</ele>
        <time>2019-05-20T07:27:06Z</time>
      </trkpt>
      <trkpt lat="53.38486" lon="8.0595">
        <ele>2</ele>
        <time>2019-05-20T07:27:16Z</time>
      </trkpt>
      <trkpt lat="53.38461" lon="8.0613">
        <ele>1.3999999761581</ele>
        <time>2019-05-20T07:27:49Z</time>
      </trkpt>
      <trkpt lat="53.38415" lon="8.06427">
        <ele>2.5999999046326</ele>
        <time>2019-05-20T07:27:55Z</time>
      </trkpt>
      <trkpt lat="53.38427" lon="8.0653">
        <ele>3.4000000953674</ele>
        <time>2019-05-20T07:28:07Z</time>
      </trkpt>
      <trkpt lat="53.38452" lon="8.06647">
        <ele>3.5999999046326</ele>
        <time>2019-05-20T07:28:23Z</time>
      </trkpt>
      <trkpt lat="53.38472" lon="8.06748">
        <ele>4</ele>
        <time>2019-05-20T07:28:32Z</time>
      </trkpt>
      <trkpt lat="53.38504" lon="8.06919">
        <ele>4</ele>
        <time>2019-05-20T07:28:46Z</time>
      </trkpt>
      <trkpt lat="53.38519" lon="8.07023">
        <ele>4.4000000953674</ele>
        <time>2019-05-20T07:29:01Z</time>
      </trkpt>
      <trkpt lat="53.38598" lon="8.07397">
        <ele>4.8000001907349</ele>
        <time>2019-05-20T07:29:11Z</time>
      </trkpt>
      <trkpt lat="53.38731" lon="8.07723">
        <ele>4.8000001907349</ele>
        <time>2019-05-20T07:29:29Z</time>
      </trkpt>
      <trkpt lat="53.38836" lon="8.0798">
        <ele>5.1999998092651</ele>
        <time>2019-05-20T07:29:44Z</time>
      </trkpt>
      <trkpt lat="53.389" lon="8.08138">
        <ele>5</ele>
        <time>2019-05-20T07:30:01Z</time>
      </trkpt>
      <trkpt lat="53.3901" lon="8.08417">
        <ele>4.4000000953674</ele>
        <time>2019-05-20T07:30:18Z</time>
      </trkpt>
      <trkpt lat="53.3907" lon="8.08564">
        <ele>4.4000000953674</ele>
        <time>2019-05-20T07:30:37Z</time>
      </trkpt>
      <trkpt lat="53.39114" lon="8.0868">
        <ele>4.1999998092651</ele>
        <time>2019-05-20T07:30:57Z</time>
      </trkpt>
      <trkpt lat="53.3916" lon="8.08815">
        <ele>3.5999999046326</ele>
        <time>2019-05-20T07:31:14Z</time>
      </trkpt>
      <trkpt lat="53.39201" lon="8.08914">
        <ele>3</ele>
        <time>2019-05-20T07:31:33Z</time>
      </trkpt>
      <trkpt lat="53.39277" lon="8.09028">
        <ele>2.4000000953674</ele>
        <time>2019-05-20T07:31:51Z</time>
      </trkpt>
      <trkpt lat="53.3934" lon="8.0913">
        <ele>2.2000000476837</ele>
        <time>2019-05-20T07:32:07Z</time>
      </trkpt>
      <trkpt lat="53.39384" lon="8.09264">
        <ele>2.4000000953674</ele>
        <time>2019-05-20T07:32:25Z</time>
      </trkpt>
      <trkpt lat="53.39403" lon="8.0942">
        <ele>3.2000000476837</ele>
        <time>2019-05-20T07:32:44Z</time>
      </trkpt>
      <trkpt lat="53.39429" lon="8.09551">
        <ele>3.5999999046326</ele>
        <time>2019-05-20T07:33:00Z</time>
      </trkpt>
      <trkpt lat="53.39468" lon="8.09648">
        <ele>3.5999999046326</ele>
        <time>2019-05-20T07:33:12Z</time>
      </trkpt>
      <trkpt lat="53.39552" lon="8.09824">
        <ele>2.5999999046326</ele>
        <time>2019-05-20T07:33:31Z</time>
      </trkpt>
      <trkpt lat="53.39596" lon="8.09928">
        <ele>1.6000000238419</ele>
        <time>2019-05-20T07:33:46Z</time>
      </trkpt>
      <trkpt lat="53.39647" lon="8.1014">
        <ele>2.7999999523163</ele>
        <time>2019-05-20T07:34:04Z</time>
      </trkpt>
      <trkpt lat="53.39659" lon="8.10199">
        <ele>2.5999999046326</ele>
        <time>2019-05-20T07:34:17Z</time>
      </trkpt>
      <trkpt lat="53.39667" lon="8.10299">
        <ele>2.5999999046326</ele>
        <time>2019-05-20T07:34:26Z</time>
      </trkpt>
      <trkpt lat="53.39681" lon="8.10429">
        <ele>2.7999999523163</ele>
        <time>2019-05-20T07:34:35Z</time>
      </trkpt>
      <trkpt lat="53.39707" lon="8.10455">
        <ele>2.7999999523163</ele>
        <time>2019-05-20T07:34:51Z</time>
      </trkpt>
      <trkpt lat="53.39769" lon="8.10598">
        <ele>-1</ele>
        <time>2019-05-20T07:35:07Z</time>
      </trkpt>
      <trkpt lat="53.39792" lon="8.10686">
        <ele>10</ele>
        <time>2019-05-20T07:35:23Z</time>
      </trkpt>
      <trkpt lat="53.39887" lon="8.11081">
        <ele>-3</ele>
        <time>2019-05-20T07:35:42Z</time>
      </trkpt>
      <trkpt lat="53.39921" lon="8.11227">
        <ele>-3.4000000953674</ele>
        <time>2019-05-20T07:35:52Z</time>
      </trkpt>
      <trkpt lat="53.39928" lon="8.11276">
        <ele>-3.4000000953674</ele>
        <time>2019-05-20T07:36:08Z</time>
      </trkpt>
      <trkpt lat="53.39932" lon="8.113">
        <ele>-3.5999999046326</ele>
        <time>2019-05-20T07:36:27Z</time>
      </trkpt>
      <trkpt lat="53.3997" lon="8.11418">
        <ele>-3.4000000953674</ele>
        <time>2019-05-20T07:36:46Z</time>
      </trkpt>
      <trkpt lat="53.40001" lon="8.11536">
        <ele>-3.5999999046326</ele>
        <time>2019-05-20T07:37:03Z</time>
      </trkpt>
      <trkpt lat="53.39993" lon="8.11697">
        <ele>-4.4000000953674</ele>
        <time>2019-05-20T07:37:20Z</time>
      </trkpt>
      <trkpt lat="53.3998" lon="8.11788">
        <ele>-5</ele>
        <time>2019-05-20T07:37:31Z</time>
      </trkpt>
      <trkpt lat="53.3997" lon="8.1184">
        <ele>-5</ele>
        <time>2019-05-20T07:37:53Z</time>
      </trkpt>
      <trkpt lat="53.39947" lon="8.11988">
        <ele>-5.1999998092651</ele>
        <time>2019-05-20T07:38:04Z</time>
      </trkpt>
      <trkpt lat="53.39947" lon="8.12038">
        <ele>-5.5999999046326</ele>
        <time>2019-05-20T07:38:23Z</time>
      </trkpt>
      <trkpt lat="53.39939" lon="8.12129">
        <ele>-5.5999999046326</ele>
        <time>2019-05-20T07:38:43Z</time>
      </trkpt>
      <trkpt lat="53.39935" lon="8.12174">
        <ele>-6</ele>
        <time>2019-05-20T07:39:07Z</time>
      </trkpt>
      <trkpt lat="53.39933" lon="8.1221">
        <ele>-6</ele>
        <time>2019-05-20T07:39:24Z</time>
      </trkpt>
      <trkpt lat="53.39922" lon="8.12287">
        <ele>-6.1999998092651</ele>
        <time>2019-05-20T07:39:38Z</time>
      </trkpt>
      <trkpt lat="53.39883" lon="8.12441">
        <ele>-6.4000000953674</ele>
        <time>2019-05-20T07:39:43Z</time>
      </trkpt>
      <trkpt lat="53.39852" lon="8.12535">
        <ele>-6</ele>
        <time>2019-05-20T07:39:52Z</time>
      </trkpt>
      <trkpt lat="53.39835" lon="8.1259">
        <ele>-6</ele>
        <time>2019-05-20T07:40:09Z</time>
      </trkpt>
      <trkpt lat="53.39832" lon="8.12682">
        <ele>-5</ele>
        <time>2019-05-20T07:40:35Z</time>
      </trkpt>
      <trkpt lat="53.39787" lon="8.12894">
        <ele>-5</ele>
        <time>2019-05-20T07:40:56Z</time>
      </trkpt>
      <trkpt lat="53.39754" lon="8.12984">
        <ele>-5.1999998092651</ele>
        <time>2019-05-20T07:41:11Z</time>
      </trkpt>
      <trkpt lat="53.39705" lon="8.13088">
        <ele>-5.1999998092651</ele>
        <time>2019-05-20T07:41:38Z</time>
      </trkpt>
      <trkpt lat="53.39669" lon="8.13183">
        <ele>-5.5999999046326</ele>
        <time>2019-05-20T07:41:58Z</time>
      </trkpt>
      <trkpt lat="53.39631" lon="8.1328">
        <ele>-5.1999998092651</ele>
        <time>2019-05-20T07:42:11Z</time>
      </trkpt>
      <trkpt lat="53.39599" lon="8.13323">
        <ele>-4.8000001907349</ele>
        <time>2019-05-20T07:42:22Z</time>
      </trkpt>
      <trkpt lat="53.39568" lon="8.13374">
        <ele>-4.8000001907349</ele>
        <time>2019-05-20T07:42:41Z</time>
      </trkpt>
      <trkpt lat="53.39519" lon="8.13426">
        <ele>-4.4000000953674</ele>
        <time>2019-05-20T07:43:00Z</time>
      </trkpt>
      <trkpt lat="53.395" lon="8.13491">
        <ele>-3.2000000476837</ele>
        <time>2019-05-20T07:43:11Z</time>
      </trkpt>
      <trkpt lat="53.39476" lon="8.13595">
        <ele>-2.2000000476837</ele>
        <time>2019-05-20T07:43:31Z</time>
      </trkpt>
      <trkpt lat="53.39437" lon="8.13757">
        <ele>0.80000001192093</ele>
        <time>2019-05-20T07:43:51Z</time>
      </trkpt>
      <trkpt lat="53.39423" lon="8.13813">
        <ele>1.3999999761581</ele>
        <time>2019-05-20T07:44:09Z</time>
      </trkpt>
      <trkpt lat="53.394" lon="8.13865">
        <ele>1.7999999523163</ele>
        <time>2019-05-20T07:44:31Z</time>
      </trkpt>
      <trkpt lat="53.39276" lon="8.14173">
        <ele>3.2000000476837</ele>
        <time>2019-05-20T07:44:53Z</time>
      </trkpt>
      <trkpt lat="53.3926" lon="8.14245">
        <ele>3.4000000953674</ele>
        <time>2019-05-20T07:45:15Z</time>
      </trkpt>
      <trkpt lat="53.39257" lon="8.14254">
        <ele>3</ele>
        <time>2019-05-20T07:45:29Z</time>
      </trkpt>
      <trkpt lat="53.39238" lon="8.14286">
        <ele>3.4000000953674</ele>
        <time>2019-05-20T07:45:39Z</time>
      </trkpt>
      <trkpt lat="53.39238" lon="8.14306">
        <ele>3.4000000953674</ele>
        <time>2019-05-20T07:45:56Z</time>
      </trkpt>
      <trkpt lat="53.39239" lon="8.14309">
        <ele>2.7999999523163</ele>
        <time>2019-05-20T07:46:09Z</time>
      </trkpt>
      <trkpt lat="53.39231" lon="8.14422">
        <ele>2.4000000953674</ele>
        <time>2019-05-20T07:46:22Z</time>
      </trkpt>
      <trkpt lat="53.39197" lon="8.14646">
        <ele>-0.60000002384186</ele>
        <time>2019-05-20T07:46:33Z</time>
      </trkpt>
      <trkpt lat="53.39165" lon="8.1474">
        <ele>-2.5999999046326</ele>
        <time>2019-05-20T07:46:44Z</time>
      </trkpt>
      <trkpt lat="53.39147" lon="8.14757">
        <ele>-3.7999999523163</ele>
        <time>2019-05-20T07:47:02Z</time>
      </trkpt>
      <trkpt lat="53.39139" lon="8.14805">
        <ele>-4.8000001907349</ele>
        <time>2019-05-20T07:47:20Z</time>
      </trkpt>
      <trkpt lat="53.39078" lon="8.14978">
        <ele>-6</ele>
        <time>2019-05-20T07:47:41Z</time>
      </trkpt>
      <trkpt lat="53.3902" lon="8.15134">
        <ele>-6.5999999046326</ele>
        <time>2019-05-20T07:48:01Z</time>
      </trkpt>
      <trkpt lat="53.38975" lon="8.15262">
        <ele>-6.5999999046326</ele>
        <time>2019-05-20T07:48:20Z</time>
      </trkpt>
      <trkpt lat="53.38943" lon="8.15359">
        <ele>-6.4000000953674</ele>
        <time>2019-05-20T07:48:41Z</time>
      </trkpt>
      <trkpt lat="53.38906" lon="8.1549">
        <ele>-6</ele>
        <time>2019-05-20T07:49:01Z</time>
      </trkpt>
      <trkpt lat="53.38898" lon="8.15654">
        <ele>-5.8000001907349</ele>
        <time>2019-05-20T07:49:25Z</time>
      </trkpt>
      <trkpt lat="53.38933" lon="8.15836">
        <ele>-6.5999999046326</ele>
        <time>2019-05-20T07:49:46Z</time>
      </trkpt>
      <trkpt lat="53.38978" lon="8.1602">
        <ele>-6.8000001907349</ele>
        <time>2019-05-20T07:50:07Z</time>
      </trkpt>
      <trkpt lat="53.38998" lon="8.16117">
        <ele>-5.8000001907349</ele>
        <time>2019-05-20T07:50:14Z</time>
      </trkpt>
      <trkpt lat="53.39039" lon="8.16332">
        <ele>-0.20000000298023</ele>
        <time>2019-05-20T07:50:23Z</time>
      </trkpt>
      <trkpt lat="53.39045" lon="8.16432">
        <ele>0.60000002384186</ele>
        <time>2019-05-20T07:50:32Z</time>
      </trkpt>
      <trkpt lat="53.39051" lon="8.16626">
        <ele>-0.80000001192093</ele>
        <time>2019-05-20T07:50:58Z</time>
      </trkpt>
      <trkpt lat="53.39096" lon="8.16798">
        <ele>-4.4000000953674</ele>
        <time>2019-05-20T07:51:28Z</time>
      </trkpt>
      <trkpt lat="53.39153" lon="8.16938">
        <ele>-5.4000000953674</ele>
        <time>2019-05-20T07:51:55Z</time>
      </trkpt>
      <trkpt lat="53.3918" lon="8.17015">
        <ele>-5.5999999046326</ele>
        <time>2019-05-20T07:52:18Z</time>
      </trkpt>
      <trkpt lat="53.39229" lon="8.17107">
        <ele>-5.5999999046326</ele>
        <time>2019-05-20T07:52:31Z</time>
      </trkpt>
      <trkpt lat="53.39261" lon="8.17186">
        <ele>-5.4000000953674</ele>
        <time>2019-05-20T07:52:52Z</time>
      </trkpt>
      <trkpt lat="53.39312" lon="8.17321">
        <ele>-4.5999999046326</ele>
        <time>2019-05-20T07:53:16Z</time>
      </trkpt>
      <trkpt lat="53.39368" lon="8.17469">
        <ele>-4</ele>
        <time>2019-05-20T07:53:38Z</time>
      </trkpt>
      <trkpt lat="53.39396" lon="8.17633">
        <ele>-3.5999999046326</ele>
        <time>2019-05-20T07:53:56Z</time>
      </trkpt>
      <trkpt lat="53.39391" lon="8.17753">
        <ele>-4.1999998092651</ele>
        <time>2019-05-20T07:54:21Z</time>
      </trkpt>
      <trkpt lat="53.39355" lon="8.1792">
        <ele>-4.4000000953674</ele>
        <time>2019-05-20T07:54:48Z</time>
      </trkpt>
      <trkpt lat="53.39313" lon="8.18073">
        <ele>-5.1999998092651</ele>
        <time>2019-05-20T07:55:11Z</time>
      </trkpt>
      <trkpt lat="53.39284" lon="8.18182">
        <ele>-5.4000000953674</ele>
        <time>2019-05-20T07:55:36Z</time>
      </trkpt>
      <trkpt lat="53.39239" lon="8.18343">
        <ele>-5.8000001907349</ele>
        <time>2019-05-20T07:56:01Z</time>
      </trkpt>
      <trkpt lat="53.39199" lon="8.18507">
        <ele>-6.5999999046326</ele>
        <time>2019-05-20T07:56:21Z</time>
      </trkpt>
      <trkpt lat="53.39151" lon="8.18685">
        <ele>-6.5999999046326</ele>
        <time>2019-05-20T07:56:35Z</time>
      </trkpt>
      <trkpt lat="53.3912" lon="8.18797">
        <ele>-6.8000001907349</ele>
        <time>2019-05-20T07:56:59Z</time>
      </trkpt>
      <trkpt lat="53.39075" lon="8.1896">
        <ele>-7</ele>
        <time>2019-05-20T07:57:22Z</time>
      </trkpt>
      <trkpt lat="53.39072" lon="8.18998">
        <ele>-7</ele>
        <time>2019-05-20T07:57:47Z</time>
      </trkpt>
      <trkpt lat="53.39147" lon="8.19064">
        <ele>-8.3999996185303</ele>
        <time>2019-05-20T07:58:11Z</time>
      </trkpt>
      <trkpt lat="53.39182" lon="8.19095">
        <ele>-8.3999996185303</ele>
        <time>2019-05-20T07:58:34Z</time>
      </trkpt>
      <trkpt lat="53.39253" lon="8.19156">
        <ele>-8.1999998092651</ele>
        <time>2019-05-20T07:58:55Z</time>
      </trkpt>
      <trkpt lat="53.39318" lon="8.19214">
        <ele>-8.1999998092651</ele>
        <time>2019-05-20T07:59:13Z</time>
      </trkpt>
      <trkpt lat="53.39398" lon="8.19283">
        <ele>-8</ele>
        <time>2019-05-20T07:59:40Z</time>
      </trkpt>
      <trkpt lat="53.39406" lon="8.19305">
        <ele>-8.1999998092651</ele>
        <time>2019-05-20T08:00:05Z</time>
      </trkpt>
      <trkpt lat="53.39386" lon="8.19335">
        <ele>-7.8000001907349</ele>
        <time>2019-05-20T08:00:24Z</time>
      </trkpt>
      <trkpt lat="53.39256" lon="8.19515">
        <ele>-7.8000001907349</ele>
        <time>2019-05-20T08:00:52Z</time>
      </trkpt>
      <trkpt lat="53.39183" lon="8.19619">
        <ele>-8</ele>
        <time>2019-05-20T08:01:14Z</time>
      </trkpt>
      <trkpt lat="53.39125" lon="8.19696">
        <ele>-8</ele>
        <time>2019-05-20T08:01:43Z</time>
      </trkpt>
      <trkpt lat="53.39071" lon="8.19776">
        <ele>-8.3999996185303</ele>
        <time>2019-05-20T08:02:04Z</time>
      </trkpt>
      <trkpt lat="53.39" lon="8.19877">
        <ele>-8</ele>
        <time>2019-05-20T08:02:32Z</time>
      </trkpt>
      <trkpt lat="53.38868" lon="8.20064">
        <ele>-8</ele>
        <time>2019-05-20T08:02:58Z</time>
      </trkpt>
      <trkpt lat="53.38802" lon="8.20081">
        <ele>-7.8000001907349</ele>
        <time>2019-05-20T08:03:21Z</time>
      </trkpt>
      <trkpt lat="53.38774" lon="8.20098">
        <ele>-7.8000001907349</ele>
        <time>2019-05-20T08:03:49Z</time>
      </trkpt>
      <trkpt lat="53.38748" lon="8.20203">
        <ele>-8.3999996185303</ele>
        <time>2019-05-20T08:04:17Z</time>
      </trkpt>
      <trkpt lat="53.38725" lon="8.20376">
        <ele>-8</ele>
        <time>2019-05-20T08:04:43Z</time>
      </trkpt>
      <trkpt lat="53.38717" lon="8.20514">
        <ele>-7</ele>
        <time>2019-05-20T08:05:03Z</time>
      </trkpt>
      <trkpt lat="53.38705" lon="8.20717">
        <ele>-8.1999998092651</ele>
        <time>2019-05-20T08:05:26Z</time>
      </trkpt>
      <trkpt lat="53.38698" lon="8.20837">
        <ele>-8</ele>
        <time>2019-05-20T08:05:44Z</time>
      </trkpt>
      <trkpt lat="53.38662" lon="8.21393">
        <ele>-8</ele>
        <time>2019-05-20T08:06:01Z</time>
      </trkpt>
      <trkpt lat="53.38653" lon="8.21578">
        <ele>-7.8000001907349</ele>
        <time>2019-05-20T08:09:01Z</time>
      </trkpt>
      <trkpt lat="53.38642" lon="8.21728">
        <ele>-8</ele>
        <time>2019-05-20T08:09:16Z</time>
      </trkpt>
      <trkpt lat="53.38627" lon="8.21972">
        <ele>-7.5999999046326</ele>
        <time>2019-05-20T08:09:44Z</time>
      </trkpt>
      <trkpt lat="53.38609" lon="8.22373">
        <ele>-8</ele>
        <time>2019-05-20T08:10:17Z</time>
      </trkpt>
      <trkpt lat="53.38594" lon="8.22572">
        <ele>-8</ele>
        <time>2019-05-20T08:10:42Z</time>
      </trkpt>
      <trkpt lat="53.38573" lon="8.23031">
        <ele>-8.6000003814697</ele>
        <time>2019-05-20T08:11:13Z</time>
      </trkpt>
      <trkpt lat="53.38566" lon="8.2315">
        <ele>-8.1999998092651</ele>
        <time>2019-05-20T08:11:36Z</time>
      </trkpt>
      <trkpt lat="53.3856" lon="8.23272">
        <ele>-8.1999998092651</ele>
        <time>2019-05-20T08:12:00Z</time>
      </trkpt>
      <trkpt lat="53.38554" lon="8.23395">
        <ele>-8.3999996185303</ele>
        <time>2019-05-20T08:12:28Z</time>
      </trkpt>
      <trkpt lat="53.38548" lon="8.2349">
        <ele>-8.1999998092651</ele>
        <time>2019-05-20T08:12:51Z</time>
      </trkpt>
      <trkpt lat="53.38542" lon="8.23591">
        <ele>-8.1999998092651</ele>
        <time>2019-05-20T08:13:21Z</time>
      </trkpt>
      <trkpt lat="53.38539" lon="8.23687">
        <ele>-8.3999996185303</ele>
        <time>2019-05-20T08:13:53Z</time>
      </trkpt>
      <trkpt lat="53.38533" lon="8.23811">
        <ele>-8.3999996185303</ele>
        <time>2019-05-20T08:14:08Z</time>
      </trkpt>
      <trkpt lat="53.3854" lon="8.23872">
        <ele>-8</ele>
        <time>2019-05-20T08:14:32Z</time>
      </trkpt>
      <trkpt lat="53.38593" lon="8.23964">
        <ele>-7.8000001907349</ele>
        <time>2019-05-20T08:15:05Z</time>
      </trkpt>
      <trkpt lat="53.3863" lon="8.24047">
        <ele>-7.8000001907349</ele>
        <time>2019-05-20T08:15:32Z</time>
      </trkpt>
      <trkpt lat="53.38705" lon="8.2418">
        <ele>-8.1999998092651</ele>
        <time>2019-05-20T08:15:47Z</time>
      </trkpt>
      <trkpt lat="53.38762" lon="8.2429">
        <ele>-7.8000001907349</ele>
        <time>2019-05-20T08:15:58Z</time>
      </trkpt>
      <trkpt lat="53.38776" lon="8.24312">
        <ele>-7.5999999046326</ele>
        <time>2019-05-20T08:16:14Z</time>
      </trkpt>
      <trkpt lat="53.38795" lon="8.24421">
        <ele>-7.1999998092651</ele>
        <time>2019-05-20T08:16:39Z</time>
      </trkpt>
      <trkpt lat="53.38812" lon="8.24621">
        <ele>-7.8000001907349</ele>
        <time>2019-05-20T08:17:04Z</time>
      </trkpt>
      <trkpt lat="53.3883" lon="8.24807">
        <ele>-8</ele>
        <time>2019-05-20T08:17:32Z</time>
      </trkpt>
      <trkpt lat="53.38865" lon="8.25133">
        <ele>-8</ele>
        <time>2019-05-20T08:17:44Z</time>
      </trkpt>
      <trkpt lat="53.38916" lon="8.25291">
        <ele>-7.5999999046326</ele>
        <time>2019-05-20T08:18:07Z</time>
      </trkpt>
      <trkpt lat="53.38959" lon="8.25382">
        <ele>-7</ele>
        <time>2019-05-20T08:18:30Z</time>
      </trkpt>
      <trkpt lat="53.39026" lon="8.25529">
        <ele>-7.8000001907349</ele>
        <time>2019-05-20T08:18:47Z</time>
      </trkpt>
      <trkpt lat="53.39076" lon="8.25624">
        <ele>-7.5999999046326</ele>
        <time>2019-05-20T08:19:10Z</time>
      </trkpt>
      <trkpt lat="53.39161" lon="8.25733">
        <ele>-8.3999996185303</ele>
        <time>2019-05-20T08:19:23Z</time>
      </trkpt>
      <trkpt lat="53.39248" lon="8.25834">
        <ele>-8.3999996185303</ele>
        <time>2019-05-20T08:19:39Z</time>
      </trkpt>
      <trkpt lat="53.39342" lon="8.25943">
        <ele>-8.8000001907349</ele>
        <time>2019-05-20T08:19:50Z</time>
      </trkpt>
      <trkpt lat="53.3949" lon="8.26104">
        <ele>-8.8000001907349</ele>
        <time>2019-05-20T08:20:03Z</time>
      </trkpt>
      <trkpt lat="53.39494" lon="8.26088">
        <ele>-8.6000003814697</ele>
        <time>2019-05-20T08:20:32Z</time>
      </trkpt>
      <trkpt lat="53.39502" lon="8.26064">
        <ele>-8.6000003814697</ele>
        <time>2019-05-20T08:20:55Z</time>
      </trkpt>
      <trkpt lat="53.39505" lon="8.26072">
        <ele>-10.199999809265</ele>
        <time>2019-05-20T08:21:03Z</time>
      </trkpt>
      <trkpt lat="53.39489" lon="8.26115">
        <ele>-10</ele>
        <time>2019-05-20T08:21:16Z</time>
      </trkpt>
      <trkpt lat="53.39516" lon="8.26154">
        <ele>-10</ele>
        <time>2019-05-20T08:21:40Z</time>
      </trkpt>
      <trkpt lat="53.3958" lon="8.26236">
        <ele>-10.199999809265</ele>
        <time>2019-05-20T08:21:58Z</time>
      </trkpt>
      <trkpt lat="53.39695" lon="8.26374">
        <ele>-10.39999961853</ele>
        <time>2019-05-20T08:22:20Z</time>
      </trkpt>
      <trkpt lat="53.39807" lon="8.26504">
        <ele>-9.6000003814697</ele>
        <time>2019-05-20T08:22:41Z</time>
      </trkpt>
      <trkpt lat="53.39898" lon="8.26603">
        <ele>-9.6000003814697</ele>
        <time>2019-05-20T08:23:00Z</time>
      </trkpt>
      <trkpt lat="53.39962" lon="8.26679">
        <ele>-9.1999998092651</ele>
        <time>2019-05-20T08:23:19Z</time>
      </trkpt>
      <trkpt lat="53.40036" lon="8.26767">
        <ele>-9.3999996185303</ele>
        <time>2019-05-20T08:23:34Z</time>
      </trkpt>
      <trkpt lat="53.40282" lon="8.2705">
        <ele>-9.8000001907349</ele>
        <time>2019-05-20T08:24:00Z</time>
      </trkpt>
      <trkpt lat="53.40361" lon="8.27134">
        <ele>-10</ele>
        <time>2019-05-20T08:24:24Z</time>
      </trkpt>
      <trkpt lat="53.40426" lon="8.27194">
        <ele>-9.8000001907349</ele>
        <time>2019-05-20T08:24:37Z</time>
      </trkpt>
      <trkpt lat="53.40531" lon="8.27331">
        <ele>-9.6000003814697</ele>
        <time>2019-05-20T08:24:42Z</time>
      </trkpt>
      <trkpt lat="53.40636" lon="8.27453">
        <ele>-10</ele>
        <time>2019-05-20T08:25:08Z</time>
      </trkpt>
      <trkpt lat="53.40728" lon="8.27559">
        <ele>-10.60000038147</ele>
        <time>2019-05-20T08:25:32Z</time>
      </trkpt>
      <trkpt lat="53.40822" lon="8.27666">
        <ele>-10.800000190735</ele>
        <time>2019-05-20T08:25:46Z</time>
      </trkpt>
      <trkpt lat="53.409" lon="8.27757">
        <ele>-10.199999809265</ele>
        <time>2019-05-20T08:26:12Z</time>
      </trkpt>
      <trkpt lat="53.40959" lon="8.27823">
        <ele>-10.60000038147</ele>
        <time>2019-05-20T08:26:41Z</time>
      </trkpt>
      <trkpt lat="53.41061" lon="8.27943">
        <ele>-10.60000038147</ele>
        <time>2019-05-20T08:26:57Z</time>
      </trkpt>
      <trkpt lat="53.4124" lon="8.28144">
        <ele>-10.199999809265</ele>
        <time>2019-05-20T08:27:21Z</time>
      </trkpt>
      <trkpt lat="53.41353" lon="8.28272">
        <ele>-10.39999961853</ele>
        <time>2019-05-20T08:27:39Z</time>
      </trkpt>
      <trkpt lat="53.41451" lon="8.28381">
        <ele>-10.199999809265</ele>
        <time>2019-05-20T08:27:55Z</time>
      </trkpt>
      <trkpt lat="53.41544" lon="8.28481">
        <ele>-10.39999961853</ele>
        <time>2019-05-20T08:28:08Z</time>
      </trkpt>
      <trkpt lat="53.41646" lon="8.28589">
        <ele>-10</ele>
        <time>2019-05-20T08:28:29Z</time>
      </trkpt>
      <trkpt lat="53.41749" lon="8.28703">
        <ele>-10.199999809265</ele>
        <time>2019-05-20T08:28:53Z</time>
      </trkpt>
      <trkpt lat="53.41865" lon="8.28832">
        <ele>-10</ele>
        <time>2019-05-20T08:29:19Z</time>
      </trkpt>
      <trkpt lat="53.41977" lon="8.2896">
        <ele>-10.60000038147</ele>
        <time>2019-05-20T08:29:45Z</time>
      </trkpt>
      <trkpt lat="53.42083" lon="8.29101">
        <ele>-10.60000038147</ele>
        <time>2019-05-20T08:30:14Z</time>
      </trkpt>
      <trkpt lat="53.42269" lon="8.29339">
        <ele>-10.199999809265</ele>
        <time>2019-05-20T08:30:43Z</time>
      </trkpt>
      <trkpt lat="53.42364" lon="8.29421">
        <ele>-10.39999961853</ele>
        <time>2019-05-20T08:30:58Z</time>
      </trkpt>
      <trkpt lat="53.42457" lon="8.29499">
        <ele>-10.800000190735</ele>
        <time>2019-05-20T08:31:18Z</time>
      </trkpt>
      <trkpt lat="53.42578" lon="8.29601">
        <ele>-10.60000038147</ele>
        <time>2019-05-20T08:31:43Z</time>
      </trkpt>
      <trkpt lat="53.42677" lon="8.29687">
        <ele>-10.199999809265</ele>
        <time>2019-05-20T08:32:08Z</time>
      </trkpt>
      <trkpt lat="53.42801" lon="8.29799">
        <ele>-10</ele>
        <time>2019-05-20T08:32:35Z</time>
      </trkpt>
      <trkpt lat="53.42915" lon="8.29906">
        <ele>-10.199999809265</ele>
        <time>2019-05-20T08:32:57Z</time>
      </trkpt>
      <trkpt lat="53.43119" lon="8.30106">
        <ele>-9.8000001907349</ele>
        <time>2019-05-20T08:33:06Z</time>
      </trkpt>
      <trkpt lat="53.43182" lon="8.30159">
        <ele>-9.8000001907349</ele>
        <time>2019-05-20T08:33:34Z</time>
      </trkpt>
      <trkpt lat="53.43231" lon="8.30185">
        <ele>-8.3999996185303</ele>
        <time>2019-05-20T08:34:01Z</time>
      </trkpt>
      <trkpt lat="53.43282" lon="8.30216">
        <ele>-5.4000000953674</ele>
        <time>2019-05-20T08:34:31Z</time>
      </trkpt>
      <trkpt lat="53.43337" lon="8.30255">
        <ele>0.60000002384186</ele>
        <time>2019-05-20T08:34:44Z</time>
      </trkpt>
      <trkpt lat="53.43339" lon="8.30257">
        <ele>-0.20000000298023</ele>
        <time>2019-05-20T08:35:09Z</time>
      </trkpt>
      <trkpt lat="53.43364" lon="8.30204">
        <ele>-1.3999999761581</ele>
        <time>2019-05-20T08:35:32Z</time>
      </trkpt>
      <trkpt lat="53.4339" lon="8.30155">
        <ele>-3.4000000953674</ele>
        <time>2019-05-20T08:35:54Z</time>
      </trkpt>
      <trkpt lat="53.43432" lon="8.30071">
        <ele>-8.1999998092651</ele>
        <time>2019-05-20T08:36:00Z</time>
      </trkpt>
      <trkpt lat="53.43461" lon="8.30012">
        <ele>-9.1999998092651</ele>
        <time>2019-05-20T08:36:24Z</time>
      </trkpt>
      <trkpt lat="53.43512" lon="8.29876">
        <ele>-9.1999998092651</ele>
        <time>2019-05-20T08:36:51Z</time>
      </trkpt>
      <trkpt lat="53.43562" lon="8.29737">
        <ele>-9</ele>
        <time>2019-05-20T08:37:12Z</time>
      </trkpt>
      <trkpt lat="53.43592" lon="8.29654">
        <ele>-9.1999998092651</ele>
        <time>2019-05-20T08:37:26Z</time>
      </trkpt>
      <trkpt lat="53.43609" lon="8.29626">
        <ele>-9.3999996185303</ele>
        <time>2019-05-20T08:37:47Z</time>
      </trkpt>
      <trkpt lat="53.4366" lon="8.29628">
        <ele>-8.6000003814697</ele>
        <time>2019-05-20T08:38:13Z</time>
      </trkpt>
      <trkpt lat="53.43682" lon="8.29616">
        <ele>-9.1999998092651</ele>
        <time>2019-05-20T08:38:40Z</time>
      </trkpt>
      <trkpt lat="53.43662" lon="8.29629">
        <ele>-9.8000001907349</ele>
        <time>2019-05-20T08:39:06Z</time>
      </trkpt>
      <trkpt lat="53.43599" lon="8.29639">
        <ele>-9.1999998092651</ele>
        <time>2019-05-20T08:39:32Z</time>
      </trkpt>
      <trkpt lat="53.43556" lon="8.2976">
        <ele>-10</ele>
        <time>2019-05-20T08:39:49Z</time>
      </trkpt>
      <trkpt lat="53.43507" lon="8.29885">
        <ele>-9.8000001907349</ele>
        <time>2019-05-20T08:40:10Z</time>
      </trkpt>
      <trkpt lat="53.43454" lon="8.30022">
        <ele>-9.8000001907349</ele>
        <time>2019-05-20T08:40:38Z</time>
      </trkpt>
      <trkpt lat="53.43387" lon="8.30151">
        <ele>-10.199999809265</ele>
        <time>2019-05-20T08:40:58Z</time>
      </trkpt>
      <trkpt lat="53.43339" lon="8.30254">
        <ele>-3.5999999046326</ele>
        <time>2019-05-20T08:41:21Z</time>
      </trkpt>
      <trkpt lat="53.43353" lon="8.30274">
        <ele>-1.3999999761581</ele>
        <time>2019-05-20T08:41:44Z</time>
      </trkpt>
      <trkpt lat="53.43379" lon="8.30314">
        <ele>-0.20000000298023</ele>
        <time>2019-05-20T08:42:08Z</time>
      </trkpt>
      <trkpt lat="53.43427" lon="8.30388">
        <ele>-2.5999999046326</ele>
        <time>2019-05-20T08:42:34Z</time>
      </trkpt>
      <trkpt lat="53.43448" lon="8.30421">
        <ele>-5</ele>
        <time>2019-05-20T08:42:58Z</time>
      </trkpt>
      <trkpt lat="53.43454" lon="8.3045">
        <ele>-9.6000003814697</ele>
        <time>2019-05-20T08:43:07Z</time>
      </trkpt>
      <trkpt lat="53.43489" lon="8.30486">
        <ele>-11</ele>
        <time>2019-05-20T08:43:25Z</time>
      </trkpt>
      <trkpt lat="53.43597" lon="8.30589">
        <ele>-11.199999809265</ele>
        <time>2019-05-20T08:43:41Z</time>
      </trkpt>
      <trkpt lat="53.43819" lon="8.30819">
        <ele>-9.3999996185303</ele>
        <time>2019-05-20T08:43:55Z</time>
      </trkpt>
      <trkpt lat="53.43896" lon="8.30891">
        <ele>-9.3999996185303</ele>
        <time>2019-05-20T08:44:08Z</time>
      </trkpt>
      <trkpt lat="53.43999" lon="8.30995">
        <ele>-10</ele>
        <time>2019-05-20T08:44:13Z</time>
      </trkpt>
      <trkpt lat="53.4411" lon="8.31105">
        <ele>-10</ele>
        <time>2019-05-20T08:44:29Z</time>
      </trkpt>
      <trkpt lat="53.44209" lon="8.31207">
        <ele>-9.6000003814697</ele>
        <time>2019-05-20T08:44:38Z</time>
      </trkpt>
      <trkpt lat="53.44317" lon="8.31319">
        <ele>-10</ele>
        <time>2019-05-20T08:44:45Z</time>
      </trkpt>
      <trkpt lat="53.44395" lon="8.31402">
        <ele>-10.39999961853</ele>
        <time>2019-05-20T08:44:56Z</time>
      </trkpt>
      <trkpt lat="53.44508" lon="8.31514">
        <ele>-10.60000038147</ele>
        <time>2019-05-20T08:45:01Z</time>
      </trkpt>
      <trkpt lat="53.44586" lon="8.31582">
        <ele>-10.39999961853</ele>
        <time>2019-05-20T08:45:22Z</time>
      </trkpt>
      <trkpt lat="53.44705" lon="8.31664">
        <ele>-10</ele>
        <time>2019-05-20T08:45:47Z</time>
      </trkpt>
      <trkpt lat="53.44789" lon="8.31699">
        <ele>-10</ele>
        <time>2019-05-20T08:46:17Z</time>
      </trkpt>
      <trkpt lat="53.44899" lon="8.31745">
        <ele>-10.39999961853</ele>
        <time>2019-05-20T08:46:47Z</time>
      </trkpt>
      <trkpt lat="53.44963" lon="8.31774">
        <ele>-10.39999961853</ele>
        <time>2019-05-20T08:47:17Z</time>
      </trkpt>
      <trkpt lat="53.45024" lon="8.31799">
        <ele>-10.199999809265</ele>
        <time>2019-05-20T08:47:41Z</time>
      </trkpt>
      <trkpt lat="53.45145" lon="8.31849">
        <ele>-10.39999961853</ele>
        <time>2019-05-20T08:48:05Z</time>
      </trkpt>
      <trkpt lat="53.45278" lon="8.319">
        <ele>-10.39999961853</ele>
        <time>2019-05-20T08:48:18Z</time>
      </trkpt>
      <trkpt lat="53.45397" lon="8.31978">
        <ele>-10.60000038147</ele>
        <time>2019-05-20T08:48:25Z</time>
      </trkpt>
      <trkpt lat="53.45486" lon="8.32102">
        <ele>-10</ele>
        <time>2019-05-20T08:48:49Z</time>
      </trkpt>
      <trkpt lat="53.45601" lon="8.32306">
        <ele>-9.1999998092651</ele>
        <time>2019-05-20T08:49:05Z</time>
      </trkpt>
      <trkpt lat="53.45671" lon="8.32441">
        <ele>-9.1999998092651</ele>
        <time>2019-05-20T08:49:22Z</time>
      </trkpt>
      <trkpt lat="53.45747" lon="8.32585">
        <ele>-9</ele>
        <time>2019-05-20T08:49:49Z</time>
      </trkpt>
      <trkpt lat="53.45813" lon="8.32695">
        <ele>-8.8000001907349</ele>
        <time>2019-05-20T08:50:20Z</time>
      </trkpt>
      <trkpt lat="53.45867" lon="8.32768">
        <ele>-9.3999996185303</ele>
        <time>2019-05-20T08:50:47Z</time>
      </trkpt>
      <trkpt lat="53.45854" lon="8.32804">
        <ele>-9.6000003814697</ele>
        <time>2019-05-20T08:51:13Z</time>
      </trkpt>
      <trkpt lat="53.45759" lon="8.32779">
        <ele>-10.199999809265</ele>
        <time>2019-05-20T08:51:36Z</time>
      </trkpt>
      <trkpt lat="53.45753" lon="8.32777">
        <ele>-11</ele>
        <time>2019-05-20T08:51:58Z</time>
      </trkpt>
      <trkpt lat="53.45706" lon="8.32762">
        <ele>-11.199999809265</ele>
        <time>2019-05-20T08:52:18Z</time>
      </trkpt>
      <trkpt lat="53.45652" lon="8.3275">
        <ele>-11</ele>
        <time>2019-05-20T08:52:36Z</time>
      </trkpt>
      <trkpt lat="53.45639" lon="8.32789">
        <ele>-11</ele>
        <time>2019-05-20T08:52:44Z</time>
      </trkpt>
      <trkpt lat="53.45607" lon="8.32868">
        <ele>-11.39999961853</ele>
        <time>2019-05-20T08:52:49Z</time>
      </trkpt>
      <trkpt lat="53.45522" lon="8.32943">
        <ele>-11.199999809265</ele>
        <time>2019-05-20T08:53:01Z</time>
      </trkpt>
      <trkpt lat="53.45515" lon="8.33014">
        <ele>-11.39999961853</ele>
        <time>2019-05-20T08:53:26Z</time>
      </trkpt>
      <trkpt lat="53.45533" lon="8.33128">
        <ele>-11.39999961853</ele>
        <time>2019-05-20T08:53:36Z</time>
      </trkpt>
      <trkpt lat="53.45534" lon="8.33228">
        <ele>-11.199999809265</ele>
        <time>2019-05-20T08:53:44Z</time>
      </trkpt>
      <trkpt lat="53.45537" lon="8.33335">
        <ele>-10.800000190735</ele>
        <time>2019-05-20T08:54:06Z</time>
      </trkpt>
      <trkpt lat="53.45587" lon="8.33752">
        <ele>-10.800000190735</ele>
        <time>2019-05-20T08:54:30Z</time>
      </trkpt>
      <trkpt lat="53.45609" lon="8.3386">
        <ele>-11</ele>
        <time>2019-05-20T08:54:44Z</time>
      </trkpt>
      <trkpt lat="53.45634" lon="8.33933">
        <ele>-11</ele>
        <time>2019-05-20T08:55:09Z</time>
      </trkpt>
      <trkpt lat="53.45647" lon="8.34048">
        <ele>-11.39999961853</ele>
        <time>2019-05-20T08:55:31Z</time>
      </trkpt>
      <trkpt lat="53.45659" lon="8.34155">
        <ele>-11.39999961853</ele>
        <time>2019-05-20T08:55:43Z</time>
      </trkpt>
      <trkpt lat="53.45677" lon="8.34336">
        <ele>-11.60000038147</ele>
        <time>2019-05-20T08:56:03Z</time>
      </trkpt>
      <trkpt lat="53.45677" lon="8.34493">
        <ele>-11.39999961853</ele>
        <time>2019-05-20T08:56:27Z</time>
      </trkpt>
      <trkpt lat="53.45673" lon="8.34592">
        <ele>-11.60000038147</ele>
        <time>2019-05-20T08:56:41Z</time>
      </trkpt>
      <trkpt lat="53.45676" lon="8.34626">
        <ele>-11.39999961853</ele>
        <time>2019-05-20T08:56:47Z</time>
      </trkpt>
      <trkpt lat="53.45679" lon="8.34709">
        <ele>-11.199999809265</ele>
        <time>2019-05-20T08:57:08Z</time>
      </trkpt>
      <trkpt lat="53.45681" lon="8.34865">
        <ele>-11.199999809265</ele>
        <time>2019-05-20T08:57:33Z</time>
      </trkpt>
      <trkpt lat="53.45685" lon="8.35006">
        <ele>-11.39999961853</ele>
        <time>2019-05-20T08:57:43Z</time>
      </trkpt>
      <trkpt lat="53.45706" lon="8.35358">
        <ele>-11.39999961853</ele>
        <time>2019-05-20T08:58:03Z</time>
      </trkpt>
      <trkpt lat="53.45722" lon="8.35616">
        <ele>-11</ele>
        <time>2019-05-20T08:58:24Z</time>
      </trkpt>
      <trkpt lat="53.45724" lon="8.35697">
        <ele>-11.199999809265</ele>
        <time>2019-05-20T08:58:31Z</time>
      </trkpt>
      <trkpt lat="53.45726" lon="8.35731">
        <ele>-10.800000190735</ele>
        <time>2019-05-20T09:00:02Z</time>
      </trkpt>
      <trkpt lat="53.45724" lon="8.35741">
        <ele>-11.39999961853</ele>
        <time>2019-05-20T09:00:24Z</time>
      </trkpt>
      <trkpt lat="53.45719" lon="8.35762">
        <ele>-11.39999961853</ele>
        <time>2019-05-20T09:00:30Z</time>
      </trkpt>
      <trkpt lat="53.45726" lon="8.35992">
        <ele>-11.800000190735</ele>
        <time>2019-05-20T09:00:38Z</time>
      </trkpt>
      <trkpt lat="53.45734" lon="8.3613">
        <ele>-11.60000038147</ele>
        <time>2019-05-20T09:00:46Z</time>
      </trkpt>
      <trkpt lat="53.45747" lon="8.36282">
        <ele>-11.800000190735</ele>
        <time>2019-05-20T09:01:00Z</time>
      </trkpt>
      <trkpt lat="53.45797" lon="8.36303">
        <ele>-11.60000038147</ele>
        <time>2019-05-20T09:01:10Z</time>
      </trkpt>
      <trkpt lat="53.45942" lon="8.36275">
        <ele>-12.199999809265</ele>
        <time>2019-05-20T09:01:32Z</time>
      </trkpt>
      <trkpt lat="53.46023" lon="8.36268">
        <ele>-11.60000038147</ele>
        <time>2019-05-20T09:01:56Z</time>
      </trkpt>
      <trkpt lat="53.4603" lon="8.36263">
        <ele>-11.39999961853</ele>
        <time>2019-05-20T09:02:19Z</time>
      </trkpt>
      <trkpt lat="53.46087" lon="8.36339">
        <ele>-11.199999809265</ele>
        <time>2019-05-20T09:02:41Z</time>
      </trkpt>
      <trkpt lat="53.46172" lon="8.36437">
        <ele>-11</ele>
        <time>2019-05-20T09:02:47Z</time>
      </trkpt>
      <trkpt lat="53.46234" lon="8.36519">
        <ele>-10.39999961853</ele>
        <time>2019-05-20T09:03:06Z</time>
      </trkpt>
      <trkpt lat="53.46272" lon="8.36572">
        <ele>-10.199999809265</ele>
        <time>2019-05-20T09:03:14Z</time>
      </trkpt>
      <trkpt lat="53.46361" lon="8.36684">
        <ele>-10</ele>
        <time>2019-05-20T09:03:37Z</time>
      </trkpt>
      <trkpt lat="53.46402" lon="8.36736">
        <ele>-10</ele>
        <time>2019-05-20T09:04:02Z</time>
      </trkpt>
      <trkpt lat="53.46478" lon="8.36839">
        <ele>-10.60000038147</ele>
        <time>2019-05-20T09:04:25Z</time>
      </trkpt>
      <trkpt lat="53.46564" lon="8.3695">
        <ele>-11</ele>
        <time>2019-05-20T09:04:49Z</time>
      </trkpt>
      <trkpt lat="53.46634" lon="8.37043">
        <ele>-11</ele>
        <time>2019-05-20T09:05:06Z</time>
      </trkpt>
      <trkpt lat="53.46717" lon="8.37145">
        <ele>-11.60000038147</ele>
        <time>2019-05-20T09:05:16Z</time>
      </trkpt>
      <trkpt lat="53.46811" lon="8.37266">
        <ele>-11</ele>
        <time>2019-05-20T09:05:22Z</time>
      </trkpt>
      <trkpt lat="53.46853" lon="8.37326">
        <ele>-11.199999809265</ele>
        <time>2019-05-20T09:05:43Z</time>
      </trkpt>
      <trkpt lat="53.46925" lon="8.37411">
        <ele>-11.199999809265</ele>
        <time>2019-05-20T09:06:07Z</time>
      </trkpt>
      <trkpt lat="53.46953" lon="8.37447">
        <ele>-12</ele>
        <time>2019-05-20T09:06:25Z</time>
      </trkpt>
      <trkpt lat="53.47023" lon="8.37536">
        <ele>-12</ele>
        <time>2019-05-20T09:06:41Z</time>
      </trkpt>
      <trkpt lat="53.47208" lon="8.37767">
        <ele>-12.39999961853</ele>
        <time>2019-05-20T09:07:03Z</time>
      </trkpt>
      <trkpt lat="53.47291" lon="8.37875">
        <ele>-12.199999809265</ele>
        <time>2019-05-20T09:07:28Z</time>
      </trkpt>
      <trkpt lat="53.47374" lon="8.37982">
        <ele>-12.60000038147</ele>
        <time>2019-05-20T09:07:45Z</time>
      </trkpt>
      <trkpt lat="53.4745" lon="8.3808">
        <ele>-12</ele>
        <time>2019-05-20T09:08:08Z</time>
      </trkpt>
      <trkpt lat="53.47483" lon="8.38141">
        <ele>-12.199999809265</ele>
        <time>2019-05-20T09:08:31Z</time>
      </trkpt>
      <trkpt lat="53.47499" lon="8.38206">
        <ele>-12</ele>
        <time>2019-05-20T09:08:48Z</time>
      </trkpt>
      <trkpt lat="53.4754" lon="8.38372">
        <ele>-12</ele>
        <time>2019-05-20T09:09:00Z</time>
      </trkpt>
      <trkpt lat="53.47578" lon="8.3847">
        <ele>-11.800000190735</ele>
        <time>2019-05-20T09:09:22Z</time>
      </trkpt>
      <trkpt lat="53.47646" lon="8.38532">
        <ele>-12</ele>
        <time>2019-05-20T09:09:43Z</time>
      </trkpt>
      <trkpt lat="53.47732" lon="8.38651">
        <ele>-12.39999961853</ele>
        <time>2019-05-20T09:10:02Z</time>
      </trkpt>
      <trkpt lat="53.47791" lon="8.38741">
        <ele>-12.800000190735</ele>
        <time>2019-05-20T09:10:25Z</time>
      </trkpt>
      <trkpt lat="53.47856" lon="8.38838">
        <ele>-12.60000038147</ele>
        <time>2019-05-20T09:10:46Z</time>
      </trkpt>
      <trkpt lat="53.47934" lon="8.38955">
        <ele>-12.800000190735</ele>
        <time>2019-05-20T09:11:10Z</time>
      </trkpt>
      <trkpt lat="53.4803" lon="8.391">
        <ele>-12.199999809265</ele>
        <time>2019-05-20T09:11:26Z</time>
      </trkpt>
      <trkpt lat="53.48079" lon="8.39173">
        <ele>-12</ele>
        <time>2019-05-20T09:11:48Z</time>
      </trkpt>
      <trkpt lat="53.48132" lon="8.39254">
        <ele>-12.39999961853</ele>
        <time>2019-05-20T09:12:08Z</time>
      </trkpt>
      <trkpt lat="53.48151" lon="8.39323">
        <ele>-12.39999961853</ele>
        <time>2019-05-20T09:12:27Z</time>
      </trkpt>
      <trkpt lat="53.48136" lon="8.39425">
        <ele>-12.39999961853</ele>
        <time>2019-05-20T09:12:36Z</time>
      </trkpt>
      <trkpt lat="53.48104" lon="8.39559">
        <ele>-12.60000038147</ele>
        <time>2019-05-20T09:12:44Z</time>
      </trkpt>
      <trkpt lat="53.48095" lon="8.39645">
        <ele>-13</ele>
        <time>2019-05-20T09:12:58Z</time>
      </trkpt>
      <trkpt lat="53.48124" lon="8.39722">
        <ele>-12.800000190735</ele>
        <time>2019-05-20T09:13:11Z</time>
      </trkpt>
      <trkpt lat="53.48199" lon="8.39841">
        <ele>-12.60000038147</ele>
        <time>2019-05-20T09:13:22Z</time>
      </trkpt>
      <trkpt lat="53.48283" lon="8.39973">
        <ele>-12.60000038147</ele>
        <time>2019-05-20T09:15:18Z</time>
      </trkpt>
      <trkpt lat="53.48334" lon="8.40042">
        <ele>-12.39999961853</ele>
        <time>2019-05-20T09:15:33Z</time>
      </trkpt>
      <trkpt lat="53.48402" lon="8.40078">
        <ele>-13</ele>
        <time>2019-05-20T09:15:52Z</time>
      </trkpt>
      <trkpt lat="53.48516" lon="8.40153">
        <ele>-12.800000190735</ele>
        <time>2019-05-20T09:16:06Z</time>
      </trkpt>
      <trkpt lat="53.48566" lon="8.40198">
        <ele>-12.60000038147</ele>
        <time>2019-05-20T09:16:17Z</time>
      </trkpt>
      <trkpt lat="53.4872" lon="8.40382">
        <ele>-12.199999809265</ele>
        <time>2019-05-20T09:16:45Z</time>
      </trkpt>
      <trkpt lat="53.48747" lon="8.40417">
        <ele>-12.39999961853</ele>
        <time>2019-05-20T09:17:01Z</time>
      </trkpt>
      <trkpt lat="53.48766" lon="8.40442">
        <ele>-12.199999809265</ele>
        <time>2019-05-20T09:17:11Z</time>
      </trkpt>
      <trkpt lat="53.48849" lon="8.40554">
        <ele>-12.60000038147</ele>
        <time>2019-05-20T09:17:27Z</time>
      </trkpt>
      <trkpt lat="53.48917" lon="8.40647">
        <ele>-13.39999961853</ele>
        <time>2019-05-20T09:17:35Z</time>
      </trkpt>
      <trkpt lat="53.48986" lon="8.40741">
        <ele>-13</ele>
        <time>2019-05-20T09:18:29Z</time>
      </trkpt>
      <trkpt lat="53.49059" lon="8.40841">
        <ele>-13</ele>
        <time>2019-05-20T09:18:51Z</time>
      </trkpt>
      <trkpt lat="53.49139" lon="8.40956">
        <ele>-12.800000190735</ele>
        <time>2019-05-20T09:19:04Z</time>
      </trkpt>
      <trkpt lat="53.49133" lon="8.41078">
        <ele>-13.199999809265</ele>
        <time>2019-05-20T09:19:16Z</time>
      </trkpt>
      <trkpt lat="53.49064" lon="8.4124">
        <ele>-13.39999961853</ele>
        <time>2019-05-20T09:19:53Z</time>
      </trkpt>
      <trkpt lat="53.48999" lon="8.41398">
        <ele>-13.39999961853</ele>
        <time>2019-05-20T09:20:02Z</time>
      </trkpt>
      <trkpt lat="53.49006" lon="8.41465">
        <ele>-13.39999961853</ele>
        <time>2019-05-20T09:20:10Z</time>
      </trkpt>
      <trkpt lat="53.49055" lon="8.41517">
        <ele>-13.199999809265</ele>
        <time>2019-05-20T09:37:21Z</time>
      </trkpt>
      <trkpt lat="53.49153" lon="8.41614">
        <ele>-13</ele>
        <time>2019-05-20T09:37:35Z</time>
      </trkpt>
      <trkpt lat="53.49216" lon="8.41662">
        <ele>-13.199999809265</ele>
        <time>2019-05-20T09:37:52Z</time>
      </trkpt>
      <trkpt lat="53.49236" lon="8.41762">
        <ele>-13.199999809265</ele>
        <time>2019-05-20T09:38:14Z</time>
      </trkpt>
      <trkpt lat="53.49246" lon="8.41814">
        <ele>-13.39999961853</ele>
        <time>2019-05-20T09:38:25Z</time>
      </trkpt>
      <trkpt lat="53.49298" lon="8.42076">
        <ele>-13.39999961853</ele>
        <time>2019-05-20T09:38:38Z</time>
      </trkpt>
      <trkpt lat="53.49273" lon="8.42101">
        <ele>-13.39999961853</ele>
        <time>2019-05-20T09:38:49Z</time>
      </trkpt>
      <trkpt lat="53.49205" lon="8.42217">
        <ele>-12.60000038147</ele>
        <time>2019-05-20T09:39:01Z</time>
      </trkpt>
      <trkpt lat="53.49169" lon="8.42364">
        <ele>-13.199999809265</ele>
        <time>2019-05-20T09:39:21Z</time>
      </trkpt>
      <trkpt lat="53.49142" lon="8.42501">
        <ele>-13</ele>
        <time>2019-05-20T09:39:38Z</time>
      </trkpt>
      <trkpt lat="53.49119" lon="8.42581">
        <ele>-12.800000190735</ele>
        <time>2019-05-20T09:39:54Z</time>
      </trkpt>
      <trkpt lat="53.49082" lon="8.42709">
        <ele>-12.60000038147</ele>
        <time>2019-05-20T09:40:10Z</time>
      </trkpt>
      <trkpt lat="53.49076" lon="8.42734">
        <ele>-12.199999809265</ele>
        <time>2019-05-20T09:40:34Z</time>
      </trkpt>
      <trkpt lat="53.49073" lon="8.4275">
        <ele>-12.199999809265</ele>
        <time>2019-05-20T09:40:52Z</time>
      </trkpt>
      <trkpt lat="53.49075" lon="8.42754">
        <ele>-12.60000038147</ele>
        <time>2019-05-20T09:41:11Z</time>
      </trkpt>
      <trkpt lat="53.49086" lon="8.42774">
        <ele>-12.60000038147</ele>
        <time>2019-05-20T09:41:22Z</time>
      </trkpt>
      <trkpt lat="53.49076" lon="8.42818">
        <ele>-13</ele>
        <time>2019-05-20T09:41:31Z</time>
      </trkpt>
      <trkpt lat="53.49067" lon="8.42834">
        <ele>-12.800000190735</ele>
        <time>2019-05-20T09:41:41Z</time>
      </trkpt>
      <trkpt lat="53.49092" lon="8.42766">
        <ele>-12.800000190735</ele>
        <time>2019-05-20T09:41:57Z</time>
      </trkpt>
      <trkpt lat="53.49143" lon="8.42807">
        <ele>-13.199999809265</ele>
        <time>2019-05-20T09:42:09Z</time>
      </trkpt>
      <trkpt lat="53.49112" lon="8.42877">
        <ele>-12.800000190735</ele>
        <time>2019-05-20T10:01:46Z</time>
      </trkpt>
      <trkpt lat="53.49071" lon="8.42947">
        <ele>-12.800000190735</ele>
        <time>2019-05-20T10:02:01Z</time>
      </trkpt>
      <trkpt lat="53.49021" lon="8.43032">
        <ele>-13.39999961853</ele>
        <time>2019-05-20T10:02:22Z</time>
      </trkpt>
      <trkpt lat="53.4897" lon="8.43121">
        <ele>-13.39999961853</ele>
        <time>2019-05-20T10:03:03Z</time>
      </trkpt>
      <trkpt lat="53.48917" lon="8.43202">
        <ele>-13.199999809265</ele>
        <time>2019-05-20T10:03:09Z</time>
      </trkpt>
      <trkpt lat="53.48878" lon="8.43273">
        <ele>-12.800000190735</ele>
        <time>2019-05-20T10:03:18Z</time>
      </trkpt>
      <trkpt lat="53.48816" lon="8.43366">
        <ele>-13</ele>
        <time>2019-05-20T10:03:32Z</time>
      </trkpt>
      <trkpt lat="53.48761" lon="8.43443">
        <ele>-13.39999961853</ele>
        <time>2019-05-20T10:03:43Z</time>
      </trkpt>
      <trkpt lat="53.48651" lon="8.43628">
        <ele>-13.39999961853</ele>
        <time>2019-05-20T10:03:57Z</time>
      </trkpt>
      <trkpt lat="53.48557" lon="8.43827">
        <ele>-13</ele>
        <time>2019-05-20T10:04:11Z</time>
      </trkpt>
      <trkpt lat="53.48505" lon="8.43949">
        <ele>-13.199999809265</ele>
        <time>2019-05-20T10:04:33Z</time>
      </trkpt>
      <trkpt lat="53.48487" lon="8.44023">
        <ele>-13.199999809265</ele>
        <time>2019-05-20T10:04:37Z</time>
      </trkpt>
      <trkpt lat="53.48499" lon="8.44082">
        <ele>-13.199999809265</ele>
        <time>2019-05-20T10:04:43Z</time>
      </trkpt>
      <trkpt lat="53.48454" lon="8.44199">
        <ele>-13</ele>
        <time>2019-05-20T10:05:02Z</time>
      </trkpt>
      <trkpt lat="53.48313" lon="8.44645">
        <ele>-13</ele>
        <time>2019-05-20T10:05:16Z</time>
      </trkpt>
      <trkpt lat="53.48274" lon="8.44827">
        <ele>-12.60000038147</ele>
        <time>2019-05-20T10:05:28Z</time>
      </trkpt>
      <trkpt lat="53.48224" lon="8.45041">
        <ele>-13</ele>
        <time>2019-05-20T10:05:47Z</time>
      </trkpt>
      <trkpt lat="53.48178" lon="8.45256">
        <ele>-13</ele>
        <time>2019-05-20T10:06:02Z</time>
      </trkpt>
      <trkpt lat="53.48172" lon="8.45278">
        <ele>-12.60000038147</ele>
        <time>2019-05-20T10:06:16Z</time>
      </trkpt>
      <trkpt lat="53.48166" lon="8.45291">
        <ele>-14.39999961853</ele>
        <time>2019-05-20T10:06:31Z</time>
      </trkpt>
      <trkpt lat="53.48184" lon="8.45312">
        <ele>-14</ele>
        <time>2019-05-20T10:06:43Z</time>
      </trkpt>
      <trkpt lat="53.48206" lon="8.45345">
        <ele>-13.800000190735</ele>
        <time>2019-05-20T10:06:56Z</time>
      </trkpt>
      <trkpt lat="53.48217" lon="8.45393">
        <ele>-14.199999809265</ele>
        <time>2019-05-20T10:07:05Z</time>
      </trkpt>
      <trkpt lat="53.48272" lon="8.45422">
        <ele>-14.60000038147</ele>
        <time>2019-05-20T10:07:20Z</time>
      </trkpt>
      <trkpt lat="53.48355" lon="8.45381">
        <ele>-14.39999961853</ele>
        <time>2019-05-20T10:07:41Z</time>
      </trkpt>
      <trkpt lat="53.48445" lon="8.45398">
        <ele>-14.39999961853</ele>
        <time>2019-05-20T10:08:06Z</time>
      </trkpt>
      <trkpt lat="53.48511" lon="8.45459">
        <ele>-14.39999961853</ele>
        <time>2019-05-20T10:08:25Z</time>
      </trkpt>
      <trkpt lat="53.48565" lon="8.45536">
        <ele>-14.199999809265</ele>
        <time>2019-05-20T10:08:43Z</time>
      </trkpt>
      <trkpt lat="53.48634" lon="8.45654">
        <ele>-14.199999809265</ele>
        <time>2019-05-20T10:09:02Z</time>
      </trkpt>
      <trkpt lat="53.4868" lon="8.45736">
        <ele>-14.60000038147</ele>
        <time>2019-05-20T10:09:22Z</time>
      </trkpt>
      <trkpt lat="53.48741" lon="8.45841">
        <ele>-14.39999961853</ele>
        <time>2019-05-20T10:09:42Z</time>
      </trkpt>
      <trkpt lat="53.488" lon="8.45949">
        <ele>-14</ele>
        <time>2019-05-20T10:09:58Z</time>
      </trkpt>
      <trkpt lat="53.48849" lon="8.46094">
        <ele>-13.60000038147</ele>
        <time>2019-05-20T10:10:20Z</time>
      </trkpt>
      <trkpt lat="53.48873" lon="8.46205">
        <ele>-14</ele>
        <time>2019-05-20T10:10:28Z</time>
      </trkpt>
      <trkpt lat="53.48937" lon="8.4647">
        <ele>-14</ele>
        <time>2019-05-20T10:10:47Z</time>
      </trkpt>
      <trkpt lat="53.48966" lon="8.46592">
        <ele>-13.60000038147</ele>
        <time>2019-05-20T10:11:08Z</time>
      </trkpt>
      <trkpt lat="53.49024" lon="8.4672">
        <ele>-13.60000038147</ele>
        <time>2019-05-20T10:11:22Z</time>
      </trkpt>
      <trkpt lat="53.49026" lon="8.46723">
        <ele>-14</ele>
        <time>2019-05-20T10:11:35Z</time>
      </trkpt>
      <trkpt lat="53.49034" lon="8.46744">
        <ele>-14</ele>
        <time>2019-05-20T10:11:46Z</time>
      </trkpt>
      <trkpt lat="53.4907" lon="8.46823">
        <ele>-13.39999961853</ele>
        <time>2019-05-20T10:15:33Z</time>
      </trkpt>
      <trkpt lat="53.49107" lon="8.46905">
        <ele>-14</ele>
        <time>2019-05-20T10:15:46Z</time>
      </trkpt>
      <trkpt lat="53.49103" lon="8.46944">
        <ele>-14</ele>
        <time>2019-05-20T10:16:05Z</time>
      </trkpt>
      <trkpt lat="53.49135" lon="8.46984">
        <ele>-14</ele>
        <time>2019-05-20T10:16:22Z</time>
      </trkpt>
      <trkpt lat="53.49176" lon="8.47072">
        <ele>-14.199999809265</ele>
        <time>2019-05-20T10:16:40Z</time>
      </trkpt>
      <trkpt lat="53.49228" lon="8.47166">
        <ele>-14.199999809265</ele>
        <time>2019-05-20T10:16:57Z</time>
      </trkpt>
      <trkpt lat="53.49276" lon="8.47217">
        <ele>-14</ele>
        <time>2019-05-20T10:17:20Z</time>
      </trkpt>
      <trkpt lat="53.49355" lon="8.47267">
        <ele>-14</ele>
        <time>2019-05-20T10:17:38Z</time>
      </trkpt>
      <trkpt lat="53.49421" lon="8.47317">
        <ele>-14.39999961853</ele>
        <time>2019-05-20T10:17:54Z</time>
      </trkpt>
      <trkpt lat="53.49472" lon="8.47351">
        <ele>-14.39999961853</ele>
        <time>2019-05-20T10:18:05Z</time>
      </trkpt>
      <trkpt lat="53.49548" lon="8.47394">
        <ele>-14</ele>
        <time>2019-05-20T10:18:23Z</time>
      </trkpt>
      <trkpt lat="53.49607" lon="8.47444">
        <ele>-14</ele>
        <time>2019-05-20T10:18:30Z</time>
      </trkpt>
      <trkpt lat="53.49663" lon="8.4748">
        <ele>-13.800000190735</ele>
        <time>2019-05-20T10:18:54Z</time>
      </trkpt>
      <trkpt lat="53.49725" lon="8.47524">
        <ele>-14.39999961853</ele>
        <time>2019-05-20T10:19:16Z</time>
      </trkpt>
      <trkpt lat="53.49795" lon="8.47566">
        <ele>-14.199999809265</ele>
        <time>2019-05-20T10:19:33Z</time>
      </trkpt>
      <trkpt lat="53.49853" lon="8.47607">
        <ele>-13.800000190735</ele>
        <time>2019-05-20T10:19:46Z</time>
      </trkpt>
      <trkpt lat="53.49936" lon="8.47679">
        <ele>-13.800000190735</ele>
        <time>2019-05-20T10:20:02Z</time>
      </trkpt>
      <trkpt lat="53.5003" lon="8.47806">
        <ele>-14.60000038147</ele>
        <time>2019-05-20T10:20:32Z</time>
      </trkpt>
      <trkpt lat="53.50044" lon="8.47844">
        <ele>-14.60000038147</ele>
        <time>2019-05-20T10:20:58Z</time>
      </trkpt>
      <trkpt lat="53.50069" lon="8.47891">
        <ele>-14.800000190735</ele>
        <time>2019-05-20T10:21:07Z</time>
      </trkpt>
      <trkpt lat="53.50035" lon="8.47974">
        <ele>-15.39999961853</ele>
        <time>2019-05-20T10:21:28Z</time>
      </trkpt>
      <trkpt lat="53.4999" lon="8.48072">
        <ele>-15.60000038147</ele>
        <time>2019-05-20T10:21:47Z</time>
      </trkpt>
      <trkpt lat="53.50053" lon="8.48222">
        <ele>-15.60000038147</ele>
        <time>2019-05-20T10:21:59Z</time>
      </trkpt>
      <trkpt lat="53.5005" lon="8.48289">
        <ele>-15.60000038147</ele>
        <time>2019-05-20T10:22:19Z</time>
      </trkpt>
      <trkpt lat="53.50014" lon="8.48377">
        <ele>-16</ele>
        <time>2019-05-20T10:22:30Z</time>
      </trkpt>
      <trkpt lat="53.50006" lon="8.48491">
        <ele>-16.200000762939</ele>
        <time>2019-05-20T10:22:53Z</time>
      </trkpt>
      <trkpt lat="53.50003" lon="8.48652">
        <ele>-16</ele>
        <time>2019-05-20T10:23:13Z</time>
      </trkpt>
      <trkpt lat="53.50001" lon="8.48759">
        <ele>-16</ele>
        <time>2019-05-20T10:23:33Z</time>
      </trkpt>
      <trkpt lat="53.50012" lon="8.48844">
        <ele>-16.200000762939</ele>
        <time>2019-05-20T10:23:58Z</time>
      </trkpt>
      <trkpt lat="53.50018" lon="8.48904">
        <ele>-15.800000190735</ele>
        <time>2019-05-20T10:24:23Z</time>
      </trkpt>
      <trkpt lat="53.50088" lon="8.48941">
        <ele>-15.60000038147</ele>
        <time>2019-05-20T10:24:45Z</time>
      </trkpt>
      <trkpt lat="53.50164" lon="8.49013">
        <ele>-15.800000190735</ele>
        <time>2019-05-20T10:25:08Z</time>
      </trkpt>
      <trkpt lat="53.50259" lon="8.49119">
        <ele>-16.200000762939</ele>
        <time>2019-05-20T10:25:31Z</time>
      </trkpt>
      <trkpt lat="53.50324" lon="8.49189">
        <ele>-16</ele>
        <time>2019-05-20T10:25:35Z</time>
      </trkpt>
      <trkpt lat="53.50466" lon="8.49339">
        <ele>-16</ele>
        <time>2019-05-20T10:25:50Z</time>
      </trkpt>
      <trkpt lat="53.50529" lon="8.4935">
        <ele>-15.800000190735</ele>
        <time>2019-05-20T10:26:07Z</time>
      </trkpt>
      <trkpt lat="53.5057" lon="8.4927">
        <ele>-15.800000190735</ele>
        <time>2019-05-20T10:26:20Z</time>
      </trkpt>
      <trkpt lat="53.5063" lon="8.49145">
        <ele>-16.200000762939</ele>
        <time>2019-05-20T10:26:41Z</time>
      </trkpt>
      <trkpt lat="53.50682" lon="8.49033">
        <ele>-16</ele>
        <time>2019-05-20T10:26:55Z</time>
      </trkpt>
      <trkpt lat="53.50703" lon="8.49026">
        <ele>-16.39999961853</ele>
        <time>2019-05-20T10:27:14Z</time>
      </trkpt>
      <trkpt lat="53.50713" lon="8.4904">
        <ele>-16.200000762939</ele>
        <time>2019-05-20T10:27:32Z</time>
      </trkpt>
      <trkpt lat="53.50765" lon="8.49105">
        <ele>-16</ele>
        <time>2019-05-20T10:27:52Z</time>
      </trkpt>
      <trkpt lat="53.50827" lon="8.49173">
        <ele>-16.60000038147</ele>
        <time>2019-05-20T10:28:10Z</time>
      </trkpt>
      <trkpt lat="53.50838" lon="8.49196">
        <ele>-16.39999961853</ele>
        <time>2019-05-20T10:28:35Z</time>
      </trkpt>
      <trkpt lat="53.50832" lon="8.49223">
        <ele>-16.39999961853</ele>
        <time>2019-05-20T10:28:58Z</time>
      </trkpt>
      <trkpt lat="53.50819" lon="8.49251">
        <ele>-16.200000762939</ele>
        <time>2019-05-20T10:29:28Z</time>
      </trkpt>
      <trkpt lat="53.50786" lon="8.49323">
        <ele>-16</ele>
        <time>2019-05-20T10:29:44Z</time>
      </trkpt>
      <trkpt lat="53.50744" lon="8.49424">
        <ele>-15.800000190735</ele>
        <time>2019-05-20T10:30:04Z</time>
      </trkpt>
      <trkpt lat="53.50726" lon="8.49508">
        <ele>-16.39999961853</ele>
        <time>2019-05-20T10:30:22Z</time>
      </trkpt>
      <trkpt lat="53.5079" lon="8.4958">
        <ele>-16</ele>
        <time>2019-05-20T10:57:58Z</time>
      </trkpt>
      <trkpt lat="53.51024" lon="8.49911">
        <ele>-16.60000038147</ele>
        <time>2019-05-20T10:58:14Z</time>
      </trkpt>
      <trkpt lat="53.51271" lon="8.50266">
        <ele>-16.60000038147</ele>
        <time>2019-05-20T10:58:37Z</time>
      </trkpt>
      <trkpt lat="53.5131" lon="8.50325">
        <ele>-17.200000762939</ele>
        <time>2019-05-20T10:58:58Z</time>
      </trkpt>
      <trkpt lat="53.5138" lon="8.50438">
        <ele>-17.200000762939</ele>
        <time>2019-05-20T10:59:22Z</time>
      </trkpt>
      <trkpt lat="53.51437" lon="8.50524">
        <ele>-17</ele>
        <time>2019-05-20T10:59:43Z</time>
      </trkpt>
      <trkpt lat="53.51435" lon="8.50534">
        <ele>-17.39999961853</ele>
        <time>2019-05-20T11:00:00Z</time>
      </trkpt>
      <trkpt lat="53.51431" lon="8.50578">
        <ele>-17.60000038147</ele>
        <time>2019-05-20T11:00:20Z</time>
      </trkpt>
      <trkpt lat="53.51409" lon="8.50724">
        <ele>-17.200000762939</ele>
        <time>2019-05-20T11:00:42Z</time>
      </trkpt>
      <trkpt lat="53.5138" lon="8.50837">
        <ele>-16.39999961853</ele>
        <time>2019-05-20T11:01:08Z</time>
      </trkpt>
      <trkpt lat="53.51349" lon="8.50961">
        <ele>-16</ele>
        <time>2019-05-20T11:01:25Z</time>
      </trkpt>
      <trkpt lat="53.51302" lon="8.51156">
        <ele>-16.39999961853</ele>
        <time>2019-05-20T11:01:40Z</time>
      </trkpt>
      <trkpt lat="53.51275" lon="8.51227">
        <ele>-16.200000762939</ele>
        <time>2019-05-20T11:02:01Z</time>
      </trkpt>
      <trkpt lat="53.51279" lon="8.5124">
        <ele>-16.39999961853</ele>
        <time>2019-05-20T11:02:26Z</time>
      </trkpt>
      <trkpt lat="53.51437" lon="8.51319">
        <ele>-16</ele>
        <time>2019-05-20T11:02:52Z</time>
      </trkpt>
      <trkpt lat="53.51528" lon="8.5137">
        <ele>-16.799999237061</ele>
        <time>2019-05-20T11:03:17Z</time>
      </trkpt>
      <trkpt lat="53.5156" lon="8.51427">
        <ele>-16.200000762939</ele>
        <time>2019-05-20T11:03:33Z</time>
      </trkpt>
      <trkpt lat="53.51523" lon="8.51504">
        <ele>-16.39999961853</ele>
        <time>2019-05-20T11:03:57Z</time>
      </trkpt>
      <trkpt lat="53.51487" lon="8.5158">
        <ele>-16.39999961853</ele>
        <time>2019-05-20T11:04:21Z</time>
      </trkpt>
      <trkpt lat="53.51463" lon="8.51651">
        <ele>-16</ele>
        <time>2019-05-20T11:04:38Z</time>
      </trkpt>
      <trkpt lat="53.51428" lon="8.5176">
        <ele>-15.60000038147</ele>
        <time>2019-05-20T11:05:04Z</time>
      </trkpt>
      <trkpt lat="53.51414" lon="8.51855">
        <ele>-15.60000038147</ele>
        <time>2019-05-20T11:05:27Z</time>
      </trkpt>
      <trkpt lat="53.51486" lon="8.51947">
        <ele>-16</ele>
        <time>2019-05-20T11:05:48Z</time>
      </trkpt>
      <trkpt lat="53.51536" lon="8.52017">
        <ele>-16</ele>
        <time>2019-05-20T11:05:59Z</time>
      </trkpt>
      <trkpt lat="53.51586" lon="8.52099">
        <ele>-15.800000190735</ele>
        <time>2019-05-20T11:06:10Z</time>
      </trkpt>
      <trkpt lat="53.51652" lon="8.52198">
        <ele>-16.200000762939</ele>
        <time>2019-05-20T11:06:31Z</time>
      </trkpt>
      <trkpt lat="53.51717" lon="8.52296">
        <ele>-16.200000762939</ele>
        <time>2019-05-20T11:06:53Z</time>
      </trkpt>
      <trkpt lat="53.51753" lon="8.52366">
        <ele>-16</ele>
        <time>2019-05-20T11:07:13Z</time>
      </trkpt>
      <trkpt lat="53.51739" lon="8.52397">
        <ele>-16</ele>
        <time>2019-05-20T11:07:31Z</time>
      </trkpt>
      <trkpt lat="53.5169" lon="8.52493">
        <ele>-16.200000762939</ele>
        <time>2019-05-20T11:07:54Z</time>
      </trkpt>
      <trkpt lat="53.51633" lon="8.52598">
        <ele>-16.60000038147</ele>
        <time>2019-05-20T11:08:06Z</time>
      </trkpt>
      <trkpt lat="53.51568" lon="8.52706">
        <ele>-16.799999237061</ele>
        <time>2019-05-20T11:08:22Z</time>
      </trkpt>
      <trkpt lat="53.51564" lon="8.52738">
        <ele>-16.200000762939</ele>
        <time>2019-05-20T11:08:42Z</time>
      </trkpt>
      <trkpt lat="53.51593" lon="8.52795">
        <ele>-16.200000762939</ele>
        <time>2019-05-20T11:08:56Z</time>
      </trkpt>
      <trkpt lat="53.51661" lon="8.52927">
        <ele>-15.800000190735</ele>
        <time>2019-05-20T11:09:14Z</time>
      </trkpt>
      <trkpt lat="53.51712" lon="8.53044">
        <ele>-16.200000762939</ele>
        <time>2019-05-20T11:09:34Z</time>
      </trkpt>
      <trkpt lat="53.51744" lon="8.53118">
        <ele>-16.200000762939</ele>
        <time>2019-05-20T11:09:55Z</time>
      </trkpt>
      <trkpt lat="53.5176" lon="8.53152">
        <ele>-16.39999961853</ele>
        <time>2019-05-20T11:10:14Z</time>
      </trkpt>
      <trkpt lat="53.51824" lon="8.53292">
        <ele>-15.800000190735</ele>
        <time>2019-05-20T11:10:28Z</time>
      </trkpt>
      <trkpt lat="53.51863" lon="8.53382">
        <ele>-16</ele>
        <time>2019-05-20T11:10:45Z</time>
      </trkpt>
      <trkpt lat="53.51918" lon="8.53505">
        <ele>-16.200000762939</ele>
        <time>2019-05-20T11:11:03Z</time>
      </trkpt>
      <trkpt lat="53.51959" lon="8.53598">
        <ele>-16.200000762939</ele>
        <time>2019-05-20T11:11:20Z</time>
      </trkpt>
      <trkpt lat="53.51995" lon="8.53679">
        <ele>-16</ele>
        <time>2019-05-20T11:11:36Z</time>
      </trkpt>
      <trkpt lat="53.52018" lon="8.53726">
        <ele>-16.200000762939</ele>
        <time>2019-05-20T11:11:53Z</time>
      </trkpt>
      <trkpt lat="53.52075" lon="8.53848">
        <ele>-16.200000762939</ele>
        <time>2019-05-20T11:12:11Z</time>
      </trkpt>
      <trkpt lat="53.52116" lon="8.53939">
        <ele>-15.39999961853</ele>
        <time>2019-05-20T11:12:20Z</time>
      </trkpt>
      <trkpt lat="53.52141" lon="8.54012">
        <ele>-13.199999809265</ele>
        <time>2019-05-20T11:12:40Z</time>
      </trkpt>
      <trkpt lat="53.52136" lon="8.54109">
        <ele>-12.60000038147</ele>
        <time>2019-05-20T11:13:04Z</time>
      </trkpt>
      <trkpt lat="53.52148" lon="8.5424">
        <ele>-13.39999961853</ele>
        <time>2019-05-20T11:13:26Z</time>
      </trkpt>
      <trkpt lat="53.52131" lon="8.54336">
        <ele>-13.60000038147</ele>
        <time>2019-05-20T11:13:48Z</time>
      </trkpt>
      <trkpt lat="53.52107" lon="8.54355">
        <ele>-13</ele>
        <time>2019-05-20T11:14:11Z</time>
      </trkpt>
      <trkpt lat="53.52104" lon="8.54376">
        <ele>-13</ele>
        <time>2019-05-20T11:14:26Z</time>
      </trkpt>
      <trkpt lat="53.52093" lon="8.54392">
        <ele>-13.39999961853</ele>
        <time>2019-05-20T11:14:55Z</time>
      </trkpt>
      <trkpt lat="53.52092" lon="8.54384">
        <ele>-12.800000190735</ele>
        <time>2019-05-20T11:15:12Z</time>
      </trkpt>
      <trkpt lat="53.52096" lon="8.54372">
        <ele>-13.199999809265</ele>
        <time>2019-05-20T11:15:29Z</time>
      </trkpt>
      <trkpt lat="53.52117" lon="8.54348">
        <ele>-13</ele>
        <time>2019-05-20T11:15:50Z</time>
      </trkpt>
      <trkpt lat="53.52115" lon="8.54352">
        <ele>-13.800000190735</ele>
        <time>2019-05-20T11:16:03Z</time>
      </trkpt>
      <trkpt lat="53.52105" lon="8.54379">
        <ele>-13.800000190735</ele>
        <time>2019-05-20T11:16:53Z</time>
      </trkpt>
      <trkpt lat="53.52074" lon="8.54405">
        <ele>-14.39999961853</ele>
        <time>2019-05-20T11:17:08Z</time>
      </trkpt>
      <trkpt lat="53.52053" lon="8.54445">
        <ele>-14.60000038147</ele>
        <time>2019-05-20T11:17:24Z</time>
      </trkpt>
      <trkpt lat="53.52042" lon="8.54528">
        <ele>-14.60000038147</ele>
        <time>2019-05-20T11:17:37Z</time>
      </trkpt>
      <trkpt lat="53.52068" lon="8.54624">
        <ele>-16.39999961853</ele>
        <time>2019-05-20T11:17:56Z</time>
      </trkpt>
      <trkpt lat="53.52076" lon="8.54647">
        <ele>-15.800000190735</ele>
        <time>2019-05-20T11:18:13Z</time>
      </trkpt>
      <trkpt lat="53.52105" lon="8.5474">
        <ele>-16.200000762939</ele>
        <time>2019-05-20T11:18:34Z</time>
      </trkpt>
      <trkpt lat="53.5216" lon="8.54981">
        <ele>-16.60000038147</ele>
        <time>2019-05-20T11:18:52Z</time>
      </trkpt>
      <trkpt lat="53.52231" lon="8.55372">
        <ele>-16.60000038147</ele>
        <time>2019-05-20T11:19:05Z</time>
      </trkpt>
      <trkpt lat="53.52283" lon="8.55592">
        <ele>-15.60000038147</ele>
        <time>2019-05-20T11:19:26Z</time>
      </trkpt>
      <trkpt lat="53.52313" lon="8.55698">
        <ele>-16.60000038147</ele>
        <time>2019-05-20T11:19:32Z</time>
      </trkpt>
      <trkpt lat="53.52364" lon="8.55869">
        <ele>-15.60000038147</ele>
        <time>2019-05-20T11:19:49Z</time>
      </trkpt>
      <trkpt lat="53.52418" lon="8.56032">
        <ele>-15.199999809265</ele>
        <time>2019-05-20T11:19:58Z</time>
      </trkpt>
      <trkpt lat="53.5249" lon="8.56221">
        <ele>-15.39999961853</ele>
        <time>2019-05-20T11:20:05Z</time>
      </trkpt>
      <trkpt lat="53.5258" lon="8.56412">
        <ele>-15</ele>
        <time>2019-05-20T11:20:09Z</time>
      </trkpt>
      <trkpt lat="53.52609" lon="8.56469">
        <ele>-14.800000190735</ele>
        <time>2019-05-20T11:20:21Z</time>
      </trkpt>
      <trkpt lat="53.52704" lon="8.56638">
        <ele>-14.800000190735</ele>
        <time>2019-05-20T11:20:41Z</time>
      </trkpt>
      <trkpt lat="53.52786" lon="8.56769">
        <ele>-14.60000038147</ele>
        <time>2019-05-20T11:20:52Z</time>
      </trkpt>
      <trkpt lat="53.52893" lon="8.56899">
        <ele>-14.800000190735</ele>
        <time>2019-05-20T11:21:10Z</time>
      </trkpt>
      <trkpt lat="53.5325" lon="8.57232">
        <ele>-14.800000190735</ele>
        <time>2019-05-20T11:21:21Z</time>
      </trkpt>
      <trkpt lat="53.53361" lon="8.57305">
        <ele>-14.60000038147</ele>
        <time>2019-05-20T11:22:12Z</time>
      </trkpt>
      <trkpt lat="53.5348" lon="8.57403">
        <ele>-13.60000038147</ele>
        <time>2019-05-20T11:22:30Z</time>
      </trkpt>
      <trkpt lat="53.53537" lon="8.57499">
        <ele>-14</ele>
        <time>2019-05-20T11:22:50Z</time>
      </trkpt>
      <trkpt lat="53.53583" lon="8.57702">
        <ele>-16.39999961853</ele>
        <time>2019-05-20T11:23:05Z</time>
      </trkpt>
      <trkpt lat="53.53609" lon="8.5783">
        <ele>-17.39999961853</ele>
        <time>2019-05-20T11:23:26Z</time>
      </trkpt>
      <trkpt lat="53.53639" lon="8.57984">
        <ele>-17</ele>
        <time>2019-05-20T11:23:48Z</time>
      </trkpt>
      <trkpt lat="53.53653" lon="8.58041">
        <ele>-17.60000038147</ele>
        <time>2019-05-20T11:24:04Z</time>
      </trkpt>
      <trkpt lat="53.53658" lon="8.58063">
        <ele>-17.39999961853</ele>
        <time>2019-05-20T11:24:16Z</time>
      </trkpt>
      <trkpt lat="53.53665" lon="8.58077">
        <ele>-17.39999961853</ele>
        <time>2019-05-20T11:24:27Z</time>
      </trkpt>
      <trkpt lat="53.53672" lon="8.58101">
        <ele>-17</ele>
        <time>2019-05-20T11:24:36Z</time>
      </trkpt>
      <trkpt lat="53.53675" lon="8.5812">
        <ele>-17</ele>
        <time>2019-05-20T11:24:55Z</time>
      </trkpt>
      <trkpt lat="53.53675" lon="8.58134">
        <ele>-17.200000762939</ele>
        <time>2019-05-20T11:25:13Z</time>
      </trkpt>
      <trkpt lat="53.53655" lon="8.58181">
        <ele>-16.799999237061</ele>
        <time>2019-05-20T11:25:31Z</time>
      </trkpt>
      <trkpt lat="53.53669" lon="8.58267">
        <ele>-14.800000190735</ele>
        <time>2019-05-20T11:25:50Z</time>
      </trkpt>
      <trkpt lat="53.53643" lon="8.58313">
        <ele>-15</ele>
        <time>2019-05-20T11:26:00Z</time>
      </trkpt>
      <trkpt lat="53.53607" lon="8.58369">
        <ele>-17.60000038147</ele>
        <time>2019-05-20T11:26:18Z</time>
      </trkpt>
      <trkpt lat="53.53598" lon="8.58408">
        <ele>-17.799999237061</ele>
        <time>2019-05-20T11:26:24Z</time>
      </trkpt>
      <trkpt lat="53.53615" lon="8.58479">
        <ele>-17.39999961853</ele>
        <time>2019-05-20T11:26:42Z</time>
      </trkpt>
      <trkpt lat="53.53627" lon="8.58499">
        <ele>-17.60000038147</ele>
        <time>2019-05-20T11:27:08Z</time>
      </trkpt>
      <trkpt lat="53.53656" lon="8.58557">
        <ele>-17.60000038147</ele>
        <time>2019-05-20T11:27:26Z</time>
      </trkpt>
      <trkpt lat="53.53684" lon="8.58601">
        <ele>-18</ele>
        <time>2019-05-20T11:27:47Z</time>
      </trkpt>
      <trkpt lat="53.5366" lon="8.58642">
        <ele>-17.39999961853</ele>
        <time>2019-05-20T11:28:06Z</time>
      </trkpt>
      <trkpt lat="53.53631" lon="8.58703">
        <ele>-18</ele>
        <time>2019-05-20T11:28:25Z</time>
      </trkpt>
      <trkpt lat="53.53584" lon="8.58787">
        <ele>-18.200000762939</ele>
        <time>2019-05-20T11:28:44Z</time>
      </trkpt>
      <trkpt lat="53.53534" lon="8.58811">
        <ele>-18</ele>
        <time>2019-05-20T11:28:56Z</time>
      </trkpt>
      <trkpt lat="53.53469" lon="8.58819">
        <ele>-17.60000038147</ele>
        <time>2019-05-20T11:29:23Z</time>
      </trkpt>
      <trkpt lat="53.53466" lon="8.58944">
        <ele>-18.39999961853</ele>
        <time>2019-05-20T11:29:43Z</time>
      </trkpt>
      <trkpt lat="53.53486" lon="8.59103">
        <ele>-17.60000038147</ele>
        <time>2019-05-20T11:29:53Z</time>
      </trkpt>
      <trkpt lat="53.5352" lon="8.59275">
        <ele>-18</ele>
        <time>2019-05-20T11:30:06Z</time>
      </trkpt>
      <trkpt lat="53.53495" lon="8.59303">
        <ele>-17.200000762939</ele>
        <time>2019-05-20T11:30:18Z</time>
      </trkpt>
      <trkpt lat="53.53478" lon="8.5932">
        <ele>-17.39999961853</ele>
        <time>2019-05-20T11:30:25Z</time>
      </trkpt>
      <trkpt lat="53.53468" lon="8.59328">
        <ele>-17</ele>
        <time>2019-05-20T11:30:32Z</time>
      </trkpt>
      <trkpt lat="53.53467" lon="8.59317">
        <ele>-18.200000762939</ele>
        <time>2019-05-20T11:30:43Z</time>
      </trkpt>
      <trkpt lat="53.53466" lon="8.59316">
        <ele>-17.799999237061</ele>
        <time>2019-05-20T11:30:51Z</time>
      </trkpt>
      <trkpt lat="53.53511" lon="8.593">
        <ele>-17.799999237061</ele>
        <time>2019-05-20T11:31:13Z</time>
      </trkpt>
      <trkpt lat="53.53525" lon="8.59327">
        <ele>-17.799999237061</ele>
        <time>2019-05-20T11:31:27Z</time>
      </trkpt>
      <trkpt lat="53.53527" lon="8.59311">
        <ele>-17.799999237061</ele>
        <time>2019-05-20T11:31:41Z</time>
      </trkpt>
      <trkpt lat="53.53544" lon="8.59297">
        <ele>-18.200000762939</ele>
        <time>2019-05-20T11:31:50Z</time>
      </trkpt>
      <trkpt lat="53.53569" lon="8.59292">
        <ele>-18</ele>
        <time>2019-05-20T11:31:59Z</time>
      </trkpt>
      <trkpt lat="53.53623" lon="8.59307">
        <ele>-18.200000762939</ele>
        <time>2019-05-20T11:32:10Z</time>
      </trkpt>
      <trkpt lat="53.53679" lon="8.59311">
        <ele>-18.200000762939</ele>
        <time>2019-05-20T11:32:21Z</time>
      </trkpt>
      <trkpt lat="53.53737" lon="8.59328">
        <ele>-19</ele>
        <time>2019-05-20T11:32:40Z</time>
      </trkpt>
      <trkpt lat="53.53797" lon="8.59362">
        <ele>-19</ele>
        <time>2019-05-20T11:32:56Z</time>
      </trkpt>
      <trkpt lat="53.53856" lon="8.59384">
        <ele>-18.799999237061</ele>
        <time>2019-05-20T11:33:13Z</time>
      </trkpt>
      <trkpt lat="53.53887" lon="8.59403">
        <ele>-19</ele>
        <time>2019-05-20T11:33:28Z</time>
      </trkpt>
      <trkpt lat="53.53922" lon="8.59417">
        <ele>-19</ele>
        <time>2019-05-20T11:33:50Z</time>
      </trkpt>
      <trkpt lat="53.5399" lon="8.59447">
        <ele>-18.60000038147</ele>
        <time>2019-05-20T11:34:06Z</time>
      </trkpt>
      <trkpt lat="53.54029" lon="8.59459">
        <ele>-18.200000762939</ele>
        <time>2019-05-20T11:34:21Z</time>
      </trkpt>
      <trkpt lat="53.54066" lon="8.5948">
        <ele>-18.39999961853</ele>
        <time>2019-05-20T11:34:44Z</time>
      </trkpt>
      <trkpt lat="53.54134" lon="8.59502">
        <ele>-18.39999961853</ele>
        <time>2019-05-20T11:35:16Z</time>
      </trkpt>
      <trkpt lat="53.54209" lon="8.59533">
        <ele>-18.799999237061</ele>
        <time>2019-05-20T11:35:43Z</time>
      </trkpt>
      <trkpt lat="53.54285" lon="8.59553">
        <ele>-18.799999237061</ele>
        <time>2019-05-20T11:35:55Z</time>
      </trkpt>
      <trkpt lat="53.54326" lon="8.5956">
        <ele>-19.60000038147</ele>
        <time>2019-05-20T11:36:21Z</time>
      </trkpt>
      <trkpt lat="53.54437" lon="8.59529">
        <ele>-18.799999237061</ele>
        <time>2019-05-20T11:36:44Z</time>
      </trkpt>
      <trkpt lat="53.5453" lon="8.59504">
        <ele>-18.60000038147</ele>
        <time>2019-05-20T11:36:56Z</time>
      </trkpt>
      <trkpt lat="53.54591" lon="8.59485">
        <ele>-18.39999961853</ele>
        <time>2019-05-20T11:37:17Z</time>
      </trkpt>
      <trkpt lat="53.54636" lon="8.59476">
        <ele>-18</ele>
        <time>2019-05-20T11:37:45Z</time>
      </trkpt>
      <trkpt lat="53.54686" lon="8.59461">
        <ele>-18.200000762939</ele>
        <time>2019-05-20T11:38:05Z</time>
      </trkpt>
      <trkpt lat="53.54711" lon="8.59434">
        <ele>-17.799999237061</ele>
        <time>2019-05-20T11:38:30Z</time>
      </trkpt>
      <trkpt lat="53.54679" lon="8.59405">
        <ele>-18.200000762939</ele>
        <time>2019-05-20T11:38:58Z</time>
      </trkpt>
      <trkpt lat="53.54648" lon="8.59357">
        <ele>-18.200000762939</ele>
        <time>2019-05-20T11:39:20Z</time>
      </trkpt>
      <trkpt lat="53.54628" lon="8.59335">
        <ele>-18</ele>
        <time>2019-05-20T11:39:42Z</time>
      </trkpt>
      <trkpt lat="53.54601" lon="8.59361">
        <ele>-18</ele>
        <time>2019-05-20T11:40:07Z</time>
      </trkpt>
      <trkpt lat="53.54577" lon="8.59371">
        <ele>-19</ele>
        <time>2019-05-20T11:40:27Z</time>
      </trkpt>
      <trkpt lat="53.546" lon="8.5934">
        <ele>-19.200000762939</ele>
        <time>2019-05-20T11:41:27Z</time>
      </trkpt>
      <trkpt lat="53.5462" lon="8.59318">
        <ele>-19.200000762939</ele>
        <time>2019-05-20T11:41:46Z</time>
      </trkpt>
      <trkpt lat="53.54629" lon="8.59325">
        <ele>-19</ele>
        <time>2019-05-20T11:42:14Z</time>
      </trkpt>
      <trkpt lat="53.54677" lon="8.59383">
        <ele>-18.60000038147</ele>
        <time>2019-05-20T11:42:40Z</time>
      </trkpt>
      <trkpt lat="53.54767" lon="8.59439">
        <ele>-18.39999961853</ele>
        <time>2019-05-20T11:43:06Z</time>
      </trkpt>
      <trkpt lat="53.54852" lon="8.59425">
        <ele>-18.39999961853</ele>
        <time>2019-05-20T11:43:36Z</time>
      </trkpt>
      <trkpt lat="53.54939" lon="8.59415">
        <ele>-18.60000038147</ele>
        <time>2019-05-20T11:44:04Z</time>
      </trkpt>
      <trkpt lat="53.54987" lon="8.59421">
        <ele>-17.799999237061</ele>
        <time>2019-05-20T11:44:28Z</time>
      </trkpt>
      <trkpt lat="53.54994" lon="8.59431">
        <ele>-16.60000038147</ele>
        <time>2019-05-20T11:44:47Z</time>
      </trkpt>
      <trkpt lat="53.55063" lon="8.59416">
        <ele>-14</ele>
        <time>2019-05-20T11:45:11Z</time>
      </trkpt>
      <trkpt lat="53.55078" lon="8.59417">
        <ele>-13.800000190735</ele>
        <time>2019-05-20T11:45:32Z</time>
      </trkpt>
      <trkpt lat="53.55135" lon="8.594">
        <ele>-13.800000190735</ele>
        <time>2019-05-20T11:45:45Z</time>
      </trkpt>
      <trkpt lat="53.55209" lon="8.59377">
        <ele>-13.39999961853</ele>
        <time>2019-05-20T11:46:07Z</time>
      </trkpt>
      <trkpt lat="53.55318" lon="8.59364">
        <ele>-13.800000190735</ele>
        <time>2019-05-20T11:46:27Z</time>
      </trkpt>
      <trkpt lat="53.55399" lon="8.59358">
        <ele>-14.60000038147</ele>
        <time>2019-05-20T11:46:52Z</time>
      </trkpt>
      <trkpt lat="53.55447" lon="8.59359">
        <ele>-15.800000190735</ele>
        <time>2019-05-20T11:47:13Z</time>
      </trkpt>
      <trkpt lat="53.55503" lon="8.59348">
        <ele>-16.60000038147</ele>
        <time>2019-05-20T11:47:41Z</time>
      </trkpt>
      <trkpt lat="53.55693" lon="8.59323">
        <ele>-18.200000762939</ele>
        <time>2019-05-20T11:48:06Z</time>
      </trkpt>
      <trkpt lat="53.5584" lon="8.59303">
        <ele>-17.39999961853</ele>
        <time>2019-05-20T11:48:24Z</time>
      </trkpt>
      <trkpt lat="53.55863" lon="8.59298">
        <ele>-18</ele>
        <time>2019-05-20T11:48:40Z</time>
      </trkpt>
      <trkpt lat="53.55926" lon="8.59321">
        <ele>-17.799999237061</ele>
        <time>2019-05-20T11:49:11Z</time>
      </trkpt>
      <trkpt lat="53.55991" lon="8.59365">
        <ele>-17.200000762939</ele>
        <time>2019-05-20T11:49:36Z</time>
      </trkpt>
      <trkpt lat="53.5607" lon="8.59384">
        <ele>-16.799999237061</ele>
        <time>2019-05-20T11:50:02Z</time>
      </trkpt>
      <trkpt lat="53.56137" lon="8.59372">
        <ele>-15.60000038147</ele>
        <time>2019-05-20T11:50:19Z</time>
      </trkpt>
      <trkpt lat="53.56175" lon="8.59366">
        <ele>-15.39999961853</ele>
        <time>2019-05-20T11:50:35Z</time>
      </trkpt>
      <trkpt lat="53.56284" lon="8.59396">
        <ele>-14</ele>
        <time>2019-05-20T11:51:00Z</time>
      </trkpt>
      <trkpt lat="53.56337" lon="8.59454">
        <ele>-14</ele>
        <time>2019-05-20T11:51:29Z</time>
      </trkpt>
      <trkpt lat="53.56397" lon="8.59513">
        <ele>-14.39999961853</ele>
        <time>2019-05-20T11:51:57Z</time>
      </trkpt>
      <trkpt lat="53.56468" lon="8.59513">
        <ele>-14.60000038147</ele>
        <time>2019-05-20T11:52:04Z</time>
      </trkpt>
      <trkpt lat="53.56516" lon="8.59513">
        <ele>-15.39999961853</ele>
        <time>2019-05-20T11:52:55Z</time>
      </trkpt>
      <trkpt lat="53.56584" lon="8.5954">
        <ele>-15.199999809265</ele>
        <time>2019-05-20T11:53:14Z</time>
      </trkpt>
      <trkpt lat="53.56645" lon="8.59581">
        <ele>-15.39999961853</ele>
        <time>2019-05-20T11:53:39Z</time>
      </trkpt>
      <trkpt lat="53.56709" lon="8.59624">
        <ele>-15.800000190735</ele>
        <time>2019-05-20T11:54:00Z</time>
      </trkpt>
      <trkpt lat="53.56739" lon="8.5964">
        <ele>-16.39999961853</ele>
        <time>2019-05-20T11:54:11Z</time>
      </trkpt>
      <trkpt lat="53.56712" lon="8.59628">
        <ele>-17</ele>
        <time>2019-05-20T11:54:31Z</time>
      </trkpt>
      <trkpt lat="53.56682" lon="8.59677">
        <ele>-16.60000038147</ele>
        <time>2019-05-20T11:54:53Z</time>
      </trkpt>
      <trkpt lat="53.56663" lon="8.59775">
        <ele>-16.60000038147</ele>
        <time>2019-05-20T11:55:18Z</time>
      </trkpt>
      <trkpt lat="53.56659" lon="8.5984">
        <ele>-16.799999237061</ele>
        <time>2019-05-20T11:55:41Z</time>
      </trkpt>
      <trkpt lat="53.56665" lon="8.59927">
        <ele>-16.60000038147</ele>
        <time>2019-05-20T11:56:03Z</time>
      </trkpt>
      <trkpt lat="53.56665" lon="8.59948">
        <ele>-16.799999237061</ele>
        <time>2019-05-20T11:56:28Z</time>
      </trkpt>
      <trkpt lat="53.56672" lon="8.59973">
        <ele>-16.799999237061</ele>
        <time>2019-05-20T11:56:52Z</time>
      </trkpt>
      <trkpt lat="53.56836" lon="8.5998">
        <ele>-18.60000038147</ele>
        <time>2019-05-20T11:57:10Z</time>
      </trkpt>
      <trkpt lat="53.56914" lon="8.59978">
        <ele>-18.200000762939</ele>
        <time>2019-05-20T11:57:33Z</time>
      </trkpt>
      <trkpt lat="53.5699" lon="8.59989">
        <ele>-18</ele>
        <time>2019-05-20T11:57:57Z</time>
      </trkpt>
      <trkpt lat="53.57021" lon="8.60043">
        <ele>-17.39999961853</ele>
        <time>2019-05-20T11:58:04Z</time>
      </trkpt>
      <trkpt lat="53.57023" lon="8.60196">
        <ele>-16.799999237061</ele>
        <time>2019-05-20T11:58:18Z</time>
      </trkpt>
      <trkpt lat="53.57043" lon="8.60416">
        <ele>-15.60000038147</ele>
        <time>2019-05-20T11:58:31Z</time>
      </trkpt>
      <trkpt lat="53.57048" lon="8.60508">
        <ele>-15.39999961853</ele>
        <time>2019-05-20T11:58:54Z</time>
      </trkpt>
      <trkpt lat="53.57056" lon="8.60617">
        <ele>-14.60000038147</ele>
        <time>2019-05-20T11:59:16Z</time>
      </trkpt>
      <trkpt lat="53.57063" lon="8.60745">
        <ele>-14</ele>
        <time>2019-05-20T11:59:44Z</time>
      </trkpt>
      <trkpt lat="53.57067" lon="8.60864">
        <ele>-14.199999809265</ele>
        <time>2019-05-20T12:00:05Z</time>
      </trkpt>
      <trkpt lat="53.57069" lon="8.60927">
        <ele>-14</ele>
        <time>2019-05-20T12:00:26Z</time>
      </trkpt>
      <trkpt lat="53.57072" lon="8.61049">
        <ele>-14.199999809265</ele>
        <time>2019-05-20T12:00:43Z</time>
      </trkpt>
      <trkpt lat="53.57072" lon="8.61144">
        <ele>-14.60000038147</ele>
        <time>2019-05-20T12:00:54Z</time>
      </trkpt>
      <trkpt lat="53.5707" lon="8.61228">
        <ele>-14.800000190735</ele>
        <time>2019-05-20T12:01:15Z</time>
      </trkpt>
      <trkpt lat="53.5707" lon="8.61468">
        <ele>-15.199999809265</ele>
        <time>2019-05-20T12:01:40Z</time>
      </trkpt>
      <trkpt lat="53.57072" lon="8.61668">
        <ele>-16</ele>
        <time>2019-05-20T12:01:53Z</time>
      </trkpt>
      <trkpt lat="53.57076" lon="8.61906">
        <ele>-16.39999961853</ele>
        <time>2019-05-20T12:09:04Z</time>
      </trkpt>
      <trkpt lat="53.57091" lon="8.62015">
        <ele>-17.200000762939</ele>
        <time>2019-05-20T12:09:35Z</time>
      </trkpt>
      <trkpt lat="53.57114" lon="8.62166">
        <ele>-17.200000762939</ele>
        <time>2019-05-20T12:10:03Z</time>
      </trkpt>
      <trkpt lat="53.57123" lon="8.62234">
        <ele>-18.200000762939</ele>
        <time>2019-05-20T12:10:32Z</time>
      </trkpt>
      <trkpt lat="53.57149" lon="8.62429">
        <ele>-17.200000762939</ele>
        <time>2019-05-20T12:10:59Z</time>
      </trkpt>
      <trkpt lat="53.5717" lon="8.62569">
        <ele>-17</ele>
        <time>2019-05-20T12:11:25Z</time>
      </trkpt>
      <trkpt lat="53.57189" lon="8.62693">
        <ele>-16</ele>
        <time>2019-05-20T12:11:50Z</time>
      </trkpt>
      <trkpt lat="53.572" lon="8.62744">
        <ele>-16.60000038147</ele>
        <time>2019-05-20T12:12:15Z</time>
      </trkpt>
      <trkpt lat="53.57235" lon="8.62776">
        <ele>-16</ele>
        <time>2019-05-20T12:12:38Z</time>
      </trkpt>
      <trkpt lat="53.57285" lon="8.62769">
        <ele>-15.800000190735</ele>
        <time>2019-05-20T12:12:56Z</time>
      </trkpt>
      <trkpt lat="53.57351" lon="8.62833">
        <ele>-15.199999809265</ele>
        <time>2019-05-20T12:13:19Z</time>
      </trkpt>
      <trkpt lat="53.57392" lon="8.62889">
        <ele>-14.199999809265</ele>
        <time>2019-05-20T12:13:44Z</time>
      </trkpt>
      <trkpt lat="53.57513" lon="8.63057">
        <ele>-14.199999809265</ele>
        <time>2019-05-20T12:14:10Z</time>
      </trkpt>
      <trkpt lat="53.57588" lon="8.63464">
        <ele>-14.199999809265</ele>
        <time>2019-05-20T12:14:37Z</time>
      </trkpt>
      <trkpt lat="53.57611" lon="8.63607">
        <ele>-14.39999961853</ele>
        <time>2019-05-20T12:15:07Z</time>
      </trkpt>
      <trkpt lat="53.57644" lon="8.63895">
        <ele>-14.39999961853</ele>
        <time>2019-05-20T12:15:25Z</time>
      </trkpt>
      <trkpt lat="53.57648" lon="8.64025">
        <ele>-15.39999961853</ele>
        <time>2019-05-20T12:15:37Z</time>
      </trkpt>
      <trkpt lat="53.5765" lon="8.64141">
        <ele>-15.800000190735</ele>
        <time>2019-05-20T12:16:00Z</time>
      </trkpt>
      <trkpt lat="53.57631" lon="8.6421">
        <ele>-17</ele>
        <time>2019-05-20T12:16:13Z</time>
      </trkpt>
      <trkpt lat="53.57632" lon="8.64271">
        <ele>-17.39999961853</ele>
        <time>2019-05-20T12:16:38Z</time>
      </trkpt>
      <trkpt lat="53.57648" lon="8.64413">
        <ele>-17.799999237061</ele>
        <time>2019-05-20T12:17:02Z</time>
      </trkpt>
      <trkpt lat="53.57613" lon="8.64513">
        <ele>-18.39999961853</ele>
        <time>2019-05-20T12:17:25Z</time>
      </trkpt>
      <trkpt lat="53.5758" lon="8.64561">
        <ele>-19</ele>
        <time>2019-05-20T12:17:45Z</time>
      </trkpt>
      <trkpt lat="53.57507" lon="8.64664">
        <ele>-19</ele>
        <time>2019-05-20T12:17:56Z</time>
      </trkpt>
      <trkpt lat="53.57493" lon="8.64688">
        <ele>-18.200000762939</ele>
        <time>2019-05-20T12:18:06Z</time>
      </trkpt>
      <trkpt lat="53.57446" lon="8.64767">
        <ele>-19.799999237061</ele>
        <time>2019-05-20T12:18:44Z</time>
      </trkpt>
      <trkpt lat="53.57406" lon="8.64845">
        <ele>-20</ele>
        <time>2019-05-20T12:18:55Z</time>
      </trkpt>
      <trkpt lat="53.57402" lon="8.6489">
        <ele>-19.60000038147</ele>
        <time>2019-05-20T12:19:01Z</time>
      </trkpt>
      <trkpt lat="53.57457" lon="8.64986">
        <ele>-19.60000038147</ele>
        <time>2019-05-20T12:19:06Z</time>
      </trkpt>
      <trkpt lat="53.5749" lon="8.65053">
        <ele>-19</ele>
        <time>2019-05-20T12:19:23Z</time>
      </trkpt>
      <trkpt lat="53.57524" lon="8.65042">
        <ele>-19.39999961853</ele>
        <time>2019-05-20T12:19:36Z</time>
      </trkpt>
      <trkpt lat="53.57561" lon="8.64974">
        <ele>-19.200000762939</ele>
        <time>2019-05-20T12:19:55Z</time>
      </trkpt>
      <trkpt lat="53.57574" lon="8.64994">
        <ele>-19.799999237061</ele>
        <time>2019-05-20T12:20:10Z</time>
      </trkpt>
      <trkpt lat="53.57468" lon="8.65007">
        <ele>6.8000001907349</ele>
        <time>2019-05-20T12:20:54Z</time>
      </trkpt>
      <trkpt lat="53.57438" lon="8.64962">
        <ele>6.4000000953674</ele>
        <time>2019-05-20T12:21:16Z</time>
      </trkpt>
      <trkpt lat="53.57406" lon="8.64875">
        <ele>6.5999999046326</ele>
        <time>2019-05-20T12:21:35Z</time>
      </trkpt>
      <trkpt lat="53.57477" lon="8.64723">
        <ele>6.5999999046326</ele>
        <time>2019-05-20T12:21:56Z</time>
      </trkpt>
      <trkpt lat="53.57494" lon="8.64676">
        <ele>7.1999998092651</ele>
        <time>2019-05-20T12:22:13Z</time>
      </trkpt>
      <trkpt lat="53.57525" lon="8.64657">
        <ele>7.1999998092651</ele>
        <time>2019-05-20T12:22:53Z</time>
      </trkpt>
      <trkpt lat="53.57568" lon="8.64586">
        <ele>7</ele>
        <time>2019-05-20T12:23:01Z</time>
      </trkpt>
      <trkpt lat="53.57623" lon="8.64512">
        <ele>7.1999998092651</ele>
        <time>2019-05-20T12:23:16Z</time>
      </trkpt>
      <trkpt lat="53.57649" lon="8.64495">
        <ele>7.5999999046326</ele>
        <time>2019-05-20T12:23:40Z</time>
      </trkpt>
      <trkpt lat="53.57652" lon="8.64455">
        <ele>7.8000001907349</ele>
        <time>2019-05-20T12:24:00Z</time>
      </trkpt>
      <trkpt lat="53.57647" lon="8.64449">
        <ele>8</ele>
        <time>2019-05-20T12:24:14Z</time>
      </trkpt>
      <trkpt lat="53.57654" lon="8.64515">
        <ele>8</ele>
        <time>2019-05-20T12:24:35Z</time>
      </trkpt>
      <trkpt lat="53.57661" lon="8.64615">
        <ele>7.8000001907349</ele>
        <time>2019-05-20T12:24:55Z</time>
      </trkpt>
      <trkpt lat="53.57664" lon="8.64724">
        <ele>7.8000001907349</ele>
        <time>2019-05-20T12:25:16Z</time>
      </trkpt>
      <trkpt lat="53.57676" lon="8.64857">
        <ele>7.4000000953674</ele>
        <time>2019-05-20T12:25:38Z</time>
      </trkpt>
      <trkpt lat="53.57681" lon="8.65083">
        <ele>7.4000000953674</ele>
        <time>2019-05-20T12:25:53Z</time>
      </trkpt>
      <trkpt lat="53.57684" lon="8.65205">
        <ele>7</ele>
        <time>2019-05-20T12:26:08Z</time>
      </trkpt>
      <trkpt lat="53.57681" lon="8.65335">
        <ele>7.5999999046326</ele>
        <time>2019-05-20T12:26:23Z</time>
      </trkpt>
      <trkpt lat="53.57682" lon="8.65554">
        <ele>8</ele>
        <time>2019-05-20T12:26:32Z</time>
      </trkpt>
      <trkpt lat="53.57692" lon="8.65584">
        <ele>8.1999998092651</ele>
        <time>2019-05-20T12:26:42Z</time>
      </trkpt>
      <trkpt lat="53.57728" lon="8.65595">
        <ele>8.3999996185303</ele>
        <time>2019-05-20T12:27:04Z</time>
      </trkpt>
      <trkpt lat="53.5778" lon="8.656">
        <ele>7.5999999046326</ele>
        <time>2019-05-20T12:27:21Z</time>
      </trkpt>
      <trkpt lat="53.57857" lon="8.65604">
        <ele>7.5999999046326</ele>
        <time>2019-05-20T12:27:36Z</time>
      </trkpt>
      <trkpt lat="53.57914" lon="8.65614">
        <ele>7.1999998092651</ele>
        <time>2019-05-20T12:27:52Z</time>
      </trkpt>
      <trkpt lat="53.57974" lon="8.65608">
        <ele>7.5999999046326</ele>
        <time>2019-05-20T12:28:15Z</time>
      </trkpt>
      <trkpt lat="53.58038" lon="8.6561">
        <ele>7.5999999046326</ele>
        <time>2019-05-20T12:28:34Z</time>
      </trkpt>
      <trkpt lat="53.58099" lon="8.65607">
        <ele>7.4000000953674</ele>
        <time>2019-05-20T12:28:55Z</time>
      </trkpt>
      <trkpt lat="53.58303" lon="8.65608">
        <ele>8.1999998092651</ele>
        <time>2019-05-20T12:29:14Z</time>
      </trkpt>
      <trkpt lat="53.58338" lon="8.65609">
        <ele>8</ele>
        <time>2019-05-20T12:29:33Z</time>
      </trkpt>
      <trkpt lat="53.58363" lon="8.65596">
        <ele>8.1999998092651</ele>
        <time>2019-05-20T12:29:45Z</time>
      </trkpt>
      <trkpt lat="53.5839" lon="8.65602">
        <ele>8.1999998092651</ele>
        <time>2019-05-20T12:30:07Z</time>
      </trkpt>
      <trkpt lat="53.58439" lon="8.65604">
        <ele>8</ele>
        <time>2019-05-20T12:30:24Z</time>
      </trkpt>
      <trkpt lat="53.58572" lon="8.65595">
        <ele>8.8000001907349</ele>
        <time>2019-05-20T12:30:45Z</time>
      </trkpt>
      <trkpt lat="53.58631" lon="8.65594">
        <ele>9</ele>
        <time>2019-05-20T12:31:07Z</time>
      </trkpt>
      <trkpt lat="53.58669" lon="8.65587">
        <ele>10.199999809265</ele>
        <time>2019-05-20T12:31:25Z</time>
      </trkpt>
      <trkpt lat="53.58676" lon="8.65542">
        <ele>10.39999961853</ele>
        <time>2019-05-20T12:31:41Z</time>
      </trkpt>
      <trkpt lat="53.58685" lon="8.65492">
        <ele>10.39999961853</ele>
        <time>2019-05-20T12:31:50Z</time>
      </trkpt>
      <trkpt lat="53.58693" lon="8.65378">
        <ele>10.60000038147</ele>
        <time>2019-05-20T12:32:06Z</time>
      </trkpt>
      <trkpt lat="53.5869" lon="8.65265">
        <ele>10.60000038147</ele>
        <time>2019-05-20T12:32:32Z</time>
      </trkpt>
      <trkpt lat="53.58688" lon="8.65178">
        <ele>10.39999961853</ele>
        <time>2019-05-20T12:32:56Z</time>
      </trkpt>
      <trkpt lat="53.58684" lon="8.65054">
        <ele>10</ele>
        <time>2019-05-20T12:33:14Z</time>
      </trkpt>
      <trkpt lat="53.58716" lon="8.64934">
        <ele>10.39999961853</ele>
        <time>2019-05-20T12:34:12Z</time>
      </trkpt>
      <trkpt lat="53.58736" lon="8.64998">
        <ele>10.800000190735</ele>
        <time>2019-05-20T12:34:34Z</time>
      </trkpt>
      <trkpt lat="53.58863" lon="8.65596">
        <ele>10.800000190735</ele>
        <time>2019-05-20T12:34:44Z</time>
      </trkpt>
      <trkpt lat="53.58937" lon="8.65793">
        <ele>9.3999996185303</ele>
        <time>2019-05-20T12:34:52Z</time>
      </trkpt>
      <trkpt lat="53.59056" lon="8.66">
        <ele>8.8000001907349</ele>
        <time>2019-05-20T12:35:02Z</time>
      </trkpt>
      <trkpt lat="53.59121" lon="8.66112">
        <ele>8.6000003814697</ele>
        <time>2019-05-20T12:35:17Z</time>
      </trkpt>
      <trkpt lat="53.59172" lon="8.66198">
        <ele>8.1999998092651</ele>
        <time>2019-05-20T12:35:35Z</time>
      </trkpt>
      <trkpt lat="53.59236" lon="8.66309">
        <ele>8.1999998092651</ele>
        <time>2019-05-20T12:35:56Z</time>
      </trkpt>
      <trkpt lat="53.59309" lon="8.66429">
        <ele>7.8000001907349</ele>
        <time>2019-05-20T12:36:18Z</time>
      </trkpt>
      <trkpt lat="53.59346" lon="8.66472">
        <ele>7.8000001907349</ele>
        <time>2019-05-20T12:36:30Z</time>
      </trkpt>
      <trkpt lat="53.59505" lon="8.66536">
        <ele>6.5999999046326</ele>
        <time>2019-05-20T12:36:45Z</time>
      </trkpt>
      <trkpt lat="53.59573" lon="8.66567">
        <ele>6.4000000953674</ele>
        <time>2019-05-20T12:37:08Z</time>
      </trkpt>
      <trkpt lat="53.59775" lon="8.66672">
        <ele>6.4000000953674</ele>
        <time>2019-05-20T12:37:21Z</time>
      </trkpt>
      <trkpt lat="53.59945" lon="8.66766">
        <ele>6.8000001907349</ele>
        <time>2019-05-20T12:37:39Z</time>
      </trkpt>
      <trkpt lat="53.60023" lon="8.66812">
        <ele>7.4000000953674</ele>
        <time>2019-05-20T12:37:50Z</time>
      </trkpt>
      <trkpt lat="53.60098" lon="8.66854">
        <ele>8.1999998092651</ele>
        <time>2019-05-20T12:38:13Z</time>
      </trkpt>
      <trkpt lat="53.60149" lon="8.66897">
        <ele>8.3999996185303</ele>
        <time>2019-05-20T12:38:27Z</time>
      </trkpt>
      <trkpt lat="53.6023" lon="8.66995">
        <ele>10.800000190735</ele>
        <time>2019-05-20T12:38:48Z</time>
      </trkpt>
      <trkpt lat="53.60353" lon="8.67216">
        <ele>14.800000190735</ele>
        <time>2019-05-20T12:39:02Z</time>
      </trkpt>
      <trkpt lat="53.6042" lon="8.67344">
        <ele>16.799999237061</ele>
        <time>2019-05-20T12:39:11Z</time>
      </trkpt>
      <trkpt lat="53.60483" lon="8.67449">
        <ele>17.799999237061</ele>
        <time>2019-05-20T12:39:34Z</time>
      </trkpt>
      <trkpt lat="53.60536" lon="8.67551">
        <ele>18</ele>
        <time>2019-05-20T12:39:57Z</time>
      </trkpt>
      <trkpt lat="53.60598" lon="8.67646">
        <ele>17.799999237061</ele>
        <time>2019-05-20T12:40:19Z</time>
      </trkpt>
      <trkpt lat="53.60637" lon="8.67703">
        <ele>17.200000762939</ele>
        <time>2019-05-20T12:40:33Z</time>
      </trkpt>
      <trkpt lat="53.60703" lon="8.67793">
        <ele>15.199999809265</ele>
        <time>2019-05-20T12:40:40Z</time>
      </trkpt>
      <trkpt lat="53.60767" lon="8.67933">
        <ele>14.39999961853</ele>
        <time>2019-05-20T12:40:58Z</time>
      </trkpt>
      <trkpt lat="53.60805" lon="8.6809">
        <ele>13.199999809265</ele>
        <time>2019-05-20T12:41:22Z</time>
      </trkpt>
      <trkpt lat="53.60797" lon="8.68203">
        <ele>12.39999961853</ele>
        <time>2019-05-20T12:41:44Z</time>
      </trkpt>
      <trkpt lat="53.60855" lon="8.68399">
        <ele>11.199999809265</ele>
        <time>2019-05-20T12:42:03Z</time>
      </trkpt>
      <trkpt lat="53.60887" lon="8.68529">
        <ele>11.800000190735</ele>
        <time>2019-05-20T12:42:28Z</time>
      </trkpt>
      <trkpt lat="53.60919" lon="8.68676">
        <ele>12.800000190735</ele>
        <time>2019-05-20T12:42:52Z</time>
      </trkpt>
      <trkpt lat="53.60938" lon="8.68754">
        <ele>13.800000190735</ele>
        <time>2019-05-20T12:43:16Z</time>
      </trkpt>
      <trkpt lat="53.60956" lon="8.6885">
        <ele>14.199999809265</ele>
        <time>2019-05-20T12:43:28Z</time>
      </trkpt>
      <trkpt lat="53.60973" lon="8.68929">
        <ele>14.39999961853</ele>
        <time>2019-05-20T12:43:41Z</time>
      </trkpt>
      <trkpt lat="53.60989" lon="8.68988">
        <ele>14</ele>
        <time>2019-05-20T12:44:06Z</time>
      </trkpt>
      <trkpt lat="53.60994" lon="8.69013">
        <ele>13.39999961853</ele>
        <time>2019-05-20T12:44:28Z</time>
      </trkpt>
      <trkpt lat="53.61068" lon="8.69203">
        <ele>11.800000190735</ele>
        <time>2019-05-20T12:44:47Z</time>
      </trkpt>
      <trkpt lat="53.61158" lon="8.69296">
        <ele>11.199999809265</ele>
        <time>2019-05-20T12:45:04Z</time>
      </trkpt>
      <trkpt lat="53.61328" lon="8.6946">
        <ele>11.199999809265</ele>
        <time>2019-05-20T12:45:23Z</time>
      </trkpt>
      <trkpt lat="53.61404" lon="8.6953">
        <ele>11.39999961853</ele>
        <time>2019-05-20T12:45:40Z</time>
      </trkpt>
      <trkpt lat="53.61566" lon="8.69692">
        <ele>11.39999961853</ele>
        <time>2019-05-20T12:45:58Z</time>
      </trkpt>
      <trkpt lat="53.61632" lon="8.69794">
        <ele>10.199999809265</ele>
        <time>2019-05-20T12:46:19Z</time>
      </trkpt>
      <trkpt lat="53.61668" lon="8.69854">
        <ele>10</ele>
        <time>2019-05-20T12:46:34Z</time>
      </trkpt>
      <trkpt lat="53.61727" lon="8.69954">
        <ele>10.60000038147</ele>
        <time>2019-05-20T12:46:53Z</time>
      </trkpt>
      <trkpt lat="53.6177" lon="8.70025">
        <ele>11.800000190735</ele>
        <time>2019-05-20T12:47:14Z</time>
      </trkpt>
      <trkpt lat="53.61836" lon="8.70074">
        <ele>14</ele>
        <time>2019-05-20T12:47:26Z</time>
      </trkpt>
      <trkpt lat="53.61849" lon="8.70149">
        <ele>15</ele>
        <time>2019-05-20T12:47:47Z</time>
      </trkpt>
      <trkpt lat="53.6185" lon="8.7025">
        <ele>15.60000038147</ele>
        <time>2019-05-20T12:48:14Z</time>
      </trkpt>
      <trkpt lat="53.61843" lon="8.70357">
        <ele>15.39999961853</ele>
        <time>2019-05-20T12:48:33Z</time>
      </trkpt>
      <trkpt lat="53.61834" lon="8.70449">
        <ele>14</ele>
        <time>2019-05-20T12:48:55Z</time>
      </trkpt>
      <trkpt lat="53.61826" lon="8.70582">
        <ele>14</ele>
        <time>2019-05-20T12:49:17Z</time>
      </trkpt>
      <trkpt lat="53.61818" lon="8.70693">
        <ele>15.199999809265</ele>
        <time>2019-05-20T12:49:42Z</time>
      </trkpt>
      <trkpt lat="53.61814" lon="8.70867">
        <ele>15.800000190735</ele>
        <time>2019-05-20T12:50:04Z</time>
      </trkpt>
      <trkpt lat="53.61814" lon="8.71112">
        <ele>17</ele>
        <time>2019-05-20T12:50:24Z</time>
      </trkpt>
      <trkpt lat="53.61814" lon="8.71192">
        <ele>17.60000038147</ele>
        <time>2019-05-20T12:50:45Z</time>
      </trkpt>
      <trkpt lat="53.61815" lon="8.71251">
        <ele>17.799999237061</ele>
        <time>2019-05-20T12:51:08Z</time>
      </trkpt>
      <trkpt lat="53.61814" lon="8.71343">
        <ele>17.799999237061</ele>
        <time>2019-05-20T12:51:29Z</time>
      </trkpt>
      <trkpt lat="53.61811" lon="8.71392">
        <ele>17.60000038147</ele>
        <time>2019-05-20T12:51:46Z</time>
      </trkpt>
      <trkpt lat="53.61814" lon="8.71422">
        <ele>17.60000038147</ele>
        <time>2019-05-20T12:52:00Z</time>
      </trkpt>
      <trkpt lat="53.61809" lon="8.71493">
        <ele>17.39999961853</ele>
        <time>2019-05-20T12:52:21Z</time>
      </trkpt>
      <trkpt lat="53.61817" lon="8.71606">
        <ele>16.39999961853</ele>
        <time>2019-05-20T12:52:38Z</time>
      </trkpt>
      <trkpt lat="53.61827" lon="8.71787">
        <ele>15.800000190735</ele>
        <time>2019-05-20T12:52:45Z</time>
      </trkpt>
      <trkpt lat="53.61826" lon="8.71856">
        <ele>15.39999961853</ele>
        <time>2019-05-20T12:52:56Z</time>
      </trkpt>
      <trkpt lat="53.61826" lon="8.71954">
        <ele>15.199999809265</ele>
        <time>2019-05-20T12:53:05Z</time>
      </trkpt>
      <trkpt lat="53.61827" lon="8.72065">
        <ele>14.199999809265</ele>
        <time>2019-05-20T12:53:18Z</time>
      </trkpt>
      <trkpt lat="53.61828" lon="8.72262">
        <ele>14</ele>
        <time>2019-05-20T12:53:25Z</time>
      </trkpt>
      <trkpt lat="53.61816" lon="8.72487">
        <ele>14</ele>
        <time>2019-05-20T12:53:35Z</time>
      </trkpt>
      <trkpt lat="53.61808" lon="8.72653">
        <ele>14.199999809265</ele>
        <time>2019-05-20T12:53:44Z</time>
      </trkpt>
      <trkpt lat="53.61799" lon="8.72804">
        <ele>14</ele>
        <time>2019-05-20T12:53:49Z</time>
      </trkpt>
      <trkpt lat="53.61794" lon="8.72887">
        <ele>14</ele>
        <time>2019-05-20T12:53:59Z</time>
      </trkpt>
      <trkpt lat="53.61789" lon="8.73013">
        <ele>14.39999961853</ele>
        <time>2019-05-20T12:54:17Z</time>
      </trkpt>
      <trkpt lat="53.61784" lon="8.73149">
        <ele>14.60000038147</ele>
        <time>2019-05-20T12:54:24Z</time>
      </trkpt>
      <trkpt lat="53.61777" lon="8.73301">
        <ele>15</ele>
        <time>2019-05-20T12:54:44Z</time>
      </trkpt>
      <trkpt lat="53.61769" lon="8.73433">
        <ele>14.800000190735</ele>
        <time>2019-05-20T12:55:07Z</time>
      </trkpt>
      <trkpt lat="53.61765" lon="8.73555">
        <ele>14.800000190735</ele>
        <time>2019-05-20T12:55:24Z</time>
      </trkpt>
      <trkpt lat="53.61757" lon="8.73695">
        <ele>15.199999809265</ele>
        <time>2019-05-20T12:55:44Z</time>
      </trkpt>
      <trkpt lat="53.61756" lon="8.73831">
        <ele>14.39999961853</ele>
        <time>2019-05-20T12:56:01Z</time>
      </trkpt>
      <trkpt lat="53.61772" lon="8.73904">
        <ele>13.800000190735</ele>
        <time>2019-05-20T12:56:19Z</time>
      </trkpt>
      <trkpt lat="53.6178" lon="8.73882">
        <ele>14</ele>
        <time>2019-05-20T12:56:38Z</time>
      </trkpt>
      <trkpt lat="53.61778" lon="8.73915">
        <ele>13.800000190735</ele>
        <time>2019-05-20T12:56:59Z</time>
      </trkpt>
      <trkpt lat="53.61771" lon="8.73948">
        <ele>13.800000190735</ele>
        <time>2019-05-20T12:57:22Z</time>
      </trkpt>
      <trkpt lat="53.61718" lon="8.74121">
        <ele>14.199999809265</ele>
        <time>2019-05-20T12:57:45Z</time>
      </trkpt>
      <trkpt lat="53.61701" lon="8.74198">
        <ele>14.199999809265</ele>
        <time>2019-05-20T12:58:06Z</time>
      </trkpt>
      <trkpt lat="53.61688" lon="8.74239">
        <ele>14.39999961853</ele>
        <time>2019-05-20T12:58:21Z</time>
      </trkpt>
      <trkpt lat="53.61661" lon="8.74295">
        <ele>15</ele>
        <time>2019-05-20T12:58:45Z</time>
      </trkpt>
      <trkpt lat="53.61628" lon="8.74372">
        <ele>15.199999809265</ele>
        <time>2019-05-20T12:59:08Z</time>
      </trkpt>
      <trkpt lat="53.61498" lon="8.74665">
        <ele>17.60000038147</ele>
        <time>2019-05-20T12:59:28Z</time>
      </trkpt>
      <trkpt lat="53.61464" lon="8.74747">
        <ele>17.799999237061</ele>
        <time>2019-05-20T12:59:47Z</time>
      </trkpt>
      <trkpt lat="53.61443" lon="8.74793">
        <ele>17.799999237061</ele>
        <time>2019-05-20T01:00:11Z</time>
      </trkpt>
      <trkpt lat="53.61398" lon="8.74894">
        <ele>18.39999961853</ele>
        <time>2019-05-20T01:00:36Z</time>
      </trkpt>
      <trkpt lat="53.61354" lon="8.75004">
        <ele>18.60000038147</ele>
        <time>2019-05-20T01:01:00Z</time>
      </trkpt>
      <trkpt lat="53.61328" lon="8.75118">
        <ele>18.200000762939</ele>
        <time>2019-05-20T01:01:22Z</time>
      </trkpt>
      <trkpt lat="53.61313" lon="8.75252">
        <ele>18.200000762939</ele>
        <time>2019-05-20T01:01:33Z</time>
      </trkpt>
      <trkpt lat="53.61306" lon="8.75409">
        <ele>18</ele>
        <time>2019-05-20T01:01:54Z</time>
      </trkpt>
      <trkpt lat="53.61314" lon="8.75547">
        <ele>17.200000762939</ele>
        <time>2019-05-20T01:02:16Z</time>
      </trkpt>
      <trkpt lat="53.61367" lon="8.75653">
        <ele>17.39999961853</ele>
        <time>2019-05-20T01:02:25Z</time>
      </trkpt>
      <trkpt lat="53.6143" lon="8.75688">
        <ele>18</ele>
        <time>2019-05-20T01:16:47Z</time>
      </trkpt>
      <trkpt lat="53.61494" lon="8.75714">
        <ele>19</ele>
        <time>2019-05-20T01:17:14Z</time>
      </trkpt>
      <trkpt lat="53.61519" lon="8.75726">
        <ele>20</ele>
        <time>2019-05-20T01:17:24Z</time>
      </trkpt>
      <trkpt lat="53.61521" lon="8.75741">
        <ele>20</ele>
        <time>2019-05-20T01:17:41Z</time>
      </trkpt>
      <trkpt lat="53.61554" lon="8.7576">
        <ele>20.200000762939</ele>
        <time>2019-05-20T01:18:00Z</time>
      </trkpt>
      <trkpt lat="53.61658" lon="8.75863">
        <ele>24.200000762939</ele>
        <time>2019-05-20T01:18:19Z</time>
      </trkpt>
      <trkpt lat="53.61703" lon="8.7599">
        <ele>26.39999961853</ele>
        <time>2019-05-20T01:18:39Z</time>
      </trkpt>
      <trkpt lat="53.61732" lon="8.76071">
        <ele>26.799999237061</ele>
        <time>2019-05-20T01:18:56Z</time>
      </trkpt>
      <trkpt lat="53.61771" lon="8.76207">
        <ele>25.200000762939</ele>
        <time>2019-05-20T01:19:12Z</time>
      </trkpt>
      <trkpt lat="53.61787" lon="8.76432">
        <ele>23.60000038147</ele>
        <time>2019-05-20T01:19:26Z</time>
      </trkpt>
      <trkpt lat="53.61779" lon="8.76501">
        <ele>22.39999961853</ele>
        <time>2019-05-20T01:19:53Z</time>
      </trkpt>
      <trkpt lat="53.61752" lon="8.76627">
        <ele>21.60000038147</ele>
        <time>2019-05-20T01:20:01Z</time>
      </trkpt>
      <trkpt lat="53.61751" lon="8.76688">
        <ele>20.39999961853</ele>
        <time>2019-05-20T01:20:22Z</time>
      </trkpt>
      <trkpt lat="53.6173" lon="8.76815">
        <ele>19.200000762939</ele>
        <time>2019-05-20T01:20:46Z</time>
      </trkpt>
      <trkpt lat="53.6171" lon="8.77005">
        <ele>18</ele>
        <time>2019-05-20T01:20:58Z</time>
      </trkpt>
      <trkpt lat="53.61708" lon="8.77077">
        <ele>17.39999961853</ele>
        <time>2019-05-20T01:21:07Z</time>
      </trkpt>
      <trkpt lat="53.61725" lon="8.77334">
        <ele>16</ele>
        <time>2019-05-20T01:21:15Z</time>
      </trkpt>
      <trkpt lat="53.61738" lon="8.77418">
        <ele>15.800000190735</ele>
        <time>2019-05-20T01:21:36Z</time>
      </trkpt>
      <trkpt lat="53.61782" lon="8.77639">
        <ele>15</ele>
        <time>2019-05-20T01:21:58Z</time>
      </trkpt>
      <trkpt lat="53.6184" lon="8.77962">
        <ele>14.60000038147</ele>
        <time>2019-05-20T01:22:18Z</time>
      </trkpt>
      <trkpt lat="53.61867" lon="8.78142">
        <ele>14.60000038147</ele>
        <time>2019-05-20T01:22:39Z</time>
      </trkpt>
      <trkpt lat="53.61886" lon="8.78241">
        <ele>14.39999961853</ele>
        <time>2019-05-20T01:22:52Z</time>
      </trkpt>
      <trkpt lat="53.61917" lon="8.7843">
        <ele>14.199999809265</ele>
        <time>2019-05-20T01:23:04Z</time>
      </trkpt>
      <trkpt lat="53.61943" lon="8.78583">
        <ele>13.800000190735</ele>
        <time>2019-05-20T01:23:12Z</time>
      </trkpt>
      <trkpt lat="53.61959" lon="8.78678">
        <ele>14</ele>
        <time>2019-05-20T01:23:28Z</time>
      </trkpt>
      <trkpt lat="53.61986" lon="8.78823">
        <ele>13.39999961853</ele>
        <time>2019-05-20T01:23:51Z</time>
      </trkpt>
      <trkpt lat="53.62006" lon="8.78934">
        <ele>12.60000038147</ele>
        <time>2019-05-20T01:24:16Z</time>
      </trkpt>
      <trkpt lat="53.62037" lon="8.79106">
        <ele>12</ele>
        <time>2019-05-20T01:24:30Z</time>
      </trkpt>
      <trkpt lat="53.62061" lon="8.7923">
        <ele>11.39999961853</ele>
        <time>2019-05-20T01:24:50Z</time>
      </trkpt>
      <trkpt lat="53.62091" lon="8.79395">
        <ele>11.199999809265</ele>
        <time>2019-05-20T01:25:12Z</time>
      </trkpt>
      <trkpt lat="53.62117" lon="8.79534">
        <ele>10.800000190735</ele>
        <time>2019-05-20T01:25:28Z</time>
      </trkpt>
      <trkpt lat="53.62134" lon="8.79641">
        <ele>11</ele>
        <time>2019-05-20T01:25:44Z</time>
      </trkpt>
      <trkpt lat="53.62147" lon="8.79705">
        <ele>11.39999961853</ele>
        <time>2019-05-20T01:26:08Z</time>
      </trkpt>
      <trkpt lat="53.62168" lon="8.79819">
        <ele>11.199999809265</ele>
        <time>2019-05-20T01:26:21Z</time>
      </trkpt>
      <trkpt lat="53.62192" lon="8.79966">
        <ele>11.199999809265</ele>
        <time>2019-05-20T01:26:28Z</time>
      </trkpt>
      <trkpt lat="53.6222" lon="8.80116">
        <ele>10.800000190735</ele>
        <time>2019-05-20T01:26:46Z</time>
      </trkpt>
      <trkpt lat="53.62257" lon="8.80313">
        <ele>10.800000190735</ele>
        <time>2019-05-20T01:27:08Z</time>
      </trkpt>
      <trkpt lat="53.62278" lon="8.80432">
        <ele>11.199999809265</ele>
        <time>2019-05-20T01:27:26Z</time>
      </trkpt>
      <trkpt lat="53.62298" lon="8.80563">
        <ele>11</ele>
        <time>2019-05-20T01:28:31Z</time>
      </trkpt>
      <trkpt lat="53.62324" lon="8.80709">
        <ele>11.800000190735</ele>
        <time>2019-05-20T01:28:49Z</time>
      </trkpt>
      <trkpt lat="53.62343" lon="8.80799">
        <ele>12</ele>
        <time>2019-05-20T01:29:16Z</time>
      </trkpt>
      <trkpt lat="53.62361" lon="8.80914">
        <ele>12</ele>
        <time>2019-05-20T01:29:33Z</time>
      </trkpt>
      <trkpt lat="53.62393" lon="8.81086">
        <ele>11.60000038147</ele>
        <time>2019-05-20T01:29:59Z</time>
      </trkpt>
      <trkpt lat="53.62437" lon="8.81313">
        <ele>12.800000190735</ele>
        <time>2019-05-20T01:30:25Z</time>
      </trkpt>
      <trkpt lat="53.6245" lon="8.81387">
        <ele>13.60000038147</ele>
        <time>2019-05-20T01:30:47Z</time>
      </trkpt>
      <trkpt lat="53.62482" lon="8.81584">
        <ele>14.800000190735</ele>
        <time>2019-05-20T01:31:07Z</time>
      </trkpt>
      <trkpt lat="53.62486" lon="8.81648">
        <ele>15.60000038147</ele>
        <time>2019-05-20T01:31:32Z</time>
      </trkpt>
      <trkpt lat="53.62478" lon="8.81697">
        <ele>15.800000190735</ele>
        <time>2019-05-20T01:31:46Z</time>
      </trkpt>
      <trkpt lat="53.62491" lon="8.81727">
        <ele>15.800000190735</ele>
        <time>2019-05-20T01:32:08Z</time>
      </trkpt>
      <trkpt lat="53.62503" lon="8.81807">
        <ele>16</ele>
        <time>2019-05-20T01:32:35Z</time>
      </trkpt>
      <trkpt lat="53.62526" lon="8.81898">
        <ele>16.60000038147</ele>
        <time>2019-05-20T01:32:59Z</time>
      </trkpt>
      <trkpt lat="53.62544" lon="8.82007">
        <ele>17.60000038147</ele>
        <time>2019-05-20T01:33:14Z</time>
      </trkpt>
      <trkpt lat="53.62559" lon="8.82074">
        <ele>18.60000038147</ele>
        <time>2019-05-20T01:33:37Z</time>
      </trkpt>
      <trkpt lat="53.62611" lon="8.82335">
        <ele>25.799999237061</ele>
        <time>2019-05-20T01:33:46Z</time>
      </trkpt>
      <trkpt lat="53.62617" lon="8.82353">
        <ele>27.39999961853</ele>
        <time>2019-05-20T01:34:13Z</time>
      </trkpt>
      <trkpt lat="53.62647" lon="8.82353">
        <ele>27.60000038147</ele>
        <time>2019-05-20T01:34:36Z</time>
      </trkpt>
      <trkpt lat="53.62646" lon="8.82319">
        <ele>27.39999961853</ele>
        <time>2019-05-20T01:34:53Z</time>
      </trkpt>
      <trkpt lat="53.6263" lon="8.82332">
        <ele>27</ele>
        <time>2019-05-20T01:35:05Z</time>
      </trkpt>
      <trkpt lat="53.62623" lon="8.82357">
        <ele>27.200000762939</ele>
        <time>2019-05-20T01:35:18Z</time>
      </trkpt>
      <trkpt lat="53.62642" lon="8.82479">
        <ele>30.200000762939</ele>
        <time>2019-05-20T01:35:34Z</time>
      </trkpt>
      <trkpt lat="53.62658" lon="8.82548">
        <ele>31.200000762939</ele>
        <time>2019-05-20T01:35:58Z</time>
      </trkpt>
      <trkpt lat="53.6268" lon="8.82596">
        <ele>30.799999237061</ele>
        <time>2019-05-20T01:36:18Z</time>
      </trkpt>
      <trkpt lat="53.62692" lon="8.82626">
        <ele>30.200000762939</ele>
        <time>2019-05-20T01:36:39Z</time>
      </trkpt>
      <trkpt lat="53.627" lon="8.82645">
        <ele>28.799999237061</ele>
        <time>2019-05-20T01:36:59Z</time>
      </trkpt>
      <trkpt lat="53.62728" lon="8.82618">
        <ele>28.799999237061</ele>
        <time>2019-05-20T01:37:14Z</time>
      </trkpt>
      <trkpt lat="53.62755" lon="8.82652">
        <ele>28.60000038147</ele>
        <time>2019-05-20T01:37:33Z</time>
      </trkpt>
      <trkpt lat="53.62805" lon="8.8279">
        <ele>25.60000038147</ele>
        <time>2019-05-20T01:37:55Z</time>
      </trkpt>
      <trkpt lat="53.62839" lon="8.82874">
        <ele>23</ele>
        <time>2019-05-20T01:38:18Z</time>
      </trkpt>
      <trkpt lat="53.62868" lon="8.82909">
        <ele>20.200000762939</ele>
        <time>2019-05-20T01:38:41Z</time>
      </trkpt>
      <trkpt lat="53.62903" lon="8.82954">
        <ele>18.799999237061</ele>
        <time>2019-05-20T01:39:08Z</time>
      </trkpt>
      <trkpt lat="53.62935" lon="8.82989">
        <ele>16.39999961853</ele>
        <time>2019-05-20T01:39:22Z</time>
      </trkpt>
      <trkpt lat="53.62949" lon="8.83068">
        <ele>12.60000038147</ele>
        <time>2019-05-20T01:39:31Z</time>
      </trkpt>
      <trkpt lat="53.62979" lon="8.83105">
        <ele>10</ele>
        <time>2019-05-20T01:39:38Z</time>
      </trkpt>
      <trkpt lat="53.63007" lon="8.83056">
        <ele>8.8000001907349</ele>
        <time>2019-05-20T01:39:56Z</time>
      </trkpt>
      <trkpt lat="53.63076" lon="8.83057">
        <ele>8.1999998092651</ele>
        <time>2019-05-20T01:40:16Z</time>
      </trkpt>
      <trkpt lat="53.63117" lon="8.83054">
        <ele>7.1999998092651</ele>
        <time>2019-05-20T01:40:25Z</time>
      </trkpt>
      <trkpt lat="53.63135" lon="8.83096">
        <ele>6.5999999046326</ele>
        <time>2019-05-20T01:40:37Z</time>
      </trkpt>
      <trkpt lat="53.63199" lon="8.83236">
        <ele>6</ele>
        <time>2019-05-20T01:40:58Z</time>
      </trkpt>
      <trkpt lat="53.63261" lon="8.83369">
        <ele>5.8000001907349</ele>
        <time>2019-05-20T01:41:17Z</time>
      </trkpt>
      <trkpt lat="53.63308" lon="8.83476">
        <ele>5.4000000953674</ele>
        <time>2019-05-20T01:41:33Z</time>
      </trkpt>
      <trkpt lat="53.63305" lon="8.83514">
        <ele>5.4000000953674</ele>
        <time>2019-05-20T01:41:53Z</time>
      </trkpt>
      <trkpt lat="53.63283" lon="8.83533">
        <ele>5.8000001907349</ele>
        <time>2019-05-20T01:42:18Z</time>
      </trkpt>
      <trkpt lat="53.63251" lon="8.83581">
        <ele>6.1999998092651</ele>
        <time>2019-05-20T01:42:37Z</time>
      </trkpt>
      <trkpt lat="53.63252" lon="8.83588">
        <ele>6.5999999046326</ele>
        <time>2019-05-20T01:42:57Z</time>
      </trkpt>
      <trkpt lat="53.63297" lon="8.83649">
        <ele>6.5999999046326</ele>
        <time>2019-05-20T01:43:04Z</time>
      </trkpt>
      <trkpt lat="53.63356" lon="8.83755">
        <ele>7</ele>
        <time>2019-05-20T01:43:13Z</time>
      </trkpt>
      <trkpt lat="53.63417" lon="8.83849">
        <ele>9.8000001907349</ele>
        <time>2019-05-20T01:43:39Z</time>
      </trkpt>
      <trkpt lat="53.63492" lon="8.83926">
        <ele>9</ele>
        <time>2019-05-20T01:43:55Z</time>
      </trkpt>
      <trkpt lat="53.63561" lon="8.8398">
        <ele>7.1999998092651</ele>
        <time>2019-05-20T01:44:08Z</time>
      </trkpt>
      <trkpt lat="53.63611" lon="8.84021">
        <ele>7.4000000953674</ele>
        <time>2019-05-20T01:44:31Z</time>
      </trkpt>
      <trkpt lat="53.63685" lon="8.84097">
        <ele>7.5999999046326</ele>
        <time>2019-05-20T01:44:49Z</time>
      </trkpt>
      <trkpt lat="53.63716" lon="8.84176">
        <ele>8.6000003814697</ele>
        <time>2019-05-20T01:45:09Z</time>
      </trkpt>
      <trkpt lat="53.63757" lon="8.84319">
        <ele>9.6000003814697</ele>
        <time>2019-05-20T01:45:28Z</time>
      </trkpt>
      <trkpt lat="53.63793" lon="8.84446">
        <ele>10.199999809265</ele>
        <time>2019-05-20T01:45:50Z</time>
      </trkpt>
      <trkpt lat="53.63826" lon="8.84573">
        <ele>10.39999961853</ele>
        <time>2019-05-20T01:46:09Z</time>
      </trkpt>
      <trkpt lat="53.63863" lon="8.84692">
        <ele>9.8000001907349</ele>
        <time>2019-05-20T01:46:29Z</time>
      </trkpt>
      <trkpt lat="53.63859" lon="8.8472">
        <ele>9.8000001907349</ele>
        <time>2019-05-20T01:46:53Z</time>
      </trkpt>
      <trkpt lat="53.6387" lon="8.84732">
        <ele>8.8000001907349</ele>
        <time>2019-05-20T01:47:03Z</time>
      </trkpt>
      <trkpt lat="53.63875" lon="8.84722">
        <ele>9.1999998092651</ele>
        <time>2019-05-20T01:47:11Z</time>
      </trkpt>
      <trkpt lat="53.63893" lon="8.84742">
        <ele>9.1999998092651</ele>
        <time>2019-05-20T01:47:17Z</time>
      </trkpt>
      <trkpt lat="53.63963" lon="8.84824">
        <ele>9.6000003814697</ele>
        <time>2019-05-20T01:47:33Z</time>
      </trkpt>
      <trkpt lat="53.64153" lon="8.85039">
        <ele>11.39999961853</ele>
        <time>2019-05-20T01:47:56Z</time>
      </trkpt>
      <trkpt lat="53.64319" lon="8.85201">
        <ele>11.39999961853</ele>
        <time>2019-05-20T01:48:11Z</time>
      </trkpt>
      <trkpt lat="53.64415" lon="8.853">
        <ele>11</ele>
        <time>2019-05-20T01:48:22Z</time>
      </trkpt>
      <trkpt lat="53.64467" lon="8.85354">
        <ele>11</ele>
        <time>2019-05-20T01:48:34Z</time>
      </trkpt>
      <trkpt lat="53.64519" lon="8.85414">
        <ele>10.39999961853</ele>
        <time>2019-05-20T01:48:52Z</time>
      </trkpt>
      <trkpt lat="53.64621" lon="8.85568">
        <ele>10.39999961853</ele>
        <time>2019-05-20T01:49:16Z</time>
      </trkpt>
      <trkpt lat="53.6468" lon="8.85696">
        <ele>10.60000038147</ele>
        <time>2019-05-20T01:49:34Z</time>
      </trkpt>
      <trkpt lat="53.64756" lon="8.8585">
        <ele>10.60000038147</ele>
        <time>2019-05-20T01:49:44Z</time>
      </trkpt>
      <trkpt lat="53.64799" lon="8.85873">
        <ele>9.6000003814697</ele>
        <time>2019-05-20T01:50:02Z</time>
      </trkpt>
      <trkpt lat="53.64912" lon="8.85866">
        <ele>8.8000001907349</ele>
        <time>2019-05-20T01:50:21Z</time>
      </trkpt>
      <trkpt lat="53.65004" lon="8.85863">
        <ele>8.3999996185303</ele>
        <time>2019-05-20T01:50:39Z</time>
      </trkpt>
      <trkpt lat="53.65138" lon="8.85954">
        <ele>7.1999998092651</ele>
        <time>2019-05-20T01:50:56Z</time>
      </trkpt>
      <trkpt lat="53.65224" lon="8.86035">
        <ele>7</ele>
        <time>2019-05-20T01:51:01Z</time>
      </trkpt>
      <trkpt lat="53.65351" lon="8.8626">
        <ele>7.8000001907349</ele>
        <time>2019-05-20T01:51:19Z</time>
      </trkpt>
      <trkpt lat="53.65407" lon="8.86314">
        <ele>9</ele>
        <time>2019-05-20T01:51:41Z</time>
      </trkpt>
      <trkpt lat="53.65458" lon="8.8633">
        <ele>10.800000190735</ele>
        <time>2019-05-20T01:52:03Z</time>
      </trkpt>
      <trkpt lat="53.65483" lon="8.86317">
        <ele>10.800000190735</ele>
        <time>2019-05-20T01:52:24Z</time>
      </trkpt>
      <trkpt lat="53.65644" lon="8.86274">
        <ele>7.4000000953674</ele>
        <time>2019-05-20T01:52:39Z</time>
      </trkpt>
      <trkpt lat="53.65704" lon="8.8627">
        <ele>7.1999998092651</ele>
        <time>2019-05-20T01:52:57Z</time>
      </trkpt>
      <trkpt lat="53.65759" lon="8.86301">
        <ele>6.4000000953674</ele>
        <time>2019-05-20T01:53:15Z</time>
      </trkpt>
      <trkpt lat="53.65806" lon="8.86345">
        <ele>6.4000000953674</ele>
        <time>2019-05-20T01:53:31Z</time>
      </trkpt>
      <trkpt lat="53.65903" lon="8.86422">
        <ele>7</ele>
        <time>2019-05-20T01:53:51Z</time>
      </trkpt>
      <trkpt lat="53.65958" lon="8.86471">
        <ele>7</ele>
        <time>2019-05-20T01:54:18Z</time>
      </trkpt>
      <trkpt lat="53.65943" lon="8.86458">
        <ele>6.5999999046326</ele>
        <time>2019-05-20T01:54:46Z</time>
      </trkpt>
      <trkpt lat="53.6587" lon="8.86396">
        <ele>7</ele>
        <time>2019-05-20T01:55:13Z</time>
      </trkpt>
      <trkpt lat="53.65779" lon="8.86319">
        <ele>7.1999998092651</ele>
        <time>2019-05-20T01:55:38Z</time>
      </trkpt>
      <trkpt lat="53.65751" lon="8.86299">
        <ele>7.1999998092651</ele>
        <time>2019-05-20T01:56:03Z</time>
      </trkpt>
      <trkpt lat="53.65702" lon="8.86274">
        <ele>6.5999999046326</ele>
        <time>2019-05-20T01:56:12Z</time>
      </trkpt>
      <trkpt lat="53.6563" lon="8.86286">
        <ele>7.4000000953674</ele>
        <time>2019-05-20T01:56:32Z</time>
      </trkpt>
      <trkpt lat="53.65632" lon="8.86314">
        <ele>7.1999998092651</ele>
        <time>2019-05-20T01:56:41Z</time>
      </trkpt>
      <trkpt lat="53.65633" lon="8.86305">
        <ele>6.5999999046326</ele>
        <time>2019-05-20T01:56:55Z</time>
      </trkpt>
      <trkpt lat="53.65611" lon="8.86286">
        <ele>6.8000001907349</ele>
        <time>2019-05-20T01:57:07Z</time>
      </trkpt>
      <trkpt lat="53.65535" lon="8.86307">
        <ele>7.4000000953674</ele>
        <time>2019-05-20T01:57:13Z</time>
      </trkpt>
      <trkpt lat="53.6548" lon="8.86322">
        <ele>9</ele>
        <time>2019-05-20T01:57:24Z</time>
      </trkpt>
      <trkpt lat="53.6548" lon="8.86339">
        <ele>10.800000190735</ele>
        <time>2019-05-20T01:57:38Z</time>
      </trkpt>
      <trkpt lat="53.65448" lon="8.86335">
        <ele>11.39999961853</ele>
        <time>2019-05-20T01:57:45Z</time>
      </trkpt>
      <trkpt lat="53.65444" lon="8.86361">
        <ele>11.39999961853</ele>
        <time>2019-05-20T01:57:51Z</time>
      </trkpt>
      <trkpt lat="53.65459" lon="8.86553">
        <ele>8.8000001907349</ele>
        <time>2019-05-20T01:58:08Z</time>
      </trkpt>
      <trkpt lat="53.65466" lon="8.8665">
        <ele>8.6000003814697</ele>
        <time>2019-05-20T01:58:28Z</time>
      </trkpt>
      <trkpt lat="53.65481" lon="8.86855">
        <ele>8.6000003814697</ele>
        <time>2019-05-20T01:58:40Z</time>
      </trkpt>
      <trkpt lat="53.65495" lon="8.87038">
        <ele>8.1999998092651</ele>
        <time>2019-05-20T01:58:53Z</time>
      </trkpt>
      <trkpt lat="53.65515" lon="8.87291">
        <ele>8.6000003814697</ele>
        <time>2019-05-20T01:59:03Z</time>
      </trkpt>
      <trkpt lat="53.65531" lon="8.87502">
        <ele>8.8000001907349</ele>
        <time>2019-05-20T01:59:18Z</time>
      </trkpt>
      <trkpt lat="53.65543" lon="8.87679">
        <ele>9.6000003814697</ele>
        <time>2019-05-20T01:59:37Z</time>
      </trkpt>
      <trkpt lat="53.65559" lon="8.87882">
        <ele>9.3999996185303</ele>
        <time>2019-05-20T01:59:51Z</time>
      </trkpt>
      <trkpt lat="53.65576" lon="8.88109">
        <ele>8.8000001907349</ele>
        <time>2019-05-20T02:00:13Z</time>
      </trkpt>
      <trkpt lat="53.65592" lon="8.88333">
        <ele>9</ele>
        <time>2019-05-20T02:00:41Z</time>
      </trkpt>
      <trkpt lat="53.65601" lon="8.88466">
        <ele>8.8000001907349</ele>
        <time>2019-05-20T02:00:55Z</time>
      </trkpt>
      <trkpt lat="53.65613" lon="8.88629">
        <ele>9</ele>
        <time>2019-05-20T02:01:12Z</time>
      </trkpt>
      <trkpt lat="53.6562" lon="8.88713">
        <ele>9</ele>
        <time>2019-05-20T02:01:29Z</time>
      </trkpt>
      <trkpt lat="53.65629" lon="8.8884">
        <ele>8.8000001907349</ele>
        <time>2019-05-20T02:01:49Z</time>
      </trkpt>
      <trkpt lat="53.6564" lon="8.88976">
        <ele>8.8000001907349</ele>
        <time>2019-05-20T02:02:06Z</time>
      </trkpt>
      <trkpt lat="53.65651" lon="8.8911">
        <ele>8.6000003814697</ele>
        <time>2019-05-20T02:02:15Z</time>
      </trkpt>
      <trkpt lat="53.6566" lon="8.8925">
        <ele>9</ele>
        <time>2019-05-20T02:02:37Z</time>
      </trkpt>
      <trkpt lat="53.65667" lon="8.89352">
        <ele>9.1999998092651</ele>
        <time>2019-05-20T02:03:03Z</time>
      </trkpt>
      <trkpt lat="53.65686" lon="8.89599">
        <ele>8.8000001907349</ele>
        <time>2019-05-20T02:03:15Z</time>
      </trkpt>
      <trkpt lat="53.65704" lon="8.89723">
        <ele>9</ele>
        <time>2019-05-20T02:03:32Z</time>
      </trkpt>
      <trkpt lat="53.65744" lon="8.89843">
        <ele>9.3999996185303</ele>
        <time>2019-05-20T02:03:52Z</time>
      </trkpt>
      <trkpt lat="53.65778" lon="8.89885">
        <ele>9</ele>
        <time>2019-05-20T02:04:14Z</time>
      </trkpt>
      <trkpt lat="53.65772" lon="8.89878">
        <ele>8.8000001907349</ele>
        <time>2019-05-20T02:04:34Z</time>
      </trkpt>
      <trkpt lat="53.65746" lon="8.89828">
        <ele>9.3999996185303</ele>
        <time>2019-05-20T02:04:56Z</time>
      </trkpt>
      <trkpt lat="53.65758" lon="8.8981">
        <ele>10.39999961853</ele>
        <time>2019-05-20T02:05:22Z</time>
      </trkpt>
      <trkpt lat="53.65785" lon="8.89822">
        <ele>10.199999809265</ele>
        <time>2019-05-20T02:05:42Z</time>
      </trkpt>
      <trkpt lat="53.6579" lon="8.89833">
        <ele>9</ele>
        <time>2019-05-20T02:05:55Z</time>
      </trkpt>
      <trkpt lat="53.65785" lon="8.89823">
        <ele>11.199999809265</ele>
        <time>2019-05-20T02:06:15Z</time>
      </trkpt>
      <trkpt lat="53.65768" lon="8.89795">
        <ele>12</ele>
        <time>2019-05-20T02:06:40Z</time>
      </trkpt>
      <trkpt lat="53.65747" lon="8.89844">
        <ele>13.800000190735</ele>
        <time>2019-05-20T02:07:00Z</time>
      </trkpt>
      <trkpt lat="53.65814" lon="8.89934">
        <ele>11</ele>
        <time>2019-05-20T02:07:23Z</time>
      </trkpt>
      <trkpt lat="53.65876" lon="8.90008">
        <ele>11</ele>
        <time>2019-05-20T02:07:45Z</time>
      </trkpt>
      <trkpt lat="53.65914" lon="8.90056">
        <ele>10.60000038147</ele>
        <time>2019-05-20T02:08:09Z</time>
      </trkpt>
      <trkpt lat="53.66055" lon="8.90233">
        <ele>10.60000038147</ele>
        <time>2019-05-20T02:08:33Z</time>
      </trkpt>
      <trkpt lat="53.6613" lon="8.90322">
        <ele>11.60000038147</ele>
        <time>2019-05-20T02:08:49Z</time>
      </trkpt>
      <trkpt lat="53.66209" lon="8.90422">
        <ele>11.800000190735</ele>
        <time>2019-05-20T02:09:04Z</time>
      </trkpt>
      <trkpt lat="53.66258" lon="8.90485">
        <ele>11.60000038147</ele>
        <time>2019-05-20T02:09:27Z</time>
      </trkpt>
      <trkpt lat="53.66357" lon="8.90611">
        <ele>11.60000038147</ele>
        <time>2019-05-20T02:09:48Z</time>
      </trkpt>
      <trkpt lat="53.66469" lon="8.90753">
        <ele>11.199999809265</ele>
        <time>2019-05-20T02:10:05Z</time>
      </trkpt>
      <trkpt lat="53.66595" lon="8.9091">
        <ele>11.199999809265</ele>
        <time>2019-05-20T02:10:21Z</time>
      </trkpt>
      <trkpt lat="53.66765" lon="8.91126">
        <ele>10.800000190735</ele>
        <time>2019-05-20T02:15:06Z</time>
      </trkpt>
      <trkpt lat="53.6688" lon="8.91312">
        <ele>11.39999961853</ele>
        <time>2019-05-20T02:15:23Z</time>
      </trkpt>
      <trkpt lat="53.66959" lon="8.91455">
        <ele>11</ele>
        <time>2019-05-20T02:15:47Z</time>
      </trkpt>
      <trkpt lat="53.6704" lon="8.91603">
        <ele>11.39999961853</ele>
        <time>2019-05-20T02:16:08Z</time>
      </trkpt>
      <trkpt lat="53.67124" lon="8.91761">
        <ele>11.39999961853</ele>
        <time>2019-05-20T02:16:33Z</time>
      </trkpt>
      <trkpt lat="53.67181" lon="8.91861">
        <ele>11</ele>
        <time>2019-05-20T02:16:52Z</time>
      </trkpt>
      <trkpt lat="53.67263" lon="8.92017">
        <ele>11.199999809265</ele>
        <time>2019-05-20T02:17:01Z</time>
      </trkpt>
      <trkpt lat="53.67306" lon="8.92097">
        <ele>11.199999809265</ele>
        <time>2019-05-20T02:17:23Z</time>
      </trkpt>
      <trkpt lat="53.67389" lon="8.92244">
        <ele>11.39999961853</ele>
        <time>2019-05-20T02:17:47Z</time>
      </trkpt>
      <trkpt lat="53.67472" lon="8.92396">
        <ele>12.39999961853</ele>
        <time>2019-05-20T02:18:07Z</time>
      </trkpt>
      <trkpt lat="53.6756" lon="8.92557">
        <ele>12.199999809265</ele>
        <time>2019-05-20T02:18:30Z</time>
      </trkpt>
      <trkpt lat="53.67641" lon="8.92707">
        <ele>11.60000038147</ele>
        <time>2019-05-20T02:18:54Z</time>
      </trkpt>
      <trkpt lat="53.67716" lon="8.92842">
        <ele>11.800000190735</ele>
        <time>2019-05-20T02:19:18Z</time>
      </trkpt>
      <trkpt lat="53.67754" lon="8.9291">
        <ele>12.199999809265</ele>
        <time>2019-05-20T02:19:41Z</time>
      </trkpt>
      <trkpt lat="53.67773" lon="8.92846">
        <ele>13.800000190735</ele>
        <time>2019-05-20T02:19:55Z</time>
      </trkpt>
      <trkpt lat="53.67803" lon="8.92711">
        <ele>10.800000190735</ele>
        <time>2019-05-20T02:20:10Z</time>
      </trkpt>
      <trkpt lat="53.67785" lon="8.92792">
        <ele>11</ele>
        <time>2019-05-20T02:21:48Z</time>
      </trkpt>
      <trkpt lat="53.67775" lon="8.92852">
        <ele>11.60000038147</ele>
        <time>2019-05-20T02:22:05Z</time>
      </trkpt>
      <trkpt lat="53.67806" lon="8.92909">
        <ele>12.199999809265</ele>
        <time>2019-05-20T02:22:24Z</time>
      </trkpt>
      <trkpt lat="53.67867" lon="8.93012">
        <ele>12</ele>
        <time>2019-05-20T02:22:43Z</time>
      </trkpt>
      <trkpt lat="53.67965" lon="8.93173">
        <ele>11.800000190735</ele>
        <time>2019-05-20T02:23:08Z</time>
      </trkpt>
      <trkpt lat="53.68093" lon="8.93387">
        <ele>11.800000190735</ele>
        <time>2019-05-20T02:23:28Z</time>
      </trkpt>
      <trkpt lat="53.68139" lon="8.93464">
        <ele>12</ele>
        <time>2019-05-20T02:23:45Z</time>
      </trkpt>
      <trkpt lat="53.68213" lon="8.93588">
        <ele>11.800000190735</ele>
        <time>2019-05-20T02:24:05Z</time>
      </trkpt>
      <trkpt lat="53.68232" lon="8.93616">
        <ele>11.800000190735</ele>
        <time>2019-05-20T02:24:27Z</time>
      </trkpt>
      <trkpt lat="53.68296" lon="8.93724">
        <ele>11.60000038147</ele>
        <time>2019-05-20T02:24:50Z</time>
      </trkpt>
      <trkpt lat="53.68343" lon="8.93806">
        <ele>11.800000190735</ele>
        <time>2019-05-20T02:25:10Z</time>
      </trkpt>
      <trkpt lat="53.68474" lon="8.94023">
        <ele>11.800000190735</ele>
        <time>2019-05-20T02:25:31Z</time>
      </trkpt>
      <trkpt lat="53.68538" lon="8.94134">
        <ele>11.60000038147</ele>
        <time>2019-05-20T02:25:56Z</time>
      </trkpt>
      <trkpt lat="53.68615" lon="8.94259">
        <ele>11.800000190735</ele>
        <time>2019-05-20T02:26:18Z</time>
      </trkpt>
      <trkpt lat="53.68668" lon="8.94348">
        <ele>11.39999961853</ele>
        <time>2019-05-20T02:26:37Z</time>
      </trkpt>
      <trkpt lat="53.68794" lon="8.94553">
        <ele>11.39999961853</ele>
        <time>2019-05-20T02:27:00Z</time>
      </trkpt>
      <trkpt lat="53.68859" lon="8.94658">
        <ele>11.60000038147</ele>
        <time>2019-05-20T02:27:14Z</time>
      </trkpt>
      <trkpt lat="53.68903" lon="8.94733">
        <ele>11.199999809265</ele>
        <time>2019-05-20T02:27:37Z</time>
      </trkpt>
      <trkpt lat="53.68959" lon="8.94824">
        <ele>11.199999809265</ele>
        <time>2019-05-20T02:27:59Z</time>
      </trkpt>
      <trkpt lat="53.69022" lon="8.94931">
        <ele>11.39999961853</ele>
        <time>2019-05-20T02:28:20Z</time>
      </trkpt>
      <trkpt lat="53.69058" lon="8.94992">
        <ele>11.800000190735</ele>
        <time>2019-05-20T02:28:29Z</time>
      </trkpt>
      <trkpt lat="53.69096" lon="8.94907">
        <ele>12.800000190735</ele>
        <time>2019-05-20T02:28:52Z</time>
      </trkpt>
      <trkpt lat="53.69134" lon="8.94811">
        <ele>12</ele>
        <time>2019-05-20T02:29:14Z</time>
      </trkpt>
      <trkpt lat="53.69178" lon="8.94696">
        <ele>11.60000038147</ele>
        <time>2019-05-20T02:29:36Z</time>
      </trkpt>
      <trkpt lat="53.69226" lon="8.94565">
        <ele>11.60000038147</ele>
        <time>2019-05-20T02:29:58Z</time>
      </trkpt>
      <trkpt lat="53.69262" lon="8.94466">
        <ele>11.800000190735</ele>
        <time>2019-05-20T02:30:17Z</time>
      </trkpt>
      <trkpt lat="53.69324" lon="8.94295">
        <ele>11.800000190735</ele>
        <time>2019-05-20T02:30:30Z</time>
      </trkpt>
      <trkpt lat="53.69414" lon="8.9407">
        <ele>12.199999809265</ele>
        <time>2019-05-20T02:30:52Z</time>
      </trkpt>
      <trkpt lat="53.69436" lon="8.94085">
        <ele>12.199999809265</ele>
        <time>2019-05-20T02:31:10Z</time>
      </trkpt>
      <trkpt lat="53.69513" lon="8.94213">
        <ele>11.60000038147</ele>
        <time>2019-05-20T02:31:28Z</time>
      </trkpt>
      <trkpt lat="53.69629" lon="8.94404">
        <ele>12</ele>
        <time>2019-05-20T02:31:48Z</time>
      </trkpt>
      <trkpt lat="53.69671" lon="8.94469">
        <ele>12.199999809265</ele>
        <time>2019-05-20T02:31:58Z</time>
      </trkpt>
      <trkpt lat="53.6969" lon="8.94508">
        <ele>12.199999809265</ele>
        <time>2019-05-20T02:32:13Z</time>
      </trkpt>
      <trkpt lat="53.69749" lon="8.94609">
        <ele>12</ele>
        <time>2019-05-20T02:32:22Z</time>
      </trkpt>
      <trkpt lat="53.6981" lon="8.94715">
        <ele>12</ele>
        <time>2019-05-20T02:32:29Z</time>
      </trkpt>
      <trkpt lat="53.69861" lon="8.94803">
        <ele>11.800000190735</ele>
        <time>2019-05-20T02:32:39Z</time>
      </trkpt>
      <trkpt lat="53.69928" lon="8.94922">
        <ele>11.800000190735</ele>
        <time>2019-05-20T02:33:08Z</time>
      </trkpt>
      <trkpt lat="53.69974" lon="8.95006">
        <ele>12</ele>
        <time>2019-05-20T02:33:18Z</time>
      </trkpt>
      <trkpt lat="53.70027" lon="8.95103">
        <ele>12</ele>
        <time>2019-05-20T02:33:31Z</time>
      </trkpt>
      <trkpt lat="53.70075" lon="8.95188">
        <ele>12.60000038147</ele>
        <time>2019-05-20T02:35:34Z</time>
      </trkpt>
      <trkpt lat="53.7015" lon="8.95322">
        <ele>12.199999809265</ele>
        <time>2019-05-20T02:36:09Z</time>
      </trkpt>
      <trkpt lat="53.70221" lon="8.95452">
        <ele>12.39999961853</ele>
        <time>2019-05-20T02:36:32Z</time>
      </trkpt>
      <trkpt lat="53.70295" lon="8.95588">
        <ele>12.39999961853</ele>
        <time>2019-05-20T02:36:50Z</time>
      </trkpt>
      <trkpt lat="53.70332" lon="8.95654">
        <ele>12.60000038147</ele>
        <time>2019-05-20T02:37:09Z</time>
      </trkpt>
      <trkpt lat="53.70462" lon="8.95887">
        <ele>12.199999809265</ele>
        <time>2019-05-21T07:43:14Z</time>
      </trkpt>
      <trkpt lat="53.70509" lon="8.95969">
        <ele>12.199999809265</ele>
        <time>2019-05-21T07:43:26Z</time>
      </trkpt>
      <trkpt lat="53.70555" lon="8.9603">
        <ele>13.199999809265</ele>
        <time>2019-05-21T07:43:50Z</time>
      </trkpt>
      <trkpt lat="53.7058" lon="8.9609">
        <ele>15</ele>
        <time>2019-05-21T07:44:06Z</time>
      </trkpt>
      <trkpt lat="53.70599" lon="8.96145">
        <ele>15.39999961853</ele>
        <time>2019-05-21T07:44:33Z</time>
      </trkpt>
      <trkpt lat="53.70639" lon="8.96285">
        <ele>14.199999809265</ele>
        <time>2019-05-21T07:44:58Z</time>
      </trkpt>
      <trkpt lat="53.70653" lon="8.96413">
        <ele>11.60000038147</ele>
        <time>2019-05-21T07:45:14Z</time>
      </trkpt>
      <trkpt lat="53.70708" lon="8.96975">
        <ele>11.60000038147</ele>
        <time>2019-05-21T07:45:41Z</time>
      </trkpt>
      <trkpt lat="53.7076" lon="8.97091">
        <ele>11.60000038147</ele>
        <time>2019-05-21T07:46:10Z</time>
      </trkpt>
      <trkpt lat="53.70828" lon="8.97132">
        <ele>12.199999809265</ele>
        <time>2019-05-21T07:46:40Z</time>
      </trkpt>
      <trkpt lat="53.7093" lon="8.97106">
        <ele>11.60000038147</ele>
        <time>2019-05-21T07:46:57Z</time>
      </trkpt>
      <trkpt lat="53.70992" lon="8.97089">
        <ele>12</ele>
        <time>2019-05-21T07:47:20Z</time>
      </trkpt>
      <trkpt lat="53.71095" lon="8.97051">
        <ele>11.39999961853</ele>
        <time>2019-05-21T07:47:43Z</time>
      </trkpt>
      <trkpt lat="53.71177" lon="8.97034">
        <ele>11.800000190735</ele>
        <time>2019-05-21T07:48:08Z</time>
      </trkpt>
      <trkpt lat="53.71255" lon="8.96999">
        <ele>11.800000190735</ele>
        <time>2019-05-21T07:48:28Z</time>
      </trkpt>
      <trkpt lat="53.71364" lon="8.96965">
        <ele>11.60000038147</ele>
        <time>2019-05-21T07:48:44Z</time>
      </trkpt>
      <trkpt lat="53.71467" lon="8.96942">
        <ele>11.60000038147</ele>
        <time>2019-05-21T07:49:11Z</time>
      </trkpt>
      <trkpt lat="53.71543" lon="8.96909">
        <ele>12.39999961853</ele>
        <time>2019-05-21T07:49:41Z</time>
      </trkpt>
      <trkpt lat="53.71625" lon="8.96875">
        <ele>12.39999961853</ele>
        <time>2019-05-21T07:50:44Z</time>
      </trkpt>
      <trkpt lat="53.71751" lon="8.96843">
        <ele>13.199999809265</ele>
        <time>2019-05-21T07:50:57Z</time>
      </trkpt>
      <trkpt lat="53.71829" lon="8.96821">
        <ele>13</ele>
        <time>2019-05-21T07:51:22Z</time>
      </trkpt>
      <trkpt lat="53.71876" lon="8.96799">
        <ele>13</ele>
        <time>2019-05-21T07:51:41Z</time>
      </trkpt>
      <trkpt lat="53.71915" lon="8.96803">
        <ele>12.800000190735</ele>
        <time>2019-05-21T07:51:53Z</time>
      </trkpt>
      <trkpt lat="53.71952" lon="8.96821">
        <ele>12.800000190735</ele>
        <time>2019-05-21T07:52:12Z</time>
      </trkpt>
      <trkpt lat="53.72012" lon="8.96835">
        <ele>13</ele>
        <time>2019-05-21T07:52:31Z</time>
      </trkpt>
      <trkpt lat="53.72089" lon="8.96865">
        <ele>12.39999961853</ele>
        <time>2019-05-21T07:52:53Z</time>
      </trkpt>
      <trkpt lat="53.72161" lon="8.96867">
        <ele>13</ele>
        <time>2019-05-21T07:53:14Z</time>
      </trkpt>
      <trkpt lat="53.72192" lon="8.96862">
        <ele>13</ele>
        <time>2019-05-21T07:53:33Z</time>
      </trkpt>
      <trkpt lat="53.72281" lon="8.96864">
        <ele>12.60000038147</ele>
        <time>2019-05-21T07:53:53Z</time>
      </trkpt>
      <trkpt lat="53.7234" lon="8.96872">
        <ele>12.800000190735</ele>
        <time>2019-05-21T07:54:20Z</time>
      </trkpt>
      <trkpt lat="53.72387" lon="8.96877">
        <ele>13.60000038147</ele>
        <time>2019-05-21T07:54:49Z</time>
      </trkpt>
      <trkpt lat="53.72454" lon="8.96874">
        <ele>12.800000190735</ele>
        <time>2019-05-21T07:55:13Z</time>
      </trkpt>
      <trkpt lat="53.72504" lon="8.96885">
        <ele>12.60000038147</ele>
        <time>2019-05-21T07:55:41Z</time>
      </trkpt>
      <trkpt lat="53.72555" lon="8.96886">
        <ele>13.39999961853</ele>
        <time>2019-05-21T07:56:02Z</time>
      </trkpt>
      <trkpt lat="53.72623" lon="8.96885">
        <ele>13.39999961853</ele>
        <time>2019-05-21T07:56:25Z</time>
      </trkpt>
      <trkpt lat="53.72731" lon="8.96887">
        <ele>12.60000038147</ele>
        <time>2019-05-21T07:56:47Z</time>
      </trkpt>
      <trkpt lat="53.72804" lon="8.96895">
        <ele>12.800000190735</ele>
        <time>2019-05-21T07:57:10Z</time>
      </trkpt>
      <trkpt lat="53.72886" lon="8.96913">
        <ele>13.39999961853</ele>
        <time>2019-05-21T07:57:37Z</time>
      </trkpt>
      <trkpt lat="53.72934" lon="8.96917">
        <ele>13.60000038147</ele>
        <time>2019-05-21T07:58:08Z</time>
      </trkpt>
      <trkpt lat="53.72985" lon="8.96965">
        <ele>13</ele>
        <time>2019-05-21T07:58:40Z</time>
      </trkpt>
      <trkpt lat="53.73039" lon="8.97022">
        <ele>12.800000190735</ele>
        <time>2019-05-21T07:59:14Z</time>
      </trkpt>
      <trkpt lat="53.73067" lon="8.97061">
        <ele>12.800000190735</ele>
        <time>2019-05-21T07:59:41Z</time>
      </trkpt>
      <trkpt lat="53.73113" lon="8.97113">
        <ele>13.199999809265</ele>
        <time>2019-05-21T07:59:45Z</time>
      </trkpt>
      <trkpt lat="53.73184" lon="8.97186">
        <ele>13</ele>
        <time>2019-05-21T07:59:51Z</time>
      </trkpt>
      <trkpt lat="53.73242" lon="8.97248">
        <ele>13.199999809265</ele>
        <time>2019-05-21T08:01:42Z</time>
      </trkpt>
      <trkpt lat="53.73297" lon="8.97271">
        <ele>13</ele>
        <time>2019-05-21T08:02:14Z</time>
      </trkpt>
      <trkpt lat="53.73318" lon="8.97307">
        <ele>12.800000190735</ele>
        <time>2019-05-21T08:02:36Z</time>
      </trkpt>
      <trkpt lat="53.73377" lon="8.97388">
        <ele>12.800000190735</ele>
        <time>2019-05-21T08:03:06Z</time>
      </trkpt>
      <trkpt lat="53.73435" lon="8.97452">
        <ele>13.39999961853</ele>
        <time>2019-05-21T08:03:34Z</time>
      </trkpt>
      <trkpt lat="53.73491" lon="8.97508">
        <ele>13.39999961853</ele>
        <time>2019-05-21T08:03:49Z</time>
      </trkpt>
      <trkpt lat="53.73553" lon="8.9757">
        <ele>13.199999809265</ele>
        <time>2019-05-21T08:03:59Z</time>
      </trkpt>
      <trkpt lat="53.73618" lon="8.97629">
        <ele>12.800000190735</ele>
        <time>2019-05-21T08:04:07Z</time>
      </trkpt>
      <trkpt lat="53.73685" lon="8.97649">
        <ele>12.800000190735</ele>
        <time>2019-05-21T08:04:27Z</time>
      </trkpt>
      <trkpt lat="53.73802" lon="8.97678">
        <ele>13.199999809265</ele>
        <time>2019-05-21T08:04:49Z</time>
      </trkpt>
      <trkpt lat="53.73898" lon="8.97705">
        <ele>12.800000190735</ele>
        <time>2019-05-21T08:05:03Z</time>
      </trkpt>
      <trkpt lat="53.73977" lon="8.97733">
        <ele>14</ele>
        <time>2019-05-21T08:05:30Z</time>
      </trkpt>
      <trkpt lat="53.74167" lon="8.97784">
        <ele>14</ele>
        <time>2019-05-21T08:05:49Z</time>
      </trkpt>
      <trkpt lat="53.74225" lon="8.978">
        <ele>14.199999809265</ele>
        <time>2019-05-21T08:06:10Z</time>
      </trkpt>
      <trkpt lat="53.74269" lon="8.97814">
        <ele>14.60000038147</ele>
        <time>2019-05-21T08:06:31Z</time>
      </trkpt>
      <trkpt lat="53.74461" lon="8.97865">
        <ele>14.60000038147</ele>
        <time>2019-05-21T08:06:45Z</time>
      </trkpt>
      <trkpt lat="53.74494" lon="8.97874">
        <ele>15</ele>
        <time>2019-05-21T08:07:05Z</time>
      </trkpt>
      <trkpt lat="53.74539" lon="8.97883">
        <ele>14.800000190735</ele>
        <time>2019-05-21T08:07:15Z</time>
      </trkpt>
      <trkpt lat="53.74682" lon="8.9788">
        <ele>14.800000190735</ele>
        <time>2019-05-21T08:07:22Z</time>
      </trkpt>
      <trkpt lat="53.74746" lon="8.97881">
        <ele>15.199999809265</ele>
        <time>2019-05-21T08:07:46Z</time>
      </trkpt>
      <trkpt lat="53.74759" lon="8.97886">
        <ele>15.60000038147</ele>
        <time>2019-05-21T08:08:12Z</time>
      </trkpt>
      <trkpt lat="53.74803" lon="8.97894">
        <ele>15.800000190735</ele>
        <time>2019-05-21T08:08:33Z</time>
      </trkpt>
      <trkpt lat="53.7485" lon="8.97896">
        <ele>15.800000190735</ele>
        <time>2019-05-21T08:08:43Z</time>
      </trkpt>
      <trkpt lat="53.74868" lon="8.97899">
        <ele>15.60000038147</ele>
        <time>2019-05-21T08:09:04Z</time>
      </trkpt>
      <trkpt lat="53.75007" lon="8.97911">
        <ele>16</ele>
        <time>2019-05-21T08:09:26Z</time>
      </trkpt>
      <trkpt lat="53.75098" lon="8.9792">
        <ele>16</ele>
        <time>2019-05-21T08:09:56Z</time>
      </trkpt>
      <trkpt lat="53.75184" lon="8.97925">
        <ele>15.800000190735</ele>
        <time>2019-05-21T08:10:07Z</time>
      </trkpt>
      <trkpt lat="53.75273" lon="8.97932">
        <ele>16</ele>
        <time>2019-05-21T08:10:31Z</time>
      </trkpt>
      <trkpt lat="53.75446" lon="8.97956">
        <ele>15.60000038147</ele>
        <time>2019-05-21T08:10:48Z</time>
      </trkpt>
      <trkpt lat="53.75506" lon="8.9796">
        <ele>15.800000190735</ele>
        <time>2019-05-21T08:11:04Z</time>
      </trkpt>
      <trkpt lat="53.75596" lon="8.97964">
        <ele>15.60000038147</ele>
        <time>2019-05-21T08:11:25Z</time>
      </trkpt>
      <trkpt lat="53.75681" lon="8.97974">
        <ele>15.800000190735</ele>
        <time>2019-05-21T08:11:51Z</time>
      </trkpt>
      <trkpt lat="53.75751" lon="8.97988">
        <ele>15.60000038147</ele>
        <time>2019-05-21T08:12:18Z</time>
      </trkpt>
      <trkpt lat="53.75833" lon="8.97996">
        <ele>16</ele>
        <time>2019-05-21T08:12:45Z</time>
      </trkpt>
      <trkpt lat="53.75899" lon="8.98006">
        <ele>16</ele>
        <time>2019-05-21T08:13:05Z</time>
      </trkpt>
      <trkpt lat="53.75958" lon="8.98009">
        <ele>15.800000190735</ele>
        <time>2019-05-21T08:13:18Z</time>
      </trkpt>
      <trkpt lat="53.76151" lon="8.98034">
        <ele>16.200000762939</ele>
        <time>2019-05-21T08:13:39Z</time>
      </trkpt>
      <trkpt lat="53.76228" lon="8.98044">
        <ele>16.200000762939</ele>
        <time>2019-05-21T08:14:02Z</time>
      </trkpt>
      <trkpt lat="53.7632" lon="8.98054">
        <ele>16</ele>
        <time>2019-05-21T08:14:25Z</time>
      </trkpt>
      <trkpt lat="53.76392" lon="8.98063">
        <ele>16</ele>
        <time>2019-05-21T08:14:48Z</time>
      </trkpt>
      <trkpt lat="53.76463" lon="8.98071">
        <ele>16.200000762939</ele>
        <time>2019-05-21T08:15:12Z</time>
      </trkpt>
      <trkpt lat="53.76547" lon="8.98081">
        <ele>16.200000762939</ele>
        <time>2019-05-21T08:15:33Z</time>
      </trkpt>
      <trkpt lat="53.76616" lon="8.9809">
        <ele>16</ele>
        <time>2019-05-21T08:15:54Z</time>
      </trkpt>
      <trkpt lat="53.76702" lon="8.981">
        <ele>16.200000762939</ele>
        <time>2019-05-21T08:16:09Z</time>
      </trkpt>
      <trkpt lat="53.76776" lon="8.98107">
        <ele>16</ele>
        <time>2019-05-21T08:16:36Z</time>
      </trkpt>
      <trkpt lat="53.76826" lon="8.98112">
        <ele>16.200000762939</ele>
        <time>2019-05-21T08:17:03Z</time>
      </trkpt>
      <trkpt lat="53.76889" lon="8.98116">
        <ele>16</ele>
        <time>2019-05-21T08:17:28Z</time>
      </trkpt>
      <trkpt lat="53.77093" lon="8.98137">
        <ele>16</ele>
        <time>2019-05-21T08:17:51Z</time>
      </trkpt>
      <trkpt lat="53.77136" lon="8.98143">
        <ele>16.200000762939</ele>
        <time>2019-05-21T08:18:16Z</time>
      </trkpt>
      <trkpt lat="53.77139" lon="8.98187">
        <ele>15.800000190735</ele>
        <time>2019-05-21T08:18:41Z</time>
      </trkpt>
      <trkpt lat="53.77134" lon="8.9834">
        <ele>15.60000038147</ele>
        <time>2019-05-21T08:18:56Z</time>
      </trkpt>
      <trkpt lat="53.7713" lon="8.98522">
        <ele>15.199999809265</ele>
        <time>2019-05-21T08:19:22Z</time>
      </trkpt>
      <trkpt lat="53.77128" lon="8.98665">
        <ele>15.39999961853</ele>
        <time>2019-05-21T08:19:43Z</time>
      </trkpt>
      <trkpt lat="53.77123" lon="8.98881">
        <ele>15.60000038147</ele>
        <time>2019-05-21T08:20:12Z</time>
      </trkpt>
      <trkpt lat="53.7712" lon="8.99034">
        <ele>15.199999809265</ele>
        <time>2019-05-21T08:20:39Z</time>
      </trkpt>
      <trkpt lat="53.77111" lon="8.99379">
        <ele>15.199999809265</ele>
        <time>2019-05-21T08:20:55Z</time>
      </trkpt>
      <trkpt lat="53.77108" lon="8.99474">
        <ele>15</ele>
        <time>2019-05-21T08:21:05Z</time>
      </trkpt>
      <trkpt lat="53.77103" lon="8.99714">
        <ele>15.199999809265</ele>
        <time>2019-05-21T08:21:24Z</time>
      </trkpt>
      <trkpt lat="53.77112" lon="8.99931">
        <ele>15.199999809265</ele>
        <time>2019-05-21T08:21:48Z</time>
      </trkpt>
      <trkpt lat="53.77189" lon="8.99948">
        <ele>15.800000190735</ele>
        <time>2019-05-21T08:22:43Z</time>
      </trkpt>
      <trkpt lat="53.77258" lon="8.99963">
        <ele>15.800000190735</ele>
        <time>2019-05-21T08:23:01Z</time>
      </trkpt>
      <trkpt lat="53.77329" lon="9.0003">
        <ele>15.800000190735</ele>
        <time>2019-05-21T08:23:16Z</time>
      </trkpt>
      <trkpt lat="53.77368" lon="9.00036">
        <ele>15.60000038147</ele>
        <time>2019-05-21T08:23:37Z</time>
      </trkpt>
      <trkpt lat="53.77421" lon="9.00027">
        <ele>15.60000038147</ele>
        <time>2019-05-21T08:23:54Z</time>
      </trkpt>
      <trkpt lat="53.77622" lon="9">
        <ele>16</ele>
        <time>2019-05-21T08:24:08Z</time>
      </trkpt>
      <trkpt lat="53.777" lon="8.99994">
        <ele>16</ele>
        <time>2019-05-21T08:24:21Z</time>
      </trkpt>
      <trkpt lat="53.77717" lon="9.00047">
        <ele>16</ele>
        <time>2019-05-21T08:24:35Z</time>
      </trkpt>
      <trkpt lat="53.77772" lon="9.00075">
        <ele>16.200000762939</ele>
        <time>2019-05-21T08:24:49Z</time>
      </trkpt>
      <trkpt lat="53.7787" lon="9.00035">
        <ele>16</ele>
        <time>2019-05-21T08:24:54Z</time>
      </trkpt>
      <trkpt lat="53.77956" lon="8.99995">
        <ele>16.200000762939</ele>
        <time>2019-05-21T08:25:48Z</time>
      </trkpt>
      <trkpt lat="53.78036" lon="8.99963">
        <ele>16.200000762939</ele>
        <time>2019-05-21T08:25:59Z</time>
      </trkpt>
      <trkpt lat="53.78116" lon="8.99928">
        <ele>16.39999961853</ele>
        <time>2019-05-21T08:26:10Z</time>
      </trkpt>
      <trkpt lat="53.7822" lon="8.99889">
        <ele>16</ele>
        <time>2019-05-21T08:26:21Z</time>
      </trkpt>
      <trkpt lat="53.78297" lon="8.99865">
        <ele>16</ele>
        <time>2019-05-21T08:26:26Z</time>
      </trkpt>
      <trkpt lat="53.78403" lon="8.99847">
        <ele>16.200000762939</ele>
        <time>2019-05-21T08:45:11Z</time>
      </trkpt>
      <trkpt lat="53.78485" lon="8.99824">
        <ele>15.800000190735</ele>
        <time>2019-05-21T08:45:19Z</time>
      </trkpt>
      <trkpt lat="53.78495" lon="8.99823">
        <ele>16.200000762939</ele>
        <time>2019-05-21T08:45:32Z</time>
      </trkpt>
      <trkpt lat="53.78535" lon="8.99851">
        <ele>16.200000762939</ele>
        <time>2019-05-21T08:45:51Z</time>
      </trkpt>
      <trkpt lat="53.78551" lon="8.99901">
        <ele>16.39999961853</ele>
        <time>2019-05-21T08:46:02Z</time>
      </trkpt>
      <trkpt lat="53.786" lon="9.00324">
        <ele>17</ele>
        <time>2019-05-21T08:46:16Z</time>
      </trkpt>
      <trkpt lat="53.78614" lon="9.0046">
        <ele>16.799999237061</ele>
        <time>2019-05-21T08:46:36Z</time>
      </trkpt>
      <trkpt lat="53.78628" lon="9.00614">
        <ele>17.60000038147</ele>
        <time>2019-05-21T08:46:49Z</time>
      </trkpt>
      <trkpt lat="53.78665" lon="9.00731">
        <ele>17.39999961853</ele>
        <time>2019-05-21T08:47:11Z</time>
      </trkpt>
      <trkpt lat="53.78745" lon="9.00993">
        <ele>16.799999237061</ele>
        <time>2019-05-21T08:47:24Z</time>
      </trkpt>
      <trkpt lat="53.78806" lon="9.01177">
        <ele>16.60000038147</ele>
        <time>2019-05-21T08:47:31Z</time>
      </trkpt>
      <trkpt lat="53.78838" lon="9.01281">
        <ele>16.60000038147</ele>
        <time>2019-05-21T08:47:43Z</time>
      </trkpt>
      <trkpt lat="53.78855" lon="9.01427">
        <ele>16.799999237061</ele>
        <time>2019-05-21T08:47:58Z</time>
      </trkpt>
      <trkpt lat="53.78894" lon="9.02086">
        <ele>16.799999237061</ele>
        <time>2019-05-21T08:48:15Z</time>
      </trkpt>
      <trkpt lat="53.78902" lon="9.02212">
        <ele>17</ele>
        <time>2019-05-21T08:48:33Z</time>
      </trkpt>
      <trkpt lat="53.78937" lon="9.02271">
        <ele>17.200000762939</ele>
        <time>2019-05-21T08:49:23Z</time>
      </trkpt>
      <trkpt lat="53.79007" lon="9.02323">
        <ele>17.60000038147</ele>
        <time>2019-05-21T08:49:35Z</time>
      </trkpt>
      <trkpt lat="53.79028" lon="9.02415">
        <ele>17.39999961853</ele>
        <time>2019-05-21T08:49:52Z</time>
      </trkpt>
      <trkpt lat="53.79068" lon="9.02563">
        <ele>16.60000038147</ele>
        <time>2019-05-21T08:50:17Z</time>
      </trkpt>
      <trkpt lat="53.79105" lon="9.02595">
        <ele>17</ele>
        <time>2019-05-21T08:50:33Z</time>
      </trkpt>
      <trkpt lat="53.79184" lon="9.02631">
        <ele>17</ele>
        <time>2019-05-21T08:50:54Z</time>
      </trkpt>
      <trkpt lat="53.79272" lon="9.02678">
        <ele>17.200000762939</ele>
        <time>2019-05-21T08:51:16Z</time>
      </trkpt>
      <trkpt lat="53.79388" lon="9.02731">
        <ele>17.60000038147</ele>
        <time>2019-05-21T08:51:41Z</time>
      </trkpt>
      <trkpt lat="53.79483" lon="9.02776">
        <ele>17.799999237061</ele>
        <time>2019-05-21T08:52:02Z</time>
      </trkpt>
      <trkpt lat="53.79652" lon="9.02931">
        <ele>17.799999237061</ele>
        <time>2019-05-21T08:52:22Z</time>
      </trkpt>
      <trkpt lat="53.79715" lon="9.03002">
        <ele>18</ele>
        <time>2019-05-21T08:52:45Z</time>
      </trkpt>
      <trkpt lat="53.79838" lon="9.03149">
        <ele>17.60000038147</ele>
        <time>2019-05-21T08:53:10Z</time>
      </trkpt>
      <trkpt lat="53.79892" lon="9.03188">
        <ele>17.200000762939</ele>
        <time>2019-05-21T08:53:27Z</time>
      </trkpt>
      <trkpt lat="53.79912" lon="9.03229">
        <ele>17.39999961853</ele>
        <time>2019-05-21T08:53:55Z</time>
      </trkpt>
      <trkpt lat="53.7988" lon="9.03456">
        <ele>17.39999961853</ele>
        <time>2019-05-21T08:54:16Z</time>
      </trkpt>
      <trkpt lat="53.79916" lon="9.03584">
        <ele>17</ele>
        <time>2019-05-21T08:54:35Z</time>
      </trkpt>
      <trkpt lat="53.79935" lon="9.03625">
        <ele>16.799999237061</ele>
        <time>2019-05-21T08:55:05Z</time>
      </trkpt>
      <trkpt lat="53.79982" lon="9.03768">
        <ele>16.799999237061</ele>
        <time>2019-05-21T08:55:21Z</time>
      </trkpt>
      <trkpt lat="53.79994" lon="9.03862">
        <ele>16.60000038147</ele>
        <time>2019-05-21T08:55:39Z</time>
      </trkpt>
      <trkpt lat="53.7998" lon="9.03953">
        <ele>17.39999961853</ele>
        <time>2019-05-21T08:56:00Z</time>
      </trkpt>
      <trkpt lat="53.80004" lon="9.03916">
        <ele>18</ele>
        <time>2019-05-21T08:56:12Z</time>
      </trkpt>
      <trkpt lat="53.80018" lon="9.03924">
        <ele>19.39999961853</ele>
        <time>2019-05-21T08:56:36Z</time>
      </trkpt>
      <trkpt lat="53.80051" lon="9.03961">
        <ele>19.799999237061</ele>
        <time>2019-05-21T08:56:59Z</time>
      </trkpt>
      <trkpt lat="53.80122" lon="9.04019">
        <ele>18.799999237061</ele>
        <time>2019-05-21T08:57:13Z</time>
      </trkpt>
      <trkpt lat="53.80185" lon="9.04031">
        <ele>19.39999961853</ele>
        <time>2019-05-21T08:57:31Z</time>
      </trkpt>
      <trkpt lat="53.80209" lon="9.04029">
        <ele>19.39999961853</ele>
        <time>2019-05-21T08:57:51Z</time>
      </trkpt>
      <trkpt lat="53.80227" lon="9.04033">
        <ele>20</ele>
        <time>2019-05-21T08:58:04Z</time>
      </trkpt>
      <trkpt lat="53.80257" lon="9.04027">
        <ele>19.60000038147</ele>
        <time>2019-05-21T08:58:21Z</time>
      </trkpt>
      <trkpt lat="53.80321" lon="9.04027">
        <ele>19.60000038147</ele>
        <time>2019-05-21T08:58:35Z</time>
      </trkpt>
      <trkpt lat="53.80368" lon="9.04028">
        <ele>19.39999961853</ele>
        <time>2019-05-21T08:58:54Z</time>
      </trkpt>
      <trkpt lat="53.80412" lon="9.04033">
        <ele>19.60000038147</ele>
        <time>2019-05-21T08:59:13Z</time>
      </trkpt>
      <trkpt lat="53.80379" lon="9.0402">
        <ele>20</ele>
        <time>2019-05-21T08:59:33Z</time>
      </trkpt>
      <trkpt lat="53.80318" lon="9.04024">
        <ele>20.39999961853</ele>
        <time>2019-05-21T08:59:53Z</time>
      </trkpt>
      <trkpt lat="53.80256" lon="9.04028">
        <ele>20.200000762939</ele>
        <time>2019-05-21T09:00:08Z</time>
      </trkpt>
      <trkpt lat="53.80211" lon="9.04031">
        <ele>20.200000762939</ele>
        <time>2019-05-21T09:00:32Z</time>
      </trkpt>
      <trkpt lat="53.80138" lon="9.04022">
        <ele>20.60000038147</ele>
        <time>2019-05-21T09:00:56Z</time>
      </trkpt>
      <trkpt lat="53.80032" lon="9.03932">
        <ele>20.200000762939</ele>
        <time>2019-05-21T09:01:22Z</time>
      </trkpt>
      <trkpt lat="53.79993" lon="9.03922">
        <ele>21.39999961853</ele>
        <time>2019-05-21T09:01:43Z</time>
      </trkpt>
      <trkpt lat="53.79977" lon="9.03958">
        <ele>21.200000762939</ele>
        <time>2019-05-21T09:02:01Z</time>
      </trkpt>
      <trkpt lat="53.79952" lon="9.04048">
        <ele>19.39999961853</ele>
        <time>2019-05-21T09:02:17Z</time>
      </trkpt>
      <trkpt lat="53.79913" lon="9.04211">
        <ele>19.200000762939</ele>
        <time>2019-05-21T09:02:32Z</time>
      </trkpt>
      <trkpt lat="53.79914" lon="9.04395">
        <ele>19</ele>
        <time>2019-05-21T09:02:55Z</time>
      </trkpt>
      <trkpt lat="53.79907" lon="9.04481">
        <ele>19</ele>
        <time>2019-05-21T09:03:14Z</time>
      </trkpt>
      <trkpt lat="53.79886" lon="9.04527">
        <ele>18.60000038147</ele>
        <time>2019-05-21T09:03:33Z</time>
      </trkpt>
      <trkpt lat="53.79837" lon="9.04569">
        <ele>18.60000038147</ele>
        <time>2019-05-21T09:03:52Z</time>
      </trkpt>
      <trkpt lat="53.79785" lon="9.04661">
        <ele>19.60000038147</ele>
        <time>2019-05-21T09:04:03Z</time>
      </trkpt>
      <trkpt lat="53.7977" lon="9.04736">
        <ele>20.200000762939</ele>
        <time>2019-05-21T09:04:21Z</time>
      </trkpt>
      <trkpt lat="53.79757" lon="9.04819">
        <ele>20.39999961853</ele>
        <time>2019-05-21T09:04:44Z</time>
      </trkpt>
      <trkpt lat="53.79748" lon="9.04893">
        <ele>20</ele>
        <time>2019-05-21T09:05:04Z</time>
      </trkpt>
      <trkpt lat="53.7973" lon="9.04973">
        <ele>19.799999237061</ele>
        <time>2019-05-21T09:05:20Z</time>
      </trkpt>
      <trkpt lat="53.79731" lon="9.05021">
        <ele>20</ele>
        <time>2019-05-21T09:05:34Z</time>
      </trkpt>
      <trkpt lat="53.79721" lon="9.05127">
        <ele>19.799999237061</ele>
        <time>2019-05-21T09:05:56Z</time>
      </trkpt>
      <trkpt lat="53.79707" lon="9.05278">
        <ele>19.799999237061</ele>
        <time>2019-05-21T09:06:10Z</time>
      </trkpt>
      <trkpt lat="53.79704" lon="9.05449">
        <ele>20</ele>
        <time>2019-05-21T09:06:31Z</time>
      </trkpt>
      <trkpt lat="53.7971" lon="9.05544">
        <ele>20</ele>
        <time>2019-05-21T09:06:52Z</time>
      </trkpt>
      <trkpt lat="53.79715" lon="9.0569">
        <ele>19.799999237061</ele>
        <time>2019-05-21T09:07:10Z</time>
      </trkpt>
      <trkpt lat="53.79713" lon="9.05746">
        <ele>19.799999237061</ele>
        <time>2019-05-21T09:07:33Z</time>
      </trkpt>
      <trkpt lat="53.79724" lon="9.05969">
        <ele>19.60000038147</ele>
        <time>2019-05-21T09:07:55Z</time>
      </trkpt>
      <trkpt lat="53.79732" lon="9.06292">
        <ele>19.60000038147</ele>
        <time>2019-05-21T09:08:08Z</time>
      </trkpt>
      <trkpt lat="53.79736" lon="9.0638">
        <ele>19.799999237061</ele>
        <time>2019-05-21T09:08:34Z</time>
      </trkpt>
      <trkpt lat="53.79734" lon="9.06433">
        <ele>19.799999237061</ele>
        <time>2019-05-21T09:09:01Z</time>
      </trkpt>
      <trkpt lat="53.79734" lon="9.06614">
        <ele>20</ele>
        <time>2019-05-21T09:09:18Z</time>
      </trkpt>
      <trkpt lat="53.79738" lon="9.06696">
        <ele>20.200000762939</ele>
        <time>2019-05-21T09:09:43Z</time>
      </trkpt>
      <trkpt lat="53.79763" lon="9.06919">
        <ele>20.60000038147</ele>
        <time>2019-05-21T09:10:06Z</time>
      </trkpt>
      <trkpt lat="53.79781" lon="9.07013">
        <ele>20.39999961853</ele>
        <time>2019-05-21T09:10:30Z</time>
      </trkpt>
      <trkpt lat="53.79826" lon="9.07172">
        <ele>20.39999961853</ele>
        <time>2019-05-21T09:10:48Z</time>
      </trkpt>
      <trkpt lat="53.79852" lon="9.07254">
        <ele>20.60000038147</ele>
        <time>2019-05-21T09:11:07Z</time>
      </trkpt>
      <trkpt lat="53.7989" lon="9.07369">
        <ele>20.60000038147</ele>
        <time>2019-05-21T09:11:30Z</time>
      </trkpt>
      <trkpt lat="53.79934" lon="9.07509">
        <ele>21</ele>
        <time>2019-05-21T09:11:56Z</time>
      </trkpt>
      <trkpt lat="53.79956" lon="9.07584">
        <ele>21.799999237061</ele>
        <time>2019-05-21T09:12:19Z</time>
      </trkpt>
      <trkpt lat="53.79996" lon="9.07712">
        <ele>23.799999237061</ele>
        <time>2019-05-21T09:12:44Z</time>
      </trkpt>
      <trkpt lat="53.80021" lon="9.07788">
        <ele>24.60000038147</ele>
        <time>2019-05-21T09:13:11Z</time>
      </trkpt>
      <trkpt lat="53.80061" lon="9.07915">
        <ele>25.200000762939</ele>
        <time>2019-05-21T09:13:29Z</time>
      </trkpt>
      <trkpt lat="53.80089" lon="9.08002">
        <ele>25.39999961853</ele>
        <time>2019-05-21T09:13:57Z</time>
      </trkpt>
      <trkpt lat="53.80123" lon="9.08108">
        <ele>25</ele>
        <time>2019-05-21T09:14:25Z</time>
      </trkpt>
      <trkpt lat="53.80157" lon="9.08207">
        <ele>24.799999237061</ele>
        <time>2019-05-21T09:14:49Z</time>
      </trkpt>
      <trkpt lat="53.80241" lon="9.08373">
        <ele>23.60000038147</ele>
        <time>2019-05-21T09:15:18Z</time>
      </trkpt>
      <trkpt lat="53.80274" lon="9.08423">
        <ele>22.799999237061</ele>
        <time>2019-05-21T09:15:36Z</time>
      </trkpt>
      <trkpt lat="53.80238" lon="9.08481">
        <ele>22</ele>
        <time>2019-05-21T09:15:53Z</time>
      </trkpt>
      <trkpt lat="53.80161" lon="9.08528">
        <ele>20.200000762939</ele>
        <time>2019-05-21T09:16:19Z</time>
      </trkpt>
      <trkpt lat="53.80091" lon="9.08536">
        <ele>20.200000762939</ele>
        <time>2019-05-21T09:16:42Z</time>
      </trkpt>
      <trkpt lat="53.80091" lon="9.08669">
        <ele>20.39999961853</ele>
        <time>2019-05-21T09:17:09Z</time>
      </trkpt>
      <trkpt lat="53.80124" lon="9.09006">
        <ele>19.60000038147</ele>
        <time>2019-05-21T09:17:34Z</time>
      </trkpt>
      <trkpt lat="53.80132" lon="9.09105">
        <ele>19.60000038147</ele>
        <time>2019-05-21T09:17:51Z</time>
      </trkpt>
      <trkpt lat="53.80141" lon="9.09204">
        <ele>19.39999961853</ele>
        <time>2019-05-21T09:18:16Z</time>
      </trkpt>
      <trkpt lat="53.80155" lon="9.09352">
        <ele>20.200000762939</ele>
        <time>2019-05-21T09:18:46Z</time>
      </trkpt>
      <trkpt lat="53.80163" lon="9.09379">
        <ele>20.200000762939</ele>
        <time>2019-05-21T09:19:03Z</time>
      </trkpt>
      <trkpt lat="53.80204" lon="9.09466">
        <ele>19.799999237061</ele>
        <time>2019-05-21T09:19:31Z</time>
      </trkpt>
      <trkpt lat="53.80232" lon="9.09544">
        <ele>19.799999237061</ele>
        <time>2019-05-21T09:19:57Z</time>
      </trkpt>
      <trkpt lat="53.8024" lon="9.09627">
        <ele>19.60000038147</ele>
        <time>2019-05-21T09:20:23Z</time>
      </trkpt>
      <trkpt lat="53.80247" lon="9.09867">
        <ele>20.200000762939</ele>
        <time>2019-05-21T09:20:50Z</time>
      </trkpt>
      <trkpt lat="53.80295" lon="9.10041">
        <ele>19.60000038147</ele>
        <time>2019-05-21T09:21:07Z</time>
      </trkpt>
      <trkpt lat="53.8025" lon="9.10133">
        <ele>20.200000762939</ele>
        <time>2019-05-21T09:21:30Z</time>
      </trkpt>
      <trkpt lat="53.80171" lon="9.10282">
        <ele>20.200000762939</ele>
        <time>2019-05-21T09:21:43Z</time>
      </trkpt>
      <trkpt lat="53.80135" lon="9.10358">
        <ele>20.39999961853</ele>
        <time>2019-05-21T09:22:01Z</time>
      </trkpt>
      <trkpt lat="53.80122" lon="9.10393">
        <ele>20.60000038147</ele>
        <time>2019-05-21T09:22:54Z</time>
      </trkpt>
      <trkpt lat="53.80013" lon="9.10642">
        <ele>20.60000038147</ele>
        <time>2019-05-21T09:23:15Z</time>
      </trkpt>
      <trkpt lat="53.79981" lon="9.10744">
        <ele>19.799999237061</ele>
        <time>2019-05-21T09:23:22Z</time>
      </trkpt>
      <trkpt lat="53.79958" lon="9.10841">
        <ele>19.60000038147</ele>
        <time>2019-05-21T09:23:45Z</time>
      </trkpt>
      <trkpt lat="53.79928" lon="9.10958">
        <ele>19.60000038147</ele>
        <time>2019-05-21T09:23:51Z</time>
      </trkpt>
      <trkpt lat="53.79848" lon="9.11233">
        <ele>20</ele>
        <time>2019-05-21T09:23:58Z</time>
      </trkpt>
      <trkpt lat="53.79832" lon="9.11331">
        <ele>20.39999961853</ele>
        <time>2019-05-21T09:24:16Z</time>
      </trkpt>
      <trkpt lat="53.79814" lon="9.11464">
        <ele>20.60000038147</ele>
        <time>2019-05-21T09:24:21Z</time>
      </trkpt>
      <trkpt lat="53.79784" lon="9.11633">
        <ele>20.39999961853</ele>
        <time>2019-05-21T09:24:34Z</time>
      </trkpt>
      <trkpt lat="53.79764" lon="9.1178">
        <ele>20</ele>
        <time>2019-05-21T09:24:55Z</time>
      </trkpt>
      <trkpt lat="53.79767" lon="9.12095">
        <ele>20</ele>
        <time>2019-05-21T09:25:21Z</time>
      </trkpt>
      <trkpt lat="53.79733" lon="9.12105">
        <ele>20.200000762939</ele>
        <time>2019-05-21T09:25:55Z</time>
      </trkpt>
      <trkpt lat="53.79695" lon="9.12145">
        <ele>20.200000762939</ele>
        <time>2019-05-21T09:26:26Z</time>
      </trkpt>
      <trkpt lat="53.79661" lon="9.12195">
        <ele>20.60000038147</ele>
        <time>2019-05-21T09:26:51Z</time>
      </trkpt>
      <trkpt lat="53.79672" lon="9.12305">
        <ele>20.39999961853</ele>
        <time>2019-05-21T09:27:14Z</time>
      </trkpt>
      <trkpt lat="53.79686" lon="9.12399">
        <ele>20.39999961853</ele>
        <time>2019-05-21T09:27:43Z</time>
      </trkpt>
      <trkpt lat="53.79709" lon="9.1251">
        <ele>20.799999237061</ele>
        <time>2019-05-21T09:28:06Z</time>
      </trkpt>
      <trkpt lat="53.79726" lon="9.12643">
        <ele>21</ele>
        <time>2019-05-21T09:28:15Z</time>
      </trkpt>
      <trkpt lat="53.79737" lon="9.12718">
        <ele>21.200000762939</ele>
        <time>2019-05-21T09:28:32Z</time>
      </trkpt>
      <trkpt lat="53.79751" lon="9.12868">
        <ele>20.799999237061</ele>
        <time>2019-05-21T09:28:58Z</time>
      </trkpt>
      <trkpt lat="53.79773" lon="9.13111">
        <ele>20.799999237061</ele>
        <time>2019-05-21T09:29:22Z</time>
      </trkpt>
      <trkpt lat="53.79782" lon="9.13235">
        <ele>21</ele>
        <time>2019-05-21T09:29:42Z</time>
      </trkpt>
      <trkpt lat="53.79824" lon="9.13472">
        <ele>21</ele>
        <time>2019-05-21T09:29:52Z</time>
      </trkpt>
      <trkpt lat="53.7984" lon="9.13609">
        <ele>21.39999961853</ele>
        <time>2019-05-21T09:29:57Z</time>
      </trkpt>
      <trkpt lat="53.79857" lon="9.13643">
        <ele>21.39999961853</ele>
        <time>2019-05-21T09:30:11Z</time>
      </trkpt>
      <trkpt lat="53.79886" lon="9.13685">
        <ele>21.200000762939</ele>
        <time>2019-05-21T09:37:39Z</time>
      </trkpt>
      <trkpt lat="53.79922" lon="9.13811">
        <ele>21.60000038147</ele>
        <time>2019-05-21T09:37:56Z</time>
      </trkpt>
      <trkpt lat="53.79976" lon="9.14059">
        <ele>21.60000038147</ele>
        <time>2019-05-21T09:38:13Z</time>
      </trkpt>
      <trkpt lat="53.79981" lon="9.14158">
        <ele>20.799999237061</ele>
        <time>2019-05-21T09:38:33Z</time>
      </trkpt>
      <trkpt lat="53.79985" lon="9.14319">
        <ele>20</ele>
        <time>2019-05-21T09:38:58Z</time>
      </trkpt>
      <trkpt lat="53.79986" lon="9.14425">
        <ele>20.200000762939</ele>
        <time>2019-05-21T09:39:15Z</time>
      </trkpt>
      <trkpt lat="53.79976" lon="9.14604">
        <ele>21</ele>
        <time>2019-05-21T09:39:30Z</time>
      </trkpt>
      <trkpt lat="53.79975" lon="9.14764">
        <ele>21.39999961853</ele>
        <time>2019-05-21T09:39:45Z</time>
      </trkpt>
      <trkpt lat="53.79958" lon="9.14959">
        <ele>21</ele>
        <time>2019-05-21T09:39:58Z</time>
      </trkpt>
      <trkpt lat="53.79949" lon="9.151">
        <ele>21</ele>
        <time>2019-05-21T09:40:10Z</time>
      </trkpt>
      <trkpt lat="53.79937" lon="9.15237">
        <ele>21.39999961853</ele>
        <time>2019-05-21T09:40:19Z</time>
      </trkpt>
      <trkpt lat="53.79931" lon="9.15322">
        <ele>22</ele>
        <time>2019-05-21T09:40:35Z</time>
      </trkpt>
      <trkpt lat="53.79911" lon="9.1544">
        <ele>21.200000762939</ele>
        <time>2019-05-21T09:40:43Z</time>
      </trkpt>
      <trkpt lat="53.79923" lon="9.15538">
        <ele>21.60000038147</ele>
        <time>2019-05-21T09:41:05Z</time>
      </trkpt>
      <trkpt lat="53.79987" lon="9.1563">
        <ele>22.39999961853</ele>
        <time>2019-05-21T09:41:28Z</time>
      </trkpt>
      <trkpt lat="53.80012" lon="9.1573">
        <ele>22.39999961853</ele>
        <time>2019-05-21T09:41:55Z</time>
      </trkpt>
      <trkpt lat="53.80011" lon="9.15818">
        <ele>22.60000038147</ele>
        <time>2019-05-21T09:42:11Z</time>
      </trkpt>
      <trkpt lat="53.80019" lon="9.15949">
        <ele>22.200000762939</ele>
        <time>2019-05-21T09:42:35Z</time>
      </trkpt>
      <trkpt lat="53.80017" lon="9.16092">
        <ele>22</ele>
        <time>2019-05-21T09:42:52Z</time>
      </trkpt>
      <trkpt lat="53.80022" lon="9.16213">
        <ele>22.200000762939</ele>
        <time>2019-05-21T09:43:15Z</time>
      </trkpt>
      <trkpt lat="53.80023" lon="9.16396">
        <ele>22.200000762939</ele>
        <time>2019-05-21T09:43:39Z</time>
      </trkpt>
      <trkpt lat="53.80028" lon="9.16544">
        <ele>21.799999237061</ele>
        <time>2019-05-21T09:43:58Z</time>
      </trkpt>
      <trkpt lat="53.80035" lon="9.16671">
        <ele>22.200000762939</ele>
        <time>2019-05-21T09:44:19Z</time>
      </trkpt>
      <trkpt lat="53.80047" lon="9.16861">
        <ele>22</ele>
        <time>2019-05-21T09:44:37Z</time>
      </trkpt>
      <trkpt lat="53.80048" lon="9.16954">
        <ele>21.60000038147</ele>
        <time>2019-05-21T09:44:50Z</time>
      </trkpt>
      <trkpt lat="53.80035" lon="9.17105">
        <ele>21.60000038147</ele>
        <time>2019-05-21T09:45:00Z</time>
      </trkpt>
      <trkpt lat="53.80045" lon="9.1724">
        <ele>22</ele>
        <time>2019-05-21T09:45:10Z</time>
      </trkpt>
      <trkpt lat="53.80063" lon="9.17388">
        <ele>21.799999237061</ele>
        <time>2019-05-21T09:45:27Z</time>
      </trkpt>
      <trkpt lat="53.80082" lon="9.17481">
        <ele>21</ele>
        <time>2019-05-21T09:45:43Z</time>
      </trkpt>
      <trkpt lat="53.80093" lon="9.17558">
        <ele>21</ele>
        <time>2019-05-21T09:45:55Z</time>
      </trkpt>
      <trkpt lat="53.80098" lon="9.1761">
        <ele>21.60000038147</ele>
        <time>2019-05-21T09:46:11Z</time>
      </trkpt>
      <trkpt lat="53.80089" lon="9.17525">
        <ele>21.39999961853</ele>
        <time>2019-05-21T09:46:28Z</time>
      </trkpt>
      <trkpt lat="53.8009" lon="9.17537">
        <ele>20.799999237061</ele>
        <time>2019-05-21T09:46:52Z</time>
      </trkpt>
      <trkpt lat="53.80096" lon="9.17582">
        <ele>21.60000038147</ele>
        <time>2019-05-21T09:47:09Z</time>
      </trkpt>
      <trkpt lat="53.80104" lon="9.1771">
        <ele>22.39999961853</ele>
        <time>2019-05-21T09:47:21Z</time>
      </trkpt>
      <trkpt lat="53.80103" lon="9.17851">
        <ele>22</ele>
        <time>2019-05-21T09:47:31Z</time>
      </trkpt>
      <trkpt lat="53.80109" lon="9.18002">
        <ele>21</ele>
        <time>2019-05-21T09:47:53Z</time>
      </trkpt>
      <trkpt lat="53.80146" lon="9.18059">
        <ele>21.200000762939</ele>
        <time>2019-05-21T09:48:16Z</time>
      </trkpt>
      <trkpt lat="53.80158" lon="9.18105">
        <ele>21.200000762939</ele>
        <time>2019-05-21T09:48:25Z</time>
      </trkpt>
      <trkpt lat="53.80169" lon="9.18208">
        <ele>20.60000038147</ele>
        <time>2019-05-21T09:48:44Z</time>
      </trkpt>
      <trkpt lat="53.80179" lon="9.18345">
        <ele>20.60000038147</ele>
        <time>2019-05-21T09:48:59Z</time>
      </trkpt>
      <trkpt lat="53.80192" lon="9.18493">
        <ele>21</ele>
        <time>2019-05-21T09:49:12Z</time>
      </trkpt>
      <trkpt lat="53.80208" lon="9.1869">
        <ele>20.60000038147</ele>
        <time>2019-05-21T09:49:20Z</time>
      </trkpt>
      <trkpt lat="53.80219" lon="9.1881">
        <ele>20.60000038147</ele>
        <time>2019-05-21T09:50:03Z</time>
      </trkpt>
      <trkpt lat="53.80229" lon="9.18982">
        <ele>20.200000762939</ele>
        <time>2019-05-21T09:50:25Z</time>
      </trkpt>
      <trkpt lat="53.80245" lon="9.19175">
        <ele>20.200000762939</ele>
        <time>2019-05-21T09:50:31Z</time>
      </trkpt>
      <trkpt lat="53.80256" lon="9.1933">
        <ele>20.39999961853</ele>
        <time>2019-05-21T09:50:40Z</time>
      </trkpt>
      <trkpt lat="53.80273" lon="9.19476">
        <ele>20.39999961853</ele>
        <time>2019-05-21T09:50:52Z</time>
      </trkpt>
      <trkpt lat="53.80285" lon="9.19613">
        <ele>20.60000038147</ele>
        <time>2019-05-21T09:51:11Z</time>
      </trkpt>
      <trkpt lat="53.80343" lon="9.20097">
        <ele>20.60000038147</ele>
        <time>2019-05-21T09:54:19Z</time>
      </trkpt>
      <trkpt lat="53.80359" lon="9.20226">
        <ele>20.39999961853</ele>
        <time>2019-05-21T09:54:33Z</time>
      </trkpt>
      <trkpt lat="53.80364" lon="9.20372">
        <ele>20.60000038147</ele>
        <time>2019-05-21T09:54:52Z</time>
      </trkpt>
      <trkpt lat="53.80388" lon="9.20468">
        <ele>20.799999237061</ele>
        <time>2019-05-21T09:55:17Z</time>
      </trkpt>
      <trkpt lat="53.80412" lon="9.20596">
        <ele>20.799999237061</ele>
        <time>2019-05-21T09:55:33Z</time>
      </trkpt>
      <trkpt lat="53.80447" lon="9.2077">
        <ele>21</ele>
        <time>2019-05-21T09:55:50Z</time>
      </trkpt>
      <trkpt lat="53.80519" lon="9.21218">
        <ele>21</ele>
        <time>2019-05-21T09:56:06Z</time>
      </trkpt>
      <trkpt lat="53.80533" lon="9.21353">
        <ele>21</ele>
        <time>2019-05-21T09:56:21Z</time>
      </trkpt>
      <trkpt lat="53.80556" lon="9.21557">
        <ele>20.799999237061</ele>
        <time>2019-05-21T09:56:49Z</time>
      </trkpt>
      <trkpt lat="53.80568" lon="9.21665">
        <ele>20.799999237061</ele>
        <time>2019-05-21T09:57:04Z</time>
      </trkpt>
      <trkpt lat="53.80589" lon="9.2186">
        <ele>20.39999961853</ele>
        <time>2019-05-21T09:57:28Z</time>
      </trkpt>
      <trkpt lat="53.80614" lon="9.22054">
        <ele>20.60000038147</ele>
        <time>2019-05-21T09:57:45Z</time>
      </trkpt>
      <trkpt lat="53.80637" lon="9.2226">
        <ele>20.39999961853</ele>
        <time>2019-05-21T09:58:03Z</time>
      </trkpt>
      <trkpt lat="53.80655" lon="9.22499">
        <ele>20.200000762939</ele>
        <time>2019-05-21T09:58:16Z</time>
      </trkpt>
      <trkpt lat="53.80657" lon="9.22697">
        <ele>20.200000762939</ele>
        <time>2019-05-21T09:58:21Z</time>
      </trkpt>
      <trkpt lat="53.80632" lon="9.22896">
        <ele>20.799999237061</ele>
        <time>2019-05-21T09:58:31Z</time>
      </trkpt>
      <trkpt lat="53.80604" lon="9.23074">
        <ele>20.39999961853</ele>
        <time>2019-05-21T09:58:41Z</time>
      </trkpt>
      <trkpt lat="53.80574" lon="9.23238">
        <ele>20.39999961853</ele>
        <time>2019-05-21T09:58:50Z</time>
      </trkpt>
      <trkpt lat="53.80532" lon="9.2341">
        <ele>20.799999237061</ele>
        <time>2019-05-21T09:59:00Z</time>
      </trkpt>
      <trkpt lat="53.80503" lon="9.23523">
        <ele>21</ele>
        <time>2019-05-21T09:59:21Z</time>
      </trkpt>
      <trkpt lat="53.80456" lon="9.23895">
        <ele>21</ele>
        <time>2019-05-21T09:59:32Z</time>
      </trkpt>
      <trkpt lat="53.80449" lon="9.24031">
        <ele>21.200000762939</ele>
        <time>2019-05-21T09:59:50Z</time>
      </trkpt>
      <trkpt lat="53.80466" lon="9.24117">
        <ele>21</ele>
        <time>2019-05-21T10:00:04Z</time>
      </trkpt>
      <trkpt lat="53.805" lon="9.24266">
        <ele>21.39999961853</ele>
        <time>2019-05-21T10:00:21Z</time>
      </trkpt>
      <trkpt lat="53.80561" lon="9.24471">
        <ele>21.39999961853</ele>
        <time>2019-05-21T10:00:27Z</time>
      </trkpt>
      <trkpt lat="53.80569" lon="9.24628">
        <ele>21.200000762939</ele>
        <time>2019-05-21T10:00:37Z</time>
      </trkpt>
      <trkpt lat="53.80574" lon="9.24777">
        <ele>21.200000762939</ele>
        <time>2019-05-21T10:00:51Z</time>
      </trkpt>
      <trkpt lat="53.80587" lon="9.24926">
        <ele>21.39999961853</ele>
        <time>2019-05-21T10:01:09Z</time>
      </trkpt>
      <trkpt lat="53.80594" lon="9.25037">
        <ele>21</ele>
        <time>2019-05-21T10:01:28Z</time>
      </trkpt>
      <trkpt lat="53.80597" lon="9.2518">
        <ele>21.39999961853</ele>
        <time>2019-05-21T10:01:49Z</time>
      </trkpt>
      <trkpt lat="53.80594" lon="9.2533">
        <ele>21.200000762939</ele>
        <time>2019-05-21T10:02:08Z</time>
      </trkpt>
      <trkpt lat="53.80595" lon="9.25433">
        <ele>21.39999961853</ele>
        <time>2019-05-21T10:02:34Z</time>
      </trkpt>
      <trkpt lat="53.80608" lon="9.25592">
        <ele>21.200000762939</ele>
        <time>2019-05-21T10:02:50Z</time>
      </trkpt>
      <trkpt lat="53.80594" lon="9.26099">
        <ele>21.200000762939</ele>
        <time>2019-05-21T10:03:03Z</time>
      </trkpt>
      <trkpt lat="53.80584" lon="9.2622">
        <ele>21</ele>
        <time>2019-05-21T10:03:21Z</time>
      </trkpt>
      <trkpt lat="53.80532" lon="9.26481">
        <ele>21</ele>
        <time>2019-05-21T10:03:40Z</time>
      </trkpt>
      <trkpt lat="53.80536" lon="9.26607">
        <ele>21.200000762939</ele>
        <time>2019-05-21T10:04:00Z</time>
      </trkpt>
      <trkpt lat="53.80554" lon="9.26896">
        <ele>21.200000762939</ele>
        <time>2019-05-21T10:04:19Z</time>
      </trkpt>
      <trkpt lat="53.80557" lon="9.27041">
        <ele>21.39999961853</ele>
        <time>2019-05-21T10:04:37Z</time>
      </trkpt>
      <trkpt lat="53.80562" lon="9.2729">
        <ele>21</ele>
        <time>2019-05-21T10:04:57Z</time>
      </trkpt>
      <trkpt lat="53.80556" lon="9.27491">
        <ele>21.39999961853</ele>
        <time>2019-05-21T10:05:16Z</time>
      </trkpt>
      <trkpt lat="53.80544" lon="9.27747">
        <ele>21.39999961853</ele>
        <time>2019-05-21T10:05:35Z</time>
      </trkpt>
      <trkpt lat="53.80498" lon="9.27916">
        <ele>21.39999961853</ele>
        <time>2019-05-21T10:05:53Z</time>
      </trkpt>
      <trkpt lat="53.80464" lon="9.28097">
        <ele>22</ele>
        <time>2019-05-21T10:06:10Z</time>
      </trkpt>
      <trkpt lat="53.80437" lon="9.2822">
        <ele>21.799999237061</ele>
        <time>2019-05-21T10:06:28Z</time>
      </trkpt>
      <trkpt lat="53.80405" lon="9.28307">
        <ele>21.60000038147</ele>
        <time>2019-05-21T10:06:49Z</time>
      </trkpt>
      <trkpt lat="53.80374" lon="9.28352">
        <ele>21.60000038147</ele>
        <time>2019-05-21T10:06:58Z</time>
      </trkpt>
      <trkpt lat="53.80287" lon="9.28488">
        <ele>21.39999961853</ele>
        <time>2019-05-21T10:07:07Z</time>
      </trkpt>
      <trkpt lat="53.80229" lon="9.2859">
        <ele>21.60000038147</ele>
        <time>2019-05-21T10:07:21Z</time>
      </trkpt>
      <trkpt lat="53.80205" lon="9.28686">
        <ele>21.60000038147</ele>
        <time>2019-05-21T10:09:44Z</time>
      </trkpt>
      <trkpt lat="53.80165" lon="9.2941">
        <ele>21.60000038147</ele>
        <time>2019-05-21T10:10:02Z</time>
      </trkpt>
      <trkpt lat="53.80167" lon="9.29469">
        <ele>21.39999961853</ele>
        <time>2019-05-21T10:10:19Z</time>
      </trkpt>
      <trkpt lat="53.80172" lon="9.2957">
        <ele>21.799999237061</ele>
        <time>2019-05-21T10:10:26Z</time>
      </trkpt>
      <trkpt lat="53.80173" lon="9.2976">
        <ele>21.799999237061</ele>
        <time>2019-05-21T10:11:24Z</time>
      </trkpt>
      <trkpt lat="53.80162" lon="9.2986">
        <ele>22</ele>
        <time>2019-05-21T10:11:40Z</time>
      </trkpt>
      <trkpt lat="53.80161" lon="9.29969">
        <ele>22</ele>
        <time>2019-05-21T10:11:51Z</time>
      </trkpt>
      <trkpt lat="53.80156" lon="9.30094">
        <ele>21.799999237061</ele>
        <time>2019-05-21T10:12:11Z</time>
      </trkpt>
      <trkpt lat="53.80143" lon="9.30239">
        <ele>22</ele>
        <time>2019-05-21T10:12:22Z</time>
      </trkpt>
      <trkpt lat="53.80115" lon="9.30405">
        <ele>22.39999961853</ele>
        <time>2019-05-21T10:12:45Z</time>
      </trkpt>
      <trkpt lat="53.80079" lon="9.30552">
        <ele>22.200000762939</ele>
        <time>2019-05-21T10:13:48Z</time>
      </trkpt>
      <trkpt lat="53.80021" lon="9.30667">
        <ele>22.200000762939</ele>
        <time>2019-05-21T10:14:04Z</time>
      </trkpt>
      <trkpt lat="53.79929" lon="9.30846">
        <ele>22.60000038147</ele>
        <time>2019-05-21T10:14:28Z</time>
      </trkpt>
      <trkpt lat="53.79926" lon="9.30859">
        <ele>22.799999237061</ele>
        <time>2019-05-21T10:14:42Z</time>
      </trkpt>
      <trkpt lat="53.79871" lon="9.3101">
        <ele>22.799999237061</ele>
        <time>2019-05-21T10:14:51Z</time>
      </trkpt>
      <trkpt lat="53.79792" lon="9.31203">
        <ele>23.200000762939</ele>
        <time>2019-05-21T10:15:08Z</time>
      </trkpt>
      <trkpt lat="53.79739" lon="9.31284">
        <ele>23</ele>
        <time>2019-05-21T10:15:34Z</time>
      </trkpt>
      <trkpt lat="53.79685" lon="9.31365">
        <ele>22.60000038147</ele>
        <time>2019-05-21T10:15:50Z</time>
      </trkpt>
      <trkpt lat="53.7964" lon="9.31453">
        <ele>22.799999237061</ele>
        <time>2019-05-21T10:15:55Z</time>
      </trkpt>
      <trkpt lat="53.79593" lon="9.31551">
        <ele>22.39999961853</ele>
        <time>2019-05-21T10:16:08Z</time>
      </trkpt>
      <trkpt lat="53.79558" lon="9.3162">
        <ele>22.39999961853</ele>
        <time>2019-05-21T10:16:33Z</time>
      </trkpt>
      <trkpt lat="53.79415" lon="9.31896">
        <ele>23</ele>
        <time>2019-05-21T10:16:44Z</time>
      </trkpt>
      <trkpt lat="53.79368" lon="9.31986">
        <ele>23</ele>
        <time>2019-05-21T10:17:05Z</time>
      </trkpt>
      <trkpt lat="53.79319" lon="9.32046">
        <ele>23.60000038147</ele>
        <time>2019-05-21T10:17:23Z</time>
      </trkpt>
      <trkpt lat="53.7932" lon="9.32077">
        <ele>23.60000038147</ele>
        <time>2019-05-21T10:17:36Z</time>
      </trkpt>
      <trkpt lat="53.79331" lon="9.32237">
        <ele>23.39999961853</ele>
        <time>2019-05-21T10:17:50Z</time>
      </trkpt>
      <trkpt lat="53.79348" lon="9.32236">
        <ele>23.200000762939</ele>
        <time>2019-05-21T10:18:05Z</time>
      </trkpt>
      <trkpt lat="53.79411" lon="9.32195">
        <ele>23.39999961853</ele>
        <time>2019-05-21T10:18:23Z</time>
      </trkpt>
      <trkpt lat="53.79418" lon="9.32188">
        <ele>23.200000762939</ele>
        <time>2019-05-21T10:18:32Z</time>
      </trkpt>
      <trkpt lat="53.79386" lon="9.32216">
        <ele>23.200000762939</ele>
        <time>2019-05-21T10:18:43Z</time>
      </trkpt>
      <trkpt lat="53.79338" lon="9.32244">
        <ele>23.39999961853</ele>
        <time>2019-05-21T10:18:51Z</time>
      </trkpt>
      <trkpt lat="53.79331" lon="9.32283">
        <ele>23</ele>
        <time>2019-05-21T10:19:02Z</time>
      </trkpt>
      <trkpt lat="53.79321" lon="9.32351">
        <ele>23</ele>
        <time>2019-05-21T10:19:12Z</time>
      </trkpt>
      <trkpt lat="53.79286" lon="9.32395">
        <ele>24.799999237061</ele>
        <time>2019-05-21T10:19:22Z</time>
      </trkpt>
      <trkpt lat="53.79229" lon="9.32449">
        <ele>24.799999237061</ele>
        <time>2019-05-21T10:19:28Z</time>
      </trkpt>
      <trkpt lat="53.79165" lon="9.32421">
        <ele>24.799999237061</ele>
        <time>2019-05-21T10:19:37Z</time>
      </trkpt>
      <trkpt lat="53.79093" lon="9.32372">
        <ele>25.39999961853</ele>
        <time>2019-05-21T10:20:03Z</time>
      </trkpt>
      <trkpt lat="53.79073" lon="9.32364">
        <ele>25</ele>
        <time>2019-05-21T10:20:20Z</time>
      </trkpt>
      <trkpt lat="53.78933" lon="9.32399">
        <ele>25</ele>
        <time>2019-05-21T10:20:30Z</time>
      </trkpt>
      <trkpt lat="53.78838" lon="9.32433">
        <ele>24.799999237061</ele>
        <time>2019-05-21T10:20:39Z</time>
      </trkpt>
      <trkpt lat="53.78756" lon="9.32465">
        <ele>25.200000762939</ele>
        <time>2019-05-21T10:20:57Z</time>
      </trkpt>
      <trkpt lat="53.78667" lon="9.32498">
        <ele>25</ele>
        <time>2019-05-21T10:21:14Z</time>
      </trkpt>
      <trkpt lat="53.78475" lon="9.32543">
        <ele>25.39999961853</ele>
        <time>2019-05-21T10:21:23Z</time>
      </trkpt>
      <trkpt lat="53.78411" lon="9.32547">
        <ele>25.39999961853</ele>
        <time>2019-05-21T10:21:41Z</time>
      </trkpt>
      <trkpt lat="53.78335" lon="9.32555">
        <ele>25</ele>
        <time>2019-05-21T10:21:54Z</time>
      </trkpt>
      <trkpt lat="53.78249" lon="9.32565">
        <ele>25</ele>
        <time>2019-05-21T10:22:12Z</time>
      </trkpt>
      <trkpt lat="53.78145" lon="9.32557">
        <ele>25.200000762939</ele>
        <time>2019-05-21T10:22:29Z</time>
      </trkpt>
      <trkpt lat="53.78075" lon="9.32515">
        <ele>25</ele>
        <time>2019-05-21T10:22:38Z</time>
      </trkpt>
      <trkpt lat="53.78076" lon="9.32496">
        <ele>24.799999237061</ele>
        <time>2019-05-21T10:22:53Z</time>
      </trkpt>
      <trkpt lat="53.78099" lon="9.32501">
        <ele>24.200000762939</ele>
        <time>2019-05-21T10:23:10Z</time>
      </trkpt>
      <trkpt lat="53.78103" lon="9.32508">
        <ele>24.60000038147</ele>
        <time>2019-05-21T10:23:26Z</time>
      </trkpt>
      <trkpt lat="53.78083" lon="9.32498">
        <ele>24.60000038147</ele>
        <time>2019-05-21T10:23:44Z</time>
      </trkpt>
      <trkpt lat="53.78074" lon="9.32512">
        <ele>24.799999237061</ele>
        <time>2019-05-21T10:23:56Z</time>
      </trkpt>
      <trkpt lat="53.78113" lon="9.32542">
        <ele>25.200000762939</ele>
        <time>2019-05-21T10:24:07Z</time>
      </trkpt>
      <trkpt lat="53.782" lon="9.32568">
        <ele>25.200000762939</ele>
        <time>2019-05-21T10:24:23Z</time>
      </trkpt>
      <trkpt lat="53.783" lon="9.32563">
        <ele>25.60000038147</ele>
        <time>2019-05-21T10:25:13Z</time>
      </trkpt>
      <trkpt lat="53.78339" lon="9.32559">
        <ele>25.39999961853</ele>
        <time>2019-05-21T10:25:30Z</time>
      </trkpt>
      <trkpt lat="53.78376" lon="9.3281">
        <ele>25.39999961853</ele>
        <time>2019-05-21T10:25:49Z</time>
      </trkpt>
      <trkpt lat="53.7843" lon="9.33016">
        <ele>25.799999237061</ele>
        <time>2019-05-21T10:26:06Z</time>
      </trkpt>
      <trkpt lat="53.78471" lon="9.33174">
        <ele>25.60000038147</ele>
        <time>2019-05-21T10:26:24Z</time>
      </trkpt>
      <trkpt lat="53.78507" lon="9.33327">
        <ele>25.799999237061</ele>
        <time>2019-05-21T10:26:42Z</time>
      </trkpt>
      <trkpt lat="53.78555" lon="9.33506">
        <ele>28.799999237061</ele>
        <time>2019-05-21T10:26:55Z</time>
      </trkpt>
      <trkpt lat="53.78586" lon="9.33615">
        <ele>29.39999961853</ele>
        <time>2019-05-21T10:27:18Z</time>
      </trkpt>
      <trkpt lat="53.78618" lon="9.33749">
        <ele>28.799999237061</ele>
        <time>2019-05-21T10:27:35Z</time>
      </trkpt>
      <trkpt lat="53.78603" lon="9.33787">
        <ele>28.39999961853</ele>
        <time>2019-05-21T10:27:53Z</time>
      </trkpt>
      <trkpt lat="53.78571" lon="9.33892">
        <ele>28.39999961853</ele>
        <time>2019-05-21T10:28:12Z</time>
      </trkpt>
      <trkpt lat="53.78541" lon="9.34001">
        <ele>31</ele>
        <time>2019-05-21T10:28:25Z</time>
      </trkpt>
      <trkpt lat="53.78515" lon="9.34047">
        <ele>33</ele>
        <time>2019-05-21T10:28:40Z</time>
      </trkpt>
      <trkpt lat="53.78545" lon="9.33992">
        <ele>34.599998474121</ele>
        <time>2019-05-21T10:28:56Z</time>
      </trkpt>
      <trkpt lat="53.78559" lon="9.3395">
        <ele>34.200000762939</ele>
        <time>2019-05-21T10:29:15Z</time>
      </trkpt>
      <trkpt lat="53.78597" lon="9.33799">
        <ele>30.60000038147</ele>
        <time>2019-05-21T10:29:35Z</time>
      </trkpt>
      <trkpt lat="53.78621" lon="9.33771">
        <ele>30.39999961853</ele>
        <time>2019-05-21T10:29:58Z</time>
      </trkpt>
      <trkpt lat="53.78617" lon="9.33722">
        <ele>30.39999961853</ele>
        <time>2019-05-21T10:30:11Z</time>
      </trkpt>
      <trkpt lat="53.78585" lon="9.33598">
        <ele>31.39999961853</ele>
        <time>2019-05-21T10:30:24Z</time>
      </trkpt>
      <trkpt lat="53.78564" lon="9.3352">
        <ele>31.799999237061</ele>
        <time>2019-05-21T10:30:34Z</time>
      </trkpt>
      <trkpt lat="53.78527" lon="9.33384">
        <ele>31</ele>
        <time>2019-05-21T10:30:46Z</time>
      </trkpt>
      <trkpt lat="53.78468" lon="9.33159">
        <ele>28</ele>
        <time>2019-05-21T10:31:08Z</time>
      </trkpt>
      <trkpt lat="53.78422" lon="9.32983">
        <ele>28.200000762939</ele>
        <time>2019-05-21T10:31:28Z</time>
      </trkpt>
      <trkpt lat="53.78385" lon="9.32839">
        <ele>28</ele>
        <time>2019-05-21T10:31:46Z</time>
      </trkpt>
      <trkpt lat="53.78344" lon="9.32672">
        <ele>28</ele>
        <time>2019-05-21T10:32:04Z</time>
      </trkpt>
      <trkpt lat="53.78348" lon="9.32583">
        <ele>27.60000038147</ele>
        <time>2019-05-21T10:32:12Z</time>
      </trkpt>
      <trkpt lat="53.78341" lon="9.32556">
        <ele>27.799999237061</ele>
        <time>2019-05-21T10:32:31Z</time>
      </trkpt>
      <trkpt lat="53.78208" lon="9.32567">
        <ele>28.200000762939</ele>
        <time>2019-05-21T10:32:54Z</time>
      </trkpt>
      <trkpt lat="53.78109" lon="9.32534">
        <ele>28.39999961853</ele>
        <time>2019-05-21T10:33:18Z</time>
      </trkpt>
      <trkpt lat="53.78031" lon="9.32464">
        <ele>28.200000762939</ele>
        <time>2019-05-21T10:33:35Z</time>
      </trkpt>
      <trkpt lat="53.77962" lon="9.32371">
        <ele>28.200000762939</ele>
        <time>2019-05-21T10:33:49Z</time>
      </trkpt>
      <trkpt lat="53.77888" lon="9.32268">
        <ele>28.60000038147</ele>
        <time>2019-05-21T10:34:05Z</time>
      </trkpt>
      <trkpt lat="53.77809" lon="9.32185">
        <ele>28.200000762939</ele>
        <time>2019-05-21T10:34:28Z</time>
      </trkpt>
      <trkpt lat="53.77738" lon="9.32136">
        <ele>28</ele>
        <time>2019-05-21T10:34:48Z</time>
      </trkpt>
      <trkpt lat="53.77601" lon="9.32038">
        <ele>27</ele>
        <time>2019-05-21T10:34:56Z</time>
      </trkpt>
      <trkpt lat="53.77509" lon="9.31969">
        <ele>27.60000038147</ele>
        <time>2019-05-21T10:35:22Z</time>
      </trkpt>
      <trkpt lat="53.7746" lon="9.31939">
        <ele>28.60000038147</ele>
        <time>2019-05-21T10:35:48Z</time>
      </trkpt>
      <trkpt lat="53.77386" lon="9.31884">
        <ele>28.39999961853</ele>
        <time>2019-05-21T10:36:14Z</time>
      </trkpt>
      <trkpt lat="53.77254" lon="9.31856">
        <ele>28.39999961853</ele>
        <time>2019-05-21T10:36:40Z</time>
      </trkpt>
      <trkpt lat="53.77165" lon="9.31865">
        <ele>28.200000762939</ele>
        <time>2019-05-21T10:37:04Z</time>
      </trkpt>
      <trkpt lat="53.77132" lon="9.31871">
        <ele>28</ele>
        <time>2019-05-21T10:37:26Z</time>
      </trkpt>
      <trkpt lat="53.77051" lon="9.31878">
        <ele>27.799999237061</ele>
        <time>2019-05-21T10:37:55Z</time>
      </trkpt>
      <trkpt lat="53.76923" lon="9.31895">
        <ele>27.799999237061</ele>
        <time>2019-05-21T10:38:10Z</time>
      </trkpt>
      <trkpt lat="53.76831" lon="9.31905">
        <ele>27.60000038147</ele>
        <time>2019-05-21T10:38:28Z</time>
      </trkpt>
      <trkpt lat="53.76752" lon="9.31914">
        <ele>27.799999237061</ele>
        <time>2019-05-21T10:38:53Z</time>
      </trkpt>
      <trkpt lat="53.76659" lon="9.31926">
        <ele>27.799999237061</ele>
        <time>2019-05-21T10:39:11Z</time>
      </trkpt>
      <trkpt lat="53.76554" lon="9.31937">
        <ele>27.60000038147</ele>
        <time>2019-05-21T10:39:42Z</time>
      </trkpt>
      <trkpt lat="53.7648" lon="9.31945">
        <ele>28</ele>
        <time>2019-05-21T10:41:17Z</time>
      </trkpt>
      <trkpt lat="53.76178" lon="9.31976">
        <ele>28</ele>
        <time>2019-05-21T10:41:34Z</time>
      </trkpt>
      <trkpt lat="53.75967" lon="9.32004">
        <ele>28.39999961853</ele>
        <time>2019-05-21T10:41:55Z</time>
      </trkpt>
      <trkpt lat="53.7574" lon="9.32124">
        <ele>28.39999961853</ele>
        <time>2019-05-21T10:42:10Z</time>
      </trkpt>
      <trkpt lat="53.75579" lon="9.32277">
        <ele>28.39999961853</ele>
        <time>2019-05-21T11:10:01Z</time>
      </trkpt>
      <trkpt lat="53.75512" lon="9.32341">
        <ele>28.60000038147</ele>
        <time>2019-05-21T11:10:24Z</time>
      </trkpt>
      <trkpt lat="53.75433" lon="9.32418">
        <ele>28.60000038147</ele>
        <time>2019-05-21T11:10:42Z</time>
      </trkpt>
      <trkpt lat="53.7537" lon="9.32479">
        <ele>28.200000762939</ele>
        <time>2019-05-21T11:11:07Z</time>
      </trkpt>
      <trkpt lat="53.75361" lon="9.32492">
        <ele>28.200000762939</ele>
        <time>2019-05-21T11:11:30Z</time>
      </trkpt>
      <trkpt lat="53.75181" lon="9.32661">
        <ele>29</ele>
        <time>2019-05-21T11:11:39Z</time>
      </trkpt>
      <trkpt lat="53.75107" lon="9.32736">
        <ele>28.799999237061</ele>
        <time>2019-05-21T11:11:48Z</time>
      </trkpt>
      <trkpt lat="53.75012" lon="9.32816">
        <ele>28.799999237061</ele>
        <time>2019-05-21T11:11:55Z</time>
      </trkpt>
      <trkpt lat="53.74997" lon="9.32825">
        <ele>29.60000038147</ele>
        <time>2019-05-21T11:12:15Z</time>
      </trkpt>
      <trkpt lat="53.74977" lon="9.32863">
        <ele>30</ele>
        <time>2019-05-21T11:12:33Z</time>
      </trkpt>
      <trkpt lat="53.74905" lon="9.32935">
        <ele>28.200000762939</ele>
        <time>2019-05-21T11:12:46Z</time>
      </trkpt>
      <trkpt lat="53.74805" lon="9.33033">
        <ele>27.60000038147</ele>
        <time>2019-05-21T11:13:05Z</time>
      </trkpt>
      <trkpt lat="53.74701" lon="9.33139">
        <ele>27.799999237061</ele>
        <time>2019-05-21T11:13:32Z</time>
      </trkpt>
      <trkpt lat="53.74632" lon="9.33213">
        <ele>28</ele>
        <time>2019-05-21T11:13:38Z</time>
      </trkpt>
      <trkpt lat="53.74526" lon="9.33311">
        <ele>28</ele>
        <time>2019-05-21T11:13:56Z</time>
      </trkpt>
      <trkpt lat="53.74474" lon="9.3336">
        <ele>28.200000762939</ele>
        <time>2019-05-21T11:14:21Z</time>
      </trkpt>
      <trkpt lat="53.74365" lon="9.33464">
        <ele>28.200000762939</ele>
        <time>2019-05-21T11:14:44Z</time>
      </trkpt>
      <trkpt lat="53.74268" lon="9.33559">
        <ele>28.39999961853</ele>
        <time>2019-05-21T11:15:09Z</time>
      </trkpt>
      <trkpt lat="53.74147" lon="9.33677">
        <ele>28.60000038147</ele>
        <time>2019-05-21T11:15:17Z</time>
      </trkpt>
      <trkpt lat="53.73939" lon="9.33938">
        <ele>28.60000038147</ele>
        <time>2019-05-21T11:15:41Z</time>
      </trkpt>
      <trkpt lat="53.73861" lon="9.34045">
        <ele>28.39999961853</ele>
        <time>2019-05-21T11:16:03Z</time>
      </trkpt>
      <trkpt lat="53.73785" lon="9.34153">
        <ele>28.799999237061</ele>
        <time>2019-05-21T11:16:24Z</time>
      </trkpt>
      <trkpt lat="53.73722" lon="9.34239">
        <ele>28.60000038147</ele>
        <time>2019-05-21T11:16:45Z</time>
      </trkpt>
      <trkpt lat="53.73639" lon="9.34353">
        <ele>28.60000038147</ele>
        <time>2019-05-21T11:17:08Z</time>
      </trkpt>
      <trkpt lat="53.73574" lon="9.34447">
        <ele>29</ele>
        <time>2019-05-21T11:17:27Z</time>
      </trkpt>
      <trkpt lat="53.73495" lon="9.34554">
        <ele>28.799999237061</ele>
        <time>2019-05-21T11:17:45Z</time>
      </trkpt>
      <trkpt lat="53.73451" lon="9.34613">
        <ele>28.799999237061</ele>
        <time>2019-05-21T11:18:02Z</time>
      </trkpt>
      <trkpt lat="53.73436" lon="9.34634">
        <ele>28.60000038147</ele>
        <time>2019-05-21T11:18:23Z</time>
      </trkpt>
      <trkpt lat="53.7339" lon="9.34697">
        <ele>29</ele>
        <time>2019-05-21T11:18:43Z</time>
      </trkpt>
      <trkpt lat="53.73341" lon="9.34762">
        <ele>29</ele>
        <time>2019-05-21T11:19:09Z</time>
      </trkpt>
      <trkpt lat="53.73378" lon="9.34715">
        <ele>29.39999961853</ele>
        <time>2019-05-21T11:19:29Z</time>
      </trkpt>
      <trkpt lat="53.73429" lon="9.34651">
        <ele>29</ele>
        <time>2019-05-21T11:19:53Z</time>
      </trkpt>
      <trkpt lat="53.73456" lon="9.3463">
        <ele>29.200000762939</ele>
        <time>2019-05-21T11:20:21Z</time>
      </trkpt>
      <trkpt lat="53.73485" lon="9.34697">
        <ele>29.200000762939</ele>
        <time>2019-05-21T11:20:42Z</time>
      </trkpt>
      <trkpt lat="53.73501" lon="9.34739">
        <ele>29</ele>
        <time>2019-05-21T11:21:05Z</time>
      </trkpt>
      <trkpt lat="53.73545" lon="9.3483">
        <ele>29</ele>
        <time>2019-05-21T11:21:28Z</time>
      </trkpt>
      <trkpt lat="53.73537" lon="9.34863">
        <ele>29.39999961853</ele>
        <time>2019-05-21T11:21:51Z</time>
      </trkpt>
      <trkpt lat="53.73519" lon="9.34875">
        <ele>29.200000762939</ele>
        <time>2019-05-21T11:22:14Z</time>
      </trkpt>
      <trkpt lat="53.73444" lon="9.34898">
        <ele>29</ele>
        <time>2019-05-21T11:22:33Z</time>
      </trkpt>
      <trkpt lat="53.73368" lon="9.34926">
        <ele>29</ele>
        <time>2019-05-21T11:22:52Z</time>
      </trkpt>
      <trkpt lat="53.73292" lon="9.34956">
        <ele>29.200000762939</ele>
        <time>2019-05-21T11:23:14Z</time>
      </trkpt>
      <trkpt lat="53.73177" lon="9.35025">
        <ele>29.200000762939</ele>
        <time>2019-05-21T11:23:31Z</time>
      </trkpt>
      <trkpt lat="53.73184" lon="9.35021">
        <ele>29</ele>
        <time>2019-05-21T11:23:46Z</time>
      </trkpt>
      <trkpt lat="53.73209" lon="9.35008">
        <ele>29.200000762939</ele>
        <time>2019-05-21T11:23:59Z</time>
      </trkpt>
      <trkpt lat="53.73258" lon="9.34978">
        <ele>29.200000762939</ele>
        <time>2019-05-21T11:24:21Z</time>
      </trkpt>
      <trkpt lat="53.73359" lon="9.34933">
        <ele>29.39999961853</ele>
        <time>2019-05-21T11:24:36Z</time>
      </trkpt>
      <trkpt lat="53.73413" lon="9.34908">
        <ele>29.60000038147</ele>
        <time>2019-05-21T11:24:59Z</time>
      </trkpt>
      <trkpt lat="53.73472" lon="9.34886">
        <ele>29.60000038147</ele>
        <time>2019-05-21T11:25:17Z</time>
      </trkpt>
      <trkpt lat="53.7356" lon="9.34845">
        <ele>29.799999237061</ele>
        <time>2019-05-21T11:25:42Z</time>
      </trkpt>
      <trkpt lat="53.73624" lon="9.34792">
        <ele>30.60000038147</ele>
        <time>2019-05-21T11:26:06Z</time>
      </trkpt>
      <trkpt lat="53.73636" lon="9.34713">
        <ele>31</ele>
        <time>2019-05-21T11:26:28Z</time>
      </trkpt>
      <trkpt lat="53.73674" lon="9.34648">
        <ele>30.39999961853</ele>
        <time>2019-05-21T11:26:53Z</time>
      </trkpt>
      <trkpt lat="53.73705" lon="9.34537">
        <ele>30.39999961853</ele>
        <time>2019-05-21T11:27:17Z</time>
      </trkpt>
      <trkpt lat="53.737" lon="9.34676">
        <ele>32.799999237061</ele>
        <time>2019-05-21T11:27:40Z</time>
      </trkpt>
      <trkpt lat="53.7374" lon="9.34739">
        <ele>32.200000762939</ele>
        <time>2019-05-21T11:28:06Z</time>
      </trkpt>
      <trkpt lat="53.73798" lon="9.34825">
        <ele>31.799999237061</ele>
        <time>2019-05-21T11:28:33Z</time>
      </trkpt>
      <trkpt lat="53.73826" lon="9.34888">
        <ele>31.200000762939</ele>
        <time>2019-05-21T11:29:01Z</time>
      </trkpt>
      <trkpt lat="53.73868" lon="9.34956">
        <ele>31.200000762939</ele>
        <time>2019-05-21T11:29:22Z</time>
      </trkpt>
      <trkpt lat="53.73935" lon="9.35104">
        <ele>30.799999237061</ele>
        <time>2019-05-21T11:29:43Z</time>
      </trkpt>
      <trkpt lat="53.73997" lon="9.35243">
        <ele>31</ele>
        <time>2019-05-21T11:30:29Z</time>
      </trkpt>
      <trkpt lat="53.74046" lon="9.35347">
        <ele>30.799999237061</ele>
        <time>2019-05-21T11:30:41Z</time>
      </trkpt>
      <trkpt lat="53.74097" lon="9.35382">
        <ele>30.60000038147</ele>
        <time>2019-05-21T11:31:02Z</time>
      </trkpt>
      <trkpt lat="53.74172" lon="9.35331">
        <ele>30.799999237061</ele>
        <time>2019-05-21T11:31:26Z</time>
      </trkpt>
      <trkpt lat="53.74218" lon="9.35332">
        <ele>31</ele>
        <time>2019-05-21T11:31:51Z</time>
      </trkpt>
      <trkpt lat="53.74245" lon="9.35373">
        <ele>31.200000762939</ele>
        <time>2019-05-21T11:32:06Z</time>
      </trkpt>
      <trkpt lat="53.74335" lon="9.35576">
        <ele>31</ele>
        <time>2019-05-21T11:32:21Z</time>
      </trkpt>
      <trkpt lat="53.74433" lon="9.35792">
        <ele>30.60000038147</ele>
        <time>2019-05-21T11:32:47Z</time>
      </trkpt>
      <trkpt lat="53.74553" lon="9.36054">
        <ele>30.60000038147</ele>
        <time>2019-05-21T11:33:10Z</time>
      </trkpt>
      <trkpt lat="53.74624" lon="9.3621">
        <ele>31</ele>
        <time>2019-05-21T11:33:36Z</time>
      </trkpt>
      <trkpt lat="53.74693" lon="9.3638">
        <ele>31</ele>
        <time>2019-05-21T11:33:52Z</time>
      </trkpt>
      <trkpt lat="53.74743" lon="9.36507">
        <ele>31.200000762939</ele>
        <time>2019-05-21T11:35:45Z</time>
      </trkpt>
      <trkpt lat="53.74812" lon="9.36687">
        <ele>31</ele>
        <time>2019-05-21T11:36:06Z</time>
      </trkpt>
      <trkpt lat="53.74927" lon="9.37047">
        <ele>31</ele>
        <time>2019-05-21T11:36:32Z</time>
      </trkpt>
      <trkpt lat="53.74946" lon="9.37119">
        <ele>30.799999237061</ele>
        <time>2019-05-21T11:36:52Z</time>
      </trkpt>
      <trkpt lat="53.75001" lon="9.37285">
        <ele>30.799999237061</ele>
        <time>2019-05-21T11:37:15Z</time>
      </trkpt>
      <trkpt lat="53.75061" lon="9.37506">
        <ele>31.200000762939</ele>
        <time>2019-05-21T11:37:28Z</time>
      </trkpt>
      <trkpt lat="53.75208" lon="9.37859">
        <ele>31.200000762939</ele>
        <time>2019-05-21T11:37:49Z</time>
      </trkpt>
      <trkpt lat="53.75248" lon="9.37953">
        <ele>31</ele>
        <time>2019-05-21T11:38:11Z</time>
      </trkpt>
      <trkpt lat="53.75296" lon="9.3794">
        <ele>30.799999237061</ele>
        <time>2019-05-21T11:38:34Z</time>
      </trkpt>
      <trkpt lat="53.75372" lon="9.37851">
        <ele>31</ele>
        <time>2019-05-21T11:39:01Z</time>
      </trkpt>
      <trkpt lat="53.75427" lon="9.37814">
        <ele>31.200000762939</ele>
        <time>2019-05-21T11:39:28Z</time>
      </trkpt>
      <trkpt lat="53.75456" lon="9.37812">
        <ele>31</ele>
        <time>2019-05-21T11:39:47Z</time>
      </trkpt>
      <trkpt lat="53.75523" lon="9.37751">
        <ele>31</ele>
        <time>2019-05-21T11:40:10Z</time>
      </trkpt>
      <trkpt lat="53.75623" lon="9.37651">
        <ele>31.200000762939</ele>
        <time>2019-05-21T11:40:34Z</time>
      </trkpt>
      <trkpt lat="53.75705" lon="9.37571">
        <ele>31.200000762939</ele>
        <time>2019-05-21T11:41:00Z</time>
      </trkpt>
      <trkpt lat="53.75771" lon="9.37505">
        <ele>31.39999961853</ele>
        <time>2019-05-21T11:41:11Z</time>
      </trkpt>
      <trkpt lat="53.75871" lon="9.3741">
        <ele>31.39999961853</ele>
        <time>2019-05-21T11:41:15Z</time>
      </trkpt>
      <trkpt lat="53.75873" lon="9.37562">
        <ele>31.39999961853</ele>
        <time>2019-05-21T11:41:22Z</time>
      </trkpt>
      <trkpt lat="53.75868" lon="9.37647">
        <ele>31.60000038147</ele>
        <time>2019-05-21T11:41:29Z</time>
      </trkpt>
      <trkpt lat="53.75868" lon="9.37706">
        <ele>31.60000038147</ele>
        <time>2019-05-21T11:41:55Z</time>
      </trkpt>
      <trkpt lat="53.75869" lon="9.37733">
        <ele>31.39999961853</ele>
        <time>2019-05-21T11:42:18Z</time>
      </trkpt>
      <trkpt lat="53.75877" lon="9.37735">
        <ele>32.400001525879</ele>
        <time>2019-05-21T11:42:39Z</time>
      </trkpt>
      <trkpt lat="53.7592" lon="9.37818">
        <ele>32.599998474121</ele>
        <time>2019-05-21T11:42:57Z</time>
      </trkpt>
      <trkpt lat="53.75929" lon="9.3787">
        <ele>32.599998474121</ele>
        <time>2019-05-21T11:43:16Z</time>
      </trkpt>
      <trkpt lat="53.75927" lon="9.37879">
        <ele>32.799999237061</ele>
        <time>2019-05-21T11:43:40Z</time>
      </trkpt>
      <trkpt lat="53.7593" lon="9.379">
        <ele>32.799999237061</ele>
        <time>2019-05-21T11:43:55Z</time>
      </trkpt>
      <trkpt lat="53.75861" lon="9.37726">
        <ele>32.799999237061</ele>
        <time>2019-05-21T11:44:08Z</time>
      </trkpt>
      <trkpt lat="53.75862" lon="9.37408">
        <ele>32.799999237061</ele>
        <time>2019-05-21T11:44:24Z</time>
      </trkpt>
      <trkpt lat="53.7545" lon="9.37817">
        <ele>32.799999237061</ele>
        <time>2019-05-21T11:44:41Z</time>
      </trkpt>
      <trkpt lat="53.75352" lon="9.3787">
        <ele>32.799999237061</ele>
        <time>2019-05-21T11:45:03Z</time>
      </trkpt>
      <trkpt lat="53.75252" lon="9.37967">
        <ele>32.799999237061</ele>
        <time>2019-05-21T11:45:28Z</time>
      </trkpt>
      <trkpt lat="53.75051" lon="9.3748">
        <ele>32.799999237061</ele>
        <time>2019-05-21T11:45:41Z</time>
      </trkpt>
      <trkpt lat="53.74765" lon="9.36573">
        <ele>32.799999237061</ele>
        <time>2019-05-21T11:46:02Z</time>
      </trkpt>
      <trkpt lat="53.74249" lon="9.35394">
        <ele>32.799999237061</ele>
        <time>2019-05-21T11:46:23Z</time>
      </trkpt>
      <trkpt lat="53.74219" lon="9.35337">
        <ele>32.799999237061</ele>
        <time>2019-05-21T11:46:36Z</time>
      </trkpt>
      <trkpt lat="53.74184" lon="9.35323">
        <ele>32.799999237061</ele>
        <time>2019-05-21T11:46:51Z</time>
      </trkpt>
      <trkpt lat="53.74093" lon="9.35381">
        <ele>32.799999237061</ele>
        <time>2019-05-21T11:47:04Z</time>
      </trkpt>
      <trkpt lat="53.74043" lon="9.35348">
        <ele>32.799999237061</ele>
        <time>2019-05-21T11:47:22Z</time>
      </trkpt>
      <trkpt lat="53.73707" lon="9.3468">
        <ele>32.799999237061</ele>
        <time>2019-05-21T11:47:43Z</time>
      </trkpt>
      <trkpt lat="53.73694" lon="9.34466">
        <ele>32.799999237061</ele>
        <time>2019-05-21T11:48:02Z</time>
      </trkpt>
      <trkpt lat="53.7365" lon="9.34338">
        <ele>32.799999237061</ele>
        <time>2019-05-21T11:48:25Z</time>
      </trkpt>
      <trkpt lat="53.74102" lon="9.33721">
        <ele>32.799999237061</ele>
        <time>2019-05-21T11:48:44Z</time>
      </trkpt>
      <trkpt lat="53.75611" lon="9.32234">
        <ele>32.799999237061</ele>
        <time>2019-05-21T11:49:00Z</time>
      </trkpt>
      <trkpt lat="53.75793" lon="9.32085">
        <ele>32.799999237061</ele>
        <time>2019-05-21T11:49:07Z</time>
      </trkpt>
      <trkpt lat="53.76001" lon="9.31997">
        <ele>32.799999237061</ele>
        <time>2019-05-21T11:52:53Z</time>
      </trkpt>
      <trkpt lat="53.76798" lon="9.31916">
        <ele>32.799999237061</ele>
        <time>2019-05-21T11:53:13Z</time>
      </trkpt>
      <trkpt lat="53.76782" lon="9.32009">
        <ele>32.799999237061</ele>
        <time>2019-05-21T11:53:27Z</time>
      </trkpt>
      <trkpt lat="53.7684" lon="9.31904">
        <ele>32.799999237061</ele>
        <time>2019-05-21T11:53:40Z</time>
      </trkpt>
      <trkpt lat="53.77291" lon="9.31852">
        <ele>32.799999237061</ele>
        <time>2019-05-21T11:53:55Z</time>
      </trkpt>
      <trkpt lat="53.77348" lon="9.31864">
        <ele>32.799999237061</ele>
        <time>2019-05-21T11:54:21Z</time>
      </trkpt>
      <trkpt lat="53.77826" lon="9.32206">
        <ele>32.799999237061</ele>
        <time>2019-05-21T11:54:47Z</time>
      </trkpt>
      <trkpt lat="53.78091" lon="9.32527">
        <ele>32.799999237061</ele>
        <time>2019-05-21T11:55:14Z</time>
      </trkpt>
      <trkpt lat="53.78196" lon="9.32566">
        <ele>32.799999237061</ele>
        <time>2019-05-21T11:55:40Z</time>
      </trkpt>
      <trkpt lat="53.7834" lon="9.32558">
        <ele>32.799999237061</ele>
        <time>2019-05-21T11:56:05Z</time>
      </trkpt>
      <trkpt lat="53.78344" lon="9.32694">
        <ele>32.799999237061</ele>
        <time>2019-05-21T11:56:32Z</time>
      </trkpt>
      <trkpt lat="53.78801" lon="9.34393">
        <ele>32.799999237061</ele>
        <time>2019-05-21T11:56:59Z</time>
      </trkpt>
      <trkpt lat="53.78783" lon="9.3452">
        <ele>32.799999237061</ele>
        <time>2019-05-21T11:57:23Z</time>
      </trkpt>
      <trkpt lat="53.78817" lon="9.34666">
        <ele>32.799999237061</ele>
        <time>2019-05-21T11:58:01Z</time>
      </trkpt>
      <trkpt lat="53.78796" lon="9.34698">
        <ele>32.799999237061</ele>
        <time>2019-05-21T11:58:08Z</time>
      </trkpt>
      <trkpt lat="53.78962" lon="9.35963">
        <ele>32.799999237061</ele>
        <time>2019-05-21T11:58:26Z</time>
      </trkpt>
      <trkpt lat="53.78954" lon="9.362">
        <ele>32.799999237061</ele>
        <time>2019-05-21T11:58:50Z</time>
      </trkpt>
      <trkpt lat="53.78839" lon="9.36935">
        <ele>32.799999237061</ele>
        <time>2019-05-21T11:59:14Z</time>
      </trkpt>
      <trkpt lat="53.78852" lon="9.38427">
        <ele>32.799999237061</ele>
        <time>2019-05-21T11:59:35Z</time>
      </trkpt>
      <trkpt lat="53.78936" lon="9.38539">
        <ele>32.799999237061</ele>
        <time>2019-05-21T12:00:03Z</time>
      </trkpt>
      <trkpt lat="53.79044" lon="9.38581">
        <ele>32.799999237061</ele>
        <time>2019-05-21T12:00:21Z</time>
      </trkpt>
      <trkpt lat="53.79312" lon="9.3861">
        <ele>32.799999237061</ele>
        <time>2019-05-21T12:00:46Z</time>
      </trkpt>
      <trkpt lat="53.79974" lon="9.38609">
        <ele>32.799999237061</ele>
        <time>2019-05-21T12:01:10Z</time>
      </trkpt>
      <trkpt lat="53.80061" lon="9.38637">
        <ele>32.799999237061</ele>
        <time>2019-05-21T12:01:35Z</time>
      </trkpt>
      <trkpt lat="53.80141" lon="9.38744">
        <ele>32.799999237061</ele>
        <time>2019-05-21T12:01:59Z</time>
      </trkpt>
      <trkpt lat="53.80136" lon="9.38869">
        <ele>32.799999237061</ele>
        <time>2019-05-21T12:02:25Z</time>
      </trkpt>
      <trkpt lat="53.80042" lon="9.39028">
        <ele>32.799999237061</ele>
        <time>2019-05-21T12:02:42Z</time>
      </trkpt>
      <trkpt lat="53.79287" lon="9.39968">
        <ele>32.799999237061</ele>
        <time>2019-05-21T12:02:56Z</time>
      </trkpt>
      <trkpt lat="53.79259" lon="9.40125">
        <ele>32.799999237061</ele>
        <time>2019-05-21T12:03:08Z</time>
      </trkpt>
      <trkpt lat="53.79314" lon="9.40259">
        <ele>32.799999237061</ele>
        <time>2019-05-21T12:03:24Z</time>
      </trkpt>
      <trkpt lat="53.79394" lon="9.40324">
        <ele>32.799999237061</ele>
        <time>2019-05-21T12:03:40Z</time>
      </trkpt>
      <trkpt lat="53.79443" lon="9.40339">
        <ele>32.799999237061</ele>
        <time>2019-05-21T12:03:59Z</time>
      </trkpt>
      <trkpt lat="53.7948" lon="9.4031">
        <ele>32.799999237061</ele>
        <time>2019-05-21T12:04:13Z</time>
      </trkpt>
      <trkpt lat="53.79608" lon="9.40343">
        <ele>32.799999237061</ele>
        <time>2019-05-21T12:04:38Z</time>
      </trkpt>
      <trkpt lat="53.79671" lon="9.40364">
        <ele>32.799999237061</ele>
        <time>2019-05-21T12:05:01Z</time>
      </trkpt>
      <trkpt lat="53.79722" lon="9.40422">
        <ele>32.799999237061</ele>
        <time>2019-05-21T12:05:24Z</time>
      </trkpt>
      <trkpt lat="53.798" lon="9.4056">
        <ele>32.799999237061</ele>
        <time>2019-05-21T12:05:48Z</time>
      </trkpt>
      <trkpt lat="53.7991" lon="9.40924">
        <ele>32.799999237061</ele>
        <time>2019-05-21T12:06:03Z</time>
      </trkpt>
      <trkpt lat="53.79899" lon="9.40888">
        <ele>32.799999237061</ele>
        <time>2019-05-21T12:06:23Z</time>
      </trkpt>
      <trkpt lat="53.79866" lon="9.40902">
        <ele>32.799999237061</ele>
        <time>2019-05-21T12:06:35Z</time>
      </trkpt>
      <trkpt lat="53.78884" lon="9.41402">
        <ele>32.799999237061</ele>
        <time>2019-05-21T12:06:56Z</time>
      </trkpt>
      <trkpt lat="53.78697" lon="9.41461">
        <ele>32.799999237061</ele>
        <time>2019-05-21T12:07:17Z</time>
      </trkpt>
      <trkpt lat="53.7871" lon="9.41634">
        <ele>32.799999237061</ele>
        <time>2019-05-21T12:07:33Z</time>
      </trkpt>
      <trkpt lat="53.78647" lon="9.41663">
        <ele>32.799999237061</ele>
        <time>2019-05-21T12:07:47Z</time>
      </trkpt>
      <trkpt lat="53.78574" lon="9.41626">
        <ele>32.799999237061</ele>
        <time>2019-05-21T12:08:08Z</time>
      </trkpt>
      <trkpt lat="53.78595" lon="9.41913">
        <ele>32.799999237061</ele>
        <time>2019-05-21T12:08:29Z</time>
      </trkpt>
      <trkpt lat="53.78568" lon="9.42167">
        <ele>32.799999237061</ele>
        <time>2019-05-21T12:08:49Z</time>
      </trkpt>
      <trkpt lat="53.78628" lon="9.42514">
        <ele>32.799999237061</ele>
        <time>2019-05-21T12:09:09Z</time>
      </trkpt>
      <trkpt lat="53.78622" lon="9.42597">
        <ele>32.799999237061</ele>
        <time>2019-05-21T12:09:32Z</time>
      </trkpt>
      <trkpt lat="53.78804" lon="9.42367">
        <ele>32.799999237061</ele>
        <time>2019-05-21T12:09:54Z</time>
      </trkpt>
      <trkpt lat="53.78951" lon="9.42651">
        <ele>32.799999237061</ele>
        <time>2019-05-21T12:10:15Z</time>
      </trkpt>
      <trkpt lat="53.79162" lon="9.42952">
        <ele>32.799999237061</ele>
        <time>2019-05-21T12:10:36Z</time>
      </trkpt>
      <trkpt lat="53.79351" lon="9.43291">
        <ele>32.799999237061</ele>
        <time>2019-05-21T12:10:53Z</time>
      </trkpt>
      <trkpt lat="53.79396" lon="9.43345">
        <ele>32.799999237061</ele>
        <time>2019-05-21T12:11:15Z</time>
      </trkpt>
      <trkpt lat="53.79482" lon="9.43263">
        <ele>32.799999237061</ele>
        <time>2019-05-21T12:11:33Z</time>
      </trkpt>
      <trkpt lat="53.79539" lon="9.43307">
        <ele>32.799999237061</ele>
        <time>2019-05-21T12:11:52Z</time>
      </trkpt>
      <trkpt lat="53.80317" lon="9.44565">
        <ele>32.799999237061</ele>
        <time>2019-05-21T12:12:13Z</time>
      </trkpt>
      <trkpt lat="53.80936" lon="9.45897">
        <ele>32.799999237061</ele>
        <time>2019-05-21T12:12:37Z</time>
      </trkpt>
      <trkpt lat="53.80979" lon="9.45923">
        <ele>32.799999237061</ele>
        <time>2019-05-21T12:12:59Z</time>
      </trkpt>
      <trkpt lat="53.81045" lon="9.45924">
        <ele>32.799999237061</ele>
        <time>2019-05-21T12:13:22Z</time>
      </trkpt>
      <trkpt lat="53.81116" lon="9.45887">
        <ele>32.799999237061</ele>
        <time>2019-05-21T12:13:47Z</time>
      </trkpt>
      <trkpt lat="53.81998" lon="9.44915">
        <ele>32.799999237061</ele>
        <time>2019-05-21T12:14:08Z</time>
      </trkpt>
      <trkpt lat="53.82089" lon="9.44873">
        <ele>32.799999237061</ele>
        <time>2019-05-21T12:14:28Z</time>
      </trkpt>
      <trkpt lat="53.82174" lon="9.44906">
        <ele>32.799999237061</ele>
        <time>2019-05-21T12:14:43Z</time>
      </trkpt>
      <trkpt lat="53.82397" lon="9.45255">
        <ele>32.799999237061</ele>
        <time>2019-05-21T12:15:00Z</time>
      </trkpt>
      <trkpt lat="53.82454" lon="9.4539">
        <ele>32.799999237061</ele>
        <time>2019-05-21T12:15:23Z</time>
      </trkpt>
      <trkpt lat="53.82693" lon="9.46258">
        <ele>32.799999237061</ele>
        <time>2019-05-21T12:15:37Z</time>
      </trkpt>
      <trkpt lat="53.82874" lon="9.47054">
        <ele>32.799999237061</ele>
        <time>2019-05-21T12:16:02Z</time>
      </trkpt>
      <trkpt lat="53.83204" lon="9.47771">
        <ele>32.799999237061</ele>
        <time>2019-05-21T12:16:16Z</time>
      </trkpt>
      <trkpt lat="53.83217" lon="9.4773">
        <ele>32.799999237061</ele>
        <time>2019-05-21T12:16:36Z</time>
      </trkpt>
      <trkpt lat="53.83194" lon="9.47794">
        <ele>32.799999237061</ele>
        <time>2019-05-21T12:17:01Z</time>
      </trkpt>
      <trkpt lat="53.83276" lon="9.48055">
        <ele>32.799999237061</ele>
        <time>2019-05-21T12:17:23Z</time>
      </trkpt>
      <trkpt lat="53.8334" lon="9.48115">
        <ele>32.799999237061</ele>
        <time>2019-05-21T12:17:47Z</time>
      </trkpt>
      <trkpt lat="53.83431" lon="9.48127">
        <ele>32.799999237061</ele>
        <time>2019-05-21T12:18:03Z</time>
      </trkpt>
      <trkpt lat="53.83488" lon="9.48166">
        <ele>32.799999237061</ele>
        <time>2019-05-21T12:18:27Z</time>
      </trkpt>
      <trkpt lat="53.83527" lon="9.48252">
        <ele>32.799999237061</ele>
        <time>2019-05-21T12:18:55Z</time>
      </trkpt>
      <trkpt lat="53.83634" lon="9.48767">
        <ele>32.799999237061</ele>
        <time>2019-05-21T12:19:18Z</time>
      </trkpt>
      <trkpt lat="53.842" lon="9.48712">
        <ele>32.799999237061</ele>
        <time>2019-05-21T12:19:34Z</time>
      </trkpt>
      <trkpt lat="53.84321" lon="9.48676">
        <ele>32.799999237061</ele>
        <time>2019-05-21T12:19:51Z</time>
      </trkpt>
      <trkpt lat="53.84343" lon="9.4878">
        <ele>32.799999237061</ele>
        <time>2019-05-21T12:21:49Z</time>
      </trkpt>
      <trkpt lat="53.84339" lon="9.48581">
        <ele>32.799999237061</ele>
        <time>2019-05-21T12:22:10Z</time>
      </trkpt>
      <trkpt lat="53.84249" lon="9.4838">
        <ele>32.799999237061</ele>
        <time>2019-05-21T12:22:32Z</time>
      </trkpt>
      <trkpt lat="53.84209" lon="9.48399">
        <ele>32.799999237061</ele>
        <time>2019-05-21T12:22:57Z</time>
      </trkpt>
      <trkpt lat="53.84211" lon="9.48451">
        <ele>32.799999237061</ele>
        <time>2019-05-21T12:23:19Z</time>
      </trkpt>
      <trkpt lat="53.84236" lon="9.48467">
        <ele>32.799999237061</ele>
        <time>2019-05-21T12:23:44Z</time>
      </trkpt>
      <trkpt lat="53.84687" lon="9.48618">
        <ele>32.799999237061</ele>
        <time>2019-05-21T12:23:57Z</time>
      </trkpt>
      <trkpt lat="53.84865" lon="9.48613">
        <ele>32.799999237061</ele>
        <time>2019-05-21T12:24:20Z</time>
      </trkpt>
      <trkpt lat="53.85941" lon="9.48454">
        <ele>32.799999237061</ele>
        <time>2019-05-21T12:24:37Z</time>
      </trkpt>
      <trkpt lat="53.85877" lon="9.48469">
        <ele>32.799999237061</ele>
        <time>2019-05-21T12:25:02Z</time>
      </trkpt>
      <trkpt lat="53.85868" lon="9.48546">
        <ele>32.799999237061</ele>
        <time>2019-05-21T12:25:16Z</time>
      </trkpt>
      <trkpt lat="53.86133" lon="9.52738">
        <ele>32.799999237061</ele>
        <time>2019-05-21T12:25:43Z</time>
      </trkpt>
      <trkpt lat="53.86159" lon="9.53226">
        <ele>32.799999237061</ele>
        <time>2019-05-21T12:26:06Z</time>
      </trkpt>
      <trkpt lat="53.86144" lon="9.53307">
        <ele>32.799999237061</ele>
        <time>2019-05-21T12:26:28Z</time>
      </trkpt>
      <trkpt lat="53.862" lon="9.53881">
        <ele>32.799999237061</ele>
        <time>2019-05-21T12:26:49Z</time>
      </trkpt>
      <trkpt lat="53.86359" lon="9.56345">
        <ele>32.799999237061</ele>
        <time>2019-05-21T12:27:09Z</time>
      </trkpt>
      <trkpt lat="53.864" lon="9.56583">
        <ele>32.799999237061</ele>
        <time>2019-05-21T12:27:24Z</time>
      </trkpt>
      <trkpt lat="53.86433" lon="9.57581">
        <ele>32.799999237061</ele>
        <time>2019-05-21T12:27:42Z</time>
      </trkpt>
      <trkpt lat="53.86555" lon="9.58541">
        <ele>32.799999237061</ele>
        <time>2019-05-21T12:28:04Z</time>
      </trkpt>
      <trkpt lat="53.86658" lon="9.59153">
        <ele>32.799999237061</ele>
        <time>2019-05-21T12:28:24Z</time>
      </trkpt>
      <trkpt lat="53.87286" lon="9.58921">
        <ele>32.799999237061</ele>
        <time>2019-05-21T12:28:46Z</time>
      </trkpt>
      <trkpt lat="53.87327" lon="9.58925">
        <ele>32.799999237061</ele>
        <time>2019-05-21T12:29:10Z</time>
      </trkpt>
      <trkpt lat="53.87773" lon="9.58768">
        <ele>32.799999237061</ele>
        <time>2019-05-21T12:29:29Z</time>
      </trkpt>
      <trkpt lat="53.87795" lon="9.58778">
        <ele>32.799999237061</ele>
        <time>2019-05-21T12:29:44Z</time>
      </trkpt>
      <trkpt lat="53.87894" lon="9.58685">
        <ele>32.799999237061</ele>
        <time>2019-05-21T12:30:04Z</time>
      </trkpt>
      <trkpt lat="53.88118" lon="9.58313">
        <ele>32.799999237061</ele>
        <time>2019-05-21T12:30:17Z</time>
      </trkpt>
      <trkpt lat="53.88272" lon="9.58182">
        <ele>32.799999237061</ele>
        <time>2019-05-21T12:30:43Z</time>
      </trkpt>
      <trkpt lat="53.88604" lon="9.57743">
        <ele>32.799999237061</ele>
        <time>2019-05-21T12:31:08Z</time>
      </trkpt>
      <trkpt lat="53.88664" lon="9.57698">
        <ele>32.799999237061</ele>
        <time>2019-05-21T12:31:31Z</time>
      </trkpt>
      <trkpt lat="53.88807" lon="9.57683">
        <ele>32.799999237061</ele>
        <time>2019-05-21T12:31:54Z</time>
      </trkpt>
      <trkpt lat="53.89149" lon="9.57515">
        <ele>32.799999237061</ele>
        <time>2019-05-21T12:32:10Z</time>
      </trkpt>
      <trkpt lat="53.89287" lon="9.5762">
        <ele>32.799999237061</ele>
        <time>2019-05-21T12:32:26Z</time>
      </trkpt>
      <trkpt lat="53.89516" lon="9.57625">
        <ele>32.799999237061</ele>
        <time>2019-05-21T12:32:48Z</time>
      </trkpt>
      <trkpt lat="53.89649" lon="9.57887">
        <ele>32.799999237061</ele>
        <time>2019-05-21T12:33:09Z</time>
      </trkpt>
      <trkpt lat="53.89683" lon="9.57922">
        <ele>32.799999237061</ele>
        <time>2019-05-21T12:33:22Z</time>
      </trkpt>
      <trkpt lat="53.89738" lon="9.57913">
        <ele>32.799999237061</ele>
        <time>2019-05-21T12:33:36Z</time>
      </trkpt>
      <trkpt lat="53.9065" lon="9.57101">
        <ele>32.799999237061</ele>
        <time>2019-05-21T12:33:45Z</time>
      </trkpt>
      <trkpt lat="53.90686" lon="9.56934">
        <ele>32.799999237061</ele>
        <time>2019-05-21T12:34:12Z</time>
      </trkpt>
      <trkpt lat="53.90761" lon="9.56821">
        <ele>32.799999237061</ele>
        <time>2019-05-21T12:34:36Z</time>
      </trkpt>
      <trkpt lat="53.91057" lon="9.56623">
        <ele>32.799999237061</ele>
        <time>2019-05-21T12:34:57Z</time>
      </trkpt>
      <trkpt lat="53.91259" lon="9.56538">
        <ele>32.799999237061</ele>
        <time>2019-05-21T12:35:18Z</time>
      </trkpt>
      <trkpt lat="53.91442" lon="9.56368">
        <ele>32.799999237061</ele>
        <time>2019-05-21T12:35:30Z</time>
      </trkpt>
      <trkpt lat="53.91479" lon="9.5655">
        <ele>32.799999237061</ele>
        <time>2019-05-21T12:35:44Z</time>
      </trkpt>
      <trkpt lat="53.91495" lon="9.56597">
        <ele>32.799999237061</ele>
        <time>2019-05-21T12:35:58Z</time>
      </trkpt>
      <trkpt lat="53.91516" lon="9.56597">
        <ele>32.799999237061</ele>
        <time>2019-05-21T12:36:06Z</time>
      </trkpt>
      <trkpt lat="53.91558" lon="9.56573">
        <ele>32.799999237061</ele>
        <time>2019-05-21T12:36:27Z</time>
      </trkpt>
      <trkpt lat="53.91676" lon="9.56392">
        <ele>32.799999237061</ele>
        <time>2019-05-21T12:36:48Z</time>
      </trkpt>
      <trkpt lat="53.9182" lon="9.56339">
        <ele>32.799999237061</ele>
        <time>2019-05-21T12:37:11Z</time>
      </trkpt>
      <trkpt lat="53.91945" lon="9.56511">
        <ele>32.799999237061</ele>
        <time>2019-05-21T12:37:32Z</time>
      </trkpt>
      <trkpt lat="53.92077" lon="9.56862">
        <ele>32.799999237061</ele>
        <time>2019-05-21T12:37:50Z</time>
      </trkpt>
      <trkpt lat="53.92299" lon="9.57141">
        <ele>32.799999237061</ele>
        <time>2019-05-21T12:38:04Z</time>
      </trkpt>
      <trkpt lat="53.92382" lon="9.57177">
        <ele>32.799999237061</ele>
        <time>2019-05-21T12:38:26Z</time>
      </trkpt>
      <trkpt lat="53.92498" lon="9.57091">
        <ele>32.799999237061</ele>
        <time>2019-05-21T12:38:52Z</time>
      </trkpt>
      <trkpt lat="53.92563" lon="9.56999">
        <ele>32.799999237061</ele>
        <time>2019-05-21T12:39:00Z</time>
      </trkpt>
      <trkpt lat="53.92675" lon="9.5693">
        <ele>32.799999237061</ele>
        <time>2019-05-21T12:39:07Z</time>
      </trkpt>
      <trkpt lat="53.92755" lon="9.5693">
        <ele>32.799999237061</ele>
        <time>2019-05-21T12:39:21Z</time>
      </trkpt>
      <trkpt lat="53.92799" lon="9.56939">
        <ele>32.799999237061</ele>
        <time>2019-05-21T12:52:49Z</time>
      </trkpt>
      <trkpt lat="53.92844" lon="9.57072">
        <ele>32.799999237061</ele>
        <time>2019-05-21T12:54:24Z</time>
      </trkpt>
      <trkpt lat="53.93002" lon="9.57085">
        <ele>32.799999237061</ele>
        <time>2019-05-21T12:54:48Z</time>
      </trkpt>
      <trkpt lat="53.93157" lon="9.572">
        <ele>32.799999237061</ele>
        <time>2019-05-21T12:55:05Z</time>
      </trkpt>
      <trkpt lat="53.93247" lon="9.57204">
        <ele>32.799999237061</ele>
        <time>2019-05-21T12:55:29Z</time>
      </trkpt>
      <trkpt lat="53.93591" lon="9.58263">
        <ele>32.799999237061</ele>
        <time>2019-05-21T12:55:54Z</time>
      </trkpt>
      <trkpt lat="53.93706" lon="9.58492">
        <ele>32.799999237061</ele>
        <time>2019-05-21T12:56:23Z</time>
      </trkpt>
      <trkpt lat="53.94012" lon="9.59263">
        <ele>32.799999237061</ele>
        <time>2019-05-21T12:56:40Z</time>
      </trkpt>
      <trkpt lat="53.94268" lon="9.59736">
        <ele>32.799999237061</ele>
        <time>2019-05-21T12:57:01Z</time>
      </trkpt>
      <trkpt lat="53.9434" lon="9.5999">
        <ele>32.799999237061</ele>
        <time>2019-05-21T12:57:25Z</time>
      </trkpt>
      <trkpt lat="53.94368" lon="9.60521">
        <ele>32.799999237061</ele>
        <time>2019-05-21T12:57:43Z</time>
      </trkpt>
      <trkpt lat="53.94545" lon="9.60832">
        <ele>32.799999237061</ele>
        <time>2019-05-21T12:58:08Z</time>
      </trkpt>
      <trkpt lat="53.94651" lon="9.60916">
        <ele>32.799999237061</ele>
        <time>2019-05-21T12:58:35Z</time>
      </trkpt>
      <trkpt lat="53.94825" lon="9.61">
        <ele>32.799999237061</ele>
        <time>2019-05-21T12:59:00Z</time>
      </trkpt>
      <trkpt lat="53.94911" lon="9.6097">
        <ele>32.799999237061</ele>
        <time>2019-05-21T12:59:26Z</time>
      </trkpt>
      <trkpt lat="53.95032" lon="9.60864">
        <ele>32.799999237061</ele>
        <time>2019-05-21T12:59:45Z</time>
      </trkpt>
      <trkpt lat="53.95369" lon="9.60833">
        <ele>32.799999237061</ele>
        <time>2019-05-21T01:00:07Z</time>
      </trkpt>
      <trkpt lat="53.95539" lon="9.60687">
        <ele>32.799999237061</ele>
        <time>2019-05-21T01:00:28Z</time>
      </trkpt>
      <trkpt lat="53.95612" lon="9.60855">
        <ele>32.799999237061</ele>
        <time>2019-05-21T01:00:45Z</time>
      </trkpt>
      <trkpt lat="53.95667" lon="9.61072">
        <ele>32.799999237061</ele>
        <time>2019-05-21T01:01:05Z</time>
      </trkpt>
      <trkpt lat="53.95734" lon="9.61109">
        <ele>32.799999237061</ele>
        <time>2019-05-21T01:01:24Z</time>
      </trkpt>
      <trkpt lat="53.95926" lon="9.61514">
        <ele>32.799999237061</ele>
        <time>2019-05-21T01:01:45Z</time>
      </trkpt>
      <trkpt lat="53.962" lon="9.61914">
        <ele>32.799999237061</ele>
        <time>2019-05-21T01:02:04Z</time>
      </trkpt>
      <trkpt lat="53.96847" lon="9.62544">
        <ele>32.799999237061</ele>
        <time>2019-05-21T01:02:28Z</time>
      </trkpt>
      <trkpt lat="53.96914" lon="9.62598">
        <ele>32.799999237061</ele>
        <time>2019-05-21T01:02:50Z</time>
      </trkpt>
      <trkpt lat="53.96983" lon="9.62579">
        <ele>32.799999237061</ele>
        <time>2019-05-21T01:03:11Z</time>
      </trkpt>
      <trkpt lat="53.97129" lon="9.62597">
        <ele>32.799999237061</ele>
        <time>2019-05-21T01:03:24Z</time>
      </trkpt>
      <trkpt lat="53.97392" lon="9.62738">
        <ele>32.799999237061</ele>
        <time>2019-05-21T01:03:44Z</time>
      </trkpt>
      <trkpt lat="53.97424" lon="9.62707">
        <ele>32.799999237061</ele>
        <time>2019-05-21T01:04:06Z</time>
      </trkpt>
      <trkpt lat="53.9791" lon="9.62902">
        <ele>32.799999237061</ele>
        <time>2019-05-21T01:04:25Z</time>
      </trkpt>
      <trkpt lat="53.98869" lon="9.63541">
        <ele>32.799999237061</ele>
        <time>2019-05-21T01:04:45Z</time>
      </trkpt>
      <trkpt lat="53.99619" lon="9.63794">
        <ele>32.799999237061</ele>
        <time>2019-05-21T01:05:00Z</time>
      </trkpt>
      <trkpt lat="53.99759" lon="9.63834">
        <ele>32.799999237061</ele>
        <time>2019-05-21T01:05:22Z</time>
      </trkpt>
      <trkpt lat="53.99856" lon="9.63834">
        <ele>32.799999237061</ele>
        <time>2019-05-21T01:05:41Z</time>
      </trkpt>
      <trkpt lat="54.00666" lon="9.63649">
        <ele>32.799999237061</ele>
        <time>2019-05-21T01:06:01Z</time>
      </trkpt>
      <trkpt lat="54.02409" lon="9.6366">
        <ele>32.799999237061</ele>
        <time>2019-05-21T01:06:23Z</time>
      </trkpt>
      <trkpt lat="54.02652" lon="9.63613">
        <ele>32.799999237061</ele>
        <time>2019-05-21T01:06:44Z</time>
      </trkpt>
      <trkpt lat="54.02777" lon="9.63572">
        <ele>32.799999237061</ele>
        <time>2019-05-21T01:07:00Z</time>
      </trkpt>
      <trkpt lat="54.02838" lon="9.63522">
        <ele>32.799999237061</ele>
        <time>2019-05-21T01:07:24Z</time>
      </trkpt>
      <trkpt lat="54.02972" lon="9.63496">
        <ele>32.799999237061</ele>
        <time>2019-05-21T01:07:47Z</time>
      </trkpt>
      <trkpt lat="54.03655" lon="9.63719">
        <ele>32.799999237061</ele>
        <time>2019-05-21T01:08:06Z</time>
      </trkpt>
      <trkpt lat="54.03832" lon="9.63723">
        <ele>32.799999237061</ele>
        <time>2019-05-21T01:08:26Z</time>
      </trkpt>
      <trkpt lat="54.04003" lon="9.63765">
        <ele>32.799999237061</ele>
        <time>2019-05-21T01:08:41Z</time>
      </trkpt>
      <trkpt lat="54.05143" lon="9.63894">
        <ele>32.799999237061</ele>
        <time>2019-05-21T01:09:03Z</time>
      </trkpt>
      <trkpt lat="54.05332" lon="9.63864">
        <ele>32.799999237061</ele>
        <time>2019-05-21T01:09:23Z</time>
      </trkpt>
      <trkpt lat="54.05459" lon="9.63813">
        <ele>32.799999237061</ele>
        <time>2019-05-21T01:09:43Z</time>
      </trkpt>
      <trkpt lat="54.05813" lon="9.63775">
        <ele>32.799999237061</ele>
        <time>2019-05-21T01:10:02Z</time>
      </trkpt>
      <trkpt lat="54.05909" lon="9.637">
        <ele>32.799999237061</ele>
        <time>2019-05-21T01:10:22Z</time>
      </trkpt>
      <trkpt lat="54.05965" lon="9.63617">
        <ele>32.799999237061</ele>
        <time>2019-05-21T01:10:39Z</time>
      </trkpt>
      <trkpt lat="54.0599" lon="9.635">
        <ele>32.799999237061</ele>
        <time>2019-05-21T01:11:03Z</time>
      </trkpt>
      <trkpt lat="54.06384" lon="9.63674">
        <ele>32.799999237061</ele>
        <time>2019-05-21T01:11:24Z</time>
      </trkpt>
      <trkpt lat="54.06463" lon="9.6375">
        <ele>32.799999237061</ele>
        <time>2019-05-21T01:11:47Z</time>
      </trkpt>
      <trkpt lat="54.06999" lon="9.64419">
        <ele>32.799999237061</ele>
        <time>2019-05-21T01:12:08Z</time>
      </trkpt>
      <trkpt lat="54.07255" lon="9.64924">
        <ele>32.799999237061</ele>
        <time>2019-05-21T01:12:27Z</time>
      </trkpt>
      <trkpt lat="54.07352" lon="9.65058">
        <ele>32.799999237061</ele>
        <time>2019-05-21T01:12:47Z</time>
      </trkpt>
      <trkpt lat="54.07449" lon="9.65105">
        <ele>32.799999237061</ele>
        <time>2019-05-21T01:13:00Z</time>
      </trkpt>
      <trkpt lat="54.07749" lon="9.65134">
        <ele>32.799999237061</ele>
        <time>2019-05-21T01:13:22Z</time>
      </trkpt>
      <trkpt lat="54.08191" lon="9.65065">
        <ele>32.799999237061</ele>
        <time>2019-05-21T01:13:44Z</time>
      </trkpt>
      <trkpt lat="54.08411" lon="9.65001">
        <ele>32.799999237061</ele>
        <time>2019-05-21T01:14:10Z</time>
      </trkpt>
      <trkpt lat="54.0844" lon="9.65003">
        <ele>32.799999237061</ele>
        <time>2019-05-21T01:14:17Z</time>
      </trkpt>
      <trkpt lat="54.08456" lon="9.65062">
        <ele>32.799999237061</ele>
        <time>2019-05-21T01:14:33Z</time>
      </trkpt>
      <trkpt lat="54.08506" lon="9.65052">
        <ele>32.799999237061</ele>
        <time>2019-05-21T01:14:50Z</time>
      </trkpt>
      <trkpt lat="54.08452" lon="9.65005">
        <ele>32.799999237061</ele>
        <time>2019-05-21T01:15:07Z</time>
      </trkpt>
      <trkpt lat="54.08723" lon="9.64927">
        <ele>32.799999237061</ele>
        <time>2019-05-21T01:15:25Z</time>
      </trkpt>
      <trkpt lat="54.0943" lon="9.6488">
        <ele>32.799999237061</ele>
        <time>2019-05-21T01:15:50Z</time>
      </trkpt>
      <trkpt lat="54.09559" lon="9.64902">
        <ele>32.799999237061</ele>
        <time>2019-05-21T01:16:03Z</time>
      </trkpt>
      <trkpt lat="54.09737" lon="9.65017">
        <ele>32.799999237061</ele>
        <time>2019-05-21T01:16:23Z</time>
      </trkpt>
      <trkpt lat="54.10131" lon="9.65055">
        <ele>32.799999237061</ele>
        <time>2019-05-21T01:16:40Z</time>
      </trkpt>
      <trkpt lat="54.10377" lon="9.65207">
        <ele>32.799999237061</ele>
        <time>2019-05-21T01:17:08Z</time>
      </trkpt>
      <trkpt lat="54.10317" lon="9.65163">
        <ele>32.799999237061</ele>
        <time>2019-05-21T01:17:35Z</time>
      </trkpt>
      <trkpt lat="54.10292" lon="9.65354">
        <ele>32.799999237061</ele>
        <time>2019-05-21T01:17:45Z</time>
      </trkpt>
      <trkpt lat="54.10287" lon="9.65442">
        <ele>32.799999237061</ele>
        <time>2019-05-21T01:18:26Z</time>
      </trkpt>
      <trkpt lat="54.10383" lon="9.65454">
        <ele>32.799999237061</ele>
        <time>2019-05-21T01:18:46Z</time>
      </trkpt>
      <trkpt lat="54.10411" lon="9.65536">
        <ele>32.799999237061</ele>
        <time>2019-05-21T01:19:06Z</time>
      </trkpt>
      <trkpt lat="54.10391" lon="9.65774">
        <ele>32.799999237061</ele>
        <time>2019-05-21T01:19:23Z</time>
      </trkpt>
      <trkpt lat="54.10339" lon="9.65935">
        <ele>32.799999237061</ele>
        <time>2019-05-21T01:19:47Z</time>
      </trkpt>
      <trkpt lat="54.10389" lon="9.65761">
        <ele>32.799999237061</ele>
        <time>2019-05-21T01:20:10Z</time>
      </trkpt>
      <trkpt lat="54.10409" lon="9.6552">
        <ele>32.799999237061</ele>
        <time>2019-05-21T01:20:27Z</time>
      </trkpt>
      <trkpt lat="54.10387" lon="9.65453">
        <ele>32.799999237061</ele>
        <time>2019-05-21T01:20:46Z</time>
      </trkpt>
      <trkpt lat="54.10283" lon="9.65455">
        <ele>32.799999237061</ele>
        <time>2019-05-21T01:21:08Z</time>
      </trkpt>
      <trkpt lat="54.10315" lon="9.65177">
        <ele>32.799999237061</ele>
        <time>2019-05-21T01:21:14Z</time>
      </trkpt>
      <trkpt lat="54.10949" lon="9.65445">
        <ele>32.799999237061</ele>
        <time>2019-05-21T01:21:26Z</time>
      </trkpt>
      <trkpt lat="54.11036" lon="9.65468">
        <ele>32.799999237061</ele>
        <time>2019-05-21T01:21:46Z</time>
      </trkpt>
      <trkpt lat="54.11135" lon="9.65453">
        <ele>32.799999237061</ele>
        <time>2019-05-21T01:21:58Z</time>
      </trkpt>
      <trkpt lat="54.11045" lon="9.65814">
        <ele>32.799999237061</ele>
        <time>2019-05-21T01:22:17Z</time>
      </trkpt>
      <trkpt lat="54.1107" lon="9.65864">
        <ele>32.799999237061</ele>
        <time>2019-05-21T01:22:36Z</time>
      </trkpt>
      <trkpt lat="54.11055" lon="9.65818">
        <ele>32.799999237061</ele>
        <time>2019-05-21T01:22:57Z</time>
      </trkpt>
      <trkpt lat="54.11123" lon="9.65466">
        <ele>32.799999237061</ele>
        <time>2019-05-21T01:23:20Z</time>
      </trkpt>
      <trkpt lat="54.11152" lon="9.65449">
        <ele>32.799999237061</ele>
        <time>2019-05-21T01:23:40Z</time>
      </trkpt>
      <trkpt lat="54.11453" lon="9.65339">
        <ele>32.799999237061</ele>
        <time>2019-05-21T01:24:01Z</time>
      </trkpt>
      <trkpt lat="54.11713" lon="9.65165">
        <ele>32.799999237061</ele>
        <time>2019-05-21T01:24:16Z</time>
      </trkpt>
      <trkpt lat="54.11788" lon="9.65146">
        <ele>32.799999237061</ele>
        <time>2019-05-21T01:24:34Z</time>
      </trkpt>
      <trkpt lat="54.12069" lon="9.65186">
        <ele>32.799999237061</ele>
        <time>2019-05-21T01:24:53Z</time>
      </trkpt>
      <trkpt lat="54.12399" lon="9.65088">
        <ele>32.799999237061</ele>
        <time>2019-05-21T01:25:12Z</time>
      </trkpt>
      <trkpt lat="54.1318" lon="9.64791">
        <ele>32.799999237061</ele>
        <time>2019-05-21T01:25:33Z</time>
      </trkpt>
      <trkpt lat="54.13185" lon="9.65106">
        <ele>32.799999237061</ele>
        <time>2019-05-21T01:25:57Z</time>
      </trkpt>
      <trkpt lat="54.1318" lon="9.6485">
        <ele>32.799999237061</ele>
        <time>2019-05-21T01:26:20Z</time>
      </trkpt>
      <trkpt lat="54.13188" lon="9.6511">
        <ele>32.799999237061</ele>
        <time>2019-05-21T01:26:43Z</time>
      </trkpt>
      <trkpt lat="54.13454" lon="9.65354">
        <ele>32.799999237061</ele>
        <time>2019-05-21T01:27:07Z</time>
      </trkpt>
      <trkpt lat="54.1346" lon="9.65449">
        <ele>32.799999237061</ele>
        <time>2019-05-21T01:27:29Z</time>
      </trkpt>
      <trkpt lat="54.13445" lon="9.65357">
        <ele>150</ele>
        <time>2019-05-21T01:27:44Z</time>
      </trkpt>
      <trkpt lat="54.13438" lon="9.65352">
        <ele>149.80000305176</ele>
        <time>2019-05-21T01:28:03Z</time>
      </trkpt>
      <trkpt lat="54.13402" lon="9.65323">
        <ele>149.80000305176</ele>
        <time>2019-05-21T01:28:22Z</time>
      </trkpt>
      <trkpt lat="54.13229" lon="9.65179">
        <ele>147.19999694824</ele>
        <time>2019-05-21T01:28:49Z</time>
      </trkpt>
      <trkpt lat="54.13185" lon="9.6513">
        <ele>146.19999694824</ele>
        <time>2019-05-21T01:29:02Z</time>
      </trkpt>
      <trkpt lat="54.13187" lon="9.65045">
        <ele>145.19999694824</ele>
        <time>2019-05-21T01:29:24Z</time>
      </trkpt>
      <trkpt lat="54.13187" lon="9.64961">
        <ele>143.80000305176</ele>
        <time>2019-05-21T01:29:48Z</time>
      </trkpt>
      <trkpt lat="54.13187" lon="9.64847">
        <ele>141</ele>
        <time>2019-05-21T01:30:11Z</time>
      </trkpt>
      <trkpt lat="54.13202" lon="9.64832">
        <ele>139.80000305176</ele>
        <time>2019-05-21T01:30:28Z</time>
      </trkpt>
      <trkpt lat="54.13282" lon="9.64787">
        <ele>139.39999389648</ele>
        <time>2019-05-21T01:30:51Z</time>
      </trkpt>
      <trkpt lat="54.13337" lon="9.64746">
        <ele>139.80000305176</ele>
        <time>2019-05-21T01:31:18Z</time>
      </trkpt>
      <trkpt lat="54.13411" lon="9.6471">
        <ele>139.80000305176</ele>
        <time>2019-05-21T01:31:43Z</time>
      </trkpt>
      <trkpt lat="54.1347" lon="9.64666">
        <ele>139.39999389648</ele>
        <time>2019-05-21T01:31:55Z</time>
      </trkpt>
      <trkpt lat="54.13556" lon="9.64616">
        <ele>138.60000610352</ele>
        <time>2019-05-21T01:32:06Z</time>
      </trkpt>
      <trkpt lat="54.1368" lon="9.6454">
        <ele>137</ele>
        <time>2019-05-21T01:32:27Z</time>
      </trkpt>
      <trkpt lat="54.13781" lon="9.6448">
        <ele>135.19999694824</ele>
        <time>2019-05-21T01:32:51Z</time>
      </trkpt>
      <trkpt lat="54.13847" lon="9.64437">
        <ele>134.60000610352</ele>
        <time>2019-05-21T01:33:08Z</time>
      </trkpt>
      <trkpt lat="54.13901" lon="9.64409">
        <ele>133.60000610352</ele>
        <time>2019-05-21T01:33:24Z</time>
      </trkpt>
      <trkpt lat="54.13953" lon="9.64377">
        <ele>133.39999389648</ele>
        <time>2019-05-21T01:33:42Z</time>
      </trkpt>
      <trkpt lat="54.14047" lon="9.64313">
        <ele>133.19999694824</ele>
        <time>2019-05-21T01:34:04Z</time>
      </trkpt>
      <trkpt lat="54.1412" lon="9.64211">
        <ele>133.80000305176</ele>
        <time>2019-05-21T01:34:23Z</time>
      </trkpt>
      <trkpt lat="54.14218" lon="9.63915">
        <ele>133.80000305176</ele>
        <time>2019-05-21T01:34:42Z</time>
      </trkpt>
      <trkpt lat="54.14255" lon="9.63798">
        <ele>133.39999389648</ele>
        <time>2019-05-21T01:35:01Z</time>
      </trkpt>
      <trkpt lat="54.14322" lon="9.63661">
        <ele>133.80000305176</ele>
        <time>2019-05-21T01:35:21Z</time>
      </trkpt>
      <trkpt lat="54.14374" lon="9.63584">
        <ele>134.39999389648</ele>
        <time>2019-05-21T01:35:40Z</time>
      </trkpt>
      <trkpt lat="54.14453" lon="9.6346">
        <ele>135</ele>
        <time>2019-05-21T01:35:58Z</time>
      </trkpt>
      <trkpt lat="54.14494" lon="9.63391">
        <ele>135.80000305176</ele>
        <time>2019-05-21T01:36:18Z</time>
      </trkpt>
      <trkpt lat="54.14567" lon="9.63268">
        <ele>136.60000610352</ele>
        <time>2019-05-21T01:36:40Z</time>
      </trkpt>
      <trkpt lat="54.14691" lon="9.63067">
        <ele>139.60000610352</ele>
        <time>2019-05-21T01:37:07Z</time>
      </trkpt>
      <trkpt lat="54.14788" lon="9.62937">
        <ele>142</ele>
        <time>2019-05-21T01:37:23Z</time>
      </trkpt>
      <trkpt lat="54.14842" lon="9.62872">
        <ele>143.60000610352</ele>
        <time>2019-05-21T01:37:42Z</time>
      </trkpt>
      <trkpt lat="54.14876" lon="9.62832">
        <ele>145.19999694824</ele>
        <time>2019-05-21T01:37:55Z</time>
      </trkpt>
      <trkpt lat="54.14958" lon="9.62734">
        <ele>147</ele>
        <time>2019-05-21T01:38:14Z</time>
      </trkpt>
      <trkpt lat="54.15014" lon="9.6268">
        <ele>148.60000610352</ele>
        <time>2019-05-21T01:38:24Z</time>
      </trkpt>
      <trkpt lat="54.15077" lon="9.62646">
        <ele>149.19999694824</ele>
        <time>2019-05-21T01:38:37Z</time>
      </trkpt>
      <trkpt lat="54.15176" lon="9.62655">
        <ele>148.60000610352</ele>
        <time>2019-05-21T01:38:48Z</time>
      </trkpt>
      <trkpt lat="54.1523" lon="9.62663">
        <ele>147.80000305176</ele>
        <time>2019-05-21T01:39:09Z</time>
      </trkpt>
      <trkpt lat="54.153" lon="9.62671">
        <ele>147.19999694824</ele>
        <time>2019-05-21T01:39:27Z</time>
      </trkpt>
      <trkpt lat="54.15364" lon="9.62668">
        <ele>147</ele>
        <time>2019-05-21T01:39:50Z</time>
      </trkpt>
      <trkpt lat="54.1554" lon="9.62695">
        <ele>151.60000610352</ele>
        <time>2019-05-21T01:40:10Z</time>
      </trkpt>
      <trkpt lat="54.15614" lon="9.62709">
        <ele>152</ele>
        <time>2019-05-21T01:40:19Z</time>
      </trkpt>
      <trkpt lat="54.15683" lon="9.62735">
        <ele>151.39999389648</ele>
        <time>2019-05-21T01:40:34Z</time>
      </trkpt>
      <trkpt lat="54.15742" lon="9.62764">
        <ele>150.39999389648</ele>
        <time>2019-05-21T01:40:52Z</time>
      </trkpt>
      <trkpt lat="54.1584" lon="9.62808">
        <ele>147.80000305176</ele>
        <time>2019-05-21T01:41:09Z</time>
      </trkpt>
      <trkpt lat="54.15897" lon="9.62813">
        <ele>146.80000305176</ele>
        <time>2019-05-21T01:41:27Z</time>
      </trkpt>
      <trkpt lat="54.161" lon="9.62864">
        <ele>144.19999694824</ele>
        <time>2019-05-21T01:41:43Z</time>
      </trkpt>
      <trkpt lat="54.16183" lon="9.62893">
        <ele>143.39999389648</ele>
        <time>2019-05-21T01:41:56Z</time>
      </trkpt>
      <trkpt lat="54.16322" lon="9.62962">
        <ele>142.80000305176</ele>
        <time>2019-05-21T01:42:14Z</time>
      </trkpt>
      <trkpt lat="54.16384" lon="9.62996">
        <ele>142.80000305176</ele>
        <time>2019-05-21T01:42:35Z</time>
      </trkpt>
      <trkpt lat="54.16465" lon="9.63034">
        <ele>143</ele>
        <time>2019-05-21T01:42:56Z</time>
      </trkpt>
      <trkpt lat="54.16494" lon="9.63049">
        <ele>143</ele>
        <time>2019-05-21T01:43:33Z</time>
      </trkpt>
      <trkpt lat="54.16576" lon="9.63094">
        <ele>142.19999694824</ele>
        <time>2019-05-21T01:43:43Z</time>
      </trkpt>
      <trkpt lat="54.1664" lon="9.63131">
        <ele>141.19999694824</ele>
        <time>2019-05-21T01:43:51Z</time>
      </trkpt>
      <trkpt lat="54.1674" lon="9.63181">
        <ele>139.19999694824</ele>
        <time>2019-05-21T01:44:37Z</time>
      </trkpt>
      <trkpt lat="54.16887" lon="9.63239">
        <ele>137.39999389648</ele>
        <time>2019-05-21T01:45:07Z</time>
      </trkpt>
      <trkpt lat="54.16975" lon="9.6327">
        <ele>137</ele>
        <time>2019-05-21T01:45:13Z</time>
      </trkpt>
      <trkpt lat="54.17064" lon="9.63283">
        <ele>136</ele>
        <time>2019-05-21T01:45:33Z</time>
      </trkpt>
      <trkpt lat="54.17094" lon="9.63272">
        <ele>135</ele>
        <time>2019-05-21T01:45:43Z</time>
      </trkpt>
      <trkpt lat="54.17239" lon="9.63279">
        <ele>133.39999389648</ele>
        <time>2019-05-21T01:45:57Z</time>
      </trkpt>
      <trkpt lat="54.17393" lon="9.63276">
        <ele>132</ele>
        <time>2019-05-21T01:46:15Z</time>
      </trkpt>
      <trkpt lat="54.17454" lon="9.63276">
        <ele>130.60000610352</ele>
        <time>2019-05-21T01:46:40Z</time>
      </trkpt>
      <trkpt lat="54.17572" lon="9.6327">
        <ele>129</ele>
        <time>2019-05-21T01:47:02Z</time>
      </trkpt>
      <trkpt lat="54.17644" lon="9.63284">
        <ele>128.19999694824</ele>
        <time>2019-05-21T01:47:08Z</time>
      </trkpt>
      <trkpt lat="54.17713" lon="9.63329">
        <ele>126.80000305176</ele>
        <time>2019-05-21T01:47:26Z</time>
      </trkpt>
      <trkpt lat="54.17751" lon="9.63367">
        <ele>127</ele>
        <time>2019-05-21T01:47:45Z</time>
      </trkpt>
      <trkpt lat="54.17807" lon="9.63389">
        <ele>126.80000305176</ele>
        <time>2019-05-21T01:48:05Z</time>
      </trkpt>
      <trkpt lat="54.17893" lon="9.63439">
        <ele>128</ele>
        <time>2019-05-21T01:48:25Z</time>
      </trkpt>
      <trkpt lat="54.17952" lon="9.63473">
        <ele>128.39999389648</ele>
        <time>2019-05-21T01:48:37Z</time>
      </trkpt>
      <trkpt lat="54.18032" lon="9.6352">
        <ele>128.19999694824</ele>
        <time>2019-05-21T01:48:52Z</time>
      </trkpt>
      <trkpt lat="54.18095" lon="9.63554">
        <ele>128.19999694824</ele>
        <time>2019-05-21T01:49:16Z</time>
      </trkpt>
      <trkpt lat="54.18172" lon="9.63608">
        <ele>129.19999694824</ele>
        <time>2019-05-21T01:49:36Z</time>
      </trkpt>
      <trkpt lat="54.18304" lon="9.63706">
        <ele>132</ele>
        <time>2019-05-21T01:49:58Z</time>
      </trkpt>
      <trkpt lat="54.18363" lon="9.63737">
        <ele>132.39999389648</ele>
        <time>2019-05-21T01:50:16Z</time>
      </trkpt>
      <trkpt lat="54.1841" lon="9.63769">
        <ele>132.19999694824</ele>
        <time>2019-05-21T01:50:37Z</time>
      </trkpt>
      <trkpt lat="54.18504" lon="9.63826">
        <ele>132.39999389648</ele>
        <time>2019-05-21T01:50:55Z</time>
      </trkpt>
      <trkpt lat="54.18617" lon="9.63894">
        <ele>131.60000610352</ele>
        <time>2019-05-21T01:51:03Z</time>
      </trkpt>
      <trkpt lat="54.18749" lon="9.63976">
        <ele>131</ele>
        <time>2019-05-21T01:51:22Z</time>
      </trkpt>
      <trkpt lat="54.18851" lon="9.64042">
        <ele>131</ele>
        <time>2019-05-21T01:51:30Z</time>
      </trkpt>
      <trkpt lat="54.1892" lon="9.64085">
        <ele>130.80000305176</ele>
        <time>2019-05-21T01:52:08Z</time>
      </trkpt>
      <trkpt lat="54.19033" lon="9.64158">
        <ele>130.80000305176</ele>
        <time>2019-05-21T01:52:24Z</time>
      </trkpt>
      <trkpt lat="54.19146" lon="9.64229">
        <ele>131.39999389648</ele>
        <time>2019-05-21T01:52:34Z</time>
      </trkpt>
      <trkpt lat="54.19248" lon="9.64291">
        <ele>131.19999694824</ele>
        <time>2019-05-21T01:52:55Z</time>
      </trkpt>
      <trkpt lat="54.19334" lon="9.64345">
        <ele>131.19999694824</ele>
        <time>2019-05-21T01:53:10Z</time>
      </trkpt>
      <trkpt lat="54.19434" lon="9.64403">
        <ele>131.80000305176</ele>
        <time>2019-05-21T01:53:19Z</time>
      </trkpt>
      <trkpt lat="54.19614" lon="9.64518">
        <ele>131.80000305176</ele>
        <time>2019-05-21T01:53:43Z</time>
      </trkpt>
      <trkpt lat="54.19693" lon="9.64569">
        <ele>132</ele>
        <time>2019-05-21T01:53:53Z</time>
      </trkpt>
      <trkpt lat="54.19805" lon="9.64649">
        <ele>132.19999694824</ele>
        <time>2019-05-21T01:54:46Z</time>
      </trkpt>
      <trkpt lat="54.20048" lon="9.64828">
        <ele>129.19999694824</ele>
        <time>2019-05-21T01:55:09Z</time>
      </trkpt>
      <trkpt lat="54.20126" lon="9.64887">
        <ele>129</ele>
        <time>2019-05-21T01:55:24Z</time>
      </trkpt>
      <trkpt lat="54.20236" lon="9.64972">
        <ele>129</ele>
        <time>2019-05-21T01:55:38Z</time>
      </trkpt>
      <trkpt lat="54.20283" lon="9.65005">
        <ele>128</ele>
        <time>2019-05-21T01:56:04Z</time>
      </trkpt>
      <trkpt lat="54.20454" lon="9.65138">
        <ele>127.59999847412</ele>
        <time>2019-05-21T01:56:30Z</time>
      </trkpt>
      <trkpt lat="54.20565" lon="9.6522">
        <ele>127.19999694824</ele>
        <time>2019-05-21T01:56:51Z</time>
      </trkpt>
      <trkpt lat="54.2063" lon="9.65268">
        <ele>126.59999847412</ele>
        <time>2019-05-21T01:57:07Z</time>
      </trkpt>
      <trkpt lat="54.20732" lon="9.65345">
        <ele>126.40000152588</ele>
        <time>2019-05-21T01:57:26Z</time>
      </trkpt>
      <trkpt lat="54.2076" lon="9.65366">
        <ele>126.59999847412</ele>
        <time>2019-05-21T01:57:43Z</time>
      </trkpt>
      <trkpt lat="54.20871" lon="9.65451">
        <ele>126.19999694824</ele>
        <time>2019-05-21T01:58:06Z</time>
      </trkpt>
      <trkpt lat="54.21007" lon="9.65552">
        <ele>126.19999694824</ele>
        <time>2019-05-21T01:58:20Z</time>
      </trkpt>
      <trkpt lat="54.21127" lon="9.65642">
        <ele>126</ele>
        <time>2019-05-21T01:58:33Z</time>
      </trkpt>
      <trkpt lat="54.21175" lon="9.65681">
        <ele>126</ele>
        <time>2019-05-21T01:58:50Z</time>
      </trkpt>
      <trkpt lat="54.21181" lon="9.65701">
        <ele>125.59999847412</ele>
        <time>2019-05-21T01:59:13Z</time>
      </trkpt>
      <trkpt lat="54.21176" lon="9.65739">
        <ele>125.40000152588</ele>
        <time>2019-05-21T01:59:29Z</time>
      </trkpt>
      <trkpt lat="54.21191" lon="9.65716">
        <ele>125.40000152588</ele>
        <time>2019-05-21T01:59:42Z</time>
      </trkpt>
      <trkpt lat="54.21221" lon="9.65712">
        <ele>125.59999847412</ele>
        <time>2019-05-21T02:00:05Z</time>
      </trkpt>
      <trkpt lat="54.21303" lon="9.65769">
        <ele>125.59999847412</ele>
        <time>2019-05-21T02:00:19Z</time>
      </trkpt>
      <trkpt lat="54.21481" lon="9.65879">
        <ele>125.19999694824</ele>
        <time>2019-05-21T02:00:49Z</time>
      </trkpt>
      <trkpt lat="54.21562" lon="9.65921">
        <ele>125.40000152588</ele>
        <time>2019-05-21T02:01:40Z</time>
      </trkpt>
      <trkpt lat="54.21672" lon="9.65984">
        <ele>125.40000152588</ele>
        <time>2019-05-21T02:01:52Z</time>
      </trkpt>
      <trkpt lat="54.21762" lon="9.66035">
        <ele>125.19999694824</ele>
        <time>2019-05-21T02:02:06Z</time>
      </trkpt>
      <trkpt lat="54.21884" lon="9.66104">
        <ele>125</ele>
        <time>2019-05-21T02:02:22Z</time>
      </trkpt>
      <trkpt lat="54.2196" lon="9.66147">
        <ele>125.19999694824</ele>
        <time>2019-05-21T02:02:39Z</time>
      </trkpt>
      <trkpt lat="54.22071" lon="9.66216">
        <ele>125</ele>
        <time>2019-05-21T02:02:53Z</time>
      </trkpt>
      <trkpt lat="54.22151" lon="9.66282">
        <ele>124.80000305176</ele>
        <time>2019-05-21T02:03:16Z</time>
      </trkpt>
      <trkpt lat="54.22216" lon="9.66358">
        <ele>124.80000305176</ele>
        <time>2019-05-21T02:04:34Z</time>
      </trkpt>
      <trkpt lat="54.2231" lon="9.66485">
        <ele>125.19999694824</ele>
        <time>2019-05-21T02:04:48Z</time>
      </trkpt>
      <trkpt lat="54.2239" lon="9.66626">
        <ele>124.40000152588</ele>
        <time>2019-05-21T02:05:10Z</time>
      </trkpt>
      <trkpt lat="54.22464" lon="9.66771">
        <ele>124</ele>
        <time>2019-05-21T02:05:28Z</time>
      </trkpt>
      <trkpt lat="54.22531" lon="9.66904">
        <ele>125.19999694824</ele>
        <time>2019-05-21T02:05:46Z</time>
      </trkpt>
      <trkpt lat="54.22583" lon="9.67019">
        <ele>125.19999694824</ele>
        <time>2019-05-21T02:06:04Z</time>
      </trkpt>
      <trkpt lat="54.22626" lon="9.67112">
        <ele>125</ele>
        <time>2019-05-21T02:06:23Z</time>
      </trkpt>
      <trkpt lat="54.2269" lon="9.67228">
        <ele>125</ele>
        <time>2019-05-21T02:06:42Z</time>
      </trkpt>
      <trkpt lat="54.22765" lon="9.67343">
        <ele>125.19999694824</ele>
        <time>2019-05-21T02:06:59Z</time>
      </trkpt>
      <trkpt lat="54.22809" lon="9.67375">
        <ele>125.19999694824</ele>
        <time>2019-05-21T02:07:16Z</time>
      </trkpt>
      <trkpt lat="54.22822" lon="9.67343">
        <ele>125</ele>
        <time>2019-05-21T02:07:36Z</time>
      </trkpt>
      <trkpt lat="54.22866" lon="9.6721">
        <ele>124.80000305176</ele>
        <time>2019-05-21T02:08:00Z</time>
      </trkpt>
      <trkpt lat="54.22929" lon="9.67105">
        <ele>124.19999694824</ele>
        <time>2019-05-21T02:08:14Z</time>
      </trkpt>
      <trkpt lat="54.22977" lon="9.67049">
        <ele>124</ele>
        <time>2019-05-21T02:08:29Z</time>
      </trkpt>
      <trkpt lat="54.23063" lon="9.66994">
        <ele>124</ele>
        <time>2019-05-21T02:08:45Z</time>
      </trkpt>
      <trkpt lat="54.23152" lon="9.66946">
        <ele>124.19999694824</ele>
        <time>2019-05-21T02:09:06Z</time>
      </trkpt>
      <trkpt lat="54.23234" lon="9.66922">
        <ele>124.59999847412</ele>
        <time>2019-05-21T02:10:40Z</time>
      </trkpt>
      <trkpt lat="54.2333" lon="9.66902">
        <ele>124.40000152588</ele>
        <time>2019-05-21T02:10:52Z</time>
      </trkpt>
      <trkpt lat="54.23437" lon="9.66876">
        <ele>124.80000305176</ele>
        <time>2019-05-21T02:11:10Z</time>
      </trkpt>
      <trkpt lat="54.23523" lon="9.66865">
        <ele>125.19999694824</ele>
        <time>2019-05-21T02:11:26Z</time>
      </trkpt>
      <trkpt lat="54.23726" lon="9.66838">
        <ele>126.59999847412</ele>
        <time>2019-05-21T02:11:33Z</time>
      </trkpt>
      <trkpt lat="54.23822" lon="9.66786">
        <ele>127.59999847412</ele>
        <time>2019-05-21T02:11:51Z</time>
      </trkpt>
      <trkpt lat="54.23888" lon="9.66751">
        <ele>127.40000152588</ele>
        <time>2019-05-21T02:12:09Z</time>
      </trkpt>
      <trkpt lat="54.24033" lon="9.66665">
        <ele>126.59999847412</ele>
        <time>2019-05-21T02:12:16Z</time>
      </trkpt>
      <trkpt lat="54.24131" lon="9.66609">
        <ele>126.40000152588</ele>
        <time>2019-05-21T02:12:25Z</time>
      </trkpt>
      <trkpt lat="54.24203" lon="9.66602">
        <ele>126.80000305176</ele>
        <time>2019-05-21T02:12:37Z</time>
      </trkpt>
      <trkpt lat="54.24302" lon="9.66604">
        <ele>126.59999847412</ele>
        <time>2019-05-21T02:12:45Z</time>
      </trkpt>
      <trkpt lat="54.2437" lon="9.66601">
        <ele>126.59999847412</ele>
        <time>2019-05-21T02:12:51Z</time>
      </trkpt>
      <trkpt lat="54.24421" lon="9.666">
        <ele>126.19999694824</ele>
        <time>2019-05-21T02:34:03Z</time>
      </trkpt>
      <trkpt lat="54.24492" lon="9.66611">
        <ele>126.59999847412</ele>
        <time>2019-05-21T02:34:12Z</time>
      </trkpt>
      <trkpt lat="54.24583" lon="9.66608">
        <ele>126</ele>
        <time>2019-05-21T02:34:24Z</time>
      </trkpt>
      <trkpt lat="54.2471" lon="9.66615">
        <ele>126</ele>
        <time>2019-05-21T02:34:43Z</time>
      </trkpt>
      <trkpt lat="54.24852" lon="9.6662">
        <ele>125.59999847412</ele>
        <time>2019-05-21T02:35:02Z</time>
      </trkpt>
      <trkpt lat="54.24966" lon="9.66621">
        <ele>126.59999847412</ele>
        <time>2019-05-21T02:35:25Z</time>
      </trkpt>
      <trkpt lat="54.25051" lon="9.66612">
        <ele>126.59999847412</ele>
        <time>2019-05-21T02:35:45Z</time>
      </trkpt>
      <trkpt lat="54.25114" lon="9.66617">
        <ele>127.59999847412</ele>
        <time>2019-05-21T02:36:09Z</time>
      </trkpt>
      <trkpt lat="54.25163" lon="9.66643">
        <ele>129</ele>
        <time>2019-05-21T02:36:17Z</time>
      </trkpt>
      <trkpt lat="54.25235" lon="9.66727">
        <ele>132.80000305176</ele>
        <time>2019-05-21T02:36:34Z</time>
      </trkpt>
      <trkpt lat="54.2527" lon="9.66772">
        <ele>133</ele>
        <time>2019-05-21T02:36:50Z</time>
      </trkpt>
      <trkpt lat="54.25328" lon="9.6682">
        <ele>131.80000305176</ele>
        <time>2019-05-21T02:37:03Z</time>
      </trkpt>
      <trkpt lat="54.25447" lon="9.66839">
        <ele>127.80000305176</ele>
        <time>2019-05-21T02:37:24Z</time>
      </trkpt>
      <trkpt lat="54.25602" lon="9.66839">
        <ele>126.40000152588</ele>
        <time>2019-05-21T02:37:45Z</time>
      </trkpt>
      <trkpt lat="54.25715" lon="9.66828">
        <ele>127</ele>
        <time>2019-05-21T02:38:05Z</time>
      </trkpt>
      <trkpt lat="54.25864" lon="9.66792">
        <ele>129.39999389648</ele>
        <time>2019-05-21T02:38:26Z</time>
      </trkpt>
      <trkpt lat="54.2591" lon="9.66763">
        <ele>129.39999389648</ele>
        <time>2019-05-21T02:38:41Z</time>
      </trkpt>
      <trkpt lat="54.25971" lon="9.66736">
        <ele>128.80000305176</ele>
        <time>2019-05-21T02:38:50Z</time>
      </trkpt>
      <trkpt lat="54.26069" lon="9.66707">
        <ele>127.40000152588</ele>
        <time>2019-05-21T02:39:08Z</time>
      </trkpt>
      <trkpt lat="54.2616" lon="9.66681">
        <ele>127</ele>
        <time>2019-05-21T02:39:27Z</time>
      </trkpt>
      <trkpt lat="54.26351" lon="9.66682">
        <ele>126.59999847412</ele>
        <time>2019-05-21T02:39:49Z</time>
      </trkpt>
      <trkpt lat="54.26534" lon="9.66699">
        <ele>127</ele>
        <time>2019-05-21T02:40:11Z</time>
      </trkpt>
      <trkpt lat="54.26616" lon="9.66701">
        <ele>126.80000305176</ele>
        <time>2019-05-21T02:40:25Z</time>
      </trkpt>
      <trkpt lat="54.26812" lon="9.66731">
        <ele>126.80000305176</ele>
        <time>2019-05-21T02:40:43Z</time>
      </trkpt>
      <trkpt lat="54.26905" lon="9.66734">
        <ele>127</ele>
        <time>2019-05-21T02:40:58Z</time>
      </trkpt>
      <trkpt lat="54.27021" lon="9.6673">
        <ele>127.59999847412</ele>
        <time>2019-05-21T02:41:15Z</time>
      </trkpt>
      <trkpt lat="54.27086" lon="9.66715">
        <ele>128.60000610352</ele>
        <time>2019-05-21T02:41:36Z</time>
      </trkpt>
      <trkpt lat="54.27132" lon="9.66689">
        <ele>129</ele>
        <time>2019-05-21T02:41:57Z</time>
      </trkpt>
      <trkpt lat="54.27193" lon="9.66658">
        <ele>128.60000610352</ele>
        <time>2019-05-21T02:42:14Z</time>
      </trkpt>
      <trkpt lat="54.27326" lon="9.66566">
        <ele>127</ele>
        <time>2019-05-21T02:43:51Z</time>
      </trkpt>
      <trkpt lat="54.27389" lon="9.66523">
        <ele>127</ele>
        <time>2019-05-21T02:44:05Z</time>
      </trkpt>
      <trkpt lat="54.27471" lon="9.66499">
        <ele>127.40000152588</ele>
        <time>2019-05-21T02:44:31Z</time>
      </trkpt>
      <trkpt lat="54.27565" lon="9.66487">
        <ele>127.19999694824</ele>
        <time>2019-05-21T02:44:57Z</time>
      </trkpt>
      <trkpt lat="54.27743" lon="9.66465">
        <ele>127.19999694824</ele>
        <time>2019-05-21T02:45:21Z</time>
      </trkpt>
      <trkpt lat="54.27818" lon="9.66459">
        <ele>126.80000305176</ele>
        <time>2019-05-21T02:45:44Z</time>
      </trkpt>
      <trkpt lat="54.27889" lon="9.66449">
        <ele>126.59999847412</ele>
        <time>2019-05-21T02:46:06Z</time>
      </trkpt>
      <trkpt lat="54.27947" lon="9.66445">
        <ele>125.40000152588</ele>
        <time>2019-05-21T02:46:20Z</time>
      </trkpt>
      <trkpt lat="54.28001" lon="9.66441">
        <ele>125.19999694824</ele>
        <time>2019-05-21T02:46:37Z</time>
      </trkpt>
      <trkpt lat="54.28064" lon="9.66426">
        <ele>126</ele>
        <time>2019-05-21T02:46:58Z</time>
      </trkpt>
      <trkpt lat="54.28124" lon="9.66419">
        <ele>125.80000305176</ele>
        <time>2019-05-21T02:47:21Z</time>
      </trkpt>
      <trkpt lat="54.28198" lon="9.6641">
        <ele>125.19999694824</ele>
        <time>2019-05-21T02:47:34Z</time>
      </trkpt>
      <trkpt lat="54.28309" lon="9.66395">
        <ele>125</ele>
        <time>2019-05-21T02:47:49Z</time>
      </trkpt>
      <trkpt lat="54.28369" lon="9.66387">
        <ele>124.80000305176</ele>
        <time>2019-05-21T02:48:03Z</time>
      </trkpt>
      <trkpt lat="54.28432" lon="9.66381">
        <ele>125</ele>
        <time>2019-05-21T02:48:15Z</time>
      </trkpt>
      <trkpt lat="54.28492" lon="9.66373">
        <ele>124.80000305176</ele>
        <time>2019-05-21T02:48:33Z</time>
      </trkpt>
      <trkpt lat="54.28553" lon="9.6636">
        <ele>124.40000152588</ele>
        <time>2019-05-21T02:48:48Z</time>
      </trkpt>
      <trkpt lat="54.28607" lon="9.66365">
        <ele>124.59999847412</ele>
        <time>2019-05-21T02:49:03Z</time>
      </trkpt>
      <trkpt lat="54.28731" lon="9.66351">
        <ele>124.59999847412</ele>
        <time>2019-05-21T02:49:20Z</time>
      </trkpt>
      <trkpt lat="54.28772" lon="9.66349">
        <ele>124.40000152588</ele>
        <time>2019-05-21T02:49:39Z</time>
      </trkpt>
      <trkpt lat="54.28851" lon="9.6633">
        <ele>124.40000152588</ele>
        <time>2019-05-21T02:49:54Z</time>
      </trkpt>
      <trkpt lat="54.28871" lon="9.66327">
        <ele>124.19999694824</ele>
        <time>2019-05-21T02:50:10Z</time>
      </trkpt>
      <trkpt lat="54.28903" lon="9.6635">
        <ele>124.40000152588</ele>
        <time>2019-05-21T02:50:30Z</time>
      </trkpt>
      <trkpt lat="54.28946" lon="9.66416">
        <ele>124.59999847412</ele>
        <time>2019-05-21T02:50:49Z</time>
      </trkpt>
      <trkpt lat="54.28955" lon="9.6642">
        <ele>124.80000305176</ele>
        <time>2019-05-21T02:51:10Z</time>
      </trkpt>
      <trkpt lat="54.28962" lon="9.66417">
        <ele>124.19999694824</ele>
        <time>2019-05-21T02:51:25Z</time>
      </trkpt>
      <trkpt lat="54.28975" lon="9.66444">
        <ele>124</ele>
        <time>2019-05-21T02:51:43Z</time>
      </trkpt>
      <trkpt lat="54.29157" lon="9.66417">
        <ele>122.19999694824</ele>
        <time>2019-05-21T02:51:56Z</time>
      </trkpt>
      <trkpt lat="54.29178" lon="9.66404">
        <ele>121.80000305176</ele>
        <time>2019-05-21T02:52:20Z</time>
      </trkpt>
      <trkpt lat="54.29213" lon="9.66372">
        <ele>121.59999847412</ele>
        <time>2019-05-21T02:52:37Z</time>
      </trkpt>
      <trkpt lat="54.29227" lon="9.66359">
        <ele>121.59999847412</ele>
        <time>2019-05-21T02:52:56Z</time>
      </trkpt>
      <trkpt lat="54.29273" lon="9.6636">
        <ele>121.40000152588</ele>
        <time>2019-05-21T02:53:21Z</time>
      </trkpt>
      <trkpt lat="54.29325" lon="9.66356">
        <ele>120.80000305176</ele>
        <time>2019-05-21T02:53:37Z</time>
      </trkpt>
      <trkpt lat="54.29473" lon="9.66346">
        <ele>120.19999694824</ele>
        <time>2019-05-21T02:53:57Z</time>
      </trkpt>
      <trkpt lat="54.29489" lon="9.66353">
        <ele>120.59999847412</ele>
        <time>2019-05-21T02:54:14Z</time>
      </trkpt>
      <trkpt lat="54.29511" lon="9.66372">
        <ele>120.59999847412</ele>
        <time>2019-05-21T02:54:23Z</time>
      </trkpt>
      <trkpt lat="54.29517" lon="9.66383">
        <ele>121</ele>
        <time>2019-05-21T02:54:45Z</time>
      </trkpt>
      <trkpt lat="54.29523" lon="9.66361">
        <ele>121.59999847412</ele>
        <time>2019-05-21T02:55:06Z</time>
      </trkpt>
      <trkpt lat="54.29508" lon="9.66353">
        <ele>121</ele>
        <time>2019-05-21T02:55:26Z</time>
      </trkpt>
      <trkpt lat="54.29473" lon="9.66594">
        <ele>118.59999847412</ele>
        <time>2019-05-21T02:55:35Z</time>
      </trkpt>
      <trkpt lat="54.29457" lon="9.66693">
        <ele>118.19999694824</ele>
        <time>2019-05-21T02:55:57Z</time>
      </trkpt>
      <trkpt lat="54.29431" lon="9.66785">
        <ele>118</ele>
        <time>2019-05-21T02:56:13Z</time>
      </trkpt>
      <trkpt lat="54.29419" lon="9.6689">
        <ele>118.19999694824</ele>
        <time>2019-05-21T03:02:36Z</time>
      </trkpt>
      <trkpt lat="54.29417" lon="9.66915">
        <ele>118.19999694824</ele>
        <time>2019-05-21T03:02:44Z</time>
      </trkpt>
      <trkpt lat="54.29364" lon="9.67037">
        <ele>117.40000152588</ele>
        <time>2019-05-21T03:04:22Z</time>
      </trkpt>
      <trkpt lat="54.29354" lon="9.67084">
        <ele>117.40000152588</ele>
        <time>2019-05-21T03:05:19Z</time>
      </trkpt>
      <trkpt lat="54.29324" lon="9.67121">
        <ele>116.59999847412</ele>
        <time>2019-05-21T03:05:36Z</time>
      </trkpt>
      <trkpt lat="54.29359" lon="9.67104">
        <ele>115.80000305176</ele>
        <time>2019-05-21T03:05:59Z</time>
      </trkpt>
      <trkpt lat="54.29367" lon="9.67088">
        <ele>116.80000305176</ele>
        <time>2019-05-21T03:06:19Z</time>
      </trkpt>
      <trkpt lat="54.29424" lon="9.66955">
        <ele>116.80000305176</ele>
        <time>2019-05-22T07:10:06Z</time>
      </trkpt>
      <trkpt lat="54.29432" lon="9.66944">
        <ele>117.19999694824</ele>
        <time>2019-05-22T07:10:15Z</time>
      </trkpt>
      <trkpt lat="54.29432" lon="9.66909">
        <ele>117.40000152588</ele>
        <time>2019-05-22T07:10:20Z</time>
      </trkpt>
      <trkpt lat="54.29464" lon="9.66708">
        <ele>117</ele>
        <time>2019-05-22T07:10:37Z</time>
      </trkpt>
      <trkpt lat="54.29474" lon="9.66635">
        <ele>117</ele>
        <time>2019-05-22T07:10:57Z</time>
      </trkpt>
      <trkpt lat="54.29486" lon="9.66557">
        <ele>117.59999847412</ele>
        <time>2019-05-22T07:11:04Z</time>
      </trkpt>
      <trkpt lat="54.29496" lon="9.66491">
        <ele>117.80000305176</ele>
        <time>2019-05-22T07:12:00Z</time>
      </trkpt>
      <trkpt lat="54.2952" lon="9.66376">
        <ele>118.80000305176</ele>
        <time>2019-05-22T07:12:07Z</time>
      </trkpt>
      <trkpt lat="54.29535" lon="9.6638">
        <ele>119.80000305176</ele>
        <time>2019-05-22T07:12:25Z</time>
      </trkpt>
      <trkpt lat="54.29595" lon="9.66376">
        <ele>120.40000152588</ele>
        <time>2019-05-22T07:12:48Z</time>
      </trkpt>
      <trkpt lat="54.29664" lon="9.66491">
        <ele>121.40000152588</ele>
        <time>2019-05-22T07:13:22Z</time>
      </trkpt>
      <trkpt lat="54.29705" lon="9.66502">
        <ele>121.59999847412</ele>
        <time>2019-05-22T07:13:48Z</time>
      </trkpt>
      <trkpt lat="54.2977" lon="9.66511">
        <ele>122.19999694824</ele>
        <time>2019-05-22T07:14:10Z</time>
      </trkpt>
      <trkpt lat="54.29773" lon="9.66534">
        <ele>121.40000152588</ele>
        <time>2019-05-22T07:14:38Z</time>
      </trkpt>
      <trkpt lat="54.29794" lon="9.66529">
        <ele>121.80000305176</ele>
        <time>2019-05-22T07:15:06Z</time>
      </trkpt>
      <trkpt lat="54.29864" lon="9.6651">
        <ele>121.40000152588</ele>
        <time>2019-05-22T07:15:28Z</time>
      </trkpt>
      <trkpt lat="54.29867" lon="9.66521">
        <ele>120.59999847412</ele>
        <time>2019-05-22T07:15:47Z</time>
      </trkpt>
      <trkpt lat="54.29885" lon="9.66519">
        <ele>120.80000305176</ele>
        <time>2019-05-22T07:16:00Z</time>
      </trkpt>
      <trkpt lat="54.2987" lon="9.66509">
        <ele>120.59999847412</ele>
        <time>2019-05-22T07:16:19Z</time>
      </trkpt>
      <trkpt lat="54.29878" lon="9.66532">
        <ele>120.59999847412</ele>
        <time>2019-05-22T07:16:37Z</time>
      </trkpt>
      <trkpt lat="54.29897" lon="9.66537">
        <ele>120.19999694824</ele>
        <time>2019-05-22T07:17:06Z</time>
      </trkpt>
      <trkpt lat="54.29909" lon="9.66531">
        <ele>120.40000152588</ele>
        <time>2019-05-22T07:17:33Z</time>
      </trkpt>
      <trkpt lat="54.29875" lon="9.66511">
        <ele>119.80000305176</ele>
        <time>2019-05-22T07:17:55Z</time>
      </trkpt>
      <trkpt lat="54.29854" lon="9.66517">
        <ele>119.80000305176</ele>
        <time>2019-05-22T07:18:23Z</time>
      </trkpt>
      <trkpt lat="54.29878" lon="9.66529">
        <ele>119</ele>
        <time>2019-05-22T07:18:34Z</time>
      </trkpt>
      <trkpt lat="54.29881" lon="9.6652">
        <ele>119.19999694824</ele>
        <time>2019-05-22T07:18:48Z</time>
      </trkpt>
      <trkpt lat="54.29888" lon="9.66565">
        <ele>119.40000152588</ele>
        <time>2019-05-22T07:19:06Z</time>
      </trkpt>
      <trkpt lat="54.29881" lon="9.66565">
        <ele>119.59999847412</ele>
        <time>2019-05-22T07:19:30Z</time>
      </trkpt>
      <trkpt lat="54.29872" lon="9.66526">
        <ele>119.40000152588</ele>
        <time>2019-05-22T07:19:52Z</time>
      </trkpt>
      <trkpt lat="54.29883" lon="9.66536">
        <ele>119.40000152588</ele>
        <time>2019-05-22T07:20:10Z</time>
      </trkpt>
      <trkpt lat="54.2988" lon="9.66521">
        <ele>120.19999694824</ele>
        <time>2019-05-22T07:20:27Z</time>
      </trkpt>
      <trkpt lat="54.2989" lon="9.66525">
        <ele>119.80000305176</ele>
        <time>2019-05-22T07:20:50Z</time>
      </trkpt>
      <trkpt lat="54.29941" lon="9.6652">
        <ele>120.19999694824</ele>
        <time>2019-05-22T07:21:08Z</time>
      </trkpt>
      <trkpt lat="54.29974" lon="9.66519">
        <ele>119.19999694824</ele>
        <time>2019-05-22T07:21:31Z</time>
      </trkpt>
      <trkpt lat="54.30008" lon="9.66522">
        <ele>119.19999694824</ele>
        <time>2019-05-22T07:21:45Z</time>
      </trkpt>
      <trkpt lat="54.30033" lon="9.66522">
        <ele>119</ele>
        <time>2019-05-22T07:22:02Z</time>
      </trkpt>
      <trkpt lat="54.30034" lon="9.66542">
        <ele>118.40000152588</ele>
        <time>2019-05-22T07:22:22Z</time>
      </trkpt>
      <trkpt lat="54.30018" lon="9.66576">
        <ele>118.59999847412</ele>
        <time>2019-05-22T07:22:46Z</time>
      </trkpt>
      <trkpt lat="54.29968" lon="9.66679">
        <ele>120.59999847412</ele>
        <time>2019-05-22T07:23:03Z</time>
      </trkpt>
      <trkpt lat="54.29901" lon="9.66897">
        <ele>121.19999694824</ele>
        <time>2019-05-22T07:23:18Z</time>
      </trkpt>
      <trkpt lat="54.29892" lon="9.66905">
        <ele>121.59999847412</ele>
        <time>2019-05-22T07:23:51Z</time>
      </trkpt>
      <trkpt lat="54.29883" lon="9.66956">
        <ele>122</ele>
        <time>2019-05-22T07:24:02Z</time>
      </trkpt>
      <trkpt lat="54.30016" lon="9.66957">
        <ele>121.19999694824</ele>
        <time>2019-05-22T07:24:30Z</time>
      </trkpt>
      <trkpt lat="54.30169" lon="9.66924">
        <ele>119.40000152588</ele>
        <time>2019-05-22T07:24:55Z</time>
      </trkpt>
      <trkpt lat="54.3024" lon="9.66929">
        <ele>119.19999694824</ele>
        <time>2019-05-22T07:25:25Z</time>
      </trkpt>
      <trkpt lat="54.30303" lon="9.66977">
        <ele>118</ele>
        <time>2019-05-22T07:25:39Z</time>
      </trkpt>
      <trkpt lat="54.30303" lon="9.6697">
        <ele>117.80000305176</ele>
        <time>2019-05-22T07:25:53Z</time>
      </trkpt>
      <trkpt lat="54.30316" lon="9.67014">
        <ele>117.40000152588</ele>
        <time>2019-05-22T07:26:10Z</time>
      </trkpt>
      <trkpt lat="54.30336" lon="9.67118">
        <ele>118.19999694824</ele>
        <time>2019-05-22T07:26:25Z</time>
      </trkpt>
      <trkpt lat="54.3034" lon="9.67136">
        <ele>119.40000152588</ele>
        <time>2019-05-22T07:26:49Z</time>
      </trkpt>
      <trkpt lat="54.30356" lon="9.67132">
        <ele>119.40000152588</ele>
        <time>2019-05-22T07:27:03Z</time>
      </trkpt>
      <trkpt lat="54.30382" lon="9.67042">
        <ele>118</ele>
        <time>2019-05-22T07:27:29Z</time>
      </trkpt>
      <trkpt lat="54.30414" lon="9.66922">
        <ele>114.59999847412</ele>
        <time>2019-05-22T07:27:55Z</time>
      </trkpt>
      <trkpt lat="54.30394" lon="9.66853">
        <ele>113.80000305176</ele>
        <time>2019-05-22T07:28:20Z</time>
      </trkpt>
      <trkpt lat="54.30346" lon="9.66698">
        <ele>115.40000152588</ele>
        <time>2019-05-22T07:28:47Z</time>
      </trkpt>
      <trkpt lat="54.30348" lon="9.66691">
        <ele>115</ele>
        <time>2019-05-22T07:29:09Z</time>
      </trkpt>
      <trkpt lat="54.30395" lon="9.66656">
        <ele>116.19999694824</ele>
        <time>2019-05-22T07:29:29Z</time>
      </trkpt>
      <trkpt lat="54.30429" lon="9.66614">
        <ele>116.59999847412</ele>
        <time>2019-05-22T07:29:54Z</time>
      </trkpt>
      <trkpt lat="54.30438" lon="9.66594">
        <ele>116.59999847412</ele>
        <time>2019-05-22T07:30:11Z</time>
      </trkpt>
      <trkpt lat="54.30462" lon="9.66536">
        <ele>116</ele>
        <time>2019-05-22T07:30:25Z</time>
      </trkpt>
      <trkpt lat="54.30473" lon="9.6651">
        <ele>116.40000152588</ele>
        <time>2019-05-22T07:30:39Z</time>
      </trkpt>
      <trkpt lat="54.30477" lon="9.66435">
        <ele>118.80000305176</ele>
        <time>2019-05-22T07:31:03Z</time>
      </trkpt>
      <trkpt lat="54.30503" lon="9.66235">
        <ele>115.59999847412</ele>
        <time>2019-05-22T07:31:24Z</time>
      </trkpt>
      <trkpt lat="54.3053" lon="9.66161">
        <ele>113</ele>
        <time>2019-05-22T07:31:44Z</time>
      </trkpt>
      <trkpt lat="54.3053" lon="9.66141">
        <ele>113</ele>
        <time>2019-05-22T07:31:58Z</time>
      </trkpt>
      <trkpt lat="54.30531" lon="9.6613">
        <ele>112.80000305176</ele>
        <time>2019-05-22T07:32:20Z</time>
      </trkpt>
      <trkpt lat="54.30536" lon="9.66118">
        <ele>113</ele>
        <time>2019-05-22T07:32:40Z</time>
      </trkpt>
      <trkpt lat="54.30546" lon="9.66082">
        <ele>112.80000305176</ele>
        <time>2019-05-22T07:33:02Z</time>
      </trkpt>
      <trkpt lat="54.30542" lon="9.66062">
        <ele>113.59999847412</ele>
        <time>2019-05-22T07:33:25Z</time>
      </trkpt>
      <trkpt lat="54.30566" lon="9.66101">
        <ele>113.59999847412</ele>
        <time>2019-05-22T07:33:45Z</time>
      </trkpt>
      <trkpt lat="54.30573" lon="9.66112">
        <ele>113.40000152588</ele>
        <time>2019-05-22T07:34:01Z</time>
      </trkpt>
      <trkpt lat="54.30608" lon="9.66185">
        <ele>114.40000152588</ele>
        <time>2019-05-22T07:34:14Z</time>
      </trkpt>
      <trkpt lat="54.30618" lon="9.66203">
        <ele>114.19999694824</ele>
        <time>2019-05-22T07:34:33Z</time>
      </trkpt>
      <trkpt lat="54.30651" lon="9.66241">
        <ele>114.59999847412</ele>
        <time>2019-05-22T07:34:46Z</time>
      </trkpt>
      <trkpt lat="54.30652" lon="9.66225">
        <ele>114</ele>
        <time>2019-05-22T07:34:51Z</time>
      </trkpt>
      <trkpt lat="54.3066" lon="9.66244">
        <ele>114.80000305176</ele>
        <time>2019-05-22T07:35:08Z</time>
      </trkpt>
      <trkpt lat="54.30673" lon="9.6626">
        <ele>114.59999847412</ele>
        <time>2019-05-22T07:35:28Z</time>
      </trkpt>
      <trkpt lat="54.30691" lon="9.66297">
        <ele>114.59999847412</ele>
        <time>2019-05-22T07:35:42Z</time>
      </trkpt>
      <trkpt lat="54.30755" lon="9.66439">
        <ele>113.59999847412</ele>
        <time>2019-05-22T07:35:53Z</time>
      </trkpt>
      <trkpt lat="54.30754" lon="9.66431">
        <ele>113.80000305176</ele>
        <time>2019-05-22T07:36:08Z</time>
      </trkpt>
      <trkpt lat="54.3072" lon="9.6642">
        <ele>113.19999694824</ele>
        <time>2019-05-22T07:36:27Z</time>
      </trkpt>
      <trkpt lat="54.30723" lon="9.664">
        <ele>113.40000152588</ele>
        <time>2019-05-22T07:36:35Z</time>
      </trkpt>
      <trkpt lat="54.30739" lon="9.66385">
        <ele>113.19999694824</ele>
        <time>2019-05-22T07:36:43Z</time>
      </trkpt>
      <trkpt lat="54.30807" lon="9.66299">
        <ele>114.59999847412</ele>
        <time>2019-05-22T07:36:48Z</time>
      </trkpt>
      <trkpt lat="54.30815" lon="9.66285">
        <ele>114.59999847412</ele>
        <time>2019-05-22T07:36:58Z</time>
      </trkpt>
      <trkpt lat="54.30894" lon="9.66203">
        <ele>118.40000152588</ele>
        <time>2019-05-22T07:37:10Z</time>
      </trkpt>
      <trkpt lat="54.3097" lon="9.66137">
        <ele>118</ele>
        <time>2019-05-22T07:37:32Z</time>
      </trkpt>
      <trkpt lat="54.31004" lon="9.66094">
        <ele>116.59999847412</ele>
        <time>2019-05-22T07:37:47Z</time>
      </trkpt>
      <trkpt lat="54.31042" lon="9.66063">
        <ele>117.19999694824</ele>
        <time>2019-05-22T07:38:01Z</time>
      </trkpt>
      <trkpt lat="54.31057" lon="9.66075">
        <ele>117.40000152588</ele>
        <time>2019-05-22T07:38:24Z</time>
      </trkpt>
      <trkpt lat="54.31081" lon="9.66092">
        <ele>117.19999694824</ele>
        <time>2019-05-22T07:38:38Z</time>
      </trkpt>
      <trkpt lat="54.31085" lon="9.66095">
        <ele>116.80000305176</ele>
        <time>2019-05-22T07:38:49Z</time>
      </trkpt>
      <trkpt lat="54.31113" lon="9.66024">
        <ele>117.19999694824</ele>
        <time>2019-05-22T07:39:09Z</time>
      </trkpt>
      <trkpt lat="54.31219" lon="9.65885">
        <ele>120</ele>
        <time>2019-05-22T07:39:26Z</time>
      </trkpt>
      <trkpt lat="54.31267" lon="9.65836">
        <ele>120.19999694824</ele>
        <time>2019-05-22T07:39:41Z</time>
      </trkpt>
      <trkpt lat="54.31308" lon="9.65794">
        <ele>120.80000305176</ele>
        <time>2019-05-22T07:39:47Z</time>
      </trkpt>
      <trkpt lat="54.31304" lon="9.6577">
        <ele>121</ele>
        <time>2019-05-22T07:39:59Z</time>
      </trkpt>
      <trkpt lat="54.31297" lon="9.65728">
        <ele>120.59999847412</ele>
        <time>2019-05-22T07:40:06Z</time>
      </trkpt>
      <trkpt lat="54.31287" lon="9.65706">
        <ele>120.59999847412</ele>
        <time>2019-05-22T07:40:27Z</time>
      </trkpt>
      <trkpt lat="54.31283" lon="9.65697">
        <ele>119.80000305176</ele>
        <time>2019-05-22T07:40:34Z</time>
      </trkpt>
      <trkpt lat="54.31264" lon="9.6567">
        <ele>119.80000305176</ele>
        <time>2019-05-22T07:40:50Z</time>
      </trkpt>
      <trkpt lat="54.3121" lon="9.65595">
        <ele>120</ele>
        <time>2019-05-22T07:41:06Z</time>
      </trkpt>
      <trkpt lat="54.31154" lon="9.65519">
        <ele>119.19999694824</ele>
        <time>2019-05-22T07:41:24Z</time>
      </trkpt>
      <trkpt lat="54.31126" lon="9.65466">
        <ele>119.40000152588</ele>
        <time>2019-05-22T07:41:37Z</time>
      </trkpt>
      <trkpt lat="54.31164" lon="9.65369">
        <ele>119.40000152588</ele>
        <time>2019-05-22T07:42:00Z</time>
      </trkpt>
      <trkpt lat="54.31198" lon="9.65264">
        <ele>119.19999694824</ele>
        <time>2019-05-22T07:42:16Z</time>
      </trkpt>
      <trkpt lat="54.31226" lon="9.6515">
        <ele>119.59999847412</ele>
        <time>2019-05-22T07:42:26Z</time>
      </trkpt>
      <trkpt lat="54.31258" lon="9.65045">
        <ele>119.80000305176</ele>
        <time>2019-05-22T07:42:43Z</time>
      </trkpt>
      <trkpt lat="54.31312" lon="9.64852">
        <ele>121.40000152588</ele>
        <time>2019-05-22T07:43:05Z</time>
      </trkpt>
      <trkpt lat="54.3135" lon="9.6473">
        <ele>121.80000305176</ele>
        <time>2019-05-22T07:43:17Z</time>
      </trkpt>
      <trkpt lat="54.31393" lon="9.64599">
        <ele>123</ele>
        <time>2019-05-22T07:43:34Z</time>
      </trkpt>
      <trkpt lat="54.31425" lon="9.64497">
        <ele>123.40000152588</ele>
        <time>2019-05-22T07:43:53Z</time>
      </trkpt>
      <trkpt lat="54.31446" lon="9.64439">
        <ele>123.40000152588</ele>
        <time>2019-05-22T07:44:11Z</time>
      </trkpt>
      <trkpt lat="54.31464" lon="9.64375">
        <ele>123.19999694824</ele>
        <time>2019-05-22T07:44:28Z</time>
      </trkpt>
      <trkpt lat="54.31541" lon="9.64246">
        <ele>124.59999847412</ele>
        <time>2019-05-22T07:44:40Z</time>
      </trkpt>
      <trkpt lat="54.31594" lon="9.64177">
        <ele>124.80000305176</ele>
        <time>2019-05-22T07:45:00Z</time>
      </trkpt>
      <trkpt lat="54.3167" lon="9.64081">
        <ele>125.40000152588</ele>
        <time>2019-05-22T07:45:19Z</time>
      </trkpt>
      <trkpt lat="54.31733" lon="9.63998">
        <ele>125.59999847412</ele>
        <time>2019-05-22T07:45:33Z</time>
      </trkpt>
      <trkpt lat="54.31767" lon="9.63969">
        <ele>125.80000305176</ele>
        <time>2019-05-22T07:45:45Z</time>
      </trkpt>
      <trkpt lat="54.31784" lon="9.63942">
        <ele>125.80000305176</ele>
        <time>2019-05-22T07:45:56Z</time>
      </trkpt>
      <trkpt lat="54.31777" lon="9.63924">
        <ele>125.59999847412</ele>
        <time>2019-05-22T07:46:08Z</time>
      </trkpt>
      <trkpt lat="54.3184" lon="9.63841">
        <ele>126.19999694824</ele>
        <time>2019-05-22T07:46:27Z</time>
      </trkpt>
      <trkpt lat="54.31924" lon="9.63733">
        <ele>126.40000152588</ele>
        <time>2019-05-22T07:46:44Z</time>
      </trkpt>
      <trkpt lat="54.31978" lon="9.63646">
        <ele>126</ele>
        <time>2019-05-22T07:46:57Z</time>
      </trkpt>
      <trkpt lat="54.32081" lon="9.63537">
        <ele>124.80000305176</ele>
        <time>2019-05-22T07:47:22Z</time>
      </trkpt>
      <trkpt lat="54.32144" lon="9.63457">
        <ele>124.40000152588</ele>
        <time>2019-05-22T07:47:43Z</time>
      </trkpt>
      <trkpt lat="54.32333" lon="9.63216">
        <ele>124.40000152588</ele>
        <time>2019-05-22T07:48:03Z</time>
      </trkpt>
      <trkpt lat="54.32432" lon="9.63089">
        <ele>124.59999847412</ele>
        <time>2019-05-22T07:48:20Z</time>
      </trkpt>
      <trkpt lat="54.32486" lon="9.63007">
        <ele>124.59999847412</ele>
        <time>2019-05-22T07:50:09Z</time>
      </trkpt>
      <trkpt lat="54.32496" lon="9.63013">
        <ele>124.80000305176</ele>
        <time>2019-05-22T07:50:17Z</time>
      </trkpt>
      <trkpt lat="54.32519" lon="9.63037">
        <ele>124.80000305176</ele>
        <time>2019-05-22T07:50:25Z</time>
      </trkpt>
      <trkpt lat="54.32539" lon="9.63017">
        <ele>124.59999847412</ele>
        <time>2019-05-22T07:51:33Z</time>
      </trkpt>
      <trkpt lat="54.32598" lon="9.63066">
        <ele>124.59999847412</ele>
        <time>2019-05-22T07:51:51Z</time>
      </trkpt>
      <trkpt lat="54.32709" lon="9.63074">
        <ele>124.19999694824</ele>
        <time>2019-05-22T07:52:04Z</time>
      </trkpt>
      <trkpt lat="54.32802" lon="9.63096">
        <ele>124</ele>
        <time>2019-05-22T07:52:13Z</time>
      </trkpt>
      <trkpt lat="54.32904" lon="9.63156">
        <ele>123.40000152588</ele>
        <time>2019-05-22T07:52:23Z</time>
      </trkpt>
      <trkpt lat="54.33037" lon="9.63228">
        <ele>123</ele>
        <time>2019-05-22T07:52:28Z</time>
      </trkpt>
      <trkpt lat="54.33222" lon="9.63318">
        <ele>121.80000305176</ele>
        <time>2019-05-22T07:52:35Z</time>
      </trkpt>
      <trkpt lat="54.33333" lon="9.63386">
        <ele>123.19999694824</ele>
        <time>2019-05-22T07:52:44Z</time>
      </trkpt>
      <trkpt lat="54.33397" lon="9.63459">
        <ele>123.19999694824</ele>
        <time>2019-05-22T07:52:58Z</time>
      </trkpt>
      <trkpt lat="54.33494" lon="9.63544">
        <ele>123.59999847412</ele>
        <time>2019-05-22T07:53:22Z</time>
      </trkpt>
      <trkpt lat="54.33671" lon="9.63571">
        <ele>125.59999847412</ele>
        <time>2019-05-22T07:53:44Z</time>
      </trkpt>
      <trkpt lat="54.33802" lon="9.63597">
        <ele>125.59999847412</ele>
        <time>2019-05-22T07:54:01Z</time>
      </trkpt>
      <trkpt lat="54.33883" lon="9.6363">
        <ele>124.40000152588</ele>
        <time>2019-05-22T07:54:21Z</time>
      </trkpt>
      <trkpt lat="54.3408" lon="9.63708">
        <ele>123.19999694824</ele>
        <time>2019-05-22T07:54:42Z</time>
      </trkpt>
      <trkpt lat="54.34182" lon="9.63748">
        <ele>123.40000152588</ele>
        <time>2019-05-22T07:55:06Z</time>
      </trkpt>
      <trkpt lat="54.34299" lon="9.63776">
        <ele>124</ele>
        <time>2019-05-22T07:55:30Z</time>
      </trkpt>
      <trkpt lat="54.34378" lon="9.63774">
        <ele>123.80000305176</ele>
        <time>2019-05-22T07:55:46Z</time>
      </trkpt>
      <trkpt lat="54.34504" lon="9.6377">
        <ele>123.59999847412</ele>
        <time>2019-05-22T07:56:02Z</time>
      </trkpt>
      <trkpt lat="54.34637" lon="9.63777">
        <ele>123.19999694824</ele>
        <time>2019-05-22T07:56:15Z</time>
      </trkpt>
      <trkpt lat="54.34746" lon="9.63787">
        <ele>123</ele>
        <time>2019-05-22T07:56:31Z</time>
      </trkpt>
      <trkpt lat="54.34791" lon="9.63795">
        <ele>123</ele>
        <time>2019-05-22T07:56:53Z</time>
      </trkpt>
      <trkpt lat="54.34815" lon="9.63801">
        <ele>123.19999694824</ele>
        <time>2019-05-22T07:57:15Z</time>
      </trkpt>
      <trkpt lat="54.35088" lon="9.63855">
        <ele>122.19999694824</ele>
        <time>2019-05-22T07:57:23Z</time>
      </trkpt>
      <trkpt lat="54.35164" lon="9.63862">
        <ele>121.80000305176</ele>
        <time>2019-05-22T07:57:31Z</time>
      </trkpt>
      <trkpt lat="54.35278" lon="9.63863">
        <ele>121.80000305176</ele>
        <time>2019-05-22T07:57:52Z</time>
      </trkpt>
      <trkpt lat="54.35411" lon="9.63888">
        <ele>121.59999847412</ele>
        <time>2019-05-22T07:58:07Z</time>
      </trkpt>
      <trkpt lat="54.35496" lon="9.63928">
        <ele>121.59999847412</ele>
        <time>2019-05-22T07:58:25Z</time>
      </trkpt>
      <trkpt lat="54.35584" lon="9.63968">
        <ele>121.40000152588</ele>
        <time>2019-05-22T07:58:33Z</time>
      </trkpt>
      <trkpt lat="54.35656" lon="9.64028">
        <ele>121.40000152588</ele>
        <time>2019-05-22T07:58:48Z</time>
      </trkpt>
      <trkpt lat="54.35711" lon="9.64106">
        <ele>121.59999847412</ele>
        <time>2019-05-22T07:59:11Z</time>
      </trkpt>
      <trkpt lat="54.35759" lon="9.64213">
        <ele>121.40000152588</ele>
        <time>2019-05-22T07:59:37Z</time>
      </trkpt>
      <trkpt lat="54.35779" lon="9.64236">
        <ele>121.40000152588</ele>
        <time>2019-05-22T08:00:01Z</time>
      </trkpt>
      <trkpt lat="54.35787" lon="9.64221">
        <ele>121.19999694824</ele>
        <time>2019-05-22T08:00:18Z</time>
      </trkpt>
      <trkpt lat="54.35832" lon="9.64089">
        <ele>121.19999694824</ele>
        <time>2019-05-22T08:00:44Z</time>
      </trkpt>
      <trkpt lat="54.35896" lon="9.63864">
        <ele>120.59999847412</ele>
        <time>2019-05-22T08:01:07Z</time>
      </trkpt>
      <trkpt lat="54.35886" lon="9.63731">
        <ele>120.40000152588</ele>
        <time>2019-05-22T08:01:24Z</time>
      </trkpt>
      <trkpt lat="54.3589" lon="9.63713">
        <ele>120.59999847412</ele>
        <time>2019-05-22T08:01:47Z</time>
      </trkpt>
      <trkpt lat="54.35907" lon="9.63704">
        <ele>120.59999847412</ele>
        <time>2019-05-22T08:02:10Z</time>
      </trkpt>
      <trkpt lat="54.35997" lon="9.63619">
        <ele>120.40000152588</ele>
        <time>2019-05-22T08:02:35Z</time>
      </trkpt>
      <trkpt lat="54.36031" lon="9.63591">
        <ele>120.40000152588</ele>
        <time>2019-05-22T08:02:51Z</time>
      </trkpt>
      <trkpt lat="54.36113" lon="9.63514">
        <ele>120.19999694824</ele>
        <time>2019-05-22T08:03:14Z</time>
      </trkpt>
      <trkpt lat="54.36224" lon="9.63411">
        <ele>120.19999694824</ele>
        <time>2019-05-22T08:03:21Z</time>
      </trkpt>
      <trkpt lat="54.36264" lon="9.63355">
        <ele>119.40000152588</ele>
        <time>2019-05-22T08:03:33Z</time>
      </trkpt>
      <trkpt lat="54.36265" lon="9.63348">
        <ele>119.59999847412</ele>
        <time>2019-05-22T08:03:43Z</time>
      </trkpt>
      <trkpt lat="54.36277" lon="9.63301">
        <ele>119.59999847412</ele>
        <time>2019-05-22T08:03:53Z</time>
      </trkpt>
      <trkpt lat="54.363" lon="9.632">
        <ele>119.40000152588</ele>
        <time>2019-05-22T08:04:13Z</time>
      </trkpt>
      <trkpt lat="54.36348" lon="9.63015">
        <ele>118.59999847412</ele>
        <time>2019-05-22T08:04:31Z</time>
      </trkpt>
      <trkpt lat="54.3645" lon="9.62886">
        <ele>116.80000305176</ele>
        <time>2019-05-22T08:04:55Z</time>
      </trkpt>
      <trkpt lat="54.36493" lon="9.62844">
        <ele>117.40000152588</ele>
        <time>2019-05-22T08:05:08Z</time>
      </trkpt>
      <trkpt lat="54.36552" lon="9.62773">
        <ele>117.80000305176</ele>
        <time>2019-05-22T08:05:24Z</time>
      </trkpt>
      <trkpt lat="54.36637" lon="9.62618">
        <ele>117.80000305176</ele>
        <time>2019-05-22T08:05:46Z</time>
      </trkpt>
      <trkpt lat="54.36698" lon="9.62493">
        <ele>118</ele>
        <time>2019-05-22T08:06:11Z</time>
      </trkpt>
      <trkpt lat="54.36813" lon="9.62303">
        <ele>118.40000152588</ele>
        <time>2019-05-22T08:06:37Z</time>
      </trkpt>
      <trkpt lat="54.36858" lon="9.6223">
        <ele>118.80000305176</ele>
        <time>2019-05-22T08:06:58Z</time>
      </trkpt>
      <trkpt lat="54.36911" lon="9.62151">
        <ele>119</ele>
        <time>2019-05-22T08:07:21Z</time>
      </trkpt>
      <trkpt lat="54.36955" lon="9.62077">
        <ele>119.80000305176</ele>
        <time>2019-05-22T08:07:49Z</time>
      </trkpt>
      <trkpt lat="54.36997" lon="9.62014">
        <ele>120.19999694824</ele>
        <time>2019-05-22T08:08:15Z</time>
      </trkpt>
      <trkpt lat="54.37117" lon="9.61826">
        <ele>121</ele>
        <time>2019-05-22T08:08:40Z</time>
      </trkpt>
      <trkpt lat="54.37161" lon="9.61774">
        <ele>120.59999847412</ele>
        <time>2019-05-22T08:08:58Z</time>
      </trkpt>
      <trkpt lat="54.3717" lon="9.61765">
        <ele>120.80000305176</ele>
        <time>2019-05-22T08:09:07Z</time>
      </trkpt>
      <trkpt lat="54.3741" lon="9.61581">
        <ele>120.80000305176</ele>
        <time>2019-05-22T08:09:24Z</time>
      </trkpt>
      <trkpt lat="54.37494" lon="9.61521">
        <ele>121.40000152588</ele>
        <time>2019-05-22T08:09:51Z</time>
      </trkpt>
      <trkpt lat="54.37554" lon="9.61476">
        <ele>121</ele>
        <time>2019-05-22T08:10:13Z</time>
      </trkpt>
      <trkpt lat="54.37644" lon="9.61411">
        <ele>120.80000305176</ele>
        <time>2019-05-22T08:10:30Z</time>
      </trkpt>
      <trkpt lat="54.37713" lon="9.61324">
        <ele>121.19999694824</ele>
        <time>2019-05-22T08:10:41Z</time>
      </trkpt>
      <trkpt lat="54.37756" lon="9.61236">
        <ele>121.80000305176</ele>
        <time>2019-05-22T08:10:58Z</time>
      </trkpt>
      <trkpt lat="54.3782" lon="9.61094">
        <ele>122.19999694824</ele>
        <time>2019-05-22T08:11:28Z</time>
      </trkpt>
      <trkpt lat="54.3791" lon="9.60892">
        <ele>123.19999694824</ele>
        <time>2019-05-22T08:11:50Z</time>
      </trkpt>
      <trkpt lat="54.37967" lon="9.60748">
        <ele>123.59999847412</ele>
        <time>2019-05-22T08:12:15Z</time>
      </trkpt>
      <trkpt lat="54.3801" lon="9.60633">
        <ele>124</ele>
        <time>2019-05-22T08:12:41Z</time>
      </trkpt>
      <trkpt lat="54.38058" lon="9.60505">
        <ele>124.19999694824</ele>
        <time>2019-05-22T08:13:03Z</time>
      </trkpt>
      <trkpt lat="54.38101" lon="9.60418">
        <ele>124.59999847412</ele>
        <time>2019-05-22T08:13:22Z</time>
      </trkpt>
      <trkpt lat="54.38151" lon="9.60329">
        <ele>124.19999694824</ele>
        <time>2019-05-22T08:13:38Z</time>
      </trkpt>
      <trkpt lat="54.38227" lon="9.60194">
        <ele>124.59999847412</ele>
        <time>2019-05-22T08:14:04Z</time>
      </trkpt>
      <trkpt lat="54.38285" lon="9.60072">
        <ele>124.80000305176</ele>
        <time>2019-05-22T08:14:33Z</time>
      </trkpt>
      <trkpt lat="54.38314" lon="9.60008">
        <ele>124.59999847412</ele>
        <time>2019-05-22T08:15:01Z</time>
      </trkpt>
      <trkpt lat="54.3837" lon="9.599">
        <ele>125.80000305176</ele>
        <time>2019-05-22T08:15:22Z</time>
      </trkpt>
      <trkpt lat="54.38454" lon="9.59787">
        <ele>126.19999694824</ele>
        <time>2019-05-22T08:15:44Z</time>
      </trkpt>
      <trkpt lat="54.38522" lon="9.59713">
        <ele>126.59999847412</ele>
        <time>2019-05-22T08:16:07Z</time>
      </trkpt>
      <trkpt lat="54.38598" lon="9.59643">
        <ele>126.19999694824</ele>
        <time>2019-05-22T08:16:29Z</time>
      </trkpt>
      <trkpt lat="54.38678" lon="9.59569">
        <ele>125.59999847412</ele>
        <time>2019-05-22T08:16:49Z</time>
      </trkpt>
      <trkpt lat="54.38738" lon="9.59536">
        <ele>124.80000305176</ele>
        <time>2019-05-22T08:17:11Z</time>
      </trkpt>
      <trkpt lat="54.3882" lon="9.59445">
        <ele>122.40000152588</ele>
        <time>2019-05-22T08:17:29Z</time>
      </trkpt>
      <trkpt lat="54.38875" lon="9.59439">
        <ele>121.40000152588</ele>
        <time>2019-05-22T08:17:49Z</time>
      </trkpt>
      <trkpt lat="54.38937" lon="9.59462">
        <ele>121.40000152588</ele>
        <time>2019-05-22T08:18:09Z</time>
      </trkpt>
      <trkpt lat="54.38942" lon="9.59458">
        <ele>120.59999847412</ele>
        <time>2019-05-22T08:18:30Z</time>
      </trkpt>
      <trkpt lat="54.38977" lon="9.5943">
        <ele>120.59999847412</ele>
        <time>2019-05-22T08:18:47Z</time>
      </trkpt>
      <trkpt lat="54.39017" lon="9.59398">
        <ele>120.40000152588</ele>
        <time>2019-05-22T08:19:11Z</time>
      </trkpt>
      <trkpt lat="54.39065" lon="9.59396">
        <ele>121.40000152588</ele>
        <time>2019-05-22T08:19:30Z</time>
      </trkpt>
      <trkpt lat="54.3917" lon="9.59408">
        <ele>127.19999694824</ele>
        <time>2019-05-22T08:19:56Z</time>
      </trkpt>
      <trkpt lat="54.39225" lon="9.59418">
        <ele>126.59999847412</ele>
        <time>2019-05-22T08:20:17Z</time>
      </trkpt>
      <trkpt lat="54.39284" lon="9.59433">
        <ele>124.80000305176</ele>
        <time>2019-05-22T08:20:24Z</time>
      </trkpt>
      <trkpt lat="54.39295" lon="9.59411">
        <ele>124.40000152588</ele>
        <time>2019-05-22T08:20:40Z</time>
      </trkpt>
      <trkpt lat="54.39304" lon="9.59309">
        <ele>125</ele>
        <time>2019-05-22T08:21:07Z</time>
      </trkpt>
      <trkpt lat="54.3932" lon="9.59139">
        <ele>125</ele>
        <time>2019-05-22T08:21:33Z</time>
      </trkpt>
      <trkpt lat="54.39329" lon="9.59048">
        <ele>125.19999694824</ele>
        <time>2019-05-22T08:21:48Z</time>
      </trkpt>
      <trkpt lat="54.39344" lon="9.59039">
        <ele>125.19999694824</ele>
        <time>2019-05-22T08:22:17Z</time>
      </trkpt>
      <trkpt lat="54.39394" lon="9.58968">
        <ele>125</ele>
        <time>2019-05-22T08:22:43Z</time>
      </trkpt>
      <trkpt lat="54.39447" lon="9.58903">
        <ele>125.80000305176</ele>
        <time>2019-05-22T08:23:00Z</time>
      </trkpt>
      <trkpt lat="54.39495" lon="9.58844">
        <ele>126</ele>
        <time>2019-05-22T08:23:25Z</time>
      </trkpt>
      <trkpt lat="54.39553" lon="9.58815">
        <ele>126.19999694824</ele>
        <time>2019-05-22T08:23:42Z</time>
      </trkpt>
      <trkpt lat="54.39621" lon="9.58808">
        <ele>127</ele>
        <time>2019-05-22T08:24:06Z</time>
      </trkpt>
      <trkpt lat="54.39699" lon="9.58847">
        <ele>127.19999694824</ele>
        <time>2019-05-22T08:24:31Z</time>
      </trkpt>
      <trkpt lat="54.39757" lon="9.58851">
        <ele>127.80000305176</ele>
        <time>2019-05-22T08:24:58Z</time>
      </trkpt>
      <trkpt lat="54.39789" lon="9.5883">
        <ele>128.19999694824</ele>
        <time>2019-05-22T08:25:23Z</time>
      </trkpt>
      <trkpt lat="54.39844" lon="9.58796">
        <ele>128</ele>
        <time>2019-05-22T08:25:44Z</time>
      </trkpt>
      <trkpt lat="54.39911" lon="9.58748">
        <ele>126.80000305176</ele>
        <time>2019-05-22T08:25:54Z</time>
      </trkpt>
      <trkpt lat="54.39966" lon="9.58701">
        <ele>126.19999694824</ele>
        <time>2019-05-22T08:26:02Z</time>
      </trkpt>
      <trkpt lat="54.40017" lon="9.58506">
        <ele>128.39999389648</ele>
        <time>2019-05-22T08:32:14Z</time>
      </trkpt>
      <trkpt lat="54.39991" lon="9.58436">
        <ele>128.80000305176</ele>
        <time>2019-05-22T08:32:23Z</time>
      </trkpt>
      <trkpt lat="54.39953" lon="9.58298">
        <ele>129</ele>
        <time>2019-05-22T08:32:39Z</time>
      </trkpt>
      <trkpt lat="54.39943" lon="9.58225">
        <ele>129</ele>
        <time>2019-05-22T08:32:51Z</time>
      </trkpt>
      <trkpt lat="54.39948" lon="9.58255">
        <ele>129</ele>
        <time>2019-05-22T08:33:10Z</time>
      </trkpt>
      <trkpt lat="54.39949" lon="9.58289">
        <ele>127.80000305176</ele>
        <time>2019-05-22T08:33:41Z</time>
      </trkpt>
      <trkpt lat="54.40008" lon="9.58452">
        <ele>128.39999389648</ele>
        <time>2019-05-22T08:34:12Z</time>
      </trkpt>
      <trkpt lat="54.40177" lon="9.58423">
        <ele>125.59999847412</ele>
        <time>2019-05-22T08:34:37Z</time>
      </trkpt>
      <trkpt lat="54.40256" lon="9.58395">
        <ele>126.80000305176</ele>
        <time>2019-05-22T08:34:55Z</time>
      </trkpt>
      <trkpt lat="54.40339" lon="9.58325">
        <ele>126.80000305176</ele>
        <time>2019-05-22T08:35:15Z</time>
      </trkpt>
      <trkpt lat="54.40391" lon="9.58263">
        <ele>126.59999847412</ele>
        <time>2019-05-22T08:35:47Z</time>
      </trkpt>
      <trkpt lat="54.40459" lon="9.58175">
        <ele>126.59999847412</ele>
        <time>2019-05-22T08:36:21Z</time>
      </trkpt>
      <trkpt lat="54.40533" lon="9.58084">
        <ele>127</ele>
        <time>2019-05-22T08:36:42Z</time>
      </trkpt>
      <trkpt lat="54.40612" lon="9.57987">
        <ele>127</ele>
        <time>2019-05-22T08:36:59Z</time>
      </trkpt>
      <trkpt lat="54.4071" lon="9.57867">
        <ele>127.19999694824</ele>
        <time>2019-05-22T08:37:27Z</time>
      </trkpt>
      <trkpt lat="54.40818" lon="9.57712">
        <ele>127.59999847412</ele>
        <time>2019-05-22T08:37:55Z</time>
      </trkpt>
      <trkpt lat="54.40893" lon="9.5767">
        <ele>128</ele>
        <time>2019-05-22T08:38:19Z</time>
      </trkpt>
      <trkpt lat="54.40953" lon="9.57693">
        <ele>128.60000610352</ele>
        <time>2019-05-22T08:38:45Z</time>
      </trkpt>
      <trkpt lat="54.41059" lon="9.57741">
        <ele>128.60000610352</ele>
        <time>2019-05-22T08:39:06Z</time>
      </trkpt>
      <trkpt lat="54.41161" lon="9.57776">
        <ele>128.39999389648</ele>
        <time>2019-05-22T08:39:22Z</time>
      </trkpt>
      <trkpt lat="54.41213" lon="9.57765">
        <ele>128.19999694824</ele>
        <time>2019-05-22T08:39:49Z</time>
      </trkpt>
      <trkpt lat="54.41297" lon="9.57715">
        <ele>128.19999694824</ele>
        <time>2019-05-22T08:40:15Z</time>
      </trkpt>
      <trkpt lat="54.41385" lon="9.57663">
        <ele>128.39999389648</ele>
        <time>2019-05-22T08:40:38Z</time>
      </trkpt>
      <trkpt lat="54.4149" lon="9.57597">
        <ele>128.80000305176</ele>
        <time>2019-05-22T08:41:09Z</time>
      </trkpt>
      <trkpt lat="54.41573" lon="9.57546">
        <ele>129</ele>
        <time>2019-05-22T08:41:36Z</time>
      </trkpt>
      <trkpt lat="54.41636" lon="9.57509">
        <ele>128.60000610352</ele>
        <time>2019-05-22T08:42:02Z</time>
      </trkpt>
      <trkpt lat="54.417" lon="9.57502">
        <ele>128.80000305176</ele>
        <time>2019-05-22T08:42:30Z</time>
      </trkpt>
      <trkpt lat="54.41794" lon="9.57492">
        <ele>128.39999389648</ele>
        <time>2019-05-22T08:42:57Z</time>
      </trkpt>
      <trkpt lat="54.41892" lon="9.57481">
        <ele>128.80000305176</ele>
        <time>2019-05-22T08:43:27Z</time>
      </trkpt>
      <trkpt lat="54.41975" lon="9.57471">
        <ele>129</ele>
        <time>2019-05-22T08:43:56Z</time>
      </trkpt>
      <trkpt lat="54.41982" lon="9.57473">
        <ele>128.80000305176</ele>
        <time>2019-05-22T08:44:26Z</time>
      </trkpt>
      <trkpt lat="54.42044" lon="9.57462">
        <ele>129.60000610352</ele>
        <time>2019-05-22T08:44:52Z</time>
      </trkpt>
      <trkpt lat="54.42122" lon="9.57438">
        <ele>130.19999694824</ele>
        <time>2019-05-22T08:45:17Z</time>
      </trkpt>
      <trkpt lat="54.42317" lon="9.57376">
        <ele>134.39999389648</ele>
        <time>2019-05-22T08:45:42Z</time>
      </trkpt>
      <trkpt lat="54.42363" lon="9.57336">
        <ele>135.80000305176</ele>
        <time>2019-05-22T08:46:06Z</time>
      </trkpt>
      <trkpt lat="54.4238" lon="9.57278">
        <ele>137.60000610352</ele>
        <time>2019-05-22T08:46:37Z</time>
      </trkpt>
      <trkpt lat="54.42381" lon="9.57219">
        <ele>138</ele>
        <time>2019-05-22T08:47:04Z</time>
      </trkpt>
      <trkpt lat="54.42381" lon="9.57155">
        <ele>139.19999694824</ele>
        <time>2019-05-22T08:47:35Z</time>
      </trkpt>
      <trkpt lat="54.42381" lon="9.57114">
        <ele>138.19999694824</ele>
        <time>2019-05-22T08:48:04Z</time>
      </trkpt>
      <trkpt lat="54.4238" lon="9.57095">
        <ele>138.19999694824</ele>
        <time>2019-05-22T08:48:31Z</time>
      </trkpt>
      <trkpt lat="54.42379" lon="9.57033">
        <ele>137.19999694824</ele>
        <time>2019-05-22T08:49:01Z</time>
      </trkpt>
      <trkpt lat="54.42377" lon="9.56919">
        <ele>134.19999694824</ele>
        <time>2019-05-22T08:49:20Z</time>
      </trkpt>
      <trkpt lat="54.42326" lon="9.56739">
        <ele>131.80000305176</ele>
        <time>2019-05-22T08:49:36Z</time>
      </trkpt>
      <trkpt lat="54.42355" lon="9.56637">
        <ele>130.80000305176</ele>
        <time>2019-05-22T08:49:53Z</time>
      </trkpt>
      <trkpt lat="54.42402" lon="9.56641">
        <ele>130.19999694824</ele>
        <time>2019-05-22T08:50:04Z</time>
      </trkpt>
      <trkpt lat="54.42465" lon="9.5667">
        <ele>129.80000305176</ele>
        <time>2019-05-22T08:50:12Z</time>
      </trkpt>
      <trkpt lat="54.42587" lon="9.56666">
        <ele>130.39999389648</ele>
        <time>2019-05-22T08:50:21Z</time>
      </trkpt>
      <trkpt lat="54.4271" lon="9.56661">
        <ele>130.60000610352</ele>
        <time>2019-05-22T08:50:58Z</time>
      </trkpt>
      <trkpt lat="54.42817" lon="9.56652">
        <ele>130.39999389648</ele>
        <time>2019-05-22T08:51:04Z</time>
      </trkpt>
      <trkpt lat="54.42908" lon="9.56607">
        <ele>130.19999694824</ele>
        <time>2019-05-22T08:51:14Z</time>
      </trkpt>
      <trkpt lat="54.43005" lon="9.56558">
        <ele>130.19999694824</ele>
        <time>2019-05-22T08:51:22Z</time>
      </trkpt>
      <trkpt lat="54.43111" lon="9.56502">
        <ele>130</ele>
        <time>2019-05-22T08:51:29Z</time>
      </trkpt>
      <trkpt lat="54.4321" lon="9.56452">
        <ele>129.60000610352</ele>
        <time>2019-05-22T08:51:35Z</time>
      </trkpt>
      <trkpt lat="54.43298" lon="9.56412">
        <ele>129.39999389648</ele>
        <time>2019-05-22T08:51:47Z</time>
      </trkpt>
      <trkpt lat="54.43356" lon="9.56421">
        <ele>129.19999694824</ele>
        <time>2019-05-22T08:52:14Z</time>
      </trkpt>
      <trkpt lat="54.43446" lon="9.56435">
        <ele>129.19999694824</ele>
        <time>2019-05-22T08:52:43Z</time>
      </trkpt>
      <trkpt lat="54.43521" lon="9.56447">
        <ele>129</ele>
        <time>2019-05-22T08:53:03Z</time>
      </trkpt>
      <trkpt lat="54.43631" lon="9.56465">
        <ele>129.80000305176</ele>
        <time>2019-05-22T08:53:15Z</time>
      </trkpt>
      <trkpt lat="54.43723" lon="9.5648">
        <ele>130</ele>
        <time>2019-05-22T08:53:37Z</time>
      </trkpt>
      <trkpt lat="54.43796" lon="9.56481">
        <ele>129.39999389648</ele>
        <time>2019-05-22T08:53:50Z</time>
      </trkpt>
      <trkpt lat="54.44047" lon="9.56453">
        <ele>129.80000305176</ele>
        <time>2019-05-22T08:53:58Z</time>
      </trkpt>
      <trkpt lat="54.44106" lon="9.56448">
        <ele>129.80000305176</ele>
        <time>2019-05-22T08:58:33Z</time>
      </trkpt>
      <trkpt lat="54.4417" lon="9.56449">
        <ele>131.19999694824</ele>
        <time>2019-05-22T09:00:10Z</time>
      </trkpt>
      <trkpt lat="54.44233" lon="9.56444">
        <ele>132</ele>
        <time>2019-05-22T09:00:30Z</time>
      </trkpt>
      <trkpt lat="54.44333" lon="9.56443">
        <ele>131.19999694824</ele>
        <time>2019-05-22T09:00:53Z</time>
      </trkpt>
      <trkpt lat="54.44393" lon="9.56484">
        <ele>130.80000305176</ele>
        <time>2019-05-22T09:01:17Z</time>
      </trkpt>
      <trkpt lat="54.44441" lon="9.5654">
        <ele>130.60000610352</ele>
        <time>2019-05-22T09:01:42Z</time>
      </trkpt>
      <trkpt lat="54.44512" lon="9.56628">
        <ele>130.80000305176</ele>
        <time>2019-05-22T09:02:09Z</time>
      </trkpt>
      <trkpt lat="54.44553" lon="9.56695">
        <ele>130.60000610352</ele>
        <time>2019-05-22T09:02:25Z</time>
      </trkpt>
      <trkpt lat="54.44601" lon="9.56821">
        <ele>130.39999389648</ele>
        <time>2019-05-22T09:02:36Z</time>
      </trkpt>
      <trkpt lat="54.44649" lon="9.56935">
        <ele>130.80000305176</ele>
        <time>2019-05-22T09:02:51Z</time>
      </trkpt>
      <trkpt lat="54.44704" lon="9.57034">
        <ele>132.19999694824</ele>
        <time>2019-05-22T09:03:00Z</time>
      </trkpt>
      <trkpt lat="54.44747" lon="9.571">
        <ele>132.60000610352</ele>
        <time>2019-05-22T09:03:09Z</time>
      </trkpt>
      <trkpt lat="54.44801" lon="9.57192">
        <ele>132.39999389648</ele>
        <time>2019-05-22T09:03:19Z</time>
      </trkpt>
      <trkpt lat="54.44817" lon="9.57307">
        <ele>132.80000305176</ele>
        <time>2019-05-22T09:03:25Z</time>
      </trkpt>
      <trkpt lat="54.44845" lon="9.57396">
        <ele>133</ele>
        <time>2019-05-22T09:03:30Z</time>
      </trkpt>
      <trkpt lat="54.44906" lon="9.57398">
        <ele>133.19999694824</ele>
        <time>2019-05-22T09:03:34Z</time>
      </trkpt>
      <trkpt lat="54.44999" lon="9.57302">
        <ele>134.19999694824</ele>
        <time>2019-05-22T09:03:45Z</time>
      </trkpt>
      <trkpt lat="54.45033" lon="9.5727">
        <ele>136.19999694824</ele>
        <time>2019-05-22T09:04:13Z</time>
      </trkpt>
      <trkpt lat="54.45142" lon="9.57329">
        <ele>137</ele>
        <time>2019-05-22T09:04:39Z</time>
      </trkpt>
      <trkpt lat="54.45188" lon="9.57298">
        <ele>136.60000610352</ele>
        <time>2019-05-22T09:05:00Z</time>
      </trkpt>
      <trkpt lat="54.45193" lon="9.57302">
        <ele>136.39999389648</ele>
        <time>2019-05-22T09:05:13Z</time>
      </trkpt>
      <trkpt lat="54.45199" lon="9.5732">
        <ele>136.39999389648</ele>
        <time>2019-05-22T09:05:35Z</time>
      </trkpt>
      <trkpt lat="54.45198" lon="9.57329">
        <ele>135.60000610352</ele>
        <time>2019-05-22T09:06:03Z</time>
      </trkpt>
      <trkpt lat="54.45229" lon="9.57391">
        <ele>135.80000305176</ele>
        <time>2019-05-22T09:06:32Z</time>
      </trkpt>
      <trkpt lat="54.45289" lon="9.57457">
        <ele>135.80000305176</ele>
        <time>2019-05-22T09:06:59Z</time>
      </trkpt>
      <trkpt lat="54.45363" lon="9.57487">
        <ele>135.80000305176</ele>
        <time>2019-05-22T09:07:27Z</time>
      </trkpt>
      <trkpt lat="54.45427" lon="9.57566">
        <ele>135.60000610352</ele>
        <time>2019-05-22T09:07:47Z</time>
      </trkpt>
      <trkpt lat="54.45457" lon="9.57652">
        <ele>136.80000305176</ele>
        <time>2019-05-22T09:08:17Z</time>
      </trkpt>
      <trkpt lat="54.45556" lon="9.57927">
        <ele>143.80000305176</ele>
        <time>2019-05-22T09:08:38Z</time>
      </trkpt>
      <trkpt lat="54.45589" lon="9.58022">
        <ele>144.19999694824</ele>
        <time>2019-05-22T09:09:08Z</time>
      </trkpt>
      <trkpt lat="54.45615" lon="9.58091">
        <ele>144</ele>
        <time>2019-05-22T09:09:32Z</time>
      </trkpt>
      <trkpt lat="54.4565" lon="9.58143">
        <ele>142.80000305176</ele>
        <time>2019-05-22T09:09:58Z</time>
      </trkpt>
      <trkpt lat="54.45729" lon="9.58181">
        <ele>140.39999389648</ele>
        <time>2019-05-22T09:10:13Z</time>
      </trkpt>
      <trkpt lat="54.45828" lon="9.58196">
        <ele>137.19999694824</ele>
        <time>2019-05-22T09:10:28Z</time>
      </trkpt>
      <trkpt lat="54.4588" lon="9.58232">
        <ele>136</ele>
        <time>2019-05-22T09:10:56Z</time>
      </trkpt>
      <trkpt lat="54.45908" lon="9.58279">
        <ele>135.60000610352</ele>
        <time>2019-05-22T09:11:27Z</time>
      </trkpt>
      <trkpt lat="54.45957" lon="9.58235">
        <ele>135.60000610352</ele>
        <time>2019-05-22T09:11:57Z</time>
      </trkpt>
      <trkpt lat="54.46083" lon="9.5817">
        <ele>135.39999389648</ele>
        <time>2019-05-22T09:12:24Z</time>
      </trkpt>
      <trkpt lat="54.46168" lon="9.58122">
        <ele>134.80000305176</ele>
        <time>2019-05-22T09:12:46Z</time>
      </trkpt>
      <trkpt lat="54.4622" lon="9.58089">
        <ele>134</ele>
        <time>2019-05-22T09:13:04Z</time>
      </trkpt>
      <trkpt lat="54.46316" lon="9.58003">
        <ele>133.39999389648</ele>
        <time>2019-05-22T09:13:30Z</time>
      </trkpt>
      <trkpt lat="54.4636" lon="9.57956">
        <ele>132.80000305176</ele>
        <time>2019-05-22T09:13:56Z</time>
      </trkpt>
      <trkpt lat="54.4659" lon="9.57638">
        <ele>131.39999389648</ele>
        <time>2019-05-22T09:14:19Z</time>
      </trkpt>
      <trkpt lat="54.46653" lon="9.57537">
        <ele>131.19999694824</ele>
        <time>2019-05-22T09:14:36Z</time>
      </trkpt>
      <trkpt lat="54.46726" lon="9.57435">
        <ele>131.60000610352</ele>
        <time>2019-05-22T09:14:43Z</time>
      </trkpt>
      <trkpt lat="54.46815" lon="9.57312">
        <ele>133.80000305176</ele>
        <time>2019-05-22T09:14:55Z</time>
      </trkpt>
      <trkpt lat="54.46879" lon="9.57222">
        <ele>134.60000610352</ele>
        <time>2019-05-22T09:15:08Z</time>
      </trkpt>
      <trkpt lat="54.46923" lon="9.57142">
        <ele>135.60000610352</ele>
        <time>2019-05-22T09:16:08Z</time>
      </trkpt>
      <trkpt lat="54.46951" lon="9.57069">
        <ele>135.80000305176</ele>
        <time>2019-05-22T09:16:22Z</time>
      </trkpt>
      <trkpt lat="54.46993" lon="9.56949">
        <ele>135.39999389648</ele>
        <time>2019-05-22T09:16:35Z</time>
      </trkpt>
      <trkpt lat="54.47053" lon="9.56842">
        <ele>134.80000305176</ele>
        <time>2019-05-22T09:16:42Z</time>
      </trkpt>
      <trkpt lat="54.47099" lon="9.5678">
        <ele>133.80000305176</ele>
        <time>2019-05-22T09:16:58Z</time>
      </trkpt>
      <trkpt lat="54.47176" lon="9.56705">
        <ele>133.39999389648</ele>
        <time>2019-05-22T09:17:20Z</time>
      </trkpt>
      <trkpt lat="54.47241" lon="9.56672">
        <ele>134</ele>
        <time>2019-05-22T09:17:31Z</time>
      </trkpt>
      <trkpt lat="54.47352" lon="9.56626">
        <ele>137.19999694824</ele>
        <time>2019-05-22T09:17:47Z</time>
      </trkpt>
      <trkpt lat="54.47377" lon="9.56615">
        <ele>137.39999389648</ele>
        <time>2019-05-22T09:18:04Z</time>
      </trkpt>
      <trkpt lat="54.4741" lon="9.56602">
        <ele>137</ele>
        <time>2019-05-22T09:18:18Z</time>
      </trkpt>
      <trkpt lat="54.47455" lon="9.56586">
        <ele>137.19999694824</ele>
        <time>2019-05-22T09:18:40Z</time>
      </trkpt>
      <trkpt lat="54.47534" lon="9.56568">
        <ele>136.60000610352</ele>
        <time>2019-05-22T09:19:00Z</time>
      </trkpt>
      <trkpt lat="54.47588" lon="9.56578">
        <ele>135.60000610352</ele>
        <time>2019-05-22T09:19:19Z</time>
      </trkpt>
      <trkpt lat="54.47623" lon="9.56604">
        <ele>135.19999694824</ele>
        <time>2019-05-22T09:19:35Z</time>
      </trkpt>
      <trkpt lat="54.47631" lon="9.56611">
        <ele>134.39999389648</ele>
        <time>2019-05-22T09:19:47Z</time>
      </trkpt>
      <trkpt lat="54.47699" lon="9.56646">
        <ele>134.39999389648</ele>
        <time>2019-05-22T09:20:02Z</time>
      </trkpt>
      <trkpt lat="54.47733" lon="9.56659">
        <ele>135.80000305176</ele>
        <time>2019-05-22T09:20:17Z</time>
      </trkpt>
      <trkpt lat="54.47771" lon="9.56672">
        <ele>136</ele>
        <time>2019-05-22T09:20:42Z</time>
      </trkpt>
      <trkpt lat="54.47781" lon="9.56667">
        <ele>135.80000305176</ele>
        <time>2019-05-22T09:21:04Z</time>
      </trkpt>
      <trkpt lat="54.47813" lon="9.56671">
        <ele>136.60000610352</ele>
        <time>2019-05-22T09:21:20Z</time>
      </trkpt>
      <trkpt lat="54.47891" lon="9.56656">
        <ele>136.39999389648</ele>
        <time>2019-05-22T09:21:31Z</time>
      </trkpt>
      <trkpt lat="54.47977" lon="9.56623">
        <ele>135.60000610352</ele>
        <time>2019-05-22T09:21:50Z</time>
      </trkpt>
      <trkpt lat="54.48228" lon="9.56511">
        <ele>130</ele>
        <time>2019-05-22T09:22:40Z</time>
      </trkpt>
      <trkpt lat="54.48298" lon="9.5648">
        <ele>129</ele>
        <time>2019-05-22T09:23:03Z</time>
      </trkpt>
      <trkpt lat="54.48384" lon="9.56433">
        <ele>128.39999389648</ele>
        <time>2019-05-22T09:23:25Z</time>
      </trkpt>
      <trkpt lat="54.48466" lon="9.56379">
        <ele>128.39999389648</ele>
        <time>2019-05-22T09:23:50Z</time>
      </trkpt>
      <trkpt lat="54.48467" lon="9.56373">
        <ele>128.60000610352</ele>
        <time>2019-05-22T09:24:19Z</time>
      </trkpt>
      <trkpt lat="54.48488" lon="9.56348">
        <ele>128.60000610352</ele>
        <time>2019-05-22T09:24:41Z</time>
      </trkpt>
      <trkpt lat="54.48522" lon="9.56315">
        <ele>128.80000305176</ele>
        <time>2019-05-22T09:25:01Z</time>
      </trkpt>
      <trkpt lat="54.48532" lon="9.5636">
        <ele>128.39999389648</ele>
        <time>2019-05-22T09:25:18Z</time>
      </trkpt>
      <trkpt lat="54.4854" lon="9.56391">
        <ele>126.80000305176</ele>
        <time>2019-05-22T09:25:30Z</time>
      </trkpt>
      <trkpt lat="54.48572" lon="9.56397">
        <ele>126.19999694824</ele>
        <time>2019-05-22T09:41:04Z</time>
      </trkpt>
      <trkpt lat="54.48632" lon="9.56406">
        <ele>126.19999694824</ele>
        <time>2019-05-22T09:41:20Z</time>
      </trkpt>
      <trkpt lat="54.48664" lon="9.56486">
        <ele>125.40000152588</ele>
        <time>2019-05-22T09:41:27Z</time>
      </trkpt>
      <trkpt lat="54.48698" lon="9.56617">
        <ele>123.59999847412</ele>
        <time>2019-05-22T09:41:49Z</time>
      </trkpt>
      <trkpt lat="54.48745" lon="9.56653">
        <ele>121.59999847412</ele>
        <time>2019-05-22T09:42:11Z</time>
      </trkpt>
      <trkpt lat="54.48798" lon="9.56676">
        <ele>121.19999694824</ele>
        <time>2019-05-22T09:42:33Z</time>
      </trkpt>
      <trkpt lat="54.48861" lon="9.56671">
        <ele>118.80000305176</ele>
        <time>2019-05-22T09:42:58Z</time>
      </trkpt>
      <trkpt lat="54.48907" lon="9.56663">
        <ele>119.59999847412</ele>
        <time>2019-05-22T09:43:16Z</time>
      </trkpt>
      <trkpt lat="54.48948" lon="9.56631">
        <ele>120</ele>
        <time>2019-05-22T09:43:32Z</time>
      </trkpt>
      <trkpt lat="54.49008" lon="9.56581">
        <ele>119.80000305176</ele>
        <time>2019-05-22T09:43:55Z</time>
      </trkpt>
      <trkpt lat="54.49053" lon="9.56544">
        <ele>120.40000152588</ele>
        <time>2019-05-22T09:44:16Z</time>
      </trkpt>
      <trkpt lat="54.49086" lon="9.56517">
        <ele>120.40000152588</ele>
        <time>2019-05-22T09:44:24Z</time>
      </trkpt>
      <trkpt lat="54.49164" lon="9.56458">
        <ele>118.40000152588</ele>
        <time>2019-05-22T09:44:29Z</time>
      </trkpt>
      <trkpt lat="54.49206" lon="9.56425">
        <ele>118.59999847412</ele>
        <time>2019-05-22T09:44:50Z</time>
      </trkpt>
      <trkpt lat="54.49353" lon="9.5632">
        <ele>124.40000152588</ele>
        <time>2019-05-22T09:45:16Z</time>
      </trkpt>
      <trkpt lat="54.49373" lon="9.56299">
        <ele>126.40000152588</ele>
        <time>2019-05-22T09:45:38Z</time>
      </trkpt>
      <trkpt lat="54.49388" lon="9.56292">
        <ele>126.40000152588</ele>
        <time>2019-05-22T09:45:50Z</time>
      </trkpt>
      <trkpt lat="54.49449" lon="9.56434">
        <ele>123.19999694824</ele>
        <time>2019-05-22T09:46:15Z</time>
      </trkpt>
      <trkpt lat="54.49472" lon="9.56499">
        <ele>121.19999694824</ele>
        <time>2019-05-22T09:46:28Z</time>
      </trkpt>
      <trkpt lat="54.49517" lon="9.56653">
        <ele>114.80000305176</ele>
        <time>2019-05-22T09:46:50Z</time>
      </trkpt>
      <trkpt lat="54.49566" lon="9.56694">
        <ele>114</ele>
        <time>2019-05-22T09:47:14Z</time>
      </trkpt>
      <trkpt lat="54.49606" lon="9.56737">
        <ele>114.80000305176</ele>
        <time>2019-05-22T09:47:36Z</time>
      </trkpt>
      <trkpt lat="54.4966" lon="9.56803">
        <ele>120.19999694824</ele>
        <time>2019-05-22T09:48:01Z</time>
      </trkpt>
      <trkpt lat="54.4971" lon="9.56863">
        <ele>121.19999694824</ele>
        <time>2019-05-22T09:48:28Z</time>
      </trkpt>
      <trkpt lat="54.4975" lon="9.56903">
        <ele>120.59999847412</ele>
        <time>2019-05-22T09:48:41Z</time>
      </trkpt>
      <trkpt lat="54.49786" lon="9.56924">
        <ele>118.80000305176</ele>
        <time>2019-05-22T09:48:56Z</time>
      </trkpt>
      <trkpt lat="54.49849" lon="9.56952">
        <ele>118.80000305176</ele>
        <time>2019-05-22T09:49:03Z</time>
      </trkpt>
      <trkpt lat="54.49941" lon="9.56979">
        <ele>117.40000152588</ele>
        <time>2019-05-22T09:49:13Z</time>
      </trkpt>
      <trkpt lat="54.49982" lon="9.56981">
        <ele>116.19999694824</ele>
        <time>2019-05-22T09:49:35Z</time>
      </trkpt>
      <trkpt lat="54.50021" lon="9.56957">
        <ele>115.40000152588</ele>
        <time>2019-05-22T09:50:00Z</time>
      </trkpt>
      <trkpt lat="54.50031" lon="9.56959">
        <ele>114.19999694824</ele>
        <time>2019-05-22T09:50:26Z</time>
      </trkpt>
      <trkpt lat="54.50065" lon="9.5695">
        <ele>114</ele>
        <time>2019-05-22T09:50:50Z</time>
      </trkpt>
      <trkpt lat="54.50074" lon="9.5697">
        <ele>113.59999847412</ele>
        <time>2019-05-22T09:51:14Z</time>
      </trkpt>
      <trkpt lat="54.50084" lon="9.56983">
        <ele>114.19999694824</ele>
        <time>2019-05-22T09:51:37Z</time>
      </trkpt>
      <trkpt lat="54.50107" lon="9.57072">
        <ele>113</ele>
        <time>2019-05-22T09:51:49Z</time>
      </trkpt>
      <trkpt lat="54.50108" lon="9.57068">
        <ele>112.59999847412</ele>
        <time>2019-05-22T09:52:01Z</time>
      </trkpt>
      <trkpt lat="54.50111" lon="9.57092">
        <ele>113.19999694824</ele>
        <time>2019-05-22T09:52:25Z</time>
      </trkpt>
      <trkpt lat="54.50097" lon="9.57013">
        <ele>4.1999998092651</ele>
        <time>2019-05-22T09:52:44Z</time>
      </trkpt>
      <trkpt lat="54.50111" lon="9.56884">
        <ele>4.5999999046326</ele>
        <time>2019-05-22T09:53:04Z</time>
      </trkpt>
      <trkpt lat="54.50129" lon="9.56721">
        <ele>5</ele>
        <time>2019-05-22T09:53:30Z</time>
      </trkpt>
      <trkpt lat="54.5012" lon="9.56501">
        <ele>5.1999998092651</ele>
        <time>2019-05-22T09:53:49Z</time>
      </trkpt>
      <trkpt lat="54.50097" lon="9.56339">
        <ele>5</ele>
        <time>2019-05-22T09:54:11Z</time>
      </trkpt>
      <trkpt lat="54.50074" lon="9.56171">
        <ele>4.5999999046326</ele>
        <time>2019-05-22T09:54:37Z</time>
      </trkpt>
      <trkpt lat="54.5005" lon="9.56002">
        <ele>4.8000001907349</ele>
        <time>2019-05-22T09:55:07Z</time>
      </trkpt>
      <trkpt lat="54.50027" lon="9.55803">
        <ele>4.8000001907349</ele>
        <time>2019-05-22T09:55:22Z</time>
      </trkpt>
      <trkpt lat="54.50023" lon="9.55685">
        <ele>4.5999999046326</ele>
        <time>2019-05-22T09:55:39Z</time>
      </trkpt>
      <trkpt lat="54.50037" lon="9.55567">
        <ele>5.4000000953674</ele>
        <time>2019-05-22T09:55:52Z</time>
      </trkpt>
      <trkpt lat="54.50105" lon="9.55403">
        <ele>9.8000001907349</ele>
        <time>2019-05-22T09:56:10Z</time>
      </trkpt>
      <trkpt lat="54.50147" lon="9.55356">
        <ele>9.8000001907349</ele>
        <time>2019-05-22T09:56:30Z</time>
      </trkpt>
      <trkpt lat="54.50238" lon="9.55288">
        <ele>9.6000003814697</ele>
        <time>2019-05-22T09:56:43Z</time>
      </trkpt>
      <trkpt lat="54.50325" lon="9.55221">
        <ele>8</ele>
        <time>2019-05-22T09:56:56Z</time>
      </trkpt>
      <trkpt lat="54.50418" lon="9.55134">
        <ele>7</ele>
        <time>2019-05-22T09:57:20Z</time>
      </trkpt>
      <trkpt lat="54.50454" lon="9.55086">
        <ele>6</ele>
        <time>2019-05-22T09:57:47Z</time>
      </trkpt>
      <trkpt lat="54.5051" lon="9.54984">
        <ele>6.1999998092651</ele>
        <time>2019-05-22T09:58:03Z</time>
      </trkpt>
      <trkpt lat="54.50581" lon="9.54839">
        <ele>6.4000000953674</ele>
        <time>2019-05-22T09:58:21Z</time>
      </trkpt>
      <trkpt lat="54.50635" lon="9.54695">
        <ele>7</ele>
        <time>2019-05-22T09:58:52Z</time>
      </trkpt>
      <trkpt lat="54.50678" lon="9.54525">
        <ele>8.3999996185303</ele>
        <time>2019-05-22T09:59:07Z</time>
      </trkpt>
      <trkpt lat="54.50705" lon="9.54398">
        <ele>7.4000000953674</ele>
        <time>2019-05-22T09:59:34Z</time>
      </trkpt>
      <trkpt lat="54.50716" lon="9.54301">
        <ele>6.4000000953674</ele>
        <time>2019-05-22T09:59:58Z</time>
      </trkpt>
      <trkpt lat="54.50734" lon="9.54255">
        <ele>6.1999998092651</ele>
        <time>2019-05-22T10:00:12Z</time>
      </trkpt>
      <trkpt lat="54.50792" lon="9.54265">
        <ele>6.8000001907349</ele>
        <time>2019-05-22T10:01:05Z</time>
      </trkpt>
      <trkpt lat="54.50841" lon="9.54261">
        <ele>7</ele>
        <time>2019-05-22T10:01:33Z</time>
      </trkpt>
      <trkpt lat="54.50882" lon="9.54225">
        <ele>6.1999998092651</ele>
        <time>2019-05-22T10:01:55Z</time>
      </trkpt>
      <trkpt lat="54.50891" lon="9.54222">
        <ele>5</ele>
        <time>2019-05-22T10:02:17Z</time>
      </trkpt>
      <trkpt lat="54.50915" lon="9.5422">
        <ele>4.5999999046326</ele>
        <time>2019-05-22T10:02:42Z</time>
      </trkpt>
      <trkpt lat="54.50929" lon="9.54221">
        <ele>4.8000001907349</ele>
        <time>2019-05-22T10:03:09Z</time>
      </trkpt>
      <trkpt lat="54.50937" lon="9.54217">
        <ele>4.5999999046326</ele>
        <time>2019-05-22T10:03:29Z</time>
      </trkpt>
      <trkpt lat="54.50957" lon="9.54215">
        <ele>5</ele>
        <time>2019-05-22T10:03:55Z</time>
      </trkpt>
      <trkpt lat="54.50975" lon="9.54281">
        <ele>4.4000000953674</ele>
        <time>2019-05-22T10:04:20Z</time>
      </trkpt>
      <trkpt lat="54.51049" lon="9.5458">
        <ele>4.4000000953674</ele>
        <time>2019-05-22T10:04:30Z</time>
      </trkpt>
      <trkpt lat="54.51052" lon="9.5459">
        <ele>4.5999999046326</ele>
        <time>2019-05-22T10:04:43Z</time>
      </trkpt>
      <trkpt lat="54.51128" lon="9.54688">
        <ele>5</ele>
        <time>2019-05-22T10:05:09Z</time>
      </trkpt>
      <trkpt lat="54.51164" lon="9.54714">
        <ele>4.4000000953674</ele>
        <time>2019-05-22T10:05:28Z</time>
      </trkpt>
      <trkpt lat="54.51256" lon="9.54713">
        <ele>4.8000001907349</ele>
        <time>2019-05-22T10:05:43Z</time>
      </trkpt>
      <trkpt lat="54.51326" lon="9.54696">
        <ele>7.1999998092651</ele>
        <time>2019-05-22T10:05:50Z</time>
      </trkpt>
      <trkpt lat="54.51414" lon="9.54684">
        <ele>9</ele>
        <time>2019-05-22T10:06:15Z</time>
      </trkpt>
      <trkpt lat="54.51589" lon="9.54639">
        <ele>17.200000762939</ele>
        <time>2019-05-22T10:06:30Z</time>
      </trkpt>
      <trkpt lat="54.51654" lon="9.54577">
        <ele>21.60000038147</ele>
        <time>2019-05-22T10:06:39Z</time>
      </trkpt>
      <trkpt lat="54.51774" lon="9.54381">
        <ele>29</ele>
        <time>2019-05-22T10:07:03Z</time>
      </trkpt>
      <trkpt lat="54.51866" lon="9.54336">
        <ele>32.599998474121</ele>
        <time>2019-05-22T10:07:25Z</time>
      </trkpt>
      <trkpt lat="54.51917" lon="9.54354">
        <ele>32.599998474121</ele>
        <time>2019-05-22T10:07:45Z</time>
      </trkpt>
      <trkpt lat="54.52065" lon="9.54394">
        <ele>30.200000762939</ele>
        <time>2019-05-22T10:07:58Z</time>
      </trkpt>
      <trkpt lat="54.52138" lon="9.54418">
        <ele>30.200000762939</ele>
        <time>2019-05-22T10:08:21Z</time>
      </trkpt>
      <trkpt lat="54.52216" lon="9.54442">
        <ele>30.799999237061</ele>
        <time>2019-05-22T10:09:21Z</time>
      </trkpt>
      <trkpt lat="54.52252" lon="9.54432">
        <ele>32.400001525879</ele>
        <time>2019-05-22T10:09:29Z</time>
      </trkpt>
      <trkpt lat="54.52344" lon="9.5439">
        <ele>34.799999237061</ele>
        <time>2019-05-22T10:10:02Z</time>
      </trkpt>
      <trkpt lat="54.52486" lon="9.54116">
        <ele>39.200000762939</ele>
        <time>2019-05-22T10:10:13Z</time>
      </trkpt>
      <trkpt lat="54.52601" lon="9.53891">
        <ele>43.799999237061</ele>
        <time>2019-05-22T10:15:27Z</time>
      </trkpt>
      <trkpt lat="54.5266" lon="9.53751">
        <ele>47.599998474121</ele>
        <time>2019-05-22T10:15:35Z</time>
      </trkpt>
      <trkpt lat="54.52679" lon="9.53702">
        <ele>48.200000762939</ele>
        <time>2019-05-22T10:15:46Z</time>
      </trkpt>
      <trkpt lat="54.52701" lon="9.53661">
        <ele>49.599998474121</ele>
        <time>2019-05-22T10:15:52Z</time>
      </trkpt>
      <trkpt lat="54.52714" lon="9.53613">
        <ele>50.200000762939</ele>
        <time>2019-05-22T10:16:22Z</time>
      </trkpt>
      <trkpt lat="54.52728" lon="9.53576">
        <ele>51.799999237061</ele>
        <time>2019-05-22T10:16:32Z</time>
      </trkpt>
      <trkpt lat="54.5284" lon="9.53328">
        <ele>53.400001525879</ele>
        <time>2019-05-22T10:16:47Z</time>
      </trkpt>
      <trkpt lat="54.52887" lon="9.53237">
        <ele>53.200000762939</ele>
        <time>2019-05-22T10:16:57Z</time>
      </trkpt>
      <trkpt lat="54.52927" lon="9.53139">
        <ele>54</ele>
        <time>2019-05-22T10:17:15Z</time>
      </trkpt>
      <trkpt lat="54.52994" lon="9.52915">
        <ele>55</ele>
        <time>2019-05-22T10:17:23Z</time>
      </trkpt>
      <trkpt lat="54.53035" lon="9.52798">
        <ele>55.200000762939</ele>
        <time>2019-05-22T10:17:41Z</time>
      </trkpt>
      <trkpt lat="54.53071" lon="9.52723">
        <ele>55.799999237061</ele>
        <time>2019-05-22T10:18:00Z</time>
      </trkpt>
      <trkpt lat="54.5315" lon="9.52601">
        <ele>56</ele>
        <time>2019-05-22T10:18:21Z</time>
      </trkpt>
      <trkpt lat="54.53201" lon="9.52554">
        <ele>55.799999237061</ele>
        <time>2019-05-22T10:18:40Z</time>
      </trkpt>
      <trkpt lat="54.53444" lon="9.52433">
        <ele>51.200000762939</ele>
        <time>2019-05-22T10:18:59Z</time>
      </trkpt>
      <trkpt lat="54.53508" lon="9.52401">
        <ele>51</ele>
        <time>2019-05-22T10:19:15Z</time>
      </trkpt>
      <trkpt lat="54.5357" lon="9.52369">
        <ele>50.200000762939</ele>
        <time>2019-05-22T10:19:35Z</time>
      </trkpt>
      <trkpt lat="54.53633" lon="9.52344">
        <ele>49</ele>
        <time>2019-05-22T10:19:53Z</time>
      </trkpt>
      <trkpt lat="54.53751" lon="9.52182">
        <ele>45.200000762939</ele>
        <time>2019-05-22T10:20:15Z</time>
      </trkpt>
      <trkpt lat="54.53802" lon="9.52093">
        <ele>45.400001525879</ele>
        <time>2019-05-22T10:20:33Z</time>
      </trkpt>
      <trkpt lat="54.53861" lon="9.51994">
        <ele>45.799999237061</ele>
        <time>2019-05-22T10:20:53Z</time>
      </trkpt>
      <trkpt lat="54.53974" lon="9.51883">
        <ele>47.400001525879</ele>
        <time>2019-05-22T10:21:17Z</time>
      </trkpt>
      <trkpt lat="54.5404" lon="9.51852">
        <ele>46.799999237061</ele>
        <time>2019-05-22T10:21:40Z</time>
      </trkpt>
      <trkpt lat="54.54146" lon="9.51835">
        <ele>45.400001525879</ele>
        <time>2019-05-22T10:21:56Z</time>
      </trkpt>
      <trkpt lat="54.54177" lon="9.51827">
        <ele>44.200000762939</ele>
        <time>2019-05-22T10:22:06Z</time>
      </trkpt>
      <trkpt lat="54.54258" lon="9.51807">
        <ele>43.200000762939</ele>
        <time>2019-05-22T10:22:12Z</time>
      </trkpt>
      <trkpt lat="54.54346" lon="9.51808">
        <ele>44</ele>
        <time>2019-05-22T10:22:35Z</time>
      </trkpt>
      <trkpt lat="54.54413" lon="9.5179">
        <ele>44.400001525879</ele>
        <time>2019-05-22T10:22:55Z</time>
      </trkpt>
      <trkpt lat="54.54492" lon="9.5171">
        <ele>43.599998474121</ele>
        <time>2019-05-22T10:23:16Z</time>
      </trkpt>
      <trkpt lat="54.54585" lon="9.51591">
        <ele>42.200000762939</ele>
        <time>2019-05-22T10:23:30Z</time>
      </trkpt>
      <trkpt lat="54.54679" lon="9.51468">
        <ele>39.200000762939</ele>
        <time>2019-05-22T10:23:50Z</time>
      </trkpt>
      <trkpt lat="54.54763" lon="9.51355">
        <ele>37.799999237061</ele>
        <time>2019-05-22T10:24:07Z</time>
      </trkpt>
      <trkpt lat="54.54806" lon="9.51305">
        <ele>36.799999237061</ele>
        <time>2019-05-22T10:24:23Z</time>
      </trkpt>
      <trkpt lat="54.54853" lon="9.51256">
        <ele>36.400001525879</ele>
        <time>2019-05-22T10:24:42Z</time>
      </trkpt>
      <trkpt lat="54.54927" lon="9.51127">
        <ele>35</ele>
        <time>2019-05-22T10:25:03Z</time>
      </trkpt>
      <trkpt lat="54.54968" lon="9.51018">
        <ele>35.200000762939</ele>
        <time>2019-05-22T10:25:24Z</time>
      </trkpt>
      <trkpt lat="54.55186" lon="9.50547">
        <ele>27.799999237061</ele>
        <time>2019-05-22T10:25:40Z</time>
      </trkpt>
      <trkpt lat="54.5523" lon="9.5045">
        <ele>28.39999961853</ele>
        <time>2019-05-22T10:25:56Z</time>
      </trkpt>
      <trkpt lat="54.55267" lon="9.50352">
        <ele>28.200000762939</ele>
        <time>2019-05-22T10:26:04Z</time>
      </trkpt>
      <trkpt lat="54.55292" lon="9.5029">
        <ele>28.799999237061</ele>
        <time>2019-05-22T10:54:44Z</time>
      </trkpt>
      <trkpt lat="54.55413" lon="9.50018">
        <ele>32.400001525879</ele>
        <time>2019-05-22T10:54:54Z</time>
      </trkpt>
      <trkpt lat="54.55482" lon="9.49924">
        <ele>32</ele>
        <time>2019-05-22T10:55:08Z</time>
      </trkpt>
      <trkpt lat="54.55589" lon="9.49839">
        <ele>30</ele>
        <time>2019-05-22T10:56:12Z</time>
      </trkpt>
      <trkpt lat="54.55649" lon="9.49802">
        <ele>30.200000762939</ele>
        <time>2019-05-22T10:56:29Z</time>
      </trkpt>
      <trkpt lat="54.55783" lon="9.49724">
        <ele>37.599998474121</ele>
        <time>2019-05-22T10:56:53Z</time>
      </trkpt>
      <trkpt lat="54.55862" lon="9.49668">
        <ele>38.599998474121</ele>
        <time>2019-05-22T10:57:16Z</time>
      </trkpt>
      <trkpt lat="54.56003" lon="9.4958">
        <ele>37</ele>
        <time>2019-05-22T10:57:34Z</time>
      </trkpt>
      <trkpt lat="54.56054" lon="9.49554">
        <ele>38.200000762939</ele>
        <time>2019-05-22T10:57:51Z</time>
      </trkpt>
      <trkpt lat="54.56109" lon="9.49554">
        <ele>39</ele>
        <time>2019-05-22T10:58:16Z</time>
      </trkpt>
      <trkpt lat="54.56162" lon="9.49582">
        <ele>38.799999237061</ele>
        <time>2019-05-22T10:58:37Z</time>
      </trkpt>
      <trkpt lat="54.56236" lon="9.49572">
        <ele>38.799999237061</ele>
        <time>2019-05-22T10:59:01Z</time>
      </trkpt>
      <trkpt lat="54.56307" lon="9.49537">
        <ele>39</ele>
        <time>2019-05-22T10:59:24Z</time>
      </trkpt>
      <trkpt lat="54.56379" lon="9.49484">
        <ele>38.599998474121</ele>
        <time>2019-05-22T10:59:48Z</time>
      </trkpt>
      <trkpt lat="54.56488" lon="9.49379">
        <ele>36.200000762939</ele>
        <time>2019-05-22T11:00:08Z</time>
      </trkpt>
      <trkpt lat="54.56523" lon="9.4935">
        <ele>34.799999237061</ele>
        <time>2019-05-22T11:00:34Z</time>
      </trkpt>
      <trkpt lat="54.56644" lon="9.49358">
        <ele>33.200000762939</ele>
        <time>2019-05-22T11:00:56Z</time>
      </trkpt>
      <trkpt lat="54.56707" lon="9.4934">
        <ele>31.60000038147</ele>
        <time>2019-05-22T11:01:19Z</time>
      </trkpt>
      <trkpt lat="54.56731" lon="9.49335">
        <ele>30.200000762939</ele>
        <time>2019-05-22T11:01:38Z</time>
      </trkpt>
      <trkpt lat="54.56919" lon="9.49361">
        <ele>29.60000038147</ele>
        <time>2019-05-22T11:01:51Z</time>
      </trkpt>
      <trkpt lat="54.57" lon="9.49383">
        <ele>31</ele>
        <time>2019-05-22T11:03:18Z</time>
      </trkpt>
      <trkpt lat="54.57044" lon="9.49382">
        <ele>32.599998474121</ele>
        <time>2019-05-22T11:03:24Z</time>
      </trkpt>
      <trkpt lat="54.57106" lon="9.494">
        <ele>33.400001525879</ele>
        <time>2019-05-22T11:03:41Z</time>
      </trkpt>
      <trkpt lat="54.57182" lon="9.49411">
        <ele>33.799999237061</ele>
        <time>2019-05-22T11:03:54Z</time>
      </trkpt>
      <trkpt lat="54.57254" lon="9.49417">
        <ele>34</ele>
        <time>2019-05-22T11:04:06Z</time>
      </trkpt>
      <trkpt lat="54.57338" lon="9.49428">
        <ele>33.799999237061</ele>
        <time>2019-05-22T11:04:15Z</time>
      </trkpt>
      <trkpt lat="54.57401" lon="9.49438">
        <ele>33.200000762939</ele>
        <time>2019-05-22T11:04:26Z</time>
      </trkpt>
      <trkpt lat="54.5748" lon="9.4944">
        <ele>32.799999237061</ele>
        <time>2019-05-22T11:04:45Z</time>
      </trkpt>
      <trkpt lat="54.5759" lon="9.49453">
        <ele>33</ele>
        <time>2019-05-22T11:05:07Z</time>
      </trkpt>
      <trkpt lat="54.57703" lon="9.49468">
        <ele>34</ele>
        <time>2019-05-22T11:05:26Z</time>
      </trkpt>
      <trkpt lat="54.57729" lon="9.49465">
        <ele>34.400001525879</ele>
        <time>2019-05-22T11:05:49Z</time>
      </trkpt>
      <trkpt lat="54.57728" lon="9.49464">
        <ele>34</ele>
        <time>2019-05-22T11:06:09Z</time>
      </trkpt>
      <trkpt lat="54.5773" lon="9.49503">
        <ele>34</ele>
        <time>2019-05-22T11:06:27Z</time>
      </trkpt>
      <trkpt lat="54.57757" lon="9.49662">
        <ele>34.200000762939</ele>
        <time>2019-05-22T11:06:49Z</time>
      </trkpt>
      <trkpt lat="54.5778" lon="9.49831">
        <ele>34.599998474121</ele>
        <time>2019-05-22T11:07:10Z</time>
      </trkpt>
      <trkpt lat="54.57809" lon="9.50009">
        <ele>35.400001525879</ele>
        <time>2019-05-22T11:07:29Z</time>
      </trkpt>
      <trkpt lat="54.57838" lon="9.50148">
        <ele>35.400001525879</ele>
        <time>2019-05-22T11:07:50Z</time>
      </trkpt>
      <trkpt lat="54.5789" lon="9.50321">
        <ele>35.599998474121</ele>
        <time>2019-05-22T11:09:22Z</time>
      </trkpt>
      <trkpt lat="54.57932" lon="9.50435">
        <ele>36</ele>
        <time>2019-05-22T11:09:44Z</time>
      </trkpt>
      <trkpt lat="54.57988" lon="9.50586">
        <ele>36.200000762939</ele>
        <time>2019-05-22T11:10:03Z</time>
      </trkpt>
      <trkpt lat="54.58071" lon="9.50796">
        <ele>35.200000762939</ele>
        <time>2019-05-22T11:10:28Z</time>
      </trkpt>
      <trkpt lat="54.58094" lon="9.50847">
        <ele>34.200000762939</ele>
        <time>2019-05-22T11:10:49Z</time>
      </trkpt>
      <trkpt lat="54.58095" lon="9.50828">
        <ele>33.400001525879</ele>
        <time>2019-05-22T11:11:08Z</time>
      </trkpt>
      <trkpt lat="54.58123" lon="9.50858">
        <ele>33.200000762939</ele>
        <time>2019-05-22T11:11:18Z</time>
      </trkpt>
      <trkpt lat="54.58225" lon="9.50966">
        <ele>31.200000762939</ele>
        <time>2019-05-22T11:11:29Z</time>
      </trkpt>
      <trkpt lat="54.58354" lon="9.51007">
        <ele>28.60000038147</ele>
        <time>2019-05-22T11:11:47Z</time>
      </trkpt>
      <trkpt lat="54.58385" lon="9.51079">
        <ele>27.799999237061</ele>
        <time>2019-05-22T11:12:08Z</time>
      </trkpt>
      <trkpt lat="54.5841" lon="9.51077">
        <ele>25.60000038147</ele>
        <time>2019-05-22T11:12:18Z</time>
      </trkpt>
      <trkpt lat="54.58512" lon="9.51052">
        <ele>24.39999961853</ele>
        <time>2019-05-22T11:12:37Z</time>
      </trkpt>
      <trkpt lat="54.58583" lon="9.51092">
        <ele>24.200000762939</ele>
        <time>2019-05-22T11:12:49Z</time>
      </trkpt>
      <trkpt lat="54.58599" lon="9.51102">
        <ele>24.200000762939</ele>
        <time>2019-05-22T11:13:07Z</time>
      </trkpt>
      <trkpt lat="54.58599" lon="9.51111">
        <ele>24.799999237061</ele>
        <time>2019-05-22T11:13:24Z</time>
      </trkpt>
      <trkpt lat="54.58608" lon="9.51131">
        <ele>24.799999237061</ele>
        <time>2019-05-22T11:13:50Z</time>
      </trkpt>
      <trkpt lat="54.58636" lon="9.51154">
        <ele>25.39999961853</ele>
        <time>2019-05-22T11:14:10Z</time>
      </trkpt>
      <trkpt lat="54.58673" lon="9.51159">
        <ele>27</ele>
        <time>2019-05-22T11:14:25Z</time>
      </trkpt>
      <trkpt lat="54.58715" lon="9.51147">
        <ele>27.60000038147</ele>
        <time>2019-05-22T11:14:38Z</time>
      </trkpt>
      <trkpt lat="54.58798" lon="9.51125">
        <ele>27.60000038147</ele>
        <time>2019-05-22T11:15:20Z</time>
      </trkpt>
      <trkpt lat="54.58882" lon="9.51109">
        <ele>30</ele>
        <time>2019-05-22T11:15:38Z</time>
      </trkpt>
      <trkpt lat="54.58952" lon="9.51073">
        <ele>30</ele>
        <time>2019-05-22T11:16:00Z</time>
      </trkpt>
      <trkpt lat="54.58999" lon="9.51">
        <ele>30</ele>
        <time>2019-05-22T11:16:29Z</time>
      </trkpt>
      <trkpt lat="54.59041" lon="9.50939">
        <ele>30.39999961853</ele>
        <time>2019-05-22T11:16:49Z</time>
      </trkpt>
      <trkpt lat="54.59197" lon="9.50882">
        <ele>32.799999237061</ele>
        <time>2019-05-22T11:17:09Z</time>
      </trkpt>
      <trkpt lat="54.59277" lon="9.50832">
        <ele>32.400001525879</ele>
        <time>2019-05-22T11:17:33Z</time>
      </trkpt>
      <trkpt lat="54.59432" lon="9.50749">
        <ele>30.200000762939</ele>
        <time>2019-05-22T11:17:52Z</time>
      </trkpt>
      <trkpt lat="54.595" lon="9.50717">
        <ele>29.60000038147</ele>
        <time>2019-05-22T11:18:10Z</time>
      </trkpt>
      <trkpt lat="54.59567" lon="9.50674">
        <ele>31.39999961853</ele>
        <time>2019-05-22T11:18:35Z</time>
      </trkpt>
      <trkpt lat="54.59625" lon="9.5065">
        <ele>31.60000038147</ele>
        <time>2019-05-22T11:18:59Z</time>
      </trkpt>
      <trkpt lat="54.59701" lon="9.50645">
        <ele>29</ele>
        <time>2019-05-22T11:19:13Z</time>
      </trkpt>
      <trkpt lat="54.59738" lon="9.50633">
        <ele>28.60000038147</ele>
        <time>2019-05-22T11:19:19Z</time>
      </trkpt>
      <trkpt lat="54.59807" lon="9.50584">
        <ele>29</ele>
        <time>2019-05-22T11:19:39Z</time>
      </trkpt>
      <trkpt lat="54.59916" lon="9.50591">
        <ele>35.599998474121</ele>
        <time>2019-05-22T11:20:00Z</time>
      </trkpt>
      <trkpt lat="54.60025" lon="9.50607">
        <ele>36</ele>
        <time>2019-05-22T11:20:24Z</time>
      </trkpt>
      <trkpt lat="54.60059" lon="9.50698">
        <ele>37.400001525879</ele>
        <time>2019-05-22T11:20:31Z</time>
      </trkpt>
      <trkpt lat="54.60178" lon="9.50725">
        <ele>38.599998474121</ele>
        <time>2019-05-22T11:20:49Z</time>
      </trkpt>
      <trkpt lat="54.60273" lon="9.5075">
        <ele>38.799999237061</ele>
        <time>2019-05-22T11:21:05Z</time>
      </trkpt>
      <trkpt lat="54.60383" lon="9.50775">
        <ele>38.200000762939</ele>
        <time>2019-05-22T11:21:25Z</time>
      </trkpt>
      <trkpt lat="54.60494" lon="9.50803">
        <ele>38</ele>
        <time>2019-05-22T11:21:45Z</time>
      </trkpt>
      <trkpt lat="54.60571" lon="9.50821">
        <ele>38.200000762939</ele>
        <time>2019-05-22T11:22:06Z</time>
      </trkpt>
      <trkpt lat="54.60594" lon="9.50784">
        <ele>38.400001525879</ele>
        <time>2019-05-22T11:22:31Z</time>
      </trkpt>
      <trkpt lat="54.60645" lon="9.50611">
        <ele>38.200000762939</ele>
        <time>2019-05-22T11:22:57Z</time>
      </trkpt>
      <trkpt lat="54.60709" lon="9.50418">
        <ele>38.200000762939</ele>
        <time>2019-05-22T11:23:21Z</time>
      </trkpt>
      <trkpt lat="54.60755" lon="9.50415">
        <ele>37.799999237061</ele>
        <time>2019-05-22T11:23:44Z</time>
      </trkpt>
      <trkpt lat="54.60799" lon="9.50428">
        <ele>36.400001525879</ele>
        <time>2019-05-22T11:24:04Z</time>
      </trkpt>
      <trkpt lat="54.60873" lon="9.50401">
        <ele>37.599998474121</ele>
        <time>2019-05-22T11:24:23Z</time>
      </trkpt>
      <trkpt lat="54.60961" lon="9.50338">
        <ele>38.200000762939</ele>
        <time>2019-05-22T11:24:45Z</time>
      </trkpt>
      <trkpt lat="54.6105" lon="9.50258">
        <ele>37.599998474121</ele>
        <time>2019-05-22T11:25:00Z</time>
      </trkpt>
      <trkpt lat="54.6113" lon="9.50197">
        <ele>37.400001525879</ele>
        <time>2019-05-22T11:25:26Z</time>
      </trkpt>
      <trkpt lat="54.61169" lon="9.50166">
        <ele>36.799999237061</ele>
        <time>2019-05-22T11:25:50Z</time>
      </trkpt>
      <trkpt lat="54.61215" lon="9.50131">
        <ele>35.200000762939</ele>
        <time>2019-05-22T11:26:46Z</time>
      </trkpt>
      <trkpt lat="54.61243" lon="9.50111">
        <ele>34.799999237061</ele>
        <time>2019-05-22T11:26:55Z</time>
      </trkpt>
      <trkpt lat="54.61265" lon="9.50094">
        <ele>34.799999237061</ele>
        <time>2019-05-22T11:27:18Z</time>
      </trkpt>
      <trkpt lat="54.61286" lon="9.50079">
        <ele>36.799999237061</ele>
        <time>2019-05-22T11:27:38Z</time>
      </trkpt>
      <trkpt lat="54.61308" lon="9.50026">
        <ele>37</ele>
        <time>2019-05-22T11:27:58Z</time>
      </trkpt>
      <trkpt lat="54.61318" lon="9.49971">
        <ele>38</ele>
        <time>2019-05-22T11:28:11Z</time>
      </trkpt>
      <trkpt lat="54.61311" lon="9.49944">
        <ele>38</ele>
        <time>2019-05-22T11:28:30Z</time>
      </trkpt>
      <trkpt lat="54.61281" lon="9.49866">
        <ele>38.599998474121</ele>
        <time>2019-05-22T11:28:45Z</time>
      </trkpt>
      <trkpt lat="54.61225" lon="9.49785">
        <ele>37.200000762939</ele>
        <time>2019-05-22T11:29:08Z</time>
      </trkpt>
      <trkpt lat="54.612" lon="9.49726">
        <ele>35.799999237061</ele>
        <time>2019-05-22T11:29:27Z</time>
      </trkpt>
      <trkpt lat="54.61188" lon="9.49652">
        <ele>35.599998474121</ele>
        <time>2019-05-22T11:29:49Z</time>
      </trkpt>
      <trkpt lat="54.61166" lon="9.49529">
        <ele>34.799999237061</ele>
        <time>2019-05-22T11:30:13Z</time>
      </trkpt>
      <trkpt lat="54.61164" lon="9.49425">
        <ele>34.599998474121</ele>
        <time>2019-05-22T11:30:28Z</time>
      </trkpt>
      <trkpt lat="54.61153" lon="9.49335">
        <ele>35</ele>
        <time>2019-05-22T11:30:44Z</time>
      </trkpt>
      <trkpt lat="54.61159" lon="9.49162">
        <ele>33.400001525879</ele>
        <time>2019-05-22T11:30:59Z</time>
      </trkpt>
      <trkpt lat="54.61154" lon="9.49064">
        <ele>33.400001525879</ele>
        <time>2019-05-22T11:31:12Z</time>
      </trkpt>
      <trkpt lat="54.61134" lon="9.48991">
        <ele>33</ele>
        <time>2019-05-22T11:31:30Z</time>
      </trkpt>
      <trkpt lat="54.61112" lon="9.48976">
        <ele>32.400001525879</ele>
        <time>2019-05-22T11:31:50Z</time>
      </trkpt>
      <trkpt lat="54.61052" lon="9.48982">
        <ele>31.799999237061</ele>
        <time>2019-05-22T11:32:13Z</time>
      </trkpt>
      <trkpt lat="54.61006" lon="9.48986">
        <ele>31.799999237061</ele>
        <time>2019-05-22T11:32:29Z</time>
      </trkpt>
      <trkpt lat="54.61008" lon="9.4896">
        <ele>31.200000762939</ele>
        <time>2019-05-22T11:32:47Z</time>
      </trkpt>
      <trkpt lat="54.61018" lon="9.48912">
        <ele>31.39999961853</ele>
        <time>2019-05-22T11:33:09Z</time>
      </trkpt>
      <trkpt lat="54.61028" lon="9.48801">
        <ele>31.200000762939</ele>
        <time>2019-05-22T11:33:30Z</time>
      </trkpt>
      <trkpt lat="54.61057" lon="9.48613">
        <ele>31.200000762939</ele>
        <time>2019-05-22T11:33:46Z</time>
      </trkpt>
      <trkpt lat="54.6107" lon="9.48479">
        <ele>30.60000038147</ele>
        <time>2019-05-22T11:33:54Z</time>
      </trkpt>
      <trkpt lat="54.61067" lon="9.48338">
        <ele>30.200000762939</ele>
        <time>2019-05-22T11:34:14Z</time>
      </trkpt>
      <trkpt lat="54.61094" lon="9.48241">
        <ele>29.799999237061</ele>
        <time>2019-05-22T11:34:34Z</time>
      </trkpt>
      <trkpt lat="54.61147" lon="9.48189">
        <ele>29.799999237061</ele>
        <time>2019-05-22T11:34:57Z</time>
      </trkpt>
      <trkpt lat="54.61223" lon="9.48114">
        <ele>31</ele>
        <time>2019-05-22T11:35:07Z</time>
      </trkpt>
      <trkpt lat="54.61343" lon="9.48026">
        <ele>31.799999237061</ele>
        <time>2019-05-22T11:35:21Z</time>
      </trkpt>
      <trkpt lat="54.6139" lon="9.4793">
        <ele>32.200000762939</ele>
        <time>2019-05-22T11:35:47Z</time>
      </trkpt>
      <trkpt lat="54.61449" lon="9.47814">
        <ele>32.200000762939</ele>
        <time>2019-05-22T11:36:09Z</time>
      </trkpt>
      <trkpt lat="54.6153" lon="9.47752">
        <ele>31.799999237061</ele>
        <time>2019-05-22T11:36:22Z</time>
      </trkpt>
      <trkpt lat="54.61586" lon="9.47734">
        <ele>32.799999237061</ele>
        <time>2019-05-22T11:36:28Z</time>
      </trkpt>
      <trkpt lat="54.61597" lon="9.47721">
        <ele>33.599998474121</ele>
        <time>2019-05-22T11:36:53Z</time>
      </trkpt>
      <trkpt lat="54.61606" lon="9.47621">
        <ele>33.400001525879</ele>
        <time>2019-05-22T11:37:11Z</time>
      </trkpt>
      <trkpt lat="54.61612" lon="9.4754">
        <ele>32</ele>
        <time>2019-05-22T11:37:33Z</time>
      </trkpt>
      <trkpt lat="54.61619" lon="9.47432">
        <ele>28.200000762939</ele>
        <time>2019-05-22T11:37:49Z</time>
      </trkpt>
      <trkpt lat="54.61641" lon="9.47332">
        <ele>28.60000038147</ele>
        <time>2019-05-22T11:38:05Z</time>
      </trkpt>
      <trkpt lat="54.61669" lon="9.47296">
        <ele>30.60000038147</ele>
        <time>2019-05-22T11:38:14Z</time>
      </trkpt>
      <trkpt lat="54.61734" lon="9.47272">
        <ele>33.200000762939</ele>
        <time>2019-05-22T11:38:37Z</time>
      </trkpt>
      <trkpt lat="54.61776" lon="9.47165">
        <ele>36.799999237061</ele>
        <time>2019-05-22T11:38:56Z</time>
      </trkpt>
      <trkpt lat="54.61787" lon="9.47159">
        <ele>36.599998474121</ele>
        <time>2019-05-22T11:39:07Z</time>
      </trkpt>
      <trkpt lat="54.61839" lon="9.4713">
        <ele>36.400001525879</ele>
        <time>2019-05-22T11:39:19Z</time>
      </trkpt>
      <trkpt lat="54.61947" lon="9.47076">
        <ele>35.599998474121</ele>
        <time>2019-05-22T11:39:40Z</time>
      </trkpt>
      <trkpt lat="54.62067" lon="9.47037">
        <ele>33.599998474121</ele>
        <time>2019-05-22T11:40:02Z</time>
      </trkpt>
      <trkpt lat="54.62114" lon="9.47029">
        <ele>33.400001525879</ele>
        <time>2019-05-22T11:40:22Z</time>
      </trkpt>
      <trkpt lat="54.62278" lon="9.47072">
        <ele>36.599998474121</ele>
        <time>2019-05-22T11:40:39Z</time>
      </trkpt>
      <trkpt lat="54.62383" lon="9.47103">
        <ele>37.599998474121</ele>
        <time>2019-05-22T11:40:56Z</time>
      </trkpt>
      <trkpt lat="54.62433" lon="9.47116">
        <ele>37.599998474121</ele>
        <time>2019-05-22T11:41:04Z</time>
      </trkpt>
      <trkpt lat="54.62492" lon="9.47135">
        <ele>38.200000762939</ele>
        <time>2019-05-22T11:42:11Z</time>
      </trkpt>
      <trkpt lat="54.62557" lon="9.47156">
        <ele>39.599998474121</ele>
        <time>2019-05-22T11:42:34Z</time>
      </trkpt>
      <trkpt lat="54.6263" lon="9.47177">
        <ele>40</ele>
        <time>2019-05-22T11:42:50Z</time>
      </trkpt>
      <trkpt lat="54.62673" lon="9.47194">
        <ele>40</ele>
        <time>2019-05-22T11:55:10Z</time>
      </trkpt>
      <trkpt lat="54.62798" lon="9.47235">
        <ele>40.799999237061</ele>
        <time>2019-05-22T11:55:16Z</time>
      </trkpt>
      <trkpt lat="54.62922" lon="9.47251">
        <ele>42</ele>
        <time>2019-05-22T11:55:29Z</time>
      </trkpt>
      <trkpt lat="54.62956" lon="9.47235">
        <ele>42.200000762939</ele>
        <time>2019-05-22T11:55:49Z</time>
      </trkpt>
      <trkpt lat="54.6297" lon="9.47242">
        <ele>42.799999237061</ele>
        <time>2019-05-22T11:58:48Z</time>
      </trkpt>
      <trkpt lat="54.62979" lon="9.47307">
        <ele>43.200000762939</ele>
        <time>2019-05-22T11:59:14Z</time>
      </trkpt>
      <trkpt lat="54.62994" lon="9.47391">
        <ele>44</ele>
        <time>2019-05-22T11:59:42Z</time>
      </trkpt>
      <trkpt lat="54.63045" lon="9.47597">
        <ele>41.599998474121</ele>
        <time>2019-05-22T12:00:06Z</time>
      </trkpt>
      <trkpt lat="54.63095" lon="9.47731">
        <ele>41.599998474121</ele>
        <time>2019-05-22T12:00:31Z</time>
      </trkpt>
      <trkpt lat="54.63151" lon="9.47825">
        <ele>43</ele>
        <time>2019-05-22T12:02:35Z</time>
      </trkpt>
      <trkpt lat="54.63204" lon="9.47913">
        <ele>44</ele>
        <time>2019-05-22T12:02:48Z</time>
      </trkpt>
      <trkpt lat="54.63239" lon="9.47966">
        <ele>44.599998474121</ele>
        <time>2019-05-22T12:03:32Z</time>
      </trkpt>
      <trkpt lat="54.63319" lon="9.48101">
        <ele>45.599998474121</ele>
        <time>2019-05-22T12:04:07Z</time>
      </trkpt>
      <trkpt lat="54.63399" lon="9.48226">
        <ele>47.200000762939</ele>
        <time>2019-05-22T12:04:58Z</time>
      </trkpt>
      <trkpt lat="54.63447" lon="9.48293">
        <ele>47.200000762939</ele>
        <time>2019-05-22T12:05:23Z</time>
      </trkpt>
      <trkpt lat="54.63503" lon="9.48365">
        <ele>46.599998474121</ele>
        <time>2019-05-22T12:06:02Z</time>
      </trkpt>
      <trkpt lat="54.63578" lon="9.48462">
        <ele>46</ele>
        <time>2019-05-22T12:06:38Z</time>
      </trkpt>
      <trkpt lat="54.63617" lon="9.48532">
        <ele>46</ele>
        <time>2019-05-22T12:06:56Z</time>
      </trkpt>
      <trkpt lat="54.63629" lon="9.48618">
        <ele>45</ele>
        <time>2019-05-22T12:07:26Z</time>
      </trkpt>
      <trkpt lat="54.63639" lon="9.48789">
        <ele>45</ele>
        <time>2019-05-22T12:07:57Z</time>
      </trkpt>
      <trkpt lat="54.6363" lon="9.48928">
        <ele>46.200000762939</ele>
        <time>2019-05-22T12:08:36Z</time>
      </trkpt>
      <trkpt lat="54.63629" lon="9.49024">
        <ele>47.799999237061</ele>
        <time>2019-05-22T12:09:20Z</time>
      </trkpt>
      <trkpt lat="54.6364" lon="9.49137">
        <ele>48.400001525879</ele>
        <time>2019-05-22T12:09:34Z</time>
      </trkpt>
      <trkpt lat="54.63649" lon="9.49147">
        <ele>48.799999237061</ele>
        <time>2019-05-22T12:10:17Z</time>
      </trkpt>
      <trkpt lat="54.6369" lon="9.49122">
        <ele>48.799999237061</ele>
        <time>2019-05-22T12:10:52Z</time>
      </trkpt>
      <trkpt lat="54.63763" lon="9.49078">
        <ele>47</ele>
        <time>2019-05-22T12:11:35Z</time>
      </trkpt>
      <trkpt lat="54.63809" lon="9.49057">
        <ele>43.200000762939</ele>
        <time>2019-05-22T12:12:08Z</time>
      </trkpt>
      <trkpt lat="54.6384" lon="9.48989">
        <ele>42.799999237061</ele>
        <time>2019-05-22T12:12:51Z</time>
      </trkpt>
      <trkpt lat="54.63909" lon="9.48958">
        <ele>42.799999237061</ele>
        <time>2019-05-22T12:13:15Z</time>
      </trkpt>
      <trkpt lat="54.64003" lon="9.4875">
        <ele>33.200000762939</ele>
        <time>2019-05-22T12:13:51Z</time>
      </trkpt>
      <trkpt lat="54.64036" lon="9.48689">
        <ele>34.400001525879</ele>
        <time>2019-05-22T12:14:30Z</time>
      </trkpt>
      <trkpt lat="54.64065" lon="9.48618">
        <ele>38</ele>
        <time>2019-05-22T12:15:10Z</time>
      </trkpt>
      <trkpt lat="54.64125" lon="9.48414">
        <ele>41.200000762939</ele>
        <time>2019-05-22T12:15:33Z</time>
      </trkpt>
      <trkpt lat="54.64141" lon="9.4835">
        <ele>41.400001525879</ele>
        <time>2019-05-22T12:15:51Z</time>
      </trkpt>
      <trkpt lat="54.64186" lon="9.48211">
        <ele>39.799999237061</ele>
        <time>2019-05-22T12:16:13Z</time>
      </trkpt>
      <trkpt lat="54.64215" lon="9.48126">
        <ele>40</ele>
        <time>2019-05-22T12:16:38Z</time>
      </trkpt>
      <trkpt lat="54.64233" lon="9.48074">
        <ele>40.400001525879</ele>
        <time>2019-05-22T12:17:21Z</time>
      </trkpt>
      <trkpt lat="54.64247" lon="9.4804">
        <ele>41</ele>
        <time>2019-05-22T12:18:05Z</time>
      </trkpt>
      <trkpt lat="54.64287" lon="9.47965">
        <ele>40.799999237061</ele>
        <time>2019-05-22T12:19:00Z</time>
      </trkpt>
      <trkpt lat="54.64338" lon="9.47937">
        <ele>40</ele>
        <time>2019-05-22T12:19:12Z</time>
      </trkpt>
      <trkpt lat="54.64383" lon="9.47855">
        <ele>39.200000762939</ele>
        <time>2019-05-22T12:19:27Z</time>
      </trkpt>
      <trkpt lat="54.64454" lon="9.4783">
        <ele>40</ele>
        <time>2019-05-22T12:19:40Z</time>
      </trkpt>
      <trkpt lat="54.64524" lon="9.47765">
        <ele>43.799999237061</ele>
        <time>2019-05-22T12:20:05Z</time>
      </trkpt>
      <trkpt lat="54.64571" lon="9.47682">
        <ele>43.799999237061</ele>
        <time>2019-05-22T12:20:19Z</time>
      </trkpt>
      <trkpt lat="54.64565" lon="9.47631">
        <ele>44.400001525879</ele>
        <time>2019-05-22T12:20:30Z</time>
      </trkpt>
      <trkpt lat="54.64561" lon="9.47604">
        <ele>45.599998474121</ele>
        <time>2019-05-22T12:20:38Z</time>
      </trkpt>
      <trkpt lat="54.64518" lon="9.47487">
        <ele>47.599998474121</ele>
        <time>2019-05-22T12:20:48Z</time>
      </trkpt>
      <trkpt lat="54.64614" lon="9.47294">
        <ele>51</ele>
        <time>2019-05-22T12:20:57Z</time>
      </trkpt>
      <trkpt lat="54.64675" lon="9.4719">
        <ele>49.799999237061</ele>
        <time>2019-05-22T12:21:31Z</time>
      </trkpt>
      <trkpt lat="54.64731" lon="9.47101">
        <ele>50.799999237061</ele>
        <time>2019-05-22T12:21:41Z</time>
      </trkpt>
      <trkpt lat="54.64751" lon="9.47069">
        <ele>52.400001525879</ele>
        <time>2019-05-22T12:22:00Z</time>
      </trkpt>
      <trkpt lat="54.64807" lon="9.46973">
        <ele>55.200000762939</ele>
        <time>2019-05-22T12:22:08Z</time>
      </trkpt>
      <trkpt lat="54.64897" lon="9.46841">
        <ele>54</ele>
        <time>2019-05-22T12:22:22Z</time>
      </trkpt>
      <trkpt lat="54.64938" lon="9.46798">
        <ele>53</ele>
        <time>2019-05-22T12:22:40Z</time>
      </trkpt>
      <trkpt lat="54.64979" lon="9.46744">
        <ele>50.200000762939</ele>
        <time>2019-05-22T12:23:34Z</time>
      </trkpt>
      <trkpt lat="54.65017" lon="9.46681">
        <ele>49.200000762939</ele>
        <time>2019-05-22T12:23:46Z</time>
      </trkpt>
      <trkpt lat="54.65065" lon="9.46597">
        <ele>51.400001525879</ele>
        <time>2019-05-22T12:24:03Z</time>
      </trkpt>
      <trkpt lat="54.65097" lon="9.4654">
        <ele>51.400001525879</ele>
        <time>2019-05-22T12:24:23Z</time>
      </trkpt>
      <trkpt lat="54.65115" lon="9.46517">
        <ele>50.400001525879</ele>
        <time>2019-05-22T12:24:43Z</time>
      </trkpt>
      <trkpt lat="54.65129" lon="9.46507">
        <ele>50.400001525879</ele>
        <time>2019-05-22T12:25:02Z</time>
      </trkpt>
      <trkpt lat="54.65169" lon="9.46467">
        <ele>49.200000762939</ele>
        <time>2019-05-22T12:25:17Z</time>
      </trkpt>
      <trkpt lat="54.65227" lon="9.46403">
        <ele>48.400001525879</ele>
        <time>2019-05-22T12:25:50Z</time>
      </trkpt>
      <trkpt lat="54.65336" lon="9.46292">
        <ele>51.400001525879</ele>
        <time>2019-05-22T12:26:04Z</time>
      </trkpt>
      <trkpt lat="54.65394" lon="9.46236">
        <ele>54</ele>
        <time>2019-05-22T12:26:26Z</time>
      </trkpt>
      <trkpt lat="54.65426" lon="9.46206">
        <ele>54.400001525879</ele>
        <time>2019-05-22T12:26:37Z</time>
      </trkpt>
      <trkpt lat="54.65504" lon="9.46157">
        <ele>53.599998474121</ele>
        <time>2019-05-22T12:26:55Z</time>
      </trkpt>
      <trkpt lat="54.65557" lon="9.46144">
        <ele>49.799999237061</ele>
        <time>2019-05-22T12:27:15Z</time>
      </trkpt>
      <trkpt lat="54.65609" lon="9.46106">
        <ele>46.599998474121</ele>
        <time>2019-05-22T12:27:27Z</time>
      </trkpt>
      <trkpt lat="54.65629" lon="9.46078">
        <ele>45.799999237061</ele>
        <time>2019-05-22T12:27:42Z</time>
      </trkpt>
      <trkpt lat="54.65648" lon="9.46035">
        <ele>45</ele>
        <time>2019-05-22T12:28:26Z</time>
      </trkpt>
      <trkpt lat="54.65786" lon="9.45896">
        <ele>45</ele>
        <time>2019-05-22T12:28:43Z</time>
      </trkpt>
      <trkpt lat="54.65796" lon="9.45788">
        <ele>46</ele>
        <time>2019-05-22T12:59:41Z</time>
      </trkpt>
      <trkpt lat="54.658" lon="9.45712">
        <ele>47</ele>
        <time>2019-05-22T01:00:24Z</time>
      </trkpt>
      <trkpt lat="54.65807" lon="9.45603">
        <ele>49.200000762939</ele>
        <time>2019-05-22T01:00:32Z</time>
      </trkpt>
      <trkpt lat="54.65813" lon="9.45557">
        <ele>50.799999237061</ele>
        <time>2019-05-22T01:00:50Z</time>
      </trkpt>
      <trkpt lat="54.65836" lon="9.45489">
        <ele>54.599998474121</ele>
        <time>2019-05-22T01:01:03Z</time>
      </trkpt>
      <trkpt lat="54.65911" lon="9.45415">
        <ele>62.400001525879</ele>
        <time>2019-05-22T01:01:26Z</time>
      </trkpt>
      <trkpt lat="54.65935" lon="9.45412">
        <ele>63.599998474121</ele>
        <time>2019-05-22T01:01:32Z</time>
      </trkpt>
      <trkpt lat="54.65996" lon="9.454">
        <ele>64</ele>
        <time>2019-05-22T01:02:28Z</time>
      </trkpt>
      <trkpt lat="54.66059" lon="9.45388">
        <ele>63.799999237061</ele>
        <time>2019-05-22T01:02:39Z</time>
      </trkpt>
      <trkpt lat="54.66146" lon="9.45356">
        <ele>63.599998474121</ele>
        <time>2019-05-22T01:02:58Z</time>
      </trkpt>
      <trkpt lat="54.66228" lon="9.45335">
        <ele>62.599998474121</ele>
        <time>2019-05-22T01:03:18Z</time>
      </trkpt>
      <trkpt lat="54.66363" lon="9.45316">
        <ele>60.200000762939</ele>
        <time>2019-05-22T01:03:37Z</time>
      </trkpt>
      <trkpt lat="54.66436" lon="9.45411">
        <ele>57</ele>
        <time>2019-05-22T01:03:57Z</time>
      </trkpt>
      <trkpt lat="54.66451" lon="9.45433">
        <ele>55.400001525879</ele>
        <time>2019-05-22T01:04:16Z</time>
      </trkpt>
      <trkpt lat="54.66456" lon="9.45438">
        <ele>55.799999237061</ele>
        <time>2019-05-22T01:04:28Z</time>
      </trkpt>
      <trkpt lat="54.66495" lon="9.45448">
        <ele>55.599998474121</ele>
        <time>2019-05-22T01:04:52Z</time>
      </trkpt>
      <trkpt lat="54.6685" lon="9.45316">
        <ele>44.599998474121</ele>
        <time>2019-05-22T01:05:13Z</time>
      </trkpt>
      <trkpt lat="54.66877" lon="9.4529">
        <ele>43.599998474121</ele>
        <time>2019-05-22T01:05:28Z</time>
      </trkpt>
      <trkpt lat="54.66942" lon="9.45174">
        <ele>41.200000762939</ele>
        <time>2019-05-22T01:05:43Z</time>
      </trkpt>
      <trkpt lat="54.67162" lon="9.45196">
        <ele>38.599998474121</ele>
        <time>2019-05-22T01:06:03Z</time>
      </trkpt>
      <trkpt lat="54.67205" lon="9.45197">
        <ele>38.200000762939</ele>
        <time>2019-05-22T01:06:25Z</time>
      </trkpt>
      <trkpt lat="54.67253" lon="9.45159">
        <ele>37.599998474121</ele>
        <time>2019-05-22T01:06:49Z</time>
      </trkpt>
      <trkpt lat="54.67321" lon="9.45074">
        <ele>37.400001525879</ele>
        <time>2019-05-22T01:07:03Z</time>
      </trkpt>
      <trkpt lat="54.67339" lon="9.45006">
        <ele>39.599998474121</ele>
        <time>2019-05-22T01:10:37Z</time>
      </trkpt>
      <trkpt lat="54.67365" lon="9.4494">
        <ele>39.799999237061</ele>
        <time>2019-05-22T01:10:51Z</time>
      </trkpt>
      <trkpt lat="54.67537" lon="9.44979">
        <ele>38.599998474121</ele>
        <time>2019-05-22T01:11:09Z</time>
      </trkpt>
      <trkpt lat="54.67568" lon="9.44987">
        <ele>38.200000762939</ele>
        <time>2019-05-22T01:11:33Z</time>
      </trkpt>
      <trkpt lat="54.67654" lon="9.45014">
        <ele>34.799999237061</ele>
        <time>2019-05-22T01:11:53Z</time>
      </trkpt>
      <trkpt lat="54.67677" lon="9.45003">
        <ele>33.400001525879</ele>
        <time>2019-05-22T01:12:08Z</time>
      </trkpt>
      <trkpt lat="54.67695" lon="9.44888">
        <ele>33</ele>
        <time>2019-05-22T01:12:29Z</time>
      </trkpt>
      <trkpt lat="54.67775" lon="9.44874">
        <ele>35.400001525879</ele>
        <time>2019-05-22T01:12:44Z</time>
      </trkpt>
      <trkpt lat="54.67919" lon="9.44886">
        <ele>35</ele>
        <time>2019-05-22T01:12:56Z</time>
      </trkpt>
      <trkpt lat="54.6794" lon="9.44881">
        <ele>35.400001525879</ele>
        <time>2019-05-22T01:13:22Z</time>
      </trkpt>
      <trkpt lat="54.67939" lon="9.44845">
        <ele>35.400001525879</ele>
        <time>2019-05-22T01:13:37Z</time>
      </trkpt>
      <trkpt lat="54.67952" lon="9.44684">
        <ele>33.200000762939</ele>
        <time>2019-05-22T01:13:47Z</time>
      </trkpt>
      <trkpt lat="54.67974" lon="9.44638">
        <ele>32.200000762939</ele>
        <time>2019-05-22T01:13:58Z</time>
      </trkpt>
      <trkpt lat="54.68058" lon="9.44627">
        <ele>30</ele>
        <time>2019-05-22T01:14:10Z</time>
      </trkpt>
      <trkpt lat="54.68159" lon="9.44588">
        <ele>29.39999961853</ele>
        <time>2019-05-22T01:23:29Z</time>
      </trkpt>
      <trkpt lat="54.68242" lon="9.44578">
        <ele>29.39999961853</ele>
        <time>2019-05-22T01:23:37Z</time>
      </trkpt>
      <trkpt lat="54.68272" lon="9.4461">
        <ele>29.60000038147</ele>
        <time>2019-05-22T01:23:42Z</time>
      </trkpt>
      <trkpt lat="54.68321" lon="9.44604">
        <ele>29.799999237061</ele>
        <time>2019-05-22T01:23:59Z</time>
      </trkpt>
      <trkpt lat="54.68485" lon="9.44561">
        <ele>28.60000038147</ele>
        <time>2019-05-22T01:24:22Z</time>
      </trkpt>
      <trkpt lat="54.68576" lon="9.44522">
        <ele>29.200000762939</ele>
        <time>2019-05-22T01:24:45Z</time>
      </trkpt>
      <trkpt lat="54.68663" lon="9.44535">
        <ele>30.39999961853</ele>
        <time>2019-05-22T01:25:10Z</time>
      </trkpt>
      <trkpt lat="54.68728" lon="9.44501">
        <ele>30.60000038147</ele>
        <time>2019-05-22T01:25:28Z</time>
      </trkpt>
      <trkpt lat="54.68791" lon="9.44513">
        <ele>31.39999961853</ele>
        <time>2019-05-22T01:25:35Z</time>
      </trkpt>
      <trkpt lat="54.68805" lon="9.44519">
        <ele>32.599998474121</ele>
        <time>2019-05-22T01:25:45Z</time>
      </trkpt>
      <trkpt lat="54.68866" lon="9.44542">
        <ele>32.599998474121</ele>
        <time>2019-05-22T01:26:03Z</time>
      </trkpt>
      <trkpt lat="54.68968" lon="9.44481">
        <ele>36.200000762939</ele>
        <time>2019-05-22T01:26:59Z</time>
      </trkpt>
      <trkpt lat="54.68978" lon="9.44464">
        <ele>37.599998474121</ele>
        <time>2019-05-22T01:27:15Z</time>
      </trkpt>
      <trkpt lat="54.6899" lon="9.44392">
        <ele>37.599998474121</ele>
        <time>2019-05-22T01:27:23Z</time>
      </trkpt>
      <trkpt lat="54.69018" lon="9.4423">
        <ele>36.799999237061</ele>
        <time>2019-05-22T01:27:36Z</time>
      </trkpt>
      <trkpt lat="54.69034" lon="9.44142">
        <ele>36.599998474121</ele>
        <time>2019-05-22T01:28:03Z</time>
      </trkpt>
      <trkpt lat="54.6906" lon="9.44014">
        <ele>37</ele>
        <time>2019-05-22T01:28:25Z</time>
      </trkpt>
      <trkpt lat="54.69084" lon="9.4389">
        <ele>37.799999237061</ele>
        <time>2019-05-22T01:28:39Z</time>
      </trkpt>
      <trkpt lat="54.69094" lon="9.43811">
        <ele>39.599998474121</ele>
        <time>2019-05-22T01:28:54Z</time>
      </trkpt>
      <trkpt lat="54.69114" lon="9.43703">
        <ele>39.200000762939</ele>
        <time>2019-05-22T01:29:10Z</time>
      </trkpt>
      <trkpt lat="54.69142" lon="9.43558">
        <ele>39.200000762939</ele>
        <time>2019-05-22T01:29:26Z</time>
      </trkpt>
      <trkpt lat="54.69151" lon="9.43412">
        <ele>40</ele>
        <time>2019-05-22T01:29:38Z</time>
      </trkpt>
      <trkpt lat="54.69174" lon="9.43303">
        <ele>37.799999237061</ele>
        <time>2019-05-22T01:29:56Z</time>
      </trkpt>
      <trkpt lat="54.69192" lon="9.43212">
        <ele>37</ele>
        <time>2019-05-22T01:30:16Z</time>
      </trkpt>
      <trkpt lat="54.69207" lon="9.4319">
        <ele>35.599998474121</ele>
        <time>2019-05-22T01:30:39Z</time>
      </trkpt>
      <trkpt lat="54.69251" lon="9.43184">
        <ele>35.799999237061</ele>
        <time>2019-05-22T01:30:53Z</time>
      </trkpt>
      <trkpt lat="54.69252" lon="9.43183">
        <ele>37</ele>
        <time>2019-05-22T01:30:58Z</time>
      </trkpt>
      <trkpt lat="54.69231" lon="9.43187">
        <ele>37</ele>
        <time>2019-05-22T01:31:16Z</time>
      </trkpt>
      <trkpt lat="54.69189" lon="9.4318">
        <ele>35.799999237061</ele>
        <time>2019-05-22T01:31:35Z</time>
      </trkpt>
      <trkpt lat="54.69186" lon="9.43132">
        <ele>34.200000762939</ele>
        <time>2019-05-22T01:31:57Z</time>
      </trkpt>
      <trkpt lat="54.69194" lon="9.43095">
        <ele>34.200000762939</ele>
        <time>2019-05-22T01:32:13Z</time>
      </trkpt>
      <trkpt lat="54.69208" lon="9.43081">
        <ele>34.799999237061</ele>
        <time>2019-05-22T01:32:37Z</time>
      </trkpt>
      <trkpt lat="54.69241" lon="9.43117">
        <ele>35.799999237061</ele>
        <time>2019-05-22T01:32:50Z</time>
      </trkpt>
      <trkpt lat="54.69285" lon="9.43125">
        <ele>37.400001525879</ele>
        <time>2019-05-22T01:33:07Z</time>
      </trkpt>
      <trkpt lat="54.6934" lon="9.43035">
        <ele>36.799999237061</ele>
        <time>2019-05-22T01:33:21Z</time>
      </trkpt>
      <trkpt lat="54.6936" lon="9.43006">
        <ele>36.400001525879</ele>
        <time>2019-05-22T01:33:39Z</time>
      </trkpt>
      <trkpt lat="54.69364" lon="9.42883">
        <ele>33.599998474121</ele>
        <time>2019-05-22T01:34:00Z</time>
      </trkpt>
      <trkpt lat="54.69408" lon="9.42831">
        <ele>31.39999961853</ele>
        <time>2019-05-22T01:34:21Z</time>
      </trkpt>
      <trkpt lat="54.6946" lon="9.42805">
        <ele>31.60000038147</ele>
        <time>2019-05-22T01:34:34Z</time>
      </trkpt>
      <trkpt lat="54.69501" lon="9.42756">
        <ele>33.599998474121</ele>
        <time>2019-05-22T01:34:51Z</time>
      </trkpt>
      <trkpt lat="54.69508" lon="9.42751">
        <ele>36.200000762939</ele>
        <time>2019-05-22T01:35:07Z</time>
      </trkpt>
      <trkpt lat="54.69601" lon="9.42768">
        <ele>38.400001525879</ele>
        <time>2019-05-22T01:35:26Z</time>
      </trkpt>
      <trkpt lat="54.69658" lon="9.4278">
        <ele>39.400001525879</ele>
        <time>2019-05-22T01:35:39Z</time>
      </trkpt>
      <trkpt lat="54.69897" lon="9.42899">
        <ele>41.799999237061</ele>
        <time>2019-05-22T01:35:53Z</time>
      </trkpt>
      <trkpt lat="54.69971" lon="9.42933">
        <ele>41.400001525879</ele>
        <time>2019-05-22T01:36:08Z</time>
      </trkpt>
      <trkpt lat="54.70039" lon="9.42965">
        <ele>41.599998474121</ele>
        <time>2019-05-22T01:36:25Z</time>
      </trkpt>
      <trkpt lat="54.70099" lon="9.4299">
        <ele>41.200000762939</ele>
        <time>2019-05-22T01:36:36Z</time>
      </trkpt>
      <trkpt lat="54.70103" lon="9.42998">
        <ele>41</ele>
        <time>2019-05-22T01:36:53Z</time>
      </trkpt>
      <trkpt lat="54.70106" lon="9.43042">
        <ele>40.799999237061</ele>
        <time>2019-05-22T01:37:14Z</time>
      </trkpt>
      <trkpt lat="54.70135" lon="9.43175">
        <ele>38.599998474121</ele>
        <time>2019-05-22T01:37:23Z</time>
      </trkpt>
      <trkpt lat="54.70172" lon="9.43241">
        <ele>37</ele>
        <time>2019-05-22T01:37:33Z</time>
      </trkpt>
      <trkpt lat="54.7021" lon="9.43266">
        <ele>35.400001525879</ele>
        <time>2019-05-22T01:37:44Z</time>
      </trkpt>
      <trkpt lat="54.70232" lon="9.43293">
        <ele>35.400001525879</ele>
        <time>2019-05-22T01:37:57Z</time>
      </trkpt>
      <trkpt lat="54.70257" lon="9.43347">
        <ele>36.599998474121</ele>
        <time>2019-05-22T01:38:16Z</time>
      </trkpt>
      <trkpt lat="54.70337" lon="9.43457">
        <ele>37.599998474121</ele>
        <time>2019-05-22T01:38:36Z</time>
      </trkpt>
      <trkpt lat="54.70421" lon="9.43543">
        <ele>40</ele>
        <time>2019-05-22T01:38:56Z</time>
      </trkpt>
      <trkpt lat="54.70487" lon="9.43608">
        <ele>39.400001525879</ele>
        <time>2019-05-22T01:39:12Z</time>
      </trkpt>
      <trkpt lat="54.70498" lon="9.43621">
        <ele>38.799999237061</ele>
        <time>2019-05-22T01:39:34Z</time>
      </trkpt>
      <trkpt lat="54.70502" lon="9.43585">
        <ele>38.400001525879</ele>
        <time>2019-05-22T01:39:50Z</time>
      </trkpt>
      <trkpt lat="54.70583" lon="9.4344">
        <ele>38</ele>
        <time>2019-05-22T01:40:11Z</time>
      </trkpt>
      <trkpt lat="54.70588" lon="9.43377">
        <ele>37.599998474121</ele>
        <time>2019-05-22T01:40:26Z</time>
      </trkpt>
      <trkpt lat="54.70547" lon="9.4328">
        <ele>38.400001525879</ele>
        <time>2019-05-22T01:40:44Z</time>
      </trkpt>
      <trkpt lat="54.70529" lon="9.43205">
        <ele>39.200000762939</ele>
        <time>2019-05-22T01:41:05Z</time>
      </trkpt>
      <trkpt lat="54.70489" lon="9.42904">
        <ele>40.599998474121</ele>
        <time>2019-05-22T01:41:24Z</time>
      </trkpt>
      <trkpt lat="54.70459" lon="9.42654">
        <ele>40.599998474121</ele>
        <time>2019-05-22T01:41:34Z</time>
      </trkpt>
      <trkpt lat="54.70437" lon="9.42501">
        <ele>39.200000762939</ele>
        <time>2019-05-22T01:41:55Z</time>
      </trkpt>
      <trkpt lat="54.70436" lon="9.42418">
        <ele>37.200000762939</ele>
        <time>2019-05-22T01:42:10Z</time>
      </trkpt>
      <trkpt lat="54.70437" lon="9.42305">
        <ele>38.799999237061</ele>
        <time>2019-05-22T01:42:23Z</time>
      </trkpt>
      <trkpt lat="54.70435" lon="9.42192">
        <ele>40</ele>
        <time>2019-05-22T01:42:42Z</time>
      </trkpt>
      <trkpt lat="54.70433" lon="9.4209">
        <ele>40.200000762939</ele>
        <time>2019-05-22T01:43:02Z</time>
      </trkpt>
      <trkpt lat="54.70477" lon="9.42017">
        <ele>40.200000762939</ele>
        <time>2019-05-22T01:43:23Z</time>
      </trkpt>
      <trkpt lat="54.70545" lon="9.41907">
        <ele>40.400001525879</ele>
        <time>2019-05-22T01:43:36Z</time>
      </trkpt>
      <trkpt lat="54.70592" lon="9.41833">
        <ele>41.400001525879</ele>
        <time>2019-05-22T01:43:55Z</time>
      </trkpt>
      <trkpt lat="54.70683" lon="9.4169">
        <ele>40.200000762939</ele>
        <time>2019-05-22T01:44:11Z</time>
      </trkpt>
      <trkpt lat="54.70749" lon="9.41616">
        <ele>41</ele>
        <time>2019-05-22T01:44:29Z</time>
      </trkpt>
      <trkpt lat="54.70794" lon="9.41581">
        <ele>41.799999237061</ele>
        <time>2019-05-22T01:44:50Z</time>
      </trkpt>
      <trkpt lat="54.70868" lon="9.4152">
        <ele>41.799999237061</ele>
        <time>2019-05-22T01:45:00Z</time>
      </trkpt>
      <trkpt lat="54.70947" lon="9.41458">
        <ele>41</ele>
        <time>2019-05-22T01:45:21Z</time>
      </trkpt>
      <trkpt lat="54.71017" lon="9.41402">
        <ele>40.599998474121</ele>
        <time>2019-05-22T01:45:33Z</time>
      </trkpt>
      <trkpt lat="54.71086" lon="9.41356">
        <ele>41.200000762939</ele>
        <time>2019-05-22T01:45:58Z</time>
      </trkpt>
      <trkpt lat="54.71126" lon="9.41437">
        <ele>41.200000762939</ele>
        <time>2019-05-22T01:46:06Z</time>
      </trkpt>
      <trkpt lat="54.71183" lon="9.41467">
        <ele>41</ele>
        <time>2019-05-22T01:46:46Z</time>
      </trkpt>
      <trkpt lat="54.71269" lon="9.41586">
        <ele>39</ele>
        <time>2019-05-22T01:47:03Z</time>
      </trkpt>
      <trkpt lat="54.71312" lon="9.41657">
        <ele>37</ele>
        <time>2019-05-22T01:52:40Z</time>
      </trkpt>
      <trkpt lat="54.71347" lon="9.41714">
        <ele>36.799999237061</ele>
        <time>2019-05-22T01:52:54Z</time>
      </trkpt>
      <trkpt lat="54.7143" lon="9.41841">
        <ele>37</ele>
        <time>2019-05-22T01:53:09Z</time>
      </trkpt>
      <trkpt lat="54.71477" lon="9.41834">
        <ele>38.400001525879</ele>
        <time>2019-05-22T01:53:29Z</time>
      </trkpt>
      <trkpt lat="54.71607" lon="9.41806">
        <ele>45.599998474121</ele>
        <time>2019-05-22T01:53:43Z</time>
      </trkpt>
      <trkpt lat="54.71644" lon="9.41817">
        <ele>46.400001525879</ele>
        <time>2019-05-22T01:54:06Z</time>
      </trkpt>
      <trkpt lat="54.71654" lon="9.41877">
        <ele>47</ele>
        <time>2019-05-22T01:54:21Z</time>
      </trkpt>
      <trkpt lat="54.71662" lon="9.41968">
        <ele>47</ele>
        <time>2019-05-22T01:54:46Z</time>
      </trkpt>
      <trkpt lat="54.71677" lon="9.42199">
        <ele>46.599998474121</ele>
        <time>2019-05-22T01:55:05Z</time>
      </trkpt>
      <trkpt lat="54.71681" lon="9.42317">
        <ele>46.200000762939</ele>
        <time>2019-05-22T01:55:25Z</time>
      </trkpt>
      <trkpt lat="54.71686" lon="9.42432">
        <ele>46.200000762939</ele>
        <time>2019-05-22T01:55:44Z</time>
      </trkpt>
      <trkpt lat="54.71704" lon="9.42511">
        <ele>45.799999237061</ele>
        <time>2019-05-22T01:56:05Z</time>
      </trkpt>
      <trkpt lat="54.71751" lon="9.425">
        <ele>45</ele>
        <time>2019-05-22T01:56:25Z</time>
      </trkpt>
      <trkpt lat="54.71874" lon="9.42451">
        <ele>45.799999237061</ele>
        <time>2019-05-22T01:56:42Z</time>
      </trkpt>
      <trkpt lat="54.71883" lon="9.42441">
        <ele>45.599998474121</ele>
        <time>2019-05-22T01:56:57Z</time>
      </trkpt>
      <trkpt lat="54.71874" lon="9.42366">
        <ele>45.200000762939</ele>
        <time>2019-05-22T01:57:03Z</time>
      </trkpt>
      <trkpt lat="54.71873" lon="9.4217">
        <ele>45.200000762939</ele>
        <time>2019-05-22T01:57:08Z</time>
      </trkpt>
      <trkpt lat="54.71888" lon="9.42014">
        <ele>45.599998474121</ele>
        <time>2019-05-22T01:57:17Z</time>
      </trkpt>
      <trkpt lat="54.71887" lon="9.41872">
        <ele>45.400001525879</ele>
        <time>2019-05-22T01:57:38Z</time>
      </trkpt>
      <trkpt lat="54.7188" lon="9.41701">
        <ele>45.200000762939</ele>
        <time>2019-05-22T01:57:49Z</time>
      </trkpt>
      <trkpt lat="54.71848" lon="9.41528">
        <ele>44.799999237061</ele>
        <time>2019-05-22T01:57:56Z</time>
      </trkpt>
      <trkpt lat="54.71823" lon="9.41406">
        <ele>44.599998474121</ele>
        <time>2019-05-22T01:58:10Z</time>
      </trkpt>
      <trkpt lat="54.71801" lon="9.41262">
        <ele>45</ele>
        <time>2019-05-22T01:58:32Z</time>
      </trkpt>
      <trkpt lat="54.71781" lon="9.41116">
        <ele>44.799999237061</ele>
        <time>2019-05-22T02:03:42Z</time>
      </trkpt>
      <trkpt lat="54.7176" lon="9.41123">
        <ele>44.599998474121</ele>
        <time>2019-05-22T02:04:04Z</time>
      </trkpt>
      <trkpt lat="54.71648" lon="9.41209">
        <ele>44.599998474121</ele>
        <time>2019-05-22T02:04:10Z</time>
      </trkpt>
      <trkpt lat="54.7164" lon="9.41225">
        <ele>43.400001525879</ele>
        <time>2019-05-22T02:04:19Z</time>
      </trkpt>
      <trkpt lat="54.7164" lon="9.41193">
        <ele>43.599998474121</ele>
        <time>2019-05-22T02:04:31Z</time>
      </trkpt>
      <trkpt lat="54.71639" lon="9.41062">
        <ele>43.599998474121</ele>
        <time>2019-05-22T02:04:49Z</time>
      </trkpt>
      <trkpt lat="54.71633" lon="9.40866">
        <ele>43</ele>
        <time>2019-05-22T02:05:00Z</time>
      </trkpt>
      <trkpt lat="54.71605" lon="9.40776">
        <ele>43</ele>
        <time>2019-05-22T02:05:19Z</time>
      </trkpt>
      <trkpt lat="54.71541" lon="9.40786">
        <ele>42.599998474121</ele>
        <time>2019-05-22T02:05:37Z</time>
      </trkpt>
      <trkpt lat="54.71514" lon="9.40726">
        <ele>42.400001525879</ele>
        <time>2019-05-22T02:05:52Z</time>
      </trkpt>
      <trkpt lat="54.71477" lon="9.40598">
        <ele>42.400001525879</ele>
        <time>2019-05-22T02:06:12Z</time>
      </trkpt>
      <trkpt lat="54.71432" lon="9.40432">
        <ele>42.599998474121</ele>
        <time>2019-05-22T02:06:33Z</time>
      </trkpt>
      <trkpt lat="54.71359" lon="9.40403">
        <ele>42.400001525879</ele>
        <time>2019-05-22T02:06:42Z</time>
      </trkpt>
      <trkpt lat="54.71289" lon="9.40412">
        <ele>42</ele>
        <time>2019-05-22T02:06:50Z</time>
      </trkpt>
      <trkpt lat="54.71219" lon="9.40493">
        <ele>41.599998474121</ele>
        <time>2019-05-22T02:07:29Z</time>
      </trkpt>
      <trkpt lat="54.71176" lon="9.40577">
        <ele>40.599998474121</ele>
        <time>2019-05-22T02:07:41Z</time>
      </trkpt>
      <trkpt lat="54.71145" lon="9.40602">
        <ele>40.799999237061</ele>
        <time>2019-05-23T07:37:25Z</time>
      </trkpt>
      <trkpt lat="54.71139" lon="9.40533">
        <ele>41</ele>
        <time>2019-05-23T07:37:37Z</time>
      </trkpt>
      <trkpt lat="54.71132" lon="9.40436">
        <ele>41</ele>
        <time>2019-05-23T07:37:57Z</time>
      </trkpt>
      <trkpt lat="54.71118" lon="9.40296">
        <ele>41.200000762939</ele>
        <time>2019-05-23T07:38:16Z</time>
      </trkpt>
      <trkpt lat="54.71104" lon="9.40175">
        <ele>41.400001525879</ele>
        <time>2019-05-23T07:38:35Z</time>
      </trkpt>
      <trkpt lat="54.71098" lon="9.40164">
        <ele>41.599998474121</ele>
        <time>2019-05-23T07:38:49Z</time>
      </trkpt>
      <trkpt lat="54.71111" lon="9.40165">
        <ele>42.599998474121</ele>
        <time>2019-05-23T07:39:01Z</time>
      </trkpt>
      <trkpt lat="54.71124" lon="9.40163">
        <ele>42.400001525879</ele>
        <time>2019-05-23T07:39:27Z</time>
      </trkpt>
      <trkpt lat="54.71201" lon="9.40158">
        <ele>42.799999237061</ele>
        <time>2019-05-23T07:39:43Z</time>
      </trkpt>
      <trkpt lat="54.71271" lon="9.40179">
        <ele>43.599998474121</ele>
        <time>2019-05-23T07:40:03Z</time>
      </trkpt>
      <trkpt lat="54.71326" lon="9.40195">
        <ele>43.799999237061</ele>
        <time>2019-05-23T07:40:14Z</time>
      </trkpt>
      <trkpt lat="54.71462" lon="9.40237">
        <ele>45</ele>
        <time>2019-05-23T07:40:23Z</time>
      </trkpt>
      <trkpt lat="54.71671" lon="9.40295">
        <ele>45.799999237061</ele>
        <time>2019-05-23T07:40:33Z</time>
      </trkpt>
      <trkpt lat="54.71777" lon="9.40308">
        <ele>45.599998474121</ele>
        <time>2019-05-23T07:40:46Z</time>
      </trkpt>
      <trkpt lat="54.71873" lon="9.40321">
        <ele>45</ele>
        <time>2019-05-23T07:41:02Z</time>
      </trkpt>
      <trkpt lat="54.71943" lon="9.40331">
        <ele>44</ele>
        <time>2019-05-23T07:41:17Z</time>
      </trkpt>
      <trkpt lat="54.71969" lon="9.40303">
        <ele>43.799999237061</ele>
        <time>2019-05-23T07:41:37Z</time>
      </trkpt>
      <trkpt lat="54.71944" lon="9.40166">
        <ele>44.200000762939</ele>
        <time>2019-05-23T07:41:56Z</time>
      </trkpt>
      <trkpt lat="54.71917" lon="9.40002">
        <ele>48.599998474121</ele>
        <time>2019-05-23T07:42:09Z</time>
      </trkpt>
      <trkpt lat="54.71888" lon="9.39823">
        <ele>52</ele>
        <time>2019-05-23T07:42:27Z</time>
      </trkpt>
      <trkpt lat="54.71872" lon="9.3972">
        <ele>52.599998474121</ele>
        <time>2019-05-23T07:42:45Z</time>
      </trkpt>
      <trkpt lat="54.71862" lon="9.39659">
        <ele>52.799999237061</ele>
        <time>2019-05-23T07:43:02Z</time>
      </trkpt>
      <trkpt lat="54.71874" lon="9.39617">
        <ele>52.799999237061</ele>
        <time>2019-05-23T07:43:22Z</time>
      </trkpt>
      <trkpt lat="54.71909" lon="9.39595">
        <ele>52.599998474121</ele>
        <time>2019-05-23T07:43:31Z</time>
      </trkpt>
      <trkpt lat="54.72017" lon="9.39529">
        <ele>49.599998474121</ele>
        <time>2019-05-23T07:43:47Z</time>
      </trkpt>
      <trkpt lat="54.72094" lon="9.39482">
        <ele>46</ele>
        <time>2019-05-23T07:44:25Z</time>
      </trkpt>
      <trkpt lat="54.72153" lon="9.39446">
        <ele>44.400001525879</ele>
        <time>2019-05-23T07:44:43Z</time>
      </trkpt>
      <trkpt lat="54.72256" lon="9.39383">
        <ele>44.599998474121</ele>
        <time>2019-05-23T07:44:54Z</time>
      </trkpt>
      <trkpt lat="54.72352" lon="9.39324">
        <ele>45.400001525879</ele>
        <time>2019-05-23T07:45:09Z</time>
      </trkpt>
      <trkpt lat="54.72488" lon="9.39244">
        <ele>47.200000762939</ele>
        <time>2019-05-23T07:45:29Z</time>
      </trkpt>
      <trkpt lat="54.72595" lon="9.39184">
        <ele>47.400001525879</ele>
        <time>2019-05-23T07:45:49Z</time>
      </trkpt>
      <trkpt lat="54.72681" lon="9.39131">
        <ele>46.799999237061</ele>
        <time>2019-05-23T07:46:11Z</time>
      </trkpt>
      <trkpt lat="54.72813" lon="9.38964">
        <ele>48.400001525879</ele>
        <time>2019-05-23T07:46:31Z</time>
      </trkpt>
      <trkpt lat="54.72883" lon="9.38868">
        <ele>48.400001525879</ele>
        <time>2019-05-23T07:46:51Z</time>
      </trkpt>
      <trkpt lat="54.72979" lon="9.38783">
        <ele>48.599998474121</ele>
        <time>2019-05-23T07:47:09Z</time>
      </trkpt>
      <trkpt lat="54.73024" lon="9.38743">
        <ele>47.799999237061</ele>
        <time>2019-05-23T07:47:26Z</time>
      </trkpt>
      <trkpt lat="54.73089" lon="9.38656">
        <ele>46.799999237061</ele>
        <time>2019-05-23T07:47:47Z</time>
      </trkpt>
      <trkpt lat="54.73163" lon="9.38607">
        <ele>46.200000762939</ele>
        <time>2019-05-23T07:48:07Z</time>
      </trkpt>
      <trkpt lat="54.73246" lon="9.38547">
        <ele>45.799999237061</ele>
        <time>2019-05-23T07:48:31Z</time>
      </trkpt>
      <trkpt lat="54.73301" lon="9.38506">
        <ele>45.799999237061</ele>
        <time>2019-05-23T07:48:46Z</time>
      </trkpt>
      <trkpt lat="54.73385" lon="9.38471">
        <ele>46.200000762939</ele>
        <time>2019-05-23T07:49:05Z</time>
      </trkpt>
      <trkpt lat="54.73473" lon="9.38427">
        <ele>46.400001525879</ele>
        <time>2019-05-23T07:49:26Z</time>
      </trkpt>
      <trkpt lat="54.7356" lon="9.38381">
        <ele>46.799999237061</ele>
        <time>2019-05-23T07:49:40Z</time>
      </trkpt>
      <trkpt lat="54.73648" lon="9.3833">
        <ele>48</ele>
        <time>2019-05-23T07:50:01Z</time>
      </trkpt>
      <trkpt lat="54.73684" lon="9.38366">
        <ele>50</ele>
        <time>2019-05-23T07:50:23Z</time>
      </trkpt>
      <trkpt lat="54.73711" lon="9.38454">
        <ele>50.599998474121</ele>
        <time>2019-05-23T07:50:39Z</time>
      </trkpt>
      <trkpt lat="54.7373" lon="9.38496">
        <ele>51.200000762939</ele>
        <time>2019-05-23T07:50:58Z</time>
      </trkpt>
      <trkpt lat="54.73737" lon="9.38491">
        <ele>51.599998474121</ele>
        <time>2019-05-23T07:51:11Z</time>
      </trkpt>
      <trkpt lat="54.73724" lon="9.38372">
        <ele>54.200000762939</ele>
        <time>2019-05-23T07:51:21Z</time>
      </trkpt>
      <trkpt lat="54.73719" lon="9.38323">
        <ele>55.799999237061</ele>
        <time>2019-05-23T07:51:40Z</time>
      </trkpt>
      <trkpt lat="54.73711" lon="9.38238">
        <ele>57.200000762939</ele>
        <time>2019-05-23T07:52:01Z</time>
      </trkpt>
      <trkpt lat="54.73693" lon="9.38097">
        <ele>56.400001525879</ele>
        <time>2019-05-23T07:52:17Z</time>
      </trkpt>
      <trkpt lat="54.73669" lon="9.38018">
        <ele>54.599998474121</ele>
        <time>2019-05-23T07:52:40Z</time>
      </trkpt>
      <trkpt lat="54.73644" lon="9.38003">
        <ele>53.400001525879</ele>
        <time>2019-05-23T07:52:59Z</time>
      </trkpt>
      <trkpt lat="54.73636" lon="9.38051">
        <ele>51.400001525879</ele>
        <time>2019-05-23T07:53:13Z</time>
      </trkpt>
      <trkpt lat="54.73646" lon="9.38121">
        <ele>51.200000762939</ele>
        <time>2019-05-23T07:53:29Z</time>
      </trkpt>
      <trkpt lat="54.73667" lon="9.3826">
        <ele>50.200000762939</ele>
        <time>2019-05-23T07:53:51Z</time>
      </trkpt>
      <trkpt lat="54.73683" lon="9.38266">
        <ele>50</ele>
        <time>2019-05-23T07:53:58Z</time>
      </trkpt>
      <trkpt lat="54.73775" lon="9.38206">
        <ele>50.599998474121</ele>
        <time>2019-05-23T07:54:16Z</time>
      </trkpt>
      <trkpt lat="54.73854" lon="9.38102">
        <ele>51.400001525879</ele>
        <time>2019-05-23T07:54:45Z</time>
      </trkpt>
      <trkpt lat="54.73944" lon="9.37928">
        <ele>51.799999237061</ele>
        <time>2019-05-23T07:55:08Z</time>
      </trkpt>
      <trkpt lat="54.73934" lon="9.3791">
        <ele>52</ele>
        <time>2019-05-23T07:55:24Z</time>
      </trkpt>
      <trkpt lat="54.73941" lon="9.37843">
        <ele>52.200000762939</ele>
        <time>2019-05-23T07:55:41Z</time>
      </trkpt>
      <trkpt lat="54.73926" lon="9.37815">
        <ele>52.200000762939</ele>
        <time>2019-05-23T07:55:55Z</time>
      </trkpt>
      <trkpt lat="54.73859" lon="9.37718">
        <ele>51.200000762939</ele>
        <time>2019-05-23T07:56:19Z</time>
      </trkpt>
      <trkpt lat="54.73865" lon="9.37645">
        <ele>51</ele>
        <time>2019-05-23T07:56:41Z</time>
      </trkpt>
      <trkpt lat="54.73862" lon="9.3749">
        <ele>51.400001525879</ele>
        <time>2019-05-23T07:56:58Z</time>
      </trkpt>
      <trkpt lat="54.73835" lon="9.37316">
        <ele>51.799999237061</ele>
        <time>2019-05-23T07:57:21Z</time>
      </trkpt>
      <trkpt lat="54.73799" lon="9.36995">
        <ele>51</ele>
        <time>2019-05-23T07:57:45Z</time>
      </trkpt>
      <trkpt lat="54.73788" lon="9.3691">
        <ele>50.599998474121</ele>
        <time>2019-05-23T07:57:56Z</time>
      </trkpt>
      <trkpt lat="54.73756" lon="9.36614">
        <ele>49.799999237061</ele>
        <time>2019-05-23T07:58:10Z</time>
      </trkpt>
      <trkpt lat="54.73745" lon="9.36501">
        <ele>49.400001525879</ele>
        <time>2019-05-23T07:58:32Z</time>
      </trkpt>
      <trkpt lat="54.73733" lon="9.36387">
        <ele>49.400001525879</ele>
        <time>2019-05-23T07:58:49Z</time>
      </trkpt>
      <trkpt lat="54.73721" lon="9.36273">
        <ele>48.799999237061</ele>
        <time>2019-05-23T07:59:15Z</time>
      </trkpt>
      <trkpt lat="54.73713" lon="9.36192">
        <ele>48.599998474121</ele>
        <time>2019-05-23T07:59:39Z</time>
      </trkpt>
      <trkpt lat="54.73698" lon="9.36039">
        <ele>49.200000762939</ele>
        <time>2019-05-23T07:59:59Z</time>
      </trkpt>
      <trkpt lat="54.73683" lon="9.35895">
        <ele>49</ele>
        <time>2019-05-23T08:00:23Z</time>
      </trkpt>
      <trkpt lat="54.7367" lon="9.35748">
        <ele>48.400001525879</ele>
        <time>2019-05-23T08:00:43Z</time>
      </trkpt>
      <trkpt lat="54.73665" lon="9.35606">
        <ele>48.799999237061</ele>
        <time>2019-05-23T08:01:02Z</time>
      </trkpt>
      <trkpt lat="54.73665" lon="9.35475">
        <ele>48.599998474121</ele>
        <time>2019-05-23T08:01:16Z</time>
      </trkpt>
      <trkpt lat="54.73663" lon="9.35337">
        <ele>48.799999237061</ele>
        <time>2019-05-23T08:01:33Z</time>
      </trkpt>
      <trkpt lat="54.73662" lon="9.352">
        <ele>49.200000762939</ele>
        <time>2019-05-23T08:01:44Z</time>
      </trkpt>
      <trkpt lat="54.73661" lon="9.35071">
        <ele>49.200000762939</ele>
        <time>2019-05-23T08:01:59Z</time>
      </trkpt>
      <trkpt lat="54.73661" lon="9.3493">
        <ele>49</ele>
        <time>2019-05-23T08:02:20Z</time>
      </trkpt>
      <trkpt lat="54.73664" lon="9.34781">
        <ele>48.200000762939</ele>
        <time>2019-05-23T08:02:35Z</time>
      </trkpt>
      <trkpt lat="54.73671" lon="9.34501">
        <ele>47.400001525879</ele>
        <time>2019-05-23T08:02:51Z</time>
      </trkpt>
      <trkpt lat="54.7365" lon="9.34403">
        <ele>47.400001525879</ele>
        <time>2019-05-23T08:03:04Z</time>
      </trkpt>
      <trkpt lat="54.73611" lon="9.34332">
        <ele>47.200000762939</ele>
        <time>2019-05-23T08:03:29Z</time>
      </trkpt>
      <trkpt lat="54.73555" lon="9.34223">
        <ele>47.200000762939</ele>
        <time>2019-05-23T08:03:52Z</time>
      </trkpt>
      <trkpt lat="54.7348" lon="9.34105">
        <ele>47.599998474121</ele>
        <time>2019-05-23T08:04:16Z</time>
      </trkpt>
      <trkpt lat="54.73478" lon="9.3407">
        <ele>47.400001525879</ele>
        <time>2019-05-23T08:04:28Z</time>
      </trkpt>
      <trkpt lat="54.73579" lon="9.34014">
        <ele>47.400001525879</ele>
        <time>2019-05-23T08:04:34Z</time>
      </trkpt>
      <trkpt lat="54.73648" lon="9.33974">
        <ele>47.200000762939</ele>
        <time>2019-05-23T08:04:47Z</time>
      </trkpt>
      <trkpt lat="54.73726" lon="9.3392">
        <ele>47.200000762939</ele>
        <time>2019-05-23T08:04:57Z</time>
      </trkpt>
      <trkpt lat="54.73803" lon="9.33869">
        <ele>47.400001525879</ele>
        <time>2019-05-23T08:05:09Z</time>
      </trkpt>
      <trkpt lat="54.73883" lon="9.33823">
        <ele>47.400001525879</ele>
        <time>2019-05-23T08:05:25Z</time>
      </trkpt>
      <trkpt lat="54.74024" lon="9.33713">
        <ele>47.799999237061</ele>
        <time>2019-05-23T08:05:37Z</time>
      </trkpt>
      <trkpt lat="54.7407" lon="9.3365">
        <ele>47.799999237061</ele>
        <time>2019-05-23T08:05:51Z</time>
      </trkpt>
      <trkpt lat="54.74132" lon="9.33534">
        <ele>47.400001525879</ele>
        <time>2019-05-23T08:06:10Z</time>
      </trkpt>
      <trkpt lat="54.74166" lon="9.33469">
        <ele>46.599998474121</ele>
        <time>2019-05-23T08:06:26Z</time>
      </trkpt>
      <trkpt lat="54.74265" lon="9.33353">
        <ele>46.599998474121</ele>
        <time>2019-05-23T08:06:47Z</time>
      </trkpt>
      <trkpt lat="54.7432" lon="9.33289">
        <ele>46.799999237061</ele>
        <time>2019-05-23T08:07:11Z</time>
      </trkpt>
      <trkpt lat="54.74436" lon="9.33161">
        <ele>46</ele>
        <time>2019-05-23T08:07:38Z</time>
      </trkpt>
      <trkpt lat="54.74596" lon="9.33028">
        <ele>46</ele>
        <time>2019-05-23T08:07:53Z</time>
      </trkpt>
      <trkpt lat="54.74756" lon="9.32979">
        <ele>46</ele>
        <time>2019-05-23T08:08:12Z</time>
      </trkpt>
      <trkpt lat="54.74852" lon="9.32971">
        <ele>46.400001525879</ele>
        <time>2019-05-23T08:08:27Z</time>
      </trkpt>
      <trkpt lat="54.74911" lon="9.3297">
        <ele>46.799999237061</ele>
        <time>2019-05-23T08:08:44Z</time>
      </trkpt>
      <trkpt lat="54.74994" lon="9.32963">
        <ele>49.200000762939</ele>
        <time>2019-05-23T08:10:49Z</time>
      </trkpt>
      <trkpt lat="54.75058" lon="9.32968">
        <ele>49.400001525879</ele>
        <time>2019-05-23T08:11:09Z</time>
      </trkpt>
      <trkpt lat="54.75124" lon="9.32975">
        <ele>48.799999237061</ele>
        <time>2019-05-23T08:11:22Z</time>
      </trkpt>
      <trkpt lat="54.75187" lon="9.32964">
        <ele>48.599998474121</ele>
        <time>2019-05-23T08:11:48Z</time>
      </trkpt>
      <trkpt lat="54.75218" lon="9.32958">
        <ele>48.799999237061</ele>
        <time>2019-05-23T08:12:13Z</time>
      </trkpt>
      <trkpt lat="54.75291" lon="9.32937">
        <ele>49</ele>
        <time>2019-05-23T08:12:38Z</time>
      </trkpt>
      <trkpt lat="54.754" lon="9.32905">
        <ele>48.799999237061</ele>
        <time>2019-05-23T08:13:00Z</time>
      </trkpt>
      <trkpt lat="54.75458" lon="9.32894">
        <ele>48.799999237061</ele>
        <time>2019-05-23T08:13:23Z</time>
      </trkpt>
      <trkpt lat="54.75464" lon="9.32925">
        <ele>49</ele>
        <time>2019-05-23T08:13:47Z</time>
      </trkpt>
      <trkpt lat="54.75493" lon="9.32997">
        <ele>49.200000762939</ele>
        <time>2019-05-23T08:14:07Z</time>
      </trkpt>
      <trkpt lat="54.75512" lon="9.33046">
        <ele>50</ele>
        <time>2019-05-23T08:14:19Z</time>
      </trkpt>
      <trkpt lat="54.75532" lon="9.33096">
        <ele>50.200000762939</ele>
        <time>2019-05-23T08:14:43Z</time>
      </trkpt>
      <trkpt lat="54.75555" lon="9.3315">
        <ele>50.599998474121</ele>
        <time>2019-05-23T08:14:59Z</time>
      </trkpt>
      <trkpt lat="54.75574" lon="9.33203">
        <ele>51.200000762939</ele>
        <time>2019-05-23T08:15:12Z</time>
      </trkpt>
      <trkpt lat="54.75578" lon="9.33212">
        <ele>52.200000762939</ele>
        <time>2019-05-23T08:15:24Z</time>
      </trkpt>
      <trkpt lat="54.75562" lon="9.3317">
        <ele>52.200000762939</ele>
        <time>2019-05-23T08:15:40Z</time>
      </trkpt>
      <trkpt lat="54.75528" lon="9.33088">
        <ele>51.400001525879</ele>
        <time>2019-05-23T08:15:59Z</time>
      </trkpt>
      <trkpt lat="54.75497" lon="9.33">
        <ele>51</ele>
        <time>2019-05-23T08:16:16Z</time>
      </trkpt>
      <trkpt lat="54.7547" lon="9.32924">
        <ele>50.400001525879</ele>
        <time>2019-05-23T08:16:27Z</time>
      </trkpt>
      <trkpt lat="54.75476" lon="9.3289">
        <ele>50.200000762939</ele>
        <time>2019-05-23T08:16:46Z</time>
      </trkpt>
      <trkpt lat="54.75576" lon="9.32866">
        <ele>49.799999237061</ele>
        <time>2019-05-23T08:17:02Z</time>
      </trkpt>
      <trkpt lat="54.75676" lon="9.32841">
        <ele>51.400001525879</ele>
        <time>2019-05-23T08:17:18Z</time>
      </trkpt>
      <trkpt lat="54.75767" lon="9.32787">
        <ele>53.200000762939</ele>
        <time>2019-05-23T08:17:29Z</time>
      </trkpt>
      <trkpt lat="54.75918" lon="9.32626">
        <ele>56.599998474121</ele>
        <time>2019-05-23T08:17:47Z</time>
      </trkpt>
      <trkpt lat="54.75996" lon="9.3258">
        <ele>57.400001525879</ele>
        <time>2019-05-23T08:18:04Z</time>
      </trkpt>
      <trkpt lat="54.76065" lon="9.32553">
        <ele>57.599998474121</ele>
        <time>2019-05-23T08:18:16Z</time>
      </trkpt>
      <trkpt lat="54.76106" lon="9.3253">
        <ele>58.200000762939</ele>
        <time>2019-05-23T08:18:25Z</time>
      </trkpt>
      <trkpt lat="54.76191" lon="9.32484">
        <ele>56.799999237061</ele>
        <time>2019-05-23T08:18:37Z</time>
      </trkpt>
      <trkpt lat="54.76293" lon="9.32487">
        <ele>51.599998474121</ele>
        <time>2019-05-23T08:18:46Z</time>
      </trkpt>
      <trkpt lat="54.76369" lon="9.32522">
        <ele>47.400001525879</ele>
        <time>2019-05-23T08:18:58Z</time>
      </trkpt>
      <trkpt lat="54.76404" lon="9.32527">
        <ele>47.200000762939</ele>
        <time>2019-05-23T08:19:09Z</time>
      </trkpt>
      <trkpt lat="54.76489" lon="9.32499">
        <ele>47.200000762939</ele>
        <time>2019-05-23T08:19:24Z</time>
      </trkpt>
      <trkpt lat="54.76585" lon="9.32496">
        <ele>47.599998474121</ele>
        <time>2019-05-23T08:19:44Z</time>
      </trkpt>
      <trkpt lat="54.76665" lon="9.32486">
        <ele>47.200000762939</ele>
        <time>2019-05-23T08:19:52Z</time>
      </trkpt>
      <trkpt lat="54.76801" lon="9.32519">
        <ele>47.200000762939</ele>
        <time>2019-05-23T08:20:05Z</time>
      </trkpt>
      <trkpt lat="54.7681" lon="9.32574">
        <ele>47</ele>
        <time>2019-05-23T08:20:19Z</time>
      </trkpt>
      <trkpt lat="54.76831" lon="9.32716">
        <ele>47.599998474121</ele>
        <time>2019-05-23T08:20:41Z</time>
      </trkpt>
      <trkpt lat="54.7684" lon="9.32795">
        <ele>48.400001525879</ele>
        <time>2019-05-23T08:21:09Z</time>
      </trkpt>
      <trkpt lat="54.76881" lon="9.32957">
        <ele>48.400001525879</ele>
        <time>2019-05-23T08:21:32Z</time>
      </trkpt>
      <trkpt lat="54.76976" lon="9.32965">
        <ele>48.599998474121</ele>
        <time>2019-05-23T08:21:54Z</time>
      </trkpt>
      <trkpt lat="54.77107" lon="9.32987">
        <ele>47.400001525879</ele>
        <time>2019-05-23T08:22:05Z</time>
      </trkpt>
      <trkpt lat="54.77254" lon="9.32985">
        <ele>46.400001525879</ele>
        <time>2019-05-23T08:22:22Z</time>
      </trkpt>
      <trkpt lat="54.77481" lon="9.32995">
        <ele>48.200000762939</ele>
        <time>2019-05-23T08:22:41Z</time>
      </trkpt>
      <trkpt lat="54.77571" lon="9.32996">
        <ele>47.799999237061</ele>
        <time>2019-05-23T08:23:05Z</time>
      </trkpt>
      <trkpt lat="54.77647" lon="9.32983">
        <ele>47.799999237061</ele>
        <time>2019-05-23T08:23:27Z</time>
      </trkpt>
      <trkpt lat="54.77689" lon="9.32976">
        <ele>48</ele>
        <time>2019-05-23T08:23:46Z</time>
      </trkpt>
      <trkpt lat="54.77739" lon="9.32962">
        <ele>47.200000762939</ele>
        <time>2019-05-23T08:24:06Z</time>
      </trkpt>
      <trkpt lat="54.77758" lon="9.32951">
        <ele>46.200000762939</ele>
        <time>2019-05-23T08:24:29Z</time>
      </trkpt>
      <trkpt lat="54.77824" lon="9.32916">
        <ele>47.599998474121</ele>
        <time>2019-05-23T08:24:45Z</time>
      </trkpt>
      <trkpt lat="54.77869" lon="9.3289">
        <ele>48</ele>
        <time>2019-05-23T08:25:00Z</time>
      </trkpt>
      <trkpt lat="54.77942" lon="9.32848">
        <ele>48</ele>
        <time>2019-05-23T08:31:05Z</time>
      </trkpt>
      <trkpt lat="54.78017" lon="9.32808">
        <ele>47.599998474121</ele>
        <time>2019-05-23T08:31:16Z</time>
      </trkpt>
      <trkpt lat="54.78108" lon="9.3275">
        <ele>48</ele>
        <time>2019-05-23T08:31:23Z</time>
      </trkpt>
      <trkpt lat="54.78259" lon="9.32685">
        <ele>47.400001525879</ele>
        <time>2019-05-23T08:31:42Z</time>
      </trkpt>
      <trkpt lat="54.78293" lon="9.32756">
        <ele>46.400001525879</ele>
        <time>2019-05-23T08:32:01Z</time>
      </trkpt>
      <trkpt lat="54.78327" lon="9.32833">
        <ele>46.200000762939</ele>
        <time>2019-05-23T08:32:21Z</time>
      </trkpt>
      <trkpt lat="54.78368" lon="9.32923">
        <ele>46.200000762939</ele>
        <time>2019-05-23T08:35:05Z</time>
      </trkpt>
      <trkpt lat="54.7842" lon="9.33021">
        <ele>46.799999237061</ele>
        <time>2019-05-23T08:35:22Z</time>
      </trkpt>
      <trkpt lat="54.78458" lon="9.33083">
        <ele>47</ele>
        <time>2019-05-23T08:35:39Z</time>
      </trkpt>
      <trkpt lat="54.78492" lon="9.33124">
        <ele>47.400001525879</ele>
        <time>2019-05-23T08:35:58Z</time>
      </trkpt>
      <trkpt lat="54.78566" lon="9.33205">
        <ele>47.200000762939</ele>
        <time>2019-05-23T08:36:19Z</time>
      </trkpt>
      <trkpt lat="54.78621" lon="9.33291">
        <ele>47.599998474121</ele>
        <time>2019-05-23T08:36:39Z</time>
      </trkpt>
      <trkpt lat="54.78663" lon="9.33415">
        <ele>47.799999237061</ele>
        <time>2019-05-23T08:36:54Z</time>
      </trkpt>
      <trkpt lat="54.78675" lon="9.33434">
        <ele>49.400001525879</ele>
        <time>2019-05-23T08:37:08Z</time>
      </trkpt>
      <trkpt lat="54.7868" lon="9.33536">
        <ele>50</ele>
        <time>2019-05-23T08:37:32Z</time>
      </trkpt>
      <trkpt lat="54.78719" lon="9.33686">
        <ele>52</ele>
        <time>2019-05-23T08:37:53Z</time>
      </trkpt>
      <trkpt lat="54.78736" lon="9.33722">
        <ele>52.400001525879</ele>
        <time>2019-05-23T08:38:13Z</time>
      </trkpt>
      <trkpt lat="54.78778" lon="9.3381">
        <ele>53</ele>
        <time>2019-05-23T08:38:34Z</time>
      </trkpt>
      <trkpt lat="54.78901" lon="9.34004">
        <ele>50.400001525879</ele>
        <time>2019-05-23T08:38:59Z</time>
      </trkpt>
      <trkpt lat="54.78988" lon="9.34065">
        <ele>50</ele>
        <time>2019-05-23T08:39:22Z</time>
      </trkpt>
      <trkpt lat="54.79003" lon="9.34112">
        <ele>49.799999237061</ele>
        <time>2019-05-23T08:39:48Z</time>
      </trkpt>
      <trkpt lat="54.79008" lon="9.34121">
        <ele>49.200000762939</ele>
        <time>2019-05-23T08:40:09Z</time>
      </trkpt>
      <trkpt lat="54.79009" lon="9.34095">
        <ele>49.200000762939</ele>
        <time>2019-05-23T08:40:28Z</time>
      </trkpt>
      <trkpt lat="54.79037" lon="9.34071">
        <ele>49.799999237061</ele>
        <time>2019-05-23T08:40:40Z</time>
      </trkpt>
      <trkpt lat="54.79042" lon="9.34081">
        <ele>49.200000762939</ele>
        <time>2019-05-23T08:40:46Z</time>
      </trkpt>
      <trkpt lat="54.79051" lon="9.34065">
        <ele>49.400001525879</ele>
        <time>2019-05-23T08:40:58Z</time>
      </trkpt>
      <trkpt lat="54.79093" lon="9.34038">
        <ele>49.599998474121</ele>
        <time>2019-05-23T08:41:12Z</time>
      </trkpt>
      <trkpt lat="54.79148" lon="9.33967">
        <ele>49.599998474121</ele>
        <time>2019-05-23T08:41:20Z</time>
      </trkpt>
      <trkpt lat="54.79198" lon="9.33898">
        <ele>49.799999237061</ele>
        <time>2019-05-23T08:41:37Z</time>
      </trkpt>
      <trkpt lat="54.79234" lon="9.33895">
        <ele>48.599998474121</ele>
        <time>2019-05-23T08:41:49Z</time>
      </trkpt>
      <trkpt lat="54.79277" lon="9.3395">
        <ele>48.799999237061</ele>
        <time>2019-05-23T08:42:03Z</time>
      </trkpt>
      <trkpt lat="54.7938" lon="9.3411">
        <ele>50.200000762939</ele>
        <time>2019-05-23T08:42:18Z</time>
      </trkpt>
      <trkpt lat="54.79446" lon="9.34196">
        <ele>50</ele>
        <time>2019-05-23T08:42:39Z</time>
      </trkpt>
      <trkpt lat="54.79528" lon="9.3426">
        <ele>50.400001525879</ele>
        <time>2019-05-23T08:42:51Z</time>
      </trkpt>
      <trkpt lat="54.79578" lon="9.34309">
        <ele>51</ele>
        <time>2019-05-23T08:43:05Z</time>
      </trkpt>
      <trkpt lat="54.79665" lon="9.3439">
        <ele>49.799999237061</ele>
        <time>2019-05-23T08:43:15Z</time>
      </trkpt>
      <trkpt lat="54.79717" lon="9.34441">
        <ele>48.400001525879</ele>
        <time>2019-05-23T08:43:30Z</time>
      </trkpt>
      <trkpt lat="54.79787" lon="9.34505">
        <ele>49.599998474121</ele>
        <time>2019-05-23T08:43:39Z</time>
      </trkpt>
      <trkpt lat="54.79853" lon="9.34561">
        <ele>49.599998474121</ele>
        <time>2019-05-23T08:43:52Z</time>
      </trkpt>
      <trkpt lat="54.79937" lon="9.34644">
        <ele>48.599998474121</ele>
        <time>2019-05-23T08:44:11Z</time>
      </trkpt>
      <trkpt lat="54.79987" lon="9.34697">
        <ele>48.400001525879</ele>
        <time>2019-05-23T08:44:19Z</time>
      </trkpt>
      <trkpt lat="54.80047" lon="9.34759">
        <ele>48.400001525879</ele>
        <time>2019-05-23T08:44:30Z</time>
      </trkpt>
      <trkpt lat="54.80061" lon="9.34832">
        <ele>49</ele>
        <time>2019-05-23T08:44:41Z</time>
      </trkpt>
      <trkpt lat="54.80098" lon="9.35035">
        <ele>52.200000762939</ele>
        <time>2019-05-23T08:44:51Z</time>
      </trkpt>
      <trkpt lat="54.8013" lon="9.35216">
        <ele>53.400001525879</ele>
        <time>2019-05-23T08:45:02Z</time>
      </trkpt>
      <trkpt lat="54.80155" lon="9.35338">
        <ele>53.799999237061</ele>
        <time>2019-05-23T08:45:15Z</time>
      </trkpt>
      <trkpt lat="54.80173" lon="9.35419">
        <ele>54.400001525879</ele>
        <time>2019-05-23T08:45:31Z</time>
      </trkpt>
      <trkpt lat="54.80199" lon="9.35553">
        <ele>54.200000762939</ele>
        <time>2019-05-23T08:45:52Z</time>
      </trkpt>
      <trkpt lat="54.80228" lon="9.35708">
        <ele>54.599998474121</ele>
        <time>2019-05-23T08:46:15Z</time>
      </trkpt>
      <trkpt lat="54.80267" lon="9.36004">
        <ele>55</ele>
        <time>2019-05-23T08:46:39Z</time>
      </trkpt>
      <trkpt lat="54.80295" lon="9.3628">
        <ele>55</ele>
        <time>2019-05-23T08:46:53Z</time>
      </trkpt>
      <trkpt lat="54.80309" lon="9.36398">
        <ele>55.200000762939</ele>
        <time>2019-05-23T08:47:19Z</time>
      </trkpt>
      <trkpt lat="54.80334" lon="9.3665">
        <ele>56.400001525879</ele>
        <time>2019-05-23T08:47:40Z</time>
      </trkpt>
      <trkpt lat="54.80344" lon="9.36837">
        <ele>56.799999237061</ele>
        <time>2019-05-23T08:47:54Z</time>
      </trkpt>
      <trkpt lat="54.80356" lon="9.36866">
        <ele>58</ele>
        <time>2019-05-23T08:48:13Z</time>
      </trkpt>
      <trkpt lat="54.80417" lon="9.36837">
        <ele>57.799999237061</ele>
        <time>2019-05-23T08:48:28Z</time>
      </trkpt>
      <trkpt lat="54.80514" lon="9.3679">
        <ele>57.599998474121</ele>
        <time>2019-05-23T08:48:49Z</time>
      </trkpt>
      <trkpt lat="54.80568" lon="9.36748">
        <ele>58.599998474121</ele>
        <time>2019-05-23T08:49:05Z</time>
      </trkpt>
      <trkpt lat="54.80658" lon="9.36674">
        <ele>59</ele>
        <time>2019-05-23T08:49:26Z</time>
      </trkpt>
      <trkpt lat="54.80747" lon="9.36598">
        <ele>58.400001525879</ele>
        <time>2019-05-23T08:49:45Z</time>
      </trkpt>
      <trkpt lat="54.80928" lon="9.36423">
        <ele>61.400001525879</ele>
        <time>2019-05-23T08:50:00Z</time>
      </trkpt>
      <trkpt lat="54.81014" lon="9.36347">
        <ele>61.200000762939</ele>
        <time>2019-05-23T08:50:10Z</time>
      </trkpt>
      <trkpt lat="54.81075" lon="9.36301">
        <ele>60.799999237061</ele>
        <time>2019-05-23T08:50:26Z</time>
      </trkpt>
      <trkpt lat="54.8116" lon="9.36268">
        <ele>59.400001525879</ele>
        <time>2019-05-23T08:50:46Z</time>
      </trkpt>
      <trkpt lat="54.81255" lon="9.36246">
        <ele>58.599998474121</ele>
        <time>2019-05-23T08:51:06Z</time>
      </trkpt>
      <trkpt lat="54.81341" lon="9.36222">
        <ele>59.400001525879</ele>
        <time>2019-05-23T08:51:33Z</time>
      </trkpt>
      <trkpt lat="54.81463" lon="9.36192">
        <ele>58.799999237061</ele>
        <time>2019-05-23T08:51:50Z</time>
      </trkpt>
      <trkpt lat="54.81568" lon="9.36164">
        <ele>56.799999237061</ele>
        <time>2019-05-23T08:52:09Z</time>
      </trkpt>
      <trkpt lat="54.81633" lon="9.36169">
        <ele>54.599998474121</ele>
        <time>2019-05-23T08:52:30Z</time>
      </trkpt>
      <trkpt lat="54.81681" lon="9.36162">
        <ele>54</ele>
        <time>2019-05-23T08:52:43Z</time>
      </trkpt>
      <trkpt lat="54.81735" lon="9.36133">
        <ele>54.200000762939</ele>
        <time>2019-05-23T08:53:00Z</time>
      </trkpt>
      <trkpt lat="54.81785" lon="9.3611">
        <ele>56</ele>
        <time>2019-05-23T08:53:24Z</time>
      </trkpt>
      <trkpt lat="54.81835" lon="9.36085">
        <ele>57</ele>
        <time>2019-05-23T08:53:45Z</time>
      </trkpt>
      <trkpt lat="54.81962" lon="9.35974">
        <ele>57.799999237061</ele>
        <time>2019-05-23T08:53:58Z</time>
      </trkpt>
      <trkpt lat="54.81983" lon="9.35961">
        <ele>57</ele>
        <time>2019-05-23T08:54:11Z</time>
      </trkpt>
      <trkpt lat="54.81994" lon="9.35996">
        <ele>57</ele>
        <time>2019-05-23T08:54:30Z</time>
      </trkpt>
      <trkpt lat="54.82003" lon="9.3605">
        <ele>55.799999237061</ele>
        <time>2019-05-23T08:54:44Z</time>
      </trkpt>
      <trkpt lat="54.82016" lon="9.36111">
        <ele>55.400001525879</ele>
        <time>2019-05-23T08:54:57Z</time>
      </trkpt>
      <trkpt lat="54.8206" lon="9.36163">
        <ele>56</ele>
        <time>2019-05-23T08:55:16Z</time>
      </trkpt>
      <trkpt lat="54.82099" lon="9.36173">
        <ele>56.799999237061</ele>
        <time>2019-05-23T08:55:24Z</time>
      </trkpt>
      <trkpt lat="54.82172" lon="9.3619">
        <ele>59.599998474121</ele>
        <time>2019-05-23T08:55:38Z</time>
      </trkpt>
      <trkpt lat="54.82247" lon="9.36207">
        <ele>61.400001525879</ele>
        <time>2019-05-23T08:55:54Z</time>
      </trkpt>
      <trkpt lat="54.82305" lon="9.36211">
        <ele>61.599998474121</ele>
        <time>2019-05-23T08:56:14Z</time>
      </trkpt>
      <trkpt lat="54.82363" lon="9.3623">
        <ele>62</ele>
        <time>2019-05-23T08:56:29Z</time>
      </trkpt>
      <trkpt lat="54.82419" lon="9.36269">
        <ele>62.599998474121</ele>
        <time>2019-05-23T08:56:42Z</time>
      </trkpt>
      <trkpt lat="54.82456" lon="9.36294">
        <ele>62.799999237061</ele>
        <time>2019-05-23T08:56:58Z</time>
      </trkpt>
      <trkpt lat="54.82506" lon="9.36324">
        <ele>64</ele>
        <time>2019-05-23T08:57:14Z</time>
      </trkpt>
      <trkpt lat="54.82551" lon="9.3637">
        <ele>64.199996948242</ele>
        <time>2019-05-23T08:57:28Z</time>
      </trkpt>
      <trkpt lat="54.82605" lon="9.36431">
        <ele>63.799999237061</ele>
        <time>2019-05-23T08:57:40Z</time>
      </trkpt>
      <trkpt lat="54.82691" lon="9.36512">
        <ele>61.799999237061</ele>
        <time>2019-05-23T08:58:00Z</time>
      </trkpt>
      <trkpt lat="54.82776" lon="9.36561">
        <ele>59.599998474121</ele>
        <time>2019-05-23T08:58:15Z</time>
      </trkpt>
      <trkpt lat="54.82908" lon="9.3659">
        <ele>57</ele>
        <time>2019-05-23T08:58:27Z</time>
      </trkpt>
      <trkpt lat="54.83" lon="9.36619">
        <ele>58.400001525879</ele>
        <time>2019-05-23T08:58:38Z</time>
      </trkpt>
      <trkpt lat="54.83063" lon="9.36626">
        <ele>59.799999237061</ele>
        <time>2019-05-23T09:17:15Z</time>
      </trkpt>
      <trkpt lat="54.8312" lon="9.36611">
        <ele>60.200000762939</ele>
        <time>2019-05-23T09:17:36Z</time>
      </trkpt>
      <trkpt lat="54.83181" lon="9.36581">
        <ele>61</ele>
        <time>2019-05-23T09:17:48Z</time>
      </trkpt>
      <trkpt lat="54.83237" lon="9.3663">
        <ele>61</ele>
        <time>2019-05-23T09:18:06Z</time>
      </trkpt>
      <trkpt lat="54.83298" lon="9.3665">
        <ele>60.599998474121</ele>
        <time>2019-05-23T09:18:18Z</time>
      </trkpt>
      <trkpt lat="54.83476" lon="9.36715">
        <ele>64</ele>
        <time>2019-05-23T09:18:35Z</time>
      </trkpt>
      <trkpt lat="54.83606" lon="9.36742">
        <ele>66</ele>
        <time>2019-05-23T09:18:52Z</time>
      </trkpt>
      <trkpt lat="54.83653" lon="9.36766">
        <ele>67.199996948242</ele>
        <time>2019-05-23T09:19:09Z</time>
      </trkpt>
      <trkpt lat="54.83696" lon="9.36785">
        <ele>67.800003051758</ele>
        <time>2019-05-23T09:19:24Z</time>
      </trkpt>
      <trkpt lat="54.83827" lon="9.36854">
        <ele>68.199996948242</ele>
        <time>2019-05-23T09:19:46Z</time>
      </trkpt>
      <trkpt lat="54.83884" lon="9.36883">
        <ele>68</ele>
        <time>2019-05-23T09:19:59Z</time>
      </trkpt>
      <trkpt lat="54.83981" lon="9.3694">
        <ele>67.199996948242</ele>
        <time>2019-05-23T09:20:06Z</time>
      </trkpt>
      <trkpt lat="54.84068" lon="9.36987">
        <ele>67.800003051758</ele>
        <time>2019-05-23T09:20:16Z</time>
      </trkpt>
      <trkpt lat="54.84101" lon="9.37009">
        <ele>67.800003051758</ele>
        <time>2019-05-23T09:20:21Z</time>
      </trkpt>
      <trkpt lat="54.84187" lon="9.37109">
        <ele>66.599998474121</ele>
        <time>2019-05-23T09:20:31Z</time>
      </trkpt>
      <trkpt lat="54.84242" lon="9.37181">
        <ele>65.199996948242</ele>
        <time>2019-05-23T09:20:37Z</time>
      </trkpt>
      <trkpt lat="54.84261" lon="9.37188">
        <ele>64</ele>
        <time>2019-05-23T09:20:41Z</time>
      </trkpt>
      <trkpt lat="54.84278" lon="9.37227">
        <ele>62.799999237061</ele>
        <time>2019-05-23T09:20:50Z</time>
      </trkpt>
      <trkpt lat="54.84375" lon="9.37355">
        <ele>60.400001525879</ele>
        <time>2019-05-23T09:20:58Z</time>
      </trkpt>
      <trkpt lat="54.84544" lon="9.37577">
        <ele>54.400001525879</ele>
        <time>2019-05-23T09:21:05Z</time>
      </trkpt>
      <trkpt lat="54.84601" lon="9.37684">
        <ele>53.200000762939</ele>
        <time>2019-05-23T09:21:10Z</time>
      </trkpt>
      <trkpt lat="54.84623" lon="9.37775">
        <ele>52.400001525879</ele>
        <time>2019-05-23T09:21:15Z</time>
      </trkpt>
      <trkpt lat="54.84645" lon="9.37886">
        <ele>52</ele>
        <time>2019-05-23T09:21:25Z</time>
      </trkpt>
      <trkpt lat="54.84659" lon="9.38004">
        <ele>52.400001525879</ele>
        <time>2019-05-23T09:21:38Z</time>
      </trkpt>
      <trkpt lat="54.84676" lon="9.38156">
        <ele>52.200000762939</ele>
        <time>2019-05-23T09:21:53Z</time>
      </trkpt>
      <trkpt lat="54.84686" lon="9.38257">
        <ele>51.799999237061</ele>
        <time>2019-05-23T09:21:57Z</time>
      </trkpt>
      <trkpt lat="54.84701" lon="9.38384">
        <ele>50.599998474121</ele>
        <time>2019-05-23T09:22:08Z</time>
      </trkpt>
      <trkpt lat="54.8471" lon="9.38478">
        <ele>48</ele>
        <time>2019-05-23T09:22:16Z</time>
      </trkpt>
      <trkpt lat="54.84727" lon="9.38632">
        <ele>42.200000762939</ele>
        <time>2019-05-23T09:22:40Z</time>
      </trkpt>
      <trkpt lat="54.84718" lon="9.38926">
        <ele>35.200000762939</ele>
        <time>2019-05-23T09:23:03Z</time>
      </trkpt>
      <trkpt lat="54.84718" lon="9.3903">
        <ele>33.799999237061</ele>
        <time>2019-05-23T09:23:20Z</time>
      </trkpt>
      <trkpt lat="54.84727" lon="9.39103">
        <ele>35.400001525879</ele>
        <time>2019-05-23T09:23:29Z</time>
      </trkpt>
      <trkpt lat="54.84763" lon="9.39261">
        <ele>41.200000762939</ele>
        <time>2019-05-23T09:23:36Z</time>
      </trkpt>
      <trkpt lat="54.84798" lon="9.39337">
        <ele>42.599998474121</ele>
        <time>2019-05-23T09:23:52Z</time>
      </trkpt>
      <trkpt lat="54.84835" lon="9.39345">
        <ele>43.599998474121</ele>
        <time>2019-05-23T09:24:10Z</time>
      </trkpt>
      <trkpt lat="54.84886" lon="9.39354">
        <ele>47</ele>
        <time>2019-05-23T09:24:26Z</time>
      </trkpt>
      <trkpt lat="54.84952" lon="9.39366">
        <ele>49.400001525879</ele>
        <time>2019-05-23T09:24:47Z</time>
      </trkpt>
      <trkpt lat="54.85008" lon="9.39375">
        <ele>50.599998474121</ele>
        <time>2019-05-23T09:24:59Z</time>
      </trkpt>
      <trkpt lat="54.85059" lon="9.39383">
        <ele>50.599998474121</ele>
        <time>2019-05-23T09:25:12Z</time>
      </trkpt>
      <trkpt lat="54.85118" lon="9.39402">
        <ele>50</ele>
        <time>2019-05-23T09:25:34Z</time>
      </trkpt>
      <trkpt lat="54.85107" lon="9.39467">
        <ele>49.799999237061</ele>
        <time>2019-05-23T09:25:50Z</time>
      </trkpt>
      <trkpt lat="54.85061" lon="9.39666">
        <ele>52.200000762939</ele>
        <time>2019-05-23T09:26:02Z</time>
      </trkpt>
      <trkpt lat="54.8504" lon="9.39755">
        <ele>52.599998474121</ele>
        <time>2019-05-23T09:26:23Z</time>
      </trkpt>
      <trkpt lat="54.85013" lon="9.39875">
        <ele>53.799999237061</ele>
        <time>2019-05-23T09:26:39Z</time>
      </trkpt>
      <trkpt lat="54.84986" lon="9.3999">
        <ele>54.200000762939</ele>
        <time>2019-05-23T09:26:53Z</time>
      </trkpt>
      <trkpt lat="54.84957" lon="9.40115">
        <ele>53.599998474121</ele>
        <time>2019-05-23T09:27:03Z</time>
      </trkpt>
      <trkpt lat="54.84939" lon="9.40178">
        <ele>52.799999237061</ele>
        <time>2019-05-23T09:27:23Z</time>
      </trkpt>
      <trkpt lat="54.84937" lon="9.40189">
        <ele>52.200000762939</ele>
        <time>2019-05-23T09:27:43Z</time>
      </trkpt>
      <trkpt lat="54.84938" lon="9.40233">
        <ele>52.400001525879</ele>
        <time>2019-05-23T09:28:03Z</time>
      </trkpt>
      <trkpt lat="54.84962" lon="9.40239">
        <ele>53.400001525879</ele>
        <time>2019-05-23T09:28:11Z</time>
      </trkpt>
      <trkpt lat="54.85012" lon="9.40251">
        <ele>54.200000762939</ele>
        <time>2019-05-23T09:33:35Z</time>
      </trkpt>
      <trkpt lat="54.851" lon="9.40262">
        <ele>55.200000762939</ele>
        <time>2019-05-23T09:34:02Z</time>
      </trkpt>
      <trkpt lat="54.85194" lon="9.40276">
        <ele>55.799999237061</ele>
        <time>2019-05-23T09:34:27Z</time>
      </trkpt>
      <trkpt lat="54.85311" lon="9.40294">
        <ele>55.400001525879</ele>
        <time>2019-05-23T09:34:35Z</time>
      </trkpt>
      <trkpt lat="54.85362" lon="9.40293">
        <ele>54.799999237061</ele>
        <time>2019-05-23T09:35:00Z</time>
      </trkpt>
      <trkpt lat="54.85361" lon="9.40231">
        <ele>54.799999237061</ele>
        <time>2019-05-23T09:35:21Z</time>
      </trkpt>
      <trkpt lat="54.85363" lon="9.40175">
        <ele>52.799999237061</ele>
        <time>2019-05-23T09:35:42Z</time>
      </trkpt>
      <trkpt lat="54.85356" lon="9.40139">
        <ele>53</ele>
        <time>2019-05-23T09:35:58Z</time>
      </trkpt>
      <trkpt lat="54.85345" lon="9.40043">
        <ele>53.200000762939</ele>
        <time>2019-05-23T09:36:17Z</time>
      </trkpt>
      <trkpt lat="54.85318" lon="9.39946">
        <ele>52.599998474121</ele>
        <time>2019-05-23T09:36:42Z</time>
      </trkpt>
      <trkpt lat="54.85291" lon="9.39915">
        <ele>52</ele>
        <time>2019-05-23T09:37:07Z</time>
      </trkpt>
      <trkpt lat="54.85251" lon="9.39835">
        <ele>51.599998474121</ele>
        <time>2019-05-23T09:37:21Z</time>
      </trkpt>
      <trkpt lat="54.85229" lon="9.39825">
        <ele>51.200000762939</ele>
        <time>2019-05-23T09:37:37Z</time>
      </trkpt>
    </trkseg>
  </trk>
</gpx>